﻿<?xml version="1.0" encoding="UTF-8"?>
<gpx version="v1.1.5" creator="iTravel Tech Inc. - http://www.itravel-tech.com" xmlns:xsi="http://www.w3.org/2001/XMLSchema-instance" xmlns="http://www.topografix.com/GPX/1/1" xsi:schemaLocation="http://www.topografix.com/GPX/1/1 http://www.topografix.com/GPX/1/1/gpx.xsd http://www.topografix.com/GPX/gpx_overlay/0/3 http://www.topografix.com/GPX/gpx_overlay/0/3/gpx_overlay.xsd http://www.topografix.com/GPX/gpx_modified/0/1 http://www.topografix.com/GPX/gpx_modified/0/1/gpx_modified.xsd">
<trk>
<name>Holux2011/10/13_10:19</name>
<trkseg>
<trkpt lat="44.537769" lon="34.274376">
<ele>119.456116</ele>
<time>2011-10-13T07:19:07Z</time>
<desc>lat.=44.537769, lon.=34.274376, Alt.=119.456116m. Speed=0.576000m/h.</desc>
<speed>0.160000</speed>
</trkpt>
<trkpt lat="44.537834" lon="34.274483">
<ele>119.465881</ele>
<time>2011-10-13T07:19:12Z</time>
<desc>lat.=44.537834, lon.=34.274483, Alt.=119.465881m. Speed=0.180000m/h.</desc>
<speed>0.050000</speed>
</trkpt>
<trkpt lat="44.537838" lon="34.274479">
<ele>119.467834</ele>
<time>2011-10-13T07:19:17Z</time>
<desc>lat.=44.537838, lon.=34.274479, Alt.=119.467834m. Speed=0.144000m/h.</desc>
<speed>0.040000</speed>
</trkpt>
<trkpt lat="44.537777" lon="34.274429">
<ele>119.467834</ele>
<time>2011-10-13T07:19:22Z</time>
<desc>lat.=44.537777, lon.=34.274429, Alt.=119.467834m. Speed=0.900000m/h.</desc>
<speed>0.250000</speed>
</trkpt>
<trkpt lat="44.537754" lon="34.274406">
<ele>119.481506</ele>
<time>2011-10-13T07:19:27Z</time>
<desc>lat.=44.537754, lon.=34.274406, Alt.=119.481506m. Speed=0.792000m/h.</desc>
<speed>0.220000</speed>
</trkpt>
<trkpt lat="44.537758" lon="34.274406">
<ele>119.460022</ele>
<time>2011-10-13T07:19:32Z</time>
<desc>lat.=44.537758, lon.=34.274406, Alt.=119.460022m. Speed=0.468000m/h.</desc>
<speed>0.130000</speed>
</trkpt>
<trkpt lat="44.537758" lon="34.274403">
<ele>119.377991</ele>
<time>2011-10-13T07:19:37Z</time>
<desc>lat.=44.537758, lon.=34.274403, Alt.=119.377991m. Speed=0.468000m/h.</desc>
<speed>0.130000</speed>
</trkpt>
<trkpt lat="44.537716" lon="34.274376">
<ele>119.407288</ele>
<time>2011-10-13T07:19:42Z</time>
<desc>lat.=44.537716, lon.=34.274376, Alt.=119.407288m. Speed=2.016000m/h.</desc>
<speed>0.560000</speed>
</trkpt>
<trkpt lat="44.537727" lon="34.274364">
<ele>119.227600</ele>
<time>2011-10-13T07:19:47Z</time>
<desc>lat.=44.537727, lon.=34.274364, Alt.=119.227600m. Speed=0.180000m/h.</desc>
<speed>0.050000</speed>
</trkpt>
<trkpt lat="44.537415" lon="34.273560">
<ele>49.177277</ele>
<time>2011-10-13T07:19:52Z</time>
<desc>lat.=44.537415, lon.=34.273560, Alt.=49.177277m. Speed=0.540000m/h.</desc>
<speed>0.150000</speed>
</trkpt>
<trkpt lat="44.537415" lon="34.273563">
<ele>48.629425</ele>
<time>2011-10-13T07:19:57Z</time>
<desc>lat.=44.537415, lon.=34.273563, Alt.=48.629425m. Speed=0.000000m/h.</desc>
<speed>0.000000</speed>
</trkpt>
<trkpt lat="44.537415" lon="34.273560">
<ele>48.581573</ele>
<time>2011-10-13T07:20:02Z</time>
<desc>lat.=44.537415, lon.=34.273560, Alt.=48.581573m. Speed=0.036000m/h.</desc>
<speed>0.010000</speed>
</trkpt>
<trkpt lat="44.537415" lon="34.273560">
<ele>48.551300</ele>
<time>2011-10-13T07:20:07Z</time>
<desc>lat.=44.537415, lon.=34.273560, Alt.=48.551300m. Speed=0.000000m/h.</desc>
<speed>0.000000</speed>
</trkpt>
<trkpt lat="44.537415" lon="34.273560">
<ele>48.497589</ele>
<time>2011-10-13T07:20:12Z</time>
<desc>lat.=44.537415, lon.=34.273560, Alt.=48.497589m. Speed=0.000000m/h.</desc>
<speed>0.000000</speed>
</trkpt>
<trkpt lat="44.537415" lon="34.273560">
<ele>48.447784</ele>
<time>2011-10-13T07:20:17Z</time>
<desc>lat.=44.537415, lon.=34.273560, Alt.=48.447784m. Speed=0.000000m/h.</desc>
<speed>0.000000</speed>
</trkpt>
<trkpt lat="44.537415" lon="34.273560">
<ele>48.407745</ele>
<time>2011-10-13T07:20:22Z</time>
<desc>lat.=44.537415, lon.=34.273560, Alt.=48.407745m. Speed=0.000000m/h.</desc>
<speed>0.000000</speed>
</trkpt>
<trkpt lat="44.537415" lon="34.273560">
<ele>48.385284</ele>
<time>2011-10-13T07:20:27Z</time>
<desc>lat.=44.537415, lon.=34.273560, Alt.=48.385284m. Speed=0.036000m/h.</desc>
<speed>0.010000</speed>
</trkpt>
<trkpt lat="44.537415" lon="34.273560">
<ele>48.376495</ele>
<time>2011-10-13T07:20:32Z</time>
<desc>lat.=44.537415, lon.=34.273560, Alt.=48.376495m. Speed=0.036000m/h.</desc>
<speed>0.010000</speed>
</trkpt>
<trkpt lat="44.537415" lon="34.273560">
<ele>48.378448</ele>
<time>2011-10-13T07:20:37Z</time>
<desc>lat.=44.537415, lon.=34.273560, Alt.=48.378448m. Speed=0.036000m/h.</desc>
<speed>0.010000</speed>
</trkpt>
<trkpt lat="44.537415" lon="34.273556">
<ele>48.397980</ele>
<time>2011-10-13T07:20:42Z</time>
<desc>lat.=44.537415, lon.=34.273556, Alt.=48.397980m. Speed=0.000000m/h.</desc>
<speed>0.000000</speed>
</trkpt>
<trkpt lat="44.537415" lon="34.273556">
<ele>48.394073</ele>
<time>2011-10-13T07:20:47Z</time>
<desc>lat.=44.537415, lon.=34.273556, Alt.=48.394073m. Speed=0.000000m/h.</desc>
<speed>0.000000</speed>
</trkpt>
<trkpt lat="44.537415" lon="34.273556">
<ele>48.370636</ele>
<time>2011-10-13T07:20:52Z</time>
<desc>lat.=44.537415, lon.=34.273556, Alt.=48.370636m. Speed=0.108000m/h.</desc>
<speed>0.030000</speed>
</trkpt>
<trkpt lat="44.537415" lon="34.273556">
<ele>48.350128</ele>
<time>2011-10-13T07:20:57Z</time>
<desc>lat.=44.537415, lon.=34.273556, Alt.=48.350128m. Speed=0.000000m/h.</desc>
<speed>0.000000</speed>
</trkpt>
<trkpt lat="44.537415" lon="34.273556">
<ele>48.321808</ele>
<time>2011-10-13T07:21:02Z</time>
<desc>lat.=44.537415, lon.=34.273556, Alt.=48.321808m. Speed=0.000000m/h.</desc>
<speed>0.000000</speed>
</trkpt>
<trkpt lat="44.537415" lon="34.273556">
<ele>48.290558</ele>
<time>2011-10-13T07:21:07Z</time>
<desc>lat.=44.537415, lon.=34.273556, Alt.=48.290558m. Speed=0.000000m/h.</desc>
<speed>0.000000</speed>
</trkpt>
<trkpt lat="44.537415" lon="34.273556">
<ele>48.255402</ele>
<time>2011-10-13T07:21:12Z</time>
<desc>lat.=44.537415, lon.=34.273556, Alt.=48.255402m. Speed=0.000000m/h.</desc>
<speed>0.000000</speed>
</trkpt>
<trkpt lat="44.537415" lon="34.273556">
<ele>48.225128</ele>
<time>2011-10-13T07:21:17Z</time>
<desc>lat.=44.537415, lon.=34.273556, Alt.=48.225128m. Speed=0.000000m/h.</desc>
<speed>0.000000</speed>
</trkpt>
<trkpt lat="44.537415" lon="34.273556">
<ele>48.193878</ele>
<time>2011-10-13T07:21:22Z</time>
<desc>lat.=44.537415, lon.=34.273556, Alt.=48.193878m. Speed=0.000000m/h.</desc>
<speed>0.000000</speed>
</trkpt>
<trkpt lat="44.537415" lon="34.273552">
<ele>48.168488</ele>
<time>2011-10-13T07:21:27Z</time>
<desc>lat.=44.537415, lon.=34.273552, Alt.=48.168488m. Speed=0.000000m/h.</desc>
<speed>0.000000</speed>
</trkpt>
<trkpt lat="44.537415" lon="34.273552">
<ele>48.147003</ele>
<time>2011-10-13T07:21:32Z</time>
<desc>lat.=44.537415, lon.=34.273552, Alt.=48.147003m. Speed=0.000000m/h.</desc>
<speed>0.000000</speed>
</trkpt>
<trkpt lat="44.537415" lon="34.273552">
<ele>48.122589</ele>
<time>2011-10-13T07:21:37Z</time>
<desc>lat.=44.537415, lon.=34.273552, Alt.=48.122589m. Speed=0.000000m/h.</desc>
<speed>0.000000</speed>
</trkpt>
<trkpt lat="44.537415" lon="34.273552">
<ele>48.097198</ele>
<time>2011-10-13T07:21:42Z</time>
<desc>lat.=44.537415, lon.=34.273552, Alt.=48.097198m. Speed=0.000000m/h.</desc>
<speed>0.000000</speed>
</trkpt>
<trkpt lat="44.537415" lon="34.273552">
<ele>48.072784</ele>
<time>2011-10-13T07:21:47Z</time>
<desc>lat.=44.537415, lon.=34.273552, Alt.=48.072784m. Speed=0.036000m/h.</desc>
<speed>0.010000</speed>
</trkpt>
<trkpt lat="44.537415" lon="34.273552">
<ele>48.050323</ele>
<time>2011-10-13T07:21:52Z</time>
<desc>lat.=44.537415, lon.=34.273552, Alt.=48.050323m. Speed=0.036000m/h.</desc>
<speed>0.010000</speed>
</trkpt>
<trkpt lat="44.537418" lon="34.273552">
<ele>47.828644</ele>
<time>2011-10-13T07:21:57Z</time>
<desc>lat.=44.537418, lon.=34.273552, Alt.=47.828644m. Speed=0.000000m/h.</desc>
<speed>0.000000</speed>
</trkpt>
<trkpt lat="44.537418" lon="34.273544">
<ele>47.272980</ele>
<time>2011-10-13T07:22:02Z</time>
<desc>lat.=44.537418, lon.=34.273544, Alt.=47.272980m. Speed=0.072000m/h.</desc>
<speed>0.020000</speed>
</trkpt>
<trkpt lat="44.537415" lon="34.273540">
<ele>47.039581</ele>
<time>2011-10-13T07:22:07Z</time>
<desc>lat.=44.537415, lon.=34.273540, Alt.=47.039581m. Speed=0.000000m/h.</desc>
<speed>0.000000</speed>
</trkpt>
<trkpt lat="44.537411" lon="34.273540">
<ele>46.692902</ele>
<time>2011-10-13T07:22:12Z</time>
<desc>lat.=44.537411, lon.=34.273540, Alt.=46.692902m. Speed=0.000000m/h.</desc>
<speed>0.000000</speed>
</trkpt>
<trkpt lat="44.537411" lon="34.273537">
<ele>46.553253</ele>
<time>2011-10-13T07:22:17Z</time>
<desc>lat.=44.537411, lon.=34.273537, Alt.=46.553253m. Speed=0.000000m/h.</desc>
<speed>0.000000</speed>
</trkpt>
<trkpt lat="44.537407" lon="34.273525">
<ele>46.329620</ele>
<time>2011-10-13T07:22:22Z</time>
<desc>lat.=44.537407, lon.=34.273525, Alt.=46.329620m. Speed=0.000000m/h.</desc>
<speed>0.000000</speed>
</trkpt>
<trkpt lat="44.537403" lon="34.273521">
<ele>46.049347</ele>
<time>2011-10-13T07:22:27Z</time>
<desc>lat.=44.537403, lon.=34.273521, Alt.=46.049347m. Speed=0.000000m/h.</desc>
<speed>0.000000</speed>
</trkpt>
<trkpt lat="44.537422" lon="34.273514">
<ele>45.613800</ele>
<time>2011-10-13T07:22:32Z</time>
<desc>lat.=44.537422, lon.=34.273514, Alt.=45.613800m. Speed=1.044000m/h.</desc>
<speed>0.290000</speed>
</trkpt>
<trkpt lat="44.537426" lon="34.273525">
<ele>45.498566</ele>
<time>2011-10-13T07:22:37Z</time>
<desc>lat.=44.537426, lon.=34.273525, Alt.=45.498566m. Speed=0.504000m/h.</desc>
<speed>0.140000</speed>
</trkpt>
<trkpt lat="44.537426" lon="34.273529">
<ele>45.525909</ele>
<time>2011-10-13T07:22:42Z</time>
<desc>lat.=44.537426, lon.=34.273529, Alt.=45.525909m. Speed=0.324000m/h.</desc>
<speed>0.090000</speed>
</trkpt>
<trkpt lat="44.537422" lon="34.273529">
<ele>45.583527</ele>
<time>2011-10-13T07:22:47Z</time>
<desc>lat.=44.537422, lon.=34.273529, Alt.=45.583527m. Speed=0.036000m/h.</desc>
<speed>0.010000</speed>
</trkpt>
<trkpt lat="44.537422" lon="34.273529">
<ele>45.636261</ele>
<time>2011-10-13T07:22:52Z</time>
<desc>lat.=44.537422, lon.=34.273529, Alt.=45.636261m. Speed=0.000000m/h.</desc>
<speed>0.000000</speed>
</trkpt>
<trkpt lat="44.537422" lon="34.273529">
<ele>45.662628</ele>
<time>2011-10-13T07:22:57Z</time>
<desc>lat.=44.537422, lon.=34.273529, Alt.=45.662628m. Speed=0.000000m/h.</desc>
<speed>0.000000</speed>
</trkpt>
<trkpt lat="44.537422" lon="34.273529">
<ele>45.649933</ele>
<time>2011-10-13T07:23:02Z</time>
<desc>lat.=44.537422, lon.=34.273529, Alt.=45.649933m. Speed=0.000000m/h.</desc>
<speed>0.000000</speed>
</trkpt>
<trkpt lat="44.537422" lon="34.273529">
<ele>45.625519</ele>
<time>2011-10-13T07:23:07Z</time>
<desc>lat.=44.537422, lon.=34.273529, Alt.=45.625519m. Speed=0.108000m/h.</desc>
<speed>0.030000</speed>
</trkpt>
<trkpt lat="44.537422" lon="34.273525">
<ele>45.666534</ele>
<time>2011-10-13T07:23:12Z</time>
<desc>lat.=44.537422, lon.=34.273525, Alt.=45.666534m. Speed=0.036000m/h.</desc>
<speed>0.010000</speed>
</trkpt>
<trkpt lat="44.537422" lon="34.273529">
<ele>45.716339</ele>
<time>2011-10-13T07:23:17Z</time>
<desc>lat.=44.537422, lon.=34.273529, Alt.=45.716339m. Speed=0.036000m/h.</desc>
<speed>0.010000</speed>
</trkpt>
<trkpt lat="44.537418" lon="34.273529">
<ele>45.787628</ele>
<time>2011-10-13T07:23:22Z</time>
<desc>lat.=44.537418, lon.=34.273529, Alt.=45.787628m. Speed=0.072000m/h.</desc>
<speed>0.020000</speed>
</trkpt>
<trkpt lat="44.537418" lon="34.273529">
<ele>45.842316</ele>
<time>2011-10-13T07:23:27Z</time>
<desc>lat.=44.537418, lon.=34.273529, Alt.=45.842316m. Speed=0.036000m/h.</desc>
<speed>0.010000</speed>
</trkpt>
<trkpt lat="44.537418" lon="34.273529">
<ele>45.893097</ele>
<time>2011-10-13T07:23:32Z</time>
<desc>lat.=44.537418, lon.=34.273529, Alt.=45.893097m. Speed=0.036000m/h.</desc>
<speed>0.010000</speed>
</trkpt>
<trkpt lat="44.537418" lon="34.273529">
<ele>45.959503</ele>
<time>2011-10-13T07:23:37Z</time>
<desc>lat.=44.537418, lon.=34.273529, Alt.=45.959503m. Speed=0.036000m/h.</desc>
<speed>0.010000</speed>
</trkpt>
<trkpt lat="44.537422" lon="34.273533">
<ele>46.001495</ele>
<time>2011-10-13T07:23:42Z</time>
<desc>lat.=44.537422, lon.=34.273533, Alt.=46.001495m. Speed=0.000000m/h.</desc>
<speed>0.000000</speed>
</trkpt>
<trkpt lat="44.537418" lon="34.273533">
<ele>46.012238</ele>
<time>2011-10-13T07:23:47Z</time>
<desc>lat.=44.537418, lon.=34.273533, Alt.=46.012238m. Speed=0.036000m/h.</desc>
<speed>0.010000</speed>
</trkpt>
<trkpt lat="44.537418" lon="34.273533">
<ele>46.000519</ele>
<time>2011-10-13T07:23:52Z</time>
<desc>lat.=44.537418, lon.=34.273533, Alt.=46.000519m. Speed=0.036000m/h.</desc>
<speed>0.010000</speed>
</trkpt>
<trkpt lat="44.537418" lon="34.273533">
<ele>45.978058</ele>
<time>2011-10-13T07:23:57Z</time>
<desc>lat.=44.537418, lon.=34.273533, Alt.=45.978058m. Speed=0.072000m/h.</desc>
<speed>0.020000</speed>
</trkpt>
<trkpt lat="44.537418" lon="34.273537">
<ele>45.937042</ele>
<time>2011-10-13T07:24:02Z</time>
<desc>lat.=44.537418, lon.=34.273537, Alt.=45.937042m. Speed=0.072000m/h.</desc>
<speed>0.020000</speed>
</trkpt>
<trkpt lat="44.537418" lon="34.273537">
<ele>45.889191</ele>
<time>2011-10-13T07:24:07Z</time>
<desc>lat.=44.537418, lon.=34.273537, Alt.=45.889191m. Speed=0.000000m/h.</desc>
<speed>0.000000</speed>
</trkpt>
<trkpt lat="44.537418" lon="34.273537">
<ele>45.838409</ele>
<time>2011-10-13T07:24:12Z</time>
<desc>lat.=44.537418, lon.=34.273537, Alt.=45.838409m. Speed=0.000000m/h.</desc>
<speed>0.000000</speed>
</trkpt>
<trkpt lat="44.537418" lon="34.273537">
<ele>45.780792</ele>
<time>2011-10-13T07:24:17Z</time>
<desc>lat.=44.537418, lon.=34.273537, Alt.=45.780792m. Speed=0.036000m/h.</desc>
<speed>0.010000</speed>
</trkpt>
<trkpt lat="44.537418" lon="34.273537">
<ele>45.717316</ele>
<time>2011-10-13T07:24:22Z</time>
<desc>lat.=44.537418, lon.=34.273537, Alt.=45.717316m. Speed=0.072000m/h.</desc>
<speed>0.020000</speed>
</trkpt>
<trkpt lat="44.537418" lon="34.273537">
<ele>45.667511</ele>
<time>2011-10-13T07:24:27Z</time>
<desc>lat.=44.537418, lon.=34.273537, Alt.=45.667511m. Speed=0.036000m/h.</desc>
<speed>0.010000</speed>
</trkpt>
<trkpt lat="44.537418" lon="34.273537">
<ele>45.654816</ele>
<time>2011-10-13T07:24:32Z</time>
<desc>lat.=44.537418, lon.=34.273537, Alt.=45.654816m. Speed=0.000000m/h.</desc>
<speed>0.000000</speed>
</trkpt>
<trkpt lat="44.537418" lon="34.273537">
<ele>45.667511</ele>
<time>2011-10-13T07:24:37Z</time>
<desc>lat.=44.537418, lon.=34.273537, Alt.=45.667511m. Speed=0.000000m/h.</desc>
<speed>0.000000</speed>
</trkpt>
<trkpt lat="44.537418" lon="34.273537">
<ele>45.659698</ele>
<time>2011-10-13T07:24:42Z</time>
<desc>lat.=44.537418, lon.=34.273537, Alt.=45.659698m. Speed=0.036000m/h.</desc>
<speed>0.010000</speed>
</trkpt>
<trkpt lat="44.537418" lon="34.273537">
<ele>45.635284</ele>
<time>2011-10-13T07:24:47Z</time>
<desc>lat.=44.537418, lon.=34.273537, Alt.=45.635284m. Speed=0.000000m/h.</desc>
<speed>0.000000</speed>
</trkpt>
<trkpt lat="44.537418" lon="34.273537">
<ele>45.605011</ele>
<time>2011-10-13T07:24:52Z</time>
<desc>lat.=44.537418, lon.=34.273537, Alt.=45.605011m. Speed=0.000000m/h.</desc>
<speed>0.000000</speed>
</trkpt>
<trkpt lat="44.537418" lon="34.273533">
<ele>45.597198</ele>
<time>2011-10-13T07:24:57Z</time>
<desc>lat.=44.537418, lon.=34.273533, Alt.=45.597198m. Speed=0.036000m/h.</desc>
<speed>0.010000</speed>
</trkpt>
<trkpt lat="44.537415" lon="34.273533">
<ele>45.597198</ele>
<time>2011-10-13T07:25:02Z</time>
<desc>lat.=44.537415, lon.=34.273533, Alt.=45.597198m. Speed=0.036000m/h.</desc>
<speed>0.010000</speed>
</trkpt>
<trkpt lat="44.537415" lon="34.273533">
<ele>45.579620</ele>
<time>2011-10-13T07:25:07Z</time>
<desc>lat.=44.537415, lon.=34.273533, Alt.=45.579620m. Speed=0.072000m/h.</desc>
<speed>0.020000</speed>
</trkpt>
<trkpt lat="44.537415" lon="34.273533">
<ele>45.561066</ele>
<time>2011-10-13T07:25:12Z</time>
<desc>lat.=44.537415, lon.=34.273533, Alt.=45.561066m. Speed=0.072000m/h.</desc>
<speed>0.020000</speed>
</trkpt>
<trkpt lat="44.537415" lon="34.273533">
<ele>45.519073</ele>
<time>2011-10-13T07:25:17Z</time>
<desc>lat.=44.537415, lon.=34.273533, Alt.=45.519073m. Speed=0.036000m/h.</desc>
<speed>0.010000</speed>
</trkpt>
<trkpt lat="44.537415" lon="34.273533">
<ele>45.438995</ele>
<time>2011-10-13T07:25:22Z</time>
<desc>lat.=44.537415, lon.=34.273533, Alt.=45.438995m. Speed=0.036000m/h.</desc>
<speed>0.010000</speed>
</trkpt>
<trkpt lat="44.537415" lon="34.273533">
<ele>45.379425</ele>
<time>2011-10-13T07:25:27Z</time>
<desc>lat.=44.537415, lon.=34.273533, Alt.=45.379425m. Speed=0.108000m/h.</desc>
<speed>0.030000</speed>
</trkpt>
<trkpt lat="44.537415" lon="34.273537">
<ele>45.333527</ele>
<time>2011-10-13T07:25:32Z</time>
<desc>lat.=44.537415, lon.=34.273537, Alt.=45.333527m. Speed=0.108000m/h.</desc>
<speed>0.030000</speed>
</trkpt>
<trkpt lat="44.537415" lon="34.273537">
<ele>45.279816</ele>
<time>2011-10-13T07:25:37Z</time>
<desc>lat.=44.537415, lon.=34.273537, Alt.=45.279816m. Speed=0.072000m/h.</desc>
<speed>0.020000</speed>
</trkpt>
<trkpt lat="44.537415" lon="34.273537">
<ele>45.228058</ele>
<time>2011-10-13T07:25:42Z</time>
<desc>lat.=44.537415, lon.=34.273537, Alt.=45.228058m. Speed=0.216000m/h.</desc>
<speed>0.060000</speed>
</trkpt>
<trkpt lat="44.537407" lon="34.273537">
<ele>45.164581</ele>
<time>2011-10-13T07:25:47Z</time>
<desc>lat.=44.537407, lon.=34.273537, Alt.=45.164581m. Speed=0.504000m/h.</desc>
<speed>0.140000</speed>
</trkpt>
<trkpt lat="44.537399" lon="34.273533">
<ele>45.087433</ele>
<time>2011-10-13T07:25:52Z</time>
<desc>lat.=44.537399, lon.=34.273533, Alt.=45.087433m. Speed=0.360000m/h.</desc>
<speed>0.100000</speed>
</trkpt>
<trkpt lat="44.537399" lon="34.273529">
<ele>44.957550</ele>
<time>2011-10-13T07:25:57Z</time>
<desc>lat.=44.537399, lon.=34.273529, Alt.=44.957550m. Speed=0.216000m/h.</desc>
<speed>0.060000</speed>
</trkpt>
<trkpt lat="44.537395" lon="34.273529">
<ele>44.762238</ele>
<time>2011-10-13T07:26:02Z</time>
<desc>lat.=44.537395, lon.=34.273529, Alt.=44.762238m. Speed=0.036000m/h.</desc>
<speed>0.010000</speed>
</trkpt>
<trkpt lat="44.537395" lon="34.273525">
<ele>44.548370</ele>
<time>2011-10-13T07:26:07Z</time>
<desc>lat.=44.537395, lon.=34.273525, Alt.=44.548370m. Speed=0.072000m/h.</desc>
<speed>0.020000</speed>
</trkpt>
<trkpt lat="44.537395" lon="34.273525">
<ele>44.455597</ele>
<time>2011-10-13T07:26:12Z</time>
<desc>lat.=44.537395, lon.=34.273525, Alt.=44.455597m. Speed=0.000000m/h.</desc>
<speed>0.000000</speed>
</trkpt>
<trkpt lat="44.537395" lon="34.273525">
<ele>44.472198</ele>
<time>2011-10-13T07:26:17Z</time>
<desc>lat.=44.537395, lon.=34.273525, Alt.=44.472198m. Speed=0.000000m/h.</desc>
<speed>0.000000</speed>
</trkpt>
<trkpt lat="44.537395" lon="34.273525">
<ele>44.500519</ele>
<time>2011-10-13T07:26:22Z</time>
<desc>lat.=44.537395, lon.=34.273525, Alt.=44.500519m. Speed=0.000000m/h.</desc>
<speed>0.000000</speed>
</trkpt>
<trkpt lat="44.537395" lon="34.273525">
<ele>44.528839</ele>
<time>2011-10-13T07:26:27Z</time>
<desc>lat.=44.537395, lon.=34.273525, Alt.=44.528839m. Speed=0.036000m/h.</desc>
<speed>0.010000</speed>
</trkpt>
<trkpt lat="44.537395" lon="34.273529">
<ele>44.537628</ele>
<time>2011-10-13T07:26:32Z</time>
<desc>lat.=44.537395, lon.=34.273529, Alt.=44.537628m. Speed=0.072000m/h.</desc>
<speed>0.020000</speed>
</trkpt>
<trkpt lat="44.537395" lon="34.273529">
<ele>44.529816</ele>
<time>2011-10-13T07:26:37Z</time>
<desc>lat.=44.537395, lon.=34.273529, Alt.=44.529816m. Speed=0.036000m/h.</desc>
<speed>0.010000</speed>
</trkpt>
<trkpt lat="44.537395" lon="34.273529">
<ele>44.553253</ele>
<time>2011-10-13T07:26:42Z</time>
<desc>lat.=44.537395, lon.=34.273529, Alt.=44.553253m. Speed=0.036000m/h.</desc>
<speed>0.010000</speed>
</trkpt>
<trkpt lat="44.537395" lon="34.273529">
<ele>44.577667</ele>
<time>2011-10-13T07:26:47Z</time>
<desc>lat.=44.537395, lon.=34.273529, Alt.=44.577667m. Speed=0.036000m/h.</desc>
<speed>0.010000</speed>
</trkpt>
<trkpt lat="44.537395" lon="34.273529">
<ele>44.601105</ele>
<time>2011-10-13T07:26:52Z</time>
<desc>lat.=44.537395, lon.=34.273529, Alt.=44.601105m. Speed=0.000000m/h.</desc>
<speed>0.000000</speed>
</trkpt>
<trkpt lat="44.537395" lon="34.273529">
<ele>44.618683</ele>
<time>2011-10-13T07:26:57Z</time>
<desc>lat.=44.537395, lon.=34.273529, Alt.=44.618683m. Speed=0.036000m/h.</desc>
<speed>0.010000</speed>
</trkpt>
<trkpt lat="44.537395" lon="34.273529">
<ele>44.641144</ele>
<time>2011-10-13T07:27:02Z</time>
<desc>lat.=44.537395, lon.=34.273529, Alt.=44.641144m. Speed=0.036000m/h.</desc>
<speed>0.010000</speed>
</trkpt>
<trkpt lat="44.537395" lon="34.273529">
<ele>44.674347</ele>
<time>2011-10-13T07:27:07Z</time>
<desc>lat.=44.537395, lon.=34.273529, Alt.=44.674347m. Speed=0.000000m/h.</desc>
<speed>0.000000</speed>
</trkpt>
<trkpt lat="44.537399" lon="34.273529">
<ele>44.710480</ele>
<time>2011-10-13T07:27:12Z</time>
<desc>lat.=44.537399, lon.=34.273529, Alt.=44.710480m. Speed=0.108000m/h.</desc>
<speed>0.030000</speed>
</trkpt>
<trkpt lat="44.537399" lon="34.273525">
<ele>44.721222</ele>
<time>2011-10-13T07:27:17Z</time>
<desc>lat.=44.537399, lon.=34.273525, Alt.=44.721222m. Speed=0.000000m/h.</desc>
<speed>0.000000</speed>
</trkpt>
<trkpt lat="44.537399" lon="34.273525">
<ele>44.727081</ele>
<time>2011-10-13T07:27:22Z</time>
<desc>lat.=44.537399, lon.=34.273525, Alt.=44.727081m. Speed=0.036000m/h.</desc>
<speed>0.010000</speed>
</trkpt>
<trkpt lat="44.537399" lon="34.273525">
<ele>44.730011</ele>
<time>2011-10-13T07:27:27Z</time>
<desc>lat.=44.537399, lon.=34.273525, Alt.=44.730011m. Speed=0.000000m/h.</desc>
<speed>0.000000</speed>
</trkpt>
<trkpt lat="44.537399" lon="34.273525">
<ele>44.730011</ele>
<time>2011-10-13T07:27:32Z</time>
<desc>lat.=44.537399, lon.=34.273525, Alt.=44.730011m. Speed=0.000000m/h.</desc>
<speed>0.000000</speed>
</trkpt>
<trkpt lat="44.537399" lon="34.273525">
<ele>44.730011</ele>
<time>2011-10-13T07:27:37Z</time>
<desc>lat.=44.537399, lon.=34.273525, Alt.=44.730011m. Speed=0.000000m/h.</desc>
<speed>0.000000</speed>
</trkpt>
<trkpt lat="44.537399" lon="34.273525">
<ele>44.730988</ele>
<time>2011-10-13T07:27:42Z</time>
<desc>lat.=44.537399, lon.=34.273525, Alt.=44.730988m. Speed=0.000000m/h.</desc>
<speed>0.000000</speed>
</trkpt>
<trkpt lat="44.537399" lon="34.273525">
<ele>44.733917</ele>
<time>2011-10-13T07:27:47Z</time>
<desc>lat.=44.537399, lon.=34.273525, Alt.=44.733917m. Speed=0.000000m/h.</desc>
<speed>0.000000</speed>
</trkpt>
<trkpt lat="44.537399" lon="34.273525">
<ele>44.735870</ele>
<time>2011-10-13T07:27:52Z</time>
<desc>lat.=44.537399, lon.=34.273525, Alt.=44.735870m. Speed=0.036000m/h.</desc>
<speed>0.010000</speed>
</trkpt>
<trkpt lat="44.537399" lon="34.273525">
<ele>44.738800</ele>
<time>2011-10-13T07:27:57Z</time>
<desc>lat.=44.537399, lon.=34.273525, Alt.=44.738800m. Speed=0.036000m/h.</desc>
<speed>0.010000</speed>
</trkpt>
<trkpt lat="44.537399" lon="34.273525">
<ele>44.743683</ele>
<time>2011-10-13T07:28:02Z</time>
<desc>lat.=44.537399, lon.=34.273525, Alt.=44.743683m. Speed=0.036000m/h.</desc>
<speed>0.010000</speed>
</trkpt>
<trkpt lat="44.537399" lon="34.273525">
<ele>44.745636</ele>
<time>2011-10-13T07:28:07Z</time>
<desc>lat.=44.537399, lon.=34.273525, Alt.=44.745636m. Speed=0.468000m/h.</desc>
<speed>0.130000</speed>
</trkpt>
<trkpt lat="44.537399" lon="34.273525">
<ele>44.732941</ele>
<time>2011-10-13T07:28:12Z</time>
<desc>lat.=44.537399, lon.=34.273525, Alt.=44.732941m. Speed=0.036000m/h.</desc>
<speed>0.010000</speed>
</trkpt>
<trkpt lat="44.537399" lon="34.273525">
<ele>44.700714</ele>
<time>2011-10-13T07:28:17Z</time>
<desc>lat.=44.537399, lon.=34.273525, Alt.=44.700714m. Speed=1.584000m/h.</desc>
<speed>0.440000</speed>
</trkpt>
<trkpt lat="44.537437" lon="34.273552">
<ele>45.017120</ele>
<time>2011-10-13T07:28:22Z</time>
<desc>lat.=44.537437, lon.=34.273552, Alt.=45.017120m. Speed=2.628000m/h.</desc>
<speed>0.730000</speed>
</trkpt>
<trkpt lat="44.537495" lon="34.273548">
<ele>43.510284</ele>
<time>2011-10-13T07:28:27Z</time>
<desc>lat.=44.537495, lon.=34.273548, Alt.=43.510284m. Speed=4.608000m/h.</desc>
<speed>1.280000</speed>
</trkpt>
<trkpt lat="44.537579" lon="34.273575">
<ele>44.778839</ele>
<time>2011-10-13T07:28:32Z</time>
<desc>lat.=44.537579, lon.=34.273575, Alt.=44.778839m. Speed=7.128000m/h.</desc>
<speed>1.980000</speed>
</trkpt>
<trkpt lat="44.537678" lon="34.273548">
<ele>44.417511</ele>
<time>2011-10-13T07:28:37Z</time>
<desc>lat.=44.537678, lon.=34.273548, Alt.=44.417511m. Speed=8.352000m/h.</desc>
<speed>2.320000</speed>
</trkpt>
<trkpt lat="44.537766" lon="34.273518">
<ele>45.517120</ele>
<time>2011-10-13T07:28:42Z</time>
<desc>lat.=44.537766, lon.=34.273518, Alt.=45.517120m. Speed=7.884000m/h.</desc>
<speed>2.190000</speed>
</trkpt>
<trkpt lat="44.537861" lon="34.273499">
<ele>48.064972</ele>
<time>2011-10-13T07:28:47Z</time>
<desc>lat.=44.537861, lon.=34.273499, Alt.=48.064972m. Speed=5.796000m/h.</desc>
<speed>1.610000</speed>
</trkpt>
<trkpt lat="44.537945" lon="34.273495">
<ele>51.988800</ele>
<time>2011-10-13T07:28:52Z</time>
<desc>lat.=44.537945, lon.=34.273495, Alt.=51.988800m. Speed=8.388000m/h.</desc>
<speed>2.330000</speed>
</trkpt>
<trkpt lat="44.538036" lon="34.273533">
<ele>52.686066</ele>
<time>2011-10-13T07:28:57Z</time>
<desc>lat.=44.538036, lon.=34.273533, Alt.=52.686066m. Speed=5.940000m/h.</desc>
<speed>1.650000</speed>
</trkpt>
<trkpt lat="44.538113" lon="34.273445">
<ele>44.695831</ele>
<time>2011-10-13T07:29:02Z</time>
<desc>lat.=44.538113, lon.=34.273445, Alt.=44.695831m. Speed=7.092000m/h.</desc>
<speed>1.970000</speed>
</trkpt>
<trkpt lat="44.538143" lon="34.273422">
<ele>45.187042</ele>
<time>2011-10-13T07:29:07Z</time>
<desc>lat.=44.538143, lon.=34.273422, Alt.=45.187042m. Speed=0.468000m/h.</desc>
<speed>0.130000</speed>
</trkpt>
<trkpt lat="44.538151" lon="34.273407">
<ele>42.689972</ele>
<time>2011-10-13T07:29:12Z</time>
<desc>lat.=44.538151, lon.=34.273407, Alt.=42.689972m. Speed=0.000000m/h.</desc>
<speed>0.000000</speed>
</trkpt>
<trkpt lat="44.538151" lon="34.273407">
<ele>42.639191</ele>
<time>2011-10-13T07:29:17Z</time>
<desc>lat.=44.538151, lon.=34.273407, Alt.=42.639191m. Speed=0.000000m/h.</desc>
<speed>0.000000</speed>
</trkpt>
<trkpt lat="44.538151" lon="34.273407">
<ele>42.661652</ele>
<time>2011-10-13T07:29:22Z</time>
<desc>lat.=44.538151, lon.=34.273407, Alt.=42.661652m. Speed=0.000000m/h.</desc>
<speed>0.000000</speed>
</trkpt>
<trkpt lat="44.538151" lon="34.273407">
<ele>42.648956</ele>
<time>2011-10-13T07:29:27Z</time>
<desc>lat.=44.538151, lon.=34.273407, Alt.=42.648956m. Speed=0.072000m/h.</desc>
<speed>0.020000</speed>
</trkpt>
<trkpt lat="44.538151" lon="34.273407">
<ele>42.629425</ele>
<time>2011-10-13T07:29:32Z</time>
<desc>lat.=44.538151, lon.=34.273407, Alt.=42.629425m. Speed=0.000000m/h.</desc>
<speed>0.000000</speed>
</trkpt>
<trkpt lat="44.538151" lon="34.273411">
<ele>42.621613</ele>
<time>2011-10-13T07:29:37Z</time>
<desc>lat.=44.538151, lon.=34.273411, Alt.=42.621613m. Speed=0.036000m/h.</desc>
<speed>0.010000</speed>
</trkpt>
<trkpt lat="44.538151" lon="34.273411">
<ele>42.605988</ele>
<time>2011-10-13T07:29:42Z</time>
<desc>lat.=44.538151, lon.=34.273411, Alt.=42.605988m. Speed=0.144000m/h.</desc>
<speed>0.040000</speed>
</trkpt>
<trkpt lat="44.538162" lon="34.273426">
<ele>42.736847</ele>
<time>2011-10-13T07:29:47Z</time>
<desc>lat.=44.538162, lon.=34.273426, Alt.=42.736847m. Speed=0.360000m/h.</desc>
<speed>0.100000</speed>
</trkpt>
<trkpt lat="44.538166" lon="34.273438">
<ele>41.754425</ele>
<time>2011-10-13T07:29:52Z</time>
<desc>lat.=44.538166, lon.=34.273438, Alt.=41.754425m. Speed=0.000000m/h.</desc>
<speed>0.000000</speed>
</trkpt>
<trkpt lat="44.538166" lon="34.273438">
<ele>41.740753</ele>
<time>2011-10-13T07:29:57Z</time>
<desc>lat.=44.538166, lon.=34.273438, Alt.=41.740753m. Speed=0.072000m/h.</desc>
<speed>0.020000</speed>
</trkpt>
<trkpt lat="44.538166" lon="34.273438">
<ele>41.658722</ele>
<time>2011-10-13T07:30:02Z</time>
<desc>lat.=44.538166, lon.=34.273438, Alt.=41.658722m. Speed=0.000000m/h.</desc>
<speed>0.000000</speed>
</trkpt>
<trkpt lat="44.538166" lon="34.273438">
<ele>41.609894</ele>
<time>2011-10-13T07:30:07Z</time>
<desc>lat.=44.538166, lon.=34.273438, Alt.=41.609894m. Speed=0.000000m/h.</desc>
<speed>0.000000</speed>
</trkpt>
<trkpt lat="44.538166" lon="34.273438">
<ele>41.565948</ele>
<time>2011-10-13T07:30:12Z</time>
<desc>lat.=44.538166, lon.=34.273438, Alt.=41.565948m. Speed=0.108000m/h.</desc>
<speed>0.030000</speed>
</trkpt>
<trkpt lat="44.538185" lon="34.273434">
<ele>41.387238</ele>
<time>2011-10-13T07:30:17Z</time>
<desc>lat.=44.538185, lon.=34.273434, Alt.=41.387238m. Speed=5.040000m/h.</desc>
<speed>1.400000</speed>
</trkpt>
<trkpt lat="44.538315" lon="34.273418">
<ele>42.473175</ele>
<time>2011-10-13T07:30:22Z</time>
<desc>lat.=44.538315, lon.=34.273418, Alt.=42.473175m. Speed=10.656000m/h.</desc>
<speed>2.960000</speed>
</trkpt>
<trkpt lat="44.538441" lon="34.273365">
<ele>44.635284</ele>
<time>2011-10-13T07:30:27Z</time>
<desc>lat.=44.538441, lon.=34.273365, Alt.=44.635284m. Speed=9.864000m/h.</desc>
<speed>2.740000</speed>
</trkpt>
<trkpt lat="44.538544" lon="34.273300">
<ele>48.293488</ele>
<time>2011-10-13T07:30:32Z</time>
<desc>lat.=44.538544, lon.=34.273300, Alt.=48.293488m. Speed=7.884000m/h.</desc>
<speed>2.190000</speed>
</trkpt>
<trkpt lat="44.538654" lon="34.273254">
<ele>51.838409</ele>
<time>2011-10-13T07:30:37Z</time>
<desc>lat.=44.538654, lon.=34.273254, Alt.=51.838409m. Speed=8.604000m/h.</desc>
<speed>2.390000</speed>
</trkpt>
<trkpt lat="44.538750" lon="34.273178">
<ele>56.327667</ele>
<time>2011-10-13T07:30:42Z</time>
<desc>lat.=44.538750, lon.=34.273178, Alt.=56.327667m. Speed=8.892000m/h.</desc>
<speed>2.470000</speed>
</trkpt>
<trkpt lat="44.538883" lon="34.273083">
<ele>59.666534</ele>
<time>2011-10-13T07:30:47Z</time>
<desc>lat.=44.538883, lon.=34.273083, Alt.=59.666534m. Speed=11.376000m/h.</desc>
<speed>3.160000</speed>
</trkpt>
<trkpt lat="44.539032" lon="34.272968">
<ele>58.774933</ele>
<time>2011-10-13T07:30:52Z</time>
<desc>lat.=44.539032, lon.=34.272968, Alt.=58.774933m. Speed=7.704000m/h.</desc>
<speed>2.140000</speed>
</trkpt>
<trkpt lat="44.539104" lon="34.272835">
<ele>60.266144</ele>
<time>2011-10-13T07:30:57Z</time>
<desc>lat.=44.539104, lon.=34.272835, Alt.=60.266144m. Speed=8.172000m/h.</desc>
<speed>2.270000</speed>
</trkpt>
<trkpt lat="44.539158" lon="34.272713">
<ele>62.905792</ele>
<time>2011-10-13T07:31:02Z</time>
<desc>lat.=44.539158, lon.=34.272713, Alt.=62.905792m. Speed=8.172000m/h.</desc>
<speed>2.270000</speed>
</trkpt>
<trkpt lat="44.539211" lon="34.272560">
<ele>65.206116</ele>
<time>2011-10-13T07:31:07Z</time>
<desc>lat.=44.539211, lon.=34.272560, Alt.=65.206116m. Speed=10.512000m/h.</desc>
<speed>2.920000</speed>
</trkpt>
<trkpt lat="44.539295" lon="34.272427">
<ele>66.711975</ele>
<time>2011-10-13T07:31:12Z</time>
<desc>lat.=44.539295, lon.=34.272427, Alt.=66.711975m. Speed=8.748000m/h.</desc>
<speed>2.430000</speed>
</trkpt>
<trkpt lat="44.539375" lon="34.272362">
<ele>67.024475</ele>
<time>2011-10-13T07:31:17Z</time>
<desc>lat.=44.539375, lon.=34.272362, Alt.=67.024475m. Speed=7.344000m/h.</desc>
<speed>2.040000</speed>
</trkpt>
<trkpt lat="44.539413" lon="34.272327">
<ele>66.481506</ele>
<time>2011-10-13T07:31:22Z</time>
<desc>lat.=44.539413, lon.=34.272327, Alt.=66.481506m. Speed=2.592000m/h.</desc>
<speed>0.720000</speed>
</trkpt>
<trkpt lat="44.539429" lon="34.272324">
<ele>67.835022</ele>
<time>2011-10-13T07:31:27Z</time>
<desc>lat.=44.539429, lon.=34.272324, Alt.=67.835022m. Speed=0.900000m/h.</desc>
<speed>0.250000</speed>
</trkpt>
<trkpt lat="44.539444" lon="34.272324">
<ele>68.342834</ele>
<time>2011-10-13T07:31:32Z</time>
<desc>lat.=44.539444, lon.=34.272324, Alt.=68.342834m. Speed=0.648000m/h.</desc>
<speed>0.180000</speed>
</trkpt>
<trkpt lat="44.539459" lon="34.272308">
<ele>68.782288</ele>
<time>2011-10-13T07:31:37Z</time>
<desc>lat.=44.539459, lon.=34.272308, Alt.=68.782288m. Speed=1.800000m/h.</desc>
<speed>0.500000</speed>
</trkpt>
<trkpt lat="44.539474" lon="34.272282">
<ele>69.165100</ele>
<time>2011-10-13T07:31:42Z</time>
<desc>lat.=44.539474, lon.=34.272282, Alt.=69.165100m. Speed=0.468000m/h.</desc>
<speed>0.130000</speed>
</trkpt>
<trkpt lat="44.539486" lon="34.272312">
<ele>68.118225</ele>
<time>2011-10-13T07:31:47Z</time>
<desc>lat.=44.539486, lon.=34.272312, Alt.=68.118225m. Speed=4.464000m/h.</desc>
<speed>1.240000</speed>
</trkpt>
<trkpt lat="44.539524" lon="34.272320">
<ele>65.762756</ele>
<time>2011-10-13T07:31:52Z</time>
<desc>lat.=44.539524, lon.=34.272320, Alt.=65.762756m. Speed=4.032000m/h.</desc>
<speed>1.120000</speed>
</trkpt>
<trkpt lat="44.539528" lon="34.272289">
<ele>64.149475</ele>
<time>2011-10-13T07:31:57Z</time>
<desc>lat.=44.539528, lon.=34.272289, Alt.=64.149475m. Speed=0.828000m/h.</desc>
<speed>0.230000</speed>
</trkpt>
<trkpt lat="44.539536" lon="34.272282">
<ele>63.551300</ele>
<time>2011-10-13T07:32:02Z</time>
<desc>lat.=44.539536, lon.=34.272282, Alt.=63.551300m. Speed=2.412000m/h.</desc>
<speed>0.670000</speed>
</trkpt>
<trkpt lat="44.539562" lon="34.272240">
<ele>61.945831</ele>
<time>2011-10-13T07:32:07Z</time>
<desc>lat.=44.539562, lon.=34.272240, Alt.=61.945831m. Speed=2.484000m/h.</desc>
<speed>0.690000</speed>
</trkpt>
<trkpt lat="44.539608" lon="34.272243">
<ele>61.479034</ele>
<time>2011-10-13T07:32:12Z</time>
<desc>lat.=44.539608, lon.=34.272243, Alt.=61.479034m. Speed=2.700000m/h.</desc>
<speed>0.750000</speed>
</trkpt>
<trkpt lat="44.539680" lon="34.272266">
<ele>62.821808</ele>
<time>2011-10-13T07:32:17Z</time>
<desc>lat.=44.539680, lon.=34.272266, Alt.=62.821808m. Speed=10.044000m/h.</desc>
<speed>2.790000</speed>
</trkpt>
<trkpt lat="44.539734" lon="34.272282">
<ele>64.006897</ele>
<time>2011-10-13T07:32:22Z</time>
<desc>lat.=44.539734, lon.=34.272282, Alt.=64.006897m. Speed=1.332000m/h.</desc>
<speed>0.370000</speed>
</trkpt>
<trkpt lat="44.539822" lon="34.272377">
<ele>64.786194</ele>
<time>2011-10-13T07:32:27Z</time>
<desc>lat.=44.539822, lon.=34.272377, Alt.=64.786194m. Speed=5.580000m/h.</desc>
<speed>1.550000</speed>
</trkpt>
<trkpt lat="44.539955" lon="34.272457">
<ele>67.085022</ele>
<time>2011-10-13T07:32:32Z</time>
<desc>lat.=44.539955, lon.=34.272457, Alt.=67.085022m. Speed=8.208000m/h.</desc>
<speed>2.280000</speed>
</trkpt>
<trkpt lat="44.540054" lon="34.272491">
<ele>69.672913</ele>
<time>2011-10-13T07:32:37Z</time>
<desc>lat.=44.540054, lon.=34.272491, Alt.=69.672913m. Speed=9.684000m/h.</desc>
<speed>2.690000</speed>
</trkpt>
<trkpt lat="44.540150" lon="34.272514">
<ele>72.690491</ele>
<time>2011-10-13T07:32:42Z</time>
<desc>lat.=44.540150, lon.=34.272514, Alt.=72.690491m. Speed=6.444000m/h.</desc>
<speed>1.790000</speed>
</trkpt>
<trkpt lat="44.540241" lon="34.272472">
<ele>75.514709</ele>
<time>2011-10-13T07:32:47Z</time>
<desc>lat.=44.540241, lon.=34.272472, Alt.=75.514709m. Speed=7.380000m/h.</desc>
<speed>2.050000</speed>
</trkpt>
<trkpt lat="44.540333" lon="34.272434">
<ele>78.059631</ele>
<time>2011-10-13T07:32:52Z</time>
<desc>lat.=44.540333, lon.=34.272434, Alt.=78.059631m. Speed=9.432000m/h.</desc>
<speed>2.620000</speed>
</trkpt>
<trkpt lat="44.540432" lon="34.272392">
<ele>80.430725</ele>
<time>2011-10-13T07:32:57Z</time>
<desc>lat.=44.540432, lon.=34.272392, Alt.=80.430725m. Speed=9.288000m/h.</desc>
<speed>2.580000</speed>
</trkpt>
<trkpt lat="44.540539" lon="34.272320">
<ele>81.751038</ele>
<time>2011-10-13T07:33:02Z</time>
<desc>lat.=44.540539, lon.=34.272320, Alt.=81.751038m. Speed=6.336000m/h.</desc>
<speed>1.760000</speed>
</trkpt>
<trkpt lat="44.540634" lon="34.272259">
<ele>81.340881</ele>
<time>2011-10-13T07:33:07Z</time>
<desc>lat.=44.540634, lon.=34.272259, Alt.=81.340881m. Speed=8.100000m/h.</desc>
<speed>2.250000</speed>
</trkpt>
<trkpt lat="44.540733" lon="34.272148">
<ele>78.069397</ele>
<time>2011-10-13T07:33:12Z</time>
<desc>lat.=44.540733, lon.=34.272148, Alt.=78.069397m. Speed=7.416000m/h.</desc>
<speed>2.060000</speed>
</trkpt>
<trkpt lat="44.540840" lon="34.272049">
<ele>75.715881</ele>
<time>2011-10-13T07:33:17Z</time>
<desc>lat.=44.540840, lon.=34.272049, Alt.=75.715881m. Speed=7.560000m/h.</desc>
<speed>2.100000</speed>
</trkpt>
<trkpt lat="44.540894" lon="34.271946">
<ele>74.981506</ele>
<time>2011-10-13T07:33:22Z</time>
<desc>lat.=44.540894, lon.=34.271946, Alt.=74.981506m. Speed=7.020000m/h.</desc>
<speed>1.950000</speed>
</trkpt>
<trkpt lat="44.540878" lon="34.271824">
<ele>74.989319</ele>
<time>2011-10-13T07:33:27Z</time>
<desc>lat.=44.540878, lon.=34.271824, Alt.=74.989319m. Speed=6.696000m/h.</desc>
<speed>1.860000</speed>
</trkpt>
<trkpt lat="44.540833" lon="34.271706">
<ele>75.012756</ele>
<time>2011-10-13T07:33:32Z</time>
<desc>lat.=44.540833, lon.=34.271706, Alt.=75.012756m. Speed=6.948000m/h.</desc>
<speed>1.930000</speed>
</trkpt>
<trkpt lat="44.540794" lon="34.271622">
<ele>76.252991</ele>
<time>2011-10-13T07:33:37Z</time>
<desc>lat.=44.540794, lon.=34.271622, Alt.=76.252991m. Speed=7.056000m/h.</desc>
<speed>1.960000</speed>
</trkpt>
<trkpt lat="44.540730" lon="34.271534">
<ele>76.684631</ele>
<time>2011-10-13T07:33:42Z</time>
<desc>lat.=44.540730, lon.=34.271534, Alt.=76.684631m. Speed=3.996000m/h.</desc>
<speed>1.110000</speed>
</trkpt>
<trkpt lat="44.540646" lon="34.271461">
<ele>77.721741</ele>
<time>2011-10-13T07:33:47Z</time>
<desc>lat.=44.540646, lon.=34.271461, Alt.=77.721741m. Speed=8.532000m/h.</desc>
<speed>2.370000</speed>
</trkpt>
<trkpt lat="44.540577" lon="34.271393">
<ele>77.850647</ele>
<time>2011-10-13T07:33:52Z</time>
<desc>lat.=44.540577, lon.=34.271393, Alt.=77.850647m. Speed=5.112000m/h.</desc>
<speed>1.420000</speed>
</trkpt>
<trkpt lat="44.540485" lon="34.271328">
<ele>78.704163</ele>
<time>2011-10-13T07:33:57Z</time>
<desc>lat.=44.540485, lon.=34.271328, Alt.=78.704163m. Speed=6.444000m/h.</desc>
<speed>1.790000</speed>
</trkpt>
<trkpt lat="44.540382" lon="34.271278">
<ele>79.731506</ele>
<time>2011-10-13T07:34:02Z</time>
<desc>lat.=44.540382, lon.=34.271278, Alt.=79.731506m. Speed=5.004000m/h.</desc>
<speed>1.390000</speed>
</trkpt>
<trkpt lat="44.540314" lon="34.271172">
<ele>81.577209</ele>
<time>2011-10-13T07:34:07Z</time>
<desc>lat.=44.540314, lon.=34.271172, Alt.=81.577209m. Speed=5.400000m/h.</desc>
<speed>1.500000</speed>
</trkpt>
<trkpt lat="44.540222" lon="34.271061">
<ele>81.680725</ele>
<time>2011-10-13T07:34:12Z</time>
<desc>lat.=44.540222, lon.=34.271061, Alt.=81.680725m. Speed=8.316000m/h.</desc>
<speed>2.310000</speed>
</trkpt>
<trkpt lat="44.540146" lon="34.270966">
<ele>82.126038</ele>
<time>2011-10-13T07:34:17Z</time>
<desc>lat.=44.540146, lon.=34.270966, Alt.=82.126038m. Speed=5.688000m/h.</desc>
<speed>1.580000</speed>
</trkpt>
<trkpt lat="44.540070" lon="34.270874">
<ele>82.954163</ele>
<time>2011-10-13T07:34:22Z</time>
<desc>lat.=44.540070, lon.=34.270874, Alt.=82.954163m. Speed=8.028000m/h.</desc>
<speed>2.230000</speed>
</trkpt>
<trkpt lat="44.539997" lon="34.270798">
<ele>84.407288</ele>
<time>2011-10-13T07:34:27Z</time>
<desc>lat.=44.539997, lon.=34.270798, Alt.=84.407288m. Speed=6.768000m/h.</desc>
<speed>1.880000</speed>
</trkpt>
<trkpt lat="44.539902" lon="34.270615">
<ele>82.336975</ele>
<time>2011-10-13T07:34:32Z</time>
<desc>lat.=44.539902, lon.=34.270615, Alt.=82.336975m. Speed=6.624000m/h.</desc>
<speed>1.840000</speed>
</trkpt>
<trkpt lat="44.539810" lon="34.270523">
<ele>79.977600</ele>
<time>2011-10-13T07:34:37Z</time>
<desc>lat.=44.539810, lon.=34.270523, Alt.=79.977600m. Speed=6.984000m/h.</desc>
<speed>1.940000</speed>
</trkpt>
<trkpt lat="44.539692" lon="34.270473">
<ele>76.120178</ele>
<time>2011-10-13T07:34:42Z</time>
<desc>lat.=44.539692, lon.=34.270473, Alt.=76.120178m. Speed=8.424000m/h.</desc>
<speed>2.340000</speed>
</trkpt>
<trkpt lat="44.539581" lon="34.270485">
<ele>75.143616</ele>
<time>2011-10-13T07:34:47Z</time>
<desc>lat.=44.539581, lon.=34.270485, Alt.=75.143616m. Speed=6.696000m/h.</desc>
<speed>1.860000</speed>
</trkpt>
<trkpt lat="44.539513" lon="34.270523">
<ele>74.598694</ele>
<time>2011-10-13T07:34:52Z</time>
<desc>lat.=44.539513, lon.=34.270523, Alt.=74.598694m. Speed=5.724000m/h.</desc>
<speed>1.590000</speed>
</trkpt>
<trkpt lat="44.539455" lon="34.270546">
<ele>74.670959</ele>
<time>2011-10-13T07:34:57Z</time>
<desc>lat.=44.539455, lon.=34.270546, Alt.=74.670959m. Speed=1.476000m/h.</desc>
<speed>0.410000</speed>
</trkpt>
<trkpt lat="44.539463" lon="34.270535">
<ele>75.653381</ele>
<time>2011-10-13T07:35:02Z</time>
<desc>lat.=44.539463, lon.=34.270535, Alt.=75.653381m. Speed=0.540000m/h.</desc>
<speed>0.150000</speed>
</trkpt>
<trkpt lat="44.539459" lon="34.270531">
<ele>75.577209</ele>
<time>2011-10-13T07:35:07Z</time>
<desc>lat.=44.539459, lon.=34.270531, Alt.=75.577209m. Speed=0.072000m/h.</desc>
<speed>0.020000</speed>
</trkpt>
<trkpt lat="44.539433" lon="34.270546">
<ele>76.040100</ele>
<time>2011-10-13T07:35:12Z</time>
<desc>lat.=44.539433, lon.=34.270546, Alt.=76.040100m. Speed=2.880000m/h.</desc>
<speed>0.800000</speed>
</trkpt>
<trkpt lat="44.539429" lon="34.270580">
<ele>76.204163</ele>
<time>2011-10-13T07:35:17Z</time>
<desc>lat.=44.539429, lon.=34.270580, Alt.=76.204163m. Speed=0.216000m/h.</desc>
<speed>0.060000</speed>
</trkpt>
<trkpt lat="44.539429" lon="34.270588">
<ele>76.254944</ele>
<time>2011-10-13T07:35:22Z</time>
<desc>lat.=44.539429, lon.=34.270588, Alt.=76.254944m. Speed=0.216000m/h.</desc>
<speed>0.060000</speed>
</trkpt>
<trkpt lat="44.539429" lon="34.270596">
<ele>76.282288</ele>
<time>2011-10-13T07:35:27Z</time>
<desc>lat.=44.539429, lon.=34.270596, Alt.=76.282288m. Speed=0.648000m/h.</desc>
<speed>0.180000</speed>
</trkpt>
<trkpt lat="44.539433" lon="34.270607">
<ele>76.278381</ele>
<time>2011-10-13T07:35:32Z</time>
<desc>lat.=44.539433, lon.=34.270607, Alt.=76.278381m. Speed=0.396000m/h.</desc>
<speed>0.110000</speed>
</trkpt>
<trkpt lat="44.539433" lon="34.270618">
<ele>76.223694</ele>
<time>2011-10-13T07:35:37Z</time>
<desc>lat.=44.539433, lon.=34.270618, Alt.=76.223694m. Speed=0.324000m/h.</desc>
<speed>0.090000</speed>
</trkpt>
<trkpt lat="44.539429" lon="34.270622">
<ele>76.194397</ele>
<time>2011-10-13T07:35:42Z</time>
<desc>lat.=44.539429, lon.=34.270622, Alt.=76.194397m. Speed=0.288000m/h.</desc>
<speed>0.080000</speed>
</trkpt>
<trkpt lat="44.539425" lon="34.270634">
<ele>76.165100</ele>
<time>2011-10-13T07:35:47Z</time>
<desc>lat.=44.539425, lon.=34.270634, Alt.=76.165100m. Speed=0.684000m/h.</desc>
<speed>0.190000</speed>
</trkpt>
<trkpt lat="44.539429" lon="34.270645">
<ele>76.340881</ele>
<time>2011-10-13T07:35:52Z</time>
<desc>lat.=44.539429, lon.=34.270645, Alt.=76.340881m. Speed=1.404000m/h.</desc>
<speed>0.390000</speed>
</trkpt>
<trkpt lat="44.539402" lon="34.270626">
<ele>77.086975</ele>
<time>2011-10-13T07:35:57Z</time>
<desc>lat.=44.539402, lon.=34.270626, Alt.=77.086975m. Speed=0.540000m/h.</desc>
<speed>0.150000</speed>
</trkpt>
<trkpt lat="44.539394" lon="34.270618">
<ele>77.139709</ele>
<time>2011-10-13T07:36:02Z</time>
<desc>lat.=44.539394, lon.=34.270618, Alt.=77.139709m. Speed=0.108000m/h.</desc>
<speed>0.030000</speed>
</trkpt>
<trkpt lat="44.539394" lon="34.270622">
<ele>77.157288</ele>
<time>2011-10-13T07:36:07Z</time>
<desc>lat.=44.539394, lon.=34.270622, Alt.=77.157288m. Speed=0.252000m/h.</desc>
<speed>0.070000</speed>
</trkpt>
<trkpt lat="44.539394" lon="34.270622">
<ele>77.264709</ele>
<time>2011-10-13T07:36:12Z</time>
<desc>lat.=44.539394, lon.=34.270622, Alt.=77.264709m. Speed=1.260000m/h.</desc>
<speed>0.350000</speed>
</trkpt>
<trkpt lat="44.539368" lon="34.270702">
<ele>79.879944</ele>
<time>2011-10-13T07:36:17Z</time>
<desc>lat.=44.539368, lon.=34.270702, Alt.=79.879944m. Speed=6.588000m/h.</desc>
<speed>1.830000</speed>
</trkpt>
<trkpt lat="44.539253" lon="34.270752">
<ele>79.555725</ele>
<time>2011-10-13T07:36:22Z</time>
<desc>lat.=44.539253, lon.=34.270752, Alt.=79.555725m. Speed=10.764000m/h.</desc>
<speed>2.990000</speed>
</trkpt>
<trkpt lat="44.539143" lon="34.270798">
<ele>79.786194</ele>
<time>2011-10-13T07:36:27Z</time>
<desc>lat.=44.539143, lon.=34.270798, Alt.=79.786194m. Speed=7.776000m/h.</desc>
<speed>2.160000</speed>
</trkpt>
<trkpt lat="44.539028" lon="34.270809">
<ele>80.756897</ele>
<time>2011-10-13T07:36:32Z</time>
<desc>lat.=44.539028, lon.=34.270809, Alt.=80.756897m. Speed=11.952000m/h.</desc>
<speed>3.320000</speed>
</trkpt>
<trkpt lat="44.538887" lon="34.270741">
<ele>81.477600</ele>
<time>2011-10-13T07:36:37Z</time>
<desc>lat.=44.538887, lon.=34.270741, Alt.=81.477600m. Speed=10.584000m/h.</desc>
<speed>2.940000</speed>
</trkpt>
<trkpt lat="44.538761" lon="34.270668">
<ele>82.237366</ele>
<time>2011-10-13T07:36:42Z</time>
<desc>lat.=44.538761, lon.=34.270668, Alt.=82.237366m. Speed=8.604000m/h.</desc>
<speed>2.390000</speed>
</trkpt>
<trkpt lat="44.538723" lon="34.270546">
<ele>82.670959</ele>
<time>2011-10-13T07:36:47Z</time>
<desc>lat.=44.538723, lon.=34.270546, Alt.=82.670959m. Speed=7.380000m/h.</desc>
<speed>2.050000</speed>
</trkpt>
<trkpt lat="44.538685" lon="34.270424">
<ele>84.028381</ele>
<time>2011-10-13T07:36:52Z</time>
<desc>lat.=44.538685, lon.=34.270424, Alt.=84.028381m. Speed=6.624000m/h.</desc>
<speed>1.840000</speed>
</trkpt>
<trkpt lat="44.538658" lon="34.270317">
<ele>85.534241</ele>
<time>2011-10-13T07:36:57Z</time>
<desc>lat.=44.538658, lon.=34.270317, Alt.=85.534241m. Speed=6.120000m/h.</desc>
<speed>1.700000</speed>
</trkpt>
<trkpt lat="44.538647" lon="34.270226">
<ele>86.272522</ele>
<time>2011-10-13T07:37:02Z</time>
<desc>lat.=44.538647, lon.=34.270226, Alt.=86.272522m. Speed=6.228000m/h.</desc>
<speed>1.730000</speed>
</trkpt>
<trkpt lat="44.538666" lon="34.270130">
<ele>88.508850</ele>
<time>2011-10-13T07:37:07Z</time>
<desc>lat.=44.538666, lon.=34.270130, Alt.=88.508850m. Speed=5.580000m/h.</desc>
<speed>1.550000</speed>
</trkpt>
<trkpt lat="44.538670" lon="34.270035">
<ele>90.821350</ele>
<time>2011-10-13T07:37:12Z</time>
<desc>lat.=44.538670, lon.=34.270035, Alt.=90.821350m. Speed=5.832000m/h.</desc>
<speed>1.620000</speed>
</trkpt>
<trkpt lat="44.538670" lon="34.269905">
<ele>94.155334</ele>
<time>2011-10-13T07:37:17Z</time>
<desc>lat.=44.538670, lon.=34.269905, Alt.=94.155334m. Speed=7.344000m/h.</desc>
<speed>2.040000</speed>
</trkpt>
<trkpt lat="44.538719" lon="34.269821">
<ele>98.596741</ele>
<time>2011-10-13T07:37:22Z</time>
<desc>lat.=44.538719, lon.=34.269821, Alt.=98.596741m. Speed=8.856000m/h.</desc>
<speed>2.460000</speed>
</trkpt>
<trkpt lat="44.538780" lon="34.269684">
<ele>101.737366</ele>
<time>2011-10-13T07:37:27Z</time>
<desc>lat.=44.538780, lon.=34.269684, Alt.=101.737366m. Speed=9.108000m/h.</desc>
<speed>2.530000</speed>
</trkpt>
<trkpt lat="44.538860" lon="34.269600">
<ele>105.213928</ele>
<time>2011-10-13T07:37:32Z</time>
<desc>lat.=44.538860, lon.=34.269600, Alt.=105.213928m. Speed=7.200000m/h.</desc>
<speed>2.000000</speed>
</trkpt>
<trkpt lat="44.538952" lon="34.269512">
<ele>109.266663</ele>
<time>2011-10-13T07:37:37Z</time>
<desc>lat.=44.538952, lon.=34.269512, Alt.=109.266663m. Speed=7.668000m/h.</desc>
<speed>2.130000</speed>
</trkpt>
<trkpt lat="44.539032" lon="34.269459">
<ele>112.524475</ele>
<time>2011-10-13T07:37:42Z</time>
<desc>lat.=44.539032, lon.=34.269459, Alt.=112.524475m. Speed=6.912000m/h.</desc>
<speed>1.920000</speed>
</trkpt>
<trkpt lat="44.539150" lon="34.269398">
<ele>114.514709</ele>
<time>2011-10-13T07:37:47Z</time>
<desc>lat.=44.539150, lon.=34.269398, Alt.=114.514709m. Speed=9.972000m/h.</desc>
<speed>2.770000</speed>
</trkpt>
<trkpt lat="44.539246" lon="34.269363">
<ele>116.600647</ele>
<time>2011-10-13T07:37:52Z</time>
<desc>lat.=44.539246, lon.=34.269363, Alt.=116.600647m. Speed=6.336000m/h.</desc>
<speed>1.760000</speed>
</trkpt>
<trkpt lat="44.539371" lon="34.269314">
<ele>116.174866</ele>
<time>2011-10-13T07:37:57Z</time>
<desc>lat.=44.539371, lon.=34.269314, Alt.=116.174866m. Speed=9.180000m/h.</desc>
<speed>2.550000</speed>
</trkpt>
<trkpt lat="44.539497" lon="34.269272">
<ele>116.239319</ele>
<time>2011-10-13T07:38:02Z</time>
<desc>lat.=44.539497, lon.=34.269272, Alt.=116.239319m. Speed=6.840000m/h.</desc>
<speed>1.900000</speed>
</trkpt>
<trkpt lat="44.539570" lon="34.269173">
<ele>114.969788</ele>
<time>2011-10-13T07:38:07Z</time>
<desc>lat.=44.539570, lon.=34.269173, Alt.=114.969788m. Speed=6.300000m/h.</desc>
<speed>1.750000</speed>
</trkpt>
<trkpt lat="44.539524" lon="34.269077">
<ele>116.715881</ele>
<time>2011-10-13T07:38:12Z</time>
<desc>lat.=44.539524, lon.=34.269077, Alt.=116.715881m. Speed=6.660000m/h.</desc>
<speed>1.850000</speed>
</trkpt>
<trkpt lat="44.539471" lon="34.269028">
<ele>115.903381</ele>
<time>2011-10-13T07:38:17Z</time>
<desc>lat.=44.539471, lon.=34.269028, Alt.=115.903381m. Speed=6.264000m/h.</desc>
<speed>1.740000</speed>
</trkpt>
<trkpt lat="44.539383" lon="34.268997">
<ele>117.012756</ele>
<time>2011-10-13T07:38:22Z</time>
<desc>lat.=44.539383, lon.=34.268997, Alt.=117.012756m. Speed=7.452000m/h.</desc>
<speed>2.070000</speed>
</trkpt>
<trkpt lat="44.539291" lon="34.269005">
<ele>116.794006</ele>
<time>2011-10-13T07:38:27Z</time>
<desc>lat.=44.539291, lon.=34.269005, Alt.=116.794006m. Speed=10.368000m/h.</desc>
<speed>2.880000</speed>
</trkpt>
<trkpt lat="44.539154" lon="34.269016">
<ele>117.305725</ele>
<time>2011-10-13T07:38:32Z</time>
<desc>lat.=44.539154, lon.=34.269016, Alt.=117.305725m. Speed=10.800000m/h.</desc>
<speed>3.000000</speed>
</trkpt>
<trkpt lat="44.539036" lon="34.269012">
<ele>118.192444</ele>
<time>2011-10-13T07:38:37Z</time>
<desc>lat.=44.539036, lon.=34.269012, Alt.=118.192444m. Speed=9.792000m/h.</desc>
<speed>2.720000</speed>
</trkpt>
<trkpt lat="44.538914" lon="34.269009">
<ele>118.577209</ele>
<time>2011-10-13T07:38:42Z</time>
<desc>lat.=44.538914, lon.=34.269009, Alt.=118.577209m. Speed=9.864000m/h.</desc>
<speed>2.740000</speed>
</trkpt>
<trkpt lat="44.538795" lon="34.269016">
<ele>119.321350</ele>
<time>2011-10-13T07:38:47Z</time>
<desc>lat.=44.538795, lon.=34.269016, Alt.=119.321350m. Speed=9.144000m/h.</desc>
<speed>2.540000</speed>
</trkpt>
<trkpt lat="44.538658" lon="34.269012">
<ele>120.047913</ele>
<time>2011-10-13T07:38:52Z</time>
<desc>lat.=44.538658, lon.=34.269012, Alt.=120.047913m. Speed=12.600000m/h.</desc>
<speed>3.500000</speed>
</trkpt>
<trkpt lat="44.538528" lon="34.268963">
<ele>119.823303</ele>
<time>2011-10-13T07:38:57Z</time>
<desc>lat.=44.538528, lon.=34.268963, Alt.=119.823303m. Speed=11.448000m/h.</desc>
<speed>3.180000</speed>
</trkpt>
<trkpt lat="44.538383" lon="34.268909">
<ele>119.887756</ele>
<time>2011-10-13T07:39:02Z</time>
<desc>lat.=44.538383, lon.=34.268909, Alt.=119.887756m. Speed=9.972000m/h.</desc>
<speed>2.770000</speed>
</trkpt>
<trkpt lat="44.538246" lon="34.268852">
<ele>119.823303</ele>
<time>2011-10-13T07:39:07Z</time>
<desc>lat.=44.538246, lon.=34.268852, Alt.=119.823303m. Speed=10.944000m/h.</desc>
<speed>3.040000</speed>
</trkpt>
<trkpt lat="44.538120" lon="34.268776">
<ele>119.319397</ele>
<time>2011-10-13T07:39:12Z</time>
<desc>lat.=44.538120, lon.=34.268776, Alt.=119.319397m. Speed=11.520000m/h.</desc>
<speed>3.200000</speed>
</trkpt>
<trkpt lat="44.537991" lon="34.268700">
<ele>119.579163</ele>
<time>2011-10-13T07:39:17Z</time>
<desc>lat.=44.537991, lon.=34.268700, Alt.=119.579163m. Speed=10.296000m/h.</desc>
<speed>2.860000</speed>
</trkpt>
<trkpt lat="44.537880" lon="34.268608">
<ele>120.210022</ele>
<time>2011-10-13T07:39:22Z</time>
<desc>lat.=44.537880, lon.=34.268608, Alt.=120.210022m. Speed=11.628000m/h.</desc>
<speed>3.230000</speed>
</trkpt>
<trkpt lat="44.537792" lon="34.268513">
<ele>121.803772</ele>
<time>2011-10-13T07:39:27Z</time>
<desc>lat.=44.537792, lon.=34.268513, Alt.=121.803772m. Speed=6.696000m/h.</desc>
<speed>1.860000</speed>
</trkpt>
<trkpt lat="44.537716" lon="34.268417">
<ele>122.741272</ele>
<time>2011-10-13T07:39:32Z</time>
<desc>lat.=44.537716, lon.=34.268417, Alt.=122.741272m. Speed=8.640000m/h.</desc>
<speed>2.400000</speed>
</trkpt>
<trkpt lat="44.537647" lon="34.268314">
<ele>123.049866</ele>
<time>2011-10-13T07:39:37Z</time>
<desc>lat.=44.537647, lon.=34.268314, Alt.=123.049866m. Speed=7.272000m/h.</desc>
<speed>2.020000</speed>
</trkpt>
<trkpt lat="44.537571" lon="34.268223">
<ele>122.354553</ele>
<time>2011-10-13T07:39:42Z</time>
<desc>lat.=44.537571, lon.=34.268223, Alt.=122.354553m. Speed=7.488000m/h.</desc>
<speed>2.080000</speed>
</trkpt>
<trkpt lat="44.537491" lon="34.268135">
<ele>122.065491</ele>
<time>2011-10-13T07:39:47Z</time>
<desc>lat.=44.537491, lon.=34.268135, Alt.=122.065491m. Speed=7.920000m/h.</desc>
<speed>2.200000</speed>
</trkpt>
<trkpt lat="44.537411" lon="34.268044">
<ele>122.809631</ele>
<time>2011-10-13T07:39:52Z</time>
<desc>lat.=44.537411, lon.=34.268044, Alt.=122.809631m. Speed=8.820000m/h.</desc>
<speed>2.450000</speed>
</trkpt>
<trkpt lat="44.537357" lon="34.267948">
<ele>124.725647</ele>
<time>2011-10-13T07:39:57Z</time>
<desc>lat.=44.537357, lon.=34.267948, Alt.=124.725647m. Speed=5.544000m/h.</desc>
<speed>1.540000</speed>
</trkpt>
<trkpt lat="44.537308" lon="34.267857">
<ele>128.556763</ele>
<time>2011-10-13T07:40:02Z</time>
<desc>lat.=44.537308, lon.=34.267857, Alt.=128.556763m. Speed=5.220000m/h.</desc>
<speed>1.450000</speed>
</trkpt>
<trkpt lat="44.537247" lon="34.267773">
<ele>130.572388</ele>
<time>2011-10-13T07:40:07Z</time>
<desc>lat.=44.537247, lon.=34.267773, Alt.=130.572388m. Speed=7.272000m/h.</desc>
<speed>2.020000</speed>
</trkpt>
<trkpt lat="44.537201" lon="34.267685">
<ele>133.947388</ele>
<time>2011-10-13T07:40:12Z</time>
<desc>lat.=44.537201, lon.=34.267685, Alt.=133.947388m. Speed=6.516000m/h.</desc>
<speed>1.810000</speed>
</trkpt>
<trkpt lat="44.537178" lon="34.267570">
<ele>134.642700</ele>
<time>2011-10-13T07:40:17Z</time>
<desc>lat.=44.537178, lon.=34.267570, Alt.=134.642700m. Speed=6.264000m/h.</desc>
<speed>1.740000</speed>
</trkpt>
<trkpt lat="44.537186" lon="34.267445">
<ele>134.966919</ele>
<time>2011-10-13T07:40:22Z</time>
<desc>lat.=44.537186, lon.=34.267445, Alt.=134.966919m. Speed=7.956000m/h.</desc>
<speed>2.210000</speed>
</trkpt>
<trkpt lat="44.537228" lon="34.267323">
<ele>136.408325</ele>
<time>2011-10-13T07:40:27Z</time>
<desc>lat.=44.537228, lon.=34.267323, Alt.=136.408325m. Speed=8.280000m/h.</desc>
<speed>2.300000</speed>
</trkpt>
<trkpt lat="44.537285" lon="34.267231">
<ele>139.334106</ele>
<time>2011-10-13T07:40:32Z</time>
<desc>lat.=44.537285, lon.=34.267231, Alt.=139.334106m. Speed=5.976000m/h.</desc>
<speed>1.660000</speed>
</trkpt>
<trkpt lat="44.537384" lon="34.267170">
<ele>142.662231</ele>
<time>2011-10-13T07:40:37Z</time>
<desc>lat.=44.537384, lon.=34.267170, Alt.=142.662231m. Speed=9.036000m/h.</desc>
<speed>2.510000</speed>
</trkpt>
<trkpt lat="44.537483" lon="34.267155">
<ele>146.564575</ele>
<time>2011-10-13T07:40:42Z</time>
<desc>lat.=44.537483, lon.=34.267155, Alt.=146.564575m. Speed=8.064000m/h.</desc>
<speed>2.240000</speed>
</trkpt>
<trkpt lat="44.537567" lon="34.267159">
<ele>150.591919</ele>
<time>2011-10-13T07:40:47Z</time>
<desc>lat.=44.537567, lon.=34.267159, Alt.=150.591919m. Speed=6.228000m/h.</desc>
<speed>1.730000</speed>
</trkpt>
<trkpt lat="44.537655" lon="34.267185">
<ele>154.810669</ele>
<time>2011-10-13T07:40:52Z</time>
<desc>lat.=44.537655, lon.=34.267185, Alt.=154.810669m. Speed=5.040000m/h.</desc>
<speed>1.400000</speed>
</trkpt>
<trkpt lat="44.537746" lon="34.267200">
<ele>156.408325</ele>
<time>2011-10-13T07:40:57Z</time>
<desc>lat.=44.537746, lon.=34.267200, Alt.=156.408325m. Speed=7.560000m/h.</desc>
<speed>2.100000</speed>
</trkpt>
<trkpt lat="44.537849" lon="34.267208">
<ele>157.740356</ele>
<time>2011-10-13T07:41:02Z</time>
<desc>lat.=44.537849, lon.=34.267208, Alt.=157.740356m. Speed=6.444000m/h.</desc>
<speed>1.790000</speed>
</trkpt>
<trkpt lat="44.537945" lon="34.267208">
<ele>157.560669</ele>
<time>2011-10-13T07:41:07Z</time>
<desc>lat.=44.537945, lon.=34.267208, Alt.=157.560669m. Speed=6.876000m/h.</desc>
<speed>1.910000</speed>
</trkpt>
<trkpt lat="44.538029" lon="34.267178">
<ele>156.162231</ele>
<time>2011-10-13T07:41:12Z</time>
<desc>lat.=44.538029, lon.=34.267178, Alt.=156.162231m. Speed=6.372000m/h.</desc>
<speed>1.770000</speed>
</trkpt>
<trkpt lat="44.538090" lon="34.267181">
<ele>156.873169</ele>
<time>2011-10-13T07:41:17Z</time>
<desc>lat.=44.538090, lon.=34.267181, Alt.=156.873169m. Speed=5.616000m/h.</desc>
<speed>1.560000</speed>
</trkpt>
<trkpt lat="44.538181" lon="34.267166">
<ele>156.767700</ele>
<time>2011-10-13T07:41:22Z</time>
<desc>lat.=44.538181, lon.=34.267166, Alt.=156.767700m. Speed=7.344000m/h.</desc>
<speed>2.040000</speed>
</trkpt>
<trkpt lat="44.538273" lon="34.267189">
<ele>160.306763</ele>
<time>2011-10-13T07:41:27Z</time>
<desc>lat.=44.538273, lon.=34.267189, Alt.=160.306763m. Speed=4.932000m/h.</desc>
<speed>1.370000</speed>
</trkpt>
<trkpt lat="44.538345" lon="34.267139">
<ele>159.923950</ele>
<time>2011-10-13T07:41:32Z</time>
<desc>lat.=44.538345, lon.=34.267139, Alt.=159.923950m. Speed=6.552000m/h.</desc>
<speed>1.820000</speed>
</trkpt>
<trkpt lat="44.538425" lon="34.267128">
<ele>160.162231</ele>
<time>2011-10-13T07:41:37Z</time>
<desc>lat.=44.538425, lon.=34.267128, Alt.=160.162231m. Speed=7.452000m/h.</desc>
<speed>2.070000</speed>
</trkpt>
<trkpt lat="44.538525" lon="34.267117">
<ele>160.482544</ele>
<time>2011-10-13T07:41:42Z</time>
<desc>lat.=44.538525, lon.=34.267117, Alt.=160.482544m. Speed=7.056000m/h.</desc>
<speed>1.960000</speed>
</trkpt>
<trkpt lat="44.538612" lon="34.267113">
<ele>161.357544</ele>
<time>2011-10-13T07:41:47Z</time>
<desc>lat.=44.538612, lon.=34.267113, Alt.=161.357544m. Speed=6.984000m/h.</desc>
<speed>1.940000</speed>
</trkpt>
<trkpt lat="44.538685" lon="34.267097">
<ele>162.795044</ele>
<time>2011-10-13T07:41:52Z</time>
<desc>lat.=44.538685, lon.=34.267097, Alt.=162.795044m. Speed=6.588000m/h.</desc>
<speed>1.830000</speed>
</trkpt>
<trkpt lat="44.538780" lon="34.267105">
<ele>162.431763</ele>
<time>2011-10-13T07:41:57Z</time>
<desc>lat.=44.538780, lon.=34.267105, Alt.=162.431763m. Speed=6.552000m/h.</desc>
<speed>1.820000</speed>
</trkpt>
<trkpt lat="44.538872" lon="34.267090">
<ele>161.834106</ele>
<time>2011-10-13T07:42:02Z</time>
<desc>lat.=44.538872, lon.=34.267090, Alt.=161.834106m. Speed=5.400000m/h.</desc>
<speed>1.500000</speed>
</trkpt>
<trkpt lat="44.538952" lon="34.267063">
<ele>162.271606</ele>
<time>2011-10-13T07:42:07Z</time>
<desc>lat.=44.538952, lon.=34.267063, Alt.=162.271606m. Speed=6.192000m/h.</desc>
<speed>1.720000</speed>
</trkpt>
<trkpt lat="44.539024" lon="34.267025">
<ele>163.595825</ele>
<time>2011-10-13T07:42:12Z</time>
<desc>lat.=44.539024, lon.=34.267025, Alt.=163.595825m. Speed=6.408000m/h.</desc>
<speed>1.780000</speed>
</trkpt>
<trkpt lat="44.539120" lon="34.267036">
<ele>164.697388</ele>
<time>2011-10-13T07:42:17Z</time>
<desc>lat.=44.539120, lon.=34.267036, Alt.=164.697388m. Speed=7.380000m/h.</desc>
<speed>2.050000</speed>
</trkpt>
<trkpt lat="44.539223" lon="34.267059">
<ele>164.224731</ele>
<time>2011-10-13T07:42:22Z</time>
<desc>lat.=44.539223, lon.=34.267059, Alt.=164.224731m. Speed=5.184000m/h.</desc>
<speed>1.440000</speed>
</trkpt>
<trkpt lat="44.539288" lon="34.267067">
<ele>163.205200</ele>
<time>2011-10-13T07:42:27Z</time>
<desc>lat.=44.539288, lon.=34.267067, Alt.=163.205200m. Speed=6.156000m/h.</desc>
<speed>1.710000</speed>
</trkpt>
<trkpt lat="44.539371" lon="34.267044">
<ele>163.732544</ele>
<time>2011-10-13T07:42:32Z</time>
<desc>lat.=44.539371, lon.=34.267044, Alt.=163.732544m. Speed=5.796000m/h.</desc>
<speed>1.610000</speed>
</trkpt>
<trkpt lat="44.539452" lon="34.266994">
<ele>161.380981</ele>
<time>2011-10-13T07:42:37Z</time>
<desc>lat.=44.539452, lon.=34.266994, Alt.=161.380981m. Speed=4.644000m/h.</desc>
<speed>1.290000</speed>
</trkpt>
<trkpt lat="44.539490" lon="34.266945">
<ele>160.427856</ele>
<time>2011-10-13T07:42:42Z</time>
<desc>lat.=44.539490, lon.=34.266945, Alt.=160.427856m. Speed=4.464000m/h.</desc>
<speed>1.240000</speed>
</trkpt>
<trkpt lat="44.539509" lon="34.266876">
<ele>161.431763</ele>
<time>2011-10-13T07:42:47Z</time>
<desc>lat.=44.539509, lon.=34.266876, Alt.=161.431763m. Speed=4.680000m/h.</desc>
<speed>1.300000</speed>
</trkpt>
<trkpt lat="44.539513" lon="34.266796">
<ele>163.478638</ele>
<time>2011-10-13T07:42:52Z</time>
<desc>lat.=44.539513, lon.=34.266796, Alt.=163.478638m. Speed=4.860000m/h.</desc>
<speed>1.350000</speed>
</trkpt>
<trkpt lat="44.539490" lon="34.266693">
<ele>165.439575</ele>
<time>2011-10-13T07:42:57Z</time>
<desc>lat.=44.539490, lon.=34.266693, Alt.=165.439575m. Speed=5.508000m/h.</desc>
<speed>1.530000</speed>
</trkpt>
<trkpt lat="44.539505" lon="34.266598">
<ele>167.709106</ele>
<time>2011-10-13T07:43:02Z</time>
<desc>lat.=44.539505, lon.=34.266598, Alt.=167.709106m. Speed=4.680000m/h.</desc>
<speed>1.300000</speed>
</trkpt>
<trkpt lat="44.539520" lon="34.266514">
<ele>168.591919</ele>
<time>2011-10-13T07:43:07Z</time>
<desc>lat.=44.539520, lon.=34.266514, Alt.=168.591919m. Speed=5.796000m/h.</desc>
<speed>1.610000</speed>
</trkpt>
<trkpt lat="44.539555" lon="34.266415">
<ele>170.603638</ele>
<time>2011-10-13T07:43:12Z</time>
<desc>lat.=44.539555, lon.=34.266415, Alt.=170.603638m. Speed=6.012000m/h.</desc>
<speed>1.670000</speed>
</trkpt>
<trkpt lat="44.539627" lon="34.266338">
<ele>172.080200</ele>
<time>2011-10-13T07:43:17Z</time>
<desc>lat.=44.539627, lon.=34.266338, Alt.=172.080200m. Speed=6.012000m/h.</desc>
<speed>1.670000</speed>
</trkpt>
<trkpt lat="44.539696" lon="34.266300">
<ele>174.177856</ele>
<time>2011-10-13T07:43:22Z</time>
<desc>lat.=44.539696, lon.=34.266300, Alt.=174.177856m. Speed=5.904000m/h.</desc>
<speed>1.640000</speed>
</trkpt>
<trkpt lat="44.539757" lon="34.266247">
<ele>176.388794</ele>
<time>2011-10-13T07:43:27Z</time>
<desc>lat.=44.539757, lon.=34.266247, Alt.=176.388794m. Speed=5.184000m/h.</desc>
<speed>1.440000</speed>
</trkpt>
<trkpt lat="44.539818" lon="34.266220">
<ele>177.306763</ele>
<time>2011-10-13T07:43:32Z</time>
<desc>lat.=44.539818, lon.=34.266220, Alt.=177.306763m. Speed=6.660000m/h.</desc>
<speed>1.850000</speed>
</trkpt>
<trkpt lat="44.539906" lon="34.266201">
<ele>178.185669</ele>
<time>2011-10-13T07:43:37Z</time>
<desc>lat.=44.539906, lon.=34.266201, Alt.=178.185669m. Speed=6.624000m/h.</desc>
<speed>1.840000</speed>
</trkpt>
<trkpt lat="44.539970" lon="34.266159">
<ele>180.963013</ele>
<time>2011-10-13T07:43:42Z</time>
<desc>lat.=44.539970, lon.=34.266159, Alt.=180.963013m. Speed=6.120000m/h.</desc>
<speed>1.700000</speed>
</trkpt>
<trkpt lat="44.540054" lon="34.266129">
<ele>182.966919</ele>
<time>2011-10-13T07:43:47Z</time>
<desc>lat.=44.540054, lon.=34.266129, Alt.=182.966919m. Speed=7.308000m/h.</desc>
<speed>2.030000</speed>
</trkpt>
<trkpt lat="44.540127" lon="34.266048">
<ele>182.447388</ele>
<time>2011-10-13T07:43:52Z</time>
<desc>lat.=44.540127, lon.=34.266048, Alt.=182.447388m. Speed=6.120000m/h.</desc>
<speed>1.700000</speed>
</trkpt>
<trkpt lat="44.540207" lon="34.266014">
<ele>182.564575</ele>
<time>2011-10-13T07:43:57Z</time>
<desc>lat.=44.540207, lon.=34.266014, Alt.=182.564575m. Speed=5.904000m/h.</desc>
<speed>1.640000</speed>
</trkpt>
<trkpt lat="44.540298" lon="34.266014">
<ele>183.361450</ele>
<time>2011-10-13T07:44:02Z</time>
<desc>lat.=44.540298, lon.=34.266014, Alt.=183.361450m. Speed=5.004000m/h.</desc>
<speed>1.390000</speed>
</trkpt>
<trkpt lat="44.540386" lon="34.266033">
<ele>182.615356</ele>
<time>2011-10-13T07:44:07Z</time>
<desc>lat.=44.540386, lon.=34.266033, Alt.=182.615356m. Speed=3.924000m/h.</desc>
<speed>1.090000</speed>
</trkpt>
<trkpt lat="44.540462" lon="34.266018">
<ele>182.177856</ele>
<time>2011-10-13T07:44:12Z</time>
<desc>lat.=44.540462, lon.=34.266018, Alt.=182.177856m. Speed=7.020000m/h.</desc>
<speed>1.950000</speed>
</trkpt>
<trkpt lat="44.540539" lon="34.265999">
<ele>182.459106</ele>
<time>2011-10-13T07:44:17Z</time>
<desc>lat.=44.540539, lon.=34.265999, Alt.=182.459106m. Speed=6.336000m/h.</desc>
<speed>1.760000</speed>
</trkpt>
<trkpt lat="44.540627" lon="34.266037">
<ele>181.748169</ele>
<time>2011-10-13T07:44:22Z</time>
<desc>lat.=44.540627, lon.=34.266037, Alt.=181.748169m. Speed=7.452000m/h.</desc>
<speed>2.070000</speed>
</trkpt>
<trkpt lat="44.540714" lon="34.266109">
<ele>179.673950</ele>
<time>2011-10-13T07:44:27Z</time>
<desc>lat.=44.540714, lon.=34.266109, Alt.=179.673950m. Speed=8.856000m/h.</desc>
<speed>2.460000</speed>
</trkpt>
<trkpt lat="44.540794" lon="34.266197">
<ele>178.787231</ele>
<time>2011-10-13T07:44:32Z</time>
<desc>lat.=44.540794, lon.=34.266197, Alt.=178.787231m. Speed=6.120000m/h.</desc>
<speed>1.700000</speed>
</trkpt>
<trkpt lat="44.540867" lon="34.266277">
<ele>179.755981</ele>
<time>2011-10-13T07:44:37Z</time>
<desc>lat.=44.540867, lon.=34.266277, Alt.=179.755981m. Speed=6.120000m/h.</desc>
<speed>1.700000</speed>
</trkpt>
<trkpt lat="44.540955" lon="34.266361">
<ele>179.408325</ele>
<time>2011-10-13T07:44:42Z</time>
<desc>lat.=44.540955, lon.=34.266361, Alt.=179.408325m. Speed=7.596000m/h.</desc>
<speed>2.110000</speed>
</trkpt>
<trkpt lat="44.541031" lon="34.266438">
<ele>178.783325</ele>
<time>2011-10-13T07:44:47Z</time>
<desc>lat.=44.541031, lon.=34.266438, Alt.=178.783325m. Speed=7.236000m/h.</desc>
<speed>2.010000</speed>
</trkpt>
<trkpt lat="44.541115" lon="34.266430">
<ele>178.740356</ele>
<time>2011-10-13T07:44:52Z</time>
<desc>lat.=44.541115, lon.=34.266430, Alt.=178.740356m. Speed=4.068000m/h.</desc>
<speed>1.130000</speed>
</trkpt>
<trkpt lat="44.541119" lon="34.266438">
<ele>178.834106</ele>
<time>2011-10-13T07:44:57Z</time>
<desc>lat.=44.541119, lon.=34.266438, Alt.=178.834106m. Speed=0.216000m/h.</desc>
<speed>0.060000</speed>
</trkpt>
<trkpt lat="44.541119" lon="34.266438">
<ele>178.900513</ele>
<time>2011-10-13T07:45:02Z</time>
<desc>lat.=44.541119, lon.=34.266438, Alt.=178.900513m. Speed=0.000000m/h.</desc>
<speed>0.000000</speed>
</trkpt>
<trkpt lat="44.541119" lon="34.266438">
<ele>178.884888</ele>
<time>2011-10-13T07:45:07Z</time>
<desc>lat.=44.541119, lon.=34.266438, Alt.=178.884888m. Speed=0.036000m/h.</desc>
<speed>0.010000</speed>
</trkpt>
<trkpt lat="44.541119" lon="34.266438">
<ele>178.877075</ele>
<time>2011-10-13T07:45:12Z</time>
<desc>lat.=44.541119, lon.=34.266438, Alt.=178.877075m. Speed=0.000000m/h.</desc>
<speed>0.000000</speed>
</trkpt>
<trkpt lat="44.541119" lon="34.266438">
<ele>178.943481</ele>
<time>2011-10-13T07:45:17Z</time>
<desc>lat.=44.541119, lon.=34.266438, Alt.=178.943481m. Speed=0.000000m/h.</desc>
<speed>0.000000</speed>
</trkpt>
<trkpt lat="44.541119" lon="34.266438">
<ele>178.935669</ele>
<time>2011-10-13T07:45:22Z</time>
<desc>lat.=44.541119, lon.=34.266438, Alt.=178.935669m. Speed=0.000000m/h.</desc>
<speed>0.000000</speed>
</trkpt>
<trkpt lat="44.541119" lon="34.266438">
<ele>178.845825</ele>
<time>2011-10-13T07:45:27Z</time>
<desc>lat.=44.541119, lon.=34.266438, Alt.=178.845825m. Speed=0.072000m/h.</desc>
<speed>0.020000</speed>
</trkpt>
<trkpt lat="44.541119" lon="34.266438">
<ele>178.783325</ele>
<time>2011-10-13T07:45:32Z</time>
<desc>lat.=44.541119, lon.=34.266438, Alt.=178.783325m. Speed=0.180000m/h.</desc>
<speed>0.050000</speed>
</trkpt>
<trkpt lat="44.541119" lon="34.266438">
<ele>178.759888</ele>
<time>2011-10-13T07:45:37Z</time>
<desc>lat.=44.541119, lon.=34.266438, Alt.=178.759888m. Speed=0.396000m/h.</desc>
<speed>0.110000</speed>
</trkpt>
<trkpt lat="44.541119" lon="34.266438">
<ele>178.732544</ele>
<time>2011-10-13T07:45:42Z</time>
<desc>lat.=44.541119, lon.=34.266438, Alt.=178.732544m. Speed=0.000000m/h.</desc>
<speed>0.000000</speed>
</trkpt>
<trkpt lat="44.541122" lon="34.266438">
<ele>178.697388</ele>
<time>2011-10-13T07:45:47Z</time>
<desc>lat.=44.541122, lon.=34.266438, Alt.=178.697388m. Speed=0.000000m/h.</desc>
<speed>0.000000</speed>
</trkpt>
<trkpt lat="44.541122" lon="34.266438">
<ele>178.658325</ele>
<time>2011-10-13T07:45:52Z</time>
<desc>lat.=44.541122, lon.=34.266438, Alt.=178.658325m. Speed=0.000000m/h.</desc>
<speed>0.000000</speed>
</trkpt>
<trkpt lat="44.541122" lon="34.266438">
<ele>178.615356</ele>
<time>2011-10-13T07:45:57Z</time>
<desc>lat.=44.541122, lon.=34.266438, Alt.=178.615356m. Speed=0.000000m/h.</desc>
<speed>0.000000</speed>
</trkpt>
<trkpt lat="44.541122" lon="34.266441">
<ele>178.576294</ele>
<time>2011-10-13T07:46:02Z</time>
<desc>lat.=44.541122, lon.=34.266441, Alt.=178.576294m. Speed=0.072000m/h.</desc>
<speed>0.020000</speed>
</trkpt>
<trkpt lat="44.541122" lon="34.266441">
<ele>178.545044</ele>
<time>2011-10-13T07:46:07Z</time>
<desc>lat.=44.541122, lon.=34.266441, Alt.=178.545044m. Speed=0.072000m/h.</desc>
<speed>0.020000</speed>
</trkpt>
<trkpt lat="44.541122" lon="34.266441">
<ele>178.509888</ele>
<time>2011-10-13T07:46:12Z</time>
<desc>lat.=44.541122, lon.=34.266441, Alt.=178.509888m. Speed=0.000000m/h.</desc>
<speed>0.000000</speed>
</trkpt>
<trkpt lat="44.541122" lon="34.266441">
<ele>178.482544</ele>
<time>2011-10-13T07:46:17Z</time>
<desc>lat.=44.541122, lon.=34.266441, Alt.=178.482544m. Speed=0.000000m/h.</desc>
<speed>0.000000</speed>
</trkpt>
<trkpt lat="44.541122" lon="34.266441">
<ele>178.455200</ele>
<time>2011-10-13T07:46:22Z</time>
<desc>lat.=44.541122, lon.=34.266441, Alt.=178.455200m. Speed=0.000000m/h.</desc>
<speed>0.000000</speed>
</trkpt>
<trkpt lat="44.541122" lon="34.266441">
<ele>178.420044</ele>
<time>2011-10-13T07:46:27Z</time>
<desc>lat.=44.541122, lon.=34.266441, Alt.=178.420044m. Speed=0.000000m/h.</desc>
<speed>0.000000</speed>
</trkpt>
<trkpt lat="44.541122" lon="34.266441">
<ele>178.384888</ele>
<time>2011-10-13T07:46:32Z</time>
<desc>lat.=44.541122, lon.=34.266441, Alt.=178.384888m. Speed=0.000000m/h.</desc>
<speed>0.000000</speed>
</trkpt>
<trkpt lat="44.541122" lon="34.266441">
<ele>178.353638</ele>
<time>2011-10-13T07:46:37Z</time>
<desc>lat.=44.541122, lon.=34.266441, Alt.=178.353638m. Speed=0.000000m/h.</desc>
<speed>0.000000</speed>
</trkpt>
<trkpt lat="44.541126" lon="34.266441">
<ele>178.326294</ele>
<time>2011-10-13T07:46:42Z</time>
<desc>lat.=44.541126, lon.=34.266441, Alt.=178.326294m. Speed=0.000000m/h.</desc>
<speed>0.000000</speed>
</trkpt>
<trkpt lat="44.541126" lon="34.266441">
<ele>178.302856</ele>
<time>2011-10-13T07:46:47Z</time>
<desc>lat.=44.541126, lon.=34.266441, Alt.=178.302856m. Speed=0.000000m/h.</desc>
<speed>0.000000</speed>
</trkpt>
<trkpt lat="44.541126" lon="34.266441">
<ele>178.279419</ele>
<time>2011-10-13T07:46:52Z</time>
<desc>lat.=44.541126, lon.=34.266441, Alt.=178.279419m. Speed=0.000000m/h.</desc>
<speed>0.000000</speed>
</trkpt>
<trkpt lat="44.541126" lon="34.266441">
<ele>178.255981</ele>
<time>2011-10-13T07:46:57Z</time>
<desc>lat.=44.541126, lon.=34.266441, Alt.=178.255981m. Speed=0.000000m/h.</desc>
<speed>0.000000</speed>
</trkpt>
<trkpt lat="44.541126" lon="34.266441">
<ele>178.236450</ele>
<time>2011-10-13T07:47:02Z</time>
<desc>lat.=44.541126, lon.=34.266441, Alt.=178.236450m. Speed=0.000000m/h.</desc>
<speed>0.000000</speed>
</trkpt>
<trkpt lat="44.541126" lon="34.266441">
<ele>178.213013</ele>
<time>2011-10-13T07:47:07Z</time>
<desc>lat.=44.541126, lon.=34.266441, Alt.=178.213013m. Speed=0.000000m/h.</desc>
<speed>0.000000</speed>
</trkpt>
<trkpt lat="44.541126" lon="34.266441">
<ele>178.201294</ele>
<time>2011-10-13T07:47:12Z</time>
<desc>lat.=44.541126, lon.=34.266441, Alt.=178.201294m. Speed=0.000000m/h.</desc>
<speed>0.000000</speed>
</trkpt>
<trkpt lat="44.541126" lon="34.266441">
<ele>178.185669</ele>
<time>2011-10-13T07:47:17Z</time>
<desc>lat.=44.541126, lon.=34.266441, Alt.=178.185669m. Speed=0.000000m/h.</desc>
<speed>0.000000</speed>
</trkpt>
<trkpt lat="44.541126" lon="34.266441">
<ele>178.181763</ele>
<time>2011-10-13T07:47:22Z</time>
<desc>lat.=44.541126, lon.=34.266441, Alt.=178.181763m. Speed=0.072000m/h.</desc>
<speed>0.020000</speed>
</trkpt>
<trkpt lat="44.541126" lon="34.266441">
<ele>178.170044</ele>
<time>2011-10-13T07:47:27Z</time>
<desc>lat.=44.541126, lon.=34.266441, Alt.=178.170044m. Speed=0.072000m/h.</desc>
<speed>0.020000</speed>
</trkpt>
<trkpt lat="44.541126" lon="34.266441">
<ele>178.154419</ele>
<time>2011-10-13T07:47:32Z</time>
<desc>lat.=44.541126, lon.=34.266441, Alt.=178.154419m. Speed=0.072000m/h.</desc>
<speed>0.020000</speed>
</trkpt>
<trkpt lat="44.541126" lon="34.266441">
<ele>178.134888</ele>
<time>2011-10-13T07:47:37Z</time>
<desc>lat.=44.541126, lon.=34.266441, Alt.=178.134888m. Speed=0.216000m/h.</desc>
<speed>0.060000</speed>
</trkpt>
<trkpt lat="44.541134" lon="34.266438">
<ele>178.146606</ele>
<time>2011-10-13T07:47:42Z</time>
<desc>lat.=44.541134, lon.=34.266438, Alt.=178.146606m. Speed=2.556000m/h.</desc>
<speed>0.710000</speed>
</trkpt>
<trkpt lat="44.541210" lon="34.266407">
<ele>178.240356</ele>
<time>2011-10-13T07:47:47Z</time>
<desc>lat.=44.541210, lon.=34.266407, Alt.=178.240356m. Speed=9.324000m/h.</desc>
<speed>2.590000</speed>
</trkpt>
<trkpt lat="44.541355" lon="34.266365">
<ele>178.228638</ele>
<time>2011-10-13T07:47:52Z</time>
<desc>lat.=44.541355, lon.=34.266365, Alt.=178.228638m. Speed=13.608000m/h.</desc>
<speed>3.780000</speed>
</trkpt>
<trkpt lat="44.541542" lon="34.266373">
<ele>177.822388</ele>
<time>2011-10-13T07:47:57Z</time>
<desc>lat.=44.541542, lon.=34.266373, Alt.=177.822388m. Speed=16.704000m/h.</desc>
<speed>4.640000</speed>
</trkpt>
<trkpt lat="44.541771" lon="34.266399">
<ele>176.728638</ele>
<time>2011-10-13T07:48:02Z</time>
<desc>lat.=44.541771, lon.=34.266399, Alt.=176.728638m. Speed=18.072001m/h.</desc>
<speed>5.020000</speed>
</trkpt>
<trkpt lat="44.542011" lon="34.266422">
<ele>176.072388</ele>
<time>2011-10-13T07:48:07Z</time>
<desc>lat.=44.542011, lon.=34.266422, Alt.=176.072388m. Speed=18.504000m/h.</desc>
<speed>5.140000</speed>
</trkpt>
<trkpt lat="44.542210" lon="34.266422">
<ele>178.619263</ele>
<time>2011-10-13T07:48:12Z</time>
<desc>lat.=44.542210, lon.=34.266422, Alt.=178.619263m. Speed=14.940000m/h.</desc>
<speed>4.150000</speed>
</trkpt>
<trkpt lat="44.542419" lon="34.266426">
<ele>179.021606</ele>
<time>2011-10-13T07:48:17Z</time>
<desc>lat.=44.542419, lon.=34.266426, Alt.=179.021606m. Speed=18.216000m/h.</desc>
<speed>5.060000</speed>
</trkpt>
<trkpt lat="44.542652" lon="34.266380">
<ele>180.353638</ele>
<time>2011-10-13T07:48:22Z</time>
<desc>lat.=44.542652, lon.=34.266380, Alt.=180.353638m. Speed=18.216000m/h.</desc>
<speed>5.060000</speed>
</trkpt>
<trkpt lat="44.542889" lon="34.266285">
<ele>177.123169</ele>
<time>2011-10-13T07:48:27Z</time>
<desc>lat.=44.542889, lon.=34.266285, Alt.=177.123169m. Speed=18.576000m/h.</desc>
<speed>5.160000</speed>
</trkpt>
<trkpt lat="44.543079" lon="34.266117">
<ele>174.615356</ele>
<time>2011-10-13T07:48:32Z</time>
<desc>lat.=44.543079, lon.=34.266117, Alt.=174.615356m. Speed=10.656000m/h.</desc>
<speed>2.960000</speed>
</trkpt>
<trkpt lat="44.543156" lon="34.266056">
<ele>172.084106</ele>
<time>2011-10-13T07:48:37Z</time>
<desc>lat.=44.543156, lon.=34.266056, Alt.=172.084106m. Speed=4.824000m/h.</desc>
<speed>1.340000</speed>
</trkpt>
<trkpt lat="44.543201" lon="34.266003">
<ele>170.009888</ele>
<time>2011-10-13T07:48:42Z</time>
<desc>lat.=44.543201, lon.=34.266003, Alt.=170.009888m. Speed=1.548000m/h.</desc>
<speed>0.430000</speed>
</trkpt>
<trkpt lat="44.543259" lon="34.265911">
<ele>168.310669</ele>
<time>2011-10-13T07:48:47Z</time>
<desc>lat.=44.543259, lon.=34.265911, Alt.=168.310669m. Speed=12.168000m/h.</desc>
<speed>3.380000</speed>
</trkpt>
<trkpt lat="44.543407" lon="34.265690">
<ele>169.865356</ele>
<time>2011-10-13T07:48:52Z</time>
<desc>lat.=44.543407, lon.=34.265690, Alt.=169.865356m. Speed=18.792000m/h.</desc>
<speed>5.220000</speed>
</trkpt>
<trkpt lat="44.543560" lon="34.265442">
<ele>169.556763</ele>
<time>2011-10-13T07:48:57Z</time>
<desc>lat.=44.543560, lon.=34.265442, Alt.=169.556763m. Speed=18.719999m/h.</desc>
<speed>5.200000</speed>
</trkpt>
<trkpt lat="44.543701" lon="34.265202">
<ele>169.306763</ele>
<time>2011-10-13T07:49:02Z</time>
<desc>lat.=44.543701, lon.=34.265202, Alt.=169.306763m. Speed=16.884001m/h.</desc>
<speed>4.690000</speed>
</trkpt>
<trkpt lat="44.543812" lon="34.265007">
<ele>169.517700</ele>
<time>2011-10-13T07:49:07Z</time>
<desc>lat.=44.543812, lon.=34.265007, Alt.=169.517700m. Speed=11.376000m/h.</desc>
<speed>3.160000</speed>
</trkpt>
<trkpt lat="44.543907" lon="34.264874">
<ele>168.236450</ele>
<time>2011-10-13T07:49:12Z</time>
<desc>lat.=44.543907, lon.=34.264874, Alt.=168.236450m. Speed=11.556000m/h.</desc>
<speed>3.210000</speed>
</trkpt>
<trkpt lat="44.544071" lon="34.264805">
<ele>167.341919</ele>
<time>2011-10-13T07:49:17Z</time>
<desc>lat.=44.544071, lon.=34.264805, Alt.=167.341919m. Speed=17.568001m/h.</desc>
<speed>4.880000</speed>
</trkpt>
<trkpt lat="44.544270" lon="34.264732">
<ele>168.185669</ele>
<time>2011-10-13T07:49:22Z</time>
<desc>lat.=44.544270, lon.=34.264732, Alt.=168.185669m. Speed=17.208000m/h.</desc>
<speed>4.780000</speed>
</trkpt>
<trkpt lat="44.544483" lon="34.264656">
<ele>168.994263</ele>
<time>2011-10-13T07:49:27Z</time>
<desc>lat.=44.544483, lon.=34.264656, Alt.=168.994263m. Speed=17.496000m/h.</desc>
<speed>4.860000</speed>
</trkpt>
<trkpt lat="44.544693" lon="34.264568">
<ele>171.021606</ele>
<time>2011-10-13T07:49:32Z</time>
<desc>lat.=44.544693, lon.=34.264568, Alt.=171.021606m. Speed=16.596001m/h.</desc>
<speed>4.610000</speed>
</trkpt>
<trkpt lat="44.544914" lon="34.264511">
<ele>170.322388</ele>
<time>2011-10-13T07:49:37Z</time>
<desc>lat.=44.544914, lon.=34.264511, Alt.=170.322388m. Speed=18.719999m/h.</desc>
<speed>5.200000</speed>
</trkpt>
<trkpt lat="44.545170" lon="34.264442">
<ele>170.232544</ele>
<time>2011-10-13T07:49:42Z</time>
<desc>lat.=44.545170, lon.=34.264442, Alt.=170.232544m. Speed=22.212000m/h.</desc>
<speed>6.170000</speed>
</trkpt>
<trkpt lat="44.545444" lon="34.264381">
<ele>170.021606</ele>
<time>2011-10-13T07:49:47Z</time>
<desc>lat.=44.545444, lon.=34.264381, Alt.=170.021606m. Speed=22.176001m/h.</desc>
<speed>6.160000</speed>
</trkpt>
<trkpt lat="44.545696" lon="34.264355">
<ele>169.896606</ele>
<time>2011-10-13T07:49:52Z</time>
<desc>lat.=44.545696, lon.=34.264355, Alt.=169.896606m. Speed=18.936001m/h.</desc>
<speed>5.260000</speed>
</trkpt>
<trkpt lat="44.545944" lon="34.264359">
<ele>169.923950</ele>
<time>2011-10-13T07:49:57Z</time>
<desc>lat.=44.545944, lon.=34.264359, Alt.=169.923950m. Speed=22.860001m/h.</desc>
<speed>6.350000</speed>
</trkpt>
<trkpt lat="44.546238" lon="34.264442">
<ele>169.709106</ele>
<time>2011-10-13T07:50:02Z</time>
<desc>lat.=44.546238, lon.=34.264442, Alt.=169.709106m. Speed=23.832001m/h.</desc>
<speed>6.620000</speed>
</trkpt>
<trkpt lat="44.546524" lon="34.264542">
<ele>168.759888</ele>
<time>2011-10-13T07:50:07Z</time>
<desc>lat.=44.546524, lon.=34.264542, Alt.=168.759888m. Speed=24.660000m/h.</desc>
<speed>6.850000</speed>
</trkpt>
<trkpt lat="44.546829" lon="34.264652">
<ele>167.759888</ele>
<time>2011-10-13T07:50:12Z</time>
<desc>lat.=44.546829, lon.=34.264652, Alt.=167.759888m. Speed=25.955999m/h.</desc>
<speed>7.210000</speed>
</trkpt>
<trkpt lat="44.547157" lon="34.264763">
<ele>166.318481</ele>
<time>2011-10-13T07:50:17Z</time>
<desc>lat.=44.547157, lon.=34.264763, Alt.=166.318481m. Speed=28.511999m/h.</desc>
<speed>7.920000</speed>
</trkpt>
<trkpt lat="44.547516" lon="34.264889">
<ele>165.068481</ele>
<time>2011-10-13T07:50:22Z</time>
<desc>lat.=44.547516, lon.=34.264889, Alt.=165.068481m. Speed=30.780001m/h.</desc>
<speed>8.550000</speed>
</trkpt>
<trkpt lat="44.547802" lon="34.265011">
<ele>164.365356</ele>
<time>2011-10-13T07:50:27Z</time>
<desc>lat.=44.547802, lon.=34.265011, Alt.=164.365356m. Speed=21.708000m/h.</desc>
<speed>6.030000</speed>
</trkpt>
<trkpt lat="44.548065" lon="34.265110">
<ele>163.498169</ele>
<time>2011-10-13T07:50:32Z</time>
<desc>lat.=44.548065, lon.=34.265110, Alt.=163.498169m. Speed=23.076000m/h.</desc>
<speed>6.410000</speed>
</trkpt>
<trkpt lat="44.548355" lon="34.265221">
<ele>162.755981</ele>
<time>2011-10-13T07:50:37Z</time>
<desc>lat.=44.548355, lon.=34.265221, Alt.=162.755981m. Speed=24.732000m/h.</desc>
<speed>6.870000</speed>
</trkpt>
<trkpt lat="44.548672" lon="34.265324">
<ele>162.341919</ele>
<time>2011-10-13T07:50:42Z</time>
<desc>lat.=44.548672, lon.=34.265324, Alt.=162.341919m. Speed=25.559999m/h.</desc>
<speed>7.100000</speed>
</trkpt>
<trkpt lat="44.548985" lon="34.265434">
<ele>162.416138</ele>
<time>2011-10-13T07:50:47Z</time>
<desc>lat.=44.548985, lon.=34.265434, Alt.=162.416138m. Speed=24.624001m/h.</desc>
<speed>6.840000</speed>
</trkpt>
<trkpt lat="44.549263" lon="34.265579">
<ele>162.705200</ele>
<time>2011-10-13T07:50:52Z</time>
<desc>lat.=44.549263, lon.=34.265579, Alt.=162.705200m. Speed=21.672001m/h.</desc>
<speed>6.020000</speed>
</trkpt>
<trkpt lat="44.549469" lon="34.265755">
<ele>163.310669</ele>
<time>2011-10-13T07:50:57Z</time>
<desc>lat.=44.549469, lon.=34.265755, Alt.=163.310669m. Speed=16.524000m/h.</desc>
<speed>4.590000</speed>
</trkpt>
<trkpt lat="44.549641" lon="34.265968">
<ele>163.412231</ele>
<time>2011-10-13T07:51:02Z</time>
<desc>lat.=44.549641, lon.=34.265968, Alt.=163.412231m. Speed=19.764000m/h.</desc>
<speed>5.490000</speed>
</trkpt>
<trkpt lat="44.549789" lon="34.266216">
<ele>163.744263</ele>
<time>2011-10-13T07:51:07Z</time>
<desc>lat.=44.549789, lon.=34.266216, Alt.=163.744263m. Speed=15.444000m/h.</desc>
<speed>4.290000</speed>
</trkpt>
<trkpt lat="44.549870" lon="34.266415">
<ele>164.205200</ele>
<time>2011-10-13T07:51:12Z</time>
<desc>lat.=44.549870, lon.=34.266415, Alt.=164.205200m. Speed=13.176000m/h.</desc>
<speed>3.660000</speed>
</trkpt>
<trkpt lat="44.549953" lon="34.266613">
<ele>164.955200</ele>
<time>2011-10-13T07:51:17Z</time>
<desc>lat.=44.549953, lon.=34.266613, Alt.=164.955200m. Speed=10.044000m/h.</desc>
<speed>2.790000</speed>
</trkpt>
<trkpt lat="44.550022" lon="34.266781">
<ele>165.755981</ele>
<time>2011-10-13T07:51:22Z</time>
<desc>lat.=44.550022, lon.=34.266781, Alt.=165.755981m. Speed=12.636000m/h.</desc>
<speed>3.510000</speed>
</trkpt>
<trkpt lat="44.550098" lon="34.266975">
<ele>166.392700</ele>
<time>2011-10-13T07:51:27Z</time>
<desc>lat.=44.550098, lon.=34.266975, Alt.=166.392700m. Speed=11.484000m/h.</desc>
<speed>3.190000</speed>
</trkpt>
<trkpt lat="44.550163" lon="34.267155">
<ele>166.865356</ele>
<time>2011-10-13T07:51:32Z</time>
<desc>lat.=44.550163, lon.=34.267155, Alt.=166.865356m. Speed=11.232000m/h.</desc>
<speed>3.120000</speed>
</trkpt>
<trkpt lat="44.550194" lon="34.267262">
<ele>167.966919</ele>
<time>2011-10-13T07:51:37Z</time>
<desc>lat.=44.550194, lon.=34.267262, Alt.=167.966919m. Speed=5.004000m/h.</desc>
<speed>1.390000</speed>
</trkpt>
<trkpt lat="44.550213" lon="34.267345">
<ele>168.181763</ele>
<time>2011-10-13T07:51:42Z</time>
<desc>lat.=44.550213, lon.=34.267345, Alt.=168.181763m. Speed=4.608000m/h.</desc>
<speed>1.280000</speed>
</trkpt>
<trkpt lat="44.550220" lon="34.267464">
<ele>168.326294</ele>
<time>2011-10-13T07:51:47Z</time>
<desc>lat.=44.550220, lon.=34.267464, Alt.=168.326294m. Speed=8.208000m/h.</desc>
<speed>2.280000</speed>
</trkpt>
<trkpt lat="44.550266" lon="34.267593">
<ele>168.361450</ele>
<time>2011-10-13T07:51:52Z</time>
<desc>lat.=44.550266, lon.=34.267593, Alt.=168.361450m. Speed=7.092000m/h.</desc>
<speed>1.970000</speed>
</trkpt>
<trkpt lat="44.550304" lon="34.267696">
<ele>168.525513</ele>
<time>2011-10-13T07:51:57Z</time>
<desc>lat.=44.550304, lon.=34.267696, Alt.=168.525513m. Speed=6.408000m/h.</desc>
<speed>1.780000</speed>
</trkpt>
<trkpt lat="44.550343" lon="34.267773">
<ele>168.236450</ele>
<time>2011-10-13T07:52:02Z</time>
<desc>lat.=44.550343, lon.=34.267773, Alt.=168.236450m. Speed=5.076000m/h.</desc>
<speed>1.410000</speed>
</trkpt>
<trkpt lat="44.550385" lon="34.267853">
<ele>168.248169</ele>
<time>2011-10-13T07:52:07Z</time>
<desc>lat.=44.550385, lon.=34.267853, Alt.=168.248169m. Speed=4.392000m/h.</desc>
<speed>1.220000</speed>
</trkpt>
<trkpt lat="44.550404" lon="34.267902">
<ele>167.677856</ele>
<time>2011-10-13T07:52:12Z</time>
<desc>lat.=44.550404, lon.=34.267902, Alt.=167.677856m. Speed=3.348000m/h.</desc>
<speed>0.930000</speed>
</trkpt>
<trkpt lat="44.550423" lon="34.267960">
<ele>167.552856</ele>
<time>2011-10-13T07:52:17Z</time>
<desc>lat.=44.550423, lon.=34.267960, Alt.=167.552856m. Speed=4.464000m/h.</desc>
<speed>1.240000</speed>
</trkpt>
<trkpt lat="44.550449" lon="34.268005">
<ele>168.357544</ele>
<time>2011-10-13T07:52:22Z</time>
<desc>lat.=44.550449, lon.=34.268005, Alt.=168.357544m. Speed=3.060000m/h.</desc>
<speed>0.850000</speed>
</trkpt>
<trkpt lat="44.550461" lon="34.268063">
<ele>167.615356</ele>
<time>2011-10-13T07:52:27Z</time>
<desc>lat.=44.550461, lon.=34.268063, Alt.=167.615356m. Speed=3.204000m/h.</desc>
<speed>0.890000</speed>
</trkpt>
<trkpt lat="44.550415" lon="34.267963">
<ele>167.099731</ele>
<time>2011-10-13T07:52:32Z</time>
<desc>lat.=44.550415, lon.=34.267963, Alt.=167.099731m. Speed=11.088000m/h.</desc>
<speed>3.080000</speed>
</trkpt>
<trkpt lat="44.550354" lon="34.267742">
<ele>165.744263</ele>
<time>2011-10-13T07:52:37Z</time>
<desc>lat.=44.550354, lon.=34.267742, Alt.=165.744263m. Speed=14.580000m/h.</desc>
<speed>4.050000</speed>
</trkpt>
<trkpt lat="44.550312" lon="34.267624">
<ele>160.955200</ele>
<time>2011-10-13T07:52:42Z</time>
<desc>lat.=44.550312, lon.=34.267624, Alt.=160.955200m. Speed=1.692000m/h.</desc>
<speed>0.470000</speed>
</trkpt>
<trkpt lat="44.550320" lon="34.267632">
<ele>159.877075</ele>
<time>2011-10-13T07:52:47Z</time>
<desc>lat.=44.550320, lon.=34.267632, Alt.=159.877075m. Speed=0.684000m/h.</desc>
<speed>0.190000</speed>
</trkpt>
<trkpt lat="44.550320" lon="34.267635">
<ele>159.588013</ele>
<time>2011-10-13T07:52:52Z</time>
<desc>lat.=44.550320, lon.=34.267635, Alt.=159.588013m. Speed=0.000000m/h.</desc>
<speed>0.000000</speed>
</trkpt>
<trkpt lat="44.550320" lon="34.267635">
<ele>159.588013</ele>
<time>2011-10-13T07:52:57Z</time>
<desc>lat.=44.550320, lon.=34.267635, Alt.=159.588013m. Speed=0.036000m/h.</desc>
<speed>0.010000</speed>
</trkpt>
<trkpt lat="44.550320" lon="34.267635">
<ele>159.591919</ele>
<time>2011-10-13T07:53:02Z</time>
<desc>lat.=44.550320, lon.=34.267635, Alt.=159.591919m. Speed=0.000000m/h.</desc>
<speed>0.000000</speed>
</trkpt>
<trkpt lat="44.550320" lon="34.267635">
<ele>159.611450</ele>
<time>2011-10-13T07:53:07Z</time>
<desc>lat.=44.550320, lon.=34.267635, Alt.=159.611450m. Speed=0.036000m/h.</desc>
<speed>0.010000</speed>
</trkpt>
<trkpt lat="44.550320" lon="34.267632">
<ele>159.623169</ele>
<time>2011-10-13T07:53:12Z</time>
<desc>lat.=44.550320, lon.=34.267632, Alt.=159.623169m. Speed=0.036000m/h.</desc>
<speed>0.010000</speed>
</trkpt>
<trkpt lat="44.550320" lon="34.267632">
<ele>159.662231</ele>
<time>2011-10-13T07:53:17Z</time>
<desc>lat.=44.550320, lon.=34.267632, Alt.=159.662231m. Speed=0.180000m/h.</desc>
<speed>0.050000</speed>
</trkpt>
<trkpt lat="44.550320" lon="34.267632">
<ele>159.666138</ele>
<time>2011-10-13T07:53:22Z</time>
<desc>lat.=44.550320, lon.=34.267632, Alt.=159.666138m. Speed=0.036000m/h.</desc>
<speed>0.010000</speed>
</trkpt>
<trkpt lat="44.550320" lon="34.267632">
<ele>159.662231</ele>
<time>2011-10-13T07:53:27Z</time>
<desc>lat.=44.550320, lon.=34.267632, Alt.=159.662231m. Speed=0.000000m/h.</desc>
<speed>0.000000</speed>
</trkpt>
<trkpt lat="44.550320" lon="34.267632">
<ele>159.654419</ele>
<time>2011-10-13T07:53:32Z</time>
<desc>lat.=44.550320, lon.=34.267632, Alt.=159.654419m. Speed=0.072000m/h.</desc>
<speed>0.020000</speed>
</trkpt>
<trkpt lat="44.550320" lon="34.267632">
<ele>159.642700</ele>
<time>2011-10-13T07:53:37Z</time>
<desc>lat.=44.550320, lon.=34.267632, Alt.=159.642700m. Speed=0.108000m/h.</desc>
<speed>0.030000</speed>
</trkpt>
<trkpt lat="44.550316" lon="34.267632">
<ele>159.654419</ele>
<time>2011-10-13T07:53:42Z</time>
<desc>lat.=44.550316, lon.=34.267632, Alt.=159.654419m. Speed=0.108000m/h.</desc>
<speed>0.030000</speed>
</trkpt>
<trkpt lat="44.550320" lon="34.267632">
<ele>159.670044</ele>
<time>2011-10-13T07:53:47Z</time>
<desc>lat.=44.550320, lon.=34.267632, Alt.=159.670044m. Speed=1.152000m/h.</desc>
<speed>0.320000</speed>
</trkpt>
<trkpt lat="44.550331" lon="34.267693">
<ele>159.634888</ele>
<time>2011-10-13T07:53:52Z</time>
<desc>lat.=44.550331, lon.=34.267693, Alt.=159.634888m. Speed=7.488000m/h.</desc>
<speed>2.080000</speed>
</trkpt>
<trkpt lat="44.550377" lon="34.267788">
<ele>160.763794</ele>
<time>2011-10-13T07:53:57Z</time>
<desc>lat.=44.550377, lon.=34.267788, Alt.=160.763794m. Speed=4.248000m/h.</desc>
<speed>1.180000</speed>
</trkpt>
<trkpt lat="44.550404" lon="34.267853">
<ele>161.138794</ele>
<time>2011-10-13T07:54:02Z</time>
<desc>lat.=44.550404, lon.=34.267853, Alt.=161.138794m. Speed=3.924000m/h.</desc>
<speed>1.090000</speed>
</trkpt>
<trkpt lat="44.550411" lon="34.267872">
<ele>161.384888</ele>
<time>2011-10-13T07:54:07Z</time>
<desc>lat.=44.550411, lon.=34.267872, Alt.=161.384888m. Speed=0.072000m/h.</desc>
<speed>0.020000</speed>
</trkpt>
<trkpt lat="44.550411" lon="34.267872">
<ele>161.279419</ele>
<time>2011-10-13T07:54:12Z</time>
<desc>lat.=44.550411, lon.=34.267872, Alt.=161.279419m. Speed=0.036000m/h.</desc>
<speed>0.010000</speed>
</trkpt>
<trkpt lat="44.550411" lon="34.267872">
<ele>161.291138</ele>
<time>2011-10-13T07:54:17Z</time>
<desc>lat.=44.550411, lon.=34.267872, Alt.=161.291138m. Speed=0.000000m/h.</desc>
<speed>0.000000</speed>
</trkpt>
<trkpt lat="44.550411" lon="34.267872">
<ele>161.314575</ele>
<time>2011-10-13T07:54:22Z</time>
<desc>lat.=44.550411, lon.=34.267872, Alt.=161.314575m. Speed=0.072000m/h.</desc>
<speed>0.020000</speed>
</trkpt>
<trkpt lat="44.550411" lon="34.267872">
<ele>161.322388</ele>
<time>2011-10-13T07:54:27Z</time>
<desc>lat.=44.550411, lon.=34.267872, Alt.=161.322388m. Speed=0.900000m/h.</desc>
<speed>0.250000</speed>
</trkpt>
<trkpt lat="44.550415" lon="34.267879">
<ele>161.580200</ele>
<time>2011-10-13T07:54:32Z</time>
<desc>lat.=44.550415, lon.=34.267879, Alt.=161.580200m. Speed=1.872000m/h.</desc>
<speed>0.520000</speed>
</trkpt>
<trkpt lat="44.550419" lon="34.267921">
<ele>163.306763</ele>
<time>2011-10-13T07:54:37Z</time>
<desc>lat.=44.550419, lon.=34.267921, Alt.=163.306763m. Speed=4.572000m/h.</desc>
<speed>1.270000</speed>
</trkpt>
<trkpt lat="44.550438" lon="34.267971">
<ele>165.892700</ele>
<time>2011-10-13T07:54:42Z</time>
<desc>lat.=44.550438, lon.=34.267971, Alt.=165.892700m. Speed=4.032000m/h.</desc>
<speed>1.120000</speed>
</trkpt>
<trkpt lat="44.550476" lon="34.268051">
<ele>166.611450</ele>
<time>2011-10-13T07:54:47Z</time>
<desc>lat.=44.550476, lon.=34.268051, Alt.=166.611450m. Speed=4.500000m/h.</desc>
<speed>1.250000</speed>
</trkpt>
<trkpt lat="44.550503" lon="34.268097">
<ele>166.892700</ele>
<time>2011-10-13T07:54:52Z</time>
<desc>lat.=44.550503, lon.=34.268097, Alt.=166.892700m. Speed=0.612000m/h.</desc>
<speed>0.170000</speed>
</trkpt>
<trkpt lat="44.550503" lon="34.268097">
<ele>166.818481</ele>
<time>2011-10-13T07:54:57Z</time>
<desc>lat.=44.550503, lon.=34.268097, Alt.=166.818481m. Speed=0.180000m/h.</desc>
<speed>0.050000</speed>
</trkpt>
<trkpt lat="44.550510" lon="34.268097">
<ele>166.806763</ele>
<time>2011-10-13T07:55:02Z</time>
<desc>lat.=44.550510, lon.=34.268097, Alt.=166.806763m. Speed=1.008000m/h.</desc>
<speed>0.280000</speed>
</trkpt>
<trkpt lat="44.550514" lon="34.268105">
<ele>166.689575</ele>
<time>2011-10-13T07:55:07Z</time>
<desc>lat.=44.550514, lon.=34.268105, Alt.=166.689575m. Speed=0.252000m/h.</desc>
<speed>0.070000</speed>
</trkpt>
<trkpt lat="44.550514" lon="34.268105">
<ele>166.599731</ele>
<time>2011-10-13T07:55:12Z</time>
<desc>lat.=44.550514, lon.=34.268105, Alt.=166.599731m. Speed=0.468000m/h.</desc>
<speed>0.130000</speed>
</trkpt>
<trkpt lat="44.550491" lon="34.268066">
<ele>166.330200</ele>
<time>2011-10-13T07:55:17Z</time>
<desc>lat.=44.550491, lon.=34.268066, Alt.=166.330200m. Speed=5.436000m/h.</desc>
<speed>1.510000</speed>
</trkpt>
<trkpt lat="44.550411" lon="34.267899">
<ele>166.216919</ele>
<time>2011-10-13T07:55:22Z</time>
<desc>lat.=44.550411, lon.=34.267899, Alt.=166.216919m. Speed=13.248000m/h.</desc>
<speed>3.680000</speed>
</trkpt>
<trkpt lat="44.550343" lon="34.267719">
<ele>165.392700</ele>
<time>2011-10-13T07:55:27Z</time>
<desc>lat.=44.550343, lon.=34.267719, Alt.=165.392700m. Speed=10.476000m/h.</desc>
<speed>2.910000</speed>
</trkpt>
<trkpt lat="44.550335" lon="34.267586">
<ele>165.459106</ele>
<time>2011-10-13T07:55:32Z</time>
<desc>lat.=44.550335, lon.=34.267586, Alt.=165.459106m. Speed=8.604000m/h.</desc>
<speed>2.390000</speed>
</trkpt>
<trkpt lat="44.550358" lon="34.267307">
<ele>165.560669</ele>
<time>2011-10-13T07:55:37Z</time>
<desc>lat.=44.550358, lon.=34.267307, Alt.=165.560669m. Speed=20.556000m/h.</desc>
<speed>5.710000</speed>
</trkpt>
<trkpt lat="44.550293" lon="34.266891">
<ele>162.615356</ele>
<time>2011-10-13T07:55:42Z</time>
<desc>lat.=44.550293, lon.=34.266891, Alt.=162.615356m. Speed=27.792000m/h.</desc>
<speed>7.720000</speed>
</trkpt>
<trkpt lat="44.550339" lon="34.266380">
<ele>161.388794</ele>
<time>2011-10-13T07:55:47Z</time>
<desc>lat.=44.550339, lon.=34.266380, Alt.=161.388794m. Speed=29.771999m/h.</desc>
<speed>8.270000</speed>
</trkpt>
<trkpt lat="44.550381" lon="34.265907">
<ele>160.912231</ele>
<time>2011-10-13T07:55:52Z</time>
<desc>lat.=44.550381, lon.=34.265907, Alt.=160.912231m. Speed=24.299999m/h.</desc>
<speed>6.750000</speed>
</trkpt>
<trkpt lat="44.550377" lon="34.265507">
<ele>160.322388</ele>
<time>2011-10-13T07:55:57Z</time>
<desc>lat.=44.550377, lon.=34.265507, Alt.=160.322388m. Speed=22.032000m/h.</desc>
<speed>6.120000</speed>
</trkpt>
<trkpt lat="44.550365" lon="34.265167">
<ele>159.865356</ele>
<time>2011-10-13T07:56:02Z</time>
<desc>lat.=44.550365, lon.=34.265167, Alt.=159.865356m. Speed=19.188000m/h.</desc>
<speed>5.330000</speed>
</trkpt>
<trkpt lat="44.550430" lon="34.264790">
<ele>159.560669</ele>
<time>2011-10-13T07:56:07Z</time>
<desc>lat.=44.550430, lon.=34.264790, Alt.=159.560669m. Speed=20.232000m/h.</desc>
<speed>5.620000</speed>
</trkpt>
<trkpt lat="44.550419" lon="34.264511">
<ele>159.994263</ele>
<time>2011-10-13T07:56:12Z</time>
<desc>lat.=44.550419, lon.=34.264511, Alt.=159.994263m. Speed=13.284000m/h.</desc>
<speed>3.690000</speed>
</trkpt>
<trkpt lat="44.550278" lon="34.264511">
<ele>159.115356</ele>
<time>2011-10-13T07:56:17Z</time>
<desc>lat.=44.550278, lon.=34.264511, Alt.=159.115356m. Speed=14.364000m/h.</desc>
<speed>3.990000</speed>
</trkpt>
<trkpt lat="44.550117" lon="34.264736">
<ele>157.834106</ele>
<time>2011-10-13T07:56:22Z</time>
<desc>lat.=44.550117, lon.=34.264736, Alt.=157.834106m. Speed=20.628000m/h.</desc>
<speed>5.730000</speed>
</trkpt>
<trkpt lat="44.550018" lon="34.265030">
<ele>156.033325</ele>
<time>2011-10-13T07:56:27Z</time>
<desc>lat.=44.550018, lon.=34.265030, Alt.=156.033325m. Speed=15.516000m/h.</desc>
<speed>4.310000</speed>
</trkpt>
<trkpt lat="44.549984" lon="34.265350">
<ele>154.216919</ele>
<time>2011-10-13T07:56:32Z</time>
<desc>lat.=44.549984, lon.=34.265350, Alt.=154.216919m. Speed=19.476000m/h.</desc>
<speed>5.410000</speed>
</trkpt>
<trkpt lat="44.549942" lon="34.265816">
<ele>149.302856</ele>
<time>2011-10-13T07:56:37Z</time>
<desc>lat.=44.549942, lon.=34.265816, Alt.=149.302856m. Speed=29.375999m/h.</desc>
<speed>8.160000</speed>
</trkpt>
<trkpt lat="44.549713" lon="34.266308">
<ele>144.927856</ele>
<time>2011-10-13T07:56:42Z</time>
<desc>lat.=44.549713, lon.=34.266308, Alt.=144.927856m. Speed=30.275999m/h.</desc>
<speed>8.410000</speed>
</trkpt>
<trkpt lat="44.549610" lon="34.266827">
<ele>141.150513</ele>
<time>2011-10-13T07:56:47Z</time>
<desc>lat.=44.549610, lon.=34.266827, Alt.=141.150513m. Speed=36.467999m/h.</desc>
<speed>10.130000</speed>
</trkpt>
<trkpt lat="44.549465" lon="34.267479">
<ele>135.982544</ele>
<time>2011-10-13T07:56:52Z</time>
<desc>lat.=44.549465, lon.=34.267479, Alt.=135.982544m. Speed=37.223999m/h.</desc>
<speed>10.340000</speed>
</trkpt>
<trkpt lat="44.549393" lon="34.268028">
<ele>130.927856</ele>
<time>2011-10-13T07:56:57Z</time>
<desc>lat.=44.549393, lon.=34.268028, Alt.=130.927856m. Speed=23.400000m/h.</desc>
<speed>6.500000</speed>
</trkpt>
<trkpt lat="44.549290" lon="34.268234">
<ele>126.711975</ele>
<time>2011-10-13T07:57:02Z</time>
<desc>lat.=44.549290, lon.=34.268234, Alt.=126.711975m. Speed=15.120000m/h.</desc>
<speed>4.200000</speed>
</trkpt>
<trkpt lat="44.549076" lon="34.268063">
<ele>125.598694</ele>
<time>2011-10-13T07:57:07Z</time>
<desc>lat.=44.549076, lon.=34.268063, Alt.=125.598694m. Speed=26.172001m/h.</desc>
<speed>7.270000</speed>
</trkpt>
<trkpt lat="44.548931" lon="34.267693">
<ele>122.268616</ele>
<time>2011-10-13T07:57:12Z</time>
<desc>lat.=44.548931, lon.=34.267693, Alt.=122.268616m. Speed=16.740000m/h.</desc>
<speed>4.650000</speed>
</trkpt>
<trkpt lat="44.548721" lon="34.267551">
<ele>118.106506</ele>
<time>2011-10-13T07:57:17Z</time>
<desc>lat.=44.548721, lon.=34.267551, Alt.=118.106506m. Speed=23.688000m/h.</desc>
<speed>6.580000</speed>
</trkpt>
<trkpt lat="44.548431" lon="34.267712">
<ele>112.559631</ele>
<time>2011-10-13T07:57:22Z</time>
<desc>lat.=44.548431, lon.=34.267712, Alt.=112.559631m. Speed=25.200001m/h.</desc>
<speed>7.000000</speed>
</trkpt>
<trkpt lat="44.548294" lon="34.268070">
<ele>110.557678</ele>
<time>2011-10-13T07:57:27Z</time>
<desc>lat.=44.548294, lon.=34.268070, Alt.=110.557678m. Speed=25.740000m/h.</desc>
<speed>7.150000</speed>
</trkpt>
<trkpt lat="44.548199" lon="34.268562">
<ele>105.690491</ele>
<time>2011-10-13T07:57:32Z</time>
<desc>lat.=44.548199, lon.=34.268562, Alt.=105.690491m. Speed=29.844000m/h.</desc>
<speed>8.290000</speed>
</trkpt>
<trkpt lat="44.548042" lon="34.269028">
<ele>102.364319</ele>
<time>2011-10-13T07:57:37Z</time>
<desc>lat.=44.548042, lon.=34.269028, Alt.=102.364319m. Speed=27.827999m/h.</desc>
<speed>7.730000</speed>
</trkpt>
<trkpt lat="44.547924" lon="34.269478">
<ele>98.657288</ele>
<time>2011-10-13T07:57:42Z</time>
<desc>lat.=44.547924, lon.=34.269478, Alt.=98.657288m. Speed=29.232000m/h.</desc>
<speed>8.120000</speed>
</trkpt>
<trkpt lat="44.547844" lon="34.270000">
<ele>95.303772</ele>
<time>2011-10-13T07:57:47Z</time>
<desc>lat.=44.547844, lon.=34.270000, Alt.=95.303772m. Speed=28.080000m/h.</desc>
<speed>7.800000</speed>
</trkpt>
<trkpt lat="44.547920" lon="34.270409">
<ele>93.729553</ele>
<time>2011-10-13T07:57:52Z</time>
<desc>lat.=44.547920, lon.=34.270409, Alt.=93.729553m. Speed=23.580000m/h.</desc>
<speed>6.550000</speed>
</trkpt>
<trkpt lat="44.547943" lon="34.270782">
<ele>90.768616</ele>
<time>2011-10-13T07:57:57Z</time>
<desc>lat.=44.547943, lon.=34.270782, Alt.=90.768616m. Speed=21.312000m/h.</desc>
<speed>5.920000</speed>
</trkpt>
<trkpt lat="44.547848" lon="34.271072">
<ele>87.987366</ele>
<time>2011-10-13T07:58:02Z</time>
<desc>lat.=44.547848, lon.=34.271072, Alt.=87.987366m. Speed=10.980000m/h.</desc>
<speed>3.050000</speed>
</trkpt>
<trkpt lat="44.547676" lon="34.270973">
<ele>87.700256</ele>
<time>2011-10-13T07:58:07Z</time>
<desc>lat.=44.547676, lon.=34.270973, Alt.=87.700256m. Speed=21.132000m/h.</desc>
<speed>5.870000</speed>
</trkpt>
<trkpt lat="44.547550" lon="34.270531">
<ele>85.108459</ele>
<time>2011-10-13T07:58:12Z</time>
<desc>lat.=44.547550, lon.=34.270531, Alt.=85.108459m. Speed=29.268000m/h.</desc>
<speed>8.130000</speed>
</trkpt>
<trkpt lat="44.547539" lon="34.270065">
<ele>84.176819</ele>
<time>2011-10-13T07:58:17Z</time>
<desc>lat.=44.547539, lon.=34.270065, Alt.=84.176819m. Speed=25.416000m/h.</desc>
<speed>7.060000</speed>
</trkpt>
<trkpt lat="44.547504" lon="34.269695">
<ele>81.579163</ele>
<time>2011-10-13T07:58:22Z</time>
<desc>lat.=44.547504, lon.=34.269695, Alt.=81.579163m. Speed=17.028000m/h.</desc>
<speed>4.730000</speed>
</trkpt>
<trkpt lat="44.547314" lon="34.269600">
<ele>81.866272</ele>
<time>2011-10-13T07:58:27Z</time>
<desc>lat.=44.547314, lon.=34.269600, Alt.=81.866272m. Speed=19.764000m/h.</desc>
<speed>5.490000</speed>
</trkpt>
<trkpt lat="44.547115" lon="34.269901">
<ele>79.053772</ele>
<time>2011-10-13T07:58:32Z</time>
<desc>lat.=44.547115, lon.=34.269901, Alt.=79.053772m. Speed=31.104000m/h.</desc>
<speed>8.640000</speed>
</trkpt>
<trkpt lat="44.546871" lon="34.270378">
<ele>74.639709</ele>
<time>2011-10-13T07:58:37Z</time>
<desc>lat.=44.546871, lon.=34.270378, Alt.=74.639709m. Speed=33.228001m/h.</desc>
<speed>9.230000</speed>
</trkpt>
<trkpt lat="44.546631" lon="34.270782">
<ele>70.575256</ele>
<time>2011-10-13T07:58:42Z</time>
<desc>lat.=44.546631, lon.=34.270782, Alt.=70.575256m. Speed=26.208000m/h.</desc>
<speed>7.280000</speed>
</trkpt>
<trkpt lat="44.546539" lon="34.271168">
<ele>68.208069</ele>
<time>2011-10-13T07:58:47Z</time>
<desc>lat.=44.546539, lon.=34.271168, Alt.=68.208069m. Speed=16.164000m/h.</desc>
<speed>4.490000</speed>
</trkpt>
<trkpt lat="44.546505" lon="34.271465">
<ele>63.953644</ele>
<time>2011-10-13T07:58:52Z</time>
<desc>lat.=44.546505, lon.=34.271465, Alt.=63.953644m. Speed=21.275999m/h.</desc>
<speed>5.910000</speed>
</trkpt>
<trkpt lat="44.546448" lon="34.271782">
<ele>60.935089</ele>
<time>2011-10-13T07:58:57Z</time>
<desc>lat.=44.546448, lon.=34.271782, Alt.=60.935089m. Speed=12.852000m/h.</desc>
<speed>3.570000</speed>
</trkpt>
<trkpt lat="44.546406" lon="34.271996">
<ele>57.535675</ele>
<time>2011-10-13T07:59:02Z</time>
<desc>lat.=44.546406, lon.=34.271996, Alt.=57.535675m. Speed=16.128000m/h.</desc>
<speed>4.480000</speed>
</trkpt>
<trkpt lat="44.546329" lon="34.272190">
<ele>53.870636</ele>
<time>2011-10-13T07:59:07Z</time>
<desc>lat.=44.546329, lon.=34.272190, Alt.=53.870636m. Speed=8.532000m/h.</desc>
<speed>2.370000</speed>
</trkpt>
<trkpt lat="44.546295" lon="34.272278">
<ele>49.561066</ele>
<time>2011-10-13T07:59:12Z</time>
<desc>lat.=44.546295, lon.=34.272278, Alt.=49.561066m. Speed=0.612000m/h.</desc>
<speed>0.170000</speed>
</trkpt>
<trkpt lat="44.546295" lon="34.272274">
<ele>48.862823</ele>
<time>2011-10-13T07:59:17Z</time>
<desc>lat.=44.546295, lon.=34.272274, Alt.=48.862823m. Speed=0.072000m/h.</desc>
<speed>0.020000</speed>
</trkpt>
<trkpt lat="44.546295" lon="34.272274">
<ele>48.638214</ele>
<time>2011-10-13T07:59:22Z</time>
<desc>lat.=44.546295, lon.=34.272274, Alt.=48.638214m. Speed=0.036000m/h.</desc>
<speed>0.010000</speed>
</trkpt>
<trkpt lat="44.546295" lon="34.272274">
<ele>48.614777</ele>
<time>2011-10-13T07:59:27Z</time>
<desc>lat.=44.546295, lon.=34.272274, Alt.=48.614777m. Speed=0.144000m/h.</desc>
<speed>0.040000</speed>
</trkpt>
<trkpt lat="44.546295" lon="34.272274">
<ele>48.614777</ele>
<time>2011-10-13T07:59:32Z</time>
<desc>lat.=44.546295, lon.=34.272274, Alt.=48.614777m. Speed=0.072000m/h.</desc>
<speed>0.020000</speed>
</trkpt>
<trkpt lat="44.546295" lon="34.272274">
<ele>48.718292</ele>
<time>2011-10-13T07:59:37Z</time>
<desc>lat.=44.546295, lon.=34.272274, Alt.=48.718292m. Speed=0.036000m/h.</desc>
<speed>0.010000</speed>
</trkpt>
<trkpt lat="44.546295" lon="34.272278">
<ele>49.010284</ele>
<time>2011-10-13T07:59:42Z</time>
<desc>lat.=44.546295, lon.=34.272278, Alt.=49.010284m. Speed=0.216000m/h.</desc>
<speed>0.060000</speed>
</trkpt>
<trkpt lat="44.546295" lon="34.272278">
<ele>49.135284</ele>
<time>2011-10-13T07:59:47Z</time>
<desc>lat.=44.546295, lon.=34.272278, Alt.=49.135284m. Speed=0.072000m/h.</desc>
<speed>0.020000</speed>
</trkpt>
<trkpt lat="44.546295" lon="34.272282">
<ele>49.152863</ele>
<time>2011-10-13T07:59:52Z</time>
<desc>lat.=44.546295, lon.=34.272282, Alt.=49.152863m. Speed=0.036000m/h.</desc>
<speed>0.010000</speed>
</trkpt>
<trkpt lat="44.546295" lon="34.272282">
<ele>49.190948</ele>
<time>2011-10-13T07:59:57Z</time>
<desc>lat.=44.546295, lon.=34.272282, Alt.=49.190948m. Speed=0.000000m/h.</desc>
<speed>0.000000</speed>
</trkpt>
<trkpt lat="44.546295" lon="34.272282">
<ele>49.231964</ele>
<time>2011-10-13T08:00:02Z</time>
<desc>lat.=44.546295, lon.=34.272282, Alt.=49.231964m. Speed=0.000000m/h.</desc>
<speed>0.000000</speed>
</trkpt>
<trkpt lat="44.546295" lon="34.272282">
<ele>49.253448</ele>
<time>2011-10-13T08:00:07Z</time>
<desc>lat.=44.546295, lon.=34.272282, Alt.=49.253448m. Speed=0.000000m/h.</desc>
<speed>0.000000</speed>
</trkpt>
<trkpt lat="44.546295" lon="34.272282">
<ele>49.266144</ele>
<time>2011-10-13T08:00:12Z</time>
<desc>lat.=44.546295, lon.=34.272282, Alt.=49.266144m. Speed=0.036000m/h.</desc>
<speed>0.010000</speed>
</trkpt>
<trkpt lat="44.546295" lon="34.272282">
<ele>49.287628</ele>
<time>2011-10-13T08:00:17Z</time>
<desc>lat.=44.546295, lon.=34.272282, Alt.=49.287628m. Speed=0.036000m/h.</desc>
<speed>0.010000</speed>
</trkpt>
<trkpt lat="44.546295" lon="34.272282">
<ele>49.313995</ele>
<time>2011-10-13T08:00:22Z</time>
<desc>lat.=44.546295, lon.=34.272282, Alt.=49.313995m. Speed=0.036000m/h.</desc>
<speed>0.010000</speed>
</trkpt>
<trkpt lat="44.546295" lon="34.272282">
<ele>49.331573</ele>
<time>2011-10-13T08:00:27Z</time>
<desc>lat.=44.546295, lon.=34.272282, Alt.=49.331573m. Speed=0.000000m/h.</desc>
<speed>0.000000</speed>
</trkpt>
<trkpt lat="44.546295" lon="34.272282">
<ele>49.353058</ele>
<time>2011-10-13T08:00:32Z</time>
<desc>lat.=44.546295, lon.=34.272282, Alt.=49.353058m. Speed=0.036000m/h.</desc>
<speed>0.010000</speed>
</trkpt>
<trkpt lat="44.546295" lon="34.272282">
<ele>49.369659</ele>
<time>2011-10-13T08:00:37Z</time>
<desc>lat.=44.546295, lon.=34.272282, Alt.=49.369659m. Speed=0.036000m/h.</desc>
<speed>0.010000</speed>
</trkpt>
<trkpt lat="44.546295" lon="34.272282">
<ele>49.373566</ele>
<time>2011-10-13T08:00:42Z</time>
<desc>lat.=44.546295, lon.=34.272282, Alt.=49.373566m. Speed=0.000000m/h.</desc>
<speed>0.000000</speed>
</trkpt>
<trkpt lat="44.546299" lon="34.272282">
<ele>49.376495</ele>
<time>2011-10-13T08:00:47Z</time>
<desc>lat.=44.546299, lon.=34.272282, Alt.=49.376495m. Speed=0.000000m/h.</desc>
<speed>0.000000</speed>
</trkpt>
<trkpt lat="44.546295" lon="34.272282">
<ele>49.385284</ele>
<time>2011-10-13T08:00:52Z</time>
<desc>lat.=44.546295, lon.=34.272282, Alt.=49.385284m. Speed=0.036000m/h.</desc>
<speed>0.010000</speed>
</trkpt>
<trkpt lat="44.546295" lon="34.272282">
<ele>49.393097</ele>
<time>2011-10-13T08:00:57Z</time>
<desc>lat.=44.546295, lon.=34.272282, Alt.=49.393097m. Speed=0.036000m/h.</desc>
<speed>0.010000</speed>
</trkpt>
<trkpt lat="44.546295" lon="34.272282">
<ele>49.404816</ele>
<time>2011-10-13T08:01:02Z</time>
<desc>lat.=44.546295, lon.=34.272282, Alt.=49.404816m. Speed=0.000000m/h.</desc>
<speed>0.000000</speed>
</trkpt>
<trkpt lat="44.546295" lon="34.272282">
<ele>49.420441</ele>
<time>2011-10-13T08:01:07Z</time>
<desc>lat.=44.546295, lon.=34.272282, Alt.=49.420441m. Speed=0.000000m/h.</desc>
<speed>0.000000</speed>
</trkpt>
<trkpt lat="44.546295" lon="34.272282">
<ele>49.449738</ele>
<time>2011-10-13T08:01:12Z</time>
<desc>lat.=44.546295, lon.=34.272282, Alt.=49.449738m. Speed=0.000000m/h.</desc>
<speed>0.000000</speed>
</trkpt>
<trkpt lat="44.546295" lon="34.272282">
<ele>49.473175</ele>
<time>2011-10-13T08:01:17Z</time>
<desc>lat.=44.546295, lon.=34.272282, Alt.=49.473175m. Speed=0.468000m/h.</desc>
<speed>0.130000</speed>
</trkpt>
<trkpt lat="44.546249" lon="34.272415">
<ele>49.409698</ele>
<time>2011-10-13T08:01:22Z</time>
<desc>lat.=44.546249, lon.=34.272415, Alt.=49.409698m. Speed=19.656000m/h.</desc>
<speed>5.460000</speed>
</trkpt>
<trkpt lat="44.545975" lon="34.272743">
<ele>44.937042</ele>
<time>2011-10-13T08:01:27Z</time>
<desc>lat.=44.545975, lon.=34.272743, Alt.=44.937042m. Speed=36.108002m/h.</desc>
<speed>10.030000</speed>
</trkpt>
<trkpt lat="44.545589" lon="34.273186">
<ele>39.666534</ele>
<time>2011-10-13T08:01:32Z</time>
<desc>lat.=44.545589, lon.=34.273186, Alt.=39.666534m. Speed=42.804001m/h.</desc>
<speed>11.890000</speed>
</trkpt>
<trkpt lat="44.545135" lon="34.273628">
<ele>36.536652</ele>
<time>2011-10-13T08:01:37Z</time>
<desc>lat.=44.545135, lon.=34.273628, Alt.=36.536652m. Speed=41.220001m/h.</desc>
<speed>11.450000</speed>
</trkpt>
<trkpt lat="44.544758" lon="34.274033">
<ele>33.991730</ele>
<time>2011-10-13T08:01:42Z</time>
<desc>lat.=44.544758, lon.=34.274033, Alt.=33.991730m. Speed=33.911999m/h.</desc>
<speed>9.420000</speed>
</trkpt>
<trkpt lat="44.544537" lon="34.274490">
<ele>31.886002</ele>
<time>2011-10-13T08:01:47Z</time>
<desc>lat.=44.544537, lon.=34.274490, Alt.=31.886002m. Speed=32.147999m/h.</desc>
<speed>8.930000</speed>
</trkpt>
<trkpt lat="44.544415" lon="34.274963">
<ele>29.986588</ele>
<time>2011-10-13T08:01:52Z</time>
<desc>lat.=44.544415, lon.=34.274963, Alt.=29.986588m. Speed=25.488001m/h.</desc>
<speed>7.080000</speed>
</trkpt>
<trkpt lat="44.544403" lon="34.275307">
<ele>28.173111</ele>
<time>2011-10-13T08:01:57Z</time>
<desc>lat.=44.544403, lon.=34.275307, Alt.=28.173111m. Speed=15.516000m/h.</desc>
<speed>4.310000</speed>
</trkpt>
<trkpt lat="44.544399" lon="34.275646">
<ele>26.896744</ele>
<time>2011-10-13T08:02:02Z</time>
<desc>lat.=44.544399, lon.=34.275646, Alt.=26.896744m. Speed=18.288000m/h.</desc>
<speed>5.080000</speed>
</trkpt>
<trkpt lat="44.544361" lon="34.275944">
<ele>26.676529</ele>
<time>2011-10-13T08:02:07Z</time>
<desc>lat.=44.544361, lon.=34.275944, Alt.=26.676529m. Speed=12.960000m/h.</desc>
<speed>3.600000</speed>
</trkpt>
<trkpt lat="44.544285" lon="34.276222">
<ele>24.425552</ele>
<time>2011-10-13T08:02:12Z</time>
<desc>lat.=44.544285, lon.=34.276222, Alt.=24.425552m. Speed=12.132000m/h.</desc>
<speed>3.370000</speed>
</trkpt>
<trkpt lat="44.544235" lon="34.276436">
<ele>23.719009</ele>
<time>2011-10-13T08:02:17Z</time>
<desc>lat.=44.544235, lon.=34.276436, Alt.=23.719009m. Speed=11.484000m/h.</desc>
<speed>3.190000</speed>
</trkpt>
<trkpt lat="44.544193" lon="34.276745">
<ele>23.475845</ele>
<time>2011-10-13T08:02:22Z</time>
<desc>lat.=44.544193, lon.=34.276745, Alt.=23.475845m. Speed=18.576000m/h.</desc>
<speed>5.160000</speed>
</trkpt>
<trkpt lat="44.544140" lon="34.277096">
<ele>23.434830</ele>
<time>2011-10-13T08:02:27Z</time>
<desc>lat.=44.544140, lon.=34.277096, Alt.=23.434830m. Speed=19.799999m/h.</desc>
<speed>5.500000</speed>
</trkpt>
<trkpt lat="44.544052" lon="34.277431">
<ele>23.476822</ele>
<time>2011-10-13T08:02:32Z</time>
<desc>lat.=44.544052, lon.=34.277431, Alt.=23.476822m. Speed=18.864000m/h.</desc>
<speed>5.240000</speed>
</trkpt>
<trkpt lat="44.543945" lon="34.277725">
<ele>23.703873</ele>
<time>2011-10-13T08:02:37Z</time>
<desc>lat.=44.543945, lon.=34.277725, Alt.=23.703873m. Speed=17.639999m/h.</desc>
<speed>4.900000</speed>
</trkpt>
<trkpt lat="44.543865" lon="34.277988">
<ele>24.162857</ele>
<time>2011-10-13T08:02:42Z</time>
<desc>lat.=44.543865, lon.=34.277988, Alt.=24.162857m. Speed=14.832000m/h.</desc>
<speed>4.120000</speed>
</trkpt>
<trkpt lat="44.543816" lon="34.278217">
<ele>24.705338</ele>
<time>2011-10-13T08:02:47Z</time>
<desc>lat.=44.543816, lon.=34.278217, Alt.=24.705338m. Speed=8.388000m/h.</desc>
<speed>2.330000</speed>
</trkpt>
<trkpt lat="44.543678" lon="34.278423">
<ele>25.275650</ele>
<time>2011-10-13T08:02:52Z</time>
<desc>lat.=44.543678, lon.=34.278423, Alt.=25.275650m. Speed=12.204000m/h.</desc>
<speed>3.390000</speed>
</trkpt>
<trkpt lat="44.543556" lon="34.278606">
<ele>25.615982</ele>
<time>2011-10-13T08:02:57Z</time>
<desc>lat.=44.543556, lon.=34.278606, Alt.=25.615982m. Speed=13.464000m/h.</desc>
<speed>3.740000</speed>
</trkpt>
<trkpt lat="44.543423" lon="34.278790">
<ele>26.400650</ele>
<time>2011-10-13T08:03:02Z</time>
<desc>lat.=44.543423, lon.=34.278790, Alt.=26.400650m. Speed=14.940000m/h.</desc>
<speed>4.150000</speed>
</trkpt>
<trkpt lat="44.543304" lon="34.278984">
<ele>27.359634</ele>
<time>2011-10-13T08:03:07Z</time>
<desc>lat.=44.543304, lon.=34.278984, Alt.=27.359634m. Speed=14.220000m/h.</desc>
<speed>3.950000</speed>
</trkpt>
<trkpt lat="44.543209" lon="34.279076">
<ele>27.943130</ele>
<time>2011-10-13T08:03:12Z</time>
<desc>lat.=44.543209, lon.=34.279076, Alt.=27.943130m. Speed=3.492000m/h.</desc>
<speed>0.970000</speed>
</trkpt>
<trkpt lat="44.543152" lon="34.279137">
<ele>28.538834</ele>
<time>2011-10-13T08:03:17Z</time>
<desc>lat.=44.543152, lon.=34.279137, Alt.=28.538834m. Speed=5.580000m/h.</desc>
<speed>1.550000</speed>
</trkpt>
<trkpt lat="44.543087" lon="34.279202">
<ele>27.795670</ele>
<time>2011-10-13T08:03:22Z</time>
<desc>lat.=44.543087, lon.=34.279202, Alt.=27.795670m. Speed=1.764000m/h.</desc>
<speed>0.490000</speed>
</trkpt>
<trkpt lat="44.543087" lon="34.279209">
<ele>27.432388</ele>
<time>2011-10-13T08:03:27Z</time>
<desc>lat.=44.543087, lon.=34.279209, Alt.=27.432388m. Speed=0.000000m/h.</desc>
<speed>0.000000</speed>
</trkpt>
<trkpt lat="44.543087" lon="34.279209">
<ele>27.438736</ele>
<time>2011-10-13T08:03:32Z</time>
<desc>lat.=44.543087, lon.=34.279209, Alt.=27.438736m. Speed=0.360000m/h.</desc>
<speed>0.100000</speed>
</trkpt>
<trkpt lat="44.543087" lon="34.279209">
<ele>27.505142</ele>
<time>2011-10-13T08:03:37Z</time>
<desc>lat.=44.543087, lon.=34.279209, Alt.=27.505142m. Speed=0.036000m/h.</desc>
<speed>0.010000</speed>
</trkpt>
<trkpt lat="44.543087" lon="34.279213">
<ele>27.495377</ele>
<time>2011-10-13T08:03:42Z</time>
<desc>lat.=44.543087, lon.=34.279213, Alt.=27.495377m. Speed=0.072000m/h.</desc>
<speed>0.020000</speed>
</trkpt>
<trkpt lat="44.543087" lon="34.279213">
<ele>27.557877</ele>
<time>2011-10-13T08:03:47Z</time>
<desc>lat.=44.543087, lon.=34.279213, Alt.=27.557877m. Speed=0.036000m/h.</desc>
<speed>0.010000</speed>
</trkpt>
<trkpt lat="44.543087" lon="34.279213">
<ele>27.596451</ele>
<time>2011-10-13T08:03:52Z</time>
<desc>lat.=44.543087, lon.=34.279213, Alt.=27.596451m. Speed=0.108000m/h.</desc>
<speed>0.030000</speed>
</trkpt>
<trkpt lat="44.543087" lon="34.279213">
<ele>27.654068</ele>
<time>2011-10-13T08:03:57Z</time>
<desc>lat.=44.543087, lon.=34.279213, Alt.=27.654068m. Speed=0.000000m/h.</desc>
<speed>0.000000</speed>
</trkpt>
<trkpt lat="44.543087" lon="34.279213">
<ele>27.633560</ele>
<time>2011-10-13T08:04:02Z</time>
<desc>lat.=44.543087, lon.=34.279213, Alt.=27.633560m. Speed=0.036000m/h.</desc>
<speed>0.010000</speed>
</trkpt>
<trkpt lat="44.543087" lon="34.279213">
<ele>27.647720</ele>
<time>2011-10-13T08:04:07Z</time>
<desc>lat.=44.543087, lon.=34.279213, Alt.=27.647720m. Speed=0.360000m/h.</desc>
<speed>0.100000</speed>
</trkpt>
<trkpt lat="44.543087" lon="34.279217">
<ele>27.613541</ele>
<time>2011-10-13T08:04:12Z</time>
<desc>lat.=44.543087, lon.=34.279217, Alt.=27.613541m. Speed=0.000000m/h.</desc>
<speed>0.000000</speed>
</trkpt>
<trkpt lat="44.543087" lon="34.279217">
<ele>27.621841</ele>
<time>2011-10-13T08:04:17Z</time>
<desc>lat.=44.543087, lon.=34.279217, Alt.=27.621841m. Speed=0.036000m/h.</desc>
<speed>0.010000</speed>
</trkpt>
<trkpt lat="44.543091" lon="34.279217">
<ele>27.604263</ele>
<time>2011-10-13T08:04:22Z</time>
<desc>lat.=44.543091, lon.=34.279217, Alt.=27.604263m. Speed=0.288000m/h.</desc>
<speed>0.080000</speed>
</trkpt>
<trkpt lat="44.543098" lon="34.279232">
<ele>27.483170</ele>
<time>2011-10-13T08:04:27Z</time>
<desc>lat.=44.543098, lon.=34.279232, Alt.=27.483170m. Speed=0.360000m/h.</desc>
<speed>0.100000</speed>
</trkpt>
<trkpt lat="44.543098" lon="34.279247">
<ele>27.140884</ele>
<time>2011-10-13T08:04:32Z</time>
<desc>lat.=44.543098, lon.=34.279247, Alt.=27.140884m. Speed=3.816000m/h.</desc>
<speed>1.060000</speed>
</trkpt>
<trkpt lat="44.543121" lon="34.279373">
<ele>27.049088</ele>
<time>2011-10-13T08:04:37Z</time>
<desc>lat.=44.543121, lon.=34.279373, Alt.=27.049088m. Speed=13.572000m/h.</desc>
<speed>3.770000</speed>
</trkpt>
<trkpt lat="44.543114" lon="34.279514">
<ele>26.813736</ele>
<time>2011-10-13T08:04:42Z</time>
<desc>lat.=44.543114, lon.=34.279514, Alt.=26.813736m. Speed=5.292000m/h.</desc>
<speed>1.470000</speed>
</trkpt>
<trkpt lat="44.543053" lon="34.279545">
<ele>26.174576</ele>
<time>2011-10-13T08:04:47Z</time>
<desc>lat.=44.543053, lon.=34.279545, Alt.=26.174576m. Speed=8.532000m/h.</desc>
<speed>2.370000</speed>
</trkpt>
<trkpt lat="44.542950" lon="34.279446">
<ele>24.437271</ele>
<time>2011-10-13T08:04:52Z</time>
<desc>lat.=44.542950, lon.=34.279446, Alt.=24.437271m. Speed=11.448000m/h.</desc>
<speed>3.180000</speed>
</trkpt>
<trkpt lat="44.542866" lon="34.279259">
<ele>22.519791</ele>
<time>2011-10-13T08:04:57Z</time>
<desc>lat.=44.542866, lon.=34.279259, Alt.=22.519791m. Speed=11.268000m/h.</desc>
<speed>3.130000</speed>
</trkpt>
<trkpt lat="44.542782" lon="34.279125">
<ele>20.478287</ele>
<time>2011-10-13T08:05:02Z</time>
<desc>lat.=44.542782, lon.=34.279125, Alt.=20.478287m. Speed=5.472000m/h.</desc>
<speed>1.520000</speed>
</trkpt>
<trkpt lat="44.542732" lon="34.279102">
<ele>19.287857</ele>
<time>2011-10-13T08:05:07Z</time>
<desc>lat.=44.542732, lon.=34.279102, Alt.=19.287857m. Speed=5.868000m/h.</desc>
<speed>1.630000</speed>
</trkpt>
<trkpt lat="44.542648" lon="34.279247">
<ele>17.436295</ele>
<time>2011-10-13T08:05:12Z</time>
<desc>lat.=44.542648, lon.=34.279247, Alt.=17.436295m. Speed=17.280001m/h.</desc>
<speed>4.800000</speed>
</trkpt>
<trkpt lat="44.542553" lon="34.279423">
<ele>15.918587</ele>
<time>2011-10-13T08:05:17Z</time>
<desc>lat.=44.542553, lon.=34.279423, Alt.=15.918587m. Speed=7.956000m/h.</desc>
<speed>2.210000</speed>
</trkpt>
<trkpt lat="44.542435" lon="34.279308">
<ele>13.917854</ele>
<time>2011-10-13T08:05:22Z</time>
<desc>lat.=44.542435, lon.=34.279308, Alt.=13.917854m. Speed=20.016001m/h.</desc>
<speed>5.560000</speed>
</trkpt>
<trkpt lat="44.542206" lon="34.279034">
<ele>11.209846</ele>
<time>2011-10-13T08:05:27Z</time>
<desc>lat.=44.542206, lon.=34.279034, Alt.=11.209846m. Speed=28.007999m/h.</desc>
<speed>7.780000</speed>
</trkpt>
<trkpt lat="44.541870" lon="34.278801">
<ele>8.999153</ele>
<time>2011-10-13T08:05:32Z</time>
<desc>lat.=44.541870, lon.=34.278801, Alt.=8.999153m. Speed=24.011999m/h.</desc>
<speed>6.670000</speed>
</trkpt>
<trkpt lat="44.541615" lon="34.278347">
<ele>8.764046</ele>
<time>2011-10-13T08:05:37Z</time>
<desc>lat.=44.541615, lon.=34.278347, Alt.=8.764046m. Speed=27.900000m/h.</desc>
<speed>7.750000</speed>
</trkpt>
<trkpt lat="44.541397" lon="34.278111">
<ele>6.858341</ele>
<time>2011-10-13T08:05:42Z</time>
<desc>lat.=44.541397, lon.=34.278111, Alt.=6.858341m. Speed=11.808000m/h.</desc>
<speed>3.280000</speed>
</trkpt>
<trkpt lat="44.541290" lon="34.277935">
<ele>4.717960</ele>
<time>2011-10-13T08:05:47Z</time>
<desc>lat.=44.541290, lon.=34.277935, Alt.=4.717960m. Speed=16.632000m/h.</desc>
<speed>4.620000</speed>
</trkpt>
<trkpt lat="44.541107" lon="34.277542">
<ele>2.815035</ele>
<time>2011-10-13T08:05:52Z</time>
<desc>lat.=44.541107, lon.=34.277542, Alt.=2.815035m. Speed=25.236000m/h.</desc>
<speed>7.010000</speed>
</trkpt>
<trkpt lat="44.540905" lon="34.277172">
<ele>-0.855523</ele>
<time>2011-10-13T08:05:57Z</time>
<desc>lat.=44.540905, lon.=34.277172, Alt.=-0.855523m. Speed=26.459999m/h.</desc>
<speed>7.350000</speed>
</trkpt>
<trkpt lat="44.540638" lon="34.276810">
<ele>-1.829972</ele>
<time>2011-10-13T08:06:02Z</time>
<desc>lat.=44.540638, lon.=34.276810, Alt.=-1.829972m. Speed=29.232000m/h.</desc>
<speed>8.120000</speed>
</trkpt>
<trkpt lat="44.540398" lon="34.276459">
<ele>-3.088961</ele>
<time>2011-10-13T08:06:07Z</time>
<desc>lat.=44.540398, lon.=34.276459, Alt.=-3.088961m. Speed=25.740000m/h.</desc>
<speed>7.150000</speed>
</trkpt>
<trkpt lat="44.540150" lon="34.276173">
<ele>-1.282365</ele>
<time>2011-10-13T08:06:12Z</time>
<desc>lat.=44.540150, lon.=34.276173, Alt.=-1.282365m. Speed=26.136000m/h.</desc>
<speed>7.260000</speed>
</trkpt>
<trkpt lat="44.539875" lon="34.275871">
<ele>1.025437</ele>
<time>2011-10-13T08:06:17Z</time>
<desc>lat.=44.539875, lon.=34.275871, Alt.=1.025437m. Speed=30.743999m/h.</desc>
<speed>8.540000</speed>
</trkpt>
<trkpt lat="44.539539" lon="34.275631">
<ele>4.522282</ele>
<time>2011-10-13T08:06:22Z</time>
<desc>lat.=44.539539, lon.=34.275631, Alt.=4.522282m. Speed=29.087999m/h.</desc>
<speed>8.080000</speed>
</trkpt>
<trkpt lat="44.539169" lon="34.275398">
<ele>6.978214</ele>
<time>2011-10-13T08:06:27Z</time>
<desc>lat.=44.539169, lon.=34.275398, Alt.=6.978214m. Speed=30.708000m/h.</desc>
<speed>8.530000</speed>
</trkpt>
<trkpt lat="44.538864" lon="34.275223">
<ele>7.197086</ele>
<time>2011-10-13T08:06:32Z</time>
<desc>lat.=44.538864, lon.=34.275223, Alt.=7.197086m. Speed=25.091999m/h.</desc>
<speed>6.970000</speed>
</trkpt>
<trkpt lat="44.538563" lon="34.275047">
<ele>8.190804</ele>
<time>2011-10-13T08:06:37Z</time>
<desc>lat.=44.538563, lon.=34.275047, Alt.=8.190804m. Speed=28.080000m/h.</desc>
<speed>7.800000</speed>
</trkpt>
<trkpt lat="44.538204" lon="34.274891">
<ele>8.920784</ele>
<time>2011-10-13T08:06:42Z</time>
<desc>lat.=44.538204, lon.=34.274891, Alt.=8.920784m. Speed=29.160000m/h.</desc>
<speed>8.100000</speed>
</trkpt>
<trkpt lat="44.537880" lon="34.274776">
<ele>9.019417</ele>
<time>2011-10-13T08:06:47Z</time>
<desc>lat.=44.537880, lon.=34.274776, Alt.=9.019417m. Speed=25.416000m/h.</desc>
<speed>7.060000</speed>
</trkpt>
<trkpt lat="44.537548" lon="34.274677">
<ele>8.460091</ele>
<time>2011-10-13T08:06:52Z</time>
<desc>lat.=44.537548, lon.=34.274677, Alt.=8.460091m. Speed=26.172001m/h.</desc>
<speed>7.270000</speed>
</trkpt>
<trkpt lat="44.537254" lon="34.274536">
<ele>8.144661</ele>
<time>2011-10-13T08:06:57Z</time>
<desc>lat.=44.537254, lon.=34.274536, Alt.=8.144661m. Speed=23.472000m/h.</desc>
<speed>6.520000</speed>
</trkpt>
<trkpt lat="44.536991" lon="34.274426">
<ele>8.266243</ele>
<time>2011-10-13T08:07:02Z</time>
<desc>lat.=44.536991, lon.=34.274426, Alt.=8.266243m. Speed=20.879999m/h.</desc>
<speed>5.800000</speed>
</trkpt>
<trkpt lat="44.536827" lon="34.274254">
<ele>8.835335</ele>
<time>2011-10-13T08:07:07Z</time>
<desc>lat.=44.536827, lon.=34.274254, Alt.=8.835335m. Speed=15.264000m/h.</desc>
<speed>4.240000</speed>
</trkpt>
<trkpt lat="44.536854" lon="34.274017">
<ele>11.052132</ele>
<time>2011-10-13T08:07:12Z</time>
<desc>lat.=44.536854, lon.=34.274017, Alt.=11.052132m. Speed=14.112000m/h.</desc>
<speed>3.920000</speed>
</trkpt>
<trkpt lat="44.536892" lon="34.273903">
<ele>12.568001</ele>
<time>2011-10-13T08:07:17Z</time>
<desc>lat.=44.536892, lon.=34.273903, Alt.=12.568001m. Speed=3.204000m/h.</desc>
<speed>0.890000</speed>
</trkpt>
<trkpt lat="44.536907" lon="34.273895">
<ele>14.236214</ele>
<time>2011-10-13T08:07:22Z</time>
<desc>lat.=44.536907, lon.=34.273895, Alt.=14.236214m. Speed=1.116000m/h.</desc>
<speed>0.310000</speed>
</trkpt>
<trkpt lat="44.536926" lon="34.273899">
<ele>15.673958</ele>
<time>2011-10-13T08:07:27Z</time>
<desc>lat.=44.536926, lon.=34.273899, Alt.=15.673958m. Speed=4.104000m/h.</desc>
<speed>1.140000</speed>
</trkpt>
<trkpt lat="44.536942" lon="34.273891">
<ele>16.425552</ele>
<time>2011-10-13T08:07:32Z</time>
<desc>lat.=44.536942, lon.=34.273891, Alt.=16.425552m. Speed=0.360000m/h.</desc>
<speed>0.100000</speed>
</trkpt>
<trkpt lat="44.536945" lon="34.273899">
<ele>16.275162</ele>
<time>2011-10-13T08:07:37Z</time>
<desc>lat.=44.536945, lon.=34.273899, Alt.=16.275162m. Speed=0.036000m/h.</desc>
<speed>0.010000</speed>
</trkpt>
<trkpt lat="44.536945" lon="34.273899">
<ele>16.493912</ele>
<time>2011-10-13T08:07:42Z</time>
<desc>lat.=44.536945, lon.=34.273899, Alt.=16.493912m. Speed=0.108000m/h.</desc>
<speed>0.030000</speed>
</trkpt>
<trkpt lat="44.536942" lon="34.273899">
<ele>16.711197</ele>
<time>2011-10-13T08:07:47Z</time>
<desc>lat.=44.536942, lon.=34.273899, Alt.=16.711197m. Speed=0.180000m/h.</desc>
<speed>0.050000</speed>
</trkpt>
<trkpt lat="44.536938" lon="34.273899">
<ele>16.808365</ele>
<time>2011-10-13T08:07:52Z</time>
<desc>lat.=44.536938, lon.=34.273899, Alt.=16.808365m. Speed=0.360000m/h.</desc>
<speed>0.100000</speed>
</trkpt>
<trkpt lat="44.536930" lon="34.273903">
<ele>16.855240</ele>
<time>2011-10-13T08:07:57Z</time>
<desc>lat.=44.536930, lon.=34.273903, Alt.=16.855240m. Speed=0.216000m/h.</desc>
<speed>0.060000</speed>
</trkpt>
<trkpt lat="44.536922" lon="34.273903">
<ele>16.882095</ele>
<time>2011-10-13T08:08:02Z</time>
<desc>lat.=44.536922, lon.=34.273903, Alt.=16.882095m. Speed=0.540000m/h.</desc>
<speed>0.150000</speed>
</trkpt>
<trkpt lat="44.536915" lon="34.273903">
<ele>16.933365</ele>
<time>2011-10-13T08:08:07Z</time>
<desc>lat.=44.536915, lon.=34.273903, Alt.=16.933365m. Speed=0.504000m/h.</desc>
<speed>0.140000</speed>
</trkpt>
<trkpt lat="44.536911" lon="34.273903">
<ele>16.971451</ele>
<time>2011-10-13T08:08:12Z</time>
<desc>lat.=44.536911, lon.=34.273903, Alt.=16.971451m. Speed=0.216000m/h.</desc>
<speed>0.060000</speed>
</trkpt>
<trkpt lat="44.536907" lon="34.273903">
<ele>17.031021</ele>
<time>2011-10-13T08:08:17Z</time>
<desc>lat.=44.536907, lon.=34.273903, Alt.=17.031021m. Speed=0.468000m/h.</desc>
<speed>0.130000</speed>
</trkpt>
<trkpt lat="44.536907" lon="34.273903">
<ele>17.052505</ele>
<time>2011-10-13T08:08:22Z</time>
<desc>lat.=44.536907, lon.=34.273903, Alt.=17.052505m. Speed=0.036000m/h.</desc>
<speed>0.010000</speed>
</trkpt>
<trkpt lat="44.536907" lon="34.273903">
<ele>17.083267</ele>
<time>2011-10-13T08:08:27Z</time>
<desc>lat.=44.536907, lon.=34.273903, Alt.=17.083267m. Speed=0.000000m/h.</desc>
<speed>0.000000</speed>
</trkpt>
<trkpt lat="44.536907" lon="34.273903">
<ele>17.129166</ele>
<time>2011-10-13T08:08:32Z</time>
<desc>lat.=44.536907, lon.=34.273903, Alt.=17.129166m. Speed=0.036000m/h.</desc>
<speed>0.010000</speed>
</trkpt>
<trkpt lat="44.536907" lon="34.273903">
<ele>17.132095</ele>
<time>2011-10-13T08:08:37Z</time>
<desc>lat.=44.536907, lon.=34.273903, Alt.=17.132095m. Speed=0.000000m/h.</desc>
<speed>0.000000</speed>
</trkpt>
<trkpt lat="44.536907" lon="34.273903">
<ele>17.140396</ele>
<time>2011-10-13T08:08:42Z</time>
<desc>lat.=44.536907, lon.=34.273903, Alt.=17.140396m. Speed=0.000000m/h.</desc>
<speed>0.000000</speed>
</trkpt>
<trkpt lat="44.536907" lon="34.273903">
<ele>17.155533</ele>
<time>2011-10-13T08:08:47Z</time>
<desc>lat.=44.536907, lon.=34.273903, Alt.=17.155533m. Speed=0.000000m/h.</desc>
<speed>0.000000</speed>
</trkpt>
<trkpt lat="44.536907" lon="34.273903">
<ele>17.183853</ele>
<time>2011-10-13T08:08:52Z</time>
<desc>lat.=44.536907, lon.=34.273903, Alt.=17.183853m. Speed=0.036000m/h.</desc>
<speed>0.010000</speed>
</trkpt>
<trkpt lat="44.536907" lon="34.273903">
<ele>17.201920</ele>
<time>2011-10-13T08:08:57Z</time>
<desc>lat.=44.536907, lon.=34.273903, Alt.=17.201920m. Speed=0.000000m/h.</desc>
<speed>0.000000</speed>
</trkpt>
<trkpt lat="44.536907" lon="34.273903">
<ele>17.214615</ele>
<time>2011-10-13T08:09:02Z</time>
<desc>lat.=44.536907, lon.=34.273903, Alt.=17.214615m. Speed=0.000000m/h.</desc>
<speed>0.000000</speed>
</trkpt>
<trkpt lat="44.536907" lon="34.273903">
<ele>17.215591</ele>
<time>2011-10-13T08:09:07Z</time>
<desc>lat.=44.536907, lon.=34.273903, Alt.=17.215591m. Speed=0.000000m/h.</desc>
<speed>0.000000</speed>
</trkpt>
<trkpt lat="44.536907" lon="34.273903">
<ele>17.225845</ele>
<time>2011-10-13T08:09:12Z</time>
<desc>lat.=44.536907, lon.=34.273903, Alt.=17.225845m. Speed=0.000000m/h.</desc>
<speed>0.000000</speed>
</trkpt>
<trkpt lat="44.536907" lon="34.273903">
<ele>17.231705</ele>
<time>2011-10-13T08:09:17Z</time>
<desc>lat.=44.536907, lon.=34.273903, Alt.=17.231705m. Speed=0.036000m/h.</desc>
<speed>0.010000</speed>
</trkpt>
<trkpt lat="44.536907" lon="34.273903">
<ele>17.230728</ele>
<time>2011-10-13T08:09:22Z</time>
<desc>lat.=44.536907, lon.=34.273903, Alt.=17.230728m. Speed=0.036000m/h.</desc>
<speed>0.010000</speed>
</trkpt>
<trkpt lat="44.536907" lon="34.273903">
<ele>17.223404</ele>
<time>2011-10-13T08:09:27Z</time>
<desc>lat.=44.536907, lon.=34.273903, Alt.=17.223404m. Speed=0.036000m/h.</desc>
<speed>0.010000</speed>
</trkpt>
<trkpt lat="44.536907" lon="34.273903">
<ele>17.207291</ele>
<time>2011-10-13T08:09:32Z</time>
<desc>lat.=44.536907, lon.=34.273903, Alt.=17.207291m. Speed=0.000000m/h.</desc>
<speed>0.000000</speed>
</trkpt>
<trkpt lat="44.536907" lon="34.273903">
<ele>17.196548</ele>
<time>2011-10-13T08:09:37Z</time>
<desc>lat.=44.536907, lon.=34.273903, Alt.=17.196548m. Speed=0.000000m/h.</desc>
<speed>0.000000</speed>
</trkpt>
<trkpt lat="44.536907" lon="34.273903">
<ele>17.201920</ele>
<time>2011-10-13T08:09:42Z</time>
<desc>lat.=44.536907, lon.=34.273903, Alt.=17.201920m. Speed=0.000000m/h.</desc>
<speed>0.000000</speed>
</trkpt>
<trkpt lat="44.536907" lon="34.273903">
<ele>17.207779</ele>
<time>2011-10-13T08:09:47Z</time>
<desc>lat.=44.536907, lon.=34.273903, Alt.=17.207779m. Speed=0.000000m/h.</desc>
<speed>0.000000</speed>
</trkpt>
<trkpt lat="44.536907" lon="34.273903">
<ele>17.214127</ele>
<time>2011-10-13T08:09:52Z</time>
<desc>lat.=44.536907, lon.=34.273903, Alt.=17.214127m. Speed=0.000000m/h.</desc>
<speed>0.000000</speed>
</trkpt>
<trkpt lat="44.536907" lon="34.273903">
<ele>17.206802</ele>
<time>2011-10-13T08:09:57Z</time>
<desc>lat.=44.536907, lon.=34.273903, Alt.=17.206802m. Speed=0.000000m/h.</desc>
<speed>0.000000</speed>
</trkpt>
<trkpt lat="44.536907" lon="34.273903">
<ele>17.207779</ele>
<time>2011-10-13T08:10:02Z</time>
<desc>lat.=44.536907, lon.=34.273903, Alt.=17.207779m. Speed=0.000000m/h.</desc>
<speed>0.000000</speed>
</trkpt>
<trkpt lat="44.536907" lon="34.273903">
<ele>17.197525</ele>
<time>2011-10-13T08:10:07Z</time>
<desc>lat.=44.536907, lon.=34.273903, Alt.=17.197525m. Speed=0.000000m/h.</desc>
<speed>0.000000</speed>
</trkpt>
<trkpt lat="44.536907" lon="34.273903">
<ele>17.184341</ele>
<time>2011-10-13T08:10:12Z</time>
<desc>lat.=44.536907, lon.=34.273903, Alt.=17.184341m. Speed=0.000000m/h.</desc>
<speed>0.000000</speed>
</trkpt>
<trkpt lat="44.536907" lon="34.273903">
<ele>17.162857</ele>
<time>2011-10-13T08:10:17Z</time>
<desc>lat.=44.536907, lon.=34.273903, Alt.=17.162857m. Speed=0.036000m/h.</desc>
<speed>0.010000</speed>
</trkpt>
<trkpt lat="44.536907" lon="34.273903">
<ele>17.152603</ele>
<time>2011-10-13T08:10:22Z</time>
<desc>lat.=44.536907, lon.=34.273903, Alt.=17.152603m. Speed=0.036000m/h.</desc>
<speed>0.010000</speed>
</trkpt>
<trkpt lat="44.536907" lon="34.273903">
<ele>17.157974</ele>
<time>2011-10-13T08:10:27Z</time>
<desc>lat.=44.536907, lon.=34.273903, Alt.=17.157974m. Speed=0.072000m/h.</desc>
<speed>0.020000</speed>
</trkpt>
<trkpt lat="44.536907" lon="34.273907">
<ele>17.164810</ele>
<time>2011-10-13T08:10:32Z</time>
<desc>lat.=44.536907, lon.=34.273907, Alt.=17.164810m. Speed=0.144000m/h.</desc>
<speed>0.040000</speed>
</trkpt>
<trkpt lat="44.536907" lon="34.273907">
<ele>17.178482</ele>
<time>2011-10-13T08:10:37Z</time>
<desc>lat.=44.536907, lon.=34.273907, Alt.=17.178482m. Speed=0.036000m/h.</desc>
<speed>0.010000</speed>
</trkpt>
<trkpt lat="44.536911" lon="34.273907">
<ele>17.194595</ele>
<time>2011-10-13T08:10:42Z</time>
<desc>lat.=44.536911, lon.=34.273907, Alt.=17.194595m. Speed=0.000000m/h.</desc>
<speed>0.000000</speed>
</trkpt>
<trkpt lat="44.536911" lon="34.273907">
<ele>17.239029</ele>
<time>2011-10-13T08:10:47Z</time>
<desc>lat.=44.536911, lon.=34.273907, Alt.=17.239029m. Speed=0.036000m/h.</desc>
<speed>0.010000</speed>
</trkpt>
<trkpt lat="44.536911" lon="34.273907">
<ele>17.281021</ele>
<time>2011-10-13T08:10:52Z</time>
<desc>lat.=44.536911, lon.=34.273907, Alt.=17.281021m. Speed=0.000000m/h.</desc>
<speed>0.000000</speed>
</trkpt>
<trkpt lat="44.536911" lon="34.273907">
<ele>17.310318</ele>
<time>2011-10-13T08:10:57Z</time>
<desc>lat.=44.536911, lon.=34.273907, Alt.=17.310318m. Speed=0.000000m/h.</desc>
<speed>0.000000</speed>
</trkpt>
<trkpt lat="44.536911" lon="34.273907">
<ele>17.351334</ele>
<time>2011-10-13T08:11:02Z</time>
<desc>lat.=44.536911, lon.=34.273907, Alt.=17.351334m. Speed=0.000000m/h.</desc>
<speed>0.000000</speed>
</trkpt>
<trkpt lat="44.536911" lon="34.273907">
<ele>17.385513</ele>
<time>2011-10-13T08:11:07Z</time>
<desc>lat.=44.536911, lon.=34.273907, Alt.=17.385513m. Speed=0.000000m/h.</desc>
<speed>0.000000</speed>
</trkpt>
<trkpt lat="44.536911" lon="34.273907">
<ele>17.415787</ele>
<time>2011-10-13T08:11:12Z</time>
<desc>lat.=44.536911, lon.=34.273907, Alt.=17.415787m. Speed=0.036000m/h.</desc>
<speed>0.010000</speed>
</trkpt>
<trkpt lat="44.536911" lon="34.273907">
<ele>17.470963</ele>
<time>2011-10-13T08:11:17Z</time>
<desc>lat.=44.536911, lon.=34.273907, Alt.=17.470963m. Speed=0.108000m/h.</desc>
<speed>0.030000</speed>
</trkpt>
<trkpt lat="44.536911" lon="34.273907">
<ele>17.509048</ele>
<time>2011-10-13T08:11:22Z</time>
<desc>lat.=44.536911, lon.=34.273907, Alt.=17.509048m. Speed=0.072000m/h.</desc>
<speed>0.020000</speed>
</trkpt>
<trkpt lat="44.536911" lon="34.273907">
<ele>17.541763</ele>
<time>2011-10-13T08:11:27Z</time>
<desc>lat.=44.536911, lon.=34.273907, Alt.=17.541763m. Speed=0.036000m/h.</desc>
<speed>0.010000</speed>
</trkpt>
<trkpt lat="44.536907" lon="34.273907">
<ele>17.569595</ele>
<time>2011-10-13T08:11:32Z</time>
<desc>lat.=44.536907, lon.=34.273907, Alt.=17.569595m. Speed=0.000000m/h.</desc>
<speed>0.000000</speed>
</trkpt>
<trkpt lat="44.536907" lon="34.273907">
<ele>17.614517</ele>
<time>2011-10-13T08:11:37Z</time>
<desc>lat.=44.536907, lon.=34.273907, Alt.=17.614517m. Speed=0.000000m/h.</desc>
<speed>0.000000</speed>
</trkpt>
<trkpt lat="44.536907" lon="34.273907">
<ele>17.653091</ele>
<time>2011-10-13T08:11:42Z</time>
<desc>lat.=44.536907, lon.=34.273907, Alt.=17.653091m. Speed=0.036000m/h.</desc>
<speed>0.010000</speed>
</trkpt>
<trkpt lat="44.536907" lon="34.273907">
<ele>17.686783</ele>
<time>2011-10-13T08:11:47Z</time>
<desc>lat.=44.536907, lon.=34.273907, Alt.=17.686783m. Speed=0.000000m/h.</desc>
<speed>0.000000</speed>
</trkpt>
<trkpt lat="44.536907" lon="34.273907">
<ele>17.739517</ele>
<time>2011-10-13T08:11:52Z</time>
<desc>lat.=44.536907, lon.=34.273907, Alt.=17.739517m. Speed=0.036000m/h.</desc>
<speed>0.010000</speed>
</trkpt>
<trkpt lat="44.536907" lon="34.273907">
<ele>17.786880</ele>
<time>2011-10-13T08:11:57Z</time>
<desc>lat.=44.536907, lon.=34.273907, Alt.=17.786880m. Speed=0.000000m/h.</desc>
<speed>0.000000</speed>
</trkpt>
<trkpt lat="44.536907" lon="34.273907">
<ele>17.850357</ele>
<time>2011-10-13T08:12:02Z</time>
<desc>lat.=44.536907, lon.=34.273907, Alt.=17.850357m. Speed=0.072000m/h.</desc>
<speed>0.020000</speed>
</trkpt>
<trkpt lat="44.536907" lon="34.273907">
<ele>17.915298</ele>
<time>2011-10-13T08:12:07Z</time>
<desc>lat.=44.536907, lon.=34.273907, Alt.=17.915298m. Speed=0.000000m/h.</desc>
<speed>0.000000</speed>
</trkpt>
<trkpt lat="44.536907" lon="34.273907">
<ele>17.825455</ele>
<time>2011-10-13T08:12:12Z</time>
<desc>lat.=44.536907, lon.=34.273907, Alt.=17.825455m. Speed=0.108000m/h.</desc>
<speed>0.030000</speed>
</trkpt>
<trkpt lat="44.536907" lon="34.273907">
<ele>17.831314</ele>
<time>2011-10-13T08:12:17Z</time>
<desc>lat.=44.536907, lon.=34.273907, Alt.=17.831314m. Speed=0.072000m/h.</desc>
<speed>0.020000</speed>
</trkpt>
<trkpt lat="44.536907" lon="34.273907">
<ele>17.845963</ele>
<time>2011-10-13T08:12:22Z</time>
<desc>lat.=44.536907, lon.=34.273907, Alt.=17.845963m. Speed=0.576000m/h.</desc>
<speed>0.160000</speed>
</trkpt>
<trkpt lat="44.536892" lon="34.273926">
<ele>17.677017</ele>
<time>2011-10-13T08:12:27Z</time>
<desc>lat.=44.536892, lon.=34.273926, Alt.=17.677017m. Speed=7.452000m/h.</desc>
<speed>2.070000</speed>
</trkpt>
<trkpt lat="44.536907" lon="34.274200">
<ele>14.421028</ele>
<time>2011-10-13T08:12:32Z</time>
<desc>lat.=44.536907, lon.=34.274200, Alt.=14.421028m. Speed=16.200001m/h.</desc>
<speed>4.500000</speed>
</trkpt>
<trkpt lat="44.536972" lon="34.274380">
<ele>12.879280</ele>
<time>2011-10-13T08:12:37Z</time>
<desc>lat.=44.536972, lon.=34.274380, Alt.=12.879280m. Speed=12.672000m/h.</desc>
<speed>3.520000</speed>
</trkpt>
<trkpt lat="44.537136" lon="34.274467">
<ele>13.632210</ele>
<time>2011-10-13T08:12:42Z</time>
<desc>lat.=44.537136, lon.=34.274467, Alt.=13.632210m. Speed=21.636000m/h.</desc>
<speed>6.010000</speed>
</trkpt>
<trkpt lat="44.537395" lon="34.274620">
<ele>13.195442</ele>
<time>2011-10-13T08:12:47Z</time>
<desc>lat.=44.537395, lon.=34.274620, Alt.=13.195442m. Speed=20.412001m/h.</desc>
<speed>5.670000</speed>
</trkpt>
<trkpt lat="44.537682" lon="34.274734">
<ele>11.993538</ele>
<time>2011-10-13T08:12:52Z</time>
<desc>lat.=44.537682, lon.=34.274734, Alt.=11.993538m. Speed=24.408001m/h.</desc>
<speed>6.780000</speed>
</trkpt>
<trkpt lat="44.538002" lon="34.274868">
<ele>11.283333</ele>
<time>2011-10-13T08:12:57Z</time>
<desc>lat.=44.538002, lon.=34.274868, Alt.=11.283333m. Speed=27.360001m/h.</desc>
<speed>7.600000</speed>
</trkpt>
<trkpt lat="44.538334" lon="34.275013">
<ele>10.943001</ele>
<time>2011-10-13T08:13:02Z</time>
<desc>lat.=44.538334, lon.=34.275013, Alt.=10.943001m. Speed=27.143999m/h.</desc>
<speed>7.540000</speed>
</trkpt>
<trkpt lat="44.538643" lon="34.275173">
<ele>11.233528</ele>
<time>2011-10-13T08:13:07Z</time>
<desc>lat.=44.538643, lon.=34.275173, Alt.=11.233528m. Speed=26.964001m/h.</desc>
<speed>7.490000</speed>
</trkpt>
<trkpt lat="44.538948" lon="34.275345">
<ele>11.801155</ele>
<time>2011-10-13T08:13:12Z</time>
<desc>lat.=44.538948, lon.=34.275345, Alt.=11.801155m. Speed=26.351999m/h.</desc>
<speed>7.320000</speed>
</trkpt>
<trkpt lat="44.539249" lon="34.275524">
<ele>11.983772</ele>
<time>2011-10-13T08:13:17Z</time>
<desc>lat.=44.539249, lon.=34.275524, Alt.=11.983772m. Speed=27.396000m/h.</desc>
<speed>7.610000</speed>
</trkpt>
<trkpt lat="44.539574" lon="34.275707">
<ele>12.701057</ele>
<time>2011-10-13T08:13:22Z</time>
<desc>lat.=44.539574, lon.=34.275707, Alt.=12.701057m. Speed=27.468000m/h.</desc>
<speed>7.630000</speed>
</trkpt>
<trkpt lat="44.539883" lon="34.275963">
<ele>12.313850</ele>
<time>2011-10-13T08:13:27Z</time>
<desc>lat.=44.539883, lon.=34.275963, Alt.=12.313850m. Speed=24.444000m/h.</desc>
<speed>6.790000</speed>
</trkpt>
<trkpt lat="44.540146" lon="34.276211">
<ele>11.141975</ele>
<time>2011-10-13T08:13:32Z</time>
<desc>lat.=44.540146, lon.=34.276211, Alt.=11.141975m. Speed=27.936001m/h.</desc>
<speed>7.760000</speed>
</trkpt>
<trkpt lat="44.540405" lon="34.276516">
<ele>9.751350</ele>
<time>2011-10-13T08:13:37Z</time>
<desc>lat.=44.540405, lon.=34.276516, Alt.=9.751350m. Speed=27.719999m/h.</desc>
<speed>7.700000</speed>
</trkpt>
<trkpt lat="44.540642" lon="34.276802">
<ele>9.423958</ele>
<time>2011-10-13T08:13:42Z</time>
<desc>lat.=44.540642, lon.=34.276802, Alt.=9.423958m. Speed=24.011999m/h.</desc>
<speed>6.670000</speed>
</trkpt>
<trkpt lat="44.540836" lon="34.277050">
<ele>10.604378</ele>
<time>2011-10-13T08:13:47Z</time>
<desc>lat.=44.540836, lon.=34.277050, Alt.=10.604378m. Speed=17.388000m/h.</desc>
<speed>4.830000</speed>
</trkpt>
<trkpt lat="44.541012" lon="34.277378">
<ele>12.578499</ele>
<time>2011-10-13T08:13:52Z</time>
<desc>lat.=44.541012, lon.=34.277378, Alt.=12.578499m. Speed=22.427999m/h.</desc>
<speed>6.230000</speed>
</trkpt>
<trkpt lat="44.541218" lon="34.277683">
<ele>14.775520</ele>
<time>2011-10-13T08:13:57Z</time>
<desc>lat.=44.541218, lon.=34.277683, Alt.=14.775520m. Speed=22.716000m/h.</desc>
<speed>6.310000</speed>
</trkpt>
<trkpt lat="44.541409" lon="34.277992">
<ele>14.894417</ele>
<time>2011-10-13T08:14:02Z</time>
<desc>lat.=44.541409, lon.=34.277992, Alt.=14.894417m. Speed=23.507999m/h.</desc>
<speed>6.530000</speed>
</trkpt>
<trkpt lat="44.541588" lon="34.278320">
<ele>16.865005</ele>
<time>2011-10-13T08:14:07Z</time>
<desc>lat.=44.541588, lon.=34.278320, Alt.=16.865005m. Speed=23.472000m/h.</desc>
<speed>6.520000</speed>
</trkpt>
<trkpt lat="44.541763" lon="34.278568">
<ele>19.539322</ele>
<time>2011-10-13T08:14:12Z</time>
<desc>lat.=44.541763, lon.=34.278568, Alt.=19.539322m. Speed=15.192000m/h.</desc>
<speed>4.220000</speed>
</trkpt>
<trkpt lat="44.541950" lon="34.278770">
<ele>21.903091</ele>
<time>2011-10-13T08:14:17Z</time>
<desc>lat.=44.541950, lon.=34.278770, Alt.=21.903091m. Speed=18.648001m/h.</desc>
<speed>5.180000</speed>
</trkpt>
<trkpt lat="44.542088" lon="34.278927">
<ele>24.524185</ele>
<time>2011-10-13T08:14:22Z</time>
<desc>lat.=44.542088, lon.=34.278927, Alt.=24.524185m. Speed=12.888000m/h.</desc>
<speed>3.580000</speed>
</trkpt>
<trkpt lat="44.542233" lon="34.279053">
<ele>27.699966</ele>
<time>2011-10-13T08:14:27Z</time>
<desc>lat.=44.542233, lon.=34.279053, Alt.=27.699966m. Speed=12.564000m/h.</desc>
<speed>3.490000</speed>
</trkpt>
<trkpt lat="44.542347" lon="34.279198">
<ele>30.496353</ele>
<time>2011-10-13T08:14:32Z</time>
<desc>lat.=44.542347, lon.=34.279198, Alt.=30.496353m. Speed=8.424000m/h.</desc>
<speed>2.340000</speed>
</trkpt>
<trkpt lat="44.542442" lon="34.279331">
<ele>33.383331</ele>
<time>2011-10-13T08:14:37Z</time>
<desc>lat.=44.542442, lon.=34.279331, Alt.=33.383331m. Speed=9.540000m/h.</desc>
<speed>2.650000</speed>
</trkpt>
<trkpt lat="44.542530" lon="34.279343">
<ele>36.402863</ele>
<time>2011-10-13T08:14:42Z</time>
<desc>lat.=44.542530, lon.=34.279343, Alt.=36.402863m. Speed=7.272000m/h.</desc>
<speed>2.020000</speed>
</trkpt>
<trkpt lat="44.542564" lon="34.279240">
<ele>38.570831</ele>
<time>2011-10-13T08:14:47Z</time>
<desc>lat.=44.542564, lon.=34.279240, Alt.=38.570831m. Speed=11.268000m/h.</desc>
<speed>3.130000</speed>
</trkpt>
<trkpt lat="44.542614" lon="34.279079">
<ele>41.374542</ele>
<time>2011-10-13T08:14:52Z</time>
<desc>lat.=44.542614, lon.=34.279079, Alt.=41.374542m. Speed=10.980000m/h.</desc>
<speed>3.050000</speed>
</trkpt>
<trkpt lat="44.542698" lon="34.279030">
<ele>43.379425</ele>
<time>2011-10-13T08:14:57Z</time>
<desc>lat.=44.542698, lon.=34.279030, Alt.=43.379425m. Speed=6.984000m/h.</desc>
<speed>1.940000</speed>
</trkpt>
<trkpt lat="44.542698" lon="34.279102">
<ele>44.302277</ele>
<time>2011-10-13T08:15:02Z</time>
<desc>lat.=44.542698, lon.=34.279102, Alt.=44.302277m. Speed=4.608000m/h.</desc>
<speed>1.280000</speed>
</trkpt>
<trkpt lat="44.542717" lon="34.279194">
<ele>44.127472</ele>
<time>2011-10-13T08:15:07Z</time>
<desc>lat.=44.542717, lon.=34.279194, Alt.=44.127472m. Speed=8.820000m/h.</desc>
<speed>2.450000</speed>
</trkpt>
<trkpt lat="44.542767" lon="34.279316">
<ele>44.900909</ele>
<time>2011-10-13T08:15:12Z</time>
<desc>lat.=44.542767, lon.=34.279316, Alt.=44.900909m. Speed=5.832000m/h.</desc>
<speed>1.620000</speed>
</trkpt>
<trkpt lat="44.542919" lon="34.279350">
<ele>46.945831</ele>
<time>2011-10-13T08:15:17Z</time>
<desc>lat.=44.542919, lon.=34.279350, Alt.=46.945831m. Speed=9.324000m/h.</desc>
<speed>2.590000</speed>
</trkpt>
<trkpt lat="44.542953" lon="34.279491">
<ele>48.816925</ele>
<time>2011-10-13T08:15:22Z</time>
<desc>lat.=44.542953, lon.=34.279491, Alt.=48.816925m. Speed=7.884000m/h.</desc>
<speed>2.190000</speed>
</trkpt>
<trkpt lat="44.542957" lon="34.279655">
<ele>49.900909</ele>
<time>2011-10-13T08:15:27Z</time>
<desc>lat.=44.542957, lon.=34.279655, Alt.=49.900909m. Speed=7.092000m/h.</desc>
<speed>1.970000</speed>
</trkpt>
<trkpt lat="44.542953" lon="34.279850">
<ele>50.551300</ele>
<time>2011-10-13T08:15:32Z</time>
<desc>lat.=44.542953, lon.=34.279850, Alt.=50.551300m. Speed=10.836000m/h.</desc>
<speed>3.010000</speed>
</trkpt>
<trkpt lat="44.542938" lon="34.280041">
<ele>51.841339</ele>
<time>2011-10-13T08:15:37Z</time>
<desc>lat.=44.542938, lon.=34.280041, Alt.=51.841339m. Speed=10.980000m/h.</desc>
<speed>3.050000</speed>
</trkpt>
<trkpt lat="44.542946" lon="34.280201">
<ele>53.535675</ele>
<time>2011-10-13T08:15:42Z</time>
<desc>lat.=44.542946, lon.=34.280201, Alt.=53.535675m. Speed=6.480000m/h.</desc>
<speed>1.800000</speed>
</trkpt>
<trkpt lat="44.542946" lon="34.280407">
<ele>54.860870</ele>
<time>2011-10-13T08:15:47Z</time>
<desc>lat.=44.542946, lon.=34.280407, Alt.=54.860870m. Speed=10.512000m/h.</desc>
<speed>2.920000</speed>
</trkpt>
<trkpt lat="44.542931" lon="34.280602">
<ele>56.254425</ele>
<time>2011-10-13T08:15:52Z</time>
<desc>lat.=44.542931, lon.=34.280602, Alt.=56.254425m. Speed=10.872000m/h.</desc>
<speed>3.020000</speed>
</trkpt>
<trkpt lat="44.542892" lon="34.280769">
<ele>58.765167</ele>
<time>2011-10-13T08:15:57Z</time>
<desc>lat.=44.542892, lon.=34.280769, Alt.=58.765167m. Speed=9.864000m/h.</desc>
<speed>2.740000</speed>
</trkpt>
<trkpt lat="44.542904" lon="34.280994">
<ele>60.472198</ele>
<time>2011-10-13T08:16:02Z</time>
<desc>lat.=44.542904, lon.=34.280994, Alt.=60.472198m. Speed=11.232000m/h.</desc>
<speed>3.120000</speed>
</trkpt>
<trkpt lat="44.542873" lon="34.281158">
<ele>62.533722</ele>
<time>2011-10-13T08:16:07Z</time>
<desc>lat.=44.542873, lon.=34.281158, Alt.=62.533722m. Speed=10.044000m/h.</desc>
<speed>2.790000</speed>
</trkpt>
<trkpt lat="44.542892" lon="34.281319">
<ele>61.680206</ele>
<time>2011-10-13T08:16:12Z</time>
<desc>lat.=44.542892, lon.=34.281319, Alt.=61.680206m. Speed=9.108000m/h.</desc>
<speed>2.530000</speed>
</trkpt>
<trkpt lat="44.542904" lon="34.281475">
<ele>61.683136</ele>
<time>2011-10-13T08:16:17Z</time>
<desc>lat.=44.542904, lon.=34.281475, Alt.=61.683136m. Speed=8.496000m/h.</desc>
<speed>2.360000</speed>
</trkpt>
<trkpt lat="44.542934" lon="34.281651">
<ele>61.745636</ele>
<time>2011-10-13T08:16:22Z</time>
<desc>lat.=44.542934, lon.=34.281651, Alt.=61.745636m. Speed=8.928000m/h.</desc>
<speed>2.480000</speed>
</trkpt>
<trkpt lat="44.542927" lon="34.281799">
<ele>61.613800</ele>
<time>2011-10-13T08:16:27Z</time>
<desc>lat.=44.542927, lon.=34.281799, Alt.=61.613800m. Speed=8.712000m/h.</desc>
<speed>2.420000</speed>
</trkpt>
<trkpt lat="44.542995" lon="34.281940">
<ele>59.214386</ele>
<time>2011-10-13T08:16:32Z</time>
<desc>lat.=44.542995, lon.=34.281940, Alt.=59.214386m. Speed=7.740000m/h.</desc>
<speed>2.150000</speed>
</trkpt>
<trkpt lat="44.543041" lon="34.282120">
<ele>58.989777</ele>
<time>2011-10-13T08:16:37Z</time>
<desc>lat.=44.543041, lon.=34.282120, Alt.=58.989777m. Speed=10.476000m/h.</desc>
<speed>2.910000</speed>
</trkpt>
<trkpt lat="44.543125" lon="34.282303">
<ele>58.196808</ele>
<time>2011-10-13T08:16:42Z</time>
<desc>lat.=44.543125, lon.=34.282303, Alt.=58.196808m. Speed=10.764000m/h.</desc>
<speed>2.990000</speed>
</trkpt>
<trkpt lat="44.543217" lon="34.282455">
<ele>58.915558</ele>
<time>2011-10-13T08:16:47Z</time>
<desc>lat.=44.543217, lon.=34.282455, Alt.=58.915558m. Speed=8.136000m/h.</desc>
<speed>2.260000</speed>
</trkpt>
<trkpt lat="44.543320" lon="34.282600">
<ele>58.323761</ele>
<time>2011-10-13T08:16:52Z</time>
<desc>lat.=44.543320, lon.=34.282600, Alt.=58.323761m. Speed=12.672000m/h.</desc>
<speed>3.520000</speed>
</trkpt>
<trkpt lat="44.543488" lon="34.282772">
<ele>57.486847</ele>
<time>2011-10-13T08:16:57Z</time>
<desc>lat.=44.543488, lon.=34.282772, Alt.=57.486847m. Speed=16.812000m/h.</desc>
<speed>4.670000</speed>
</trkpt>
<trkpt lat="44.543720" lon="34.283035">
<ele>53.551300</ele>
<time>2011-10-13T08:17:02Z</time>
<desc>lat.=44.543720, lon.=34.283035, Alt.=53.551300m. Speed=20.591999m/h.</desc>
<speed>5.720000</speed>
</trkpt>
<trkpt lat="44.543900" lon="34.283283">
<ele>55.647003</ele>
<time>2011-10-13T08:17:07Z</time>
<desc>lat.=44.543900, lon.=34.283283, Alt.=55.647003m. Speed=17.639999m/h.</desc>
<speed>4.900000</speed>
</trkpt>
<trkpt lat="44.544044" lon="34.283527">
<ele>57.174347</ele>
<time>2011-10-13T08:17:12Z</time>
<desc>lat.=44.544044, lon.=34.283527, Alt.=57.174347m. Speed=16.596001m/h.</desc>
<speed>4.610000</speed>
</trkpt>
<trkpt lat="44.544201" lon="34.283791">
<ele>58.940948</ele>
<time>2011-10-13T08:17:17Z</time>
<desc>lat.=44.544201, lon.=34.283791, Alt.=58.940948m. Speed=25.091999m/h.</desc>
<speed>6.970000</speed>
</trkpt>
<trkpt lat="44.544380" lon="34.284035">
<ele>58.093292</ele>
<time>2011-10-13T08:17:22Z</time>
<desc>lat.=44.544380, lon.=34.284035, Alt.=58.093292m. Speed=15.300000m/h.</desc>
<speed>4.250000</speed>
</trkpt>
<trkpt lat="44.544514" lon="34.284283">
<ele>60.065948</ele>
<time>2011-10-13T08:17:27Z</time>
<desc>lat.=44.544514, lon.=34.284283, Alt.=60.065948m. Speed=14.544000m/h.</desc>
<speed>4.040000</speed>
</trkpt>
<trkpt lat="44.544621" lon="34.284527">
<ele>63.038605</ele>
<time>2011-10-13T08:17:32Z</time>
<desc>lat.=44.544621, lon.=34.284527, Alt.=63.038605m. Speed=15.876000m/h.</desc>
<speed>4.410000</speed>
</trkpt>
<trkpt lat="44.544849" lon="34.284763">
<ele>53.101105</ele>
<time>2011-10-13T08:17:37Z</time>
<desc>lat.=44.544849, lon.=34.284763, Alt.=53.101105m. Speed=21.708000m/h.</desc>
<speed>6.030000</speed>
</trkpt>
<trkpt lat="44.545120" lon="34.284935">
<ele>46.749542</ele>
<time>2011-10-13T08:17:42Z</time>
<desc>lat.=44.545120, lon.=34.284935, Alt.=46.749542m. Speed=22.823999m/h.</desc>
<speed>6.340000</speed>
</trkpt>
<trkpt lat="44.545418" lon="34.285034">
<ele>44.746613</ele>
<time>2011-10-13T08:17:47Z</time>
<desc>lat.=44.545418, lon.=34.285034, Alt.=44.746613m. Speed=24.011999m/h.</desc>
<speed>6.670000</speed>
</trkpt>
<trkpt lat="44.545738" lon="34.285152">
<ele>42.862823</ele>
<time>2011-10-13T08:17:52Z</time>
<desc>lat.=44.545738, lon.=34.285152, Alt.=42.862823m. Speed=27.612000m/h.</desc>
<speed>7.670000</speed>
</trkpt>
<trkpt lat="44.546165" lon="34.285252">
<ele>40.189972</ele>
<time>2011-10-13T08:17:57Z</time>
<desc>lat.=44.546165, lon.=34.285252, Alt.=40.189972m. Speed=30.600000m/h.</desc>
<speed>8.500000</speed>
</trkpt>
<trkpt lat="44.546459" lon="34.285378">
<ele>39.736847</ele>
<time>2011-10-13T08:18:02Z</time>
<desc>lat.=44.546459, lon.=34.285378, Alt.=39.736847m. Speed=22.500000m/h.</desc>
<speed>6.250000</speed>
</trkpt>
<trkpt lat="44.546562" lon="34.285675">
<ele>40.980011</ele>
<time>2011-10-13T08:18:07Z</time>
<desc>lat.=44.546562, lon.=34.285675, Alt.=40.980011m. Speed=17.568001m/h.</desc>
<speed>4.880000</speed>
</trkpt>
<trkpt lat="44.546474" lon="34.286026">
<ele>43.378448</ele>
<time>2011-10-13T08:18:12Z</time>
<desc>lat.=44.546474, lon.=34.286026, Alt.=43.378448m. Speed=21.132000m/h.</desc>
<speed>5.870000</speed>
</trkpt>
<trkpt lat="44.546490" lon="34.286400">
<ele>44.302277</ele>
<time>2011-10-13T08:18:17Z</time>
<desc>lat.=44.546490, lon.=34.286400, Alt.=44.302277m. Speed=21.708000m/h.</desc>
<speed>6.030000</speed>
</trkpt>
<trkpt lat="44.546577" lon="34.286732">
<ele>45.932159</ele>
<time>2011-10-13T08:18:22Z</time>
<desc>lat.=44.546577, lon.=34.286732, Alt.=45.932159m. Speed=21.455999m/h.</desc>
<speed>5.960000</speed>
</trkpt>
<trkpt lat="44.546680" lon="34.287037">
<ele>46.499542</ele>
<time>2011-10-13T08:18:27Z</time>
<desc>lat.=44.546680, lon.=34.287037, Alt.=46.499542m. Speed=16.775999m/h.</desc>
<speed>4.660000</speed>
</trkpt>
<trkpt lat="44.546768" lon="34.287251">
<ele>49.496613</ele>
<time>2011-10-13T08:18:32Z</time>
<desc>lat.=44.546768, lon.=34.287251, Alt.=49.496613m. Speed=11.880000m/h.</desc>
<speed>3.300000</speed>
</trkpt>
<trkpt lat="44.546886" lon="34.287460">
<ele>51.514191</ele>
<time>2011-10-13T08:18:37Z</time>
<desc>lat.=44.546886, lon.=34.287460, Alt.=51.514191m. Speed=14.184000m/h.</desc>
<speed>3.940000</speed>
</trkpt>
<trkpt lat="44.546963" lon="34.287689">
<ele>53.298370</ele>
<time>2011-10-13T08:18:42Z</time>
<desc>lat.=44.546963, lon.=34.287689, Alt.=53.298370m. Speed=11.664000m/h.</desc>
<speed>3.240000</speed>
</trkpt>
<trkpt lat="44.547043" lon="34.287888">
<ele>55.993683</ele>
<time>2011-10-13T08:18:47Z</time>
<desc>lat.=44.547043, lon.=34.287888, Alt.=55.993683m. Speed=12.240000m/h.</desc>
<speed>3.400000</speed>
</trkpt>
<trkpt lat="44.547112" lon="34.288059">
<ele>58.418488</ele>
<time>2011-10-13T08:18:52Z</time>
<desc>lat.=44.547112, lon.=34.288059, Alt.=58.418488m. Speed=9.504000m/h.</desc>
<speed>2.640000</speed>
</trkpt>
<trkpt lat="44.547188" lon="34.288219">
<ele>59.944855</ele>
<time>2011-10-13T08:18:57Z</time>
<desc>lat.=44.547188, lon.=34.288219, Alt.=59.944855m. Speed=11.124000m/h.</desc>
<speed>3.090000</speed>
</trkpt>
<trkpt lat="44.547291" lon="34.288387">
<ele>59.877472</ele>
<time>2011-10-13T08:19:02Z</time>
<desc>lat.=44.547291, lon.=34.288387, Alt.=59.877472m. Speed=9.288000m/h.</desc>
<speed>2.580000</speed>
</trkpt>
<trkpt lat="44.547367" lon="34.288506">
<ele>61.410675</ele>
<time>2011-10-13T08:19:07Z</time>
<desc>lat.=44.547367, lon.=34.288506, Alt.=61.410675m. Speed=8.928000m/h.</desc>
<speed>2.480000</speed>
</trkpt>
<trkpt lat="44.547443" lon="34.288673">
<ele>63.626495</ele>
<time>2011-10-13T08:19:12Z</time>
<desc>lat.=44.547443, lon.=34.288673, Alt.=63.626495m. Speed=9.900000m/h.</desc>
<speed>2.750000</speed>
</trkpt>
<trkpt lat="44.547535" lon="34.288826">
<ele>65.461975</ele>
<time>2011-10-13T08:19:17Z</time>
<desc>lat.=44.547535, lon.=34.288826, Alt.=65.461975m. Speed=10.080000m/h.</desc>
<speed>2.800000</speed>
</trkpt>
<trkpt lat="44.547634" lon="34.288986">
<ele>66.610413</ele>
<time>2011-10-13T08:19:22Z</time>
<desc>lat.=44.547634, lon.=34.288986, Alt.=66.610413m. Speed=7.236000m/h.</desc>
<speed>2.010000</speed>
</trkpt>
<trkpt lat="44.547729" lon="34.289108">
<ele>67.045959</ele>
<time>2011-10-13T08:19:27Z</time>
<desc>lat.=44.547729, lon.=34.289108, Alt.=67.045959m. Speed=10.800000m/h.</desc>
<speed>3.000000</speed>
</trkpt>
<trkpt lat="44.547821" lon="34.289288">
<ele>64.698303</ele>
<time>2011-10-13T08:19:32Z</time>
<desc>lat.=44.547821, lon.=34.289288, Alt.=64.698303m. Speed=10.296000m/h.</desc>
<speed>2.860000</speed>
</trkpt>
<trkpt lat="44.547863" lon="34.289459">
<ele>65.981506</ele>
<time>2011-10-13T08:19:37Z</time>
<desc>lat.=44.547863, lon.=34.289459, Alt.=65.981506m. Speed=9.864000m/h.</desc>
<speed>2.740000</speed>
</trkpt>
<trkpt lat="44.547897" lon="34.289627">
<ele>67.532288</ele>
<time>2011-10-13T08:19:42Z</time>
<desc>lat.=44.547897, lon.=34.289627, Alt.=67.532288m. Speed=10.512000m/h.</desc>
<speed>2.920000</speed>
</trkpt>
<trkpt lat="44.547913" lon="34.289780">
<ele>69.147522</ele>
<time>2011-10-13T08:19:47Z</time>
<desc>lat.=44.547913, lon.=34.289780, Alt.=69.147522m. Speed=6.120000m/h.</desc>
<speed>1.700000</speed>
</trkpt>
<trkpt lat="44.548012" lon="34.289951">
<ele>70.225647</ele>
<time>2011-10-13T08:19:52Z</time>
<desc>lat.=44.548012, lon.=34.289951, Alt.=70.225647m. Speed=11.592000m/h.</desc>
<speed>3.220000</speed>
</trkpt>
<trkpt lat="44.548088" lon="34.290119">
<ele>72.653381</ele>
<time>2011-10-13T08:19:57Z</time>
<desc>lat.=44.548088, lon.=34.290119, Alt.=72.653381m. Speed=10.512000m/h.</desc>
<speed>2.920000</speed>
</trkpt>
<trkpt lat="44.548187" lon="34.290279">
<ele>74.061584</ele>
<time>2011-10-13T08:20:02Z</time>
<desc>lat.=44.548187, lon.=34.290279, Alt.=74.061584m. Speed=11.772000m/h.</desc>
<speed>3.270000</speed>
</trkpt>
<trkpt lat="44.548260" lon="34.290394">
<ele>76.098694</ele>
<time>2011-10-13T08:20:07Z</time>
<desc>lat.=44.548260, lon.=34.290394, Alt.=76.098694m. Speed=7.488000m/h.</desc>
<speed>2.080000</speed>
</trkpt>
<trkpt lat="44.548405" lon="34.290462">
<ele>76.006897</ele>
<time>2011-10-13T08:20:12Z</time>
<desc>lat.=44.548405, lon.=34.290462, Alt.=76.006897m. Speed=13.716000m/h.</desc>
<speed>3.810000</speed>
</trkpt>
<trkpt lat="44.548588" lon="34.290516">
<ele>76.405334</ele>
<time>2011-10-13T08:20:17Z</time>
<desc>lat.=44.548588, lon.=34.290516, Alt.=76.405334m. Speed=14.688000m/h.</desc>
<speed>4.080000</speed>
</trkpt>
<trkpt lat="44.548748" lon="34.290604">
<ele>74.415100</ele>
<time>2011-10-13T08:20:22Z</time>
<desc>lat.=44.548748, lon.=34.290604, Alt.=74.415100m. Speed=12.996000m/h.</desc>
<speed>3.610000</speed>
</trkpt>
<trkpt lat="44.548904" lon="34.290768">
<ele>75.264709</ele>
<time>2011-10-13T08:20:27Z</time>
<desc>lat.=44.548904, lon.=34.290768, Alt.=75.264709m. Speed=14.976000m/h.</desc>
<speed>4.160000</speed>
</trkpt>
<trkpt lat="44.549007" lon="34.291016">
<ele>75.456116</ele>
<time>2011-10-13T08:20:32Z</time>
<desc>lat.=44.549007, lon.=34.291016, Alt.=75.456116m. Speed=18.972000m/h.</desc>
<speed>5.270000</speed>
</trkpt>
<trkpt lat="44.549149" lon="34.291378">
<ele>74.596741</ele>
<time>2011-10-13T08:20:37Z</time>
<desc>lat.=44.549149, lon.=34.291378, Alt.=74.596741m. Speed=27.504000m/h.</desc>
<speed>7.640000</speed>
</trkpt>
<trkpt lat="44.549213" lon="34.291920">
<ele>71.665100</ele>
<time>2011-10-13T08:20:42Z</time>
<desc>lat.=44.549213, lon.=34.291920, Alt.=71.665100m. Speed=33.119999m/h.</desc>
<speed>9.200000</speed>
</trkpt>
<trkpt lat="44.549259" lon="34.292530">
<ele>68.538147</ele>
<time>2011-10-13T08:20:47Z</time>
<desc>lat.=44.549259, lon.=34.292530, Alt.=68.538147m. Speed=32.688000m/h.</desc>
<speed>9.080000</speed>
</trkpt>
<trkpt lat="44.549393" lon="34.293140">
<ele>63.446808</ele>
<time>2011-10-13T08:20:52Z</time>
<desc>lat.=44.549393, lon.=34.293140, Alt.=63.446808m. Speed=37.728001m/h.</desc>
<speed>10.480000</speed>
</trkpt>
<trkpt lat="44.549625" lon="34.293758">
<ele>59.529816</ele>
<time>2011-10-13T08:20:57Z</time>
<desc>lat.=44.549625, lon.=34.293758, Alt.=59.529816m. Speed=41.363998m/h.</desc>
<speed>11.490000</speed>
</trkpt>
<trkpt lat="44.549969" lon="34.294338">
<ele>56.395050</ele>
<time>2011-10-13T08:21:02Z</time>
<desc>lat.=44.549969, lon.=34.294338, Alt.=56.395050m. Speed=43.740002m/h.</desc>
<speed>12.150000</speed>
</trkpt>
<trkpt lat="44.550297" lon="34.295021">
<ele>53.018097</ele>
<time>2011-10-13T08:21:07Z</time>
<desc>lat.=44.550297, lon.=34.295021, Alt.=53.018097m. Speed=46.368000m/h.</desc>
<speed>12.880000</speed>
</trkpt>
<trkpt lat="44.550571" lon="34.295631">
<ele>50.349152</ele>
<time>2011-10-13T08:21:12Z</time>
<desc>lat.=44.550571, lon.=34.295631, Alt.=50.349152m. Speed=36.647999m/h.</desc>
<speed>10.180000</speed>
</trkpt>
<trkpt lat="44.550686" lon="34.296192">
<ele>48.497589</ele>
<time>2011-10-13T08:21:17Z</time>
<desc>lat.=44.550686, lon.=34.296192, Alt.=48.497589m. Speed=30.420000m/h.</desc>
<speed>8.450000</speed>
</trkpt>
<trkpt lat="44.550571" lon="34.296635">
<ele>49.015167</ele>
<time>2011-10-13T08:21:22Z</time>
<desc>lat.=44.550571, lon.=34.296635, Alt.=49.015167m. Speed=23.507999m/h.</desc>
<speed>6.530000</speed>
</trkpt>
<trkpt lat="44.550510" lon="34.296967">
<ele>49.896027</ele>
<time>2011-10-13T08:21:27Z</time>
<desc>lat.=44.550510, lon.=34.296967, Alt.=49.896027m. Speed=19.584000m/h.</desc>
<speed>5.440000</speed>
</trkpt>
<trkpt lat="44.550617" lon="34.297245">
<ele>50.069855</ele>
<time>2011-10-13T08:21:32Z</time>
<desc>lat.=44.550617, lon.=34.297245, Alt.=50.069855m. Speed=14.184000m/h.</desc>
<speed>3.940000</speed>
</trkpt>
<trkpt lat="44.550735" lon="34.297436">
<ele>51.688995</ele>
<time>2011-10-13T08:21:37Z</time>
<desc>lat.=44.550735, lon.=34.297436, Alt.=51.688995m. Speed=12.816000m/h.</desc>
<speed>3.560000</speed>
</trkpt>
<trkpt lat="44.550877" lon="34.297592">
<ele>53.414581</ele>
<time>2011-10-13T08:21:42Z</time>
<desc>lat.=44.550877, lon.=34.297592, Alt.=53.414581m. Speed=15.624000m/h.</desc>
<speed>4.340000</speed>
</trkpt>
<trkpt lat="44.551064" lon="34.297783">
<ele>54.401886</ele>
<time>2011-10-13T08:21:47Z</time>
<desc>lat.=44.551064, lon.=34.297783, Alt.=54.401886m. Speed=18.180000m/h.</desc>
<speed>5.050000</speed>
</trkpt>
<trkpt lat="44.551258" lon="34.297932">
<ele>55.560089</ele>
<time>2011-10-13T08:21:52Z</time>
<desc>lat.=44.551258, lon.=34.297932, Alt.=55.560089m. Speed=16.775999m/h.</desc>
<speed>4.660000</speed>
</trkpt>
<trkpt lat="44.551403" lon="34.298157">
<ele>57.436066</ele>
<time>2011-10-13T08:21:57Z</time>
<desc>lat.=44.551403, lon.=34.298157, Alt.=57.436066m. Speed=17.208000m/h.</desc>
<speed>4.780000</speed>
</trkpt>
<trkpt lat="44.551414" lon="34.298454">
<ele>60.259308</ele>
<time>2011-10-13T08:22:02Z</time>
<desc>lat.=44.551414, lon.=34.298454, Alt.=60.259308m. Speed=16.416000m/h.</desc>
<speed>4.560000</speed>
</trkpt>
<trkpt lat="44.551460" lon="34.298752">
<ele>62.188019</ele>
<time>2011-10-13T08:22:07Z</time>
<desc>lat.=44.551460, lon.=34.298752, Alt.=62.188019m. Speed=15.840000m/h.</desc>
<speed>4.400000</speed>
</trkpt>
<trkpt lat="44.551643" lon="34.298992">
<ele>63.172394</ele>
<time>2011-10-13T08:22:12Z</time>
<desc>lat.=44.551643, lon.=34.298992, Alt.=63.172394m. Speed=18.072001m/h.</desc>
<speed>5.020000</speed>
</trkpt>
<trkpt lat="44.551842" lon="34.299072">
<ele>64.544006</ele>
<time>2011-10-13T08:22:17Z</time>
<desc>lat.=44.551842, lon.=34.299072, Alt.=64.544006m. Speed=13.068000m/h.</desc>
<speed>3.630000</speed>
</trkpt>
<trkpt lat="44.552078" lon="34.299065">
<ele>64.633850</ele>
<time>2011-10-13T08:22:22Z</time>
<desc>lat.=44.552078, lon.=34.299065, Alt.=64.633850m. Speed=18.035999m/h.</desc>
<speed>5.010000</speed>
</trkpt>
<trkpt lat="44.552307" lon="34.298992">
<ele>65.417053</ele>
<time>2011-10-13T08:22:27Z</time>
<desc>lat.=44.552307, lon.=34.298992, Alt.=65.417053m. Speed=17.532000m/h.</desc>
<speed>4.870000</speed>
</trkpt>
<trkpt lat="44.552509" lon="34.298920">
<ele>66.637756</ele>
<time>2011-10-13T08:22:32Z</time>
<desc>lat.=44.552509, lon.=34.298920, Alt.=66.637756m. Speed=14.832000m/h.</desc>
<speed>4.120000</speed>
</trkpt>
<trkpt lat="44.552700" lon="34.298946">
<ele>70.479553</ele>
<time>2011-10-13T08:22:37Z</time>
<desc>lat.=44.552700, lon.=34.298946, Alt.=70.479553m. Speed=17.316000m/h.</desc>
<speed>4.810000</speed>
</trkpt>
<trkpt lat="44.552841" lon="34.298996">
<ele>74.958069</ele>
<time>2011-10-13T08:22:42Z</time>
<desc>lat.=44.552841, lon.=34.298996, Alt.=74.958069m. Speed=8.964000m/h.</desc>
<speed>2.490000</speed>
</trkpt>
<trkpt lat="44.552944" lon="34.299019">
<ele>78.866272</ele>
<time>2011-10-13T08:22:47Z</time>
<desc>lat.=44.552944, lon.=34.299019, Alt.=78.866272m. Speed=9.180000m/h.</desc>
<speed>2.550000</speed>
</trkpt>
<trkpt lat="44.553074" lon="34.299049">
<ele>83.143616</ele>
<time>2011-10-13T08:22:52Z</time>
<desc>lat.=44.553074, lon.=34.299049, Alt.=83.143616m. Speed=8.640000m/h.</desc>
<speed>2.400000</speed>
</trkpt>
<trkpt lat="44.553246" lon="34.299110">
<ele>84.614319</ele>
<time>2011-10-13T08:22:57Z</time>
<desc>lat.=44.553246, lon.=34.299110, Alt.=84.614319m. Speed=16.955999m/h.</desc>
<speed>4.710000</speed>
</trkpt>
<trkpt lat="44.553532" lon="34.299183">
<ele>79.874084</ele>
<time>2011-10-13T08:23:02Z</time>
<desc>lat.=44.553532, lon.=34.299183, Alt.=79.874084m. Speed=14.868000m/h.</desc>
<speed>4.130000</speed>
</trkpt>
<trkpt lat="44.553699" lon="34.299080">
<ele>78.499084</ele>
<time>2011-10-13T08:23:07Z</time>
<desc>lat.=44.553699, lon.=34.299080, Alt.=78.499084m. Speed=12.996000m/h.</desc>
<speed>3.610000</speed>
</trkpt>
<trkpt lat="44.553791" lon="34.298962">
<ele>79.262756</ele>
<time>2011-10-13T08:23:12Z</time>
<desc>lat.=44.553791, lon.=34.298962, Alt.=79.262756m. Speed=8.532000m/h.</desc>
<speed>2.370000</speed>
</trkpt>
<trkpt lat="44.553871" lon="34.298862">
<ele>78.719788</ele>
<time>2011-10-13T08:23:17Z</time>
<desc>lat.=44.553871, lon.=34.298862, Alt.=78.719788m. Speed=4.968000m/h.</desc>
<speed>1.380000</speed>
</trkpt>
<trkpt lat="44.553772" lon="34.298733">
<ele>78.901428</ele>
<time>2011-10-13T08:23:22Z</time>
<desc>lat.=44.553772, lon.=34.298733, Alt.=78.901428m. Speed=16.091999m/h.</desc>
<speed>4.470000</speed>
</trkpt>
<trkpt lat="44.553642" lon="34.298538">
<ele>79.176819</ele>
<time>2011-10-13T08:23:27Z</time>
<desc>lat.=44.553642, lon.=34.298538, Alt.=79.176819m. Speed=10.836000m/h.</desc>
<speed>3.010000</speed>
</trkpt>
<trkpt lat="44.553600" lon="34.298546">
<ele>77.489319</ele>
<time>2011-10-13T08:23:32Z</time>
<desc>lat.=44.553600, lon.=34.298546, Alt.=77.489319m. Speed=0.900000m/h.</desc>
<speed>0.250000</speed>
</trkpt>
<trkpt lat="44.553604" lon="34.298523">
<ele>77.862366</ele>
<time>2011-10-13T08:23:37Z</time>
<desc>lat.=44.553604, lon.=34.298523, Alt.=77.862366m. Speed=0.108000m/h.</desc>
<speed>0.030000</speed>
</trkpt>
<trkpt lat="44.553596" lon="34.298512">
<ele>78.641663</ele>
<time>2011-10-13T08:23:42Z</time>
<desc>lat.=44.553596, lon.=34.298512, Alt.=78.641663m. Speed=1.728000m/h.</desc>
<speed>0.480000</speed>
</trkpt>
<trkpt lat="44.553589" lon="34.298496">
<ele>78.946350</ele>
<time>2011-10-13T08:23:47Z</time>
<desc>lat.=44.553589, lon.=34.298496, Alt.=78.946350m. Speed=0.684000m/h.</desc>
<speed>0.190000</speed>
</trkpt>
<trkpt lat="44.553581" lon="34.298492">
<ele>78.956116</ele>
<time>2011-10-13T08:23:52Z</time>
<desc>lat.=44.553581, lon.=34.298492, Alt.=78.956116m. Speed=0.036000m/h.</desc>
<speed>0.010000</speed>
</trkpt>
<trkpt lat="44.553581" lon="34.298489">
<ele>78.885803</ele>
<time>2011-10-13T08:23:57Z</time>
<desc>lat.=44.553581, lon.=34.298489, Alt.=78.885803m. Speed=0.000000m/h.</desc>
<speed>0.000000</speed>
</trkpt>
<trkpt lat="44.553577" lon="34.298489">
<ele>78.819397</ele>
<time>2011-10-13T08:24:02Z</time>
<desc>lat.=44.553577, lon.=34.298489, Alt.=78.819397m. Speed=0.252000m/h.</desc>
<speed>0.070000</speed>
</trkpt>
<trkpt lat="44.553574" lon="34.298492">
<ele>78.924866</ele>
<time>2011-10-13T08:24:07Z</time>
<desc>lat.=44.553574, lon.=34.298492, Alt.=78.924866m. Speed=0.108000m/h.</desc>
<speed>0.030000</speed>
</trkpt>
<trkpt lat="44.553574" lon="34.298489">
<ele>78.969788</ele>
<time>2011-10-13T08:24:12Z</time>
<desc>lat.=44.553574, lon.=34.298489, Alt.=78.969788m. Speed=0.108000m/h.</desc>
<speed>0.030000</speed>
</trkpt>
<trkpt lat="44.553577" lon="34.298492">
<ele>78.803772</ele>
<time>2011-10-13T08:24:17Z</time>
<desc>lat.=44.553577, lon.=34.298492, Alt.=78.803772m. Speed=0.828000m/h.</desc>
<speed>0.230000</speed>
</trkpt>
<trkpt lat="44.553585" lon="34.298496">
<ele>78.612366</ele>
<time>2011-10-13T08:24:22Z</time>
<desc>lat.=44.553585, lon.=34.298496, Alt.=78.612366m. Speed=0.792000m/h.</desc>
<speed>0.220000</speed>
</trkpt>
<trkpt lat="44.553593" lon="34.298500">
<ele>78.520569</ele>
<time>2011-10-13T08:24:27Z</time>
<desc>lat.=44.553593, lon.=34.298500, Alt.=78.520569m. Speed=0.612000m/h.</desc>
<speed>0.170000</speed>
</trkpt>
<trkpt lat="44.553600" lon="34.298504">
<ele>78.497131</ele>
<time>2011-10-13T08:24:32Z</time>
<desc>lat.=44.553600, lon.=34.298504, Alt.=78.497131m. Speed=0.576000m/h.</desc>
<speed>0.160000</speed>
</trkpt>
<trkpt lat="44.553600" lon="34.298508">
<ele>78.473694</ele>
<time>2011-10-13T08:24:37Z</time>
<desc>lat.=44.553600, lon.=34.298508, Alt.=78.473694m. Speed=0.288000m/h.</desc>
<speed>0.080000</speed>
</trkpt>
<trkpt lat="44.553604" lon="34.298508">
<ele>78.446350</ele>
<time>2011-10-13T08:24:42Z</time>
<desc>lat.=44.553604, lon.=34.298508, Alt.=78.446350m. Speed=0.108000m/h.</desc>
<speed>0.030000</speed>
</trkpt>
<trkpt lat="44.553608" lon="34.298508">
<ele>78.379944</ele>
<time>2011-10-13T08:24:47Z</time>
<desc>lat.=44.553608, lon.=34.298508, Alt.=78.379944m. Speed=0.108000m/h.</desc>
<speed>0.030000</speed>
</trkpt>
<trkpt lat="44.553612" lon="34.298512">
<ele>78.336975</ele>
<time>2011-10-13T08:24:52Z</time>
<desc>lat.=44.553612, lon.=34.298512, Alt.=78.336975m. Speed=0.576000m/h.</desc>
<speed>0.160000</speed>
</trkpt>
<trkpt lat="44.553616" lon="34.298515">
<ele>78.286194</ele>
<time>2011-10-13T08:24:57Z</time>
<desc>lat.=44.553616, lon.=34.298515, Alt.=78.286194m. Speed=0.072000m/h.</desc>
<speed>0.020000</speed>
</trkpt>
<trkpt lat="44.553619" lon="34.298515">
<ele>78.231506</ele>
<time>2011-10-13T08:25:02Z</time>
<desc>lat.=44.553619, lon.=34.298515, Alt.=78.231506m. Speed=0.540000m/h.</desc>
<speed>0.150000</speed>
</trkpt>
<trkpt lat="44.553627" lon="34.298519">
<ele>78.233459</ele>
<time>2011-10-13T08:25:07Z</time>
<desc>lat.=44.553627, lon.=34.298519, Alt.=78.233459m. Speed=0.756000m/h.</desc>
<speed>0.210000</speed>
</trkpt>
<trkpt lat="44.553631" lon="34.298523">
<ele>78.266663</ele>
<time>2011-10-13T08:25:12Z</time>
<desc>lat.=44.553631, lon.=34.298523, Alt.=78.266663m. Speed=0.180000m/h.</desc>
<speed>0.050000</speed>
</trkpt>
<trkpt lat="44.553627" lon="34.298523">
<ele>78.260803</ele>
<time>2011-10-13T08:25:17Z</time>
<desc>lat.=44.553627, lon.=34.298523, Alt.=78.260803m. Speed=0.000000m/h.</desc>
<speed>0.000000</speed>
</trkpt>
<trkpt lat="44.553623" lon="34.298519">
<ele>78.294006</ele>
<time>2011-10-13T08:25:22Z</time>
<desc>lat.=44.553623, lon.=34.298519, Alt.=78.294006m. Speed=0.792000m/h.</desc>
<speed>0.220000</speed>
</trkpt>
<trkpt lat="44.553616" lon="34.298515">
<ele>78.239319</ele>
<time>2011-10-13T08:25:27Z</time>
<desc>lat.=44.553616, lon.=34.298515, Alt.=78.239319m. Speed=1.008000m/h.</desc>
<speed>0.280000</speed>
</trkpt>
<trkpt lat="44.553600" lon="34.298508">
<ele>78.163147</ele>
<time>2011-10-13T08:25:32Z</time>
<desc>lat.=44.553600, lon.=34.298508, Alt.=78.163147m. Speed=0.288000m/h.</desc>
<speed>0.080000</speed>
</trkpt>
<trkpt lat="44.553596" lon="34.298508">
<ele>78.126038</ele>
<time>2011-10-13T08:25:37Z</time>
<desc>lat.=44.553596, lon.=34.298508, Alt.=78.126038m. Speed=0.180000m/h.</desc>
<speed>0.050000</speed>
</trkpt>
<trkpt lat="44.553593" lon="34.298504">
<ele>78.102600</ele>
<time>2011-10-13T08:25:42Z</time>
<desc>lat.=44.553593, lon.=34.298504, Alt.=78.102600m. Speed=0.324000m/h.</desc>
<speed>0.090000</speed>
</trkpt>
<trkpt lat="44.553593" lon="34.298504">
<ele>78.098694</ele>
<time>2011-10-13T08:25:47Z</time>
<desc>lat.=44.553593, lon.=34.298504, Alt.=78.098694m. Speed=0.180000m/h.</desc>
<speed>0.050000</speed>
</trkpt>
<trkpt lat="44.553589" lon="34.298500">
<ele>78.071350</ele>
<time>2011-10-13T08:25:52Z</time>
<desc>lat.=44.553589, lon.=34.298500, Alt.=78.071350m. Speed=0.288000m/h.</desc>
<speed>0.080000</speed>
</trkpt>
<trkpt lat="44.553585" lon="34.298500">
<ele>78.040100</ele>
<time>2011-10-13T08:25:57Z</time>
<desc>lat.=44.553585, lon.=34.298500, Alt.=78.040100m. Speed=0.036000m/h.</desc>
<speed>0.010000</speed>
</trkpt>
<trkpt lat="44.553585" lon="34.298500">
<ele>77.991272</ele>
<time>2011-10-13T08:26:02Z</time>
<desc>lat.=44.553585, lon.=34.298500, Alt.=77.991272m. Speed=0.000000m/h.</desc>
<speed>0.000000</speed>
</trkpt>
<trkpt lat="44.553585" lon="34.298500">
<ele>77.944397</ele>
<time>2011-10-13T08:26:07Z</time>
<desc>lat.=44.553585, lon.=34.298500, Alt.=77.944397m. Speed=0.000000m/h.</desc>
<speed>0.000000</speed>
</trkpt>
<trkpt lat="44.553585" lon="34.298500">
<ele>77.893616</ele>
<time>2011-10-13T08:26:12Z</time>
<desc>lat.=44.553585, lon.=34.298500, Alt.=77.893616m. Speed=0.000000m/h.</desc>
<speed>0.000000</speed>
</trkpt>
<trkpt lat="44.553585" lon="34.298500">
<ele>77.877991</ele>
<time>2011-10-13T08:26:17Z</time>
<desc>lat.=44.553585, lon.=34.298500, Alt.=77.877991m. Speed=0.000000m/h.</desc>
<speed>0.000000</speed>
</trkpt>
<trkpt lat="44.553585" lon="34.298500">
<ele>77.870178</ele>
<time>2011-10-13T08:26:22Z</time>
<desc>lat.=44.553585, lon.=34.298500, Alt.=77.870178m. Speed=0.000000m/h.</desc>
<speed>0.000000</speed>
</trkpt>
<trkpt lat="44.553585" lon="34.298504">
<ele>77.866272</ele>
<time>2011-10-13T08:26:27Z</time>
<desc>lat.=44.553585, lon.=34.298504, Alt.=77.866272m. Speed=0.072000m/h.</desc>
<speed>0.020000</speed>
</trkpt>
<trkpt lat="44.553585" lon="34.298504">
<ele>77.856506</ele>
<time>2011-10-13T08:26:32Z</time>
<desc>lat.=44.553585, lon.=34.298504, Alt.=77.856506m. Speed=0.000000m/h.</desc>
<speed>0.000000</speed>
</trkpt>
<trkpt lat="44.553585" lon="34.298504">
<ele>77.848694</ele>
<time>2011-10-13T08:26:37Z</time>
<desc>lat.=44.553585, lon.=34.298504, Alt.=77.848694m. Speed=0.000000m/h.</desc>
<speed>0.000000</speed>
</trkpt>
<trkpt lat="44.553585" lon="34.298504">
<ele>77.840881</ele>
<time>2011-10-13T08:26:42Z</time>
<desc>lat.=44.553585, lon.=34.298504, Alt.=77.840881m. Speed=0.000000m/h.</desc>
<speed>0.000000</speed>
</trkpt>
<trkpt lat="44.553585" lon="34.298504">
<ele>77.836975</ele>
<time>2011-10-13T08:26:47Z</time>
<desc>lat.=44.553585, lon.=34.298504, Alt.=77.836975m. Speed=0.000000m/h.</desc>
<speed>0.000000</speed>
</trkpt>
<trkpt lat="44.553585" lon="34.298504">
<ele>77.833069</ele>
<time>2011-10-13T08:26:52Z</time>
<desc>lat.=44.553585, lon.=34.298504, Alt.=77.833069m. Speed=0.000000m/h.</desc>
<speed>0.000000</speed>
</trkpt>
<trkpt lat="44.553585" lon="34.298504">
<ele>77.829163</ele>
<time>2011-10-13T08:26:57Z</time>
<desc>lat.=44.553585, lon.=34.298504, Alt.=77.829163m. Speed=0.036000m/h.</desc>
<speed>0.010000</speed>
</trkpt>
<trkpt lat="44.553585" lon="34.298504">
<ele>77.827209</ele>
<time>2011-10-13T08:27:02Z</time>
<desc>lat.=44.553585, lon.=34.298504, Alt.=77.827209m. Speed=0.000000m/h.</desc>
<speed>0.000000</speed>
</trkpt>
<trkpt lat="44.553585" lon="34.298504">
<ele>77.823303</ele>
<time>2011-10-13T08:27:07Z</time>
<desc>lat.=44.553585, lon.=34.298504, Alt.=77.823303m. Speed=0.000000m/h.</desc>
<speed>0.000000</speed>
</trkpt>
<trkpt lat="44.553585" lon="34.298504">
<ele>77.821350</ele>
<time>2011-10-13T08:27:12Z</time>
<desc>lat.=44.553585, lon.=34.298504, Alt.=77.821350m. Speed=0.072000m/h.</desc>
<speed>0.020000</speed>
</trkpt>
<trkpt lat="44.553585" lon="34.298500">
<ele>77.823303</ele>
<time>2011-10-13T08:27:17Z</time>
<desc>lat.=44.553585, lon.=34.298500, Alt.=77.823303m. Speed=0.108000m/h.</desc>
<speed>0.030000</speed>
</trkpt>
<trkpt lat="44.553581" lon="34.298500">
<ele>77.817444</ele>
<time>2011-10-13T08:27:22Z</time>
<desc>lat.=44.553581, lon.=34.298500, Alt.=77.817444m. Speed=0.180000m/h.</desc>
<speed>0.050000</speed>
</trkpt>
<trkpt lat="44.553581" lon="34.298500">
<ele>77.807678</ele>
<time>2011-10-13T08:27:27Z</time>
<desc>lat.=44.553581, lon.=34.298500, Alt.=77.807678m. Speed=0.288000m/h.</desc>
<speed>0.080000</speed>
</trkpt>
<trkpt lat="44.553577" lon="34.298496">
<ele>77.788147</ele>
<time>2011-10-13T08:27:32Z</time>
<desc>lat.=44.553577, lon.=34.298496, Alt.=77.788147m. Speed=0.072000m/h.</desc>
<speed>0.020000</speed>
</trkpt>
<trkpt lat="44.553577" lon="34.298496">
<ele>77.766663</ele>
<time>2011-10-13T08:27:37Z</time>
<desc>lat.=44.553577, lon.=34.298496, Alt.=77.766663m. Speed=0.324000m/h.</desc>
<speed>0.090000</speed>
</trkpt>
<trkpt lat="44.553577" lon="34.298500">
<ele>77.715881</ele>
<time>2011-10-13T08:27:42Z</time>
<desc>lat.=44.553577, lon.=34.298500, Alt.=77.715881m. Speed=0.108000m/h.</desc>
<speed>0.030000</speed>
</trkpt>
<trkpt lat="44.553577" lon="34.298500">
<ele>77.708069</ele>
<time>2011-10-13T08:27:47Z</time>
<desc>lat.=44.553577, lon.=34.298500, Alt.=77.708069m. Speed=0.000000m/h.</desc>
<speed>0.000000</speed>
</trkpt>
<trkpt lat="44.553581" lon="34.298500">
<ele>77.696350</ele>
<time>2011-10-13T08:27:52Z</time>
<desc>lat.=44.553581, lon.=34.298500, Alt.=77.696350m. Speed=0.000000m/h.</desc>
<speed>0.000000</speed>
</trkpt>
<trkpt lat="44.553581" lon="34.298500">
<ele>77.692444</ele>
<time>2011-10-13T08:27:57Z</time>
<desc>lat.=44.553581, lon.=34.298500, Alt.=77.692444m. Speed=0.000000m/h.</desc>
<speed>0.000000</speed>
</trkpt>
<trkpt lat="44.553581" lon="34.298500">
<ele>77.694397</ele>
<time>2011-10-13T08:28:02Z</time>
<desc>lat.=44.553581, lon.=34.298500, Alt.=77.694397m. Speed=0.000000m/h.</desc>
<speed>0.000000</speed>
</trkpt>
<trkpt lat="44.553581" lon="34.298500">
<ele>77.688538</ele>
<time>2011-10-13T08:28:07Z</time>
<desc>lat.=44.553581, lon.=34.298500, Alt.=77.688538m. Speed=0.000000m/h.</desc>
<speed>0.000000</speed>
</trkpt>
<trkpt lat="44.553581" lon="34.298500">
<ele>77.674866</ele>
<time>2011-10-13T08:28:12Z</time>
<desc>lat.=44.553581, lon.=34.298500, Alt.=77.674866m. Speed=0.000000m/h.</desc>
<speed>0.000000</speed>
</trkpt>
<trkpt lat="44.553581" lon="34.298500">
<ele>77.635803</ele>
<time>2011-10-13T08:28:17Z</time>
<desc>lat.=44.553581, lon.=34.298500, Alt.=77.635803m. Speed=0.072000m/h.</desc>
<speed>0.020000</speed>
</trkpt>
<trkpt lat="44.553581" lon="34.298500">
<ele>77.602600</ele>
<time>2011-10-13T08:28:22Z</time>
<desc>lat.=44.553581, lon.=34.298500, Alt.=77.602600m. Speed=0.000000m/h.</desc>
<speed>0.000000</speed>
</trkpt>
<trkpt lat="44.553581" lon="34.298500">
<ele>77.573303</ele>
<time>2011-10-13T08:28:27Z</time>
<desc>lat.=44.553581, lon.=34.298500, Alt.=77.573303m. Speed=0.000000m/h.</desc>
<speed>0.000000</speed>
</trkpt>
<trkpt lat="44.553581" lon="34.298500">
<ele>77.545959</ele>
<time>2011-10-13T08:28:32Z</time>
<desc>lat.=44.553581, lon.=34.298500, Alt.=77.545959m. Speed=0.036000m/h.</desc>
<speed>0.010000</speed>
</trkpt>
<trkpt lat="44.553581" lon="34.298500">
<ele>77.528381</ele>
<time>2011-10-13T08:28:37Z</time>
<desc>lat.=44.553581, lon.=34.298500, Alt.=77.528381m. Speed=0.000000m/h.</desc>
<speed>0.000000</speed>
</trkpt>
<trkpt lat="44.553581" lon="34.298500">
<ele>77.499084</ele>
<time>2011-10-13T08:28:42Z</time>
<desc>lat.=44.553581, lon.=34.298500, Alt.=77.499084m. Speed=0.000000m/h.</desc>
<speed>0.000000</speed>
</trkpt>
<trkpt lat="44.553581" lon="34.298500">
<ele>77.467834</ele>
<time>2011-10-13T08:28:47Z</time>
<desc>lat.=44.553581, lon.=34.298500, Alt.=77.467834m. Speed=0.036000m/h.</desc>
<speed>0.010000</speed>
</trkpt>
<trkpt lat="44.553581" lon="34.298500">
<ele>77.440491</ele>
<time>2011-10-13T08:28:52Z</time>
<desc>lat.=44.553581, lon.=34.298500, Alt.=77.440491m. Speed=0.000000m/h.</desc>
<speed>0.000000</speed>
</trkpt>
<trkpt lat="44.553581" lon="34.298500">
<ele>77.417053</ele>
<time>2011-10-13T08:28:57Z</time>
<desc>lat.=44.553581, lon.=34.298500, Alt.=77.417053m. Speed=0.000000m/h.</desc>
<speed>0.000000</speed>
</trkpt>
<trkpt lat="44.553581" lon="34.298500">
<ele>77.393616</ele>
<time>2011-10-13T08:29:02Z</time>
<desc>lat.=44.553581, lon.=34.298500, Alt.=77.393616m. Speed=0.000000m/h.</desc>
<speed>0.000000</speed>
</trkpt>
<trkpt lat="44.553581" lon="34.298500">
<ele>77.372131</ele>
<time>2011-10-13T08:29:07Z</time>
<desc>lat.=44.553581, lon.=34.298500, Alt.=77.372131m. Speed=0.000000m/h.</desc>
<speed>0.000000</speed>
</trkpt>
<trkpt lat="44.553581" lon="34.298500">
<ele>77.354553</ele>
<time>2011-10-13T08:29:12Z</time>
<desc>lat.=44.553581, lon.=34.298500, Alt.=77.354553m. Speed=0.000000m/h.</desc>
<speed>0.000000</speed>
</trkpt>
<trkpt lat="44.553581" lon="34.298500">
<ele>77.340881</ele>
<time>2011-10-13T08:29:17Z</time>
<desc>lat.=44.553581, lon.=34.298500, Alt.=77.340881m. Speed=0.000000m/h.</desc>
<speed>0.000000</speed>
</trkpt>
<trkpt lat="44.553581" lon="34.298500">
<ele>77.329163</ele>
<time>2011-10-13T08:29:22Z</time>
<desc>lat.=44.553581, lon.=34.298500, Alt.=77.329163m. Speed=0.000000m/h.</desc>
<speed>0.000000</speed>
</trkpt>
<trkpt lat="44.553581" lon="34.298500">
<ele>77.315491</ele>
<time>2011-10-13T08:29:27Z</time>
<desc>lat.=44.553581, lon.=34.298500, Alt.=77.315491m. Speed=0.000000m/h.</desc>
<speed>0.000000</speed>
</trkpt>
<trkpt lat="44.553581" lon="34.298500">
<ele>77.303772</ele>
<time>2011-10-13T08:29:32Z</time>
<desc>lat.=44.553581, lon.=34.298500, Alt.=77.303772m. Speed=0.000000m/h.</desc>
<speed>0.000000</speed>
</trkpt>
<trkpt lat="44.553581" lon="34.298500">
<ele>77.292053</ele>
<time>2011-10-13T08:29:37Z</time>
<desc>lat.=44.553581, lon.=34.298500, Alt.=77.292053m. Speed=0.036000m/h.</desc>
<speed>0.010000</speed>
</trkpt>
<trkpt lat="44.553581" lon="34.298500">
<ele>77.282288</ele>
<time>2011-10-13T08:29:42Z</time>
<desc>lat.=44.553581, lon.=34.298500, Alt.=77.282288m. Speed=0.000000m/h.</desc>
<speed>0.000000</speed>
</trkpt>
<trkpt lat="44.553581" lon="34.298500">
<ele>77.278381</ele>
<time>2011-10-13T08:29:47Z</time>
<desc>lat.=44.553581, lon.=34.298500, Alt.=77.278381m. Speed=0.000000m/h.</desc>
<speed>0.000000</speed>
</trkpt>
<trkpt lat="44.553581" lon="34.298500">
<ele>77.274475</ele>
<time>2011-10-13T08:29:52Z</time>
<desc>lat.=44.553581, lon.=34.298500, Alt.=77.274475m. Speed=0.000000m/h.</desc>
<speed>0.000000</speed>
</trkpt>
<trkpt lat="44.553581" lon="34.298500">
<ele>77.270569</ele>
<time>2011-10-13T08:29:57Z</time>
<desc>lat.=44.553581, lon.=34.298500, Alt.=77.270569m. Speed=0.072000m/h.</desc>
<speed>0.020000</speed>
</trkpt>
<trkpt lat="44.553581" lon="34.298500">
<ele>77.274475</ele>
<time>2011-10-13T08:30:02Z</time>
<desc>lat.=44.553581, lon.=34.298500, Alt.=77.274475m. Speed=0.000000m/h.</desc>
<speed>0.000000</speed>
</trkpt>
<trkpt lat="44.553581" lon="34.298500">
<ele>77.274475</ele>
<time>2011-10-13T08:30:07Z</time>
<desc>lat.=44.553581, lon.=34.298500, Alt.=77.274475m. Speed=0.000000m/h.</desc>
<speed>0.000000</speed>
</trkpt>
<trkpt lat="44.553581" lon="34.298500">
<ele>77.276428</ele>
<time>2011-10-13T08:30:12Z</time>
<desc>lat.=44.553581, lon.=34.298500, Alt.=77.276428m. Speed=0.000000m/h.</desc>
<speed>0.000000</speed>
</trkpt>
<trkpt lat="44.553581" lon="34.298500">
<ele>77.278381</ele>
<time>2011-10-13T08:30:17Z</time>
<desc>lat.=44.553581, lon.=34.298500, Alt.=77.278381m. Speed=0.000000m/h.</desc>
<speed>0.000000</speed>
</trkpt>
<trkpt lat="44.553581" lon="34.298500">
<ele>77.278381</ele>
<time>2011-10-13T08:30:22Z</time>
<desc>lat.=44.553581, lon.=34.298500, Alt.=77.278381m. Speed=0.000000m/h.</desc>
<speed>0.000000</speed>
</trkpt>
<trkpt lat="44.553581" lon="34.298500">
<ele>77.278381</ele>
<time>2011-10-13T08:30:27Z</time>
<desc>lat.=44.553581, lon.=34.298500, Alt.=77.278381m. Speed=0.000000m/h.</desc>
<speed>0.000000</speed>
</trkpt>
<trkpt lat="44.553581" lon="34.298500">
<ele>77.272522</ele>
<time>2011-10-13T08:30:32Z</time>
<desc>lat.=44.553581, lon.=34.298500, Alt.=77.272522m. Speed=0.072000m/h.</desc>
<speed>0.020000</speed>
</trkpt>
<trkpt lat="44.553581" lon="34.298500">
<ele>77.251038</ele>
<time>2011-10-13T08:30:37Z</time>
<desc>lat.=44.553581, lon.=34.298500, Alt.=77.251038m. Speed=0.000000m/h.</desc>
<speed>0.000000</speed>
</trkpt>
<trkpt lat="44.553581" lon="34.298500">
<ele>77.227600</ele>
<time>2011-10-13T08:30:42Z</time>
<desc>lat.=44.553581, lon.=34.298500, Alt.=77.227600m. Speed=0.000000m/h.</desc>
<speed>0.000000</speed>
</trkpt>
<trkpt lat="44.553581" lon="34.298500">
<ele>77.196350</ele>
<time>2011-10-13T08:30:47Z</time>
<desc>lat.=44.553581, lon.=34.298500, Alt.=77.196350m. Speed=0.000000m/h.</desc>
<speed>0.000000</speed>
</trkpt>
<trkpt lat="44.553581" lon="34.298500">
<ele>77.172913</ele>
<time>2011-10-13T08:30:52Z</time>
<desc>lat.=44.553581, lon.=34.298500, Alt.=77.172913m. Speed=0.000000m/h.</desc>
<speed>0.000000</speed>
</trkpt>
<trkpt lat="44.553581" lon="34.298500">
<ele>77.155334</ele>
<time>2011-10-13T08:30:57Z</time>
<desc>lat.=44.553581, lon.=34.298500, Alt.=77.155334m. Speed=0.000000m/h.</desc>
<speed>0.000000</speed>
</trkpt>
<trkpt lat="44.553581" lon="34.298500">
<ele>77.127991</ele>
<time>2011-10-13T08:31:02Z</time>
<desc>lat.=44.553581, lon.=34.298500, Alt.=77.127991m. Speed=0.108000m/h.</desc>
<speed>0.030000</speed>
</trkpt>
<trkpt lat="44.553581" lon="34.298500">
<ele>77.094788</ele>
<time>2011-10-13T08:31:07Z</time>
<desc>lat.=44.553581, lon.=34.298500, Alt.=77.094788m. Speed=0.036000m/h.</desc>
<speed>0.010000</speed>
</trkpt>
<trkpt lat="44.553581" lon="34.298500">
<ele>77.073303</ele>
<time>2011-10-13T08:31:12Z</time>
<desc>lat.=44.553581, lon.=34.298500, Alt.=77.073303m. Speed=0.000000m/h.</desc>
<speed>0.000000</speed>
</trkpt>
<trkpt lat="44.553581" lon="34.298500">
<ele>77.069397</ele>
<time>2011-10-13T08:31:17Z</time>
<desc>lat.=44.553581, lon.=34.298500, Alt.=77.069397m. Speed=0.000000m/h.</desc>
<speed>0.000000</speed>
</trkpt>
<trkpt lat="44.553581" lon="34.298500">
<ele>77.061584</ele>
<time>2011-10-13T08:31:22Z</time>
<desc>lat.=44.553581, lon.=34.298500, Alt.=77.061584m. Speed=0.000000m/h.</desc>
<speed>0.000000</speed>
</trkpt>
<trkpt lat="44.553581" lon="34.298500">
<ele>77.026428</ele>
<time>2011-10-13T08:31:27Z</time>
<desc>lat.=44.553581, lon.=34.298500, Alt.=77.026428m. Speed=0.000000m/h.</desc>
<speed>0.000000</speed>
</trkpt>
<trkpt lat="44.553581" lon="34.298500">
<ele>77.006897</ele>
<time>2011-10-13T08:31:32Z</time>
<desc>lat.=44.553581, lon.=34.298500, Alt.=77.006897m. Speed=0.000000m/h.</desc>
<speed>0.000000</speed>
</trkpt>
<trkpt lat="44.553581" lon="34.298500">
<ele>76.979553</ele>
<time>2011-10-13T08:31:37Z</time>
<desc>lat.=44.553581, lon.=34.298500, Alt.=76.979553m. Speed=0.036000m/h.</desc>
<speed>0.010000</speed>
</trkpt>
<trkpt lat="44.553581" lon="34.298500">
<ele>76.950256</ele>
<time>2011-10-13T08:31:42Z</time>
<desc>lat.=44.553581, lon.=34.298500, Alt.=76.950256m. Speed=0.000000m/h.</desc>
<speed>0.000000</speed>
</trkpt>
<trkpt lat="44.553581" lon="34.298500">
<ele>76.924866</ele>
<time>2011-10-13T08:31:47Z</time>
<desc>lat.=44.553581, lon.=34.298500, Alt.=76.924866m. Speed=0.000000m/h.</desc>
<speed>0.000000</speed>
</trkpt>
<trkpt lat="44.553585" lon="34.298500">
<ele>76.907288</ele>
<time>2011-10-13T08:31:52Z</time>
<desc>lat.=44.553585, lon.=34.298500, Alt.=76.907288m. Speed=0.000000m/h.</desc>
<speed>0.000000</speed>
</trkpt>
<trkpt lat="44.553585" lon="34.298500">
<ele>76.909241</ele>
<time>2011-10-13T08:31:57Z</time>
<desc>lat.=44.553585, lon.=34.298500, Alt.=76.909241m. Speed=0.036000m/h.</desc>
<speed>0.010000</speed>
</trkpt>
<trkpt lat="44.553585" lon="34.298500">
<ele>76.961975</ele>
<time>2011-10-13T08:32:02Z</time>
<desc>lat.=44.553585, lon.=34.298500, Alt.=76.961975m. Speed=0.000000m/h.</desc>
<speed>0.000000</speed>
</trkpt>
<trkpt lat="44.553585" lon="34.298500">
<ele>77.010803</ele>
<time>2011-10-13T08:32:07Z</time>
<desc>lat.=44.553585, lon.=34.298500, Alt.=77.010803m. Speed=0.000000m/h.</desc>
<speed>0.000000</speed>
</trkpt>
<trkpt lat="44.553585" lon="34.298500">
<ele>77.020569</ele>
<time>2011-10-13T08:32:12Z</time>
<desc>lat.=44.553585, lon.=34.298500, Alt.=77.020569m. Speed=0.000000m/h.</desc>
<speed>0.000000</speed>
</trkpt>
<trkpt lat="44.553585" lon="34.298500">
<ele>77.024475</ele>
<time>2011-10-13T08:32:17Z</time>
<desc>lat.=44.553585, lon.=34.298500, Alt.=77.024475m. Speed=0.000000m/h.</desc>
<speed>0.000000</speed>
</trkpt>
<trkpt lat="44.553585" lon="34.298500">
<ele>77.030334</ele>
<time>2011-10-13T08:32:22Z</time>
<desc>lat.=44.553585, lon.=34.298500, Alt.=77.030334m. Speed=0.000000m/h.</desc>
<speed>0.000000</speed>
</trkpt>
<trkpt lat="44.553585" lon="34.298500">
<ele>77.032288</ele>
<time>2011-10-13T08:32:27Z</time>
<desc>lat.=44.553585, lon.=34.298500, Alt.=77.032288m. Speed=0.000000m/h.</desc>
<speed>0.000000</speed>
</trkpt>
<trkpt lat="44.553585" lon="34.298500">
<ele>77.038147</ele>
<time>2011-10-13T08:32:32Z</time>
<desc>lat.=44.553585, lon.=34.298500, Alt.=77.038147m. Speed=0.000000m/h.</desc>
<speed>0.000000</speed>
</trkpt>
<trkpt lat="44.553589" lon="34.298500">
<ele>77.030334</ele>
<time>2011-10-13T08:32:37Z</time>
<desc>lat.=44.553589, lon.=34.298500, Alt.=77.030334m. Speed=0.000000m/h.</desc>
<speed>0.000000</speed>
</trkpt>
<trkpt lat="44.553589" lon="34.298500">
<ele>77.026428</ele>
<time>2011-10-13T08:32:42Z</time>
<desc>lat.=44.553589, lon.=34.298500, Alt.=77.026428m. Speed=0.072000m/h.</desc>
<speed>0.020000</speed>
</trkpt>
<trkpt lat="44.553589" lon="34.298500">
<ele>77.026428</ele>
<time>2011-10-13T08:32:47Z</time>
<desc>lat.=44.553589, lon.=34.298500, Alt.=77.026428m. Speed=0.036000m/h.</desc>
<speed>0.010000</speed>
</trkpt>
<trkpt lat="44.553589" lon="34.298500">
<ele>77.028381</ele>
<time>2011-10-13T08:32:52Z</time>
<desc>lat.=44.553589, lon.=34.298500, Alt.=77.028381m. Speed=0.000000m/h.</desc>
<speed>0.000000</speed>
</trkpt>
<trkpt lat="44.553589" lon="34.298500">
<ele>77.045959</ele>
<time>2011-10-13T08:32:57Z</time>
<desc>lat.=44.553589, lon.=34.298500, Alt.=77.045959m. Speed=0.036000m/h.</desc>
<speed>0.010000</speed>
</trkpt>
<trkpt lat="44.553589" lon="34.298500">
<ele>77.059631</ele>
<time>2011-10-13T08:33:02Z</time>
<desc>lat.=44.553589, lon.=34.298500, Alt.=77.059631m. Speed=0.000000m/h.</desc>
<speed>0.000000</speed>
</trkpt>
<trkpt lat="44.553589" lon="34.298504">
<ele>77.067444</ele>
<time>2011-10-13T08:33:07Z</time>
<desc>lat.=44.553589, lon.=34.298504, Alt.=77.067444m. Speed=0.000000m/h.</desc>
<speed>0.000000</speed>
</trkpt>
<trkpt lat="44.553589" lon="34.298504">
<ele>77.067444</ele>
<time>2011-10-13T08:33:12Z</time>
<desc>lat.=44.553589, lon.=34.298504, Alt.=77.067444m. Speed=0.036000m/h.</desc>
<speed>0.010000</speed>
</trkpt>
<trkpt lat="44.553589" lon="34.298504">
<ele>77.081116</ele>
<time>2011-10-13T08:33:17Z</time>
<desc>lat.=44.553589, lon.=34.298504, Alt.=77.081116m. Speed=0.000000m/h.</desc>
<speed>0.000000</speed>
</trkpt>
<trkpt lat="44.553589" lon="34.298504">
<ele>77.106506</ele>
<time>2011-10-13T08:33:22Z</time>
<desc>lat.=44.553589, lon.=34.298504, Alt.=77.106506m. Speed=0.000000m/h.</desc>
<speed>0.000000</speed>
</trkpt>
<trkpt lat="44.553589" lon="34.298504">
<ele>77.131897</ele>
<time>2011-10-13T08:33:27Z</time>
<desc>lat.=44.553589, lon.=34.298504, Alt.=77.131897m. Speed=0.000000m/h.</desc>
<speed>0.000000</speed>
</trkpt>
<trkpt lat="44.553589" lon="34.298504">
<ele>77.157288</ele>
<time>2011-10-13T08:33:32Z</time>
<desc>lat.=44.553589, lon.=34.298504, Alt.=77.157288m. Speed=0.000000m/h.</desc>
<speed>0.000000</speed>
</trkpt>
<trkpt lat="44.553589" lon="34.298504">
<ele>77.176819</ele>
<time>2011-10-13T08:33:37Z</time>
<desc>lat.=44.553589, lon.=34.298504, Alt.=77.176819m. Speed=0.072000m/h.</desc>
<speed>0.020000</speed>
</trkpt>
<trkpt lat="44.553593" lon="34.298504">
<ele>77.186584</ele>
<time>2011-10-13T08:33:42Z</time>
<desc>lat.=44.553593, lon.=34.298504, Alt.=77.186584m. Speed=0.000000m/h.</desc>
<speed>0.000000</speed>
</trkpt>
<trkpt lat="44.553593" lon="34.298504">
<ele>77.165100</ele>
<time>2011-10-13T08:33:47Z</time>
<desc>lat.=44.553593, lon.=34.298504, Alt.=77.165100m. Speed=0.000000m/h.</desc>
<speed>0.000000</speed>
</trkpt>
<trkpt lat="44.553593" lon="34.298504">
<ele>77.143616</ele>
<time>2011-10-13T08:33:52Z</time>
<desc>lat.=44.553593, lon.=34.298504, Alt.=77.143616m. Speed=0.000000m/h.</desc>
<speed>0.000000</speed>
</trkpt>
<trkpt lat="44.553593" lon="34.298504">
<ele>77.127991</ele>
<time>2011-10-13T08:33:57Z</time>
<desc>lat.=44.553593, lon.=34.298504, Alt.=77.127991m. Speed=0.000000m/h.</desc>
<speed>0.000000</speed>
</trkpt>
<trkpt lat="44.553593" lon="34.298504">
<ele>77.108459</ele>
<time>2011-10-13T08:34:02Z</time>
<desc>lat.=44.553593, lon.=34.298504, Alt.=77.108459m. Speed=0.000000m/h.</desc>
<speed>0.000000</speed>
</trkpt>
<trkpt lat="44.553593" lon="34.298504">
<ele>77.098694</ele>
<time>2011-10-13T08:34:07Z</time>
<desc>lat.=44.553593, lon.=34.298504, Alt.=77.098694m. Speed=0.036000m/h.</desc>
<speed>0.010000</speed>
</trkpt>
<trkpt lat="44.553593" lon="34.298504">
<ele>77.085022</ele>
<time>2011-10-13T08:34:12Z</time>
<desc>lat.=44.553593, lon.=34.298504, Alt.=77.085022m. Speed=0.000000m/h.</desc>
<speed>0.000000</speed>
</trkpt>
<trkpt lat="44.553593" lon="34.298504">
<ele>77.063538</ele>
<time>2011-10-13T08:34:17Z</time>
<desc>lat.=44.553593, lon.=34.298504, Alt.=77.063538m. Speed=0.000000m/h.</desc>
<speed>0.000000</speed>
</trkpt>
<trkpt lat="44.553593" lon="34.298504">
<ele>77.051819</ele>
<time>2011-10-13T08:34:22Z</time>
<desc>lat.=44.553593, lon.=34.298504, Alt.=77.051819m. Speed=0.036000m/h.</desc>
<speed>0.010000</speed>
</trkpt>
<trkpt lat="44.553593" lon="34.298504">
<ele>77.038147</ele>
<time>2011-10-13T08:34:27Z</time>
<desc>lat.=44.553593, lon.=34.298504, Alt.=77.038147m. Speed=0.000000m/h.</desc>
<speed>0.000000</speed>
</trkpt>
<trkpt lat="44.553593" lon="34.298504">
<ele>77.024475</ele>
<time>2011-10-13T08:34:32Z</time>
<desc>lat.=44.553593, lon.=34.298504, Alt.=77.024475m. Speed=0.036000m/h.</desc>
<speed>0.010000</speed>
</trkpt>
<trkpt lat="44.553593" lon="34.298504">
<ele>77.008850</ele>
<time>2011-10-13T08:34:37Z</time>
<desc>lat.=44.553593, lon.=34.298504, Alt.=77.008850m. Speed=0.000000m/h.</desc>
<speed>0.000000</speed>
</trkpt>
<trkpt lat="44.553593" lon="34.298504">
<ele>76.991272</ele>
<time>2011-10-13T08:34:42Z</time>
<desc>lat.=44.553593, lon.=34.298504, Alt.=76.991272m. Speed=0.000000m/h.</desc>
<speed>0.000000</speed>
</trkpt>
<trkpt lat="44.553593" lon="34.298504">
<ele>76.975647</ele>
<time>2011-10-13T08:34:47Z</time>
<desc>lat.=44.553593, lon.=34.298504, Alt.=76.975647m. Speed=0.036000m/h.</desc>
<speed>0.010000</speed>
</trkpt>
<trkpt lat="44.553593" lon="34.298504">
<ele>76.960022</ele>
<time>2011-10-13T08:34:52Z</time>
<desc>lat.=44.553593, lon.=34.298504, Alt.=76.960022m. Speed=0.036000m/h.</desc>
<speed>0.010000</speed>
</trkpt>
<trkpt lat="44.553593" lon="34.298504">
<ele>76.948303</ele>
<time>2011-10-13T08:34:57Z</time>
<desc>lat.=44.553593, lon.=34.298504, Alt.=76.948303m. Speed=0.036000m/h.</desc>
<speed>0.010000</speed>
</trkpt>
<trkpt lat="44.553593" lon="34.298504">
<ele>76.934631</ele>
<time>2011-10-13T08:35:02Z</time>
<desc>lat.=44.553593, lon.=34.298504, Alt.=76.934631m. Speed=0.000000m/h.</desc>
<speed>0.000000</speed>
</trkpt>
<trkpt lat="44.553593" lon="34.298504">
<ele>76.926819</ele>
<time>2011-10-13T08:35:07Z</time>
<desc>lat.=44.553593, lon.=34.298504, Alt.=76.926819m. Speed=0.000000m/h.</desc>
<speed>0.000000</speed>
</trkpt>
<trkpt lat="44.553593" lon="34.298504">
<ele>76.920959</ele>
<time>2011-10-13T08:35:12Z</time>
<desc>lat.=44.553593, lon.=34.298504, Alt.=76.920959m. Speed=0.000000m/h.</desc>
<speed>0.000000</speed>
</trkpt>
<trkpt lat="44.553593" lon="34.298504">
<ele>76.897522</ele>
<time>2011-10-13T08:35:17Z</time>
<desc>lat.=44.553593, lon.=34.298504, Alt.=76.897522m. Speed=0.000000m/h.</desc>
<speed>0.000000</speed>
</trkpt>
<trkpt lat="44.553593" lon="34.298504">
<ele>76.858459</ele>
<time>2011-10-13T08:35:22Z</time>
<desc>lat.=44.553593, lon.=34.298504, Alt.=76.858459m. Speed=0.036000m/h.</desc>
<speed>0.010000</speed>
</trkpt>
<trkpt lat="44.553593" lon="34.298504">
<ele>76.846741</ele>
<time>2011-10-13T08:35:27Z</time>
<desc>lat.=44.553593, lon.=34.298504, Alt.=76.846741m. Speed=0.000000m/h.</desc>
<speed>0.000000</speed>
</trkpt>
<trkpt lat="44.553593" lon="34.298504">
<ele>76.819397</ele>
<time>2011-10-13T08:35:32Z</time>
<desc>lat.=44.553593, lon.=34.298504, Alt.=76.819397m. Speed=0.000000m/h.</desc>
<speed>0.000000</speed>
</trkpt>
<trkpt lat="44.553593" lon="34.298504">
<ele>76.805725</ele>
<time>2011-10-13T08:35:37Z</time>
<desc>lat.=44.553593, lon.=34.298504, Alt.=76.805725m. Speed=0.000000m/h.</desc>
<speed>0.000000</speed>
</trkpt>
<trkpt lat="44.553593" lon="34.298504">
<ele>76.788147</ele>
<time>2011-10-13T08:35:42Z</time>
<desc>lat.=44.553593, lon.=34.298504, Alt.=76.788147m. Speed=0.000000m/h.</desc>
<speed>0.000000</speed>
</trkpt>
<trkpt lat="44.553593" lon="34.298504">
<ele>76.764709</ele>
<time>2011-10-13T08:35:47Z</time>
<desc>lat.=44.553593, lon.=34.298504, Alt.=76.764709m. Speed=0.000000m/h.</desc>
<speed>0.000000</speed>
</trkpt>
<trkpt lat="44.553593" lon="34.298504">
<ele>76.735413</ele>
<time>2011-10-13T08:35:52Z</time>
<desc>lat.=44.553593, lon.=34.298504, Alt.=76.735413m. Speed=0.036000m/h.</desc>
<speed>0.010000</speed>
</trkpt>
<trkpt lat="44.553593" lon="34.298504">
<ele>76.723694</ele>
<time>2011-10-13T08:35:57Z</time>
<desc>lat.=44.553593, lon.=34.298504, Alt.=76.723694m. Speed=0.000000m/h.</desc>
<speed>0.000000</speed>
</trkpt>
<trkpt lat="44.553593" lon="34.298504">
<ele>76.711975</ele>
<time>2011-10-13T08:36:02Z</time>
<desc>lat.=44.553593, lon.=34.298504, Alt.=76.711975m. Speed=0.072000m/h.</desc>
<speed>0.020000</speed>
</trkpt>
<trkpt lat="44.553593" lon="34.298508">
<ele>76.700256</ele>
<time>2011-10-13T08:36:07Z</time>
<desc>lat.=44.553593, lon.=34.298508, Alt.=76.700256m. Speed=0.000000m/h.</desc>
<speed>0.000000</speed>
</trkpt>
<trkpt lat="44.553593" lon="34.298508">
<ele>76.688538</ele>
<time>2011-10-13T08:36:12Z</time>
<desc>lat.=44.553593, lon.=34.298508, Alt.=76.688538m. Speed=0.036000m/h.</desc>
<speed>0.010000</speed>
</trkpt>
<trkpt lat="44.553593" lon="34.298508">
<ele>76.682678</ele>
<time>2011-10-13T08:36:17Z</time>
<desc>lat.=44.553593, lon.=34.298508, Alt.=76.682678m. Speed=0.000000m/h.</desc>
<speed>0.000000</speed>
</trkpt>
<trkpt lat="44.553593" lon="34.298508">
<ele>76.682678</ele>
<time>2011-10-13T08:36:22Z</time>
<desc>lat.=44.553593, lon.=34.298508, Alt.=76.682678m. Speed=0.000000m/h.</desc>
<speed>0.000000</speed>
</trkpt>
<trkpt lat="44.553593" lon="34.298508">
<ele>76.688538</ele>
<time>2011-10-13T08:36:27Z</time>
<desc>lat.=44.553593, lon.=34.298508, Alt.=76.688538m. Speed=0.036000m/h.</desc>
<speed>0.010000</speed>
</trkpt>
<trkpt lat="44.553593" lon="34.298508">
<ele>76.694397</ele>
<time>2011-10-13T08:36:32Z</time>
<desc>lat.=44.553593, lon.=34.298508, Alt.=76.694397m. Speed=0.108000m/h.</desc>
<speed>0.030000</speed>
</trkpt>
<trkpt lat="44.553593" lon="34.298508">
<ele>76.702209</ele>
<time>2011-10-13T08:36:37Z</time>
<desc>lat.=44.553593, lon.=34.298508, Alt.=76.702209m. Speed=0.180000m/h.</desc>
<speed>0.050000</speed>
</trkpt>
<trkpt lat="44.553596" lon="34.298512">
<ele>76.708069</ele>
<time>2011-10-13T08:36:42Z</time>
<desc>lat.=44.553596, lon.=34.298512, Alt.=76.708069m. Speed=0.324000m/h.</desc>
<speed>0.090000</speed>
</trkpt>
<trkpt lat="44.553600" lon="34.298512">
<ele>76.715881</ele>
<time>2011-10-13T08:36:47Z</time>
<desc>lat.=44.553600, lon.=34.298512, Alt.=76.715881m. Speed=0.360000m/h.</desc>
<speed>0.100000</speed>
</trkpt>
<trkpt lat="44.553604" lon="34.298515">
<ele>76.719788</ele>
<time>2011-10-13T08:36:52Z</time>
<desc>lat.=44.553604, lon.=34.298515, Alt.=76.719788m. Speed=0.288000m/h.</desc>
<speed>0.080000</speed>
</trkpt>
<trkpt lat="44.553608" lon="34.298515">
<ele>76.721741</ele>
<time>2011-10-13T08:36:57Z</time>
<desc>lat.=44.553608, lon.=34.298515, Alt.=76.721741m. Speed=0.144000m/h.</desc>
<speed>0.040000</speed>
</trkpt>
<trkpt lat="44.553608" lon="34.298519">
<ele>76.719788</ele>
<time>2011-10-13T08:37:02Z</time>
<desc>lat.=44.553608, lon.=34.298519, Alt.=76.719788m. Speed=0.324000m/h.</desc>
<speed>0.090000</speed>
</trkpt>
<trkpt lat="44.553612" lon="34.298519">
<ele>76.721741</ele>
<time>2011-10-13T08:37:07Z</time>
<desc>lat.=44.553612, lon.=34.298519, Alt.=76.721741m. Speed=0.396000m/h.</desc>
<speed>0.110000</speed>
</trkpt>
<trkpt lat="44.553616" lon="34.298523">
<ele>76.723694</ele>
<time>2011-10-13T08:37:12Z</time>
<desc>lat.=44.553616, lon.=34.298523, Alt.=76.723694m. Speed=0.216000m/h.</desc>
<speed>0.060000</speed>
</trkpt>
<trkpt lat="44.553619" lon="34.298523">
<ele>76.723694</ele>
<time>2011-10-13T08:37:17Z</time>
<desc>lat.=44.553619, lon.=34.298523, Alt.=76.723694m. Speed=0.000000m/h.</desc>
<speed>0.000000</speed>
</trkpt>
<trkpt lat="44.553619" lon="34.298523">
<ele>76.727600</ele>
<time>2011-10-13T08:37:22Z</time>
<desc>lat.=44.553619, lon.=34.298523, Alt.=76.727600m. Speed=0.000000m/h.</desc>
<speed>0.000000</speed>
</trkpt>
<trkpt lat="44.553619" lon="34.298523">
<ele>76.729553</ele>
<time>2011-10-13T08:37:27Z</time>
<desc>lat.=44.553619, lon.=34.298523, Alt.=76.729553m. Speed=0.000000m/h.</desc>
<speed>0.000000</speed>
</trkpt>
<trkpt lat="44.553619" lon="34.298523">
<ele>76.729553</ele>
<time>2011-10-13T08:37:32Z</time>
<desc>lat.=44.553619, lon.=34.298523, Alt.=76.729553m. Speed=0.000000m/h.</desc>
<speed>0.000000</speed>
</trkpt>
<trkpt lat="44.553619" lon="34.298523">
<ele>76.729553</ele>
<time>2011-10-13T08:37:37Z</time>
<desc>lat.=44.553619, lon.=34.298523, Alt.=76.729553m. Speed=0.000000m/h.</desc>
<speed>0.000000</speed>
</trkpt>
<trkpt lat="44.553619" lon="34.298523">
<ele>76.723694</ele>
<time>2011-10-13T08:37:42Z</time>
<desc>lat.=44.553619, lon.=34.298523, Alt.=76.723694m. Speed=0.072000m/h.</desc>
<speed>0.020000</speed>
</trkpt>
<trkpt lat="44.553619" lon="34.298523">
<ele>76.708069</ele>
<time>2011-10-13T08:37:47Z</time>
<desc>lat.=44.553619, lon.=34.298523, Alt.=76.708069m. Speed=0.036000m/h.</desc>
<speed>0.010000</speed>
</trkpt>
<trkpt lat="44.553619" lon="34.298523">
<ele>76.678772</ele>
<time>2011-10-13T08:37:52Z</time>
<desc>lat.=44.553619, lon.=34.298523, Alt.=76.678772m. Speed=0.000000m/h.</desc>
<speed>0.000000</speed>
</trkpt>
<trkpt lat="44.553619" lon="34.298523">
<ele>76.641663</ele>
<time>2011-10-13T08:37:57Z</time>
<desc>lat.=44.553619, lon.=34.298523, Alt.=76.641663m. Speed=0.036000m/h.</desc>
<speed>0.010000</speed>
</trkpt>
<trkpt lat="44.553616" lon="34.298523">
<ele>76.608459</ele>
<time>2011-10-13T08:38:02Z</time>
<desc>lat.=44.553616, lon.=34.298523, Alt.=76.608459m. Speed=0.000000m/h.</desc>
<speed>0.000000</speed>
</trkpt>
<trkpt lat="44.553616" lon="34.298523">
<ele>76.579163</ele>
<time>2011-10-13T08:38:07Z</time>
<desc>lat.=44.553616, lon.=34.298523, Alt.=76.579163m. Speed=0.036000m/h.</desc>
<speed>0.010000</speed>
</trkpt>
<trkpt lat="44.553616" lon="34.298523">
<ele>76.555725</ele>
<time>2011-10-13T08:38:12Z</time>
<desc>lat.=44.553616, lon.=34.298523, Alt.=76.555725m. Speed=0.000000m/h.</desc>
<speed>0.000000</speed>
</trkpt>
<trkpt lat="44.553616" lon="34.298523">
<ele>76.530334</ele>
<time>2011-10-13T08:38:17Z</time>
<desc>lat.=44.553616, lon.=34.298523, Alt.=76.530334m. Speed=0.000000m/h.</desc>
<speed>0.000000</speed>
</trkpt>
<trkpt lat="44.553616" lon="34.298523">
<ele>76.506897</ele>
<time>2011-10-13T08:38:22Z</time>
<desc>lat.=44.553616, lon.=34.298523, Alt.=76.506897m. Speed=0.036000m/h.</desc>
<speed>0.010000</speed>
</trkpt>
<trkpt lat="44.553616" lon="34.298523">
<ele>76.481506</ele>
<time>2011-10-13T08:38:27Z</time>
<desc>lat.=44.553616, lon.=34.298523, Alt.=76.481506m. Speed=0.000000m/h.</desc>
<speed>0.000000</speed>
</trkpt>
<trkpt lat="44.553616" lon="34.298523">
<ele>76.460022</ele>
<time>2011-10-13T08:38:32Z</time>
<desc>lat.=44.553616, lon.=34.298523, Alt.=76.460022m. Speed=0.036000m/h.</desc>
<speed>0.010000</speed>
</trkpt>
<trkpt lat="44.553616" lon="34.298523">
<ele>76.430725</ele>
<time>2011-10-13T08:38:37Z</time>
<desc>lat.=44.553616, lon.=34.298523, Alt.=76.430725m. Speed=0.000000m/h.</desc>
<speed>0.000000</speed>
</trkpt>
<trkpt lat="44.553616" lon="34.298519">
<ele>76.395569</ele>
<time>2011-10-13T08:38:42Z</time>
<desc>lat.=44.553616, lon.=34.298519, Alt.=76.395569m. Speed=0.072000m/h.</desc>
<speed>0.020000</speed>
</trkpt>
<trkpt lat="44.553616" lon="34.298519">
<ele>76.372131</ele>
<time>2011-10-13T08:38:47Z</time>
<desc>lat.=44.553616, lon.=34.298519, Alt.=76.372131m. Speed=0.000000m/h.</desc>
<speed>0.000000</speed>
</trkpt>
<trkpt lat="44.553616" lon="34.298519">
<ele>76.350647</ele>
<time>2011-10-13T08:38:52Z</time>
<desc>lat.=44.553616, lon.=34.298519, Alt.=76.350647m. Speed=0.000000m/h.</desc>
<speed>0.000000</speed>
</trkpt>
<trkpt lat="44.553616" lon="34.298519">
<ele>76.329163</ele>
<time>2011-10-13T08:38:57Z</time>
<desc>lat.=44.553616, lon.=34.298519, Alt.=76.329163m. Speed=0.000000m/h.</desc>
<speed>0.000000</speed>
</trkpt>
<trkpt lat="44.553616" lon="34.298519">
<ele>76.301819</ele>
<time>2011-10-13T08:39:02Z</time>
<desc>lat.=44.553616, lon.=34.298519, Alt.=76.301819m. Speed=0.036000m/h.</desc>
<speed>0.010000</speed>
</trkpt>
<trkpt lat="44.553616" lon="34.298519">
<ele>76.272522</ele>
<time>2011-10-13T08:39:07Z</time>
<desc>lat.=44.553616, lon.=34.298519, Alt.=76.272522m. Speed=0.000000m/h.</desc>
<speed>0.000000</speed>
</trkpt>
<trkpt lat="44.553616" lon="34.298519">
<ele>76.254944</ele>
<time>2011-10-13T08:39:12Z</time>
<desc>lat.=44.553616, lon.=34.298519, Alt.=76.254944m. Speed=0.000000m/h.</desc>
<speed>0.000000</speed>
</trkpt>
<trkpt lat="44.553616" lon="34.298519">
<ele>76.237366</ele>
<time>2011-10-13T08:39:17Z</time>
<desc>lat.=44.553616, lon.=34.298519, Alt.=76.237366m. Speed=0.072000m/h.</desc>
<speed>0.020000</speed>
</trkpt>
<trkpt lat="44.553616" lon="34.298519">
<ele>76.225647</ele>
<time>2011-10-13T08:39:22Z</time>
<desc>lat.=44.553616, lon.=34.298519, Alt.=76.225647m. Speed=0.000000m/h.</desc>
<speed>0.000000</speed>
</trkpt>
<trkpt lat="44.553616" lon="34.298519">
<ele>76.213928</ele>
<time>2011-10-13T08:39:27Z</time>
<desc>lat.=44.553616, lon.=34.298519, Alt.=76.213928m. Speed=0.000000m/h.</desc>
<speed>0.000000</speed>
</trkpt>
<trkpt lat="44.553616" lon="34.298519">
<ele>76.198303</ele>
<time>2011-10-13T08:39:32Z</time>
<desc>lat.=44.553616, lon.=34.298519, Alt.=76.198303m. Speed=0.000000m/h.</desc>
<speed>0.000000</speed>
</trkpt>
<trkpt lat="44.553616" lon="34.298519">
<ele>76.186584</ele>
<time>2011-10-13T08:39:37Z</time>
<desc>lat.=44.553616, lon.=34.298519, Alt.=76.186584m. Speed=0.000000m/h.</desc>
<speed>0.000000</speed>
</trkpt>
<trkpt lat="44.553616" lon="34.298519">
<ele>76.172913</ele>
<time>2011-10-13T08:39:42Z</time>
<desc>lat.=44.553616, lon.=34.298519, Alt.=76.172913m. Speed=0.000000m/h.</desc>
<speed>0.000000</speed>
</trkpt>
<trkpt lat="44.553616" lon="34.298519">
<ele>76.169006</ele>
<time>2011-10-13T08:39:47Z</time>
<desc>lat.=44.553616, lon.=34.298519, Alt.=76.169006m. Speed=0.000000m/h.</desc>
<speed>0.000000</speed>
</trkpt>
<trkpt lat="44.553616" lon="34.298519">
<ele>76.178772</ele>
<time>2011-10-13T08:39:52Z</time>
<desc>lat.=44.553616, lon.=34.298519, Alt.=76.178772m. Speed=0.000000m/h.</desc>
<speed>0.000000</speed>
</trkpt>
<trkpt lat="44.553616" lon="34.298519">
<ele>76.196350</ele>
<time>2011-10-13T08:39:57Z</time>
<desc>lat.=44.553616, lon.=34.298519, Alt.=76.196350m. Speed=0.000000m/h.</desc>
<speed>0.000000</speed>
</trkpt>
<trkpt lat="44.553616" lon="34.298519">
<ele>76.208069</ele>
<time>2011-10-13T08:40:02Z</time>
<desc>lat.=44.553616, lon.=34.298519, Alt.=76.208069m. Speed=0.036000m/h.</desc>
<speed>0.010000</speed>
</trkpt>
<trkpt lat="44.553616" lon="34.298519">
<ele>76.204163</ele>
<time>2011-10-13T08:40:07Z</time>
<desc>lat.=44.553616, lon.=34.298519, Alt.=76.204163m. Speed=0.036000m/h.</desc>
<speed>0.010000</speed>
</trkpt>
<trkpt lat="44.553616" lon="34.298519">
<ele>76.196350</ele>
<time>2011-10-13T08:40:12Z</time>
<desc>lat.=44.553616, lon.=34.298519, Alt.=76.196350m. Speed=0.036000m/h.</desc>
<speed>0.010000</speed>
</trkpt>
<trkpt lat="44.553616" lon="34.298519">
<ele>76.180725</ele>
<time>2011-10-13T08:40:17Z</time>
<desc>lat.=44.553616, lon.=34.298519, Alt.=76.180725m. Speed=0.000000m/h.</desc>
<speed>0.000000</speed>
</trkpt>
<trkpt lat="44.553616" lon="34.298519">
<ele>76.169006</ele>
<time>2011-10-13T08:40:22Z</time>
<desc>lat.=44.553616, lon.=34.298519, Alt.=76.169006m. Speed=0.000000m/h.</desc>
<speed>0.000000</speed>
</trkpt>
<trkpt lat="44.553616" lon="34.298519">
<ele>76.157288</ele>
<time>2011-10-13T08:40:27Z</time>
<desc>lat.=44.553616, lon.=34.298519, Alt.=76.157288m. Speed=0.000000m/h.</desc>
<speed>0.000000</speed>
</trkpt>
<trkpt lat="44.553616" lon="34.298519">
<ele>76.147522</ele>
<time>2011-10-13T08:40:32Z</time>
<desc>lat.=44.553616, lon.=34.298519, Alt.=76.147522m. Speed=0.000000m/h.</desc>
<speed>0.000000</speed>
</trkpt>
<trkpt lat="44.553616" lon="34.298519">
<ele>76.143616</ele>
<time>2011-10-13T08:40:37Z</time>
<desc>lat.=44.553616, lon.=34.298519, Alt.=76.143616m. Speed=0.000000m/h.</desc>
<speed>0.000000</speed>
</trkpt>
<trkpt lat="44.553616" lon="34.298515">
<ele>76.141663</ele>
<time>2011-10-13T08:40:42Z</time>
<desc>lat.=44.553616, lon.=34.298515, Alt.=76.141663m. Speed=0.000000m/h.</desc>
<speed>0.000000</speed>
</trkpt>
<trkpt lat="44.553616" lon="34.298515">
<ele>76.137756</ele>
<time>2011-10-13T08:40:47Z</time>
<desc>lat.=44.553616, lon.=34.298515, Alt.=76.137756m. Speed=0.036000m/h.</desc>
<speed>0.010000</speed>
</trkpt>
<trkpt lat="44.553616" lon="34.298515">
<ele>76.129944</ele>
<time>2011-10-13T08:40:52Z</time>
<desc>lat.=44.553616, lon.=34.298515, Alt.=76.129944m. Speed=0.000000m/h.</desc>
<speed>0.000000</speed>
</trkpt>
<trkpt lat="44.553616" lon="34.298515">
<ele>76.120178</ele>
<time>2011-10-13T08:40:57Z</time>
<desc>lat.=44.553616, lon.=34.298515, Alt.=76.120178m. Speed=0.000000m/h.</desc>
<speed>0.000000</speed>
</trkpt>
<trkpt lat="44.553616" lon="34.298515">
<ele>76.106506</ele>
<time>2011-10-13T08:41:02Z</time>
<desc>lat.=44.553616, lon.=34.298515, Alt.=76.106506m. Speed=0.000000m/h.</desc>
<speed>0.000000</speed>
</trkpt>
<trkpt lat="44.553616" lon="34.298515">
<ele>76.094788</ele>
<time>2011-10-13T08:41:07Z</time>
<desc>lat.=44.553616, lon.=34.298515, Alt.=76.094788m. Speed=0.036000m/h.</desc>
<speed>0.010000</speed>
</trkpt>
<trkpt lat="44.553616" lon="34.298515">
<ele>76.073303</ele>
<time>2011-10-13T08:41:12Z</time>
<desc>lat.=44.553616, lon.=34.298515, Alt.=76.073303m. Speed=0.000000m/h.</desc>
<speed>0.000000</speed>
</trkpt>
<trkpt lat="44.553616" lon="34.298515">
<ele>76.059631</ele>
<time>2011-10-13T08:41:17Z</time>
<desc>lat.=44.553616, lon.=34.298515, Alt.=76.059631m. Speed=0.036000m/h.</desc>
<speed>0.010000</speed>
</trkpt>
<trkpt lat="44.553616" lon="34.298515">
<ele>76.045959</ele>
<time>2011-10-13T08:41:22Z</time>
<desc>lat.=44.553616, lon.=34.298515, Alt.=76.045959m. Speed=0.000000m/h.</desc>
<speed>0.000000</speed>
</trkpt>
<trkpt lat="44.553616" lon="34.298515">
<ele>76.028381</ele>
<time>2011-10-13T08:41:27Z</time>
<desc>lat.=44.553616, lon.=34.298515, Alt.=76.028381m. Speed=0.000000m/h.</desc>
<speed>0.000000</speed>
</trkpt>
<trkpt lat="44.553616" lon="34.298515">
<ele>76.012756</ele>
<time>2011-10-13T08:41:32Z</time>
<desc>lat.=44.553616, lon.=34.298515, Alt.=76.012756m. Speed=0.000000m/h.</desc>
<speed>0.000000</speed>
</trkpt>
<trkpt lat="44.553616" lon="34.298515">
<ele>76.002991</ele>
<time>2011-10-13T08:41:37Z</time>
<desc>lat.=44.553616, lon.=34.298515, Alt.=76.002991m. Speed=0.000000m/h.</desc>
<speed>0.000000</speed>
</trkpt>
<trkpt lat="44.553616" lon="34.298515">
<ele>75.997131</ele>
<time>2011-10-13T08:41:42Z</time>
<desc>lat.=44.553616, lon.=34.298515, Alt.=75.997131m. Speed=0.000000m/h.</desc>
<speed>0.000000</speed>
</trkpt>
<trkpt lat="44.553616" lon="34.298515">
<ele>75.991272</ele>
<time>2011-10-13T08:41:47Z</time>
<desc>lat.=44.553616, lon.=34.298515, Alt.=75.991272m. Speed=0.000000m/h.</desc>
<speed>0.000000</speed>
</trkpt>
<trkpt lat="44.553616" lon="34.298515">
<ele>75.987366</ele>
<time>2011-10-13T08:41:52Z</time>
<desc>lat.=44.553616, lon.=34.298515, Alt.=75.987366m. Speed=0.000000m/h.</desc>
<speed>0.000000</speed>
</trkpt>
<trkpt lat="44.553616" lon="34.298515">
<ele>75.983459</ele>
<time>2011-10-13T08:41:57Z</time>
<desc>lat.=44.553616, lon.=34.298515, Alt.=75.983459m. Speed=0.036000m/h.</desc>
<speed>0.010000</speed>
</trkpt>
<trkpt lat="44.553616" lon="34.298515">
<ele>75.977600</ele>
<time>2011-10-13T08:42:02Z</time>
<desc>lat.=44.553616, lon.=34.298515, Alt.=75.977600m. Speed=0.036000m/h.</desc>
<speed>0.010000</speed>
</trkpt>
<trkpt lat="44.553616" lon="34.298515">
<ele>75.963928</ele>
<time>2011-10-13T08:42:07Z</time>
<desc>lat.=44.553616, lon.=34.298515, Alt.=75.963928m. Speed=0.000000m/h.</desc>
<speed>0.000000</speed>
</trkpt>
<trkpt lat="44.553616" lon="34.298515">
<ele>75.958069</ele>
<time>2011-10-13T08:42:12Z</time>
<desc>lat.=44.553616, lon.=34.298515, Alt.=75.958069m. Speed=0.000000m/h.</desc>
<speed>0.000000</speed>
</trkpt>
<trkpt lat="44.553616" lon="34.298515">
<ele>75.950256</ele>
<time>2011-10-13T08:42:17Z</time>
<desc>lat.=44.553616, lon.=34.298515, Alt.=75.950256m. Speed=0.000000m/h.</desc>
<speed>0.000000</speed>
</trkpt>
<trkpt lat="44.553616" lon="34.298515">
<ele>75.940491</ele>
<time>2011-10-13T08:42:22Z</time>
<desc>lat.=44.553616, lon.=34.298515, Alt.=75.940491m. Speed=0.036000m/h.</desc>
<speed>0.010000</speed>
</trkpt>
<trkpt lat="44.553616" lon="34.298512">
<ele>75.924866</ele>
<time>2011-10-13T08:42:27Z</time>
<desc>lat.=44.553616, lon.=34.298512, Alt.=75.924866m. Speed=0.036000m/h.</desc>
<speed>0.010000</speed>
</trkpt>
<trkpt lat="44.553616" lon="34.298512">
<ele>75.909241</ele>
<time>2011-10-13T08:42:32Z</time>
<desc>lat.=44.553616, lon.=34.298512, Alt.=75.909241m. Speed=0.000000m/h.</desc>
<speed>0.000000</speed>
</trkpt>
<trkpt lat="44.553616" lon="34.298515">
<ele>75.893616</ele>
<time>2011-10-13T08:42:37Z</time>
<desc>lat.=44.553616, lon.=34.298515, Alt.=75.893616m. Speed=0.000000m/h.</desc>
<speed>0.000000</speed>
</trkpt>
<trkpt lat="44.553616" lon="34.298515">
<ele>75.885803</ele>
<time>2011-10-13T08:42:42Z</time>
<desc>lat.=44.553616, lon.=34.298515, Alt.=75.885803m. Speed=0.000000m/h.</desc>
<speed>0.000000</speed>
</trkpt>
<trkpt lat="44.553616" lon="34.298515">
<ele>75.876038</ele>
<time>2011-10-13T08:42:47Z</time>
<desc>lat.=44.553616, lon.=34.298515, Alt.=75.876038m. Speed=0.000000m/h.</desc>
<speed>0.000000</speed>
</trkpt>
<trkpt lat="44.553616" lon="34.298515">
<ele>75.866272</ele>
<time>2011-10-13T08:42:52Z</time>
<desc>lat.=44.553616, lon.=34.298515, Alt.=75.866272m. Speed=0.000000m/h.</desc>
<speed>0.000000</speed>
</trkpt>
<trkpt lat="44.553616" lon="34.298515">
<ele>75.856506</ele>
<time>2011-10-13T08:42:57Z</time>
<desc>lat.=44.553616, lon.=34.298515, Alt.=75.856506m. Speed=0.000000m/h.</desc>
<speed>0.000000</speed>
</trkpt>
<trkpt lat="44.553616" lon="34.298515">
<ele>75.846741</ele>
<time>2011-10-13T08:43:02Z</time>
<desc>lat.=44.553616, lon.=34.298515, Alt.=75.846741m. Speed=0.000000m/h.</desc>
<speed>0.000000</speed>
</trkpt>
<trkpt lat="44.553616" lon="34.298512">
<ele>75.840881</ele>
<time>2011-10-13T08:43:07Z</time>
<desc>lat.=44.553616, lon.=34.298512, Alt.=75.840881m. Speed=0.000000m/h.</desc>
<speed>0.000000</speed>
</trkpt>
<trkpt lat="44.553616" lon="34.298512">
<ele>75.831116</ele>
<time>2011-10-13T08:43:12Z</time>
<desc>lat.=44.553616, lon.=34.298512, Alt.=75.831116m. Speed=0.000000m/h.</desc>
<speed>0.000000</speed>
</trkpt>
<trkpt lat="44.553616" lon="34.298512">
<ele>75.825256</ele>
<time>2011-10-13T08:43:17Z</time>
<desc>lat.=44.553616, lon.=34.298512, Alt.=75.825256m. Speed=0.000000m/h.</desc>
<speed>0.000000</speed>
</trkpt>
<trkpt lat="44.553616" lon="34.298512">
<ele>75.819397</ele>
<time>2011-10-13T08:43:22Z</time>
<desc>lat.=44.553616, lon.=34.298512, Alt.=75.819397m. Speed=0.000000m/h.</desc>
<speed>0.000000</speed>
</trkpt>
<trkpt lat="44.553616" lon="34.298512">
<ele>75.813538</ele>
<time>2011-10-13T08:43:27Z</time>
<desc>lat.=44.553616, lon.=34.298512, Alt.=75.813538m. Speed=0.000000m/h.</desc>
<speed>0.000000</speed>
</trkpt>
<trkpt lat="44.553616" lon="34.298512">
<ele>75.799866</ele>
<time>2011-10-13T08:43:32Z</time>
<desc>lat.=44.553616, lon.=34.298512, Alt.=75.799866m. Speed=0.000000m/h.</desc>
<speed>0.000000</speed>
</trkpt>
<trkpt lat="44.553616" lon="34.298512">
<ele>75.788147</ele>
<time>2011-10-13T08:43:37Z</time>
<desc>lat.=44.553616, lon.=34.298512, Alt.=75.788147m. Speed=0.000000m/h.</desc>
<speed>0.000000</speed>
</trkpt>
<trkpt lat="44.553616" lon="34.298512">
<ele>75.776428</ele>
<time>2011-10-13T08:43:42Z</time>
<desc>lat.=44.553616, lon.=34.298512, Alt.=75.776428m. Speed=0.000000m/h.</desc>
<speed>0.000000</speed>
</trkpt>
<trkpt lat="44.553616" lon="34.298512">
<ele>75.758850</ele>
<time>2011-10-13T08:43:47Z</time>
<desc>lat.=44.553616, lon.=34.298512, Alt.=75.758850m. Speed=0.000000m/h.</desc>
<speed>0.000000</speed>
</trkpt>
<trkpt lat="44.553616" lon="34.298512">
<ele>75.747131</ele>
<time>2011-10-13T08:43:52Z</time>
<desc>lat.=44.553616, lon.=34.298512, Alt.=75.747131m. Speed=0.000000m/h.</desc>
<speed>0.000000</speed>
</trkpt>
<trkpt lat="44.553616" lon="34.298512">
<ele>75.733459</ele>
<time>2011-10-13T08:43:57Z</time>
<desc>lat.=44.553616, lon.=34.298512, Alt.=75.733459m. Speed=0.000000m/h.</desc>
<speed>0.000000</speed>
</trkpt>
<trkpt lat="44.553616" lon="34.298512">
<ele>75.710022</ele>
<time>2011-10-13T08:44:02Z</time>
<desc>lat.=44.553616, lon.=34.298512, Alt.=75.710022m. Speed=0.000000m/h.</desc>
<speed>0.000000</speed>
</trkpt>
<trkpt lat="44.553616" lon="34.298512">
<ele>75.686584</ele>
<time>2011-10-13T08:44:07Z</time>
<desc>lat.=44.553616, lon.=34.298512, Alt.=75.686584m. Speed=0.000000m/h.</desc>
<speed>0.000000</speed>
</trkpt>
<trkpt lat="44.553616" lon="34.298512">
<ele>75.663147</ele>
<time>2011-10-13T08:44:12Z</time>
<desc>lat.=44.553616, lon.=34.298512, Alt.=75.663147m. Speed=0.000000m/h.</desc>
<speed>0.000000</speed>
</trkpt>
<trkpt lat="44.553616" lon="34.298512">
<ele>75.641663</ele>
<time>2011-10-13T08:44:17Z</time>
<desc>lat.=44.553616, lon.=34.298512, Alt.=75.641663m. Speed=0.036000m/h.</desc>
<speed>0.010000</speed>
</trkpt>
<trkpt lat="44.553616" lon="34.298512">
<ele>75.612366</ele>
<time>2011-10-13T08:44:22Z</time>
<desc>lat.=44.553616, lon.=34.298512, Alt.=75.612366m. Speed=0.000000m/h.</desc>
<speed>0.000000</speed>
</trkpt>
<trkpt lat="44.553616" lon="34.298512">
<ele>75.588928</ele>
<time>2011-10-13T08:44:27Z</time>
<desc>lat.=44.553616, lon.=34.298512, Alt.=75.588928m. Speed=0.000000m/h.</desc>
<speed>0.000000</speed>
</trkpt>
<trkpt lat="44.553616" lon="34.298512">
<ele>75.579163</ele>
<time>2011-10-13T08:44:32Z</time>
<desc>lat.=44.553616, lon.=34.298512, Alt.=75.579163m. Speed=0.000000m/h.</desc>
<speed>0.000000</speed>
</trkpt>
<trkpt lat="44.553616" lon="34.298512">
<ele>75.573303</ele>
<time>2011-10-13T08:44:37Z</time>
<desc>lat.=44.553616, lon.=34.298512, Alt.=75.573303m. Speed=0.036000m/h.</desc>
<speed>0.010000</speed>
</trkpt>
<trkpt lat="44.553616" lon="34.298512">
<ele>75.565491</ele>
<time>2011-10-13T08:44:42Z</time>
<desc>lat.=44.553616, lon.=34.298512, Alt.=75.565491m. Speed=0.000000m/h.</desc>
<speed>0.000000</speed>
</trkpt>
<trkpt lat="44.553616" lon="34.298512">
<ele>75.553772</ele>
<time>2011-10-13T08:44:47Z</time>
<desc>lat.=44.553616, lon.=34.298512, Alt.=75.553772m. Speed=0.000000m/h.</desc>
<speed>0.000000</speed>
</trkpt>
<trkpt lat="44.553616" lon="34.298512">
<ele>75.538147</ele>
<time>2011-10-13T08:44:52Z</time>
<desc>lat.=44.553616, lon.=34.298512, Alt.=75.538147m. Speed=0.000000m/h.</desc>
<speed>0.000000</speed>
</trkpt>
<trkpt lat="44.553616" lon="34.298512">
<ele>75.512756</ele>
<time>2011-10-13T08:44:57Z</time>
<desc>lat.=44.553616, lon.=34.298512, Alt.=75.512756m. Speed=0.000000m/h.</desc>
<speed>0.000000</speed>
</trkpt>
<trkpt lat="44.553616" lon="34.298512">
<ele>75.487366</ele>
<time>2011-10-13T08:45:02Z</time>
<desc>lat.=44.553616, lon.=34.298512, Alt.=75.487366m. Speed=0.000000m/h.</desc>
<speed>0.000000</speed>
</trkpt>
<trkpt lat="44.553616" lon="34.298512">
<ele>75.461975</ele>
<time>2011-10-13T08:45:07Z</time>
<desc>lat.=44.553616, lon.=34.298512, Alt.=75.461975m. Speed=0.000000m/h.</desc>
<speed>0.000000</speed>
</trkpt>
<trkpt lat="44.553616" lon="34.298512">
<ele>75.442444</ele>
<time>2011-10-13T08:45:12Z</time>
<desc>lat.=44.553616, lon.=34.298512, Alt.=75.442444m. Speed=0.000000m/h.</desc>
<speed>0.000000</speed>
</trkpt>
<trkpt lat="44.553616" lon="34.298508">
<ele>75.426819</ele>
<time>2011-10-13T08:45:17Z</time>
<desc>lat.=44.553616, lon.=34.298508, Alt.=75.426819m. Speed=0.000000m/h.</desc>
<speed>0.000000</speed>
</trkpt>
<trkpt lat="44.553616" lon="34.298508">
<ele>75.407288</ele>
<time>2011-10-13T08:45:22Z</time>
<desc>lat.=44.553616, lon.=34.298508, Alt.=75.407288m. Speed=0.000000m/h.</desc>
<speed>0.000000</speed>
</trkpt>
<trkpt lat="44.553616" lon="34.298508">
<ele>75.385803</ele>
<time>2011-10-13T08:45:27Z</time>
<desc>lat.=44.553616, lon.=34.298508, Alt.=75.385803m. Speed=0.000000m/h.</desc>
<speed>0.000000</speed>
</trkpt>
<trkpt lat="44.553619" lon="34.298508">
<ele>75.368225</ele>
<time>2011-10-13T08:45:32Z</time>
<desc>lat.=44.553619, lon.=34.298508, Alt.=75.368225m. Speed=0.000000m/h.</desc>
<speed>0.000000</speed>
</trkpt>
<trkpt lat="44.553619" lon="34.298508">
<ele>75.352600</ele>
<time>2011-10-13T08:45:37Z</time>
<desc>lat.=44.553619, lon.=34.298508, Alt.=75.352600m. Speed=0.000000m/h.</desc>
<speed>0.000000</speed>
</trkpt>
<trkpt lat="44.553619" lon="34.298508">
<ele>75.336975</ele>
<time>2011-10-13T08:45:42Z</time>
<desc>lat.=44.553619, lon.=34.298508, Alt.=75.336975m. Speed=0.000000m/h.</desc>
<speed>0.000000</speed>
</trkpt>
<trkpt lat="44.553619" lon="34.298508">
<ele>75.317444</ele>
<time>2011-10-13T08:45:47Z</time>
<desc>lat.=44.553619, lon.=34.298508, Alt.=75.317444m. Speed=0.000000m/h.</desc>
<speed>0.000000</speed>
</trkpt>
<trkpt lat="44.553616" lon="34.298508">
<ele>75.297913</ele>
<time>2011-10-13T08:45:52Z</time>
<desc>lat.=44.553616, lon.=34.298508, Alt.=75.297913m. Speed=0.000000m/h.</desc>
<speed>0.000000</speed>
</trkpt>
<trkpt lat="44.553616" lon="34.298508">
<ele>75.290100</ele>
<time>2011-10-13T08:45:57Z</time>
<desc>lat.=44.553616, lon.=34.298508, Alt.=75.290100m. Speed=0.000000m/h.</desc>
<speed>0.000000</speed>
</trkpt>
<trkpt lat="44.553616" lon="34.298508">
<ele>75.278381</ele>
<time>2011-10-13T08:46:02Z</time>
<desc>lat.=44.553616, lon.=34.298508, Alt.=75.278381m. Speed=0.000000m/h.</desc>
<speed>0.000000</speed>
</trkpt>
<trkpt lat="44.553616" lon="34.298504">
<ele>75.266663</ele>
<time>2011-10-13T08:46:07Z</time>
<desc>lat.=44.553616, lon.=34.298504, Alt.=75.266663m. Speed=0.000000m/h.</desc>
<speed>0.000000</speed>
</trkpt>
<trkpt lat="44.553616" lon="34.298504">
<ele>75.249084</ele>
<time>2011-10-13T08:46:12Z</time>
<desc>lat.=44.553616, lon.=34.298504, Alt.=75.249084m. Speed=0.000000m/h.</desc>
<speed>0.000000</speed>
</trkpt>
<trkpt lat="44.553616" lon="34.298504">
<ele>75.227600</ele>
<time>2011-10-13T08:46:17Z</time>
<desc>lat.=44.553616, lon.=34.298504, Alt.=75.227600m. Speed=0.000000m/h.</desc>
<speed>0.000000</speed>
</trkpt>
<trkpt lat="44.553616" lon="34.298504">
<ele>75.204163</ele>
<time>2011-10-13T08:46:22Z</time>
<desc>lat.=44.553616, lon.=34.298504, Alt.=75.204163m. Speed=0.000000m/h.</desc>
<speed>0.000000</speed>
</trkpt>
<trkpt lat="44.553619" lon="34.298504">
<ele>75.190491</ele>
<time>2011-10-13T08:46:27Z</time>
<desc>lat.=44.553619, lon.=34.298504, Alt.=75.190491m. Speed=0.000000m/h.</desc>
<speed>0.000000</speed>
</trkpt>
<trkpt lat="44.553619" lon="34.298504">
<ele>75.176819</ele>
<time>2011-10-13T08:46:32Z</time>
<desc>lat.=44.553619, lon.=34.298504, Alt.=75.176819m. Speed=0.000000m/h.</desc>
<speed>0.000000</speed>
</trkpt>
<trkpt lat="44.553616" lon="34.298504">
<ele>75.161194</ele>
<time>2011-10-13T08:46:37Z</time>
<desc>lat.=44.553616, lon.=34.298504, Alt.=75.161194m. Speed=0.000000m/h.</desc>
<speed>0.000000</speed>
</trkpt>
<trkpt lat="44.553616" lon="34.298504">
<ele>75.143616</ele>
<time>2011-10-13T08:46:42Z</time>
<desc>lat.=44.553616, lon.=34.298504, Alt.=75.143616m. Speed=0.000000m/h.</desc>
<speed>0.000000</speed>
</trkpt>
<trkpt lat="44.553616" lon="34.298504">
<ele>75.120178</ele>
<time>2011-10-13T08:46:47Z</time>
<desc>lat.=44.553616, lon.=34.298504, Alt.=75.120178m. Speed=0.000000m/h.</desc>
<speed>0.000000</speed>
</trkpt>
<trkpt lat="44.553616" lon="34.298504">
<ele>75.096741</ele>
<time>2011-10-13T08:46:52Z</time>
<desc>lat.=44.553616, lon.=34.298504, Alt.=75.096741m. Speed=0.000000m/h.</desc>
<speed>0.000000</speed>
</trkpt>
<trkpt lat="44.553616" lon="34.298504">
<ele>75.073303</ele>
<time>2011-10-13T08:46:57Z</time>
<desc>lat.=44.553616, lon.=34.298504, Alt.=75.073303m. Speed=0.000000m/h.</desc>
<speed>0.000000</speed>
</trkpt>
<trkpt lat="44.553616" lon="34.298504">
<ele>75.051819</ele>
<time>2011-10-13T08:47:02Z</time>
<desc>lat.=44.553616, lon.=34.298504, Alt.=75.051819m. Speed=0.000000m/h.</desc>
<speed>0.000000</speed>
</trkpt>
<trkpt lat="44.553616" lon="34.298504">
<ele>75.028381</ele>
<time>2011-10-13T08:47:07Z</time>
<desc>lat.=44.553616, lon.=34.298504, Alt.=75.028381m. Speed=0.000000m/h.</desc>
<speed>0.000000</speed>
</trkpt>
<trkpt lat="44.553616" lon="34.298504">
<ele>75.008850</ele>
<time>2011-10-13T08:47:12Z</time>
<desc>lat.=44.553616, lon.=34.298504, Alt.=75.008850m. Speed=0.000000m/h.</desc>
<speed>0.000000</speed>
</trkpt>
<trkpt lat="44.553616" lon="34.298504">
<ele>74.975647</ele>
<time>2011-10-13T08:47:17Z</time>
<desc>lat.=44.553616, lon.=34.298504, Alt.=74.975647m. Speed=0.000000m/h.</desc>
<speed>0.000000</speed>
</trkpt>
<trkpt lat="44.553616" lon="34.298500">
<ele>74.948303</ele>
<time>2011-10-13T08:47:22Z</time>
<desc>lat.=44.553616, lon.=34.298500, Alt.=74.948303m. Speed=0.000000m/h.</desc>
<speed>0.000000</speed>
</trkpt>
<trkpt lat="44.553616" lon="34.298500">
<ele>74.928772</ele>
<time>2011-10-13T08:47:27Z</time>
<desc>lat.=44.553616, lon.=34.298500, Alt.=74.928772m. Speed=0.000000m/h.</desc>
<speed>0.000000</speed>
</trkpt>
<trkpt lat="44.553616" lon="34.298500">
<ele>74.909241</ele>
<time>2011-10-13T08:47:32Z</time>
<desc>lat.=44.553616, lon.=34.298500, Alt.=74.909241m. Speed=0.000000m/h.</desc>
<speed>0.000000</speed>
</trkpt>
<trkpt lat="44.553616" lon="34.298500">
<ele>74.883850</ele>
<time>2011-10-13T08:47:37Z</time>
<desc>lat.=44.553616, lon.=34.298500, Alt.=74.883850m. Speed=0.000000m/h.</desc>
<speed>0.000000</speed>
</trkpt>
<trkpt lat="44.553616" lon="34.298500">
<ele>74.866272</ele>
<time>2011-10-13T08:47:42Z</time>
<desc>lat.=44.553616, lon.=34.298500, Alt.=74.866272m. Speed=0.000000m/h.</desc>
<speed>0.000000</speed>
</trkpt>
<trkpt lat="44.553616" lon="34.298500">
<ele>74.858459</ele>
<time>2011-10-13T08:47:47Z</time>
<desc>lat.=44.553616, lon.=34.298500, Alt.=74.858459m. Speed=0.000000m/h.</desc>
<speed>0.000000</speed>
</trkpt>
<trkpt lat="44.553616" lon="34.298500">
<ele>74.856506</ele>
<time>2011-10-13T08:47:52Z</time>
<desc>lat.=44.553616, lon.=34.298500, Alt.=74.856506m. Speed=0.000000m/h.</desc>
<speed>0.000000</speed>
</trkpt>
<trkpt lat="44.553616" lon="34.298500">
<ele>74.852600</ele>
<time>2011-10-13T08:47:57Z</time>
<desc>lat.=44.553616, lon.=34.298500, Alt.=74.852600m. Speed=0.000000m/h.</desc>
<speed>0.000000</speed>
</trkpt>
<trkpt lat="44.553619" lon="34.298500">
<ele>74.846741</ele>
<time>2011-10-13T08:48:02Z</time>
<desc>lat.=44.553619, lon.=34.298500, Alt.=74.846741m. Speed=0.000000m/h.</desc>
<speed>0.000000</speed>
</trkpt>
<trkpt lat="44.553619" lon="34.298500">
<ele>74.836975</ele>
<time>2011-10-13T08:48:07Z</time>
<desc>lat.=44.553619, lon.=34.298500, Alt.=74.836975m. Speed=0.036000m/h.</desc>
<speed>0.010000</speed>
</trkpt>
<trkpt lat="44.553619" lon="34.298500">
<ele>74.836975</ele>
<time>2011-10-13T08:48:12Z</time>
<desc>lat.=44.553619, lon.=34.298500, Alt.=74.836975m. Speed=0.000000m/h.</desc>
<speed>0.000000</speed>
</trkpt>
<trkpt lat="44.553619" lon="34.298500">
<ele>74.844788</ele>
<time>2011-10-13T08:48:17Z</time>
<desc>lat.=44.553619, lon.=34.298500, Alt.=74.844788m. Speed=0.000000m/h.</desc>
<speed>0.000000</speed>
</trkpt>
<trkpt lat="44.553619" lon="34.298496">
<ele>74.848694</ele>
<time>2011-10-13T08:48:22Z</time>
<desc>lat.=44.553619, lon.=34.298496, Alt.=74.848694m. Speed=0.000000m/h.</desc>
<speed>0.000000</speed>
</trkpt>
<trkpt lat="44.553619" lon="34.298496">
<ele>74.850647</ele>
<time>2011-10-13T08:48:27Z</time>
<desc>lat.=44.553619, lon.=34.298496, Alt.=74.850647m. Speed=0.000000m/h.</desc>
<speed>0.000000</speed>
</trkpt>
<trkpt lat="44.553619" lon="34.298496">
<ele>74.850647</ele>
<time>2011-10-13T08:48:32Z</time>
<desc>lat.=44.553619, lon.=34.298496, Alt.=74.850647m. Speed=0.000000m/h.</desc>
<speed>0.000000</speed>
</trkpt>
<trkpt lat="44.553619" lon="34.298496">
<ele>74.854553</ele>
<time>2011-10-13T08:48:37Z</time>
<desc>lat.=44.553619, lon.=34.298496, Alt.=74.854553m. Speed=0.540000m/h.</desc>
<speed>0.150000</speed>
</trkpt>
<trkpt lat="44.553619" lon="34.298496">
<ele>74.764709</ele>
<time>2011-10-13T08:48:42Z</time>
<desc>lat.=44.553619, lon.=34.298496, Alt.=74.764709m. Speed=0.000000m/h.</desc>
<speed>0.000000</speed>
</trkpt>
<trkpt lat="44.553619" lon="34.298496">
<ele>74.754944</ele>
<time>2011-10-13T08:48:47Z</time>
<desc>lat.=44.553619, lon.=34.298496, Alt.=74.754944m. Speed=0.180000m/h.</desc>
<speed>0.050000</speed>
</trkpt>
<trkpt lat="44.553619" lon="34.298496">
<ele>74.747131</ele>
<time>2011-10-13T08:48:52Z</time>
<desc>lat.=44.553619, lon.=34.298496, Alt.=74.747131m. Speed=0.000000m/h.</desc>
<speed>0.000000</speed>
</trkpt>
<trkpt lat="44.553619" lon="34.298496">
<ele>74.747131</ele>
<time>2011-10-13T08:48:57Z</time>
<desc>lat.=44.553619, lon.=34.298496, Alt.=74.747131m. Speed=0.036000m/h.</desc>
<speed>0.010000</speed>
</trkpt>
<trkpt lat="44.553619" lon="34.298496">
<ele>74.743225</ele>
<time>2011-10-13T08:49:02Z</time>
<desc>lat.=44.553619, lon.=34.298496, Alt.=74.743225m. Speed=0.036000m/h.</desc>
<speed>0.010000</speed>
</trkpt>
<trkpt lat="44.553619" lon="34.298496">
<ele>74.739319</ele>
<time>2011-10-13T08:49:07Z</time>
<desc>lat.=44.553619, lon.=34.298496, Alt.=74.739319m. Speed=0.036000m/h.</desc>
<speed>0.010000</speed>
</trkpt>
<trkpt lat="44.553619" lon="34.298496">
<ele>74.729553</ele>
<time>2011-10-13T08:49:12Z</time>
<desc>lat.=44.553619, lon.=34.298496, Alt.=74.729553m. Speed=0.000000m/h.</desc>
<speed>0.000000</speed>
</trkpt>
<trkpt lat="44.553619" lon="34.298496">
<ele>74.715881</ele>
<time>2011-10-13T08:49:17Z</time>
<desc>lat.=44.553619, lon.=34.298496, Alt.=74.715881m. Speed=0.036000m/h.</desc>
<speed>0.010000</speed>
</trkpt>
<trkpt lat="44.553619" lon="34.298496">
<ele>74.700256</ele>
<time>2011-10-13T08:49:22Z</time>
<desc>lat.=44.553619, lon.=34.298496, Alt.=74.700256m. Speed=0.000000m/h.</desc>
<speed>0.000000</speed>
</trkpt>
<trkpt lat="44.553619" lon="34.298496">
<ele>74.678772</ele>
<time>2011-10-13T08:49:27Z</time>
<desc>lat.=44.553619, lon.=34.298496, Alt.=74.678772m. Speed=0.000000m/h.</desc>
<speed>0.000000</speed>
</trkpt>
<trkpt lat="44.553619" lon="34.298496">
<ele>74.637756</ele>
<time>2011-10-13T08:49:32Z</time>
<desc>lat.=44.553619, lon.=34.298496, Alt.=74.637756m. Speed=0.036000m/h.</desc>
<speed>0.010000</speed>
</trkpt>
<trkpt lat="44.553619" lon="34.298496">
<ele>74.612366</ele>
<time>2011-10-13T08:49:37Z</time>
<desc>lat.=44.553619, lon.=34.298496, Alt.=74.612366m. Speed=0.000000m/h.</desc>
<speed>0.000000</speed>
</trkpt>
<trkpt lat="44.553619" lon="34.298496">
<ele>74.588928</ele>
<time>2011-10-13T08:49:42Z</time>
<desc>lat.=44.553619, lon.=34.298496, Alt.=74.588928m. Speed=0.000000m/h.</desc>
<speed>0.000000</speed>
</trkpt>
<trkpt lat="44.553619" lon="34.298496">
<ele>74.559631</ele>
<time>2011-10-13T08:49:47Z</time>
<desc>lat.=44.553619, lon.=34.298496, Alt.=74.559631m. Speed=0.000000m/h.</desc>
<speed>0.000000</speed>
</trkpt>
<trkpt lat="44.553619" lon="34.298496">
<ele>74.555725</ele>
<time>2011-10-13T08:49:52Z</time>
<desc>lat.=44.553619, lon.=34.298496, Alt.=74.555725m. Speed=0.000000m/h.</desc>
<speed>0.000000</speed>
</trkpt>
<trkpt lat="44.553619" lon="34.298496">
<ele>74.549866</ele>
<time>2011-10-13T08:49:57Z</time>
<desc>lat.=44.553619, lon.=34.298496, Alt.=74.549866m. Speed=0.000000m/h.</desc>
<speed>0.000000</speed>
</trkpt>
<trkpt lat="44.553619" lon="34.298496">
<ele>74.538147</ele>
<time>2011-10-13T08:50:02Z</time>
<desc>lat.=44.553619, lon.=34.298496, Alt.=74.538147m. Speed=0.072000m/h.</desc>
<speed>0.020000</speed>
</trkpt>
<trkpt lat="44.553619" lon="34.298496">
<ele>74.522522</ele>
<time>2011-10-13T08:50:07Z</time>
<desc>lat.=44.553619, lon.=34.298496, Alt.=74.522522m. Speed=0.000000m/h.</desc>
<speed>0.000000</speed>
</trkpt>
<trkpt lat="44.553619" lon="34.298496">
<ele>74.508850</ele>
<time>2011-10-13T08:50:12Z</time>
<desc>lat.=44.553619, lon.=34.298496, Alt.=74.508850m. Speed=0.000000m/h.</desc>
<speed>0.000000</speed>
</trkpt>
<trkpt lat="44.553619" lon="34.298496">
<ele>74.501038</ele>
<time>2011-10-13T08:50:17Z</time>
<desc>lat.=44.553619, lon.=34.298496, Alt.=74.501038m. Speed=0.036000m/h.</desc>
<speed>0.010000</speed>
</trkpt>
<trkpt lat="44.553623" lon="34.298496">
<ele>74.495178</ele>
<time>2011-10-13T08:50:22Z</time>
<desc>lat.=44.553623, lon.=34.298496, Alt.=74.495178m. Speed=0.000000m/h.</desc>
<speed>0.000000</speed>
</trkpt>
<trkpt lat="44.553623" lon="34.298496">
<ele>74.479553</ele>
<time>2011-10-13T08:50:27Z</time>
<desc>lat.=44.553623, lon.=34.298496, Alt.=74.479553m. Speed=0.000000m/h.</desc>
<speed>0.000000</speed>
</trkpt>
<trkpt lat="44.553623" lon="34.298496">
<ele>74.471741</ele>
<time>2011-10-13T08:50:32Z</time>
<desc>lat.=44.553623, lon.=34.298496, Alt.=74.471741m. Speed=0.000000m/h.</desc>
<speed>0.000000</speed>
</trkpt>
<trkpt lat="44.553623" lon="34.298496">
<ele>74.465881</ele>
<time>2011-10-13T08:50:37Z</time>
<desc>lat.=44.553623, lon.=34.298496, Alt.=74.465881m. Speed=0.000000m/h.</desc>
<speed>0.000000</speed>
</trkpt>
<trkpt lat="44.553623" lon="34.298496">
<ele>74.460022</ele>
<time>2011-10-13T08:50:42Z</time>
<desc>lat.=44.553623, lon.=34.298496, Alt.=74.460022m. Speed=0.000000m/h.</desc>
<speed>0.000000</speed>
</trkpt>
<trkpt lat="44.553623" lon="34.298496">
<ele>74.446350</ele>
<time>2011-10-13T08:50:47Z</time>
<desc>lat.=44.553623, lon.=34.298496, Alt.=74.446350m. Speed=0.036000m/h.</desc>
<speed>0.010000</speed>
</trkpt>
<trkpt lat="44.553623" lon="34.298496">
<ele>74.438538</ele>
<time>2011-10-13T08:50:52Z</time>
<desc>lat.=44.553623, lon.=34.298496, Alt.=74.438538m. Speed=0.000000m/h.</desc>
<speed>0.000000</speed>
</trkpt>
<trkpt lat="44.553623" lon="34.298496">
<ele>74.424866</ele>
<time>2011-10-13T08:50:57Z</time>
<desc>lat.=44.553623, lon.=34.298496, Alt.=74.424866m. Speed=0.036000m/h.</desc>
<speed>0.010000</speed>
</trkpt>
<trkpt lat="44.553623" lon="34.298496">
<ele>74.409241</ele>
<time>2011-10-13T08:51:02Z</time>
<desc>lat.=44.553623, lon.=34.298496, Alt.=74.409241m. Speed=0.000000m/h.</desc>
<speed>0.000000</speed>
</trkpt>
<trkpt lat="44.553623" lon="34.298496">
<ele>74.401428</ele>
<time>2011-10-13T08:51:07Z</time>
<desc>lat.=44.553623, lon.=34.298496, Alt.=74.401428m. Speed=0.036000m/h.</desc>
<speed>0.010000</speed>
</trkpt>
<trkpt lat="44.553623" lon="34.298496">
<ele>74.395569</ele>
<time>2011-10-13T08:51:12Z</time>
<desc>lat.=44.553623, lon.=34.298496, Alt.=74.395569m. Speed=0.000000m/h.</desc>
<speed>0.000000</speed>
</trkpt>
<trkpt lat="44.553623" lon="34.298496">
<ele>74.385803</ele>
<time>2011-10-13T08:51:17Z</time>
<desc>lat.=44.553623, lon.=34.298496, Alt.=74.385803m. Speed=0.000000m/h.</desc>
<speed>0.000000</speed>
</trkpt>
<trkpt lat="44.553623" lon="34.298496">
<ele>74.374084</ele>
<time>2011-10-13T08:51:22Z</time>
<desc>lat.=44.553623, lon.=34.298496, Alt.=74.374084m. Speed=0.324000m/h.</desc>
<speed>0.090000</speed>
</trkpt>
<trkpt lat="44.553623" lon="34.298496">
<ele>74.381897</ele>
<time>2011-10-13T08:51:27Z</time>
<desc>lat.=44.553623, lon.=34.298496, Alt.=74.381897m. Speed=0.072000m/h.</desc>
<speed>0.020000</speed>
</trkpt>
<trkpt lat="44.553623" lon="34.298496">
<ele>74.362366</ele>
<time>2011-10-13T08:51:32Z</time>
<desc>lat.=44.553623, lon.=34.298496, Alt.=74.362366m. Speed=0.000000m/h.</desc>
<speed>0.000000</speed>
</trkpt>
<trkpt lat="44.553623" lon="34.298496">
<ele>74.348694</ele>
<time>2011-10-13T08:51:37Z</time>
<desc>lat.=44.553623, lon.=34.298496, Alt.=74.348694m. Speed=0.000000m/h.</desc>
<speed>0.000000</speed>
</trkpt>
<trkpt lat="44.553623" lon="34.298496">
<ele>74.333069</ele>
<time>2011-10-13T08:51:42Z</time>
<desc>lat.=44.553623, lon.=34.298496, Alt.=74.333069m. Speed=0.000000m/h.</desc>
<speed>0.000000</speed>
</trkpt>
<trkpt lat="44.553623" lon="34.298496">
<ele>74.317444</ele>
<time>2011-10-13T08:51:47Z</time>
<desc>lat.=44.553623, lon.=34.298496, Alt.=74.317444m. Speed=0.108000m/h.</desc>
<speed>0.030000</speed>
</trkpt>
<trkpt lat="44.553623" lon="34.298496">
<ele>74.305725</ele>
<time>2011-10-13T08:51:52Z</time>
<desc>lat.=44.553623, lon.=34.298496, Alt.=74.305725m. Speed=0.036000m/h.</desc>
<speed>0.010000</speed>
</trkpt>
<trkpt lat="44.553623" lon="34.298496">
<ele>74.295959</ele>
<time>2011-10-13T08:51:57Z</time>
<desc>lat.=44.553623, lon.=34.298496, Alt.=74.295959m. Speed=0.432000m/h.</desc>
<speed>0.120000</speed>
</trkpt>
<trkpt lat="44.553623" lon="34.298496">
<ele>74.295959</ele>
<time>2011-10-13T08:52:02Z</time>
<desc>lat.=44.553623, lon.=34.298496, Alt.=74.295959m. Speed=0.000000m/h.</desc>
<speed>0.000000</speed>
</trkpt>
<trkpt lat="44.553623" lon="34.298496">
<ele>74.303772</ele>
<time>2011-10-13T08:52:07Z</time>
<desc>lat.=44.553623, lon.=34.298496, Alt.=74.303772m. Speed=0.000000m/h.</desc>
<speed>0.000000</speed>
</trkpt>
<trkpt lat="44.553623" lon="34.298496">
<ele>74.311584</ele>
<time>2011-10-13T08:52:12Z</time>
<desc>lat.=44.553623, lon.=34.298496, Alt.=74.311584m. Speed=0.000000m/h.</desc>
<speed>0.000000</speed>
</trkpt>
<trkpt lat="44.553623" lon="34.298492">
<ele>74.311584</ele>
<time>2011-10-13T08:52:17Z</time>
<desc>lat.=44.553623, lon.=34.298492, Alt.=74.311584m. Speed=0.036000m/h.</desc>
<speed>0.010000</speed>
</trkpt>
<trkpt lat="44.553623" lon="34.298492">
<ele>74.311584</ele>
<time>2011-10-13T08:52:22Z</time>
<desc>lat.=44.553623, lon.=34.298492, Alt.=74.311584m. Speed=0.000000m/h.</desc>
<speed>0.000000</speed>
</trkpt>
<trkpt lat="44.553623" lon="34.298492">
<ele>74.305725</ele>
<time>2011-10-13T08:52:27Z</time>
<desc>lat.=44.553623, lon.=34.298492, Alt.=74.305725m. Speed=0.072000m/h.</desc>
<speed>0.020000</speed>
</trkpt>
<trkpt lat="44.553623" lon="34.298492">
<ele>74.301819</ele>
<time>2011-10-13T08:52:32Z</time>
<desc>lat.=44.553623, lon.=34.298492, Alt.=74.301819m. Speed=0.036000m/h.</desc>
<speed>0.010000</speed>
</trkpt>
<trkpt lat="44.553623" lon="34.298492">
<ele>74.292053</ele>
<time>2011-10-13T08:52:37Z</time>
<desc>lat.=44.553623, lon.=34.298492, Alt.=74.292053m. Speed=0.000000m/h.</desc>
<speed>0.000000</speed>
</trkpt>
<trkpt lat="44.553623" lon="34.298492">
<ele>74.266663</ele>
<time>2011-10-13T08:52:42Z</time>
<desc>lat.=44.553623, lon.=34.298492, Alt.=74.266663m. Speed=0.000000m/h.</desc>
<speed>0.000000</speed>
</trkpt>
<trkpt lat="44.553623" lon="34.298492">
<ele>74.247131</ele>
<time>2011-10-13T08:52:47Z</time>
<desc>lat.=44.553623, lon.=34.298492, Alt.=74.247131m. Speed=0.036000m/h.</desc>
<speed>0.010000</speed>
</trkpt>
<trkpt lat="44.553623" lon="34.298492">
<ele>74.235413</ele>
<time>2011-10-13T08:52:52Z</time>
<desc>lat.=44.553623, lon.=34.298492, Alt.=74.235413m. Speed=0.000000m/h.</desc>
<speed>0.000000</speed>
</trkpt>
<trkpt lat="44.553623" lon="34.298492">
<ele>74.231506</ele>
<time>2011-10-13T08:52:57Z</time>
<desc>lat.=44.553623, lon.=34.298492, Alt.=74.231506m. Speed=0.000000m/h.</desc>
<speed>0.000000</speed>
</trkpt>
<trkpt lat="44.553623" lon="34.298492">
<ele>74.237366</ele>
<time>2011-10-13T08:53:02Z</time>
<desc>lat.=44.553623, lon.=34.298492, Alt.=74.237366m. Speed=0.036000m/h.</desc>
<speed>0.010000</speed>
</trkpt>
<trkpt lat="44.553623" lon="34.298492">
<ele>74.239319</ele>
<time>2011-10-13T08:53:07Z</time>
<desc>lat.=44.553623, lon.=34.298492, Alt.=74.239319m. Speed=0.036000m/h.</desc>
<speed>0.010000</speed>
</trkpt>
<trkpt lat="44.553623" lon="34.298492">
<ele>74.239319</ele>
<time>2011-10-13T08:53:12Z</time>
<desc>lat.=44.553623, lon.=34.298492, Alt.=74.239319m. Speed=0.036000m/h.</desc>
<speed>0.010000</speed>
</trkpt>
<trkpt lat="44.553623" lon="34.298492">
<ele>74.239319</ele>
<time>2011-10-13T08:53:17Z</time>
<desc>lat.=44.553623, lon.=34.298492, Alt.=74.239319m. Speed=0.000000m/h.</desc>
<speed>0.000000</speed>
</trkpt>
<trkpt lat="44.553623" lon="34.298492">
<ele>74.245178</ele>
<time>2011-10-13T08:53:22Z</time>
<desc>lat.=44.553623, lon.=34.298492, Alt.=74.245178m. Speed=0.036000m/h.</desc>
<speed>0.010000</speed>
</trkpt>
<trkpt lat="44.553623" lon="34.298492">
<ele>74.245178</ele>
<time>2011-10-13T08:53:27Z</time>
<desc>lat.=44.553623, lon.=34.298492, Alt.=74.245178m. Speed=0.000000m/h.</desc>
<speed>0.000000</speed>
</trkpt>
<trkpt lat="44.553623" lon="34.298489">
<ele>74.247131</ele>
<time>2011-10-13T08:53:32Z</time>
<desc>lat.=44.553623, lon.=34.298489, Alt.=74.247131m. Speed=0.000000m/h.</desc>
<speed>0.000000</speed>
</trkpt>
<trkpt lat="44.553623" lon="34.298489">
<ele>74.245178</ele>
<time>2011-10-13T08:53:37Z</time>
<desc>lat.=44.553623, lon.=34.298489, Alt.=74.245178m. Speed=0.000000m/h.</desc>
<speed>0.000000</speed>
</trkpt>
<trkpt lat="44.553623" lon="34.298489">
<ele>74.245178</ele>
<time>2011-10-13T08:53:42Z</time>
<desc>lat.=44.553623, lon.=34.298489, Alt.=74.245178m. Speed=0.000000m/h.</desc>
<speed>0.000000</speed>
</trkpt>
<trkpt lat="44.553623" lon="34.298489">
<ele>74.247131</ele>
<time>2011-10-13T08:53:47Z</time>
<desc>lat.=44.553623, lon.=34.298489, Alt.=74.247131m. Speed=0.000000m/h.</desc>
<speed>0.000000</speed>
</trkpt>
<trkpt lat="44.553623" lon="34.298489">
<ele>74.247131</ele>
<time>2011-10-13T08:53:52Z</time>
<desc>lat.=44.553623, lon.=34.298489, Alt.=74.247131m. Speed=0.000000m/h.</desc>
<speed>0.000000</speed>
</trkpt>
<trkpt lat="44.553623" lon="34.298489">
<ele>74.247131</ele>
<time>2011-10-13T08:53:57Z</time>
<desc>lat.=44.553623, lon.=34.298489, Alt.=74.247131m. Speed=0.072000m/h.</desc>
<speed>0.020000</speed>
</trkpt>
<trkpt lat="44.553623" lon="34.298489">
<ele>74.249084</ele>
<time>2011-10-13T08:54:02Z</time>
<desc>lat.=44.553623, lon.=34.298489, Alt.=74.249084m. Speed=0.000000m/h.</desc>
<speed>0.000000</speed>
</trkpt>
<trkpt lat="44.553623" lon="34.298489">
<ele>74.254944</ele>
<time>2011-10-13T08:54:07Z</time>
<desc>lat.=44.553623, lon.=34.298489, Alt.=74.254944m. Speed=0.000000m/h.</desc>
<speed>0.000000</speed>
</trkpt>
<trkpt lat="44.553623" lon="34.298489">
<ele>74.258850</ele>
<time>2011-10-13T08:54:12Z</time>
<desc>lat.=44.553623, lon.=34.298489, Alt.=74.258850m. Speed=0.000000m/h.</desc>
<speed>0.000000</speed>
</trkpt>
<trkpt lat="44.553623" lon="34.298489">
<ele>74.264709</ele>
<time>2011-10-13T08:54:17Z</time>
<desc>lat.=44.553623, lon.=34.298489, Alt.=74.264709m. Speed=0.000000m/h.</desc>
<speed>0.000000</speed>
</trkpt>
<trkpt lat="44.553623" lon="34.298489">
<ele>74.268616</ele>
<time>2011-10-13T08:54:22Z</time>
<desc>lat.=44.553623, lon.=34.298489, Alt.=74.268616m. Speed=0.036000m/h.</desc>
<speed>0.010000</speed>
</trkpt>
<trkpt lat="44.553623" lon="34.298489">
<ele>74.278381</ele>
<time>2011-10-13T08:54:27Z</time>
<desc>lat.=44.553623, lon.=34.298489, Alt.=74.278381m. Speed=0.000000m/h.</desc>
<speed>0.000000</speed>
</trkpt>
<trkpt lat="44.553623" lon="34.298489">
<ele>74.286194</ele>
<time>2011-10-13T08:54:32Z</time>
<desc>lat.=44.553623, lon.=34.298489, Alt.=74.286194m. Speed=0.036000m/h.</desc>
<speed>0.010000</speed>
</trkpt>
<trkpt lat="44.553623" lon="34.298489">
<ele>74.295959</ele>
<time>2011-10-13T08:54:37Z</time>
<desc>lat.=44.553623, lon.=34.298489, Alt.=74.295959m. Speed=0.036000m/h.</desc>
<speed>0.010000</speed>
</trkpt>
<trkpt lat="44.553623" lon="34.298489">
<ele>74.307678</ele>
<time>2011-10-13T08:54:42Z</time>
<desc>lat.=44.553623, lon.=34.298489, Alt.=74.307678m. Speed=0.000000m/h.</desc>
<speed>0.000000</speed>
</trkpt>
<trkpt lat="44.553623" lon="34.298489">
<ele>74.315491</ele>
<time>2011-10-13T08:54:47Z</time>
<desc>lat.=44.553623, lon.=34.298489, Alt.=74.315491m. Speed=0.036000m/h.</desc>
<speed>0.010000</speed>
</trkpt>
<trkpt lat="44.553623" lon="34.298489">
<ele>74.325256</ele>
<time>2011-10-13T08:54:52Z</time>
<desc>lat.=44.553623, lon.=34.298489, Alt.=74.325256m. Speed=0.000000m/h.</desc>
<speed>0.000000</speed>
</trkpt>
<trkpt lat="44.553623" lon="34.298485">
<ele>74.336975</ele>
<time>2011-10-13T08:54:57Z</time>
<desc>lat.=44.553623, lon.=34.298485, Alt.=74.336975m. Speed=0.000000m/h.</desc>
<speed>0.000000</speed>
</trkpt>
<trkpt lat="44.553627" lon="34.298485">
<ele>74.344788</ele>
<time>2011-10-13T08:55:02Z</time>
<desc>lat.=44.553627, lon.=34.298485, Alt.=74.344788m. Speed=0.000000m/h.</desc>
<speed>0.000000</speed>
</trkpt>
<trkpt lat="44.553627" lon="34.298485">
<ele>74.352600</ele>
<time>2011-10-13T08:55:07Z</time>
<desc>lat.=44.553627, lon.=34.298485, Alt.=74.352600m. Speed=0.000000m/h.</desc>
<speed>0.000000</speed>
</trkpt>
<trkpt lat="44.553627" lon="34.298485">
<ele>74.364319</ele>
<time>2011-10-13T08:55:12Z</time>
<desc>lat.=44.553627, lon.=34.298485, Alt.=74.364319m. Speed=0.000000m/h.</desc>
<speed>0.000000</speed>
</trkpt>
<trkpt lat="44.553627" lon="34.298485">
<ele>74.368225</ele>
<time>2011-10-13T08:55:17Z</time>
<desc>lat.=44.553627, lon.=34.298485, Alt.=74.368225m. Speed=0.000000m/h.</desc>
<speed>0.000000</speed>
</trkpt>
<trkpt lat="44.553627" lon="34.298485">
<ele>74.366272</ele>
<time>2011-10-13T08:55:22Z</time>
<desc>lat.=44.553627, lon.=34.298485, Alt.=74.366272m. Speed=0.000000m/h.</desc>
<speed>0.000000</speed>
</trkpt>
<trkpt lat="44.553627" lon="34.298485">
<ele>74.360413</ele>
<time>2011-10-13T08:55:27Z</time>
<desc>lat.=44.553627, lon.=34.298485, Alt.=74.360413m. Speed=0.000000m/h.</desc>
<speed>0.000000</speed>
</trkpt>
<trkpt lat="44.553627" lon="34.298485">
<ele>74.356506</ele>
<time>2011-10-13T08:55:32Z</time>
<desc>lat.=44.553627, lon.=34.298485, Alt.=74.356506m. Speed=0.000000m/h.</desc>
<speed>0.000000</speed>
</trkpt>
<trkpt lat="44.553627" lon="34.298485">
<ele>74.346741</ele>
<time>2011-10-13T08:55:37Z</time>
<desc>lat.=44.553627, lon.=34.298485, Alt.=74.346741m. Speed=0.000000m/h.</desc>
<speed>0.000000</speed>
</trkpt>
<trkpt lat="44.553627" lon="34.298485">
<ele>74.340881</ele>
<time>2011-10-13T08:55:42Z</time>
<desc>lat.=44.553627, lon.=34.298485, Alt.=74.340881m. Speed=0.000000m/h.</desc>
<speed>0.000000</speed>
</trkpt>
<trkpt lat="44.553627" lon="34.298485">
<ele>74.338928</ele>
<time>2011-10-13T08:55:47Z</time>
<desc>lat.=44.553627, lon.=34.298485, Alt.=74.338928m. Speed=0.000000m/h.</desc>
<speed>0.000000</speed>
</trkpt>
<trkpt lat="44.553627" lon="34.298485">
<ele>74.338928</ele>
<time>2011-10-13T08:55:52Z</time>
<desc>lat.=44.553627, lon.=34.298485, Alt.=74.338928m. Speed=0.036000m/h.</desc>
<speed>0.010000</speed>
</trkpt>
<trkpt lat="44.553627" lon="34.298485">
<ele>74.340881</ele>
<time>2011-10-13T08:55:57Z</time>
<desc>lat.=44.553627, lon.=34.298485, Alt.=74.340881m. Speed=0.036000m/h.</desc>
<speed>0.010000</speed>
</trkpt>
<trkpt lat="44.553627" lon="34.298485">
<ele>74.340881</ele>
<time>2011-10-13T08:56:02Z</time>
<desc>lat.=44.553627, lon.=34.298485, Alt.=74.340881m. Speed=0.000000m/h.</desc>
<speed>0.000000</speed>
</trkpt>
<trkpt lat="44.553627" lon="34.298485">
<ele>74.346741</ele>
<time>2011-10-13T08:56:07Z</time>
<desc>lat.=44.553627, lon.=34.298485, Alt.=74.346741m. Speed=0.000000m/h.</desc>
<speed>0.000000</speed>
</trkpt>
<trkpt lat="44.553627" lon="34.298485">
<ele>74.352600</ele>
<time>2011-10-13T08:56:12Z</time>
<desc>lat.=44.553627, lon.=34.298485, Alt.=74.352600m. Speed=0.000000m/h.</desc>
<speed>0.000000</speed>
</trkpt>
<trkpt lat="44.553627" lon="34.298485">
<ele>74.362366</ele>
<time>2011-10-13T08:56:17Z</time>
<desc>lat.=44.553627, lon.=34.298485, Alt.=74.362366m. Speed=0.000000m/h.</desc>
<speed>0.000000</speed>
</trkpt>
<trkpt lat="44.553627" lon="34.298485">
<ele>74.374084</ele>
<time>2011-10-13T08:56:22Z</time>
<desc>lat.=44.553627, lon.=34.298485, Alt.=74.374084m. Speed=0.000000m/h.</desc>
<speed>0.000000</speed>
</trkpt>
<trkpt lat="44.553627" lon="34.298485">
<ele>74.395569</ele>
<time>2011-10-13T08:56:27Z</time>
<desc>lat.=44.553627, lon.=34.298485, Alt.=74.395569m. Speed=0.000000m/h.</desc>
<speed>0.000000</speed>
</trkpt>
<trkpt lat="44.553627" lon="34.298485">
<ele>74.419006</ele>
<time>2011-10-13T08:56:32Z</time>
<desc>lat.=44.553627, lon.=34.298485, Alt.=74.419006m. Speed=0.000000m/h.</desc>
<speed>0.000000</speed>
</trkpt>
<trkpt lat="44.553627" lon="34.298485">
<ele>74.436584</ele>
<time>2011-10-13T08:56:37Z</time>
<desc>lat.=44.553627, lon.=34.298485, Alt.=74.436584m. Speed=0.036000m/h.</desc>
<speed>0.010000</speed>
</trkpt>
<trkpt lat="44.553627" lon="34.298485">
<ele>74.448303</ele>
<time>2011-10-13T08:56:42Z</time>
<desc>lat.=44.553627, lon.=34.298485, Alt.=74.448303m. Speed=0.000000m/h.</desc>
<speed>0.000000</speed>
</trkpt>
<trkpt lat="44.553627" lon="34.298485">
<ele>74.458069</ele>
<time>2011-10-13T08:56:47Z</time>
<desc>lat.=44.553627, lon.=34.298485, Alt.=74.458069m. Speed=0.000000m/h.</desc>
<speed>0.000000</speed>
</trkpt>
<trkpt lat="44.553627" lon="34.298485">
<ele>74.477600</ele>
<time>2011-10-13T08:56:52Z</time>
<desc>lat.=44.553627, lon.=34.298485, Alt.=74.477600m. Speed=0.000000m/h.</desc>
<speed>0.000000</speed>
</trkpt>
<trkpt lat="44.553627" lon="34.298485">
<ele>74.489319</ele>
<time>2011-10-13T08:56:57Z</time>
<desc>lat.=44.553627, lon.=34.298485, Alt.=74.489319m. Speed=0.000000m/h.</desc>
<speed>0.000000</speed>
</trkpt>
<trkpt lat="44.553627" lon="34.298481">
<ele>74.493225</ele>
<time>2011-10-13T08:57:02Z</time>
<desc>lat.=44.553627, lon.=34.298481, Alt.=74.493225m. Speed=0.000000m/h.</desc>
<speed>0.000000</speed>
</trkpt>
<trkpt lat="44.553627" lon="34.298481">
<ele>74.495178</ele>
<time>2011-10-13T08:57:07Z</time>
<desc>lat.=44.553627, lon.=34.298481, Alt.=74.495178m. Speed=0.000000m/h.</desc>
<speed>0.000000</speed>
</trkpt>
<trkpt lat="44.553627" lon="34.298481">
<ele>74.491272</ele>
<time>2011-10-13T08:57:12Z</time>
<desc>lat.=44.553627, lon.=34.298481, Alt.=74.491272m. Speed=0.000000m/h.</desc>
<speed>0.000000</speed>
</trkpt>
<trkpt lat="44.553627" lon="34.298481">
<ele>74.489319</ele>
<time>2011-10-13T08:57:17Z</time>
<desc>lat.=44.553627, lon.=34.298481, Alt.=74.489319m. Speed=0.036000m/h.</desc>
<speed>0.010000</speed>
</trkpt>
<trkpt lat="44.553627" lon="34.298481">
<ele>74.481506</ele>
<time>2011-10-13T08:57:22Z</time>
<desc>lat.=44.553627, lon.=34.298481, Alt.=74.481506m. Speed=0.000000m/h.</desc>
<speed>0.000000</speed>
</trkpt>
<trkpt lat="44.553627" lon="34.298481">
<ele>74.477600</ele>
<time>2011-10-13T08:57:27Z</time>
<desc>lat.=44.553627, lon.=34.298481, Alt.=74.477600m. Speed=0.000000m/h.</desc>
<speed>0.000000</speed>
</trkpt>
<trkpt lat="44.553627" lon="34.298481">
<ele>74.473694</ele>
<time>2011-10-13T08:57:32Z</time>
<desc>lat.=44.553627, lon.=34.298481, Alt.=74.473694m. Speed=0.036000m/h.</desc>
<speed>0.010000</speed>
</trkpt>
<trkpt lat="44.553627" lon="34.298481">
<ele>74.471741</ele>
<time>2011-10-13T08:57:37Z</time>
<desc>lat.=44.553627, lon.=34.298481, Alt.=74.471741m. Speed=0.000000m/h.</desc>
<speed>0.000000</speed>
</trkpt>
<trkpt lat="44.553627" lon="34.298481">
<ele>74.467834</ele>
<time>2011-10-13T08:57:42Z</time>
<desc>lat.=44.553627, lon.=34.298481, Alt.=74.467834m. Speed=0.000000m/h.</desc>
<speed>0.000000</speed>
</trkpt>
<trkpt lat="44.553627" lon="34.298481">
<ele>74.463928</ele>
<time>2011-10-13T08:57:47Z</time>
<desc>lat.=44.553627, lon.=34.298481, Alt.=74.463928m. Speed=0.036000m/h.</desc>
<speed>0.010000</speed>
</trkpt>
<trkpt lat="44.553627" lon="34.298481">
<ele>74.465881</ele>
<time>2011-10-13T08:57:52Z</time>
<desc>lat.=44.553627, lon.=34.298481, Alt.=74.465881m. Speed=0.000000m/h.</desc>
<speed>0.000000</speed>
</trkpt>
<trkpt lat="44.553627" lon="34.298481">
<ele>74.469788</ele>
<time>2011-10-13T08:57:57Z</time>
<desc>lat.=44.553627, lon.=34.298481, Alt.=74.469788m. Speed=0.000000m/h.</desc>
<speed>0.000000</speed>
</trkpt>
<trkpt lat="44.553627" lon="34.298481">
<ele>74.471741</ele>
<time>2011-10-13T08:58:02Z</time>
<desc>lat.=44.553627, lon.=34.298481, Alt.=74.471741m. Speed=0.000000m/h.</desc>
<speed>0.000000</speed>
</trkpt>
<trkpt lat="44.553627" lon="34.298481">
<ele>74.469788</ele>
<time>2011-10-13T08:58:07Z</time>
<desc>lat.=44.553627, lon.=34.298481, Alt.=74.469788m. Speed=0.000000m/h.</desc>
<speed>0.000000</speed>
</trkpt>
<trkpt lat="44.553627" lon="34.298481">
<ele>74.463928</ele>
<time>2011-10-13T08:58:12Z</time>
<desc>lat.=44.553627, lon.=34.298481, Alt.=74.463928m. Speed=0.036000m/h.</desc>
<speed>0.010000</speed>
</trkpt>
<trkpt lat="44.553627" lon="34.298481">
<ele>74.458069</ele>
<time>2011-10-13T08:58:17Z</time>
<desc>lat.=44.553627, lon.=34.298481, Alt.=74.458069m. Speed=0.000000m/h.</desc>
<speed>0.000000</speed>
</trkpt>
<trkpt lat="44.553627" lon="34.298481">
<ele>74.452209</ele>
<time>2011-10-13T08:58:22Z</time>
<desc>lat.=44.553627, lon.=34.298481, Alt.=74.452209m. Speed=0.000000m/h.</desc>
<speed>0.000000</speed>
</trkpt>
<trkpt lat="44.553627" lon="34.298481">
<ele>74.450256</ele>
<time>2011-10-13T08:58:27Z</time>
<desc>lat.=44.553627, lon.=34.298481, Alt.=74.450256m. Speed=0.000000m/h.</desc>
<speed>0.000000</speed>
</trkpt>
<trkpt lat="44.553627" lon="34.298477">
<ele>74.448303</ele>
<time>2011-10-13T08:58:32Z</time>
<desc>lat.=44.553627, lon.=34.298477, Alt.=74.448303m. Speed=0.000000m/h.</desc>
<speed>0.000000</speed>
</trkpt>
<trkpt lat="44.553627" lon="34.298477">
<ele>74.446350</ele>
<time>2011-10-13T08:58:37Z</time>
<desc>lat.=44.553627, lon.=34.298477, Alt.=74.446350m. Speed=0.000000m/h.</desc>
<speed>0.000000</speed>
</trkpt>
<trkpt lat="44.553627" lon="34.298477">
<ele>74.436584</ele>
<time>2011-10-13T08:58:42Z</time>
<desc>lat.=44.553627, lon.=34.298477, Alt.=74.436584m. Speed=0.036000m/h.</desc>
<speed>0.010000</speed>
</trkpt>
<trkpt lat="44.553627" lon="34.298477">
<ele>74.432678</ele>
<time>2011-10-13T08:58:47Z</time>
<desc>lat.=44.553627, lon.=34.298477, Alt.=74.432678m. Speed=0.000000m/h.</desc>
<speed>0.000000</speed>
</trkpt>
<trkpt lat="44.553627" lon="34.298477">
<ele>74.430725</ele>
<time>2011-10-13T08:58:52Z</time>
<desc>lat.=44.553627, lon.=34.298477, Alt.=74.430725m. Speed=0.000000m/h.</desc>
<speed>0.000000</speed>
</trkpt>
<trkpt lat="44.553627" lon="34.298477">
<ele>74.422913</ele>
<time>2011-10-13T08:58:57Z</time>
<desc>lat.=44.553627, lon.=34.298477, Alt.=74.422913m. Speed=0.000000m/h.</desc>
<speed>0.000000</speed>
</trkpt>
<trkpt lat="44.553627" lon="34.298477">
<ele>74.413147</ele>
<time>2011-10-13T08:59:02Z</time>
<desc>lat.=44.553627, lon.=34.298477, Alt.=74.413147m. Speed=0.000000m/h.</desc>
<speed>0.000000</speed>
</trkpt>
<trkpt lat="44.553627" lon="34.298477">
<ele>74.405334</ele>
<time>2011-10-13T08:59:07Z</time>
<desc>lat.=44.553627, lon.=34.298477, Alt.=74.405334m. Speed=0.000000m/h.</desc>
<speed>0.000000</speed>
</trkpt>
<trkpt lat="44.553627" lon="34.298477">
<ele>74.401428</ele>
<time>2011-10-13T08:59:12Z</time>
<desc>lat.=44.553627, lon.=34.298477, Alt.=74.401428m. Speed=0.036000m/h.</desc>
<speed>0.010000</speed>
</trkpt>
<trkpt lat="44.553627" lon="34.298477">
<ele>74.407288</ele>
<time>2011-10-13T08:59:17Z</time>
<desc>lat.=44.553627, lon.=34.298477, Alt.=74.407288m. Speed=0.000000m/h.</desc>
<speed>0.000000</speed>
</trkpt>
<trkpt lat="44.553627" lon="34.298477">
<ele>74.407288</ele>
<time>2011-10-13T08:59:22Z</time>
<desc>lat.=44.553627, lon.=34.298477, Alt.=74.407288m. Speed=0.000000m/h.</desc>
<speed>0.000000</speed>
</trkpt>
<trkpt lat="44.553627" lon="34.298477">
<ele>74.407288</ele>
<time>2011-10-13T08:59:27Z</time>
<desc>lat.=44.553627, lon.=34.298477, Alt.=74.407288m. Speed=0.036000m/h.</desc>
<speed>0.010000</speed>
</trkpt>
<trkpt lat="44.553627" lon="34.298477">
<ele>74.405334</ele>
<time>2011-10-13T08:59:32Z</time>
<desc>lat.=44.553627, lon.=34.298477, Alt.=74.405334m. Speed=0.000000m/h.</desc>
<speed>0.000000</speed>
</trkpt>
<trkpt lat="44.553627" lon="34.298477">
<ele>74.422913</ele>
<time>2011-10-13T08:59:37Z</time>
<desc>lat.=44.553627, lon.=34.298477, Alt.=74.422913m. Speed=0.000000m/h.</desc>
<speed>0.000000</speed>
</trkpt>
<trkpt lat="44.553627" lon="34.298477">
<ele>74.424866</ele>
<time>2011-10-13T08:59:42Z</time>
<desc>lat.=44.553627, lon.=34.298477, Alt.=74.424866m. Speed=0.000000m/h.</desc>
<speed>0.000000</speed>
</trkpt>
<trkpt lat="44.553627" lon="34.298477">
<ele>74.434631</ele>
<time>2011-10-13T08:59:47Z</time>
<desc>lat.=44.553627, lon.=34.298477, Alt.=74.434631m. Speed=0.036000m/h.</desc>
<speed>0.010000</speed>
</trkpt>
<trkpt lat="44.553627" lon="34.298477">
<ele>74.440491</ele>
<time>2011-10-13T08:59:52Z</time>
<desc>lat.=44.553627, lon.=34.298477, Alt.=74.440491m. Speed=0.000000m/h.</desc>
<speed>0.000000</speed>
</trkpt>
<trkpt lat="44.553627" lon="34.298477">
<ele>74.442444</ele>
<time>2011-10-13T08:59:57Z</time>
<desc>lat.=44.553627, lon.=34.298477, Alt.=74.442444m. Speed=0.036000m/h.</desc>
<speed>0.010000</speed>
</trkpt>
<trkpt lat="44.553627" lon="34.298477">
<ele>74.446350</ele>
<time>2011-10-13T09:00:02Z</time>
<desc>lat.=44.553627, lon.=34.298477, Alt.=74.446350m. Speed=0.036000m/h.</desc>
<speed>0.010000</speed>
</trkpt>
<trkpt lat="44.553627" lon="34.298473">
<ele>74.450256</ele>
<time>2011-10-13T09:00:07Z</time>
<desc>lat.=44.553627, lon.=34.298473, Alt.=74.450256m. Speed=0.036000m/h.</desc>
<speed>0.010000</speed>
</trkpt>
<trkpt lat="44.553627" lon="34.298473">
<ele>74.463928</ele>
<time>2011-10-13T09:00:12Z</time>
<desc>lat.=44.553627, lon.=34.298473, Alt.=74.463928m. Speed=0.000000m/h.</desc>
<speed>0.000000</speed>
</trkpt>
<trkpt lat="44.553627" lon="34.298473">
<ele>74.479553</ele>
<time>2011-10-13T09:00:17Z</time>
<desc>lat.=44.553627, lon.=34.298473, Alt.=74.479553m. Speed=0.036000m/h.</desc>
<speed>0.010000</speed>
</trkpt>
<trkpt lat="44.553627" lon="34.298473">
<ele>74.491272</ele>
<time>2011-10-13T09:00:22Z</time>
<desc>lat.=44.553627, lon.=34.298473, Alt.=74.491272m. Speed=0.036000m/h.</desc>
<speed>0.010000</speed>
</trkpt>
<trkpt lat="44.553627" lon="34.298473">
<ele>74.504944</ele>
<time>2011-10-13T09:00:27Z</time>
<desc>lat.=44.553627, lon.=34.298473, Alt.=74.504944m. Speed=0.000000m/h.</desc>
<speed>0.000000</speed>
</trkpt>
<trkpt lat="44.553627" lon="34.298473">
<ele>74.516663</ele>
<time>2011-10-13T09:00:32Z</time>
<desc>lat.=44.553627, lon.=34.298473, Alt.=74.516663m. Speed=0.000000m/h.</desc>
<speed>0.000000</speed>
</trkpt>
<trkpt lat="44.553627" lon="34.298473">
<ele>74.534241</ele>
<time>2011-10-13T09:00:37Z</time>
<desc>lat.=44.553627, lon.=34.298473, Alt.=74.534241m. Speed=0.072000m/h.</desc>
<speed>0.020000</speed>
</trkpt>
<trkpt lat="44.553627" lon="34.298473">
<ele>74.547913</ele>
<time>2011-10-13T09:00:42Z</time>
<desc>lat.=44.553627, lon.=34.298473, Alt.=74.547913m. Speed=0.000000m/h.</desc>
<speed>0.000000</speed>
</trkpt>
<trkpt lat="44.553627" lon="34.298470">
<ele>74.579163</ele>
<time>2011-10-13T09:00:47Z</time>
<desc>lat.=44.553627, lon.=34.298470, Alt.=74.579163m. Speed=0.000000m/h.</desc>
<speed>0.000000</speed>
</trkpt>
<trkpt lat="44.553627" lon="34.298473">
<ele>74.575256</ele>
<time>2011-10-13T09:00:52Z</time>
<desc>lat.=44.553627, lon.=34.298473, Alt.=74.575256m. Speed=0.864000m/h.</desc>
<speed>0.240000</speed>
</trkpt>
<trkpt lat="44.553623" lon="34.298477">
<ele>74.463928</ele>
<time>2011-10-13T09:00:57Z</time>
<desc>lat.=44.553623, lon.=34.298477, Alt.=74.463928m. Speed=0.036000m/h.</desc>
<speed>0.010000</speed>
</trkpt>
<trkpt lat="44.553623" lon="34.298477">
<ele>74.458069</ele>
<time>2011-10-13T09:01:02Z</time>
<desc>lat.=44.553623, lon.=34.298477, Alt.=74.458069m. Speed=0.000000m/h.</desc>
<speed>0.000000</speed>
</trkpt>
<trkpt lat="44.553623" lon="34.298477">
<ele>74.475647</ele>
<time>2011-10-13T09:01:07Z</time>
<desc>lat.=44.553623, lon.=34.298477, Alt.=74.475647m. Speed=2.808000m/h.</desc>
<speed>0.780000</speed>
</trkpt>
<trkpt lat="44.553635" lon="34.298492">
<ele>74.631897</ele>
<time>2011-10-13T09:01:12Z</time>
<desc>lat.=44.553635, lon.=34.298492, Alt.=74.631897m. Speed=0.468000m/h.</desc>
<speed>0.130000</speed>
</trkpt>
<trkpt lat="44.553635" lon="34.298492">
<ele>74.815491</ele>
<time>2011-10-13T09:01:17Z</time>
<desc>lat.=44.553635, lon.=34.298492, Alt.=74.815491m. Speed=0.036000m/h.</desc>
<speed>0.010000</speed>
</trkpt>
<trkpt lat="44.553635" lon="34.298492">
<ele>74.817444</ele>
<time>2011-10-13T09:01:22Z</time>
<desc>lat.=44.553635, lon.=34.298492, Alt.=74.817444m. Speed=0.432000m/h.</desc>
<speed>0.120000</speed>
</trkpt>
<trkpt lat="44.553635" lon="34.298492">
<ele>74.831116</ele>
<time>2011-10-13T09:01:27Z</time>
<desc>lat.=44.553635, lon.=34.298492, Alt.=74.831116m. Speed=0.036000m/h.</desc>
<speed>0.010000</speed>
</trkpt>
<trkpt lat="44.553635" lon="34.298492">
<ele>74.862366</ele>
<time>2011-10-13T09:01:32Z</time>
<desc>lat.=44.553635, lon.=34.298492, Alt.=74.862366m. Speed=0.108000m/h.</desc>
<speed>0.030000</speed>
</trkpt>
<trkpt lat="44.553635" lon="34.298492">
<ele>74.874084</ele>
<time>2011-10-13T09:01:37Z</time>
<desc>lat.=44.553635, lon.=34.298492, Alt.=74.874084m. Speed=0.036000m/h.</desc>
<speed>0.010000</speed>
</trkpt>
<trkpt lat="44.553635" lon="34.298492">
<ele>74.889709</ele>
<time>2011-10-13T09:01:42Z</time>
<desc>lat.=44.553635, lon.=34.298492, Alt.=74.889709m. Speed=0.000000m/h.</desc>
<speed>0.000000</speed>
</trkpt>
<trkpt lat="44.553635" lon="34.298489">
<ele>74.868225</ele>
<time>2011-10-13T09:01:47Z</time>
<desc>lat.=44.553635, lon.=34.298489, Alt.=74.868225m. Speed=7.596000m/h.</desc>
<speed>2.110000</speed>
</trkpt>
<trkpt lat="44.553650" lon="34.298416">
<ele>73.133850</ele>
<time>2011-10-13T09:01:52Z</time>
<desc>lat.=44.553650, lon.=34.298416, Alt.=73.133850m. Speed=3.492000m/h.</desc>
<speed>0.970000</speed>
</trkpt>
<trkpt lat="44.553616" lon="34.298351">
<ele>72.319397</ele>
<time>2011-10-13T09:01:57Z</time>
<desc>lat.=44.553616, lon.=34.298351, Alt.=72.319397m. Speed=4.104000m/h.</desc>
<speed>1.140000</speed>
</trkpt>
<trkpt lat="44.553543" lon="34.298237">
<ele>70.913147</ele>
<time>2011-10-13T09:02:02Z</time>
<desc>lat.=44.553543, lon.=34.298237, Alt.=70.913147m. Speed=5.004000m/h.</desc>
<speed>1.390000</speed>
</trkpt>
<trkpt lat="44.553524" lon="34.298214">
<ele>70.085022</ele>
<time>2011-10-13T09:02:07Z</time>
<desc>lat.=44.553524, lon.=34.298214, Alt.=70.085022m. Speed=3.312000m/h.</desc>
<speed>0.920000</speed>
</trkpt>
<trkpt lat="44.553467" lon="34.298130">
<ele>69.766663</ele>
<time>2011-10-13T09:02:12Z</time>
<desc>lat.=44.553467, lon.=34.298130, Alt.=69.766663m. Speed=5.760000m/h.</desc>
<speed>1.600000</speed>
</trkpt>
<trkpt lat="44.553383" lon="34.298027">
<ele>69.864319</ele>
<time>2011-10-13T09:02:17Z</time>
<desc>lat.=44.553383, lon.=34.298027, Alt.=69.864319m. Speed=9.900000m/h.</desc>
<speed>2.750000</speed>
</trkpt>
<trkpt lat="44.553204" lon="34.297874">
<ele>69.299866</ele>
<time>2011-10-13T09:02:22Z</time>
<desc>lat.=44.553204, lon.=34.297874, Alt.=69.299866m. Speed=8.640000m/h.</desc>
<speed>2.400000</speed>
</trkpt>
<trkpt lat="44.553108" lon="34.297760">
<ele>70.864319</ele>
<time>2011-10-13T09:02:27Z</time>
<desc>lat.=44.553108, lon.=34.297760, Alt.=70.864319m. Speed=7.704000m/h.</desc>
<speed>2.140000</speed>
</trkpt>
<trkpt lat="44.553028" lon="34.297665">
<ele>72.038147</ele>
<time>2011-10-13T09:02:32Z</time>
<desc>lat.=44.553028, lon.=34.297665, Alt.=72.038147m. Speed=7.992000m/h.</desc>
<speed>2.220000</speed>
</trkpt>
<trkpt lat="44.552948" lon="34.297588">
<ele>72.075256</ele>
<time>2011-10-13T09:02:37Z</time>
<desc>lat.=44.552948, lon.=34.297588, Alt.=72.075256m. Speed=5.220000m/h.</desc>
<speed>1.450000</speed>
</trkpt>
<trkpt lat="44.552876" lon="34.297531">
<ele>72.866272</ele>
<time>2011-10-13T09:02:42Z</time>
<desc>lat.=44.552876, lon.=34.297531, Alt.=72.866272m. Speed=4.932000m/h.</desc>
<speed>1.370000</speed>
</trkpt>
<trkpt lat="44.552845" lon="34.297459">
<ele>73.778381</ele>
<time>2011-10-13T09:02:47Z</time>
<desc>lat.=44.552845, lon.=34.297459, Alt.=73.778381m. Speed=5.580000m/h.</desc>
<speed>1.550000</speed>
</trkpt>
<trkpt lat="44.552814" lon="34.297375">
<ele>78.083069</ele>
<time>2011-10-13T09:02:52Z</time>
<desc>lat.=44.552814, lon.=34.297375, Alt.=78.083069m. Speed=5.724000m/h.</desc>
<speed>1.590000</speed>
</trkpt>
<trkpt lat="44.552837" lon="34.297302">
<ele>80.493225</ele>
<time>2011-10-13T09:02:57Z</time>
<desc>lat.=44.552837, lon.=34.297302, Alt.=80.493225m. Speed=3.168000m/h.</desc>
<speed>0.880000</speed>
</trkpt>
<trkpt lat="44.552891" lon="34.297203">
<ele>80.585022</ele>
<time>2011-10-13T09:03:02Z</time>
<desc>lat.=44.552891, lon.=34.297203, Alt.=80.585022m. Speed=4.392000m/h.</desc>
<speed>1.220000</speed>
</trkpt>
<trkpt lat="44.552956" lon="34.297100">
<ele>79.563538</ele>
<time>2011-10-13T09:03:07Z</time>
<desc>lat.=44.552956, lon.=34.297100, Alt.=79.563538m. Speed=5.940000m/h.</desc>
<speed>1.650000</speed>
</trkpt>
<trkpt lat="44.553017" lon="34.297016">
<ele>79.821350</ele>
<time>2011-10-13T09:03:12Z</time>
<desc>lat.=44.553017, lon.=34.297016, Alt.=79.821350m. Speed=6.048000m/h.</desc>
<speed>1.680000</speed>
</trkpt>
<trkpt lat="44.553078" lon="34.296947">
<ele>80.313538</ele>
<time>2011-10-13T09:03:17Z</time>
<desc>lat.=44.553078, lon.=34.296947, Alt.=80.313538m. Speed=4.644000m/h.</desc>
<speed>1.290000</speed>
</trkpt>
<trkpt lat="44.553127" lon="34.296871">
<ele>81.151428</ele>
<time>2011-10-13T09:03:22Z</time>
<desc>lat.=44.553127, lon.=34.296871, Alt.=81.151428m. Speed=5.436000m/h.</desc>
<speed>1.510000</speed>
</trkpt>
<trkpt lat="44.553181" lon="34.296825">
<ele>81.831116</ele>
<time>2011-10-13T09:03:27Z</time>
<desc>lat.=44.553181, lon.=34.296825, Alt.=81.831116m. Speed=5.364000m/h.</desc>
<speed>1.490000</speed>
</trkpt>
<trkpt lat="44.553215" lon="34.296749">
<ele>82.633850</ele>
<time>2011-10-13T09:03:32Z</time>
<desc>lat.=44.553215, lon.=34.296749, Alt.=82.633850m. Speed=5.256000m/h.</desc>
<speed>1.460000</speed>
</trkpt>
<trkpt lat="44.553246" lon="34.296673">
<ele>83.528381</ele>
<time>2011-10-13T09:03:37Z</time>
<desc>lat.=44.553246, lon.=34.296673, Alt.=83.528381m. Speed=5.472000m/h.</desc>
<speed>1.520000</speed>
</trkpt>
<trkpt lat="44.553276" lon="34.296600">
<ele>85.231506</ele>
<time>2011-10-13T09:03:42Z</time>
<desc>lat.=44.553276, lon.=34.296600, Alt.=85.231506m. Speed=5.328000m/h.</desc>
<speed>1.480000</speed>
</trkpt>
<trkpt lat="44.553303" lon="34.296528">
<ele>86.497131</ele>
<time>2011-10-13T09:03:47Z</time>
<desc>lat.=44.553303, lon.=34.296528, Alt.=86.497131m. Speed=5.472000m/h.</desc>
<speed>1.520000</speed>
</trkpt>
<trkpt lat="44.553333" lon="34.296471">
<ele>87.956116</ele>
<time>2011-10-13T09:03:52Z</time>
<desc>lat.=44.553333, lon.=34.296471, Alt.=87.956116m. Speed=4.752000m/h.</desc>
<speed>1.320000</speed>
</trkpt>
<trkpt lat="44.553349" lon="34.296406">
<ele>90.100647</ele>
<time>2011-10-13T09:03:57Z</time>
<desc>lat.=44.553349, lon.=34.296406, Alt.=90.100647m. Speed=5.400000m/h.</desc>
<speed>1.500000</speed>
</trkpt>
<trkpt lat="44.553387" lon="34.296307">
<ele>91.276428</ele>
<time>2011-10-13T09:04:02Z</time>
<desc>lat.=44.553387, lon.=34.296307, Alt.=91.276428m. Speed=6.732000m/h.</desc>
<speed>1.870000</speed>
</trkpt>
<trkpt lat="44.553391" lon="34.296215">
<ele>94.809631</ele>
<time>2011-10-13T09:04:07Z</time>
<desc>lat.=44.553391, lon.=34.296215, Alt.=94.809631m. Speed=5.076000m/h.</desc>
<speed>1.410000</speed>
</trkpt>
<trkpt lat="44.553391" lon="34.296150">
<ele>98.813538</ele>
<time>2011-10-13T09:04:12Z</time>
<desc>lat.=44.553391, lon.=34.296150, Alt.=98.813538m. Speed=5.040000m/h.</desc>
<speed>1.400000</speed>
</trkpt>
<trkpt lat="44.553410" lon="34.296062">
<ele>101.333069</ele>
<time>2011-10-13T09:04:17Z</time>
<desc>lat.=44.553410, lon.=34.296062, Alt.=101.333069m. Speed=6.336000m/h.</desc>
<speed>1.760000</speed>
</trkpt>
<trkpt lat="44.553440" lon="34.295967">
<ele>103.883850</ele>
<time>2011-10-13T09:04:22Z</time>
<desc>lat.=44.553440, lon.=34.295967, Alt.=103.883850m. Speed=6.336000m/h.</desc>
<speed>1.760000</speed>
</trkpt>
<trkpt lat="44.553474" lon="34.295868">
<ele>105.311584</ele>
<time>2011-10-13T09:04:27Z</time>
<desc>lat.=44.553474, lon.=34.295868, Alt.=105.311584m. Speed=5.796000m/h.</desc>
<speed>1.610000</speed>
</trkpt>
<trkpt lat="44.553524" lon="34.295765">
<ele>104.321350</ele>
<time>2011-10-13T09:04:32Z</time>
<desc>lat.=44.553524, lon.=34.295765, Alt.=104.321350m. Speed=6.588000m/h.</desc>
<speed>1.830000</speed>
</trkpt>
<trkpt lat="44.553543" lon="34.295654">
<ele>104.469788</ele>
<time>2011-10-13T09:04:37Z</time>
<desc>lat.=44.553543, lon.=34.295654, Alt.=104.469788m. Speed=7.200000m/h.</desc>
<speed>2.000000</speed>
</trkpt>
<trkpt lat="44.553547" lon="34.295525">
<ele>104.907288</ele>
<time>2011-10-13T09:04:42Z</time>
<desc>lat.=44.553547, lon.=34.295525, Alt.=104.907288m. Speed=6.984000m/h.</desc>
<speed>1.940000</speed>
</trkpt>
<trkpt lat="44.553547" lon="34.295406">
<ele>105.323303</ele>
<time>2011-10-13T09:04:47Z</time>
<desc>lat.=44.553547, lon.=34.295406, Alt.=105.323303m. Speed=6.660000m/h.</desc>
<speed>1.850000</speed>
</trkpt>
<trkpt lat="44.553520" lon="34.295235">
<ele>102.624084</ele>
<time>2011-10-13T09:04:52Z</time>
<desc>lat.=44.553520, lon.=34.295235, Alt.=102.624084m. Speed=6.876000m/h.</desc>
<speed>1.910000</speed>
</trkpt>
<trkpt lat="44.553482" lon="34.295097">
<ele>101.987366</ele>
<time>2011-10-13T09:04:57Z</time>
<desc>lat.=44.553482, lon.=34.295097, Alt.=101.987366m. Speed=7.416000m/h.</desc>
<speed>2.060000</speed>
</trkpt>
<trkpt lat="44.553429" lon="34.294979">
<ele>102.307678</ele>
<time>2011-10-13T09:05:02Z</time>
<desc>lat.=44.553429, lon.=34.294979, Alt.=102.307678m. Speed=7.020000m/h.</desc>
<speed>1.950000</speed>
</trkpt>
<trkpt lat="44.553406" lon="34.294853">
<ele>100.903381</ele>
<time>2011-10-13T09:05:07Z</time>
<desc>lat.=44.553406, lon.=34.294853, Alt.=100.903381m. Speed=7.272000m/h.</desc>
<speed>2.020000</speed>
</trkpt>
<trkpt lat="44.553349" lon="34.294720">
<ele>101.131897</ele>
<time>2011-10-13T09:05:12Z</time>
<desc>lat.=44.553349, lon.=34.294720, Alt.=101.131897m. Speed=9.144000m/h.</desc>
<speed>2.540000</speed>
</trkpt>
<trkpt lat="44.553280" lon="34.294563">
<ele>101.856506</ele>
<time>2011-10-13T09:05:17Z</time>
<desc>lat.=44.553280, lon.=34.294563, Alt.=101.856506m. Speed=9.036000m/h.</desc>
<speed>2.510000</speed>
</trkpt>
<trkpt lat="44.553215" lon="34.294422">
<ele>102.610413</ele>
<time>2011-10-13T09:05:22Z</time>
<desc>lat.=44.553215, lon.=34.294422, Alt.=102.610413m. Speed=8.208000m/h.</desc>
<speed>2.280000</speed>
</trkpt>
<trkpt lat="44.553135" lon="34.294304">
<ele>104.147522</ele>
<time>2011-10-13T09:05:27Z</time>
<desc>lat.=44.553135, lon.=34.294304, Alt.=104.147522m. Speed=8.892000m/h.</desc>
<speed>2.470000</speed>
</trkpt>
<trkpt lat="44.553070" lon="34.294189">
<ele>103.860413</ele>
<time>2011-10-13T09:05:32Z</time>
<desc>lat.=44.553070, lon.=34.294189, Alt.=103.860413m. Speed=9.000000m/h.</desc>
<speed>2.500000</speed>
</trkpt>
<trkpt lat="44.552998" lon="34.294071">
<ele>103.942444</ele>
<time>2011-10-13T09:05:37Z</time>
<desc>lat.=44.552998, lon.=34.294071, Alt.=103.942444m. Speed=8.388000m/h.</desc>
<speed>2.330000</speed>
</trkpt>
<trkpt lat="44.552937" lon="34.293968">
<ele>105.038147</ele>
<time>2011-10-13T09:05:42Z</time>
<desc>lat.=44.552937, lon.=34.293968, Alt.=105.038147m. Speed=7.884000m/h.</desc>
<speed>2.190000</speed>
</trkpt>
<trkpt lat="44.552879" lon="34.293850">
<ele>104.860413</ele>
<time>2011-10-13T09:05:47Z</time>
<desc>lat.=44.552879, lon.=34.293850, Alt.=104.860413m. Speed=7.416000m/h.</desc>
<speed>2.060000</speed>
</trkpt>
<trkpt lat="44.552826" lon="34.293739">
<ele>106.165100</ele>
<time>2011-10-13T09:05:52Z</time>
<desc>lat.=44.552826, lon.=34.293739, Alt.=106.165100m. Speed=8.496000m/h.</desc>
<speed>2.360000</speed>
</trkpt>
<trkpt lat="44.552795" lon="34.293617">
<ele>106.225647</ele>
<time>2011-10-13T09:05:57Z</time>
<desc>lat.=44.552795, lon.=34.293617, Alt.=106.225647m. Speed=7.848000m/h.</desc>
<speed>2.180000</speed>
</trkpt>
<trkpt lat="44.552773" lon="34.293484">
<ele>107.561584</ele>
<time>2011-10-13T09:06:02Z</time>
<desc>lat.=44.552773, lon.=34.293484, Alt.=107.561584m. Speed=4.752000m/h.</desc>
<speed>1.320000</speed>
</trkpt>
<trkpt lat="44.552765" lon="34.293388">
<ele>108.491272</ele>
<time>2011-10-13T09:06:07Z</time>
<desc>lat.=44.552765, lon.=34.293388, Alt.=108.491272m. Speed=5.832000m/h.</desc>
<speed>1.620000</speed>
</trkpt>
<trkpt lat="44.552788" lon="34.293308">
<ele>110.415100</ele>
<time>2011-10-13T09:06:12Z</time>
<desc>lat.=44.552788, lon.=34.293308, Alt.=110.415100m. Speed=5.616000m/h.</desc>
<speed>1.560000</speed>
</trkpt>
<trkpt lat="44.552811" lon="34.293217">
<ele>112.711975</ele>
<time>2011-10-13T09:06:17Z</time>
<desc>lat.=44.552811, lon.=34.293217, Alt.=112.711975m. Speed=6.192000m/h.</desc>
<speed>1.720000</speed>
</trkpt>
<trkpt lat="44.552845" lon="34.293118">
<ele>114.213928</ele>
<time>2011-10-13T09:06:22Z</time>
<desc>lat.=44.552845, lon.=34.293118, Alt.=114.213928m. Speed=6.228000m/h.</desc>
<speed>1.730000</speed>
</trkpt>
<trkpt lat="44.552895" lon="34.293030">
<ele>115.876038</ele>
<time>2011-10-13T09:06:27Z</time>
<desc>lat.=44.552895, lon.=34.293030, Alt.=115.876038m. Speed=6.804000m/h.</desc>
<speed>1.890000</speed>
</trkpt>
<trkpt lat="44.552948" lon="34.292950">
<ele>117.227600</ele>
<time>2011-10-13T09:06:32Z</time>
<desc>lat.=44.552948, lon.=34.292950, Alt.=117.227600m. Speed=6.444000m/h.</desc>
<speed>1.790000</speed>
</trkpt>
<trkpt lat="44.553005" lon="34.292873">
<ele>119.184631</ele>
<time>2011-10-13T09:06:37Z</time>
<desc>lat.=44.553005, lon.=34.292873, Alt.=119.184631m. Speed=7.524000m/h.</desc>
<speed>2.090000</speed>
</trkpt>
<trkpt lat="44.553070" lon="34.292767">
<ele>119.456116</ele>
<time>2011-10-13T09:06:42Z</time>
<desc>lat.=44.553070, lon.=34.292767, Alt.=119.456116m. Speed=7.380000m/h.</desc>
<speed>2.050000</speed>
</trkpt>
<trkpt lat="44.553123" lon="34.292675">
<ele>120.024475</ele>
<time>2011-10-13T09:06:47Z</time>
<desc>lat.=44.553123, lon.=34.292675, Alt.=120.024475m. Speed=6.480000m/h.</desc>
<speed>1.800000</speed>
</trkpt>
<trkpt lat="44.553169" lon="34.292583">
<ele>121.407288</ele>
<time>2011-10-13T09:06:52Z</time>
<desc>lat.=44.553169, lon.=34.292583, Alt.=121.407288m. Speed=6.588000m/h.</desc>
<speed>1.830000</speed>
</trkpt>
<trkpt lat="44.553211" lon="34.292480">
<ele>121.936584</ele>
<time>2011-10-13T09:06:57Z</time>
<desc>lat.=44.553211, lon.=34.292480, Alt.=121.936584m. Speed=7.056000m/h.</desc>
<speed>1.960000</speed>
</trkpt>
<trkpt lat="44.553249" lon="34.292385">
<ele>123.190491</ele>
<time>2011-10-13T09:07:02Z</time>
<desc>lat.=44.553249, lon.=34.292385, Alt.=123.190491m. Speed=6.768000m/h.</desc>
<speed>1.880000</speed>
</trkpt>
<trkpt lat="44.553280" lon="34.292282">
<ele>123.924866</ele>
<time>2011-10-13T09:07:07Z</time>
<desc>lat.=44.553280, lon.=34.292282, Alt.=123.924866m. Speed=6.624000m/h.</desc>
<speed>1.840000</speed>
</trkpt>
<trkpt lat="44.553295" lon="34.292175">
<ele>124.663147</ele>
<time>2011-10-13T09:07:12Z</time>
<desc>lat.=44.553295, lon.=34.292175, Alt.=124.663147m. Speed=6.840000m/h.</desc>
<speed>1.900000</speed>
</trkpt>
<trkpt lat="44.553322" lon="34.292065">
<ele>125.965881</ele>
<time>2011-10-13T09:07:17Z</time>
<desc>lat.=44.553322, lon.=34.292065, Alt.=125.965881m. Speed=7.272000m/h.</desc>
<speed>2.020000</speed>
</trkpt>
<trkpt lat="44.553341" lon="34.291939">
<ele>126.989319</ele>
<time>2011-10-13T09:07:22Z</time>
<desc>lat.=44.553341, lon.=34.291939, Alt.=126.989319m. Speed=6.948000m/h.</desc>
<speed>1.930000</speed>
</trkpt>
<trkpt lat="44.553371" lon="34.291828">
<ele>128.033325</ele>
<time>2011-10-13T09:07:27Z</time>
<desc>lat.=44.553371, lon.=34.291828, Alt.=128.033325m. Speed=7.632000m/h.</desc>
<speed>2.120000</speed>
</trkpt>
<trkpt lat="44.553402" lon="34.291706">
<ele>127.221741</ele>
<time>2011-10-13T09:07:32Z</time>
<desc>lat.=44.553402, lon.=34.291706, Alt.=127.221741m. Speed=7.524000m/h.</desc>
<speed>2.090000</speed>
</trkpt>
<trkpt lat="44.553410" lon="34.291584">
<ele>128.513794</ele>
<time>2011-10-13T09:07:37Z</time>
<desc>lat.=44.553410, lon.=34.291584, Alt.=128.513794m. Speed=7.776000m/h.</desc>
<speed>2.160000</speed>
</trkpt>
<trkpt lat="44.553440" lon="34.291447">
<ele>129.615356</ele>
<time>2011-10-13T09:07:42Z</time>
<desc>lat.=44.553440, lon.=34.291447, Alt.=129.615356m. Speed=7.380000m/h.</desc>
<speed>2.050000</speed>
</trkpt>
<trkpt lat="44.553463" lon="34.291317">
<ele>130.795044</ele>
<time>2011-10-13T09:07:47Z</time>
<desc>lat.=44.553463, lon.=34.291317, Alt.=130.795044m. Speed=7.488000m/h.</desc>
<speed>2.080000</speed>
</trkpt>
<trkpt lat="44.553493" lon="34.291191">
<ele>131.974731</ele>
<time>2011-10-13T09:07:52Z</time>
<desc>lat.=44.553493, lon.=34.291191, Alt.=131.974731m. Speed=7.776000m/h.</desc>
<speed>2.160000</speed>
</trkpt>
<trkpt lat="44.553547" lon="34.291073">
<ele>131.935669</ele>
<time>2011-10-13T09:07:57Z</time>
<desc>lat.=44.553547, lon.=34.291073, Alt.=131.935669m. Speed=6.984000m/h.</desc>
<speed>1.940000</speed>
</trkpt>
<trkpt lat="44.553608" lon="34.290993">
<ele>133.275513</ele>
<time>2011-10-13T09:08:02Z</time>
<desc>lat.=44.553608, lon.=34.290993, Alt.=133.275513m. Speed=6.804000m/h.</desc>
<speed>1.890000</speed>
</trkpt>
<trkpt lat="44.553673" lon="34.290909">
<ele>134.806763</ele>
<time>2011-10-13T09:08:07Z</time>
<desc>lat.=44.553673, lon.=34.290909, Alt.=134.806763m. Speed=7.020000m/h.</desc>
<speed>1.950000</speed>
</trkpt>
<trkpt lat="44.553745" lon="34.290825">
<ele>134.814575</ele>
<time>2011-10-13T09:08:12Z</time>
<desc>lat.=44.553745, lon.=34.290825, Alt.=134.814575m. Speed=6.300000m/h.</desc>
<speed>1.750000</speed>
</trkpt>
<trkpt lat="44.553829" lon="34.290745">
<ele>135.595825</ele>
<time>2011-10-13T09:08:17Z</time>
<desc>lat.=44.553829, lon.=34.290745, Alt.=135.595825m. Speed=6.768000m/h.</desc>
<speed>1.880000</speed>
</trkpt>
<trkpt lat="44.553905" lon="34.290688">
<ele>136.720825</ele>
<time>2011-10-13T09:08:22Z</time>
<desc>lat.=44.553905, lon.=34.290688, Alt.=136.720825m. Speed=6.804000m/h.</desc>
<speed>1.890000</speed>
</trkpt>
<trkpt lat="44.553997" lon="34.290642">
<ele>137.529419</ele>
<time>2011-10-13T09:08:27Z</time>
<desc>lat.=44.553997, lon.=34.290642, Alt.=137.529419m. Speed=7.380000m/h.</desc>
<speed>2.050000</speed>
</trkpt>
<trkpt lat="44.554096" lon="34.290642">
<ele>138.463013</ele>
<time>2011-10-13T09:08:32Z</time>
<desc>lat.=44.554096, lon.=34.290642, Alt.=138.463013m. Speed=7.524000m/h.</desc>
<speed>2.090000</speed>
</trkpt>
<trkpt lat="44.554195" lon="34.290653">
<ele>137.685669</ele>
<time>2011-10-13T09:08:37Z</time>
<desc>lat.=44.554195, lon.=34.290653, Alt.=137.685669m. Speed=7.200000m/h.</desc>
<speed>2.000000</speed>
</trkpt>
<trkpt lat="44.554279" lon="34.290646">
<ele>138.814575</ele>
<time>2011-10-13T09:08:42Z</time>
<desc>lat.=44.554279, lon.=34.290646, Alt.=138.814575m. Speed=6.660000m/h.</desc>
<speed>1.850000</speed>
</trkpt>
<trkpt lat="44.554348" lon="34.290638">
<ele>140.099731</ele>
<time>2011-10-13T09:08:47Z</time>
<desc>lat.=44.554348, lon.=34.290638, Alt.=140.099731m. Speed=5.076000m/h.</desc>
<speed>1.410000</speed>
</trkpt>
<trkpt lat="44.554390" lon="34.290623">
<ele>146.076294</ele>
<time>2011-10-13T09:08:52Z</time>
<desc>lat.=44.554390, lon.=34.290623, Alt.=146.076294m. Speed=2.124000m/h.</desc>
<speed>0.590000</speed>
</trkpt>
<trkpt lat="44.554474" lon="34.290607">
<ele>146.818481</ele>
<time>2011-10-13T09:08:57Z</time>
<desc>lat.=44.554474, lon.=34.290607, Alt.=146.818481m. Speed=4.716000m/h.</desc>
<speed>1.310000</speed>
</trkpt>
<trkpt lat="44.554562" lon="34.290577">
<ele>148.259888</ele>
<time>2011-10-13T09:09:02Z</time>
<desc>lat.=44.554562, lon.=34.290577, Alt.=148.259888m. Speed=5.508000m/h.</desc>
<speed>1.530000</speed>
</trkpt>
<trkpt lat="44.554649" lon="34.290550">
<ele>147.369263</ele>
<time>2011-10-13T09:09:07Z</time>
<desc>lat.=44.554649, lon.=34.290550, Alt.=147.369263m. Speed=4.392000m/h.</desc>
<speed>1.220000</speed>
</trkpt>
<trkpt lat="44.554718" lon="34.290489">
<ele>147.451294</ele>
<time>2011-10-13T09:09:12Z</time>
<desc>lat.=44.554718, lon.=34.290489, Alt.=147.451294m. Speed=6.912000m/h.</desc>
<speed>1.920000</speed>
</trkpt>
<trkpt lat="44.554790" lon="34.290424">
<ele>148.748169</ele>
<time>2011-10-13T09:09:17Z</time>
<desc>lat.=44.554790, lon.=34.290424, Alt.=148.748169m. Speed=6.660000m/h.</desc>
<speed>1.850000</speed>
</trkpt>
<trkpt lat="44.554863" lon="34.290352">
<ele>149.896606</ele>
<time>2011-10-13T09:09:22Z</time>
<desc>lat.=44.554863, lon.=34.290352, Alt.=149.896606m. Speed=6.840000m/h.</desc>
<speed>1.900000</speed>
</trkpt>
<trkpt lat="44.554935" lon="34.290260">
<ele>150.724731</ele>
<time>2011-10-13T09:09:27Z</time>
<desc>lat.=44.554935, lon.=34.290260, Alt.=150.724731m. Speed=6.912000m/h.</desc>
<speed>1.920000</speed>
</trkpt>
<trkpt lat="44.555008" lon="34.290161">
<ele>151.521606</ele>
<time>2011-10-13T09:09:32Z</time>
<desc>lat.=44.555008, lon.=34.290161, Alt.=151.521606m. Speed=7.488000m/h.</desc>
<speed>2.080000</speed>
</trkpt>
<trkpt lat="44.555058" lon="34.290089">
<ele>152.591919</ele>
<time>2011-10-13T09:09:37Z</time>
<desc>lat.=44.555058, lon.=34.290089, Alt.=152.591919m. Speed=6.912000m/h.</desc>
<speed>1.920000</speed>
</trkpt>
<trkpt lat="44.555122" lon="34.290012">
<ele>154.193481</ele>
<time>2011-10-13T09:09:42Z</time>
<desc>lat.=44.555122, lon.=34.290012, Alt.=154.193481m. Speed=6.192000m/h.</desc>
<speed>1.720000</speed>
</trkpt>
<trkpt lat="44.555191" lon="34.289917">
<ele>155.525513</ele>
<time>2011-10-13T09:09:47Z</time>
<desc>lat.=44.555191, lon.=34.289917, Alt.=155.525513m. Speed=7.668000m/h.</desc>
<speed>2.130000</speed>
</trkpt>
<trkpt lat="44.555248" lon="34.289825">
<ele>157.963013</ele>
<time>2011-10-13T09:09:52Z</time>
<desc>lat.=44.555248, lon.=34.289825, Alt.=157.963013m. Speed=6.228000m/h.</desc>
<speed>1.730000</speed>
</trkpt>
<trkpt lat="44.555298" lon="34.289757">
<ele>158.283325</ele>
<time>2011-10-13T09:09:57Z</time>
<desc>lat.=44.555298, lon.=34.289757, Alt.=158.283325m. Speed=5.616000m/h.</desc>
<speed>1.560000</speed>
</trkpt>
<trkpt lat="44.555355" lon="34.289688">
<ele>158.384888</ele>
<time>2011-10-13T09:10:02Z</time>
<desc>lat.=44.555355, lon.=34.289688, Alt.=158.384888m. Speed=4.284000m/h.</desc>
<speed>1.190000</speed>
</trkpt>
<trkpt lat="44.555412" lon="34.289639">
<ele>158.861450</ele>
<time>2011-10-13T09:10:07Z</time>
<desc>lat.=44.555412, lon.=34.289639, Alt.=158.861450m. Speed=5.760000m/h.</desc>
<speed>1.600000</speed>
</trkpt>
<trkpt lat="44.555477" lon="34.289604">
<ele>159.693481</ele>
<time>2011-10-13T09:10:12Z</time>
<desc>lat.=44.555477, lon.=34.289604, Alt.=159.693481m. Speed=7.272000m/h.</desc>
<speed>2.020000</speed>
</trkpt>
<trkpt lat="44.555546" lon="34.289581">
<ele>160.877075</ele>
<time>2011-10-13T09:10:17Z</time>
<desc>lat.=44.555546, lon.=34.289581, Alt.=160.877075m. Speed=2.628000m/h.</desc>
<speed>0.730000</speed>
</trkpt>
<trkpt lat="44.555618" lon="34.289581">
<ele>160.892700</ele>
<time>2011-10-13T09:10:22Z</time>
<desc>lat.=44.555618, lon.=34.289581, Alt.=160.892700m. Speed=5.400000m/h.</desc>
<speed>1.500000</speed>
</trkpt>
<trkpt lat="44.555687" lon="34.289600">
<ele>161.318481</ele>
<time>2011-10-13T09:10:27Z</time>
<desc>lat.=44.555687, lon.=34.289600, Alt.=161.318481m. Speed=5.004000m/h.</desc>
<speed>1.390000</speed>
</trkpt>
<trkpt lat="44.555752" lon="34.289623">
<ele>162.275513</ele>
<time>2011-10-13T09:10:32Z</time>
<desc>lat.=44.555752, lon.=34.289623, Alt.=162.275513m. Speed=3.924000m/h.</desc>
<speed>1.090000</speed>
</trkpt>
<trkpt lat="44.555805" lon="34.289661">
<ele>162.728638</ele>
<time>2011-10-13T09:10:37Z</time>
<desc>lat.=44.555805, lon.=34.289661, Alt.=162.728638m. Speed=5.076000m/h.</desc>
<speed>1.410000</speed>
</trkpt>
<trkpt lat="44.555862" lon="34.289692">
<ele>163.322388</ele>
<time>2011-10-13T09:10:42Z</time>
<desc>lat.=44.555862, lon.=34.289692, Alt.=163.322388m. Speed=4.212000m/h.</desc>
<speed>1.170000</speed>
</trkpt>
<trkpt lat="44.555916" lon="34.289730">
<ele>163.548950</ele>
<time>2011-10-13T09:10:47Z</time>
<desc>lat.=44.555916, lon.=34.289730, Alt.=163.548950m. Speed=4.104000m/h.</desc>
<speed>1.140000</speed>
</trkpt>
<trkpt lat="44.555969" lon="34.289768">
<ele>164.193481</ele>
<time>2011-10-13T09:10:52Z</time>
<desc>lat.=44.555969, lon.=34.289768, Alt.=164.193481m. Speed=4.752000m/h.</desc>
<speed>1.320000</speed>
</trkpt>
<trkpt lat="44.556030" lon="34.289814">
<ele>164.865356</ele>
<time>2011-10-13T09:10:57Z</time>
<desc>lat.=44.556030, lon.=34.289814, Alt.=164.865356m. Speed=5.040000m/h.</desc>
<speed>1.400000</speed>
</trkpt>
<trkpt lat="44.556091" lon="34.289864">
<ele>165.662231</ele>
<time>2011-10-13T09:11:02Z</time>
<desc>lat.=44.556091, lon.=34.289864, Alt.=165.662231m. Speed=5.940000m/h.</desc>
<speed>1.650000</speed>
</trkpt>
<trkpt lat="44.556145" lon="34.289894">
<ele>166.701294</ele>
<time>2011-10-13T09:11:07Z</time>
<desc>lat.=44.556145, lon.=34.289894, Alt.=166.701294m. Speed=3.240000m/h.</desc>
<speed>0.900000</speed>
</trkpt>
<trkpt lat="44.556187" lon="34.289940">
<ele>167.994263</ele>
<time>2011-10-13T09:11:12Z</time>
<desc>lat.=44.556187, lon.=34.289940, Alt.=167.994263m. Speed=5.652000m/h.</desc>
<speed>1.570000</speed>
</trkpt>
<trkpt lat="44.556252" lon="34.289986">
<ele>169.435669</ele>
<time>2011-10-13T09:11:17Z</time>
<desc>lat.=44.556252, lon.=34.289986, Alt.=169.435669m. Speed=5.760000m/h.</desc>
<speed>1.600000</speed>
</trkpt>
<trkpt lat="44.556309" lon="34.290024">
<ele>170.369263</ele>
<time>2011-10-13T09:11:22Z</time>
<desc>lat.=44.556309, lon.=34.290024, Alt.=170.369263m. Speed=3.708000m/h.</desc>
<speed>1.030000</speed>
</trkpt>
<trkpt lat="44.556355" lon="34.290054">
<ele>170.986450</ele>
<time>2011-10-13T09:11:27Z</time>
<desc>lat.=44.556355, lon.=34.290054, Alt.=170.986450m. Speed=4.284000m/h.</desc>
<speed>1.190000</speed>
</trkpt>
<trkpt lat="44.556416" lon="34.290070">
<ele>171.849731</ele>
<time>2011-10-13T09:11:32Z</time>
<desc>lat.=44.556416, lon.=34.290070, Alt.=171.849731m. Speed=4.716000m/h.</desc>
<speed>1.310000</speed>
</trkpt>
<trkpt lat="44.556454" lon="34.290100">
<ele>172.732544</ele>
<time>2011-10-13T09:11:37Z</time>
<desc>lat.=44.556454, lon.=34.290100, Alt.=172.732544m. Speed=3.060000m/h.</desc>
<speed>0.850000</speed>
</trkpt>
<trkpt lat="44.556492" lon="34.290131">
<ele>174.287231</ele>
<time>2011-10-13T09:11:42Z</time>
<desc>lat.=44.556492, lon.=34.290131, Alt.=174.287231m. Speed=5.508000m/h.</desc>
<speed>1.530000</speed>
</trkpt>
<trkpt lat="44.556549" lon="34.290169">
<ele>175.084106</ele>
<time>2011-10-13T09:11:47Z</time>
<desc>lat.=44.556549, lon.=34.290169, Alt.=175.084106m. Speed=5.544000m/h.</desc>
<speed>1.540000</speed>
</trkpt>
<trkpt lat="44.556587" lon="34.290207">
<ele>176.763794</ele>
<time>2011-10-13T09:11:52Z</time>
<desc>lat.=44.556587, lon.=34.290207, Alt.=176.763794m. Speed=4.860000m/h.</desc>
<speed>1.350000</speed>
</trkpt>
<trkpt lat="44.556660" lon="34.290241">
<ele>178.537231</ele>
<time>2011-10-13T09:11:57Z</time>
<desc>lat.=44.556660, lon.=34.290241, Alt.=178.537231m. Speed=7.128000m/h.</desc>
<speed>1.980000</speed>
</trkpt>
<trkpt lat="44.556728" lon="34.290264">
<ele>180.107544</ele>
<time>2011-10-13T09:12:02Z</time>
<desc>lat.=44.556728, lon.=34.290264, Alt.=180.107544m. Speed=4.788000m/h.</desc>
<speed>1.330000</speed>
</trkpt>
<trkpt lat="44.556801" lon="34.290314">
<ele>179.908325</ele>
<time>2011-10-13T09:12:07Z</time>
<desc>lat.=44.556801, lon.=34.290314, Alt.=179.908325m. Speed=6.228000m/h.</desc>
<speed>1.730000</speed>
</trkpt>
<trkpt lat="44.556877" lon="34.290352">
<ele>180.486450</ele>
<time>2011-10-13T09:12:12Z</time>
<desc>lat.=44.556877, lon.=34.290352, Alt.=180.486450m. Speed=5.904000m/h.</desc>
<speed>1.640000</speed>
</trkpt>
<trkpt lat="44.556957" lon="34.290409">
<ele>181.380981</ele>
<time>2011-10-13T09:12:17Z</time>
<desc>lat.=44.556957, lon.=34.290409, Alt.=181.380981m. Speed=6.300000m/h.</desc>
<speed>1.750000</speed>
</trkpt>
<trkpt lat="44.557030" lon="34.290474">
<ele>180.974731</ele>
<time>2011-10-13T09:12:22Z</time>
<desc>lat.=44.557030, lon.=34.290474, Alt.=180.974731m. Speed=6.660000m/h.</desc>
<speed>1.850000</speed>
</trkpt>
<trkpt lat="44.557083" lon="34.290520">
<ele>180.505981</ele>
<time>2011-10-13T09:12:27Z</time>
<desc>lat.=44.557083, lon.=34.290520, Alt.=180.505981m. Speed=2.736000m/h.</desc>
<speed>0.760000</speed>
</trkpt>
<trkpt lat="44.557121" lon="34.290535">
<ele>180.541138</ele>
<time>2011-10-13T09:12:32Z</time>
<desc>lat.=44.557121, lon.=34.290535, Alt.=180.541138m. Speed=4.248000m/h.</desc>
<speed>1.180000</speed>
</trkpt>
<trkpt lat="44.557163" lon="34.290581">
<ele>180.759888</ele>
<time>2011-10-13T09:12:37Z</time>
<desc>lat.=44.557163, lon.=34.290581, Alt.=180.759888m. Speed=4.644000m/h.</desc>
<speed>1.290000</speed>
</trkpt>
<trkpt lat="44.557228" lon="34.290619">
<ele>180.994263</ele>
<time>2011-10-13T09:12:42Z</time>
<desc>lat.=44.557228, lon.=34.290619, Alt.=180.994263m. Speed=5.112000m/h.</desc>
<speed>1.420000</speed>
</trkpt>
<trkpt lat="44.557301" lon="34.290661">
<ele>181.084106</ele>
<time>2011-10-13T09:12:47Z</time>
<desc>lat.=44.557301, lon.=34.290661, Alt.=181.084106m. Speed=6.516000m/h.</desc>
<speed>1.810000</speed>
</trkpt>
<trkpt lat="44.557373" lon="34.290699">
<ele>181.396606</ele>
<time>2011-10-13T09:12:52Z</time>
<desc>lat.=44.557373, lon.=34.290699, Alt.=181.396606m. Speed=6.552000m/h.</desc>
<speed>1.820000</speed>
</trkpt>
<trkpt lat="44.557453" lon="34.290741">
<ele>181.509888</ele>
<time>2011-10-13T09:12:57Z</time>
<desc>lat.=44.557453, lon.=34.290741, Alt.=181.509888m. Speed=7.092000m/h.</desc>
<speed>1.970000</speed>
</trkpt>
<trkpt lat="44.557529" lon="34.290791">
<ele>181.920044</ele>
<time>2011-10-13T09:13:02Z</time>
<desc>lat.=44.557529, lon.=34.290791, Alt.=181.920044m. Speed=6.768000m/h.</desc>
<speed>1.880000</speed>
</trkpt>
<trkpt lat="44.557613" lon="34.290848">
<ele>182.298950</ele>
<time>2011-10-13T09:13:07Z</time>
<desc>lat.=44.557613, lon.=34.290848, Alt.=182.298950m. Speed=6.228000m/h.</desc>
<speed>1.730000</speed>
</trkpt>
<trkpt lat="44.557690" lon="34.290901">
<ele>183.115356</ele>
<time>2011-10-13T09:13:12Z</time>
<desc>lat.=44.557690, lon.=34.290901, Alt.=183.115356m. Speed=6.300000m/h.</desc>
<speed>1.750000</speed>
</trkpt>
<trkpt lat="44.557762" lon="34.290943">
<ele>184.052856</ele>
<time>2011-10-13T09:13:17Z</time>
<desc>lat.=44.557762, lon.=34.290943, Alt.=184.052856m. Speed=6.696000m/h.</desc>
<speed>1.860000</speed>
</trkpt>
<trkpt lat="44.557835" lon="34.290981">
<ele>184.873169</ele>
<time>2011-10-13T09:13:22Z</time>
<desc>lat.=44.557835, lon.=34.290981, Alt.=184.873169m. Speed=6.192000m/h.</desc>
<speed>1.720000</speed>
</trkpt>
<trkpt lat="44.557915" lon="34.291019">
<ele>185.459106</ele>
<time>2011-10-13T09:13:27Z</time>
<desc>lat.=44.557915, lon.=34.291019, Alt.=185.459106m. Speed=6.300000m/h.</desc>
<speed>1.750000</speed>
</trkpt>
<trkpt lat="44.557995" lon="34.291061">
<ele>186.591919</ele>
<time>2011-10-13T09:13:32Z</time>
<desc>lat.=44.557995, lon.=34.291061, Alt.=186.591919m. Speed=6.372000m/h.</desc>
<speed>1.770000</speed>
</trkpt>
<trkpt lat="44.558071" lon="34.291100">
<ele>187.521606</ele>
<time>2011-10-13T09:13:37Z</time>
<desc>lat.=44.558071, lon.=34.291100, Alt.=187.521606m. Speed=5.868000m/h.</desc>
<speed>1.630000</speed>
</trkpt>
<trkpt lat="44.558147" lon="34.291119">
<ele>188.584106</ele>
<time>2011-10-13T09:13:42Z</time>
<desc>lat.=44.558147, lon.=34.291119, Alt.=188.584106m. Speed=6.624000m/h.</desc>
<speed>1.840000</speed>
</trkpt>
<trkpt lat="44.558228" lon="34.291142">
<ele>189.447388</ele>
<time>2011-10-13T09:13:47Z</time>
<desc>lat.=44.558228, lon.=34.291142, Alt.=189.447388m. Speed=6.588000m/h.</desc>
<speed>1.830000</speed>
</trkpt>
<trkpt lat="44.558311" lon="34.291149">
<ele>190.326294</ele>
<time>2011-10-13T09:13:52Z</time>
<desc>lat.=44.558311, lon.=34.291149, Alt.=190.326294m. Speed=6.516000m/h.</desc>
<speed>1.810000</speed>
</trkpt>
<trkpt lat="44.558376" lon="34.291126">
<ele>191.642700</ele>
<time>2011-10-13T09:13:57Z</time>
<desc>lat.=44.558376, lon.=34.291126, Alt.=191.642700m. Speed=5.328000m/h.</desc>
<speed>1.480000</speed>
</trkpt>
<trkpt lat="44.558456" lon="34.291142">
<ele>192.353638</ele>
<time>2011-10-13T09:14:02Z</time>
<desc>lat.=44.558456, lon.=34.291142, Alt.=192.353638m. Speed=7.236000m/h.</desc>
<speed>2.010000</speed>
</trkpt>
<trkpt lat="44.558525" lon="34.291134">
<ele>193.322388</ele>
<time>2011-10-13T09:14:07Z</time>
<desc>lat.=44.558525, lon.=34.291134, Alt.=193.322388m. Speed=6.228000m/h.</desc>
<speed>1.730000</speed>
</trkpt>
<trkpt lat="44.558613" lon="34.291126">
<ele>193.935669</ele>
<time>2011-10-13T09:14:12Z</time>
<desc>lat.=44.558613, lon.=34.291126, Alt.=193.935669m. Speed=6.228000m/h.</desc>
<speed>1.730000</speed>
</trkpt>
<trkpt lat="44.558697" lon="34.291134">
<ele>194.357544</ele>
<time>2011-10-13T09:14:17Z</time>
<desc>lat.=44.558697, lon.=34.291134, Alt.=194.357544m. Speed=6.624000m/h.</desc>
<speed>1.840000</speed>
</trkpt>
<trkpt lat="44.558777" lon="34.291134">
<ele>194.834106</ele>
<time>2011-10-13T09:14:22Z</time>
<desc>lat.=44.558777, lon.=34.291134, Alt.=194.834106m. Speed=6.012000m/h.</desc>
<speed>1.670000</speed>
</trkpt>
<trkpt lat="44.558853" lon="34.291130">
<ele>195.630981</ele>
<time>2011-10-13T09:14:27Z</time>
<desc>lat.=44.558853, lon.=34.291130, Alt.=195.630981m. Speed=6.084000m/h.</desc>
<speed>1.690000</speed>
</trkpt>
<trkpt lat="44.558929" lon="34.291134">
<ele>196.224731</ele>
<time>2011-10-13T09:14:32Z</time>
<desc>lat.=44.558929, lon.=34.291134, Alt.=196.224731m. Speed=6.408000m/h.</desc>
<speed>1.780000</speed>
</trkpt>
<trkpt lat="44.559013" lon="34.291130">
<ele>196.740356</ele>
<time>2011-10-13T09:14:37Z</time>
<desc>lat.=44.559013, lon.=34.291130, Alt.=196.740356m. Speed=6.732000m/h.</desc>
<speed>1.870000</speed>
</trkpt>
<trkpt lat="44.559090" lon="34.291122">
<ele>197.197388</ele>
<time>2011-10-13T09:14:42Z</time>
<desc>lat.=44.559090, lon.=34.291122, Alt.=197.197388m. Speed=4.284000m/h.</desc>
<speed>1.190000</speed>
</trkpt>
<trkpt lat="44.559151" lon="34.291115">
<ele>197.591919</ele>
<time>2011-10-13T09:14:47Z</time>
<desc>lat.=44.559151, lon.=34.291115, Alt.=197.591919m. Speed=6.192000m/h.</desc>
<speed>1.720000</speed>
</trkpt>
<trkpt lat="44.559238" lon="34.291088">
<ele>198.013794</ele>
<time>2011-10-13T09:14:52Z</time>
<desc>lat.=44.559238, lon.=34.291088, Alt.=198.013794m. Speed=6.624000m/h.</desc>
<speed>1.840000</speed>
</trkpt>
<trkpt lat="44.559265" lon="34.291084">
<ele>198.314575</ele>
<time>2011-10-13T09:14:57Z</time>
<desc>lat.=44.559265, lon.=34.291084, Alt.=198.314575m. Speed=0.288000m/h.</desc>
<speed>0.080000</speed>
</trkpt>
<trkpt lat="44.559284" lon="34.291073">
<ele>198.490356</ele>
<time>2011-10-13T09:15:02Z</time>
<desc>lat.=44.559284, lon.=34.291073, Alt.=198.490356m. Speed=2.952000m/h.</desc>
<speed>0.820000</speed>
</trkpt>
<trkpt lat="44.559353" lon="34.291050">
<ele>199.959106</ele>
<time>2011-10-13T09:15:07Z</time>
<desc>lat.=44.559353, lon.=34.291050, Alt.=199.959106m. Speed=6.300000m/h.</desc>
<speed>1.750000</speed>
</trkpt>
<trkpt lat="44.559422" lon="34.290962">
<ele>200.896606</ele>
<time>2011-10-13T09:15:12Z</time>
<desc>lat.=44.559422, lon.=34.290962, Alt.=200.896606m. Speed=7.380000m/h.</desc>
<speed>2.050000</speed>
</trkpt>
<trkpt lat="44.559498" lon="34.290939">
<ele>201.666138</ele>
<time>2011-10-13T09:15:17Z</time>
<desc>lat.=44.559498, lon.=34.290939, Alt.=201.666138m. Speed=6.048000m/h.</desc>
<speed>1.680000</speed>
</trkpt>
<trkpt lat="44.559586" lon="34.290924">
<ele>202.603638</ele>
<time>2011-10-13T09:15:22Z</time>
<desc>lat.=44.559586, lon.=34.290924, Alt.=202.603638m. Speed=6.480000m/h.</desc>
<speed>1.800000</speed>
</trkpt>
<trkpt lat="44.559658" lon="34.290874">
<ele>203.334106</ele>
<time>2011-10-13T09:15:27Z</time>
<desc>lat.=44.559658, lon.=34.290874, Alt.=203.334106m. Speed=6.804000m/h.</desc>
<speed>1.890000</speed>
</trkpt>
<trkpt lat="44.559677" lon="34.290787">
<ele>204.220825</ele>
<time>2011-10-13T09:15:32Z</time>
<desc>lat.=44.559677, lon.=34.290787, Alt.=204.220825m. Speed=5.616000m/h.</desc>
<speed>1.560000</speed>
</trkpt>
<trkpt lat="44.559669" lon="34.290768">
<ele>205.244263</ele>
<time>2011-10-13T09:15:37Z</time>
<desc>lat.=44.559669, lon.=34.290768, Alt.=205.244263m. Speed=0.576000m/h.</desc>
<speed>0.160000</speed>
</trkpt>
<trkpt lat="44.559673" lon="34.290756">
<ele>205.345825</ele>
<time>2011-10-13T09:15:42Z</time>
<desc>lat.=44.559673, lon.=34.290756, Alt.=205.345825m. Speed=0.252000m/h.</desc>
<speed>0.070000</speed>
</trkpt>
<trkpt lat="44.559669" lon="34.290741">
<ele>205.384888</ele>
<time>2011-10-13T09:15:47Z</time>
<desc>lat.=44.559669, lon.=34.290741, Alt.=205.384888m. Speed=0.000000m/h.</desc>
<speed>0.000000</speed>
</trkpt>
<trkpt lat="44.559673" lon="34.290737">
<ele>205.197388</ele>
<time>2011-10-13T09:15:52Z</time>
<desc>lat.=44.559673, lon.=34.290737, Alt.=205.197388m. Speed=0.000000m/h.</desc>
<speed>0.000000</speed>
</trkpt>
<trkpt lat="44.559673" lon="34.290737">
<ele>205.209106</ele>
<time>2011-10-13T09:15:57Z</time>
<desc>lat.=44.559673, lon.=34.290737, Alt.=205.209106m. Speed=0.000000m/h.</desc>
<speed>0.000000</speed>
</trkpt>
<trkpt lat="44.559673" lon="34.290737">
<ele>205.220825</ele>
<time>2011-10-13T09:16:02Z</time>
<desc>lat.=44.559673, lon.=34.290737, Alt.=205.220825m. Speed=0.000000m/h.</desc>
<speed>0.000000</speed>
</trkpt>
<trkpt lat="44.559673" lon="34.290737">
<ele>205.232544</ele>
<time>2011-10-13T09:16:07Z</time>
<desc>lat.=44.559673, lon.=34.290737, Alt.=205.232544m. Speed=0.000000m/h.</desc>
<speed>0.000000</speed>
</trkpt>
<trkpt lat="44.559673" lon="34.290737">
<ele>205.236450</ele>
<time>2011-10-13T09:16:12Z</time>
<desc>lat.=44.559673, lon.=34.290737, Alt.=205.236450m. Speed=0.000000m/h.</desc>
<speed>0.000000</speed>
</trkpt>
<trkpt lat="44.559673" lon="34.290737">
<ele>205.244263</ele>
<time>2011-10-13T09:16:17Z</time>
<desc>lat.=44.559673, lon.=34.290737, Alt.=205.244263m. Speed=0.000000m/h.</desc>
<speed>0.000000</speed>
</trkpt>
<trkpt lat="44.559673" lon="34.290737">
<ele>205.252075</ele>
<time>2011-10-13T09:16:22Z</time>
<desc>lat.=44.559673, lon.=34.290737, Alt.=205.252075m. Speed=0.000000m/h.</desc>
<speed>0.000000</speed>
</trkpt>
<trkpt lat="44.559673" lon="34.290737">
<ele>205.255981</ele>
<time>2011-10-13T09:16:27Z</time>
<desc>lat.=44.559673, lon.=34.290737, Alt.=205.255981m. Speed=0.000000m/h.</desc>
<speed>0.000000</speed>
</trkpt>
<trkpt lat="44.559673" lon="34.290737">
<ele>205.255981</ele>
<time>2011-10-13T09:16:32Z</time>
<desc>lat.=44.559673, lon.=34.290737, Alt.=205.255981m. Speed=0.000000m/h.</desc>
<speed>0.000000</speed>
</trkpt>
<trkpt lat="44.559673" lon="34.290737">
<ele>205.255981</ele>
<time>2011-10-13T09:16:37Z</time>
<desc>lat.=44.559673, lon.=34.290737, Alt.=205.255981m. Speed=0.000000m/h.</desc>
<speed>0.000000</speed>
</trkpt>
<trkpt lat="44.559673" lon="34.290737">
<ele>205.252075</ele>
<time>2011-10-13T09:16:42Z</time>
<desc>lat.=44.559673, lon.=34.290737, Alt.=205.252075m. Speed=0.000000m/h.</desc>
<speed>0.000000</speed>
</trkpt>
<trkpt lat="44.559673" lon="34.290737">
<ele>205.240356</ele>
<time>2011-10-13T09:16:47Z</time>
<desc>lat.=44.559673, lon.=34.290737, Alt.=205.240356m. Speed=0.000000m/h.</desc>
<speed>0.000000</speed>
</trkpt>
<trkpt lat="44.559673" lon="34.290737">
<ele>205.236450</ele>
<time>2011-10-13T09:16:52Z</time>
<desc>lat.=44.559673, lon.=34.290737, Alt.=205.236450m. Speed=0.000000m/h.</desc>
<speed>0.000000</speed>
</trkpt>
<trkpt lat="44.559673" lon="34.290737">
<ele>205.232544</ele>
<time>2011-10-13T09:16:57Z</time>
<desc>lat.=44.559673, lon.=34.290737, Alt.=205.232544m. Speed=0.000000m/h.</desc>
<speed>0.000000</speed>
</trkpt>
<trkpt lat="44.559673" lon="34.290737">
<ele>205.232544</ele>
<time>2011-10-13T09:17:02Z</time>
<desc>lat.=44.559673, lon.=34.290737, Alt.=205.232544m. Speed=0.000000m/h.</desc>
<speed>0.000000</speed>
</trkpt>
<trkpt lat="44.559673" lon="34.290737">
<ele>205.232544</ele>
<time>2011-10-13T09:17:07Z</time>
<desc>lat.=44.559673, lon.=34.290737, Alt.=205.232544m. Speed=0.000000m/h.</desc>
<speed>0.000000</speed>
</trkpt>
<trkpt lat="44.559673" lon="34.290737">
<ele>205.232544</ele>
<time>2011-10-13T09:17:12Z</time>
<desc>lat.=44.559673, lon.=34.290737, Alt.=205.232544m. Speed=0.000000m/h.</desc>
<speed>0.000000</speed>
</trkpt>
<trkpt lat="44.559673" lon="34.290737">
<ele>205.228638</ele>
<time>2011-10-13T09:17:17Z</time>
<desc>lat.=44.559673, lon.=34.290737, Alt.=205.228638m. Speed=0.000000m/h.</desc>
<speed>0.000000</speed>
</trkpt>
<trkpt lat="44.559673" lon="34.290737">
<ele>205.232544</ele>
<time>2011-10-13T09:17:22Z</time>
<desc>lat.=44.559673, lon.=34.290737, Alt.=205.232544m. Speed=0.000000m/h.</desc>
<speed>0.000000</speed>
</trkpt>
<trkpt lat="44.559673" lon="34.290737">
<ele>205.236450</ele>
<time>2011-10-13T09:17:27Z</time>
<desc>lat.=44.559673, lon.=34.290737, Alt.=205.236450m. Speed=0.000000m/h.</desc>
<speed>0.000000</speed>
</trkpt>
<trkpt lat="44.559673" lon="34.290737">
<ele>205.232544</ele>
<time>2011-10-13T09:17:32Z</time>
<desc>lat.=44.559673, lon.=34.290737, Alt.=205.232544m. Speed=0.000000m/h.</desc>
<speed>0.000000</speed>
</trkpt>
<trkpt lat="44.559673" lon="34.290737">
<ele>205.228638</ele>
<time>2011-10-13T09:17:37Z</time>
<desc>lat.=44.559673, lon.=34.290737, Alt.=205.228638m. Speed=0.000000m/h.</desc>
<speed>0.000000</speed>
</trkpt>
<trkpt lat="44.559673" lon="34.290737">
<ele>205.220825</ele>
<time>2011-10-13T09:17:42Z</time>
<desc>lat.=44.559673, lon.=34.290737, Alt.=205.220825m. Speed=0.000000m/h.</desc>
<speed>0.000000</speed>
</trkpt>
<trkpt lat="44.559673" lon="34.290737">
<ele>205.216919</ele>
<time>2011-10-13T09:17:47Z</time>
<desc>lat.=44.559673, lon.=34.290737, Alt.=205.216919m. Speed=0.000000m/h.</desc>
<speed>0.000000</speed>
</trkpt>
<trkpt lat="44.559673" lon="34.290737">
<ele>205.220825</ele>
<time>2011-10-13T09:17:52Z</time>
<desc>lat.=44.559673, lon.=34.290737, Alt.=205.220825m. Speed=0.000000m/h.</desc>
<speed>0.000000</speed>
</trkpt>
<trkpt lat="44.559673" lon="34.290737">
<ele>205.228638</ele>
<time>2011-10-13T09:17:57Z</time>
<desc>lat.=44.559673, lon.=34.290737, Alt.=205.228638m. Speed=0.000000m/h.</desc>
<speed>0.000000</speed>
</trkpt>
<trkpt lat="44.559673" lon="34.290737">
<ele>205.232544</ele>
<time>2011-10-13T09:18:02Z</time>
<desc>lat.=44.559673, lon.=34.290737, Alt.=205.232544m. Speed=0.000000m/h.</desc>
<speed>0.000000</speed>
</trkpt>
<trkpt lat="44.559673" lon="34.290737">
<ele>205.232544</ele>
<time>2011-10-13T09:18:07Z</time>
<desc>lat.=44.559673, lon.=34.290737, Alt.=205.232544m. Speed=0.000000m/h.</desc>
<speed>0.000000</speed>
</trkpt>
<trkpt lat="44.559673" lon="34.290733">
<ele>205.232544</ele>
<time>2011-10-13T09:18:12Z</time>
<desc>lat.=44.559673, lon.=34.290733, Alt.=205.232544m. Speed=0.000000m/h.</desc>
<speed>0.000000</speed>
</trkpt>
<trkpt lat="44.559673" lon="34.290733">
<ele>205.240356</ele>
<time>2011-10-13T09:18:17Z</time>
<desc>lat.=44.559673, lon.=34.290733, Alt.=205.240356m. Speed=0.000000m/h.</desc>
<speed>0.000000</speed>
</trkpt>
<trkpt lat="44.559673" lon="34.290733">
<ele>205.248169</ele>
<time>2011-10-13T09:18:22Z</time>
<desc>lat.=44.559673, lon.=34.290733, Alt.=205.248169m. Speed=0.000000m/h.</desc>
<speed>0.000000</speed>
</trkpt>
<trkpt lat="44.559673" lon="34.290733">
<ele>205.259888</ele>
<time>2011-10-13T09:18:27Z</time>
<desc>lat.=44.559673, lon.=34.290733, Alt.=205.259888m. Speed=0.000000m/h.</desc>
<speed>0.000000</speed>
</trkpt>
<trkpt lat="44.559673" lon="34.290733">
<ele>205.271606</ele>
<time>2011-10-13T09:18:32Z</time>
<desc>lat.=44.559673, lon.=34.290733, Alt.=205.271606m. Speed=0.000000m/h.</desc>
<speed>0.000000</speed>
</trkpt>
<trkpt lat="44.559673" lon="34.290733">
<ele>205.275513</ele>
<time>2011-10-13T09:18:37Z</time>
<desc>lat.=44.559673, lon.=34.290733, Alt.=205.275513m. Speed=0.000000m/h.</desc>
<speed>0.000000</speed>
</trkpt>
<trkpt lat="44.559673" lon="34.290733">
<ele>205.287231</ele>
<time>2011-10-13T09:18:42Z</time>
<desc>lat.=44.559673, lon.=34.290733, Alt.=205.287231m. Speed=0.000000m/h.</desc>
<speed>0.000000</speed>
</trkpt>
<trkpt lat="44.559673" lon="34.290733">
<ele>205.298950</ele>
<time>2011-10-13T09:18:47Z</time>
<desc>lat.=44.559673, lon.=34.290733, Alt.=205.298950m. Speed=0.000000m/h.</desc>
<speed>0.000000</speed>
</trkpt>
<trkpt lat="44.559673" lon="34.290733">
<ele>205.318481</ele>
<time>2011-10-13T09:18:52Z</time>
<desc>lat.=44.559673, lon.=34.290733, Alt.=205.318481m. Speed=0.000000m/h.</desc>
<speed>0.000000</speed>
</trkpt>
<trkpt lat="44.559673" lon="34.290733">
<ele>205.334106</ele>
<time>2011-10-13T09:18:57Z</time>
<desc>lat.=44.559673, lon.=34.290733, Alt.=205.334106m. Speed=0.000000m/h.</desc>
<speed>0.000000</speed>
</trkpt>
<trkpt lat="44.559673" lon="34.290733">
<ele>205.341919</ele>
<time>2011-10-13T09:19:02Z</time>
<desc>lat.=44.559673, lon.=34.290733, Alt.=205.341919m. Speed=0.000000m/h.</desc>
<speed>0.000000</speed>
</trkpt>
<trkpt lat="44.559673" lon="34.290733">
<ele>205.345825</ele>
<time>2011-10-13T09:19:07Z</time>
<desc>lat.=44.559673, lon.=34.290733, Alt.=205.345825m. Speed=0.000000m/h.</desc>
<speed>0.000000</speed>
</trkpt>
<trkpt lat="44.559673" lon="34.290733">
<ele>205.345825</ele>
<time>2011-10-13T09:19:12Z</time>
<desc>lat.=44.559673, lon.=34.290733, Alt.=205.345825m. Speed=0.000000m/h.</desc>
<speed>0.000000</speed>
</trkpt>
<trkpt lat="44.559673" lon="34.290733">
<ele>205.345825</ele>
<time>2011-10-13T09:19:17Z</time>
<desc>lat.=44.559673, lon.=34.290733, Alt.=205.345825m. Speed=0.000000m/h.</desc>
<speed>0.000000</speed>
</trkpt>
<trkpt lat="44.559658" lon="34.290730">
<ele>205.564575</ele>
<time>2011-10-13T09:19:22Z</time>
<desc>lat.=44.559658, lon.=34.290730, Alt.=205.564575m. Speed=4.680000m/h.</desc>
<speed>1.300000</speed>
</trkpt>
<trkpt lat="44.559612" lon="34.290646">
<ele>207.670044</ele>
<time>2011-10-13T09:19:27Z</time>
<desc>lat.=44.559612, lon.=34.290646, Alt.=207.670044m. Speed=9.072000m/h.</desc>
<speed>2.520000</speed>
</trkpt>
<trkpt lat="44.559597" lon="34.290546">
<ele>210.060669</ele>
<time>2011-10-13T09:19:32Z</time>
<desc>lat.=44.559597, lon.=34.290546, Alt.=210.060669m. Speed=4.572000m/h.</desc>
<speed>1.270000</speed>
</trkpt>
<trkpt lat="44.559624" lon="34.290485">
<ele>210.771606</ele>
<time>2011-10-13T09:19:37Z</time>
<desc>lat.=44.559624, lon.=34.290485, Alt.=210.771606m. Speed=3.096000m/h.</desc>
<speed>0.860000</speed>
</trkpt>
<trkpt lat="44.559597" lon="34.290409">
<ele>210.705200</ele>
<time>2011-10-13T09:19:42Z</time>
<desc>lat.=44.559597, lon.=34.290409, Alt.=210.705200m. Speed=6.588000m/h.</desc>
<speed>1.830000</speed>
</trkpt>
<trkpt lat="44.559532" lon="34.290318">
<ele>210.095825</ele>
<time>2011-10-13T09:19:47Z</time>
<desc>lat.=44.559532, lon.=34.290318, Alt.=210.095825m. Speed=7.056000m/h.</desc>
<speed>1.960000</speed>
</trkpt>
<trkpt lat="44.559494" lon="34.290207">
<ele>210.662231</ele>
<time>2011-10-13T09:19:52Z</time>
<desc>lat.=44.559494, lon.=34.290207, Alt.=210.662231m. Speed=4.788000m/h.</desc>
<speed>1.330000</speed>
</trkpt>
<trkpt lat="44.559475" lon="34.290092">
<ele>211.353638</ele>
<time>2011-10-13T09:19:57Z</time>
<desc>lat.=44.559475, lon.=34.290092, Alt.=211.353638m. Speed=6.948000m/h.</desc>
<speed>1.930000</speed>
</trkpt>
<trkpt lat="44.559402" lon="34.289948">
<ele>211.451294</ele>
<time>2011-10-13T09:20:02Z</time>
<desc>lat.=44.559402, lon.=34.289948, Alt.=211.451294m. Speed=8.892000m/h.</desc>
<speed>2.470000</speed>
</trkpt>
<trkpt lat="44.559334" lon="34.289795">
<ele>211.220825</ele>
<time>2011-10-13T09:20:07Z</time>
<desc>lat.=44.559334, lon.=34.289795, Alt.=211.220825m. Speed=9.900000m/h.</desc>
<speed>2.750000</speed>
</trkpt>
<trkpt lat="44.559277" lon="34.289658">
<ele>211.240356</ele>
<time>2011-10-13T09:20:12Z</time>
<desc>lat.=44.559277, lon.=34.289658, Alt.=211.240356m. Speed=5.544000m/h.</desc>
<speed>1.540000</speed>
</trkpt>
<trkpt lat="44.559296" lon="34.289444">
<ele>212.291138</ele>
<time>2011-10-13T09:20:17Z</time>
<desc>lat.=44.559296, lon.=34.289444, Alt.=212.291138m. Speed=14.328000m/h.</desc>
<speed>3.980000</speed>
</trkpt>
<trkpt lat="44.559242" lon="34.289246">
<ele>213.189575</ele>
<time>2011-10-13T09:20:22Z</time>
<desc>lat.=44.559242, lon.=34.289246, Alt.=213.189575m. Speed=11.952000m/h.</desc>
<speed>3.320000</speed>
</trkpt>
<trkpt lat="44.559174" lon="34.289032">
<ele>214.564575</ele>
<time>2011-10-13T09:20:27Z</time>
<desc>lat.=44.559174, lon.=34.289032, Alt.=214.564575m. Speed=11.232000m/h.</desc>
<speed>3.120000</speed>
</trkpt>
<trkpt lat="44.559124" lon="34.288830">
<ele>214.630981</ele>
<time>2011-10-13T09:20:32Z</time>
<desc>lat.=44.559124, lon.=34.288830, Alt.=214.630981m. Speed=12.204000m/h.</desc>
<speed>3.390000</speed>
</trkpt>
<trkpt lat="44.559052" lon="34.288601">
<ele>217.033325</ele>
<time>2011-10-13T09:20:37Z</time>
<desc>lat.=44.559052, lon.=34.288601, Alt.=217.033325m. Speed=14.580000m/h.</desc>
<speed>4.050000</speed>
</trkpt>
<trkpt lat="44.558971" lon="34.288383">
<ele>218.865356</ele>
<time>2011-10-13T09:20:42Z</time>
<desc>lat.=44.558971, lon.=34.288383, Alt.=218.865356m. Speed=14.544000m/h.</desc>
<speed>4.040000</speed>
</trkpt>
<trkpt lat="44.558887" lon="34.288155">
<ele>220.322388</ele>
<time>2011-10-13T09:20:47Z</time>
<desc>lat.=44.558887, lon.=34.288155, Alt.=220.322388m. Speed=12.924000m/h.</desc>
<speed>3.590000</speed>
</trkpt>
<trkpt lat="44.558838" lon="34.287956">
<ele>221.654419</ele>
<time>2011-10-13T09:20:52Z</time>
<desc>lat.=44.558838, lon.=34.287956, Alt.=221.654419m. Speed=14.544000m/h.</desc>
<speed>4.040000</speed>
</trkpt>
<trkpt lat="44.558796" lon="34.287758">
<ele>221.759888</ele>
<time>2011-10-13T09:20:57Z</time>
<desc>lat.=44.558796, lon.=34.287758, Alt.=221.759888m. Speed=11.808000m/h.</desc>
<speed>3.280000</speed>
</trkpt>
<trkpt lat="44.558758" lon="34.287552">
<ele>221.314575</ele>
<time>2011-10-13T09:21:02Z</time>
<desc>lat.=44.558758, lon.=34.287552, Alt.=221.314575m. Speed=11.592000m/h.</desc>
<speed>3.220000</speed>
</trkpt>
<trkpt lat="44.558674" lon="34.287338">
<ele>224.966919</ele>
<time>2011-10-13T09:21:07Z</time>
<desc>lat.=44.558674, lon.=34.287338, Alt.=224.966919m. Speed=14.040000m/h.</desc>
<speed>3.900000</speed>
</trkpt>
<trkpt lat="44.558617" lon="34.287102">
<ele>223.295044</ele>
<time>2011-10-13T09:21:12Z</time>
<desc>lat.=44.558617, lon.=34.287102, Alt.=223.295044m. Speed=12.780000m/h.</desc>
<speed>3.550000</speed>
</trkpt>
<trkpt lat="44.558540" lon="34.286842">
<ele>223.072388</ele>
<time>2011-10-13T09:21:17Z</time>
<desc>lat.=44.558540, lon.=34.286842, Alt.=223.072388m. Speed=14.076000m/h.</desc>
<speed>3.910000</speed>
</trkpt>
<trkpt lat="44.558468" lon="34.286598">
<ele>224.537231</ele>
<time>2011-10-13T09:21:22Z</time>
<desc>lat.=44.558468, lon.=34.286598, Alt.=224.537231m. Speed=15.588000m/h.</desc>
<speed>4.330000</speed>
</trkpt>
<trkpt lat="44.558403" lon="34.286339">
<ele>225.099731</ele>
<time>2011-10-13T09:21:27Z</time>
<desc>lat.=44.558403, lon.=34.286339, Alt.=225.099731m. Speed=16.416000m/h.</desc>
<speed>4.560000</speed>
</trkpt>
<trkpt lat="44.558365" lon="34.286110">
<ele>223.646606</ele>
<time>2011-10-13T09:21:32Z</time>
<desc>lat.=44.558365, lon.=34.286110, Alt.=223.646606m. Speed=11.412000m/h.</desc>
<speed>3.170000</speed>
</trkpt>
<trkpt lat="44.558270" lon="34.285892">
<ele>223.798950</ele>
<time>2011-10-13T09:21:37Z</time>
<desc>lat.=44.558270, lon.=34.285892, Alt.=223.798950m. Speed=17.243999m/h.</desc>
<speed>4.790000</speed>
</trkpt>
<trkpt lat="44.558174" lon="34.285622">
<ele>225.814575</ele>
<time>2011-10-13T09:21:42Z</time>
<desc>lat.=44.558174, lon.=34.285622, Alt.=225.814575m. Speed=15.948000m/h.</desc>
<speed>4.430000</speed>
</trkpt>
<trkpt lat="44.558102" lon="34.285366">
<ele>227.127075</ele>
<time>2011-10-13T09:21:47Z</time>
<desc>lat.=44.558102, lon.=34.285366, Alt.=227.127075m. Speed=15.696000m/h.</desc>
<speed>4.360000</speed>
</trkpt>
<trkpt lat="44.558029" lon="34.285107">
<ele>227.013794</ele>
<time>2011-10-13T09:21:52Z</time>
<desc>lat.=44.558029, lon.=34.285107, Alt.=227.013794m. Speed=15.876000m/h.</desc>
<speed>4.410000</speed>
</trkpt>
<trkpt lat="44.557941" lon="34.284851">
<ele>227.951294</ele>
<time>2011-10-13T09:21:57Z</time>
<desc>lat.=44.557941, lon.=34.284851, Alt.=227.951294m. Speed=14.832000m/h.</desc>
<speed>4.120000</speed>
</trkpt>
<trkpt lat="44.557880" lon="34.284607">
<ele>227.603638</ele>
<time>2011-10-13T09:22:02Z</time>
<desc>lat.=44.557880, lon.=34.284607, Alt.=227.603638m. Speed=14.580000m/h.</desc>
<speed>4.050000</speed>
</trkpt>
<trkpt lat="44.557812" lon="34.284367">
<ele>227.740356</ele>
<time>2011-10-13T09:22:07Z</time>
<desc>lat.=44.557812, lon.=34.284367, Alt.=227.740356m. Speed=14.112000m/h.</desc>
<speed>3.920000</speed>
</trkpt>
<trkpt lat="44.557751" lon="34.284138">
<ele>228.478638</ele>
<time>2011-10-13T09:22:12Z</time>
<desc>lat.=44.557751, lon.=34.284138, Alt.=228.478638m. Speed=14.688000m/h.</desc>
<speed>4.080000</speed>
</trkpt>
<trkpt lat="44.557686" lon="34.283897">
<ele>228.814575</ele>
<time>2011-10-13T09:22:17Z</time>
<desc>lat.=44.557686, lon.=34.283897, Alt.=228.814575m. Speed=14.688000m/h.</desc>
<speed>4.080000</speed>
</trkpt>
<trkpt lat="44.557621" lon="34.283657">
<ele>229.927856</ele>
<time>2011-10-13T09:22:22Z</time>
<desc>lat.=44.557621, lon.=34.283657, Alt.=229.927856m. Speed=14.616000m/h.</desc>
<speed>4.060000</speed>
</trkpt>
<trkpt lat="44.557571" lon="34.283401">
<ele>229.888794</ele>
<time>2011-10-13T09:22:27Z</time>
<desc>lat.=44.557571, lon.=34.283401, Alt.=229.888794m. Speed=15.552000m/h.</desc>
<speed>4.320000</speed>
</trkpt>
<trkpt lat="44.557533" lon="34.283154">
<ele>229.767700</ele>
<time>2011-10-13T09:22:32Z</time>
<desc>lat.=44.557533, lon.=34.283154, Alt.=229.767700m. Speed=14.364000m/h.</desc>
<speed>3.990000</speed>
</trkpt>
<trkpt lat="44.557507" lon="34.282906">
<ele>229.486450</ele>
<time>2011-10-13T09:22:37Z</time>
<desc>lat.=44.557507, lon.=34.282906, Alt.=229.486450m. Speed=14.796000m/h.</desc>
<speed>4.110000</speed>
</trkpt>
<trkpt lat="44.557522" lon="34.282639">
<ele>229.623169</ele>
<time>2011-10-13T09:22:42Z</time>
<desc>lat.=44.557522, lon.=34.282639, Alt.=229.623169m. Speed=14.688000m/h.</desc>
<speed>4.080000</speed>
</trkpt>
<trkpt lat="44.557507" lon="34.282387">
<ele>228.931763</ele>
<time>2011-10-13T09:22:47Z</time>
<desc>lat.=44.557507, lon.=34.282387, Alt.=228.931763m. Speed=13.608000m/h.</desc>
<speed>3.780000</speed>
</trkpt>
<trkpt lat="44.557476" lon="34.282135">
<ele>228.920044</ele>
<time>2011-10-13T09:22:52Z</time>
<desc>lat.=44.557476, lon.=34.282135, Alt.=228.920044m. Speed=15.408000m/h.</desc>
<speed>4.280000</speed>
</trkpt>
<trkpt lat="44.557461" lon="34.281860">
<ele>228.146606</ele>
<time>2011-10-13T09:22:57Z</time>
<desc>lat.=44.557461, lon.=34.281860, Alt.=228.146606m. Speed=15.444000m/h.</desc>
<speed>4.290000</speed>
</trkpt>
<trkpt lat="44.557449" lon="34.281601">
<ele>227.525513</ele>
<time>2011-10-13T09:23:02Z</time>
<desc>lat.=44.557449, lon.=34.281601, Alt.=227.525513m. Speed=14.904000m/h.</desc>
<speed>4.140000</speed>
</trkpt>
<trkpt lat="44.557419" lon="34.281345">
<ele>227.267700</ele>
<time>2011-10-13T09:23:07Z</time>
<desc>lat.=44.557419, lon.=34.281345, Alt.=227.267700m. Speed=14.976000m/h.</desc>
<speed>4.160000</speed>
</trkpt>
<trkpt lat="44.557400" lon="34.281071">
<ele>227.275513</ele>
<time>2011-10-13T09:23:12Z</time>
<desc>lat.=44.557400, lon.=34.281071, Alt.=227.275513m. Speed=17.172001m/h.</desc>
<speed>4.770000</speed>
</trkpt>
<trkpt lat="44.557384" lon="34.280766">
<ele>226.677856</ele>
<time>2011-10-13T09:23:17Z</time>
<desc>lat.=44.557384, lon.=34.280766, Alt.=226.677856m. Speed=18.108000m/h.</desc>
<speed>5.030000</speed>
</trkpt>
<trkpt lat="44.557369" lon="34.280445">
<ele>225.720825</ele>
<time>2011-10-13T09:23:22Z</time>
<desc>lat.=44.557369, lon.=34.280445, Alt.=225.720825m. Speed=19.080000m/h.</desc>
<speed>5.300000</speed>
</trkpt>
<trkpt lat="44.557331" lon="34.280075">
<ele>223.752075</ele>
<time>2011-10-13T09:23:27Z</time>
<desc>lat.=44.557331, lon.=34.280075, Alt.=223.752075m. Speed=24.191999m/h.</desc>
<speed>6.720000</speed>
</trkpt>
<trkpt lat="44.557285" lon="34.279610">
<ele>220.705200</ele>
<time>2011-10-13T09:23:32Z</time>
<desc>lat.=44.557285, lon.=34.279610, Alt.=220.705200m. Speed=28.403999m/h.</desc>
<speed>7.890000</speed>
</trkpt>
<trkpt lat="44.557110" lon="34.279064">
<ele>220.228638</ele>
<time>2011-10-13T09:23:37Z</time>
<desc>lat.=44.557110, lon.=34.279064, Alt.=220.228638m. Speed=38.411999m/h.</desc>
<speed>10.670000</speed>
</trkpt>
<trkpt lat="44.556843" lon="34.278404">
<ele>219.259888</ele>
<time>2011-10-13T09:23:42Z</time>
<desc>lat.=44.556843, lon.=34.278404, Alt.=219.259888m. Speed=45.972000m/h.</desc>
<speed>12.770000</speed>
</trkpt>
<trkpt lat="44.556480" lon="34.277752">
<ele>217.459106</ele>
<time>2011-10-13T09:23:47Z</time>
<desc>lat.=44.556480, lon.=34.277752, Alt.=217.459106m. Speed=49.464001m/h.</desc>
<speed>13.740000</speed>
</trkpt>
<trkpt lat="44.555954" lon="34.277199">
<ele>212.951294</ele>
<time>2011-10-13T09:23:52Z</time>
<desc>lat.=44.555954, lon.=34.277199, Alt.=212.951294m. Speed=50.220001m/h.</desc>
<speed>13.950000</speed>
</trkpt>
<trkpt lat="44.555466" lon="34.276745">
<ele>209.830200</ele>
<time>2011-10-13T09:23:57Z</time>
<desc>lat.=44.555466, lon.=34.276745, Alt.=209.830200m. Speed=47.556000m/h.</desc>
<speed>13.210000</speed>
</trkpt>
<trkpt lat="44.554966" lon="34.276299">
<ele>206.841919</ele>
<time>2011-10-13T09:24:02Z</time>
<desc>lat.=44.554966, lon.=34.276299, Alt.=206.841919m. Speed=45.720001m/h.</desc>
<speed>12.700000</speed>
</trkpt>
<trkpt lat="44.554573" lon="34.275902">
<ele>204.095825</ele>
<time>2011-10-13T09:24:07Z</time>
<desc>lat.=44.554573, lon.=34.275902, Alt.=204.095825m. Speed=35.172001m/h.</desc>
<speed>9.770000</speed>
</trkpt>
<trkpt lat="44.554245" lon="34.275421">
<ele>201.802856</ele>
<time>2011-10-13T09:24:12Z</time>
<desc>lat.=44.554245, lon.=34.275421, Alt.=201.802856m. Speed=38.231998m/h.</desc>
<speed>10.620000</speed>
</trkpt>
<trkpt lat="44.554081" lon="34.274899">
<ele>199.005981</ele>
<time>2011-10-13T09:24:17Z</time>
<desc>lat.=44.554081, lon.=34.274899, Alt.=199.005981m. Speed=28.476000m/h.</desc>
<speed>7.910000</speed>
</trkpt>
<trkpt lat="44.554043" lon="34.274513">
<ele>196.373169</ele>
<time>2011-10-13T09:24:22Z</time>
<desc>lat.=44.554043, lon.=34.274513, Alt.=196.373169m. Speed=14.688000m/h.</desc>
<speed>4.080000</speed>
</trkpt>
<trkpt lat="44.554039" lon="34.274426">
<ele>194.986450</ele>
<time>2011-10-13T09:24:27Z</time>
<desc>lat.=44.554039, lon.=34.274426, Alt.=194.986450m. Speed=0.612000m/h.</desc>
<speed>0.170000</speed>
</trkpt>
<trkpt lat="44.554043" lon="34.274426">
<ele>194.787231</ele>
<time>2011-10-13T09:24:32Z</time>
<desc>lat.=44.554043, lon.=34.274426, Alt.=194.787231m. Speed=0.072000m/h.</desc>
<speed>0.020000</speed>
</trkpt>
<trkpt lat="44.554043" lon="34.274426">
<ele>194.802856</ele>
<time>2011-10-13T09:24:37Z</time>
<desc>lat.=44.554043, lon.=34.274426, Alt.=194.802856m. Speed=0.108000m/h.</desc>
<speed>0.030000</speed>
</trkpt>
<trkpt lat="44.554043" lon="34.274426">
<ele>194.705200</ele>
<time>2011-10-13T09:24:42Z</time>
<desc>lat.=44.554043, lon.=34.274426, Alt.=194.705200m. Speed=0.036000m/h.</desc>
<speed>0.010000</speed>
</trkpt>
<trkpt lat="44.554039" lon="34.274414">
<ele>194.611450</ele>
<time>2011-10-13T09:24:47Z</time>
<desc>lat.=44.554039, lon.=34.274414, Alt.=194.611450m. Speed=1.620000m/h.</desc>
<speed>0.450000</speed>
</trkpt>
<trkpt lat="44.554039" lon="34.274410">
<ele>194.216919</ele>
<time>2011-10-13T09:24:52Z</time>
<desc>lat.=44.554039, lon.=34.274410, Alt.=194.216919m. Speed=0.072000m/h.</desc>
<speed>0.020000</speed>
</trkpt>
<trkpt lat="44.554039" lon="34.274410">
<ele>194.134888</ele>
<time>2011-10-13T09:24:57Z</time>
<desc>lat.=44.554039, lon.=34.274410, Alt.=194.134888m. Speed=0.000000m/h.</desc>
<speed>0.000000</speed>
</trkpt>
<trkpt lat="44.554039" lon="34.274410">
<ele>194.091919</ele>
<time>2011-10-13T09:25:02Z</time>
<desc>lat.=44.554039, lon.=34.274410, Alt.=194.091919m. Speed=0.468000m/h.</desc>
<speed>0.130000</speed>
</trkpt>
<trkpt lat="44.554035" lon="34.274380">
<ele>194.138794</ele>
<time>2011-10-13T09:25:07Z</time>
<desc>lat.=44.554035, lon.=34.274380, Alt.=194.138794m. Speed=3.600000m/h.</desc>
<speed>1.000000</speed>
</trkpt>
<trkpt lat="44.554028" lon="34.274353">
<ele>193.978638</ele>
<time>2011-10-13T09:25:12Z</time>
<desc>lat.=44.554028, lon.=34.274353, Alt.=193.978638m. Speed=0.288000m/h.</desc>
<speed>0.080000</speed>
</trkpt>
<trkpt lat="44.554028" lon="34.274303">
<ele>193.939575</ele>
<time>2011-10-13T09:25:17Z</time>
<desc>lat.=44.554028, lon.=34.274303, Alt.=193.939575m. Speed=3.744000m/h.</desc>
<speed>1.040000</speed>
</trkpt>
<trkpt lat="44.554024" lon="34.274204">
<ele>193.435669</ele>
<time>2011-10-13T09:25:22Z</time>
<desc>lat.=44.554024, lon.=34.274204, Alt.=193.435669m. Speed=8.496000m/h.</desc>
<speed>2.360000</speed>
</trkpt>
<trkpt lat="44.554016" lon="34.273968">
<ele>192.920044</ele>
<time>2011-10-13T09:25:27Z</time>
<desc>lat.=44.554016, lon.=34.273968, Alt.=192.920044m. Speed=17.964001m/h.</desc>
<speed>4.990000</speed>
</trkpt>
<trkpt lat="44.553993" lon="34.273605">
<ele>192.455200</ele>
<time>2011-10-13T09:25:32Z</time>
<desc>lat.=44.553993, lon.=34.273605, Alt.=192.455200m. Speed=20.375999m/h.</desc>
<speed>5.660000</speed>
</trkpt>
<trkpt lat="44.553936" lon="34.273216">
<ele>192.377075</ele>
<time>2011-10-13T09:25:37Z</time>
<desc>lat.=44.553936, lon.=34.273216, Alt.=192.377075m. Speed=23.400000m/h.</desc>
<speed>6.500000</speed>
</trkpt>
<trkpt lat="44.553894" lon="34.272820">
<ele>191.900513</ele>
<time>2011-10-13T09:25:42Z</time>
<desc>lat.=44.553894, lon.=34.272820, Alt.=191.900513m. Speed=23.615999m/h.</desc>
<speed>6.560000</speed>
</trkpt>
<trkpt lat="44.553860" lon="34.272404">
<ele>188.880981</ele>
<time>2011-10-13T09:25:47Z</time>
<desc>lat.=44.553860, lon.=34.272404, Alt.=188.880981m. Speed=20.952000m/h.</desc>
<speed>5.820000</speed>
</trkpt>
<trkpt lat="44.553810" lon="34.271999">
<ele>187.677856</ele>
<time>2011-10-13T09:25:52Z</time>
<desc>lat.=44.553810, lon.=34.271999, Alt.=187.677856m. Speed=24.408001m/h.</desc>
<speed>6.780000</speed>
</trkpt>
<trkpt lat="44.553745" lon="34.271553">
<ele>187.978638</ele>
<time>2011-10-13T09:25:57Z</time>
<desc>lat.=44.553745, lon.=34.271553, Alt.=187.978638m. Speed=26.927999m/h.</desc>
<speed>7.480000</speed>
</trkpt>
<trkpt lat="44.553654" lon="34.271076">
<ele>185.638794</ele>
<time>2011-10-13T09:26:02Z</time>
<desc>lat.=44.553654, lon.=34.271076, Alt.=185.638794m. Speed=29.988001m/h.</desc>
<speed>8.330000</speed>
</trkpt>
<trkpt lat="44.553528" lon="34.270565">
<ele>183.599731</ele>
<time>2011-10-13T09:26:07Z</time>
<desc>lat.=44.553528, lon.=34.270565, Alt.=183.599731m. Speed=30.888000m/h.</desc>
<speed>8.580000</speed>
</trkpt>
<trkpt lat="44.553391" lon="34.270061">
<ele>181.009888</ele>
<time>2011-10-13T09:26:12Z</time>
<desc>lat.=44.553391, lon.=34.270061, Alt.=181.009888m. Speed=30.384001m/h.</desc>
<speed>8.440000</speed>
</trkpt>
<trkpt lat="44.553261" lon="34.269623">
<ele>178.111450</ele>
<time>2011-10-13T09:26:17Z</time>
<desc>lat.=44.553261, lon.=34.269623, Alt.=178.111450m. Speed=22.247999m/h.</desc>
<speed>6.180000</speed>
</trkpt>
<trkpt lat="44.553055" lon="34.269310">
<ele>177.716919</ele>
<time>2011-10-13T09:26:22Z</time>
<desc>lat.=44.553055, lon.=34.269310, Alt.=177.716919m. Speed=26.856001m/h.</desc>
<speed>7.460000</speed>
</trkpt>
<trkpt lat="44.552727" lon="34.269028">
<ele>177.377075</ele>
<time>2011-10-13T09:26:27Z</time>
<desc>lat.=44.552727, lon.=34.269028, Alt.=177.377075m. Speed=30.851999m/h.</desc>
<speed>8.570000</speed>
</trkpt>
<trkpt lat="44.552311" lon="34.268909">
<ele>176.439575</ele>
<time>2011-10-13T09:26:32Z</time>
<desc>lat.=44.552311, lon.=34.268909, Alt.=176.439575m. Speed=34.200001m/h.</desc>
<speed>9.500000</speed>
</trkpt>
<trkpt lat="44.551922" lon="34.268902">
<ele>174.709106</ele>
<time>2011-10-13T09:26:37Z</time>
<desc>lat.=44.551922, lon.=34.268902, Alt.=174.709106m. Speed=25.632000m/h.</desc>
<speed>7.120000</speed>
</trkpt>
<trkpt lat="44.551563" lon="34.268871">
<ele>172.392700</ele>
<time>2011-10-13T09:26:42Z</time>
<desc>lat.=44.551563, lon.=34.268871, Alt.=172.392700m. Speed=31.356001m/h.</desc>
<speed>8.710000</speed>
</trkpt>
<trkpt lat="44.551186" lon="34.268753">
<ele>170.213013</ele>
<time>2011-10-13T09:26:47Z</time>
<desc>lat.=44.551186, lon.=34.268753, Alt.=170.213013m. Speed=31.608000m/h.</desc>
<speed>8.780000</speed>
</trkpt>
<trkpt lat="44.550850" lon="34.268459">
<ele>168.021606</ele>
<time>2011-10-13T09:26:52Z</time>
<desc>lat.=44.550850, lon.=34.268459, Alt.=168.021606m. Speed=30.528000m/h.</desc>
<speed>8.480000</speed>
</trkpt>
<trkpt lat="44.550621" lon="34.268047">
<ele>166.275513</ele>
<time>2011-10-13T09:26:57Z</time>
<desc>lat.=44.550621, lon.=34.268047, Alt.=166.275513m. Speed=30.059999m/h.</desc>
<speed>8.350000</speed>
</trkpt>
<trkpt lat="44.550426" lon="34.267559">
<ele>164.505981</ele>
<time>2011-10-13T09:27:02Z</time>
<desc>lat.=44.550426, lon.=34.267559, Alt.=164.505981m. Speed=32.580002m/h.</desc>
<speed>9.050001</speed>
</trkpt>
<trkpt lat="44.550240" lon="34.267029">
<ele>160.404419</ele>
<time>2011-10-13T09:27:07Z</time>
<desc>lat.=44.550240, lon.=34.267029, Alt.=160.404419m. Speed=34.883999m/h.</desc>
<speed>9.690000</speed>
</trkpt>
<trkpt lat="44.550026" lon="34.266472">
<ele>157.365356</ele>
<time>2011-10-13T09:27:12Z</time>
<desc>lat.=44.550026, lon.=34.266472, Alt.=157.365356m. Speed=36.216000m/h.</desc>
<speed>10.060000</speed>
</trkpt>
<trkpt lat="44.549805" lon="34.265942">
<ele>155.377075</ele>
<time>2011-10-13T09:27:17Z</time>
<desc>lat.=44.549805, lon.=34.265942, Alt.=155.377075m. Speed=33.804001m/h.</desc>
<speed>9.390000</speed>
</trkpt>
<trkpt lat="44.549503" lon="34.265549">
<ele>154.627075</ele>
<time>2011-10-13T09:27:22Z</time>
<desc>lat.=44.549503, lon.=34.265549, Alt.=154.627075m. Speed=32.112000m/h.</desc>
<speed>8.920000</speed>
</trkpt>
<trkpt lat="44.549141" lon="34.265297">
<ele>154.416138</ele>
<time>2011-10-13T09:27:27Z</time>
<desc>lat.=44.549141, lon.=34.265297, Alt.=154.416138m. Speed=33.192001m/h.</desc>
<speed>9.220000</speed>
</trkpt>
<trkpt lat="44.548733" lon="34.265148">
<ele>153.392700</ele>
<time>2011-10-13T09:27:32Z</time>
<desc>lat.=44.548733, lon.=34.265148, Alt.=153.392700m. Speed=32.868000m/h.</desc>
<speed>9.130000</speed>
</trkpt>
<trkpt lat="44.548344" lon="34.265018">
<ele>153.318481</ele>
<time>2011-10-13T09:27:37Z</time>
<desc>lat.=44.548344, lon.=34.265018, Alt.=153.318481m. Speed=30.275999m/h.</desc>
<speed>8.410000</speed>
</trkpt>
<trkpt lat="44.548008" lon="34.264893">
<ele>154.052856</ele>
<time>2011-10-13T09:27:42Z</time>
<desc>lat.=44.548008, lon.=34.264893, Alt.=154.052856m. Speed=25.524000m/h.</desc>
<speed>7.090000</speed>
</trkpt>
<trkpt lat="44.547726" lon="34.264771">
<ele>154.931763</ele>
<time>2011-10-13T09:27:47Z</time>
<desc>lat.=44.547726, lon.=34.264771, Alt.=154.931763m. Speed=23.364000m/h.</desc>
<speed>6.490000</speed>
</trkpt>
<trkpt lat="44.547443" lon="34.264660">
<ele>155.865356</ele>
<time>2011-10-13T09:27:52Z</time>
<desc>lat.=44.547443, lon.=34.264660, Alt.=155.865356m. Speed=20.520000m/h.</desc>
<speed>5.700000</speed>
</trkpt>
<trkpt lat="44.547207" lon="34.264584">
<ele>156.572388</ele>
<time>2011-10-13T09:27:57Z</time>
<desc>lat.=44.547207, lon.=34.264584, Alt.=156.572388m. Speed=17.639999m/h.</desc>
<speed>4.900000</speed>
</trkpt>
<trkpt lat="44.546959" lon="34.264484">
<ele>155.041138</ele>
<time>2011-10-13T09:28:02Z</time>
<desc>lat.=44.546959, lon.=34.264484, Alt.=155.041138m. Speed=21.204000m/h.</desc>
<speed>5.890000</speed>
</trkpt>
<trkpt lat="44.546749" lon="34.264416">
<ele>156.517700</ele>
<time>2011-10-13T09:28:07Z</time>
<desc>lat.=44.546749, lon.=34.264416, Alt.=156.517700m. Speed=14.868000m/h.</desc>
<speed>4.130000</speed>
</trkpt>
<trkpt lat="44.546570" lon="34.264355">
<ele>157.755981</ele>
<time>2011-10-13T09:28:12Z</time>
<desc>lat.=44.546570, lon.=34.264355, Alt.=157.755981m. Speed=16.559999m/h.</desc>
<speed>4.600000</speed>
</trkpt>
<trkpt lat="44.546352" lon="34.264282">
<ele>157.646606</ele>
<time>2011-10-13T09:28:17Z</time>
<desc>lat.=44.546352, lon.=34.264282, Alt.=157.646606m. Speed=17.964001m/h.</desc>
<speed>4.990000</speed>
</trkpt>
<trkpt lat="44.546154" lon="34.264225">
<ele>158.377075</ele>
<time>2011-10-13T09:28:22Z</time>
<desc>lat.=44.546154, lon.=34.264225, Alt.=158.377075m. Speed=17.100000m/h.</desc>
<speed>4.750000</speed>
</trkpt>
<trkpt lat="44.545948" lon="34.264160">
<ele>158.841919</ele>
<time>2011-10-13T09:28:27Z</time>
<desc>lat.=44.545948, lon.=34.264160, Alt.=158.841919m. Speed=16.128000m/h.</desc>
<speed>4.480000</speed>
</trkpt>
<trkpt lat="44.545769" lon="34.264137">
<ele>159.091919</ele>
<time>2011-10-13T09:28:32Z</time>
<desc>lat.=44.545769, lon.=34.264137, Alt.=159.091919m. Speed=14.184000m/h.</desc>
<speed>3.940000</speed>
</trkpt>
<trkpt lat="44.545582" lon="34.264160">
<ele>159.802856</ele>
<time>2011-10-13T09:28:37Z</time>
<desc>lat.=44.545582, lon.=34.264160, Alt.=159.802856m. Speed=15.588000m/h.</desc>
<speed>4.330000</speed>
</trkpt>
<trkpt lat="44.545387" lon="34.264229">
<ele>160.455200</ele>
<time>2011-10-13T09:28:42Z</time>
<desc>lat.=44.545387, lon.=34.264229, Alt.=160.455200m. Speed=14.328000m/h.</desc>
<speed>3.980000</speed>
</trkpt>
<trkpt lat="44.545219" lon="34.264271">
<ele>160.099731</ele>
<time>2011-10-13T09:28:47Z</time>
<desc>lat.=44.545219, lon.=34.264271, Alt.=160.099731m. Speed=13.284000m/h.</desc>
<speed>3.690000</speed>
</trkpt>
<trkpt lat="44.545033" lon="34.264313">
<ele>159.670044</ele>
<time>2011-10-13T09:28:52Z</time>
<desc>lat.=44.545033, lon.=34.264313, Alt.=159.670044m. Speed=14.436000m/h.</desc>
<speed>4.010000</speed>
</trkpt>
<trkpt lat="44.544846" lon="34.264370">
<ele>160.318481</ele>
<time>2011-10-13T09:28:57Z</time>
<desc>lat.=44.544846, lon.=34.264370, Alt.=160.318481m. Speed=16.524000m/h.</desc>
<speed>4.590000</speed>
</trkpt>
<trkpt lat="44.544640" lon="34.264442">
<ele>161.412231</ele>
<time>2011-10-13T09:29:02Z</time>
<desc>lat.=44.544640, lon.=34.264442, Alt.=161.412231m. Speed=17.820000m/h.</desc>
<speed>4.950000</speed>
</trkpt>
<trkpt lat="44.544418" lon="34.264526">
<ele>163.060669</ele>
<time>2011-10-13T09:29:07Z</time>
<desc>lat.=44.544418, lon.=34.264526, Alt.=163.060669m. Speed=18.288000m/h.</desc>
<speed>5.080000</speed>
</trkpt>
<trkpt lat="44.544197" lon="34.264622">
<ele>164.408325</ele>
<time>2011-10-13T09:29:12Z</time>
<desc>lat.=44.544197, lon.=34.264622, Alt.=164.408325m. Speed=19.836000m/h.</desc>
<speed>5.510000</speed>
</trkpt>
<trkpt lat="44.543964" lon="34.264690">
<ele>165.685669</ele>
<time>2011-10-13T09:29:17Z</time>
<desc>lat.=44.543964, lon.=34.264690, Alt.=165.685669m. Speed=17.676001m/h.</desc>
<speed>4.910000</speed>
</trkpt>
<trkpt lat="44.543793" lon="34.264751">
<ele>166.806763</ele>
<time>2011-10-13T09:29:22Z</time>
<desc>lat.=44.543793, lon.=34.264751, Alt.=166.806763m. Speed=11.520000m/h.</desc>
<speed>3.200000</speed>
</trkpt>
<trkpt lat="44.543663" lon="34.264801">
<ele>167.451294</ele>
<time>2011-10-13T09:29:27Z</time>
<desc>lat.=44.543663, lon.=34.264801, Alt.=167.451294m. Speed=10.728000m/h.</desc>
<speed>2.980000</speed>
</trkpt>
<trkpt lat="44.543533" lon="34.264835">
<ele>167.642700</ele>
<time>2011-10-13T09:29:32Z</time>
<desc>lat.=44.543533, lon.=34.264835, Alt.=167.642700m. Speed=10.764000m/h.</desc>
<speed>2.990000</speed>
</trkpt>
<trkpt lat="44.543415" lon="34.264877">
<ele>168.744263</ele>
<time>2011-10-13T09:29:37Z</time>
<desc>lat.=44.543415, lon.=34.264877, Alt.=168.744263m. Speed=11.340000m/h.</desc>
<speed>3.150000</speed>
</trkpt>
<trkpt lat="44.543282" lon="34.264915">
<ele>169.787231</ele>
<time>2011-10-13T09:29:42Z</time>
<desc>lat.=44.543282, lon.=34.264915, Alt.=169.787231m. Speed=10.836000m/h.</desc>
<speed>3.010000</speed>
</trkpt>
<trkpt lat="44.543159" lon="34.264961">
<ele>170.724731</ele>
<time>2011-10-13T09:29:47Z</time>
<desc>lat.=44.543159, lon.=34.264961, Alt.=170.724731m. Speed=10.260000m/h.</desc>
<speed>2.850000</speed>
</trkpt>
<trkpt lat="44.543037" lon="34.264999">
<ele>171.123169</ele>
<time>2011-10-13T09:29:52Z</time>
<desc>lat.=44.543037, lon.=34.264999, Alt.=171.123169m. Speed=10.188000m/h.</desc>
<speed>2.830000</speed>
</trkpt>
<trkpt lat="44.542908" lon="34.265030">
<ele>172.435669</ele>
<time>2011-10-13T09:29:57Z</time>
<desc>lat.=44.542908, lon.=34.265030, Alt.=172.435669m. Speed=10.080000m/h.</desc>
<speed>2.800000</speed>
</trkpt>
<trkpt lat="44.542786" lon="34.265072">
<ele>173.513794</ele>
<time>2011-10-13T09:30:02Z</time>
<desc>lat.=44.542786, lon.=34.265072, Alt.=173.513794m. Speed=10.188000m/h.</desc>
<speed>2.830000</speed>
</trkpt>
<trkpt lat="44.542652" lon="34.265106">
<ele>175.783325</ele>
<time>2011-10-13T09:30:07Z</time>
<desc>lat.=44.542652, lon.=34.265106, Alt.=175.783325m. Speed=10.692000m/h.</desc>
<speed>2.970000</speed>
</trkpt>
<trkpt lat="44.542522" lon="34.265137">
<ele>177.267700</ele>
<time>2011-10-13T09:30:12Z</time>
<desc>lat.=44.542522, lon.=34.265137, Alt.=177.267700m. Speed=10.764000m/h.</desc>
<speed>2.990000</speed>
</trkpt>
<trkpt lat="44.542393" lon="34.265156">
<ele>177.502075</ele>
<time>2011-10-13T09:30:17Z</time>
<desc>lat.=44.542393, lon.=34.265156, Alt.=177.502075m. Speed=10.440000m/h.</desc>
<speed>2.900000</speed>
</trkpt>
<trkpt lat="44.542259" lon="34.265179">
<ele>177.189575</ele>
<time>2011-10-13T09:30:22Z</time>
<desc>lat.=44.542259, lon.=34.265179, Alt.=177.189575m. Speed=10.440000m/h.</desc>
<speed>2.900000</speed>
</trkpt>
<trkpt lat="44.542126" lon="34.265182">
<ele>177.013794</ele>
<time>2011-10-13T09:30:27Z</time>
<desc>lat.=44.542126, lon.=34.265182, Alt.=177.013794m. Speed=10.728000m/h.</desc>
<speed>2.980000</speed>
</trkpt>
<trkpt lat="44.541988" lon="34.265160">
<ele>177.361450</ele>
<time>2011-10-13T09:30:32Z</time>
<desc>lat.=44.541988, lon.=34.265160, Alt.=177.361450m. Speed=10.044000m/h.</desc>
<speed>2.790000</speed>
</trkpt>
<trkpt lat="44.541870" lon="34.265156">
<ele>177.298950</ele>
<time>2011-10-13T09:30:37Z</time>
<desc>lat.=44.541870, lon.=34.265156, Alt.=177.298950m. Speed=8.100000m/h.</desc>
<speed>2.250000</speed>
</trkpt>
<trkpt lat="44.541744" lon="34.265144">
<ele>178.552856</ele>
<time>2011-10-13T09:30:42Z</time>
<desc>lat.=44.541744, lon.=34.265144, Alt.=178.552856m. Speed=10.404000m/h.</desc>
<speed>2.890000</speed>
</trkpt>
<trkpt lat="44.541626" lon="34.265129">
<ele>182.537231</ele>
<time>2011-10-13T09:30:47Z</time>
<desc>lat.=44.541626, lon.=34.265129, Alt.=182.537231m. Speed=9.144000m/h.</desc>
<speed>2.540000</speed>
</trkpt>
<trkpt lat="44.541519" lon="34.265076">
<ele>182.298950</ele>
<time>2011-10-13T09:30:52Z</time>
<desc>lat.=44.541519, lon.=34.265076, Alt.=182.298950m. Speed=9.036000m/h.</desc>
<speed>2.510000</speed>
</trkpt>
<trkpt lat="44.541405" lon="34.265034">
<ele>183.154419</ele>
<time>2011-10-13T09:30:57Z</time>
<desc>lat.=44.541405, lon.=34.265034, Alt.=183.154419m. Speed=9.936000m/h.</desc>
<speed>2.760000</speed>
</trkpt>
<trkpt lat="44.541290" lon="34.264969">
<ele>183.935669</ele>
<time>2011-10-13T09:31:02Z</time>
<desc>lat.=44.541290, lon.=34.264969, Alt.=183.935669m. Speed=8.460000m/h.</desc>
<speed>2.350000</speed>
</trkpt>
<trkpt lat="44.541180" lon="34.264900">
<ele>184.896606</ele>
<time>2011-10-13T09:31:07Z</time>
<desc>lat.=44.541180, lon.=34.264900, Alt.=184.896606m. Speed=10.296000m/h.</desc>
<speed>2.860000</speed>
</trkpt>
<trkpt lat="44.541065" lon="34.264839">
<ele>185.591919</ele>
<time>2011-10-13T09:31:12Z</time>
<desc>lat.=44.541065, lon.=34.264839, Alt.=185.591919m. Speed=9.612000m/h.</desc>
<speed>2.670000</speed>
</trkpt>
<trkpt lat="44.540955" lon="34.264767">
<ele>184.931763</ele>
<time>2011-10-13T09:31:17Z</time>
<desc>lat.=44.540955, lon.=34.264767, Alt.=184.931763m. Speed=8.964000m/h.</desc>
<speed>2.490000</speed>
</trkpt>
<trkpt lat="44.540852" lon="34.264694">
<ele>184.732544</ele>
<time>2011-10-13T09:31:22Z</time>
<desc>lat.=44.540852, lon.=34.264694, Alt.=184.732544m. Speed=7.992000m/h.</desc>
<speed>2.220000</speed>
</trkpt>
<trkpt lat="44.540749" lon="34.264629">
<ele>186.580200</ele>
<time>2011-10-13T09:31:27Z</time>
<desc>lat.=44.540749, lon.=34.264629, Alt.=186.580200m. Speed=8.892000m/h.</desc>
<speed>2.470000</speed>
</trkpt>
<trkpt lat="44.540646" lon="34.264572">
<ele>189.345825</ele>
<time>2011-10-13T09:31:32Z</time>
<desc>lat.=44.540646, lon.=34.264572, Alt.=189.345825m. Speed=9.828000m/h.</desc>
<speed>2.730000</speed>
</trkpt>
<trkpt lat="44.540543" lon="34.264515">
<ele>190.701294</ele>
<time>2011-10-13T09:31:37Z</time>
<desc>lat.=44.540543, lon.=34.264515, Alt.=190.701294m. Speed=9.324000m/h.</desc>
<speed>2.590000</speed>
</trkpt>
<trkpt lat="44.540424" lon="34.264450">
<ele>190.775513</ele>
<time>2011-10-13T09:31:42Z</time>
<desc>lat.=44.540424, lon.=34.264450, Alt.=190.775513m. Speed=9.396000m/h.</desc>
<speed>2.610000</speed>
</trkpt>
<trkpt lat="44.540310" lon="34.264385">
<ele>191.615356</ele>
<time>2011-10-13T09:31:47Z</time>
<desc>lat.=44.540310, lon.=34.264385, Alt.=191.615356m. Speed=9.792000m/h.</desc>
<speed>2.720000</speed>
</trkpt>
<trkpt lat="44.540195" lon="34.264317">
<ele>192.216919</ele>
<time>2011-10-13T09:31:52Z</time>
<desc>lat.=44.540195, lon.=34.264317, Alt.=192.216919m. Speed=8.856000m/h.</desc>
<speed>2.460000</speed>
</trkpt>
<trkpt lat="44.540089" lon="34.264248">
<ele>192.697388</ele>
<time>2011-10-13T09:31:57Z</time>
<desc>lat.=44.540089, lon.=34.264248, Alt.=192.697388m. Speed=9.504000m/h.</desc>
<speed>2.640000</speed>
</trkpt>
<trkpt lat="44.539974" lon="34.264175">
<ele>193.396606</ele>
<time>2011-10-13T09:32:02Z</time>
<desc>lat.=44.539974, lon.=34.264175, Alt.=193.396606m. Speed=9.000000m/h.</desc>
<speed>2.500000</speed>
</trkpt>
<trkpt lat="44.539875" lon="34.264118">
<ele>194.080200</ele>
<time>2011-10-13T09:32:07Z</time>
<desc>lat.=44.539875, lon.=34.264118, Alt.=194.080200m. Speed=8.028000m/h.</desc>
<speed>2.230000</speed>
</trkpt>
<trkpt lat="44.539772" lon="34.264053">
<ele>194.396606</ele>
<time>2011-10-13T09:32:12Z</time>
<desc>lat.=44.539772, lon.=34.264053, Alt.=194.396606m. Speed=9.468000m/h.</desc>
<speed>2.630000</speed>
</trkpt>
<trkpt lat="44.539673" lon="34.264000">
<ele>195.021606</ele>
<time>2011-10-13T09:32:17Z</time>
<desc>lat.=44.539673, lon.=34.264000, Alt.=195.021606m. Speed=8.280000m/h.</desc>
<speed>2.300000</speed>
</trkpt>
<trkpt lat="44.539585" lon="34.263943">
<ele>195.685669</ele>
<time>2011-10-13T09:32:22Z</time>
<desc>lat.=44.539585, lon.=34.263943, Alt.=195.685669m. Speed=7.092000m/h.</desc>
<speed>1.970000</speed>
</trkpt>
<trkpt lat="44.539494" lon="34.263889">
<ele>195.755981</ele>
<time>2011-10-13T09:32:27Z</time>
<desc>lat.=44.539494, lon.=34.263889, Alt.=195.755981m. Speed=7.992000m/h.</desc>
<speed>2.220000</speed>
</trkpt>
<trkpt lat="44.539398" lon="34.263847">
<ele>195.572388</ele>
<time>2011-10-13T09:32:32Z</time>
<desc>lat.=44.539398, lon.=34.263847, Alt.=195.572388m. Speed=8.424000m/h.</desc>
<speed>2.340000</speed>
</trkpt>
<trkpt lat="44.539303" lon="34.263794">
<ele>196.162231</ele>
<time>2011-10-13T09:32:37Z</time>
<desc>lat.=44.539303, lon.=34.263794, Alt.=196.162231m. Speed=7.812000m/h.</desc>
<speed>2.170000</speed>
</trkpt>
<trkpt lat="44.539211" lon="34.263752">
<ele>196.681763</ele>
<time>2011-10-13T09:32:42Z</time>
<desc>lat.=44.539211, lon.=34.263752, Alt.=196.681763m. Speed=6.372000m/h.</desc>
<speed>1.770000</speed>
</trkpt>
<trkpt lat="44.539127" lon="34.263706">
<ele>196.931763</ele>
<time>2011-10-13T09:32:47Z</time>
<desc>lat.=44.539127, lon.=34.263706, Alt.=196.931763m. Speed=7.668000m/h.</desc>
<speed>2.130000</speed>
</trkpt>
<trkpt lat="44.539040" lon="34.263657">
<ele>197.338013</ele>
<time>2011-10-13T09:32:52Z</time>
<desc>lat.=44.539040, lon.=34.263657, Alt.=197.338013m. Speed=7.776000m/h.</desc>
<speed>2.160000</speed>
</trkpt>
<trkpt lat="44.538944" lon="34.263607">
<ele>198.451294</ele>
<time>2011-10-13T09:32:57Z</time>
<desc>lat.=44.538944, lon.=34.263607, Alt.=198.451294m. Speed=7.920000m/h.</desc>
<speed>2.200000</speed>
</trkpt>
<trkpt lat="44.538849" lon="34.263554">
<ele>198.923950</ele>
<time>2011-10-13T09:33:02Z</time>
<desc>lat.=44.538849, lon.=34.263554, Alt.=198.923950m. Speed=7.776000m/h.</desc>
<speed>2.160000</speed>
</trkpt>
<trkpt lat="44.538757" lon="34.263508">
<ele>199.529419</ele>
<time>2011-10-13T09:33:07Z</time>
<desc>lat.=44.538757, lon.=34.263508, Alt.=199.529419m. Speed=9.936000m/h.</desc>
<speed>2.760000</speed>
</trkpt>
<trkpt lat="44.538631" lon="34.263435">
<ele>200.263794</ele>
<time>2011-10-13T09:33:12Z</time>
<desc>lat.=44.538631, lon.=34.263435, Alt.=200.263794m. Speed=12.420000m/h.</desc>
<speed>3.450000</speed>
</trkpt>
<trkpt lat="44.538509" lon="34.263359">
<ele>200.365356</ele>
<time>2011-10-13T09:33:17Z</time>
<desc>lat.=44.538509, lon.=34.263359, Alt.=200.365356m. Speed=9.000000m/h.</desc>
<speed>2.500000</speed>
</trkpt>
<trkpt lat="44.538391" lon="34.263294">
<ele>200.447388</ele>
<time>2011-10-13T09:33:22Z</time>
<desc>lat.=44.538391, lon.=34.263294, Alt.=200.447388m. Speed=11.232000m/h.</desc>
<speed>3.120000</speed>
</trkpt>
<trkpt lat="44.538269" lon="34.263218">
<ele>200.123169</ele>
<time>2011-10-13T09:33:27Z</time>
<desc>lat.=44.538269, lon.=34.263218, Alt.=200.123169m. Speed=10.152000m/h.</desc>
<speed>2.820000</speed>
</trkpt>
<trkpt lat="44.538139" lon="34.263142">
<ele>200.154419</ele>
<time>2011-10-13T09:33:32Z</time>
<desc>lat.=44.538139, lon.=34.263142, Alt.=200.154419m. Speed=10.836000m/h.</desc>
<speed>3.010000</speed>
</trkpt>
<trkpt lat="44.538010" lon="34.263069">
<ele>200.525513</ele>
<time>2011-10-13T09:33:37Z</time>
<desc>lat.=44.538010, lon.=34.263069, Alt.=200.525513m. Speed=12.204000m/h.</desc>
<speed>3.390000</speed>
</trkpt>
<trkpt lat="44.537876" lon="34.262985">
<ele>201.173950</ele>
<time>2011-10-13T09:33:42Z</time>
<desc>lat.=44.537876, lon.=34.262985, Alt.=201.173950m. Speed=10.404000m/h.</desc>
<speed>2.890000</speed>
</trkpt>
<trkpt lat="44.537735" lon="34.262897">
<ele>201.564575</ele>
<time>2011-10-13T09:33:47Z</time>
<desc>lat.=44.537735, lon.=34.262897, Alt.=201.564575m. Speed=12.888000m/h.</desc>
<speed>3.580000</speed>
</trkpt>
<trkpt lat="44.537579" lon="34.262821">
<ele>202.197388</ele>
<time>2011-10-13T09:33:52Z</time>
<desc>lat.=44.537579, lon.=34.262821, Alt.=202.197388m. Speed=11.376000m/h.</desc>
<speed>3.160000</speed>
</trkpt>
<trkpt lat="44.537418" lon="34.262733">
<ele>201.029419</ele>
<time>2011-10-13T09:33:57Z</time>
<desc>lat.=44.537418, lon.=34.262733, Alt.=201.029419m. Speed=15.408000m/h.</desc>
<speed>4.280000</speed>
</trkpt>
<trkpt lat="44.537228" lon="34.262630">
<ele>200.662231</ele>
<time>2011-10-13T09:34:02Z</time>
<desc>lat.=44.537228, lon.=34.262630, Alt.=200.662231m. Speed=15.624000m/h.</desc>
<speed>4.340000</speed>
</trkpt>
<trkpt lat="44.537033" lon="34.262527">
<ele>200.779419</ele>
<time>2011-10-13T09:34:07Z</time>
<desc>lat.=44.537033, lon.=34.262527, Alt.=200.779419m. Speed=14.292000m/h.</desc>
<speed>3.970000</speed>
</trkpt>
<trkpt lat="44.536816" lon="34.262405">
<ele>201.291138</ele>
<time>2011-10-13T09:34:12Z</time>
<desc>lat.=44.536816, lon.=34.262405, Alt.=201.291138m. Speed=14.832000m/h.</desc>
<speed>4.120000</speed>
</trkpt>
<trkpt lat="44.536583" lon="34.262268">
<ele>201.744263</ele>
<time>2011-10-13T09:34:17Z</time>
<desc>lat.=44.536583, lon.=34.262268, Alt.=201.744263m. Speed=15.120000m/h.</desc>
<speed>4.200000</speed>
</trkpt>
<trkpt lat="44.536373" lon="34.262138">
<ele>202.103638</ele>
<time>2011-10-13T09:34:22Z</time>
<desc>lat.=44.536373, lon.=34.262138, Alt.=202.103638m. Speed=18.900000m/h.</desc>
<speed>5.250000</speed>
</trkpt>
<trkpt lat="44.536156" lon="34.262020">
<ele>201.857544</ele>
<time>2011-10-13T09:34:27Z</time>
<desc>lat.=44.536156, lon.=34.262020, Alt.=201.857544m. Speed=18.612000m/h.</desc>
<speed>5.170000</speed>
</trkpt>
<trkpt lat="44.535931" lon="34.261898">
<ele>200.423950</ele>
<time>2011-10-13T09:34:32Z</time>
<desc>lat.=44.535931, lon.=34.261898, Alt.=200.423950m. Speed=19.799999m/h.</desc>
<speed>5.500000</speed>
</trkpt>
<trkpt lat="44.535671" lon="34.261745">
<ele>200.306763</ele>
<time>2011-10-13T09:34:37Z</time>
<desc>lat.=44.535671, lon.=34.261745, Alt.=200.306763m. Speed=24.660000m/h.</desc>
<speed>6.850000</speed>
</trkpt>
<trkpt lat="44.535339" lon="34.261547">
<ele>199.185669</ele>
<time>2011-10-13T09:34:42Z</time>
<desc>lat.=44.535339, lon.=34.261547, Alt.=199.185669m. Speed=31.716000m/h.</desc>
<speed>8.810000</speed>
</trkpt>
<trkpt lat="44.534954" lon="34.261333">
<ele>200.216919</ele>
<time>2011-10-13T09:34:47Z</time>
<desc>lat.=44.534954, lon.=34.261333, Alt.=200.216919m. Speed=32.759998m/h.</desc>
<speed>9.100000</speed>
</trkpt>
<trkpt lat="44.534546" lon="34.261105">
<ele>199.666138</ele>
<time>2011-10-13T09:34:52Z</time>
<desc>lat.=44.534546, lon.=34.261105, Alt.=199.666138m. Speed=34.056000m/h.</desc>
<speed>9.460000</speed>
</trkpt>
<trkpt lat="44.534168" lon="34.260895">
<ele>199.498169</ele>
<time>2011-10-13T09:34:57Z</time>
<desc>lat.=44.534168, lon.=34.260895, Alt.=199.498169m. Speed=29.556000m/h.</desc>
<speed>8.210000</speed>
</trkpt>
<trkpt lat="44.533833" lon="34.260719">
<ele>199.763794</ele>
<time>2011-10-13T09:35:02Z</time>
<desc>lat.=44.533833, lon.=34.260719, Alt.=199.763794m. Speed=27.972000m/h.</desc>
<speed>7.770000</speed>
</trkpt>
<trkpt lat="44.533535" lon="34.260563">
<ele>200.591919</ele>
<time>2011-10-13T09:35:07Z</time>
<desc>lat.=44.533535, lon.=34.260563, Alt.=200.591919m. Speed=23.688000m/h.</desc>
<speed>6.580000</speed>
</trkpt>
<trkpt lat="44.533241" lon="34.260418">
<ele>201.310669</ele>
<time>2011-10-13T09:35:12Z</time>
<desc>lat.=44.533241, lon.=34.260418, Alt.=201.310669m. Speed=25.992001m/h.</desc>
<speed>7.220000</speed>
</trkpt>
<trkpt lat="44.532948" lon="34.260265">
<ele>202.591919</ele>
<time>2011-10-13T09:35:17Z</time>
<desc>lat.=44.532948, lon.=34.260265, Alt.=202.591919m. Speed=24.264000m/h.</desc>
<speed>6.740000</speed>
</trkpt>
<trkpt lat="44.532627" lon="34.260067">
<ele>199.916138</ele>
<time>2011-10-13T09:35:22Z</time>
<desc>lat.=44.532627, lon.=34.260067, Alt.=199.916138m. Speed=26.892000m/h.</desc>
<speed>7.470000</speed>
</trkpt>
<trkpt lat="44.532349" lon="34.259914">
<ele>201.650513</ele>
<time>2011-10-13T09:35:27Z</time>
<desc>lat.=44.532349, lon.=34.259914, Alt.=201.650513m. Speed=20.375999m/h.</desc>
<speed>5.660000</speed>
</trkpt>
<trkpt lat="44.532101" lon="34.259754">
<ele>201.795044</ele>
<time>2011-10-13T09:35:32Z</time>
<desc>lat.=44.532101, lon.=34.259754, Alt.=201.795044m. Speed=20.700001m/h.</desc>
<speed>5.750000</speed>
</trkpt>
<trkpt lat="44.531853" lon="34.259613">
<ele>202.185669</ele>
<time>2011-10-13T09:35:37Z</time>
<desc>lat.=44.531853, lon.=34.259613, Alt.=202.185669m. Speed=22.032000m/h.</desc>
<speed>6.120000</speed>
</trkpt>
<trkpt lat="44.531616" lon="34.259483">
<ele>203.865356</ele>
<time>2011-10-13T09:35:42Z</time>
<desc>lat.=44.531616, lon.=34.259483, Alt.=203.865356m. Speed=18.576000m/h.</desc>
<speed>5.160000</speed>
</trkpt>
<trkpt lat="44.531387" lon="34.259354">
<ele>204.939575</ele>
<time>2011-10-13T09:35:47Z</time>
<desc>lat.=44.531387, lon.=34.259354, Alt.=204.939575m. Speed=19.728001m/h.</desc>
<speed>5.480000</speed>
</trkpt>
<trkpt lat="44.531181" lon="34.259235">
<ele>205.697388</ele>
<time>2011-10-13T09:35:52Z</time>
<desc>lat.=44.531181, lon.=34.259235, Alt.=205.697388m. Speed=17.927999m/h.</desc>
<speed>4.980000</speed>
</trkpt>
<trkpt lat="44.530968" lon="34.259106">
<ele>206.088013</ele>
<time>2011-10-13T09:35:57Z</time>
<desc>lat.=44.530968, lon.=34.259106, Alt.=206.088013m. Speed=19.152000m/h.</desc>
<speed>5.320000</speed>
</trkpt>
<trkpt lat="44.530731" lon="34.258926">
<ele>204.775513</ele>
<time>2011-10-13T09:36:02Z</time>
<desc>lat.=44.530731, lon.=34.258926, Alt.=204.775513m. Speed=19.296000m/h.</desc>
<speed>5.360000</speed>
</trkpt>
<trkpt lat="44.530521" lon="34.258762">
<ele>204.595825</ele>
<time>2011-10-13T09:36:07Z</time>
<desc>lat.=44.530521, lon.=34.258762, Alt.=204.595825m. Speed=18.000000m/h.</desc>
<speed>5.000000</speed>
</trkpt>
<trkpt lat="44.530354" lon="34.258583">
<ele>203.865356</ele>
<time>2011-10-13T09:36:12Z</time>
<desc>lat.=44.530354, lon.=34.258583, Alt.=203.865356m. Speed=12.672000m/h.</desc>
<speed>3.520000</speed>
</trkpt>
<trkpt lat="44.530258" lon="34.258457">
<ele>202.935669</ele>
<time>2011-10-13T09:36:17Z</time>
<desc>lat.=44.530258, lon.=34.258457, Alt.=202.935669m. Speed=6.660000m/h.</desc>
<speed>1.850000</speed>
</trkpt>
<trkpt lat="44.530224" lon="34.258423">
<ele>202.584106</ele>
<time>2011-10-13T09:36:22Z</time>
<desc>lat.=44.530224, lon.=34.258423, Alt.=202.584106m. Speed=0.144000m/h.</desc>
<speed>0.040000</speed>
</trkpt>
<trkpt lat="44.530224" lon="34.258415">
<ele>202.361450</ele>
<time>2011-10-13T09:36:27Z</time>
<desc>lat.=44.530224, lon.=34.258415, Alt.=202.361450m. Speed=0.036000m/h.</desc>
<speed>0.010000</speed>
</trkpt>
<trkpt lat="44.530224" lon="34.258415">
<ele>202.349731</ele>
<time>2011-10-13T09:36:32Z</time>
<desc>lat.=44.530224, lon.=34.258415, Alt.=202.349731m. Speed=0.000000m/h.</desc>
<speed>0.000000</speed>
</trkpt>
<trkpt lat="44.530216" lon="34.258408">
<ele>202.263794</ele>
<time>2011-10-13T09:36:37Z</time>
<desc>lat.=44.530216, lon.=34.258408, Alt.=202.263794m. Speed=1.872000m/h.</desc>
<speed>0.520000</speed>
</trkpt>
<trkpt lat="44.530201" lon="34.258392">
<ele>202.134888</ele>
<time>2011-10-13T09:36:42Z</time>
<desc>lat.=44.530201, lon.=34.258392, Alt.=202.134888m. Speed=0.108000m/h.</desc>
<speed>0.030000</speed>
</trkpt>
<trkpt lat="44.530201" lon="34.258392">
<ele>202.138794</ele>
<time>2011-10-13T09:36:47Z</time>
<desc>lat.=44.530201, lon.=34.258392, Alt.=202.138794m. Speed=0.432000m/h.</desc>
<speed>0.120000</speed>
</trkpt>
<trkpt lat="44.530182" lon="34.258381">
<ele>201.361450</ele>
<time>2011-10-13T09:36:52Z</time>
<desc>lat.=44.530182, lon.=34.258381, Alt.=201.361450m. Speed=4.752000m/h.</desc>
<speed>1.320000</speed>
</trkpt>
<trkpt lat="44.530121" lon="34.258369">
<ele>202.005981</ele>
<time>2011-10-13T09:36:57Z</time>
<desc>lat.=44.530121, lon.=34.258369, Alt.=202.005981m. Speed=7.992000m/h.</desc>
<speed>2.220000</speed>
</trkpt>
<trkpt lat="44.530025" lon="34.258270">
<ele>201.490356</ele>
<time>2011-10-13T09:37:02Z</time>
<desc>lat.=44.530025, lon.=34.258270, Alt.=201.490356m. Speed=10.440000m/h.</desc>
<speed>2.900000</speed>
</trkpt>
<trkpt lat="44.529934" lon="34.258144">
<ele>202.560669</ele>
<time>2011-10-13T09:37:07Z</time>
<desc>lat.=44.529934, lon.=34.258144, Alt.=202.560669m. Speed=9.684000m/h.</desc>
<speed>2.690000</speed>
</trkpt>
<trkpt lat="44.529823" lon="34.258022">
<ele>203.302856</ele>
<time>2011-10-13T09:37:12Z</time>
<desc>lat.=44.529823, lon.=34.258022, Alt.=203.302856m. Speed=10.296000m/h.</desc>
<speed>2.860000</speed>
</trkpt>
<trkpt lat="44.529728" lon="34.257889">
<ele>202.798950</ele>
<time>2011-10-13T09:37:17Z</time>
<desc>lat.=44.529728, lon.=34.257889, Alt.=202.798950m. Speed=10.908000m/h.</desc>
<speed>3.030000</speed>
</trkpt>
<trkpt lat="44.529602" lon="34.257732">
<ele>203.767700</ele>
<time>2011-10-13T09:37:22Z</time>
<desc>lat.=44.529602, lon.=34.257732, Alt.=203.767700m. Speed=13.788000m/h.</desc>
<speed>3.830000</speed>
</trkpt>
<trkpt lat="44.529461" lon="34.257565">
<ele>205.388794</ele>
<time>2011-10-13T09:37:27Z</time>
<desc>lat.=44.529461, lon.=34.257565, Alt.=205.388794m. Speed=17.208000m/h.</desc>
<speed>4.780000</speed>
</trkpt>
<trkpt lat="44.529312" lon="34.257378">
<ele>206.115356</ele>
<time>2011-10-13T09:37:32Z</time>
<desc>lat.=44.529312, lon.=34.257378, Alt.=206.115356m. Speed=14.724000m/h.</desc>
<speed>4.090000</speed>
</trkpt>
<trkpt lat="44.529160" lon="34.257179">
<ele>207.517700</ele>
<time>2011-10-13T09:37:37Z</time>
<desc>lat.=44.529160, lon.=34.257179, Alt.=207.517700m. Speed=16.200001m/h.</desc>
<speed>4.500000</speed>
</trkpt>
<trkpt lat="44.529018" lon="34.256989">
<ele>208.459106</ele>
<time>2011-10-13T09:37:42Z</time>
<desc>lat.=44.529018, lon.=34.256989, Alt.=208.459106m. Speed=15.732000m/h.</desc>
<speed>4.370000</speed>
</trkpt>
<trkpt lat="44.528877" lon="34.256790">
<ele>209.080200</ele>
<time>2011-10-13T09:37:47Z</time>
<desc>lat.=44.528877, lon.=34.256790, Alt.=209.080200m. Speed=14.580000m/h.</desc>
<speed>4.050000</speed>
</trkpt>
<trkpt lat="44.528725" lon="34.256588">
<ele>209.627075</ele>
<time>2011-10-13T09:37:52Z</time>
<desc>lat.=44.528725, lon.=34.256588, Alt.=209.627075m. Speed=18.719999m/h.</desc>
<speed>5.200000</speed>
</trkpt>
<trkpt lat="44.528580" lon="34.256428">
<ele>210.318481</ele>
<time>2011-10-13T09:37:57Z</time>
<desc>lat.=44.528580, lon.=34.256428, Alt.=210.318481m. Speed=15.516000m/h.</desc>
<speed>4.310000</speed>
</trkpt>
<trkpt lat="44.528442" lon="34.256271">
<ele>210.548950</ele>
<time>2011-10-13T09:38:02Z</time>
<desc>lat.=44.528442, lon.=34.256271, Alt.=210.548950m. Speed=12.456000m/h.</desc>
<speed>3.460000</speed>
</trkpt>
<trkpt lat="44.528309" lon="34.256142">
<ele>211.447388</ele>
<time>2011-10-13T09:38:07Z</time>
<desc>lat.=44.528309, lon.=34.256142, Alt.=211.447388m. Speed=10.692000m/h.</desc>
<speed>2.970000</speed>
</trkpt>
<trkpt lat="44.528141" lon="34.255981">
<ele>212.716919</ele>
<time>2011-10-13T09:38:12Z</time>
<desc>lat.=44.528141, lon.=34.255981, Alt.=212.716919m. Speed=15.372000m/h.</desc>
<speed>4.270000</speed>
</trkpt>
<trkpt lat="44.527973" lon="34.255833">
<ele>213.396606</ele>
<time>2011-10-13T09:38:17Z</time>
<desc>lat.=44.527973, lon.=34.255833, Alt.=213.396606m. Speed=17.820000m/h.</desc>
<speed>4.950000</speed>
</trkpt>
<trkpt lat="44.527763" lon="34.255695">
<ele>214.314575</ele>
<time>2011-10-13T09:38:22Z</time>
<desc>lat.=44.527763, lon.=34.255695, Alt.=214.314575m. Speed=17.388000m/h.</desc>
<speed>4.830000</speed>
</trkpt>
<trkpt lat="44.527534" lon="34.255558">
<ele>213.767700</ele>
<time>2011-10-13T09:38:27Z</time>
<desc>lat.=44.527534, lon.=34.255558, Alt.=213.767700m. Speed=21.455999m/h.</desc>
<speed>5.960000</speed>
</trkpt>
<trkpt lat="44.527271" lon="34.255444">
<ele>213.283325</ele>
<time>2011-10-13T09:38:32Z</time>
<desc>lat.=44.527271, lon.=34.255444, Alt.=213.283325m. Speed=21.096001m/h.</desc>
<speed>5.860000</speed>
</trkpt>
<trkpt lat="44.527008" lon="34.255360">
<ele>213.564575</ele>
<time>2011-10-13T09:38:37Z</time>
<desc>lat.=44.527008, lon.=34.255360, Alt.=213.564575m. Speed=21.240000m/h.</desc>
<speed>5.900000</speed>
</trkpt>
<trkpt lat="44.526752" lon="34.255287">
<ele>214.685669</ele>
<time>2011-10-13T09:38:42Z</time>
<desc>lat.=44.526752, lon.=34.255287, Alt.=214.685669m. Speed=21.924000m/h.</desc>
<speed>6.090000</speed>
</trkpt>
<trkpt lat="44.526482" lon="34.255203">
<ele>214.923950</ele>
<time>2011-10-13T09:38:47Z</time>
<desc>lat.=44.526482, lon.=34.255203, Alt.=214.923950m. Speed=22.176001m/h.</desc>
<speed>6.160000</speed>
</trkpt>
<trkpt lat="44.526218" lon="34.255119">
<ele>215.009888</ele>
<time>2011-10-13T09:38:52Z</time>
<desc>lat.=44.526218, lon.=34.255119, Alt.=215.009888m. Speed=21.708000m/h.</desc>
<speed>6.030000</speed>
</trkpt>
<trkpt lat="44.525959" lon="34.255039">
<ele>214.927856</ele>
<time>2011-10-13T09:38:57Z</time>
<desc>lat.=44.525959, lon.=34.255039, Alt.=214.927856m. Speed=23.112000m/h.</desc>
<speed>6.420000</speed>
</trkpt>
<trkpt lat="44.525661" lon="34.254940">
<ele>213.380981</ele>
<time>2011-10-13T09:39:02Z</time>
<desc>lat.=44.525661, lon.=34.254940, Alt.=213.380981m. Speed=25.488001m/h.</desc>
<speed>7.080000</speed>
</trkpt>
<trkpt lat="44.525326" lon="34.254795">
<ele>212.615356</ele>
<time>2011-10-13T09:39:07Z</time>
<desc>lat.=44.525326, lon.=34.254795, Alt.=212.615356m. Speed=29.879999m/h.</desc>
<speed>8.300000</speed>
</trkpt>
<trkpt lat="44.524952" lon="34.254608">
<ele>210.595825</ele>
<time>2011-10-13T09:39:12Z</time>
<desc>lat.=44.524952, lon.=34.254608, Alt.=210.595825m. Speed=34.416000m/h.</desc>
<speed>9.560000</speed>
</trkpt>
<trkpt lat="44.524574" lon="34.254375">
<ele>208.763794</ele>
<time>2011-10-13T09:39:17Z</time>
<desc>lat.=44.524574, lon.=34.254375, Alt.=208.763794m. Speed=33.660000m/h.</desc>
<speed>9.350000</speed>
</trkpt>
<trkpt lat="44.524170" lon="34.254128">
<ele>208.205200</ele>
<time>2011-10-13T09:39:22Z</time>
<desc>lat.=44.524170, lon.=34.254128, Alt.=208.205200m. Speed=34.020000m/h.</desc>
<speed>9.450000</speed>
</trkpt>
<trkpt lat="44.523811" lon="34.253895">
<ele>207.482544</ele>
<time>2011-10-13T09:39:27Z</time>
<desc>lat.=44.523811, lon.=34.253895, Alt.=207.482544m. Speed=30.240000m/h.</desc>
<speed>8.400000</speed>
</trkpt>
<trkpt lat="44.523476" lon="34.253658">
<ele>207.599731</ele>
<time>2011-10-13T09:39:32Z</time>
<desc>lat.=44.523476, lon.=34.253658, Alt.=207.599731m. Speed=26.459999m/h.</desc>
<speed>7.350000</speed>
</trkpt>
<trkpt lat="44.523129" lon="34.253433">
<ele>208.115356</ele>
<time>2011-10-13T09:39:37Z</time>
<desc>lat.=44.523129, lon.=34.253433, Alt.=208.115356m. Speed=30.996000m/h.</desc>
<speed>8.610000</speed>
</trkpt>
<trkpt lat="44.522797" lon="34.253193">
<ele>209.619263</ele>
<time>2011-10-13T09:39:42Z</time>
<desc>lat.=44.522797, lon.=34.253193, Alt.=209.619263m. Speed=24.695999m/h.</desc>
<speed>6.860000</speed>
</trkpt>
<trkpt lat="44.522556" lon="34.252975">
<ele>211.713013</ele>
<time>2011-10-13T09:39:47Z</time>
<desc>lat.=44.522556, lon.=34.252975, Alt.=211.713013m. Speed=21.708000m/h.</desc>
<speed>6.030000</speed>
</trkpt>
<trkpt lat="44.522339" lon="34.252766">
<ele>214.509888</ele>
<time>2011-10-13T09:39:52Z</time>
<desc>lat.=44.522339, lon.=34.252766, Alt.=214.509888m. Speed=18.756001m/h.</desc>
<speed>5.210000</speed>
</trkpt>
<trkpt lat="44.522141" lon="34.252628">
<ele>214.755981</ele>
<time>2011-10-13T09:39:57Z</time>
<desc>lat.=44.522141, lon.=34.252628, Alt.=214.755981m. Speed=12.636000m/h.</desc>
<speed>3.510000</speed>
</trkpt>
<trkpt lat="44.521965" lon="34.252525">
<ele>215.693481</ele>
<time>2011-10-13T09:40:02Z</time>
<desc>lat.=44.521965, lon.=34.252525, Alt.=215.693481m. Speed=12.600000m/h.</desc>
<speed>3.500000</speed>
</trkpt>
<trkpt lat="44.521782" lon="34.252468">
<ele>217.783325</ele>
<time>2011-10-13T09:40:07Z</time>
<desc>lat.=44.521782, lon.=34.252468, Alt.=217.783325m. Speed=14.148000m/h.</desc>
<speed>3.930000</speed>
</trkpt>
<trkpt lat="44.521591" lon="34.252422">
<ele>219.955200</ele>
<time>2011-10-13T09:40:12Z</time>
<desc>lat.=44.521591, lon.=34.252422, Alt.=219.955200m. Speed=13.356000m/h.</desc>
<speed>3.710000</speed>
</trkpt>
<trkpt lat="44.521461" lon="34.252434">
<ele>227.045044</ele>
<time>2011-10-13T09:40:17Z</time>
<desc>lat.=44.521461, lon.=34.252434, Alt.=227.045044m. Speed=10.296000m/h.</desc>
<speed>2.860000</speed>
</trkpt>
<trkpt lat="44.521317" lon="34.252480">
<ele>230.013794</ele>
<time>2011-10-13T09:40:22Z</time>
<desc>lat.=44.521317, lon.=34.252480, Alt.=230.013794m. Speed=11.052000m/h.</desc>
<speed>3.070000</speed>
</trkpt>
<trkpt lat="44.521160" lon="34.252529">
<ele>230.505981</ele>
<time>2011-10-13T09:40:27Z</time>
<desc>lat.=44.521160, lon.=34.252529, Alt.=230.505981m. Speed=12.420000m/h.</desc>
<speed>3.450000</speed>
</trkpt>
<trkpt lat="44.521019" lon="34.252502">
<ele>229.857544</ele>
<time>2011-10-13T09:40:32Z</time>
<desc>lat.=44.521019, lon.=34.252502, Alt.=229.857544m. Speed=11.772000m/h.</desc>
<speed>3.270000</speed>
</trkpt>
<trkpt lat="44.520874" lon="34.252510">
<ele>231.310669</ele>
<time>2011-10-13T09:40:37Z</time>
<desc>lat.=44.520874, lon.=34.252510, Alt.=231.310669m. Speed=13.932000m/h.</desc>
<speed>3.870000</speed>
</trkpt>
<trkpt lat="44.520679" lon="34.252518">
<ele>231.084106</ele>
<time>2011-10-13T09:40:42Z</time>
<desc>lat.=44.520679, lon.=34.252518, Alt.=231.084106m. Speed=13.104000m/h.</desc>
<speed>3.640000</speed>
</trkpt>
<trkpt lat="44.520500" lon="34.252522">
<ele>230.670044</ele>
<time>2011-10-13T09:40:47Z</time>
<desc>lat.=44.520500, lon.=34.252522, Alt.=230.670044m. Speed=16.775999m/h.</desc>
<speed>4.660000</speed>
</trkpt>
<trkpt lat="44.520309" lon="34.252541">
<ele>230.322388</ele>
<time>2011-10-13T09:40:52Z</time>
<desc>lat.=44.520309, lon.=34.252541, Alt.=230.322388m. Speed=15.372000m/h.</desc>
<speed>4.270000</speed>
</trkpt>
<trkpt lat="44.520100" lon="34.252548">
<ele>230.134888</ele>
<time>2011-10-13T09:40:57Z</time>
<desc>lat.=44.520100, lon.=34.252548, Alt.=230.134888m. Speed=16.812000m/h.</desc>
<speed>4.670000</speed>
</trkpt>
<trkpt lat="44.519878" lon="34.252560">
<ele>230.787231</ele>
<time>2011-10-13T09:41:02Z</time>
<desc>lat.=44.519878, lon.=34.252560, Alt.=230.787231m. Speed=16.056000m/h.</desc>
<speed>4.460000</speed>
</trkpt>
<trkpt lat="44.519688" lon="34.252567">
<ele>230.490356</ele>
<time>2011-10-13T09:41:07Z</time>
<desc>lat.=44.519688, lon.=34.252567, Alt.=230.490356m. Speed=14.940000m/h.</desc>
<speed>4.150000</speed>
</trkpt>
<trkpt lat="44.519482" lon="34.252514">
<ele>229.197388</ele>
<time>2011-10-13T09:41:12Z</time>
<desc>lat.=44.519482, lon.=34.252514, Alt.=229.197388m. Speed=17.388000m/h.</desc>
<speed>4.830000</speed>
</trkpt>
<trkpt lat="44.519291" lon="34.252449">
<ele>226.771606</ele>
<time>2011-10-13T09:41:17Z</time>
<desc>lat.=44.519291, lon.=34.252449, Alt.=226.771606m. Speed=15.624000m/h.</desc>
<speed>4.340000</speed>
</trkpt>
<trkpt lat="44.519085" lon="34.252346">
<ele>226.630981</ele>
<time>2011-10-13T09:41:22Z</time>
<desc>lat.=44.519085, lon.=34.252346, Alt.=226.630981m. Speed=17.604000m/h.</desc>
<speed>4.890000</speed>
</trkpt>
<trkpt lat="44.518845" lon="34.252140">
<ele>225.420044</ele>
<time>2011-10-13T09:41:27Z</time>
<desc>lat.=44.518845, lon.=34.252140, Alt.=225.420044m. Speed=23.688000m/h.</desc>
<speed>6.580000</speed>
</trkpt>
<trkpt lat="44.518631" lon="34.251858">
<ele>225.373169</ele>
<time>2011-10-13T09:41:32Z</time>
<desc>lat.=44.518631, lon.=34.251858, Alt.=225.373169m. Speed=21.348000m/h.</desc>
<speed>5.930000</speed>
</trkpt>
<trkpt lat="44.518459" lon="34.251560">
<ele>226.060669</ele>
<time>2011-10-13T09:41:37Z</time>
<desc>lat.=44.518459, lon.=34.251560, Alt.=226.060669m. Speed=20.483999m/h.</desc>
<speed>5.690000</speed>
</trkpt>
<trkpt lat="44.518299" lon="34.251247">
<ele>226.482544</ele>
<time>2011-10-13T09:41:42Z</time>
<desc>lat.=44.518299, lon.=34.251247, Alt.=226.482544m. Speed=21.275999m/h.</desc>
<speed>5.910000</speed>
</trkpt>
<trkpt lat="44.518169" lon="34.250961">
<ele>226.658325</ele>
<time>2011-10-13T09:41:47Z</time>
<desc>lat.=44.518169, lon.=34.250961, Alt.=226.658325m. Speed=16.955999m/h.</desc>
<speed>4.710000</speed>
</trkpt>
<trkpt lat="44.518066" lon="34.250664">
<ele>227.951294</ele>
<time>2011-10-13T09:41:52Z</time>
<desc>lat.=44.518066, lon.=34.250664, Alt.=227.951294m. Speed=17.784000m/h.</desc>
<speed>4.940000</speed>
</trkpt>
<trkpt lat="44.518005" lon="34.250362">
<ele>228.943481</ele>
<time>2011-10-13T09:41:57Z</time>
<desc>lat.=44.518005, lon.=34.250362, Alt.=228.943481m. Speed=14.616000m/h.</desc>
<speed>4.060000</speed>
</trkpt>
<trkpt lat="44.517967" lon="34.250088">
<ele>230.127075</ele>
<time>2011-10-13T09:42:02Z</time>
<desc>lat.=44.517967, lon.=34.250088, Alt.=230.127075m. Speed=14.508000m/h.</desc>
<speed>4.030000</speed>
</trkpt>
<trkpt lat="44.517975" lon="34.249874">
<ele>231.634888</ele>
<time>2011-10-13T09:42:07Z</time>
<desc>lat.=44.517975, lon.=34.249874, Alt.=231.634888m. Speed=15.300000m/h.</desc>
<speed>4.250000</speed>
</trkpt>
<trkpt lat="44.517967" lon="34.249664">
<ele>232.330200</ele>
<time>2011-10-13T09:42:12Z</time>
<desc>lat.=44.517967, lon.=34.249664, Alt.=232.330200m. Speed=10.548000m/h.</desc>
<speed>2.930000</speed>
</trkpt>
<trkpt lat="44.517941" lon="34.249481">
<ele>230.248169</ele>
<time>2011-10-13T09:42:17Z</time>
<desc>lat.=44.517941, lon.=34.249481, Alt.=230.248169m. Speed=6.120000m/h.</desc>
<speed>1.700000</speed>
</trkpt>
<trkpt lat="44.517929" lon="34.249310">
<ele>229.787231</ele>
<time>2011-10-13T09:42:22Z</time>
<desc>lat.=44.517929, lon.=34.249310, Alt.=229.787231m. Speed=11.592000m/h.</desc>
<speed>3.220000</speed>
</trkpt>
<trkpt lat="44.517929" lon="34.249069">
<ele>230.384888</ele>
<time>2011-10-13T09:42:27Z</time>
<desc>lat.=44.517929, lon.=34.249069, Alt.=230.384888m. Speed=14.688000m/h.</desc>
<speed>4.080000</speed>
</trkpt>
<trkpt lat="44.517933" lon="34.248802">
<ele>233.236450</ele>
<time>2011-10-13T09:42:32Z</time>
<desc>lat.=44.517933, lon.=34.248802, Alt.=233.236450m. Speed=13.932000m/h.</desc>
<speed>3.870000</speed>
</trkpt>
<trkpt lat="44.517937" lon="34.248535">
<ele>234.634888</ele>
<time>2011-10-13T09:42:37Z</time>
<desc>lat.=44.517937, lon.=34.248535, Alt.=234.634888m. Speed=14.616000m/h.</desc>
<speed>4.060000</speed>
</trkpt>
<trkpt lat="44.517933" lon="34.248283">
<ele>237.775513</ele>
<time>2011-10-13T09:42:42Z</time>
<desc>lat.=44.517933, lon.=34.248283, Alt.=237.775513m. Speed=13.536000m/h.</desc>
<speed>3.760000</speed>
</trkpt>
<trkpt lat="44.517929" lon="34.248062">
<ele>238.646606</ele>
<time>2011-10-13T09:42:47Z</time>
<desc>lat.=44.517929, lon.=34.248062, Alt.=238.646606m. Speed=14.544000m/h.</desc>
<speed>4.040000</speed>
</trkpt>
<trkpt lat="44.517921" lon="34.247795">
<ele>239.384888</ele>
<time>2011-10-13T09:42:52Z</time>
<desc>lat.=44.517921, lon.=34.247795, Alt.=239.384888m. Speed=12.564000m/h.</desc>
<speed>3.490000</speed>
</trkpt>
<trkpt lat="44.517906" lon="34.247559">
<ele>241.529419</ele>
<time>2011-10-13T09:42:57Z</time>
<desc>lat.=44.517906, lon.=34.247559, Alt.=241.529419m. Speed=11.952000m/h.</desc>
<speed>3.320000</speed>
</trkpt>
<trkpt lat="44.517914" lon="34.247322">
<ele>241.783325</ele>
<time>2011-10-13T09:43:02Z</time>
<desc>lat.=44.517914, lon.=34.247322, Alt.=241.783325m. Speed=12.168000m/h.</desc>
<speed>3.380000</speed>
</trkpt>
<trkpt lat="44.517918" lon="34.247154">
<ele>239.888794</ele>
<time>2011-10-13T09:43:07Z</time>
<desc>lat.=44.517918, lon.=34.247154, Alt.=239.888794m. Speed=8.280000m/h.</desc>
<speed>2.300000</speed>
</trkpt>
<trkpt lat="44.517918" lon="34.246986">
<ele>238.627075</ele>
<time>2011-10-13T09:43:12Z</time>
<desc>lat.=44.517918, lon.=34.246986, Alt.=238.627075m. Speed=10.080000m/h.</desc>
<speed>2.800000</speed>
</trkpt>
<trkpt lat="44.517891" lon="34.246788">
<ele>239.154419</ele>
<time>2011-10-13T09:43:17Z</time>
<desc>lat.=44.517891, lon.=34.246788, Alt.=239.154419m. Speed=9.468000m/h.</desc>
<speed>2.630000</speed>
</trkpt>
<trkpt lat="44.517857" lon="34.246620">
<ele>238.798950</ele>
<time>2011-10-13T09:43:22Z</time>
<desc>lat.=44.517857, lon.=34.246620, Alt.=238.798950m. Speed=9.360000m/h.</desc>
<speed>2.600000</speed>
</trkpt>
<trkpt lat="44.517860" lon="34.246464">
<ele>239.615356</ele>
<time>2011-10-13T09:43:27Z</time>
<desc>lat.=44.517860, lon.=34.246464, Alt.=239.615356m. Speed=9.144000m/h.</desc>
<speed>2.540000</speed>
</trkpt>
<trkpt lat="44.517860" lon="34.246292">
<ele>239.451294</ele>
<time>2011-10-13T09:43:32Z</time>
<desc>lat.=44.517860, lon.=34.246292, Alt.=239.451294m. Speed=10.440000m/h.</desc>
<speed>2.900000</speed>
</trkpt>
<trkpt lat="44.517860" lon="34.246098">
<ele>238.158325</ele>
<time>2011-10-13T09:43:37Z</time>
<desc>lat.=44.517860, lon.=34.246098, Alt.=238.158325m. Speed=8.712000m/h.</desc>
<speed>2.420000</speed>
</trkpt>
<trkpt lat="44.517826" lon="34.245899">
<ele>238.302856</ele>
<time>2011-10-13T09:43:42Z</time>
<desc>lat.=44.517826, lon.=34.245899, Alt.=238.302856m. Speed=10.872000m/h.</desc>
<speed>3.020000</speed>
</trkpt>
<trkpt lat="44.517811" lon="34.245674">
<ele>238.009888</ele>
<time>2011-10-13T09:43:47Z</time>
<desc>lat.=44.517811, lon.=34.245674, Alt.=238.009888m. Speed=11.700000m/h.</desc>
<speed>3.250000</speed>
</trkpt>
<trkpt lat="44.517803" lon="34.245480">
<ele>238.638794</ele>
<time>2011-10-13T09:43:52Z</time>
<desc>lat.=44.517803, lon.=34.245480, Alt.=238.638794m. Speed=9.864000m/h.</desc>
<speed>2.740000</speed>
</trkpt>
<trkpt lat="44.517807" lon="34.245281">
<ele>238.951294</ele>
<time>2011-10-13T09:43:57Z</time>
<desc>lat.=44.517807, lon.=34.245281, Alt.=238.951294m. Speed=11.016000m/h.</desc>
<speed>3.060000</speed>
</trkpt>
<trkpt lat="44.517803" lon="34.245068">
<ele>240.279419</ele>
<time>2011-10-13T09:44:02Z</time>
<desc>lat.=44.517803, lon.=34.245068, Alt.=240.279419m. Speed=9.324000m/h.</desc>
<speed>2.590000</speed>
</trkpt>
<trkpt lat="44.517784" lon="34.244884">
<ele>239.599731</ele>
<time>2011-10-13T09:44:07Z</time>
<desc>lat.=44.517784, lon.=34.244884, Alt.=239.599731m. Speed=10.260000m/h.</desc>
<speed>2.850000</speed>
</trkpt>
<trkpt lat="44.517746" lon="34.244663">
<ele>242.220825</ele>
<time>2011-10-13T09:44:12Z</time>
<desc>lat.=44.517746, lon.=34.244663, Alt.=242.220825m. Speed=12.420000m/h.</desc>
<speed>3.450000</speed>
</trkpt>
<trkpt lat="44.517708" lon="34.244457">
<ele>242.595825</ele>
<time>2011-10-13T09:44:17Z</time>
<desc>lat.=44.517708, lon.=34.244457, Alt.=242.595825m. Speed=8.604000m/h.</desc>
<speed>2.390000</speed>
</trkpt>
<trkpt lat="44.517685" lon="34.244308">
<ele>241.935669</ele>
<time>2011-10-13T09:44:22Z</time>
<desc>lat.=44.517685, lon.=34.244308, Alt.=241.935669m. Speed=10.008000m/h.</desc>
<speed>2.780000</speed>
</trkpt>
<trkpt lat="44.517662" lon="34.244106">
<ele>243.162231</ele>
<time>2011-10-13T09:44:27Z</time>
<desc>lat.=44.517662, lon.=34.244106, Alt.=243.162231m. Speed=12.060000m/h.</desc>
<speed>3.350000</speed>
</trkpt>
<trkpt lat="44.517628" lon="34.243904">
<ele>245.486450</ele>
<time>2011-10-13T09:44:32Z</time>
<desc>lat.=44.517628, lon.=34.243904, Alt.=245.486450m. Speed=9.144000m/h.</desc>
<speed>2.540000</speed>
</trkpt>
<trkpt lat="44.517605" lon="34.243721">
<ele>246.861450</ele>
<time>2011-10-13T09:44:37Z</time>
<desc>lat.=44.517605, lon.=34.243721, Alt.=246.861450m. Speed=11.016000m/h.</desc>
<speed>3.060000</speed>
</trkpt>
<trkpt lat="44.517578" lon="34.243519">
<ele>247.509888</ele>
<time>2011-10-13T09:44:42Z</time>
<desc>lat.=44.517578, lon.=34.243519, Alt.=247.509888m. Speed=11.016000m/h.</desc>
<speed>3.060000</speed>
</trkpt>
<trkpt lat="44.517544" lon="34.243343">
<ele>249.494263</ele>
<time>2011-10-13T09:44:47Z</time>
<desc>lat.=44.517544, lon.=34.243343, Alt.=249.494263m. Speed=11.124000m/h.</desc>
<speed>3.090000</speed>
</trkpt>
<trkpt lat="44.517517" lon="34.243141">
<ele>248.908325</ele>
<time>2011-10-13T09:44:52Z</time>
<desc>lat.=44.517517, lon.=34.243141, Alt.=248.908325m. Speed=12.816000m/h.</desc>
<speed>3.560000</speed>
</trkpt>
<trkpt lat="44.517460" lon="34.242943">
<ele>249.822388</ele>
<time>2011-10-13T09:44:57Z</time>
<desc>lat.=44.517460, lon.=34.242943, Alt.=249.822388m. Speed=11.844000m/h.</desc>
<speed>3.290000</speed>
</trkpt>
<trkpt lat="44.517403" lon="34.242741">
<ele>249.548950</ele>
<time>2011-10-13T09:45:02Z</time>
<desc>lat.=44.517403, lon.=34.242741, Alt.=249.548950m. Speed=12.492000m/h.</desc>
<speed>3.470000</speed>
</trkpt>
<trkpt lat="44.517357" lon="34.242550">
<ele>249.912231</ele>
<time>2011-10-13T09:45:07Z</time>
<desc>lat.=44.517357, lon.=34.242550, Alt.=249.912231m. Speed=11.448000m/h.</desc>
<speed>3.180000</speed>
</trkpt>
<trkpt lat="44.517315" lon="34.242371">
<ele>250.701294</ele>
<time>2011-10-13T09:45:12Z</time>
<desc>lat.=44.517315, lon.=34.242371, Alt.=250.701294m. Speed=11.016000m/h.</desc>
<speed>3.060000</speed>
</trkpt>
<trkpt lat="44.517277" lon="34.242222">
<ele>253.963013</ele>
<time>2011-10-13T09:45:17Z</time>
<desc>lat.=44.517277, lon.=34.242222, Alt.=253.963013m. Speed=8.388000m/h.</desc>
<speed>2.330000</speed>
</trkpt>
<trkpt lat="44.517223" lon="34.242046">
<ele>253.513794</ele>
<time>2011-10-13T09:45:22Z</time>
<desc>lat.=44.517223, lon.=34.242046, Alt.=253.513794m. Speed=14.904000m/h.</desc>
<speed>4.140000</speed>
</trkpt>
<trkpt lat="44.517178" lon="34.241859">
<ele>253.802856</ele>
<time>2011-10-13T09:45:27Z</time>
<desc>lat.=44.517178, lon.=34.241859, Alt.=253.802856m. Speed=11.772000m/h.</desc>
<speed>3.270000</speed>
</trkpt>
<trkpt lat="44.517128" lon="34.241669">
<ele>254.361450</ele>
<time>2011-10-13T09:45:32Z</time>
<desc>lat.=44.517128, lon.=34.241669, Alt.=254.361450m. Speed=12.276000m/h.</desc>
<speed>3.410000</speed>
</trkpt>
<trkpt lat="44.517078" lon="34.241470">
<ele>255.838013</ele>
<time>2011-10-13T09:45:37Z</time>
<desc>lat.=44.517078, lon.=34.241470, Alt.=255.838013m. Speed=12.456000m/h.</desc>
<speed>3.460000</speed>
</trkpt>
<trkpt lat="44.517033" lon="34.241280">
<ele>256.551025</ele>
<time>2011-10-13T09:45:42Z</time>
<desc>lat.=44.517033, lon.=34.241280, Alt.=256.551025m. Speed=13.896000m/h.</desc>
<speed>3.860000</speed>
</trkpt>
<trkpt lat="44.516968" lon="34.241074">
<ele>257.230713</ele>
<time>2011-10-13T09:45:47Z</time>
<desc>lat.=44.516968, lon.=34.241074, Alt.=257.230713m. Speed=11.844000m/h.</desc>
<speed>3.290000</speed>
</trkpt>
<trkpt lat="44.516914" lon="34.240883">
<ele>257.785400</ele>
<time>2011-10-13T09:45:52Z</time>
<desc>lat.=44.516914, lon.=34.240883, Alt.=257.785400m. Speed=12.276000m/h.</desc>
<speed>3.410000</speed>
</trkpt>
<trkpt lat="44.516861" lon="34.240681">
<ele>256.886963</ele>
<time>2011-10-13T09:45:57Z</time>
<desc>lat.=44.516861, lon.=34.240681, Alt.=256.886963m. Speed=12.816000m/h.</desc>
<speed>3.560000</speed>
</trkpt>
<trkpt lat="44.516800" lon="34.240482">
<ele>257.027588</ele>
<time>2011-10-13T09:46:02Z</time>
<desc>lat.=44.516800, lon.=34.240482, Alt.=257.027588m. Speed=13.896000m/h.</desc>
<speed>3.860000</speed>
</trkpt>
<trkpt lat="44.516724" lon="34.240288">
<ele>256.855713</ele>
<time>2011-10-13T09:46:07Z</time>
<desc>lat.=44.516724, lon.=34.240288, Alt.=256.855713m. Speed=10.152000m/h.</desc>
<speed>2.820000</speed>
</trkpt>
<trkpt lat="44.516666" lon="34.240120">
<ele>257.105713</ele>
<time>2011-10-13T09:46:12Z</time>
<desc>lat.=44.516666, lon.=34.240120, Alt.=257.105713m. Speed=12.636000m/h.</desc>
<speed>3.510000</speed>
</trkpt>
<trkpt lat="44.516598" lon="34.239922">
<ele>256.566650</ele>
<time>2011-10-13T09:46:17Z</time>
<desc>lat.=44.516598, lon.=34.239922, Alt.=256.566650m. Speed=10.584000m/h.</desc>
<speed>2.940000</speed>
</trkpt>
<trkpt lat="44.516510" lon="34.239700">
<ele>257.621338</ele>
<time>2011-10-13T09:46:22Z</time>
<desc>lat.=44.516510, lon.=34.239700, Alt.=257.621338m. Speed=14.508000m/h.</desc>
<speed>4.030000</speed>
</trkpt>
<trkpt lat="44.516438" lon="34.239452">
<ele>257.488525</ele>
<time>2011-10-13T09:46:27Z</time>
<desc>lat.=44.516438, lon.=34.239452, Alt.=257.488525m. Speed=12.672000m/h.</desc>
<speed>3.520000</speed>
</trkpt>
<trkpt lat="44.516373" lon="34.239212">
<ele>258.660400</ele>
<time>2011-10-13T09:46:32Z</time>
<desc>lat.=44.516373, lon.=34.239212, Alt.=258.660400m. Speed=13.500000m/h.</desc>
<speed>3.750000</speed>
</trkpt>
<trkpt lat="44.516335" lon="34.238987">
<ele>259.441650</ele>
<time>2011-10-13T09:46:37Z</time>
<desc>lat.=44.516335, lon.=34.238987, Alt.=259.441650m. Speed=13.464000m/h.</desc>
<speed>3.740000</speed>
</trkpt>
<trkpt lat="44.516296" lon="34.238758">
<ele>259.293213</ele>
<time>2011-10-13T09:46:42Z</time>
<desc>lat.=44.516296, lon.=34.238758, Alt.=259.293213m. Speed=12.636000m/h.</desc>
<speed>3.510000</speed>
</trkpt>
<trkpt lat="44.516300" lon="34.238556">
<ele>259.957275</ele>
<time>2011-10-13T09:46:47Z</time>
<desc>lat.=44.516300, lon.=34.238556, Alt.=259.957275m. Speed=9.792000m/h.</desc>
<speed>2.720000</speed>
</trkpt>
<trkpt lat="44.516369" lon="34.238415">
<ele>261.191650</ele>
<time>2011-10-13T09:46:52Z</time>
<desc>lat.=44.516369, lon.=34.238415, Alt.=261.191650m. Speed=10.728000m/h.</desc>
<speed>2.980000</speed>
</trkpt>
<trkpt lat="44.516468" lon="34.238216">
<ele>261.457275</ele>
<time>2011-10-13T09:46:57Z</time>
<desc>lat.=44.516468, lon.=34.238216, Alt.=261.457275m. Speed=11.484000m/h.</desc>
<speed>3.190000</speed>
</trkpt>
<trkpt lat="44.516533" lon="34.238026">
<ele>262.660400</ele>
<time>2011-10-13T09:47:02Z</time>
<desc>lat.=44.516533, lon.=34.238026, Alt.=262.660400m. Speed=11.556000m/h.</desc>
<speed>3.210000</speed>
</trkpt>
<trkpt lat="44.516609" lon="34.237820">
<ele>262.691650</ele>
<time>2011-10-13T09:47:07Z</time>
<desc>lat.=44.516609, lon.=34.237820, Alt.=262.691650m. Speed=11.520000m/h.</desc>
<speed>3.200000</speed>
</trkpt>
<trkpt lat="44.516678" lon="34.237633">
<ele>262.793213</ele>
<time>2011-10-13T09:47:12Z</time>
<desc>lat.=44.516678, lon.=34.237633, Alt.=262.793213m. Speed=10.188000m/h.</desc>
<speed>2.830000</speed>
</trkpt>
<trkpt lat="44.516739" lon="34.237438">
<ele>261.597900</ele>
<time>2011-10-13T09:47:17Z</time>
<desc>lat.=44.516739, lon.=34.237438, Alt.=261.597900m. Speed=13.248000m/h.</desc>
<speed>3.680000</speed>
</trkpt>
<trkpt lat="44.516827" lon="34.237221">
<ele>261.886963</ele>
<time>2011-10-13T09:47:22Z</time>
<desc>lat.=44.516827, lon.=34.237221, Alt.=261.886963m. Speed=13.248000m/h.</desc>
<speed>3.680000</speed>
</trkpt>
<trkpt lat="44.516922" lon="34.237034">
<ele>262.472900</ele>
<time>2011-10-13T09:47:27Z</time>
<desc>lat.=44.516922, lon.=34.237034, Alt.=262.472900m. Speed=10.944000m/h.</desc>
<speed>3.040000</speed>
</trkpt>
<trkpt lat="44.516975" lon="34.236862">
<ele>262.926025</ele>
<time>2011-10-13T09:47:32Z</time>
<desc>lat.=44.516975, lon.=34.236862, Alt.=262.926025m. Speed=11.916000m/h.</desc>
<speed>3.310000</speed>
</trkpt>
<trkpt lat="44.517014" lon="34.236656">
<ele>261.793213</ele>
<time>2011-10-13T09:47:37Z</time>
<desc>lat.=44.517014, lon.=34.236656, Alt.=261.793213m. Speed=11.628000m/h.</desc>
<speed>3.230000</speed>
</trkpt>
<trkpt lat="44.517021" lon="34.236500">
<ele>260.691650</ele>
<time>2011-10-13T09:47:42Z</time>
<desc>lat.=44.517021, lon.=34.236500, Alt.=260.691650m. Speed=10.548000m/h.</desc>
<speed>2.930000</speed>
</trkpt>
<trkpt lat="44.517048" lon="34.236309">
<ele>261.066650</ele>
<time>2011-10-13T09:47:47Z</time>
<desc>lat.=44.517048, lon.=34.236309, Alt.=261.066650m. Speed=12.276000m/h.</desc>
<speed>3.410000</speed>
</trkpt>
<trkpt lat="44.517086" lon="34.236092">
<ele>261.074463</ele>
<time>2011-10-13T09:47:52Z</time>
<desc>lat.=44.517086, lon.=34.236092, Alt.=261.074463m. Speed=14.148000m/h.</desc>
<speed>3.930000</speed>
</trkpt>
<trkpt lat="44.517132" lon="34.235878">
<ele>261.269775</ele>
<time>2011-10-13T09:47:57Z</time>
<desc>lat.=44.517132, lon.=34.235878, Alt.=261.269775m. Speed=12.636000m/h.</desc>
<speed>3.510000</speed>
</trkpt>
<trkpt lat="44.517162" lon="34.235668">
<ele>261.605713</ele>
<time>2011-10-13T09:48:02Z</time>
<desc>lat.=44.517162, lon.=34.235668, Alt.=261.605713m. Speed=11.808000m/h.</desc>
<speed>3.280000</speed>
</trkpt>
<trkpt lat="44.517185" lon="34.235455">
<ele>261.668213</ele>
<time>2011-10-13T09:48:07Z</time>
<desc>lat.=44.517185, lon.=34.235455, Alt.=261.668213m. Speed=12.492000m/h.</desc>
<speed>3.470000</speed>
</trkpt>
<trkpt lat="44.517174" lon="34.235237">
<ele>263.074463</ele>
<time>2011-10-13T09:48:12Z</time>
<desc>lat.=44.517174, lon.=34.235237, Alt.=263.074463m. Speed=13.212000m/h.</desc>
<speed>3.670000</speed>
</trkpt>
<trkpt lat="44.517197" lon="34.235020">
<ele>263.902588</ele>
<time>2011-10-13T09:48:17Z</time>
<desc>lat.=44.517197, lon.=34.235020, Alt.=263.902588m. Speed=12.636000m/h.</desc>
<speed>3.510000</speed>
</trkpt>
<trkpt lat="44.517193" lon="34.234806">
<ele>265.996338</ele>
<time>2011-10-13T09:48:22Z</time>
<desc>lat.=44.517193, lon.=34.234806, Alt.=265.996338m. Speed=11.628000m/h.</desc>
<speed>3.230000</speed>
</trkpt>
<trkpt lat="44.517197" lon="34.234634">
<ele>266.808838</ele>
<time>2011-10-13T09:48:27Z</time>
<desc>lat.=44.517197, lon.=34.234634, Alt.=266.808838m. Speed=8.352000m/h.</desc>
<speed>2.320000</speed>
</trkpt>
<trkpt lat="44.517208" lon="34.234478">
<ele>267.551025</ele>
<time>2011-10-13T09:48:32Z</time>
<desc>lat.=44.517208, lon.=34.234478, Alt.=267.551025m. Speed=10.152000m/h.</desc>
<speed>2.820000</speed>
</trkpt>
<trkpt lat="44.517204" lon="34.234306">
<ele>267.933838</ele>
<time>2011-10-13T09:48:37Z</time>
<desc>lat.=44.517204, lon.=34.234306, Alt.=267.933838m. Speed=10.296000m/h.</desc>
<speed>2.860000</speed>
</trkpt>
<trkpt lat="44.517204" lon="34.234138">
<ele>268.652588</ele>
<time>2011-10-13T09:48:42Z</time>
<desc>lat.=44.517204, lon.=34.234138, Alt.=268.652588m. Speed=9.720000m/h.</desc>
<speed>2.700000</speed>
</trkpt>
<trkpt lat="44.517212" lon="34.233955">
<ele>269.566650</ele>
<time>2011-10-13T09:48:47Z</time>
<desc>lat.=44.517212, lon.=34.233955, Alt.=269.566650m. Speed=9.612000m/h.</desc>
<speed>2.670000</speed>
</trkpt>
<trkpt lat="44.517239" lon="34.233784">
<ele>270.129150</ele>
<time>2011-10-13T09:48:52Z</time>
<desc>lat.=44.517239, lon.=34.233784, Alt.=270.129150m. Speed=10.548000m/h.</desc>
<speed>2.930000</speed>
</trkpt>
<trkpt lat="44.517281" lon="34.233601">
<ele>271.261963</ele>
<time>2011-10-13T09:48:57Z</time>
<desc>lat.=44.517281, lon.=34.233601, Alt.=271.261963m. Speed=10.908000m/h.</desc>
<speed>3.030000</speed>
</trkpt>
<trkpt lat="44.517342" lon="34.233429">
<ele>271.621338</ele>
<time>2011-10-13T09:49:02Z</time>
<desc>lat.=44.517342, lon.=34.233429, Alt.=271.621338m. Speed=11.052000m/h.</desc>
<speed>3.070000</speed>
</trkpt>
<trkpt lat="44.517376" lon="34.233261">
<ele>272.668213</ele>
<time>2011-10-13T09:49:07Z</time>
<desc>lat.=44.517376, lon.=34.233261, Alt.=272.668213m. Speed=10.836000m/h.</desc>
<speed>3.010000</speed>
</trkpt>
<trkpt lat="44.517414" lon="34.233089">
<ele>273.840088</ele>
<time>2011-10-13T09:49:12Z</time>
<desc>lat.=44.517414, lon.=34.233089, Alt.=273.840088m. Speed=10.296000m/h.</desc>
<speed>2.860000</speed>
</trkpt>
<trkpt lat="44.517448" lon="34.232918">
<ele>273.668213</ele>
<time>2011-10-13T09:49:17Z</time>
<desc>lat.=44.517448, lon.=34.232918, Alt.=273.668213m. Speed=10.620000m/h.</desc>
<speed>2.950000</speed>
</trkpt>
<trkpt lat="44.517487" lon="34.232742">
<ele>273.730713</ele>
<time>2011-10-13T09:49:22Z</time>
<desc>lat.=44.517487, lon.=34.232742, Alt.=273.730713m. Speed=10.656000m/h.</desc>
<speed>2.960000</speed>
</trkpt>
<trkpt lat="44.517517" lon="34.232559">
<ele>273.746338</ele>
<time>2011-10-13T09:49:27Z</time>
<desc>lat.=44.517517, lon.=34.232559, Alt.=273.746338m. Speed=10.548000m/h.</desc>
<speed>2.930000</speed>
</trkpt>
<trkpt lat="44.517548" lon="34.232376">
<ele>274.707275</ele>
<time>2011-10-13T09:49:32Z</time>
<desc>lat.=44.517548, lon.=34.232376, Alt.=274.707275m. Speed=10.476000m/h.</desc>
<speed>2.910000</speed>
</trkpt>
<trkpt lat="44.517590" lon="34.232216">
<ele>276.394775</ele>
<time>2011-10-13T09:49:37Z</time>
<desc>lat.=44.517590, lon.=34.232216, Alt.=276.394775m. Speed=10.368000m/h.</desc>
<speed>2.880000</speed>
</trkpt>
<trkpt lat="44.517605" lon="34.232033">
<ele>277.090088</ele>
<time>2011-10-13T09:49:42Z</time>
<desc>lat.=44.517605, lon.=34.232033, Alt.=277.090088m. Speed=10.836000m/h.</desc>
<speed>3.010000</speed>
</trkpt>
<trkpt lat="44.517662" lon="34.231850">
<ele>277.543213</ele>
<time>2011-10-13T09:49:47Z</time>
<desc>lat.=44.517662, lon.=34.231850, Alt.=277.543213m. Speed=10.584000m/h.</desc>
<speed>2.940000</speed>
</trkpt>
<trkpt lat="44.517693" lon="34.231636">
<ele>277.605713</ele>
<time>2011-10-13T09:49:52Z</time>
<desc>lat.=44.517693, lon.=34.231636, Alt.=277.605713m. Speed=11.592000m/h.</desc>
<speed>3.220000</speed>
</trkpt>
<trkpt lat="44.517750" lon="34.231434">
<ele>278.121338</ele>
<time>2011-10-13T09:49:57Z</time>
<desc>lat.=44.517750, lon.=34.231434, Alt.=278.121338m. Speed=12.528000m/h.</desc>
<speed>3.480000</speed>
</trkpt>
<trkpt lat="44.517784" lon="34.231213">
<ele>279.558838</ele>
<time>2011-10-13T09:50:02Z</time>
<desc>lat.=44.517784, lon.=34.231213, Alt.=279.558838m. Speed=11.952000m/h.</desc>
<speed>3.320000</speed>
</trkpt>
<trkpt lat="44.517818" lon="34.231033">
<ele>280.402588</ele>
<time>2011-10-13T09:50:07Z</time>
<desc>lat.=44.517818, lon.=34.231033, Alt.=280.402588m. Speed=10.692000m/h.</desc>
<speed>2.970000</speed>
</trkpt>
<trkpt lat="44.517860" lon="34.230827">
<ele>280.965088</ele>
<time>2011-10-13T09:50:12Z</time>
<desc>lat.=44.517860, lon.=34.230827, Alt.=280.965088m. Speed=11.340000m/h.</desc>
<speed>3.150000</speed>
</trkpt>
<trkpt lat="44.517910" lon="34.230644">
<ele>280.019775</ele>
<time>2011-10-13T09:50:17Z</time>
<desc>lat.=44.517910, lon.=34.230644, Alt.=280.019775m. Speed=10.476000m/h.</desc>
<speed>2.910000</speed>
</trkpt>
<trkpt lat="44.517937" lon="34.230492">
<ele>280.066650</ele>
<time>2011-10-13T09:50:22Z</time>
<desc>lat.=44.517937, lon.=34.230492, Alt.=280.066650m. Speed=9.432000m/h.</desc>
<speed>2.620000</speed>
</trkpt>
<trkpt lat="44.517979" lon="34.230259">
<ele>280.824463</ele>
<time>2011-10-13T09:50:27Z</time>
<desc>lat.=44.517979, lon.=34.230259, Alt.=280.824463m. Speed=14.184000m/h.</desc>
<speed>3.940000</speed>
</trkpt>
<trkpt lat="44.518017" lon="34.229977">
<ele>281.238525</ele>
<time>2011-10-13T09:50:32Z</time>
<desc>lat.=44.518017, lon.=34.229977, Alt.=281.238525m. Speed=16.344000m/h.</desc>
<speed>4.540000</speed>
</trkpt>
<trkpt lat="44.518044" lon="34.229706">
<ele>281.027588</ele>
<time>2011-10-13T09:50:37Z</time>
<desc>lat.=44.518044, lon.=34.229706, Alt.=281.027588m. Speed=14.400000m/h.</desc>
<speed>4.000000</speed>
</trkpt>
<trkpt lat="44.518070" lon="34.229404">
<ele>281.597900</ele>
<time>2011-10-13T09:50:42Z</time>
<desc>lat.=44.518070, lon.=34.229404, Alt.=281.597900m. Speed=19.044001m/h.</desc>
<speed>5.290000</speed>
</trkpt>
<trkpt lat="44.518120" lon="34.229061">
<ele>281.168213</ele>
<time>2011-10-13T09:50:47Z</time>
<desc>lat.=44.518120, lon.=34.229061, Alt.=281.168213m. Speed=21.384001m/h.</desc>
<speed>5.940000</speed>
</trkpt>
<trkpt lat="44.518154" lon="34.228691">
<ele>280.910400</ele>
<time>2011-10-13T09:50:52Z</time>
<desc>lat.=44.518154, lon.=34.228691, Alt.=280.910400m. Speed=21.384001m/h.</desc>
<speed>5.940000</speed>
</trkpt>
<trkpt lat="44.518192" lon="34.228371">
<ele>281.066650</ele>
<time>2011-10-13T09:50:57Z</time>
<desc>lat.=44.518192, lon.=34.228371, Alt.=281.066650m. Speed=18.719999m/h.</desc>
<speed>5.200000</speed>
</trkpt>
<trkpt lat="44.518227" lon="34.228020">
<ele>281.441650</ele>
<time>2011-10-13T09:51:02Z</time>
<desc>lat.=44.518227, lon.=34.228020, Alt.=281.441650m. Speed=19.403999m/h.</desc>
<speed>5.390000</speed>
</trkpt>
<trkpt lat="44.518284" lon="34.227718">
<ele>281.277588</ele>
<time>2011-10-13T09:51:07Z</time>
<desc>lat.=44.518284, lon.=34.227718, Alt.=281.277588m. Speed=18.072001m/h.</desc>
<speed>5.020000</speed>
</trkpt>
<trkpt lat="44.518314" lon="34.227444">
<ele>281.230713</ele>
<time>2011-10-13T09:51:12Z</time>
<desc>lat.=44.518314, lon.=34.227444, Alt.=281.230713m. Speed=12.636000m/h.</desc>
<speed>3.510000</speed>
</trkpt>
<trkpt lat="44.518341" lon="34.227188">
<ele>280.676025</ele>
<time>2011-10-13T09:51:17Z</time>
<desc>lat.=44.518341, lon.=34.227188, Alt.=280.676025m. Speed=13.716000m/h.</desc>
<speed>3.810000</speed>
</trkpt>
<trkpt lat="44.518337" lon="34.226944">
<ele>281.074463</ele>
<time>2011-10-13T09:51:22Z</time>
<desc>lat.=44.518337, lon.=34.226944, Alt.=281.074463m. Speed=15.660000m/h.</desc>
<speed>4.350000</speed>
</trkpt>
<trkpt lat="44.518341" lon="34.226646">
<ele>281.199463</ele>
<time>2011-10-13T09:51:27Z</time>
<desc>lat.=44.518341, lon.=34.226646, Alt.=281.199463m. Speed=16.775999m/h.</desc>
<speed>4.660000</speed>
</trkpt>
<trkpt lat="44.518341" lon="34.226360">
<ele>282.871338</ele>
<time>2011-10-13T09:51:32Z</time>
<desc>lat.=44.518341, lon.=34.226360, Alt.=282.871338m. Speed=13.680000m/h.</desc>
<speed>3.800000</speed>
</trkpt>
<trkpt lat="44.518322" lon="34.226093">
<ele>285.496338</ele>
<time>2011-10-13T09:51:37Z</time>
<desc>lat.=44.518322, lon.=34.226093, Alt.=285.496338m. Speed=15.048000m/h.</desc>
<speed>4.180000</speed>
</trkpt>
<trkpt lat="44.518291" lon="34.225872">
<ele>288.152588</ele>
<time>2011-10-13T09:51:42Z</time>
<desc>lat.=44.518291, lon.=34.225872, Alt.=288.152588m. Speed=12.060000m/h.</desc>
<speed>3.350000</speed>
</trkpt>
<trkpt lat="44.518257" lon="34.225666">
<ele>287.801025</ele>
<time>2011-10-13T09:51:47Z</time>
<desc>lat.=44.518257, lon.=34.225666, Alt.=287.801025m. Speed=13.896000m/h.</desc>
<speed>3.860000</speed>
</trkpt>
<trkpt lat="44.518230" lon="34.225479">
<ele>290.488525</ele>
<time>2011-10-13T09:51:52Z</time>
<desc>lat.=44.518230, lon.=34.225479, Alt.=290.488525m. Speed=8.424000m/h.</desc>
<speed>2.340000</speed>
</trkpt>
<trkpt lat="44.518192" lon="34.225319">
<ele>292.402588</ele>
<time>2011-10-13T09:51:57Z</time>
<desc>lat.=44.518192, lon.=34.225319, Alt.=292.402588m. Speed=8.352000m/h.</desc>
<speed>2.320000</speed>
</trkpt>
<trkpt lat="44.518173" lon="34.225216">
<ele>294.207275</ele>
<time>2011-10-13T09:52:02Z</time>
<desc>lat.=44.518173, lon.=34.225216, Alt.=294.207275m. Speed=4.500000m/h.</desc>
<speed>1.250000</speed>
</trkpt>
<trkpt lat="44.518112" lon="34.225101">
<ele>294.035400</ele>
<time>2011-10-13T09:52:07Z</time>
<desc>lat.=44.518112, lon.=34.225101, Alt.=294.035400m. Speed=0.360000m/h.</desc>
<speed>0.100000</speed>
</trkpt>
<trkpt lat="44.518112" lon="34.225098">
<ele>293.816650</ele>
<time>2011-10-13T09:52:12Z</time>
<desc>lat.=44.518112, lon.=34.225098, Alt.=293.816650m. Speed=0.108000m/h.</desc>
<speed>0.030000</speed>
</trkpt>
<trkpt lat="44.518108" lon="34.225094">
<ele>294.261963</ele>
<time>2011-10-13T09:52:17Z</time>
<desc>lat.=44.518108, lon.=34.225094, Alt.=294.261963m. Speed=0.072000m/h.</desc>
<speed>0.020000</speed>
</trkpt>
<trkpt lat="44.518101" lon="34.225094">
<ele>294.324463</ele>
<time>2011-10-13T09:52:22Z</time>
<desc>lat.=44.518101, lon.=34.225094, Alt.=294.324463m. Speed=0.072000m/h.</desc>
<speed>0.020000</speed>
</trkpt>
<trkpt lat="44.518097" lon="34.225094">
<ele>294.433838</ele>
<time>2011-10-13T09:52:27Z</time>
<desc>lat.=44.518097, lon.=34.225094, Alt.=294.433838m. Speed=0.036000m/h.</desc>
<speed>0.010000</speed>
</trkpt>
<trkpt lat="44.518097" lon="34.225094">
<ele>294.511963</ele>
<time>2011-10-13T09:52:32Z</time>
<desc>lat.=44.518097, lon.=34.225094, Alt.=294.511963m. Speed=0.000000m/h.</desc>
<speed>0.000000</speed>
</trkpt>
<trkpt lat="44.518097" lon="34.225094">
<ele>294.582275</ele>
<time>2011-10-13T09:52:37Z</time>
<desc>lat.=44.518097, lon.=34.225094, Alt.=294.582275m. Speed=0.000000m/h.</desc>
<speed>0.000000</speed>
</trkpt>
<trkpt lat="44.518097" lon="34.225094">
<ele>294.613525</ele>
<time>2011-10-13T09:52:42Z</time>
<desc>lat.=44.518097, lon.=34.225094, Alt.=294.613525m. Speed=0.036000m/h.</desc>
<speed>0.010000</speed>
</trkpt>
<trkpt lat="44.518097" lon="34.225094">
<ele>294.605713</ele>
<time>2011-10-13T09:52:47Z</time>
<desc>lat.=44.518097, lon.=34.225094, Alt.=294.605713m. Speed=0.000000m/h.</desc>
<speed>0.000000</speed>
</trkpt>
<trkpt lat="44.518097" lon="34.225094">
<ele>294.613525</ele>
<time>2011-10-13T09:52:52Z</time>
<desc>lat.=44.518097, lon.=34.225094, Alt.=294.613525m. Speed=0.108000m/h.</desc>
<speed>0.030000</speed>
</trkpt>
<trkpt lat="44.518097" lon="34.225094">
<ele>294.597900</ele>
<time>2011-10-13T09:52:57Z</time>
<desc>lat.=44.518097, lon.=34.225094, Alt.=294.597900m. Speed=0.000000m/h.</desc>
<speed>0.000000</speed>
</trkpt>
<trkpt lat="44.518089" lon="34.225086">
<ele>293.426025</ele>
<time>2011-10-13T09:53:02Z</time>
<desc>lat.=44.518089, lon.=34.225086, Alt.=293.426025m. Speed=0.180000m/h.</desc>
<speed>0.050000</speed>
</trkpt>
<trkpt lat="44.518093" lon="34.225090">
<ele>293.066650</ele>
<time>2011-10-13T09:53:07Z</time>
<desc>lat.=44.518093, lon.=34.225090, Alt.=293.066650m. Speed=0.072000m/h.</desc>
<speed>0.020000</speed>
</trkpt>
<trkpt lat="44.518097" lon="34.225082">
<ele>292.980713</ele>
<time>2011-10-13T09:53:12Z</time>
<desc>lat.=44.518097, lon.=34.225082, Alt.=292.980713m. Speed=0.000000m/h.</desc>
<speed>0.000000</speed>
</trkpt>
<trkpt lat="44.518105" lon="34.225075">
<ele>291.636963</ele>
<time>2011-10-13T09:53:17Z</time>
<desc>lat.=44.518105, lon.=34.225075, Alt.=291.636963m. Speed=0.036000m/h.</desc>
<speed>0.010000</speed>
</trkpt>
<trkpt lat="44.518105" lon="34.225071">
<ele>291.254150</ele>
<time>2011-10-13T09:53:22Z</time>
<desc>lat.=44.518105, lon.=34.225071, Alt.=291.254150m. Speed=0.036000m/h.</desc>
<speed>0.010000</speed>
</trkpt>
<trkpt lat="44.518108" lon="34.225067">
<ele>291.761963</ele>
<time>2011-10-13T09:53:27Z</time>
<desc>lat.=44.518108, lon.=34.225067, Alt.=291.761963m. Speed=0.036000m/h.</desc>
<speed>0.010000</speed>
</trkpt>
<trkpt lat="44.518108" lon="34.225063">
<ele>292.152588</ele>
<time>2011-10-13T09:53:32Z</time>
<desc>lat.=44.518108, lon.=34.225063, Alt.=292.152588m. Speed=0.000000m/h.</desc>
<speed>0.000000</speed>
</trkpt>
<trkpt lat="44.518108" lon="34.225060">
<ele>291.863525</ele>
<time>2011-10-13T09:53:37Z</time>
<desc>lat.=44.518108, lon.=34.225060, Alt.=291.863525m. Speed=0.612000m/h.</desc>
<speed>0.170000</speed>
</trkpt>
<trkpt lat="44.518093" lon="34.224972">
<ele>292.324463</ele>
<time>2011-10-13T09:53:42Z</time>
<desc>lat.=44.518093, lon.=34.224972, Alt.=292.324463m. Speed=9.684000m/h.</desc>
<speed>2.690000</speed>
</trkpt>
<trkpt lat="44.518032" lon="34.224762">
<ele>292.246338</ele>
<time>2011-10-13T09:53:47Z</time>
<desc>lat.=44.518032, lon.=34.224762, Alt.=292.246338m. Speed=13.572000m/h.</desc>
<speed>3.770000</speed>
</trkpt>
<trkpt lat="44.517975" lon="34.224541">
<ele>292.386963</ele>
<time>2011-10-13T09:53:52Z</time>
<desc>lat.=44.517975, lon.=34.224541, Alt.=292.386963m. Speed=12.168000m/h.</desc>
<speed>3.380000</speed>
</trkpt>
<trkpt lat="44.517937" lon="34.224350">
<ele>291.949463</ele>
<time>2011-10-13T09:53:57Z</time>
<desc>lat.=44.517937, lon.=34.224350, Alt.=291.949463m. Speed=12.096000m/h.</desc>
<speed>3.360000</speed>
</trkpt>
<trkpt lat="44.517906" lon="34.224152">
<ele>290.816650</ele>
<time>2011-10-13T09:54:02Z</time>
<desc>lat.=44.517906, lon.=34.224152, Alt.=290.816650m. Speed=10.764000m/h.</desc>
<speed>2.990000</speed>
</trkpt>
<trkpt lat="44.517841" lon="34.223919">
<ele>289.254150</ele>
<time>2011-10-13T09:54:07Z</time>
<desc>lat.=44.517841, lon.=34.223919, Alt.=289.254150m. Speed=14.616000m/h.</desc>
<speed>4.060000</speed>
</trkpt>
<trkpt lat="44.517773" lon="34.223656">
<ele>287.293213</ele>
<time>2011-10-13T09:54:12Z</time>
<desc>lat.=44.517773, lon.=34.223656, Alt.=287.293213m. Speed=19.115999m/h.</desc>
<speed>5.310000</speed>
</trkpt>
<trkpt lat="44.517666" lon="34.223309">
<ele>286.754150</ele>
<time>2011-10-13T09:54:17Z</time>
<desc>lat.=44.517666, lon.=34.223309, Alt.=286.754150m. Speed=21.780001m/h.</desc>
<speed>6.050000</speed>
</trkpt>
<trkpt lat="44.517487" lon="34.222927">
<ele>284.918213</ele>
<time>2011-10-13T09:54:22Z</time>
<desc>lat.=44.517487, lon.=34.222927, Alt.=284.918213m. Speed=27.323999m/h.</desc>
<speed>7.590000</speed>
</trkpt>
<trkpt lat="44.517216" lon="34.222572">
<ele>283.738525</ele>
<time>2011-10-13T09:54:27Z</time>
<desc>lat.=44.517216, lon.=34.222572, Alt.=283.738525m. Speed=32.796001m/h.</desc>
<speed>9.110000</speed>
</trkpt>
<trkpt lat="44.516876" lon="34.222153">
<ele>280.801025</ele>
<time>2011-10-13T09:54:32Z</time>
<desc>lat.=44.516876, lon.=34.222153, Alt.=280.801025m. Speed=37.296001m/h.</desc>
<speed>10.360000</speed>
</trkpt>
<trkpt lat="44.516499" lon="34.221714">
<ele>277.035400</ele>
<time>2011-10-13T09:54:37Z</time>
<desc>lat.=44.516499, lon.=34.221714, Alt.=277.035400m. Speed=38.520000m/h.</desc>
<speed>10.700000</speed>
</trkpt>
<trkpt lat="44.516132" lon="34.221279">
<ele>275.433838</ele>
<time>2011-10-13T09:54:42Z</time>
<desc>lat.=44.516132, lon.=34.221279, Alt.=275.433838m. Speed=37.655998m/h.</desc>
<speed>10.460000</speed>
</trkpt>
<trkpt lat="44.515789" lon="34.220814">
<ele>273.285400</ele>
<time>2011-10-13T09:54:47Z</time>
<desc>lat.=44.515789, lon.=34.220814, Alt.=273.285400m. Speed=37.980000m/h.</desc>
<speed>10.550000</speed>
</trkpt>
<trkpt lat="44.515556" lon="34.220184">
<ele>271.941650</ele>
<time>2011-10-13T09:54:52Z</time>
<desc>lat.=44.515556, lon.=34.220184, Alt.=271.941650m. Speed=42.588001m/h.</desc>
<speed>11.830000</speed>
</trkpt>
<trkpt lat="44.515404" lon="34.219475">
<ele>270.504150</ele>
<time>2011-10-13T09:54:57Z</time>
<desc>lat.=44.515404, lon.=34.219475, Alt.=270.504150m. Speed=39.959999m/h.</desc>
<speed>11.100000</speed>
</trkpt>
<trkpt lat="44.515358" lon="34.218822">
<ele>269.957275</ele>
<time>2011-10-13T09:55:02Z</time>
<desc>lat.=44.515358, lon.=34.218822, Alt.=269.957275m. Speed=37.944000m/h.</desc>
<speed>10.540000</speed>
</trkpt>
<trkpt lat="44.515327" lon="34.218163">
<ele>270.285400</ele>
<time>2011-10-13T09:55:07Z</time>
<desc>lat.=44.515327, lon.=34.218163, Alt.=270.285400m. Speed=35.639999m/h.</desc>
<speed>9.900000</speed>
</trkpt>
<trkpt lat="44.515301" lon="34.217545">
<ele>272.090088</ele>
<time>2011-10-13T09:55:12Z</time>
<desc>lat.=44.515301, lon.=34.217545, Alt.=272.090088m. Speed=29.052000m/h.</desc>
<speed>8.070000</speed>
</trkpt>
<trkpt lat="44.515278" lon="34.217030">
<ele>270.386963</ele>
<time>2011-10-13T09:55:17Z</time>
<desc>lat.=44.515278, lon.=34.217030, Alt.=270.386963m. Speed=26.568001m/h.</desc>
<speed>7.380000</speed>
</trkpt>
<trkpt lat="44.515274" lon="34.216572">
<ele>270.160400</ele>
<time>2011-10-13T09:55:22Z</time>
<desc>lat.=44.515274, lon.=34.216572, Alt.=270.160400m. Speed=25.920000m/h.</desc>
<speed>7.200000</speed>
</trkpt>
<trkpt lat="44.515266" lon="34.216106">
<ele>270.465088</ele>
<time>2011-10-13T09:55:27Z</time>
<desc>lat.=44.515266, lon.=34.216106, Alt.=270.465088m. Speed=26.568001m/h.</desc>
<speed>7.380000</speed>
</trkpt>
<trkpt lat="44.515270" lon="34.215630">
<ele>267.074463</ele>
<time>2011-10-13T09:55:32Z</time>
<desc>lat.=44.515270, lon.=34.215630, Alt.=267.074463m. Speed=28.728001m/h.</desc>
<speed>7.980000</speed>
</trkpt>
<trkpt lat="44.515259" lon="34.215096">
<ele>265.027588</ele>
<time>2011-10-13T09:55:37Z</time>
<desc>lat.=44.515259, lon.=34.215096, Alt.=265.027588m. Speed=30.167999m/h.</desc>
<speed>8.380000</speed>
</trkpt>
<trkpt lat="44.515232" lon="34.214546">
<ele>262.691650</ele>
<time>2011-10-13T09:55:42Z</time>
<desc>lat.=44.515232, lon.=34.214546, Alt.=262.691650m. Speed=33.588001m/h.</desc>
<speed>9.330000</speed>
</trkpt>
<trkpt lat="44.515198" lon="34.213955">
<ele>259.332275</ele>
<time>2011-10-13T09:55:47Z</time>
<desc>lat.=44.515198, lon.=34.213955, Alt.=259.332275m. Speed=34.200001m/h.</desc>
<speed>9.500000</speed>
</trkpt>
<trkpt lat="44.515133" lon="34.213360">
<ele>255.845825</ele>
<time>2011-10-13T09:55:52Z</time>
<desc>lat.=44.515133, lon.=34.213360, Alt.=255.845825m. Speed=33.731998m/h.</desc>
<speed>9.370000</speed>
</trkpt>
<trkpt lat="44.515068" lon="34.212780">
<ele>253.806763</ele>
<time>2011-10-13T09:55:57Z</time>
<desc>lat.=44.515068, lon.=34.212780, Alt.=253.806763m. Speed=31.968000m/h.</desc>
<speed>8.880000</speed>
</trkpt>
<trkpt lat="44.515026" lon="34.212246">
<ele>252.189575</ele>
<time>2011-10-13T09:56:02Z</time>
<desc>lat.=44.515026, lon.=34.212246, Alt.=252.189575m. Speed=27.719999m/h.</desc>
<speed>7.700000</speed>
</trkpt>
<trkpt lat="44.514977" lon="34.211761">
<ele>250.517700</ele>
<time>2011-10-13T09:56:07Z</time>
<desc>lat.=44.514977, lon.=34.211761, Alt.=250.517700m. Speed=27.360001m/h.</desc>
<speed>7.600000</speed>
</trkpt>
<trkpt lat="44.514915" lon="34.211308">
<ele>247.709106</ele>
<time>2011-10-13T09:56:12Z</time>
<desc>lat.=44.514915, lon.=34.211308, Alt.=247.709106m. Speed=24.191999m/h.</desc>
<speed>6.720000</speed>
</trkpt>
<trkpt lat="44.514854" lon="34.210884">
<ele>245.439575</ele>
<time>2011-10-13T09:56:17Z</time>
<desc>lat.=44.514854, lon.=34.210884, Alt.=245.439575m. Speed=21.996000m/h.</desc>
<speed>6.110000</speed>
</trkpt>
<trkpt lat="44.514801" lon="34.210426">
<ele>244.302856</ele>
<time>2011-10-13T09:56:22Z</time>
<desc>lat.=44.514801, lon.=34.210426, Alt.=244.302856m. Speed=27.648001m/h.</desc>
<speed>7.680000</speed>
</trkpt>
<trkpt lat="44.514698" lon="34.209938">
<ele>244.611450</ele>
<time>2011-10-13T09:56:27Z</time>
<desc>lat.=44.514698, lon.=34.209938, Alt.=244.611450m. Speed=28.980000m/h.</desc>
<speed>8.050000</speed>
</trkpt>
<trkpt lat="44.514572" lon="34.209454">
<ele>243.228638</ele>
<time>2011-10-13T09:56:32Z</time>
<desc>lat.=44.514572, lon.=34.209454, Alt.=243.228638m. Speed=28.368000m/h.</desc>
<speed>7.880000</speed>
</trkpt>
<trkpt lat="44.514458" lon="34.208935">
<ele>241.806763</ele>
<time>2011-10-13T09:56:37Z</time>
<desc>lat.=44.514458, lon.=34.208935, Alt.=241.806763m. Speed=32.580002m/h.</desc>
<speed>9.050001</speed>
</trkpt>
<trkpt lat="44.514320" lon="34.208397">
<ele>240.259888</ele>
<time>2011-10-13T09:56:42Z</time>
<desc>lat.=44.514320, lon.=34.208397, Alt.=240.259888m. Speed=33.335999m/h.</desc>
<speed>9.260000</speed>
</trkpt>
<trkpt lat="44.514122" lon="34.207832">
<ele>238.537231</ele>
<time>2011-10-13T09:56:47Z</time>
<desc>lat.=44.514122, lon.=34.207832, Alt.=238.537231m. Speed=37.043999m/h.</desc>
<speed>10.290000</speed>
</trkpt>
<trkpt lat="44.513931" lon="34.207222">
<ele>236.927856</ele>
<time>2011-10-13T09:56:52Z</time>
<desc>lat.=44.513931, lon.=34.207222, Alt.=236.927856m. Speed=39.563999m/h.</desc>
<speed>10.990000</speed>
</trkpt>
<trkpt lat="44.513702" lon="34.206535">
<ele>237.029419</ele>
<time>2011-10-13T09:56:57Z</time>
<desc>lat.=44.513702, lon.=34.206535, Alt.=237.029419m. Speed=43.667999m/h.</desc>
<speed>12.130000</speed>
</trkpt>
<trkpt lat="44.513435" lon="34.205830">
<ele>236.865356</ele>
<time>2011-10-13T09:57:02Z</time>
<desc>lat.=44.513435, lon.=34.205830, Alt.=236.865356m. Speed=47.268002m/h.</desc>
<speed>13.130000</speed>
</trkpt>
<trkpt lat="44.513092" lon="34.205105">
<ele>234.470825</ele>
<time>2011-10-13T09:57:07Z</time>
<desc>lat.=44.513092, lon.=34.205105, Alt.=234.470825m. Speed=48.419998m/h.</desc>
<speed>13.449999</speed>
</trkpt>
<trkpt lat="44.512764" lon="34.204445">
<ele>231.525513</ele>
<time>2011-10-13T09:57:12Z</time>
<desc>lat.=44.512764, lon.=34.204445, Alt.=231.525513m. Speed=42.372002m/h.</desc>
<speed>11.770000</speed>
</trkpt>
<trkpt lat="44.512486" lon="34.203899">
<ele>230.771606</ele>
<time>2011-10-13T09:57:17Z</time>
<desc>lat.=44.512486, lon.=34.203899, Alt.=230.771606m. Speed=34.848000m/h.</desc>
<speed>9.680000</speed>
</trkpt>
<trkpt lat="44.512325" lon="34.203381">
<ele>231.505981</ele>
<time>2011-10-13T09:57:22Z</time>
<desc>lat.=44.512325, lon.=34.203381, Alt.=231.505981m. Speed=30.132000m/h.</desc>
<speed>8.370000</speed>
</trkpt>
<trkpt lat="44.512325" lon="34.202862">
<ele>230.830200</ele>
<time>2011-10-13T09:57:27Z</time>
<desc>lat.=44.512325, lon.=34.202862, Alt.=230.830200m. Speed=28.224001m/h.</desc>
<speed>7.840000</speed>
</trkpt>
<trkpt lat="44.512428" lon="34.202396">
<ele>230.548950</ele>
<time>2011-10-13T09:57:32Z</time>
<desc>lat.=44.512428, lon.=34.202396, Alt.=230.548950m. Speed=27.216000m/h.</desc>
<speed>7.560000</speed>
</trkpt>
<trkpt lat="44.512581" lon="34.201984">
<ele>229.115356</ele>
<time>2011-10-13T09:57:37Z</time>
<desc>lat.=44.512581, lon.=34.201984, Alt.=229.115356m. Speed=25.848000m/h.</desc>
<speed>7.180000</speed>
</trkpt>
<trkpt lat="44.512718" lon="34.201553">
<ele>229.072388</ele>
<time>2011-10-13T09:57:42Z</time>
<desc>lat.=44.512718, lon.=34.201553, Alt.=229.072388m. Speed=29.736000m/h.</desc>
<speed>8.260000</speed>
</trkpt>
<trkpt lat="44.512852" lon="34.201057">
<ele>229.236450</ele>
<time>2011-10-13T09:57:47Z</time>
<desc>lat.=44.512852, lon.=34.201057, Alt.=229.236450m. Speed=31.968000m/h.</desc>
<speed>8.880000</speed>
</trkpt>
<trkpt lat="44.512909" lon="34.200539">
<ele>228.537231</ele>
<time>2011-10-13T09:57:52Z</time>
<desc>lat.=44.512909, lon.=34.200539, Alt.=228.537231m. Speed=29.844000m/h.</desc>
<speed>8.290000</speed>
</trkpt>
<trkpt lat="44.512905" lon="34.200039">
<ele>227.201294</ele>
<time>2011-10-13T09:57:57Z</time>
<desc>lat.=44.512905, lon.=34.200039, Alt.=227.201294m. Speed=27.612000m/h.</desc>
<speed>7.670000</speed>
</trkpt>
<trkpt lat="44.512924" lon="34.199532">
<ele>226.189575</ele>
<time>2011-10-13T09:58:02Z</time>
<desc>lat.=44.512924, lon.=34.199532, Alt.=226.189575m. Speed=25.740000m/h.</desc>
<speed>7.150000</speed>
</trkpt>
<trkpt lat="44.512943" lon="34.199085">
<ele>225.623169</ele>
<time>2011-10-13T09:58:07Z</time>
<desc>lat.=44.512943, lon.=34.199085, Alt.=225.623169m. Speed=24.660000m/h.</desc>
<speed>6.850000</speed>
</trkpt>
<trkpt lat="44.512951" lon="34.198647">
<ele>224.330200</ele>
<time>2011-10-13T09:58:12Z</time>
<desc>lat.=44.512951, lon.=34.198647, Alt.=224.330200m. Speed=28.691999m/h.</desc>
<speed>7.970000</speed>
</trkpt>
<trkpt lat="44.512947" lon="34.198170">
<ele>221.658325</ele>
<time>2011-10-13T09:58:17Z</time>
<desc>lat.=44.512947, lon.=34.198170, Alt.=221.658325m. Speed=28.044001m/h.</desc>
<speed>7.790000</speed>
</trkpt>
<trkpt lat="44.512924" lon="34.197666">
<ele>220.013794</ele>
<time>2011-10-13T09:58:22Z</time>
<desc>lat.=44.512924, lon.=34.197666, Alt.=220.013794m. Speed=30.636000m/h.</desc>
<speed>8.510000</speed>
</trkpt>
<trkpt lat="44.512875" lon="34.197105">
<ele>219.736450</ele>
<time>2011-10-13T09:58:27Z</time>
<desc>lat.=44.512875, lon.=34.197105, Alt.=219.736450m. Speed=32.796001m/h.</desc>
<speed>9.110000</speed>
</trkpt>
<trkpt lat="44.512726" lon="34.196522">
<ele>218.224731</ele>
<time>2011-10-13T09:58:32Z</time>
<desc>lat.=44.512726, lon.=34.196522, Alt.=218.224731m. Speed=36.612000m/h.</desc>
<speed>10.170000</speed>
</trkpt>
<trkpt lat="44.512524" lon="34.195930">
<ele>215.509888</ele>
<time>2011-10-13T09:58:37Z</time>
<desc>lat.=44.512524, lon.=34.195930, Alt.=215.509888m. Speed=36.827999m/h.</desc>
<speed>10.230000</speed>
</trkpt>
<trkpt lat="44.512302" lon="34.195396">
<ele>213.963013</ele>
<time>2011-10-13T09:58:42Z</time>
<desc>lat.=44.512302, lon.=34.195396, Alt.=213.963013m. Speed=32.976002m/h.</desc>
<speed>9.160000</speed>
</trkpt>
<trkpt lat="44.512150" lon="34.194893">
<ele>213.525513</ele>
<time>2011-10-13T09:58:47Z</time>
<desc>lat.=44.512150, lon.=34.194893, Alt.=213.525513m. Speed=28.836000m/h.</desc>
<speed>8.010000</speed>
</trkpt>
<trkpt lat="44.512005" lon="34.194420">
<ele>210.603638</ele>
<time>2011-10-13T09:58:52Z</time>
<desc>lat.=44.512005, lon.=34.194420, Alt.=210.603638m. Speed=30.563999m/h.</desc>
<speed>8.490000</speed>
</trkpt>
<trkpt lat="44.511826" lon="34.193909">
<ele>209.416138</ele>
<time>2011-10-13T09:58:57Z</time>
<desc>lat.=44.511826, lon.=34.193909, Alt.=209.416138m. Speed=34.992001m/h.</desc>
<speed>9.720000</speed>
</trkpt>
<trkpt lat="44.511574" lon="34.193378">
<ele>207.228638</ele>
<time>2011-10-13T09:59:02Z</time>
<desc>lat.=44.511574, lon.=34.193378, Alt.=207.228638m. Speed=36.936001m/h.</desc>
<speed>10.260000</speed>
</trkpt>
<trkpt lat="44.511242" lon="34.192924">
<ele>203.943481</ele>
<time>2011-10-13T09:59:07Z</time>
<desc>lat.=44.511242, lon.=34.192924, Alt.=203.943481m. Speed=35.388000m/h.</desc>
<speed>9.830000</speed>
</trkpt>
<trkpt lat="44.510906" lon="34.192493">
<ele>201.923950</ele>
<time>2011-10-13T09:59:12Z</time>
<desc>lat.=44.510906, lon.=34.192493, Alt.=201.923950m. Speed=35.388000m/h.</desc>
<speed>9.830000</speed>
</trkpt>
<trkpt lat="44.510582" lon="34.192062">
<ele>198.197388</ele>
<time>2011-10-13T09:59:17Z</time>
<desc>lat.=44.510582, lon.=34.192062, Alt.=198.197388m. Speed=35.784000m/h.</desc>
<speed>9.940000</speed>
</trkpt>
<trkpt lat="44.510273" lon="34.191624">
<ele>196.943481</ele>
<time>2011-10-13T09:59:22Z</time>
<desc>lat.=44.510273, lon.=34.191624, Alt.=196.943481m. Speed=35.639999m/h.</desc>
<speed>9.900000</speed>
</trkpt>
<trkpt lat="44.509991" lon="34.191120">
<ele>193.767700</ele>
<time>2011-10-13T09:59:27Z</time>
<desc>lat.=44.509991, lon.=34.191120, Alt.=193.767700m. Speed=35.712002m/h.</desc>
<speed>9.920001</speed>
</trkpt>
<trkpt lat="44.509727" lon="34.190620">
<ele>191.720825</ele>
<time>2011-10-13T09:59:32Z</time>
<desc>lat.=44.509727, lon.=34.190620, Alt.=191.720825m. Speed=34.091999m/h.</desc>
<speed>9.470000</speed>
</trkpt>
<trkpt lat="44.509499" lon="34.190117">
<ele>191.068481</ele>
<time>2011-10-13T09:59:37Z</time>
<desc>lat.=44.509499, lon.=34.190117, Alt.=191.068481m. Speed=32.147999m/h.</desc>
<speed>8.930000</speed>
</trkpt>
<trkpt lat="44.509396" lon="34.189617">
<ele>190.142700</ele>
<time>2011-10-13T09:59:42Z</time>
<desc>lat.=44.509396, lon.=34.189617, Alt.=190.142700m. Speed=27.108000m/h.</desc>
<speed>7.530000</speed>
</trkpt>
<trkpt lat="44.509315" lon="34.189129">
<ele>189.709106</ele>
<time>2011-10-13T09:59:47Z</time>
<desc>lat.=44.509315, lon.=34.189129, Alt.=189.709106m. Speed=30.528000m/h.</desc>
<speed>8.480000</speed>
</trkpt>
<trkpt lat="44.509163" lon="34.188667">
<ele>190.541138</ele>
<time>2011-10-13T09:59:52Z</time>
<desc>lat.=44.509163, lon.=34.188667, Alt.=190.541138m. Speed=29.375999m/h.</desc>
<speed>8.160000</speed>
</trkpt>
<trkpt lat="44.508907" lon="34.188316">
<ele>188.736450</ele>
<time>2011-10-13T09:59:57Z</time>
<desc>lat.=44.508907, lon.=34.188316, Alt.=188.736450m. Speed=27.431999m/h.</desc>
<speed>7.620000</speed>
</trkpt>
<trkpt lat="44.508659" lon="34.187984">
<ele>187.818481</ele>
<time>2011-10-13T10:00:02Z</time>
<desc>lat.=44.508659, lon.=34.187984, Alt.=187.818481m. Speed=26.388000m/h.</desc>
<speed>7.330000</speed>
</trkpt>
<trkpt lat="44.508484" lon="34.187630">
<ele>185.564575</ele>
<time>2011-10-13T10:00:07Z</time>
<desc>lat.=44.508484, lon.=34.187630, Alt.=185.564575m. Speed=23.507999m/h.</desc>
<speed>6.530000</speed>
</trkpt>
<trkpt lat="44.508533" lon="34.187191">
<ele>184.755981</ele>
<time>2011-10-13T10:00:12Z</time>
<desc>lat.=44.508533, lon.=34.187191, Alt.=184.755981m. Speed=22.643999m/h.</desc>
<speed>6.290000</speed>
</trkpt>
<trkpt lat="44.508812" lon="34.186913">
<ele>186.045044</ele>
<time>2011-10-13T10:00:17Z</time>
<desc>lat.=44.508812, lon.=34.186913, Alt.=186.045044m. Speed=28.007999m/h.</desc>
<speed>7.780000</speed>
</trkpt>
<trkpt lat="44.509079" lon="34.186630">
<ele>185.002075</ele>
<time>2011-10-13T10:00:22Z</time>
<desc>lat.=44.509079, lon.=34.186630, Alt.=185.002075m. Speed=26.747999m/h.</desc>
<speed>7.430000</speed>
</trkpt>
<trkpt lat="44.509319" lon="34.186287">
<ele>183.439575</ele>
<time>2011-10-13T10:00:27Z</time>
<desc>lat.=44.509319, lon.=34.186287, Alt.=183.439575m. Speed=27.072001m/h.</desc>
<speed>7.520000</speed>
</trkpt>
<trkpt lat="44.509480" lon="34.185822">
<ele>182.275513</ele>
<time>2011-10-13T10:00:32Z</time>
<desc>lat.=44.509480, lon.=34.185822, Alt.=182.275513m. Speed=32.652000m/h.</desc>
<speed>9.070000</speed>
</trkpt>
<trkpt lat="44.509541" lon="34.185204">
<ele>180.029419</ele>
<time>2011-10-13T10:00:37Z</time>
<desc>lat.=44.509541, lon.=34.185204, Alt.=180.029419m. Speed=37.296001m/h.</desc>
<speed>10.360000</speed>
</trkpt>
<trkpt lat="44.509640" lon="34.184502">
<ele>178.295044</ele>
<time>2011-10-13T10:00:42Z</time>
<desc>lat.=44.509640, lon.=34.184502, Alt.=178.295044m. Speed=42.012001m/h.</desc>
<speed>11.670000</speed>
</trkpt>
<trkpt lat="44.509762" lon="34.183762">
<ele>175.259888</ele>
<time>2011-10-13T10:00:47Z</time>
<desc>lat.=44.509762, lon.=34.183762, Alt.=175.259888m. Speed=42.551998m/h.</desc>
<speed>11.819999</speed>
</trkpt>
<trkpt lat="44.509914" lon="34.183071">
<ele>173.088013</ele>
<time>2011-10-13T10:00:52Z</time>
<desc>lat.=44.509914, lon.=34.183071, Alt.=173.088013m. Speed=39.132000m/h.</desc>
<speed>10.870000</speed>
</trkpt>
<trkpt lat="44.510109" lon="34.182510">
<ele>170.595825</ele>
<time>2011-10-13T10:00:57Z</time>
<desc>lat.=44.510109, lon.=34.182510, Alt.=170.595825m. Speed=31.212000m/h.</desc>
<speed>8.670000</speed>
</trkpt>
<trkpt lat="44.510334" lon="34.182007">
<ele>167.822388</ele>
<time>2011-10-13T10:01:02Z</time>
<desc>lat.=44.510334, lon.=34.182007, Alt.=167.822388m. Speed=35.099998m/h.</desc>
<speed>9.750000</speed>
</trkpt>
<trkpt lat="44.510593" lon="34.181652">
<ele>163.744263</ele>
<time>2011-10-13T10:01:07Z</time>
<desc>lat.=44.510593, lon.=34.181652, Alt.=163.744263m. Speed=16.992001m/h.</desc>
<speed>4.720000</speed>
</trkpt>
<trkpt lat="44.510639" lon="34.181606">
<ele>162.505981</ele>
<time>2011-10-13T10:01:12Z</time>
<desc>lat.=44.510639, lon.=34.181606, Alt.=162.505981m. Speed=0.216000m/h.</desc>
<speed>0.060000</speed>
</trkpt>
<trkpt lat="44.510651" lon="34.181591">
<ele>162.205200</ele>
<time>2011-10-13T10:01:17Z</time>
<desc>lat.=44.510651, lon.=34.181591, Alt.=162.205200m. Speed=1.872000m/h.</desc>
<speed>0.520000</speed>
</trkpt>
<trkpt lat="44.510654" lon="34.181583">
<ele>162.420044</ele>
<time>2011-10-13T10:01:22Z</time>
<desc>lat.=44.510654, lon.=34.181583, Alt.=162.420044m. Speed=0.144000m/h.</desc>
<speed>0.040000</speed>
</trkpt>
<trkpt lat="44.510651" lon="34.181583">
<ele>162.486450</ele>
<time>2011-10-13T10:01:27Z</time>
<desc>lat.=44.510651, lon.=34.181583, Alt.=162.486450m. Speed=0.468000m/h.</desc>
<speed>0.130000</speed>
</trkpt>
<trkpt lat="44.510651" lon="34.181580">
<ele>162.701294</ele>
<time>2011-10-13T10:01:32Z</time>
<desc>lat.=44.510651, lon.=34.181580, Alt.=162.701294m. Speed=0.720000m/h.</desc>
<speed>0.200000</speed>
</trkpt>
<trkpt lat="44.510647" lon="34.181576">
<ele>162.724731</ele>
<time>2011-10-13T10:01:37Z</time>
<desc>lat.=44.510647, lon.=34.181576, Alt.=162.724731m. Speed=0.360000m/h.</desc>
<speed>0.100000</speed>
</trkpt>
<trkpt lat="44.510647" lon="34.181576">
<ele>162.666138</ele>
<time>2011-10-13T10:01:42Z</time>
<desc>lat.=44.510647, lon.=34.181576, Alt.=162.666138m. Speed=0.504000m/h.</desc>
<speed>0.140000</speed>
</trkpt>
<trkpt lat="44.510647" lon="34.181576">
<ele>162.705200</ele>
<time>2011-10-13T10:01:47Z</time>
<desc>lat.=44.510647, lon.=34.181576, Alt.=162.705200m. Speed=0.072000m/h.</desc>
<speed>0.020000</speed>
</trkpt>
<trkpt lat="44.510647" lon="34.181572">
<ele>162.771606</ele>
<time>2011-10-13T10:01:52Z</time>
<desc>lat.=44.510647, lon.=34.181572, Alt.=162.771606m. Speed=0.072000m/h.</desc>
<speed>0.020000</speed>
</trkpt>
<trkpt lat="44.510647" lon="34.181572">
<ele>162.802856</ele>
<time>2011-10-13T10:01:57Z</time>
<desc>lat.=44.510647, lon.=34.181572, Alt.=162.802856m. Speed=0.072000m/h.</desc>
<speed>0.020000</speed>
</trkpt>
<trkpt lat="44.510647" lon="34.181572">
<ele>162.795044</ele>
<time>2011-10-13T10:02:02Z</time>
<desc>lat.=44.510647, lon.=34.181572, Alt.=162.795044m. Speed=0.000000m/h.</desc>
<speed>0.000000</speed>
</trkpt>
<trkpt lat="44.510647" lon="34.181572">
<ele>162.775513</ele>
<time>2011-10-13T10:02:07Z</time>
<desc>lat.=44.510647, lon.=34.181572, Alt.=162.775513m. Speed=0.000000m/h.</desc>
<speed>0.000000</speed>
</trkpt>
<trkpt lat="44.510647" lon="34.181572">
<ele>162.783325</ele>
<time>2011-10-13T10:02:12Z</time>
<desc>lat.=44.510647, lon.=34.181572, Alt.=162.783325m. Speed=0.000000m/h.</desc>
<speed>0.000000</speed>
</trkpt>
<trkpt lat="44.510647" lon="34.181572">
<ele>162.810669</ele>
<time>2011-10-13T10:02:17Z</time>
<desc>lat.=44.510647, lon.=34.181572, Alt.=162.810669m. Speed=0.000000m/h.</desc>
<speed>0.000000</speed>
</trkpt>
<trkpt lat="44.510647" lon="34.181572">
<ele>162.810669</ele>
<time>2011-10-13T10:02:22Z</time>
<desc>lat.=44.510647, lon.=34.181572, Alt.=162.810669m. Speed=0.000000m/h.</desc>
<speed>0.000000</speed>
</trkpt>
<trkpt lat="44.510647" lon="34.181572">
<ele>162.845825</ele>
<time>2011-10-13T10:02:27Z</time>
<desc>lat.=44.510647, lon.=34.181572, Alt.=162.845825m. Speed=0.000000m/h.</desc>
<speed>0.000000</speed>
</trkpt>
<trkpt lat="44.510647" lon="34.181572">
<ele>162.830200</ele>
<time>2011-10-13T10:02:32Z</time>
<desc>lat.=44.510647, lon.=34.181572, Alt.=162.830200m. Speed=0.180000m/h.</desc>
<speed>0.050000</speed>
</trkpt>
<trkpt lat="44.510647" lon="34.181572">
<ele>162.857544</ele>
<time>2011-10-13T10:02:37Z</time>
<desc>lat.=44.510647, lon.=34.181572, Alt.=162.857544m. Speed=0.036000m/h.</desc>
<speed>0.010000</speed>
</trkpt>
<trkpt lat="44.510643" lon="34.181572">
<ele>162.861450</ele>
<time>2011-10-13T10:02:42Z</time>
<desc>lat.=44.510643, lon.=34.181572, Alt.=162.861450m. Speed=0.000000m/h.</desc>
<speed>0.000000</speed>
</trkpt>
<trkpt lat="44.510643" lon="34.181572">
<ele>162.884888</ele>
<time>2011-10-13T10:02:47Z</time>
<desc>lat.=44.510643, lon.=34.181572, Alt.=162.884888m. Speed=0.396000m/h.</desc>
<speed>0.110000</speed>
</trkpt>
<trkpt lat="44.510643" lon="34.181572">
<ele>162.884888</ele>
<time>2011-10-13T10:02:52Z</time>
<desc>lat.=44.510643, lon.=34.181572, Alt.=162.884888m. Speed=0.000000m/h.</desc>
<speed>0.000000</speed>
</trkpt>
<trkpt lat="44.510662" lon="34.181561">
<ele>162.810669</ele>
<time>2011-10-13T10:02:57Z</time>
<desc>lat.=44.510662, lon.=34.181561, Alt.=162.810669m. Speed=3.096000m/h.</desc>
<speed>0.860000</speed>
</trkpt>
<trkpt lat="44.510666" lon="34.181557">
<ele>162.490356</ele>
<time>2011-10-13T10:03:02Z</time>
<desc>lat.=44.510666, lon.=34.181557, Alt.=162.490356m. Speed=1.332000m/h.</desc>
<speed>0.370000</speed>
</trkpt>
<trkpt lat="44.510647" lon="34.181564">
<ele>162.580200</ele>
<time>2011-10-13T10:03:07Z</time>
<desc>lat.=44.510647, lon.=34.181564, Alt.=162.580200m. Speed=1.476000m/h.</desc>
<speed>0.410000</speed>
</trkpt>
<trkpt lat="44.510624" lon="34.181473">
<ele>162.939575</ele>
<time>2011-10-13T10:03:12Z</time>
<desc>lat.=44.510624, lon.=34.181473, Alt.=162.939575m. Speed=7.992000m/h.</desc>
<speed>2.220000</speed>
</trkpt>
<trkpt lat="44.510563" lon="34.181461">
<ele>163.834106</ele>
<time>2011-10-13T10:03:17Z</time>
<desc>lat.=44.510563, lon.=34.181461, Alt.=163.834106m. Speed=6.408000m/h.</desc>
<speed>1.780000</speed>
</trkpt>
<trkpt lat="44.510502" lon="34.181526">
<ele>163.787231</ele>
<time>2011-10-13T10:03:22Z</time>
<desc>lat.=44.510502, lon.=34.181526, Alt.=163.787231m. Speed=9.720000m/h.</desc>
<speed>2.700000</speed>
</trkpt>
<trkpt lat="44.510418" lon="34.181484">
<ele>164.365356</ele>
<time>2011-10-13T10:03:27Z</time>
<desc>lat.=44.510418, lon.=34.181484, Alt.=164.365356m. Speed=8.460000m/h.</desc>
<speed>2.350000</speed>
</trkpt>
<trkpt lat="44.510410" lon="34.181374">
<ele>163.033325</ele>
<time>2011-10-13T10:03:32Z</time>
<desc>lat.=44.510410, lon.=34.181374, Alt.=163.033325m. Speed=7.200000m/h.</desc>
<speed>2.000000</speed>
</trkpt>
<trkpt lat="44.510483" lon="34.181232">
<ele>163.271606</ele>
<time>2011-10-13T10:03:37Z</time>
<desc>lat.=44.510483, lon.=34.181232, Alt.=163.271606m. Speed=11.520000m/h.</desc>
<speed>3.200000</speed>
</trkpt>
<trkpt lat="44.510620" lon="34.181087">
<ele>163.869263</ele>
<time>2011-10-13T10:03:42Z</time>
<desc>lat.=44.510620, lon.=34.181087, Alt.=163.869263m. Speed=14.256000m/h.</desc>
<speed>3.960000</speed>
</trkpt>
<trkpt lat="44.510799" lon="34.181046">
<ele>164.576294</ele>
<time>2011-10-13T10:03:47Z</time>
<desc>lat.=44.510799, lon.=34.181046, Alt.=164.576294m. Speed=13.284000m/h.</desc>
<speed>3.690000</speed>
</trkpt>
<trkpt lat="44.510929" lon="34.181015">
<ele>164.056763</ele>
<time>2011-10-13T10:03:52Z</time>
<desc>lat.=44.510929, lon.=34.181015, Alt.=164.056763m. Speed=8.136000m/h.</desc>
<speed>2.260000</speed>
</trkpt>
<trkpt lat="44.511028" lon="34.181000">
<ele>164.220825</ele>
<time>2011-10-13T10:03:57Z</time>
<desc>lat.=44.511028, lon.=34.181000, Alt.=164.220825m. Speed=6.408000m/h.</desc>
<speed>1.780000</speed>
</trkpt>
<trkpt lat="44.511101" lon="34.180973">
<ele>164.189575</ele>
<time>2011-10-13T10:04:02Z</time>
<desc>lat.=44.511101, lon.=34.180973, Alt.=164.189575m. Speed=5.256000m/h.</desc>
<speed>1.460000</speed>
</trkpt>
<trkpt lat="44.511112" lon="34.180973">
<ele>164.334106</ele>
<time>2011-10-13T10:04:07Z</time>
<desc>lat.=44.511112, lon.=34.180973, Alt.=164.334106m. Speed=0.432000m/h.</desc>
<speed>0.120000</speed>
</trkpt>
<trkpt lat="44.511124" lon="34.180969">
<ele>164.759888</ele>
<time>2011-10-13T10:04:12Z</time>
<desc>lat.=44.511124, lon.=34.180969, Alt.=164.759888m. Speed=2.628000m/h.</desc>
<speed>0.730000</speed>
</trkpt>
<trkpt lat="44.511143" lon="34.180969">
<ele>165.236450</ele>
<time>2011-10-13T10:04:17Z</time>
<desc>lat.=44.511143, lon.=34.180969, Alt.=165.236450m. Speed=0.252000m/h.</desc>
<speed>0.070000</speed>
</trkpt>
<trkpt lat="44.511204" lon="34.180954">
<ele>165.173950</ele>
<time>2011-10-13T10:04:22Z</time>
<desc>lat.=44.511204, lon.=34.180954, Alt.=165.173950m. Speed=9.324000m/h.</desc>
<speed>2.590000</speed>
</trkpt>
<trkpt lat="44.511333" lon="34.180939">
<ele>163.513794</ele>
<time>2011-10-13T10:04:27Z</time>
<desc>lat.=44.511333, lon.=34.180939, Alt.=163.513794m. Speed=12.240000m/h.</desc>
<speed>3.400000</speed>
</trkpt>
<trkpt lat="44.511497" lon="34.180931">
<ele>161.982544</ele>
<time>2011-10-13T10:04:32Z</time>
<desc>lat.=44.511497, lon.=34.180931, Alt.=161.982544m. Speed=16.020000m/h.</desc>
<speed>4.450000</speed>
</trkpt>
<trkpt lat="44.511726" lon="34.180943">
<ele>160.408325</ele>
<time>2011-10-13T10:04:37Z</time>
<desc>lat.=44.511726, lon.=34.180943, Alt.=160.408325m. Speed=21.096001m/h.</desc>
<speed>5.860000</speed>
</trkpt>
<trkpt lat="44.511986" lon="34.180996">
<ele>158.377075</ele>
<time>2011-10-13T10:04:42Z</time>
<desc>lat.=44.511986, lon.=34.180996, Alt.=158.377075m. Speed=21.996000m/h.</desc>
<speed>6.110000</speed>
</trkpt>
<trkpt lat="44.512260" lon="34.180847">
<ele>156.017700</ele>
<time>2011-10-13T10:04:47Z</time>
<desc>lat.=44.512260, lon.=34.180847, Alt.=156.017700m. Speed=24.732000m/h.</desc>
<speed>6.870000</speed>
</trkpt>
<trkpt lat="44.512394" lon="34.180439">
<ele>153.595825</ele>
<time>2011-10-13T10:04:52Z</time>
<desc>lat.=44.512394, lon.=34.180439, Alt.=153.595825m. Speed=27.180000m/h.</desc>
<speed>7.550000</speed>
</trkpt>
<trkpt lat="44.512409" lon="34.180080">
<ele>151.380981</ele>
<time>2011-10-13T10:04:57Z</time>
<desc>lat.=44.512409, lon.=34.180080, Alt.=151.380981m. Speed=18.648001m/h.</desc>
<speed>5.180000</speed>
</trkpt>
<trkpt lat="44.512226" lon="34.179790">
<ele>148.771606</ele>
<time>2011-10-13T10:05:02Z</time>
<desc>lat.=44.512226, lon.=34.179790, Alt.=148.771606m. Speed=23.148001m/h.</desc>
<speed>6.430000</speed>
</trkpt>
<trkpt lat="44.512024" lon="34.179581">
<ele>147.384888</ele>
<time>2011-10-13T10:05:07Z</time>
<desc>lat.=44.512024, lon.=34.179581, Alt.=147.384888m. Speed=15.372000m/h.</desc>
<speed>4.270000</speed>
</trkpt>
<trkpt lat="44.511925" lon="34.179485">
<ele>146.232544</ele>
<time>2011-10-13T10:05:12Z</time>
<desc>lat.=44.511925, lon.=34.179485, Alt.=146.232544m. Speed=4.896000m/h.</desc>
<speed>1.360000</speed>
</trkpt>
<trkpt lat="44.511906" lon="34.179474">
<ele>146.080200</ele>
<time>2011-10-13T10:05:17Z</time>
<desc>lat.=44.511906, lon.=34.179474, Alt.=146.080200m. Speed=0.072000m/h.</desc>
<speed>0.020000</speed>
</trkpt>
<trkpt lat="44.511906" lon="34.179474">
<ele>146.060669</ele>
<time>2011-10-13T10:05:22Z</time>
<desc>lat.=44.511906, lon.=34.179474, Alt.=146.060669m. Speed=0.072000m/h.</desc>
<speed>0.020000</speed>
</trkpt>
<trkpt lat="44.511906" lon="34.179474">
<ele>146.142700</ele>
<time>2011-10-13T10:05:27Z</time>
<desc>lat.=44.511906, lon.=34.179474, Alt.=146.142700m. Speed=0.144000m/h.</desc>
<speed>0.040000</speed>
</trkpt>
<trkpt lat="44.511906" lon="34.179474">
<ele>146.134888</ele>
<time>2011-10-13T10:05:32Z</time>
<desc>lat.=44.511906, lon.=34.179474, Alt.=146.134888m. Speed=0.036000m/h.</desc>
<speed>0.010000</speed>
</trkpt>
<trkpt lat="44.511906" lon="34.179474">
<ele>146.150513</ele>
<time>2011-10-13T10:05:37Z</time>
<desc>lat.=44.511906, lon.=34.179474, Alt.=146.150513m. Speed=0.000000m/h.</desc>
<speed>0.000000</speed>
</trkpt>
<trkpt lat="44.511906" lon="34.179474">
<ele>146.111450</ele>
<time>2011-10-13T10:05:42Z</time>
<desc>lat.=44.511906, lon.=34.179474, Alt.=146.111450m. Speed=0.108000m/h.</desc>
<speed>0.030000</speed>
</trkpt>
<trkpt lat="44.511906" lon="34.179474">
<ele>146.127075</ele>
<time>2011-10-13T10:05:47Z</time>
<desc>lat.=44.511906, lon.=34.179474, Alt.=146.127075m. Speed=0.036000m/h.</desc>
<speed>0.010000</speed>
</trkpt>
<trkpt lat="44.511906" lon="34.179474">
<ele>146.123169</ele>
<time>2011-10-13T10:05:52Z</time>
<desc>lat.=44.511906, lon.=34.179474, Alt.=146.123169m. Speed=0.036000m/h.</desc>
<speed>0.010000</speed>
</trkpt>
<trkpt lat="44.511906" lon="34.179474">
<ele>146.119263</ele>
<time>2011-10-13T10:05:57Z</time>
<desc>lat.=44.511906, lon.=34.179474, Alt.=146.119263m. Speed=4.176000m/h.</desc>
<speed>1.160000</speed>
</trkpt>
<trkpt lat="44.511814" lon="34.179398">
<ele>145.505981</ele>
<time>2011-10-13T10:06:02Z</time>
<desc>lat.=44.511814, lon.=34.179398, Alt.=145.505981m. Speed=13.068000m/h.</desc>
<speed>3.630000</speed>
</trkpt>
<trkpt lat="44.511639" lon="34.179253">
<ele>142.904419</ele>
<time>2011-10-13T10:06:07Z</time>
<desc>lat.=44.511639, lon.=34.179253, Alt.=142.904419m. Speed=25.344000m/h.</desc>
<speed>7.040000</speed>
</trkpt>
<trkpt lat="44.511349" lon="34.179012">
<ele>140.552856</ele>
<time>2011-10-13T10:06:12Z</time>
<desc>lat.=44.511349, lon.=34.179012, Alt.=140.552856m. Speed=30.384001m/h.</desc>
<speed>8.440000</speed>
</trkpt>
<trkpt lat="44.511013" lon="34.178730">
<ele>137.455200</ele>
<time>2011-10-13T10:06:17Z</time>
<desc>lat.=44.511013, lon.=34.178730, Alt.=137.455200m. Speed=27.792000m/h.</desc>
<speed>7.720000</speed>
</trkpt>
<trkpt lat="44.510693" lon="34.178699">
<ele>135.310669</ele>
<time>2011-10-13T10:06:22Z</time>
<desc>lat.=44.510693, lon.=34.178699, Alt.=135.310669m. Speed=27.143999m/h.</desc>
<speed>7.540000</speed>
</trkpt>
<trkpt lat="44.510380" lon="34.178997">
<ele>134.552856</ele>
<time>2011-10-13T10:06:27Z</time>
<desc>lat.=44.510380, lon.=34.178997, Alt.=134.552856m. Speed=30.455999m/h.</desc>
<speed>8.460000</speed>
</trkpt>
<trkpt lat="44.510075" lon="34.179375">
<ele>134.084106</ele>
<time>2011-10-13T10:06:32Z</time>
<desc>lat.=44.510075, lon.=34.179375, Alt.=134.084106m. Speed=32.327999m/h.</desc>
<speed>8.980000</speed>
</trkpt>
<trkpt lat="44.509880" lon="34.179836">
<ele>133.693481</ele>
<time>2011-10-13T10:06:37Z</time>
<desc>lat.=44.509880, lon.=34.179836, Alt.=133.693481m. Speed=25.379999m/h.</desc>
<speed>7.050000</speed>
</trkpt>
<trkpt lat="44.509705" lon="34.180058">
<ele>135.111450</ele>
<time>2011-10-13T10:06:42Z</time>
<desc>lat.=44.509705, lon.=34.180058, Alt.=135.111450m. Speed=15.084000m/h.</desc>
<speed>4.190000</speed>
</trkpt>
<trkpt lat="44.509430" lon="34.179890">
<ele>135.095825</ele>
<time>2011-10-13T10:06:47Z</time>
<desc>lat.=44.509430, lon.=34.179890, Alt.=135.095825m. Speed=21.132000m/h.</desc>
<speed>5.870000</speed>
</trkpt>
<trkpt lat="44.509426" lon="34.179489">
<ele>134.369263</ele>
<time>2011-10-13T10:06:52Z</time>
<desc>lat.=44.509426, lon.=34.179489, Alt.=134.369263m. Speed=27.216000m/h.</desc>
<speed>7.560000</speed>
</trkpt>
<trkpt lat="44.509525" lon="34.179066">
<ele>134.795044</ele>
<time>2011-10-13T10:06:57Z</time>
<desc>lat.=44.509525, lon.=34.179066, Alt.=134.795044m. Speed=20.483999m/h.</desc>
<speed>5.690000</speed>
</trkpt>
<trkpt lat="44.509594" lon="34.178566">
<ele>135.213013</ele>
<time>2011-10-13T10:07:02Z</time>
<desc>lat.=44.509594, lon.=34.178566, Alt.=135.213013m. Speed=25.379999m/h.</desc>
<speed>7.050000</speed>
</trkpt>
<trkpt lat="44.509686" lon="34.178082">
<ele>131.564575</ele>
<time>2011-10-13T10:07:07Z</time>
<desc>lat.=44.509686, lon.=34.178082, Alt.=131.564575m. Speed=22.212000m/h.</desc>
<speed>6.170000</speed>
</trkpt>
<trkpt lat="44.509869" lon="34.177784">
<ele>128.048950</ele>
<time>2011-10-13T10:07:12Z</time>
<desc>lat.=44.509869, lon.=34.177784, Alt.=128.048950m. Speed=24.191999m/h.</desc>
<speed>6.720000</speed>
</trkpt>
<trkpt lat="44.510063" lon="34.177425">
<ele>126.794006</ele>
<time>2011-10-13T10:07:17Z</time>
<desc>lat.=44.510063, lon.=34.177425, Alt.=126.794006m. Speed=28.080000m/h.</desc>
<speed>7.800000</speed>
</trkpt>
<trkpt lat="44.510113" lon="34.177044">
<ele>125.317444</ele>
<time>2011-10-13T10:07:22Z</time>
<desc>lat.=44.510113, lon.=34.177044, Alt.=125.317444m. Speed=20.591999m/h.</desc>
<speed>5.720000</speed>
</trkpt>
<trkpt lat="44.509922" lon="34.176922">
<ele>119.198303</ele>
<time>2011-10-13T10:07:27Z</time>
<desc>lat.=44.509922, lon.=34.176922, Alt.=119.198303m. Speed=24.264000m/h.</desc>
<speed>6.740000</speed>
</trkpt>
<trkpt lat="44.509621" lon="34.177036">
<ele>114.422913</ele>
<time>2011-10-13T10:07:32Z</time>
<desc>lat.=44.509621, lon.=34.177036, Alt.=114.422913m. Speed=25.596001m/h.</desc>
<speed>7.110000</speed>
</trkpt>
<trkpt lat="44.509380" lon="34.177307">
<ele>111.858459</ele>
<time>2011-10-13T10:07:37Z</time>
<desc>lat.=44.509380, lon.=34.177307, Alt.=111.858459m. Speed=23.400000m/h.</desc>
<speed>6.500000</speed>
</trkpt>
<trkpt lat="44.509266" lon="34.177647">
<ele>108.358459</ele>
<time>2011-10-13T10:07:42Z</time>
<desc>lat.=44.509266, lon.=34.177647, Alt.=108.358459m. Speed=20.628000m/h.</desc>
<speed>5.730000</speed>
</trkpt>
<trkpt lat="44.509029" lon="34.177731">
<ele>105.542053</ele>
<time>2011-10-13T10:07:47Z</time>
<desc>lat.=44.509029, lon.=34.177731, Alt.=105.542053m. Speed=27.323999m/h.</desc>
<speed>7.590000</speed>
</trkpt>
<trkpt lat="44.508759" lon="34.177448">
<ele>101.682678</ele>
<time>2011-10-13T10:07:52Z</time>
<desc>lat.=44.508759, lon.=34.177448, Alt.=101.682678m. Speed=29.304001m/h.</desc>
<speed>8.140000</speed>
</trkpt>
<trkpt lat="44.508503" lon="34.177170">
<ele>101.165100</ele>
<time>2011-10-13T10:07:57Z</time>
<desc>lat.=44.508503, lon.=34.177170, Alt.=101.165100m. Speed=22.680000m/h.</desc>
<speed>6.300000</speed>
</trkpt>
<trkpt lat="44.508263" lon="34.176952">
<ele>99.676819</ele>
<time>2011-10-13T10:08:02Z</time>
<desc>lat.=44.508263, lon.=34.176952, Alt.=99.676819m. Speed=25.056000m/h.</desc>
<speed>6.960000</speed>
</trkpt>
<trkpt lat="44.507984" lon="34.177006">
<ele>97.624084</ele>
<time>2011-10-13T10:08:07Z</time>
<desc>lat.=44.507984, lon.=34.177006, Alt.=97.624084m. Speed=24.011999m/h.</desc>
<speed>6.670000</speed>
</trkpt>
<trkpt lat="44.507656" lon="34.177242">
<ele>95.405334</ele>
<time>2011-10-13T10:08:12Z</time>
<desc>lat.=44.507656, lon.=34.177242, Alt.=95.405334m. Speed=28.872000m/h.</desc>
<speed>8.020000</speed>
</trkpt>
<trkpt lat="44.507477" lon="34.177658">
<ele>93.919006</ele>
<time>2011-10-13T10:08:17Z</time>
<desc>lat.=44.507477, lon.=34.177658, Alt.=93.919006m. Speed=21.455999m/h.</desc>
<speed>5.960000</speed>
</trkpt>
<trkpt lat="44.507404" lon="34.178020">
<ele>92.079163</ele>
<time>2011-10-13T10:08:22Z</time>
<desc>lat.=44.507404, lon.=34.178020, Alt.=92.079163m. Speed=20.700001m/h.</desc>
<speed>5.750000</speed>
</trkpt>
<trkpt lat="44.507454" lon="34.178364">
<ele>90.169006</ele>
<time>2011-10-13T10:08:27Z</time>
<desc>lat.=44.507454, lon.=34.178364, Alt.=90.169006m. Speed=23.796000m/h.</desc>
<speed>6.610000</speed>
</trkpt>
<trkpt lat="44.507347" lon="34.178707">
<ele>88.469788</ele>
<time>2011-10-13T10:08:32Z</time>
<desc>lat.=44.507347, lon.=34.178707, Alt.=88.469788m. Speed=19.728001m/h.</desc>
<speed>5.480000</speed>
</trkpt>
<trkpt lat="44.507103" lon="34.178738">
<ele>88.376038</ele>
<time>2011-10-13T10:08:37Z</time>
<desc>lat.=44.507103, lon.=34.178738, Alt.=88.376038m. Speed=23.112000m/h.</desc>
<speed>6.420000</speed>
</trkpt>
<trkpt lat="44.506874" lon="34.178497">
<ele>87.135803</ele>
<time>2011-10-13T10:08:42Z</time>
<desc>lat.=44.506874, lon.=34.178497, Alt.=87.135803m. Speed=22.860001m/h.</desc>
<speed>6.350000</speed>
</trkpt>
<trkpt lat="44.506687" lon="34.178150">
<ele>85.788147</ele>
<time>2011-10-13T10:08:47Z</time>
<desc>lat.=44.506687, lon.=34.178150, Alt.=85.788147m. Speed=22.896000m/h.</desc>
<speed>6.360000</speed>
</trkpt>
<trkpt lat="44.506565" lon="34.177658">
<ele>84.145569</ele>
<time>2011-10-13T10:08:52Z</time>
<desc>lat.=44.506565, lon.=34.177658, Alt.=84.145569m. Speed=26.712000m/h.</desc>
<speed>7.420000</speed>
</trkpt>
<trkpt lat="44.506386" lon="34.177193">
<ele>81.917053</ele>
<time>2011-10-13T10:08:57Z</time>
<desc>lat.=44.506386, lon.=34.177193, Alt.=81.917053m. Speed=21.600000m/h.</desc>
<speed>6.000000</speed>
</trkpt>
<trkpt lat="44.506126" lon="34.176891">
<ele>79.549866</ele>
<time>2011-10-13T10:09:02Z</time>
<desc>lat.=44.506126, lon.=34.176891, Alt.=79.549866m. Speed=21.024000m/h.</desc>
<speed>5.840000</speed>
</trkpt>
<trkpt lat="44.505714" lon="34.176765">
<ele>77.776428</ele>
<time>2011-10-13T10:09:07Z</time>
<desc>lat.=44.505714, lon.=34.176765, Alt.=77.776428m. Speed=29.664000m/h.</desc>
<speed>8.240000</speed>
</trkpt>
<trkpt lat="44.505360" lon="34.176521">
<ele>75.983459</ele>
<time>2011-10-13T10:09:12Z</time>
<desc>lat.=44.505360, lon.=34.176521, Alt.=75.983459m. Speed=26.784000m/h.</desc>
<speed>7.440000</speed>
</trkpt>
<trkpt lat="44.505089" lon="34.176140">
<ele>73.856506</ele>
<time>2011-10-13T10:09:17Z</time>
<desc>lat.=44.505089, lon.=34.176140, Alt.=73.856506m. Speed=29.664000m/h.</desc>
<speed>8.240000</speed>
</trkpt>
<trkpt lat="44.505062" lon="34.175617">
<ele>72.639709</ele>
<time>2011-10-13T10:09:22Z</time>
<desc>lat.=44.505062, lon.=34.175617, Alt.=72.639709m. Speed=29.664000m/h.</desc>
<speed>8.240000</speed>
</trkpt>
<trkpt lat="44.505047" lon="34.175117">
<ele>71.907288</ele>
<time>2011-10-13T10:09:27Z</time>
<desc>lat.=44.505047, lon.=34.175117, Alt.=71.907288m. Speed=24.624001m/h.</desc>
<speed>6.840000</speed>
</trkpt>
<trkpt lat="44.504997" lon="34.174728">
<ele>71.143616</ele>
<time>2011-10-13T10:09:32Z</time>
<desc>lat.=44.504997, lon.=34.174728, Alt.=71.143616m. Speed=19.728001m/h.</desc>
<speed>5.480000</speed>
</trkpt>
<trkpt lat="44.504902" lon="34.174404">
<ele>70.817444</ele>
<time>2011-10-13T10:09:37Z</time>
<desc>lat.=44.504902, lon.=34.174404, Alt.=70.817444m. Speed=20.736000m/h.</desc>
<speed>5.760000</speed>
</trkpt>
<trkpt lat="44.504765" lon="34.174023">
<ele>70.176819</ele>
<time>2011-10-13T10:09:42Z</time>
<desc>lat.=44.504765, lon.=34.174023, Alt.=70.176819m. Speed=28.764000m/h.</desc>
<speed>7.990000</speed>
</trkpt>
<trkpt lat="44.504555" lon="34.173603">
<ele>69.370178</ele>
<time>2011-10-13T10:09:47Z</time>
<desc>lat.=44.504555, lon.=34.173603, Alt.=69.370178m. Speed=28.188000m/h.</desc>
<speed>7.830000</speed>
</trkpt>
<trkpt lat="44.504284" lon="34.173405">
<ele>63.995636</ele>
<time>2011-10-13T10:09:52Z</time>
<desc>lat.=44.504284, lon.=34.173405, Alt.=63.995636m. Speed=21.672001m/h.</desc>
<speed>6.020000</speed>
</trkpt>
<trkpt lat="44.503944" lon="34.173523">
<ele>60.501495</ele>
<time>2011-10-13T10:09:57Z</time>
<desc>lat.=44.503944, lon.=34.173523, Alt.=60.501495m. Speed=32.832001m/h.</desc>
<speed>9.120000</speed>
</trkpt>
<trkpt lat="44.503582" lon="34.173786">
<ele>57.700714</ele>
<time>2011-10-13T10:10:02Z</time>
<desc>lat.=44.503582, lon.=34.173786, Alt.=57.700714m. Speed=27.468000m/h.</desc>
<speed>7.630000</speed>
</trkpt>
<trkpt lat="44.503410" lon="34.174053">
<ele>53.389191</ele>
<time>2011-10-13T10:10:07Z</time>
<desc>lat.=44.503410, lon.=34.174053, Alt.=53.389191m. Speed=16.416000m/h.</desc>
<speed>4.560000</speed>
</trkpt>
<trkpt lat="44.503258" lon="34.174137">
<ele>51.352081</ele>
<time>2011-10-13T10:10:12Z</time>
<desc>lat.=44.503258, lon.=34.174137, Alt.=51.352081m. Speed=16.596001m/h.</desc>
<speed>4.610000</speed>
</trkpt>
<trkpt lat="44.503017" lon="34.173958">
<ele>49.828644</ele>
<time>2011-10-13T10:10:17Z</time>
<desc>lat.=44.503017, lon.=34.173958, Alt.=49.828644m. Speed=27.143999m/h.</desc>
<speed>7.540000</speed>
</trkpt>
<trkpt lat="44.502632" lon="34.173603">
<ele>46.246613</ele>
<time>2011-10-13T10:10:22Z</time>
<desc>lat.=44.502632, lon.=34.173603, Alt.=46.246613m. Speed=30.780001m/h.</desc>
<speed>8.550000</speed>
</trkpt>
<trkpt lat="44.502323" lon="34.173336">
<ele>42.812042</ele>
<time>2011-10-13T10:10:27Z</time>
<desc>lat.=44.502323, lon.=34.173336, Alt.=42.812042m. Speed=27.684000m/h.</desc>
<speed>7.690000</speed>
</trkpt>
<trkpt lat="44.502010" lon="34.173279">
<ele>39.826691</ele>
<time>2011-10-13T10:10:32Z</time>
<desc>lat.=44.502010, lon.=34.173279, Alt.=39.826691m. Speed=27.360001m/h.</desc>
<speed>7.600000</speed>
</trkpt>
<trkpt lat="44.501705" lon="34.173462">
<ele>34.156769</ele>
<time>2011-10-13T10:10:37Z</time>
<desc>lat.=44.501705, lon.=34.173462, Alt.=34.156769m. Speed=25.596001m/h.</desc>
<speed>7.110000</speed>
</trkpt>
<trkpt lat="44.501522" lon="34.173210">
<ele>29.579361</ele>
<time>2011-10-13T10:10:42Z</time>
<desc>lat.=44.501522, lon.=34.173210, Alt.=29.579361m. Speed=21.348000m/h.</desc>
<speed>5.930000</speed>
</trkpt>
<trkpt lat="44.501217" lon="34.173035">
<ele>26.632095</ele>
<time>2011-10-13T10:10:47Z</time>
<desc>lat.=44.501217, lon.=34.173035, Alt.=26.632095m. Speed=30.275999m/h.</desc>
<speed>8.410000</speed>
</trkpt>
<trkpt lat="44.500820" lon="34.173145">
<ele>29.559830</ele>
<time>2011-10-13T10:10:52Z</time>
<desc>lat.=44.500820, lon.=34.173145, Alt.=29.559830m. Speed=32.076000m/h.</desc>
<speed>8.910000</speed>
</trkpt>
<trkpt lat="44.500378" lon="34.173218">
<ele>30.850845</ele>
<time>2011-10-13T10:10:57Z</time>
<desc>lat.=44.500378, lon.=34.173218, Alt.=30.850845m. Speed=34.812000m/h.</desc>
<speed>9.670000</speed>
</trkpt>
<trkpt lat="44.500008" lon="34.173374">
<ele>31.754166</ele>
<time>2011-10-13T10:11:02Z</time>
<desc>lat.=44.500008, lon.=34.173374, Alt.=31.754166m. Speed=25.559999m/h.</desc>
<speed>7.100000</speed>
</trkpt>
<trkpt lat="44.499844" lon="34.173458">
<ele>28.240982</ele>
<time>2011-10-13T10:11:07Z</time>
<desc>lat.=44.499844, lon.=34.173458, Alt.=28.240982m. Speed=2.484000m/h.</desc>
<speed>0.690000</speed>
</trkpt>
<trkpt lat="44.499840" lon="34.173462">
<ele>26.867447</ele>
<time>2011-10-13T10:11:12Z</time>
<desc>lat.=44.499840, lon.=34.173462, Alt.=26.867447m. Speed=1.728000m/h.</desc>
<speed>0.480000</speed>
</trkpt>
<trkpt lat="44.499844" lon="34.173450">
<ele>26.644791</ele>
<time>2011-10-13T10:11:17Z</time>
<desc>lat.=44.499844, lon.=34.173450, Alt.=26.644791m. Speed=0.972000m/h.</desc>
<speed>0.270000</speed>
</trkpt>
<trkpt lat="44.499828" lon="34.173443">
<ele>26.574478</ele>
<time>2011-10-13T10:11:22Z</time>
<desc>lat.=44.499828, lon.=34.173443, Alt.=26.574478m. Speed=0.036000m/h.</desc>
<speed>0.010000</speed>
</trkpt>
<trkpt lat="44.499825" lon="34.173443">
<ele>26.546646</ele>
<time>2011-10-13T10:11:27Z</time>
<desc>lat.=44.499825, lon.=34.173443, Alt.=26.546646m. Speed=1.512000m/h.</desc>
<speed>0.420000</speed>
</trkpt>
<trkpt lat="44.499817" lon="34.173447">
<ele>26.748795</ele>
<time>2011-10-13T10:11:32Z</time>
<desc>lat.=44.499817, lon.=34.173447, Alt.=26.748795m. Speed=0.000000m/h.</desc>
<speed>0.000000</speed>
</trkpt>
<trkpt lat="44.499817" lon="34.173450">
<ele>26.935806</ele>
<time>2011-10-13T10:11:37Z</time>
<desc>lat.=44.499817, lon.=34.173450, Alt.=26.935806m. Speed=0.072000m/h.</desc>
<speed>0.020000</speed>
</trkpt>
<trkpt lat="44.499817" lon="34.173458">
<ele>26.995377</ele>
<time>2011-10-13T10:11:42Z</time>
<desc>lat.=44.499817, lon.=34.173458, Alt.=26.995377m. Speed=0.036000m/h.</desc>
<speed>0.010000</speed>
</trkpt>
<trkpt lat="44.499821" lon="34.173466">
<ele>27.186295</ele>
<time>2011-10-13T10:11:47Z</time>
<desc>lat.=44.499821, lon.=34.173466, Alt.=27.186295m. Speed=0.000000m/h.</desc>
<speed>0.000000</speed>
</trkpt>
<trkpt lat="44.499817" lon="34.173466">
<ele>27.120865</ele>
<time>2011-10-13T10:11:52Z</time>
<desc>lat.=44.499817, lon.=34.173466, Alt.=27.120865m. Speed=0.144000m/h.</desc>
<speed>0.040000</speed>
</trkpt>
<trkpt lat="44.499771" lon="34.173485">
<ele>25.815201</ele>
<time>2011-10-13T10:11:57Z</time>
<desc>lat.=44.499771, lon.=34.173485, Alt.=25.815201m. Speed=7.524000m/h.</desc>
<speed>2.090000</speed>
</trkpt>
<trkpt lat="44.499638" lon="34.173519">
<ele>24.245865</ele>
<time>2011-10-13T10:12:02Z</time>
<desc>lat.=44.499638, lon.=34.173519, Alt.=24.245865m. Speed=13.428000m/h.</desc>
<speed>3.730000</speed>
</trkpt>
<trkpt lat="44.499393" lon="34.173538">
<ele>22.056412</ele>
<time>2011-10-13T10:12:07Z</time>
<desc>lat.=44.499393, lon.=34.173538, Alt.=22.056412m. Speed=19.260000m/h.</desc>
<speed>5.350000</speed>
</trkpt>
<trkpt lat="44.499077" lon="34.173660">
<ele>20.122330</ele>
<time>2011-10-13T10:12:12Z</time>
<desc>lat.=44.499077, lon.=34.173660, Alt.=20.122330m. Speed=31.104000m/h.</desc>
<speed>8.640000</speed>
</trkpt>
<trkpt lat="44.498844" lon="34.173916">
<ele>18.661880</ele>
<time>2011-10-13T10:12:17Z</time>
<desc>lat.=44.498844, lon.=34.173916, Alt.=18.661880m. Speed=14.688000m/h.</desc>
<speed>4.080000</speed>
</trkpt>
<trkpt lat="44.498726" lon="34.173954">
<ele>16.879166</ele>
<time>2011-10-13T10:12:22Z</time>
<desc>lat.=44.498726, lon.=34.173954, Alt.=16.879166m. Speed=7.416000m/h.</desc>
<speed>2.060000</speed>
</trkpt>
<trkpt lat="44.498600" lon="34.173912">
<ele>14.568245</ele>
<time>2011-10-13T10:12:27Z</time>
<desc>lat.=44.498600, lon.=34.173912, Alt.=14.568245m. Speed=4.896000m/h.</desc>
<speed>1.360000</speed>
</trkpt>
<trkpt lat="44.498589" lon="34.173885">
<ele>17.865005</ele>
<time>2011-10-13T10:12:32Z</time>
<desc>lat.=44.498589, lon.=34.173885, Alt.=17.865005m. Speed=1.908000m/h.</desc>
<speed>0.530000</speed>
</trkpt>
<trkpt lat="44.498554" lon="34.173847">
<ele>18.298599</ele>
<time>2011-10-13T10:12:37Z</time>
<desc>lat.=44.498554, lon.=34.173847, Alt.=18.298599m. Speed=9.468000m/h.</desc>
<speed>2.630000</speed>
</trkpt>
<trkpt lat="44.498535" lon="34.173645">
<ele>17.653091</ele>
<time>2011-10-13T10:12:42Z</time>
<desc>lat.=44.498535, lon.=34.173645, Alt.=17.653091m. Speed=9.036000m/h.</desc>
<speed>2.510000</speed>
</trkpt>
<trkpt lat="44.498585" lon="34.173519">
<ele>16.017349</ele>
<time>2011-10-13T10:12:47Z</time>
<desc>lat.=44.498585, lon.=34.173519, Alt.=16.017349m. Speed=8.748000m/h.</desc>
<speed>2.430000</speed>
</trkpt>
<trkpt lat="44.498653" lon="34.173416">
<ele>13.626839</ele>
<time>2011-10-13T10:12:52Z</time>
<desc>lat.=44.498653, lon.=34.173416, Alt.=13.626839m. Speed=11.016000m/h.</desc>
<speed>3.060000</speed>
</trkpt>
<trkpt lat="44.498745" lon="34.173332">
<ele>11.451790</ele>
<time>2011-10-13T10:12:57Z</time>
<desc>lat.=44.498745, lon.=34.173332, Alt.=11.451790m. Speed=4.320000m/h.</desc>
<speed>1.200000</speed>
</trkpt>
<trkpt lat="44.498783" lon="34.173294">
<ele>10.153450</ele>
<time>2011-10-13T10:13:02Z</time>
<desc>lat.=44.498783, lon.=34.173294, Alt.=10.153450m. Speed=3.204000m/h.</desc>
<speed>0.890000</speed>
</trkpt>
<trkpt lat="44.498817" lon="34.173290">
<ele>8.636360</ele>
<time>2011-10-13T10:13:07Z</time>
<desc>lat.=44.498817, lon.=34.173290, Alt.=8.636360m. Speed=4.104000m/h.</desc>
<speed>1.140000</speed>
</trkpt>
<trkpt lat="44.498684" lon="34.173199">
<ele>8.623177</ele>
<time>2011-10-13T10:13:12Z</time>
<desc>lat.=44.498684, lon.=34.173199, Alt.=8.623177m. Speed=10.080000m/h.</desc>
<speed>2.800000</speed>
</trkpt>
<trkpt lat="44.498581" lon="34.173145">
<ele>6.710026</ele>
<time>2011-10-13T10:13:17Z</time>
<desc>lat.=44.498581, lon.=34.173145, Alt.=6.710026m. Speed=9.432000m/h.</desc>
<speed>2.620000</speed>
</trkpt>
<trkpt lat="44.498508" lon="34.173115">
<ele>4.068790</ele>
<time>2011-10-13T10:13:22Z</time>
<desc>lat.=44.498508, lon.=34.173115, Alt.=4.068790m. Speed=2.340000m/h.</desc>
<speed>0.650000</speed>
</trkpt>
<trkpt lat="44.498459" lon="34.173088">
<ele>2.591768</ele>
<time>2011-10-13T10:13:27Z</time>
<desc>lat.=44.498459, lon.=34.173088, Alt.=2.591768m. Speed=4.068000m/h.</desc>
<speed>1.130000</speed>
</trkpt>
<trkpt lat="44.498405" lon="34.173084">
<ele>1.556413</ele>
<time>2011-10-13T10:13:32Z</time>
<desc>lat.=44.498405, lon.=34.173084, Alt.=1.556413m. Speed=7.380000m/h.</desc>
<speed>2.050000</speed>
</trkpt>
<trkpt lat="44.498276" lon="34.173046">
<ele>-0.546181</ele>
<time>2011-10-13T10:13:37Z</time>
<desc>lat.=44.498276, lon.=34.173046, Alt.=-0.546181m. Speed=9.504000m/h.</desc>
<speed>2.640000</speed>
</trkpt>
<trkpt lat="44.498177" lon="34.172924">
<ele>-2.155794</ele>
<time>2011-10-13T10:13:42Z</time>
<desc>lat.=44.498177, lon.=34.172924, Alt.=-2.155794m. Speed=10.044000m/h.</desc>
<speed>2.790000</speed>
</trkpt>
<trkpt lat="44.498013" lon="34.172775">
<ele>-2.939791</ele>
<time>2011-10-13T10:13:47Z</time>
<desc>lat.=44.498013, lon.=34.172775, Alt.=-2.939791m. Speed=15.264000m/h.</desc>
<speed>4.240000</speed>
</trkpt>
<trkpt lat="44.497841" lon="34.172573">
<ele>-4.936222</ele>
<time>2011-10-13T10:13:52Z</time>
<desc>lat.=44.497841, lon.=34.172573, Alt.=-4.936222m. Speed=11.016000m/h.</desc>
<speed>3.060000</speed>
</trkpt>
<trkpt lat="44.497768" lon="34.172462">
<ele>-6.445744</ele>
<time>2011-10-13T10:13:57Z</time>
<desc>lat.=44.497768, lon.=34.172462, Alt.=-6.445744m. Speed=6.372000m/h.</desc>
<speed>1.770000</speed>
</trkpt>
<trkpt lat="44.497746" lon="34.172405">
<ele>-6.808048</ele>
<time>2011-10-13T10:14:02Z</time>
<desc>lat.=44.497746, lon.=34.172405, Alt.=-6.808048m. Speed=0.108000m/h.</desc>
<speed>0.030000</speed>
</trkpt>
<trkpt lat="44.497738" lon="34.172394">
<ele>-7.584293</ele>
<time>2011-10-13T10:14:07Z</time>
<desc>lat.=44.497738, lon.=34.172394, Alt.=-7.584293m. Speed=0.612000m/h.</desc>
<speed>0.170000</speed>
</trkpt>
<trkpt lat="44.497738" lon="34.172386">
<ele>-8.347542</ele>
<time>2011-10-13T10:14:12Z</time>
<desc>lat.=44.497738, lon.=34.172386, Alt.=-8.347542m. Speed=0.324000m/h.</desc>
<speed>0.090000</speed>
</trkpt>
<trkpt lat="44.497738" lon="34.172382">
<ele>-8.803841</ele>
<time>2011-10-13T10:14:17Z</time>
<desc>lat.=44.497738, lon.=34.172382, Alt.=-8.803841m. Speed=0.036000m/h.</desc>
<speed>0.010000</speed>
</trkpt>
<trkpt lat="44.497719" lon="34.172340">
<ele>-9.284065</ele>
<time>2011-10-13T10:14:22Z</time>
<desc>lat.=44.497719, lon.=34.172340, Alt.=-9.284065m. Speed=7.164000m/h.</desc>
<speed>1.990000</speed>
</trkpt>
<trkpt lat="44.497704" lon="34.172157">
<ele>-9.375618</ele>
<time>2011-10-13T10:14:27Z</time>
<desc>lat.=44.497704, lon.=34.172157, Alt.=-9.375618m. Speed=11.412000m/h.</desc>
<speed>3.170000</speed>
</trkpt>
<trkpt lat="44.497692" lon="34.171925">
<ele>-9.466927</ele>
<time>2011-10-13T10:14:32Z</time>
<desc>lat.=44.497692, lon.=34.171925, Alt.=-9.466927m. Speed=10.368000m/h.</desc>
<speed>2.880000</speed>
</trkpt>
<trkpt lat="44.497692" lon="34.171692">
<ele>-8.677864</ele>
<time>2011-10-13T10:14:37Z</time>
<desc>lat.=44.497692, lon.=34.171692, Alt.=-8.677864m. Speed=13.572000m/h.</desc>
<speed>3.770000</speed>
</trkpt>
<trkpt lat="44.497665" lon="34.171463">
<ele>-9.237923</ele>
<time>2011-10-13T10:14:42Z</time>
<desc>lat.=44.497665, lon.=34.171463, Alt.=-9.237923m. Speed=10.692000m/h.</desc>
<speed>2.970000</speed>
</trkpt>
<trkpt lat="44.497684" lon="34.171326">
<ele>-8.870003</ele>
<time>2011-10-13T10:14:47Z</time>
<desc>lat.=44.497684, lon.=34.171326, Alt.=-8.870003m. Speed=7.272000m/h.</desc>
<speed>2.020000</speed>
</trkpt>
<trkpt lat="44.497684" lon="34.171165">
<ele>-9.003792</ele>
<time>2011-10-13T10:14:52Z</time>
<desc>lat.=44.497684, lon.=34.171165, Alt.=-9.003792m. Speed=7.596000m/h.</desc>
<speed>2.110000</speed>
</trkpt>
<trkpt lat="44.497631" lon="34.171028">
<ele>-9.284554</ele>
<time>2011-10-13T10:14:57Z</time>
<desc>lat.=44.497631, lon.=34.171028, Alt.=-9.284554m. Speed=3.744000m/h.</desc>
<speed>1.040000</speed>
</trkpt>
<trkpt lat="44.497620" lon="34.170937">
<ele>-9.693489</ele>
<time>2011-10-13T10:15:02Z</time>
<desc>lat.=44.497620, lon.=34.170937, Alt.=-9.693489m. Speed=2.592000m/h.</desc>
<speed>0.720000</speed>
</trkpt>
<trkpt lat="44.497623" lon="34.170704">
<ele>-10.097786</ele>
<time>2011-10-13T10:15:07Z</time>
<desc>lat.=44.497623, lon.=34.170704, Alt.=-10.097786m. Speed=10.584000m/h.</desc>
<speed>2.940000</speed>
</trkpt>
<trkpt lat="44.497646" lon="34.170425">
<ele>-10.011604</ele>
<time>2011-10-13T10:15:12Z</time>
<desc>lat.=44.497646, lon.=34.170425, Alt.=-10.011604m. Speed=9.792000m/h.</desc>
<speed>2.720000</speed>
</trkpt>
<trkpt lat="44.497620" lon="34.170219">
<ele>-11.003059</ele>
<time>2011-10-13T10:15:17Z</time>
<desc>lat.=44.497620, lon.=34.170219, Alt.=-11.003059m. Speed=8.820000m/h.</desc>
<speed>2.450000</speed>
</trkpt>
<trkpt lat="44.497608" lon="34.170094">
<ele>-12.415901</ele>
<time>2011-10-13T10:15:22Z</time>
<desc>lat.=44.497608, lon.=34.170094, Alt.=-12.415901m. Speed=0.252000m/h.</desc>
<speed>0.070000</speed>
</trkpt>
<trkpt lat="44.497589" lon="34.170078">
<ele>-12.253059</ele>
<time>2011-10-13T10:15:27Z</time>
<desc>lat.=44.497589, lon.=34.170078, Alt.=-12.253059m. Speed=0.432000m/h.</desc>
<speed>0.120000</speed>
</trkpt>
<trkpt lat="44.497585" lon="34.170063">
<ele>-12.392952</ele>
<time>2011-10-13T10:15:32Z</time>
<desc>lat.=44.497585, lon.=34.170063, Alt.=-12.392952m. Speed=1.116000m/h.</desc>
<speed>0.310000</speed>
</trkpt>
<trkpt lat="44.497547" lon="34.170010">
<ele>-11.411995</ele>
<time>2011-10-13T10:15:37Z</time>
<desc>lat.=44.497547, lon.=34.170010, Alt.=-11.411995m. Speed=1.440000m/h.</desc>
<speed>0.400000</speed>
</trkpt>
<trkpt lat="44.497551" lon="34.170105">
<ele>-11.169807</ele>
<time>2011-10-13T10:15:42Z</time>
<desc>lat.=44.497551, lon.=34.170105, Alt.=-11.169807m. Speed=7.812000m/h.</desc>
<speed>2.170000</speed>
</trkpt>
<trkpt lat="44.497536" lon="34.170277">
<ele>-11.463753</ele>
<time>2011-10-13T10:15:47Z</time>
<desc>lat.=44.497536, lon.=34.170277, Alt.=-11.463753m. Speed=9.792000m/h.</desc>
<speed>2.720000</speed>
</trkpt>
<trkpt lat="44.497478" lon="34.170380">
<ele>-11.667366</ele>
<time>2011-10-13T10:15:52Z</time>
<desc>lat.=44.497478, lon.=34.170380, Alt.=-11.667366m. Speed=2.556000m/h.</desc>
<speed>0.710000</speed>
</trkpt>
<trkpt lat="44.497440" lon="34.170387">
<ele>-11.327034</ele>
<time>2011-10-13T10:15:57Z</time>
<desc>lat.=44.497440, lon.=34.170387, Alt.=-11.327034m. Speed=5.112000m/h.</desc>
<speed>1.420000</speed>
</trkpt>
<trkpt lat="44.497353" lon="34.170429">
<ele>-10.681038</ele>
<time>2011-10-13T10:16:02Z</time>
<desc>lat.=44.497353, lon.=34.170429, Alt.=-10.681038m. Speed=5.220000m/h.</desc>
<speed>1.450000</speed>
</trkpt>
<trkpt lat="44.497292" lon="34.170475">
<ele>-10.124397</ele>
<time>2011-10-13T10:16:07Z</time>
<desc>lat.=44.497292, lon.=34.170475, Alt.=-10.124397m. Speed=1.512000m/h.</desc>
<speed>0.420000</speed>
</trkpt>
<trkpt lat="44.497162" lon="34.170361">
<ele>-8.658089</ele>
<time>2011-10-13T10:16:12Z</time>
<desc>lat.=44.497162, lon.=34.170361, Alt.=-8.658089m. Speed=3.744000m/h.</desc>
<speed>1.040000</speed>
</trkpt>
<trkpt lat="44.497070" lon="34.170322">
<ele>-6.729801</ele>
<time>2011-10-13T10:16:17Z</time>
<desc>lat.=44.497070, lon.=34.170322, Alt.=-6.729801m. Speed=6.084000m/h.</desc>
<speed>1.690000</speed>
</trkpt>
<trkpt lat="44.496891" lon="34.170280">
<ele>-4.993351</ele>
<time>2011-10-13T10:16:22Z</time>
<desc>lat.=44.496891, lon.=34.170280, Alt.=-4.993351m. Speed=10.260000m/h.</desc>
<speed>2.850000</speed>
</trkpt>
<trkpt lat="44.496769" lon="34.170399">
<ele>-6.608097</ele>
<time>2011-10-13T10:16:27Z</time>
<desc>lat.=44.496769, lon.=34.170399, Alt.=-6.608097m. Speed=9.900000m/h.</desc>
<speed>2.750000</speed>
</trkpt>
<trkpt lat="44.496700" lon="34.170433">
<ele>-4.854191</ele>
<time>2011-10-13T10:16:32Z</time>
<desc>lat.=44.496700, lon.=34.170433, Alt.=-4.854191m. Speed=4.356000m/h.</desc>
<speed>1.210000</speed>
</trkpt>
<trkpt lat="44.496639" lon="34.170357">
<ele>-4.098087</ele>
<time>2011-10-13T10:16:37Z</time>
<desc>lat.=44.496639, lon.=34.170357, Alt.=-4.098087m. Speed=6.804000m/h.</desc>
<speed>1.890000</speed>
</trkpt>
<trkpt lat="44.496563" lon="34.170227">
<ele>-5.677921</ele>
<time>2011-10-13T10:16:42Z</time>
<desc>lat.=44.496563, lon.=34.170227, Alt.=-5.677921m. Speed=11.664000m/h.</desc>
<speed>3.240000</speed>
</trkpt>
<trkpt lat="44.496567" lon="34.170048">
<ele>-7.943058</ele>
<time>2011-10-13T10:16:47Z</time>
<desc>lat.=44.496567, lon.=34.170048, Alt.=-7.943058m. Speed=10.368000m/h.</desc>
<speed>2.880000</speed>
</trkpt>
<trkpt lat="44.496613" lon="34.169903">
<ele>-9.307014</ele>
<time>2011-10-13T10:16:52Z</time>
<desc>lat.=44.496613, lon.=34.169903, Alt.=-9.307014m. Speed=11.052000m/h.</desc>
<speed>3.070000</speed>
</trkpt>
<trkpt lat="44.496624" lon="34.169735">
<ele>-9.520882</ele>
<time>2011-10-13T10:16:57Z</time>
<desc>lat.=44.496624, lon.=34.169735, Alt.=-9.520882m. Speed=8.640000m/h.</desc>
<speed>2.400000</speed>
</trkpt>
<trkpt lat="44.496555" lon="34.169666">
<ele>-10.433723</ele>
<time>2011-10-13T10:17:02Z</time>
<desc>lat.=44.496555, lon.=34.169666, Alt.=-10.433723m. Speed=7.020000m/h.</desc>
<speed>1.950000</speed>
</trkpt>
<trkpt lat="44.496513" lon="34.169674">
<ele>-10.420540</ele>
<time>2011-10-13T10:17:07Z</time>
<desc>lat.=44.496513, lon.=34.169674, Alt.=-10.420540m. Speed=2.880000m/h.</desc>
<speed>0.800000</speed>
</trkpt>
<trkpt lat="44.496544" lon="34.169720">
<ele>-10.192757</ele>
<time>2011-10-13T10:17:12Z</time>
<desc>lat.=44.496544, lon.=34.169720, Alt.=-10.192757m. Speed=4.788000m/h.</desc>
<speed>1.330000</speed>
</trkpt>
<trkpt lat="44.496605" lon="34.169762">
<ele>-9.718147</ele>
<time>2011-10-13T10:17:17Z</time>
<desc>lat.=44.496605, lon.=34.169762, Alt.=-9.718147m. Speed=4.572000m/h.</desc>
<speed>1.270000</speed>
</trkpt>
<trkpt lat="44.496639" lon="34.169762">
<ele>-9.645149</ele>
<time>2011-10-13T10:17:22Z</time>
<desc>lat.=44.496639, lon.=34.169762, Alt.=-9.645149m. Speed=0.432000m/h.</desc>
<speed>0.120000</speed>
</trkpt>
<trkpt lat="44.496655" lon="34.169758">
<ele>-9.623421</ele>
<time>2011-10-13T10:17:27Z</time>
<desc>lat.=44.496655, lon.=34.169758, Alt.=-9.623421m. Speed=0.000000m/h.</desc>
<speed>0.000000</speed>
</trkpt>
<trkpt lat="44.496655" lon="34.169758">
<ele>-9.610481</ele>
<time>2011-10-13T10:17:32Z</time>
<desc>lat.=44.496655, lon.=34.169758, Alt.=-9.610481m. Speed=0.000000m/h.</desc>
<speed>0.000000</speed>
</trkpt>
<trkpt lat="44.496655" lon="34.169758">
<ele>-9.609505</ele>
<time>2011-10-13T10:17:37Z</time>
<desc>lat.=44.496655, lon.=34.169758, Alt.=-9.609505m. Speed=0.000000m/h.</desc>
<speed>0.000000</speed>
</trkpt>
<trkpt lat="44.496655" lon="34.169758">
<ele>-9.642220</ele>
<time>2011-10-13T10:17:42Z</time>
<desc>lat.=44.496655, lon.=34.169758, Alt.=-9.642220m. Speed=0.072000m/h.</desc>
<speed>0.020000</speed>
</trkpt>
<trkpt lat="44.496655" lon="34.169758">
<ele>-9.707161</ele>
<time>2011-10-13T10:17:47Z</time>
<desc>lat.=44.496655, lon.=34.169758, Alt.=-9.707161m. Speed=0.036000m/h.</desc>
<speed>0.010000</speed>
</trkpt>
<trkpt lat="44.496655" lon="34.169758">
<ele>-9.693001</ele>
<time>2011-10-13T10:17:52Z</time>
<desc>lat.=44.496655, lon.=34.169758, Alt.=-9.693001m. Speed=0.036000m/h.</desc>
<speed>0.010000</speed>
</trkpt>
<trkpt lat="44.496655" lon="34.169758">
<ele>-9.585335</ele>
<time>2011-10-13T10:17:57Z</time>
<desc>lat.=44.496655, lon.=34.169758, Alt.=-9.585335m. Speed=0.036000m/h.</desc>
<speed>0.010000</speed>
</trkpt>
<trkpt lat="44.496651" lon="34.169758">
<ele>-10.012337</ele>
<time>2011-10-13T10:18:02Z</time>
<desc>lat.=44.496651, lon.=34.169758, Alt.=-10.012337m. Speed=0.144000m/h.</desc>
<speed>0.040000</speed>
</trkpt>
<trkpt lat="44.496647" lon="34.169758">
<ele>-11.246956</ele>
<time>2011-10-13T10:18:07Z</time>
<desc>lat.=44.496647, lon.=34.169758, Alt.=-11.246956m. Speed=0.036000m/h.</desc>
<speed>0.010000</speed>
</trkpt>
<trkpt lat="44.496647" lon="34.169758">
<ele>-11.087532</ele>
<time>2011-10-13T10:18:12Z</time>
<desc>lat.=44.496647, lon.=34.169758, Alt.=-11.087532m. Speed=0.036000m/h.</desc>
<speed>0.010000</speed>
</trkpt>
<trkpt lat="44.496647" lon="34.169762">
<ele>-10.684944</ele>
<time>2011-10-13T10:18:17Z</time>
<desc>lat.=44.496647, lon.=34.169762, Alt.=-10.684944m. Speed=0.072000m/h.</desc>
<speed>0.020000</speed>
</trkpt>
<trkpt lat="44.496647" lon="34.169762">
<ele>-10.735237</ele>
<time>2011-10-13T10:18:22Z</time>
<desc>lat.=44.496647, lon.=34.169762, Alt.=-10.735237m. Speed=0.036000m/h.</desc>
<speed>0.010000</speed>
</trkpt>
<trkpt lat="44.496643" lon="34.169765">
<ele>-11.411751</ele>
<time>2011-10-13T10:18:27Z</time>
<desc>lat.=44.496643, lon.=34.169765, Alt.=-11.411751m. Speed=0.000000m/h.</desc>
<speed>0.000000</speed>
</trkpt>
<trkpt lat="44.496643" lon="34.169769">
<ele>-12.185432</ele>
<time>2011-10-13T10:18:32Z</time>
<desc>lat.=44.496643, lon.=34.169769, Alt.=-12.185432m. Speed=0.144000m/h.</desc>
<speed>0.040000</speed>
</trkpt>
<trkpt lat="44.496647" lon="34.169765">
<ele>-11.874641</ele>
<time>2011-10-13T10:18:37Z</time>
<desc>lat.=44.496647, lon.=34.169765, Alt.=-11.874641m. Speed=3.960000m/h.</desc>
<speed>1.100000</speed>
</trkpt>
<trkpt lat="44.496548" lon="34.169704">
<ele>-12.077278</ele>
<time>2011-10-13T10:18:42Z</time>
<desc>lat.=44.496548, lon.=34.169704, Alt.=-12.077278m. Speed=11.556000m/h.</desc>
<speed>3.210000</speed>
</trkpt>
<trkpt lat="44.496410" lon="34.169582">
<ele>-12.289925</ele>
<time>2011-10-13T10:18:47Z</time>
<desc>lat.=44.496410, lon.=34.169582, Alt.=-12.289925m. Speed=13.608000m/h.</desc>
<speed>3.780000</speed>
</trkpt>
<trkpt lat="44.496262" lon="34.169472">
<ele>-13.237923</ele>
<time>2011-10-13T10:18:52Z</time>
<desc>lat.=44.496262, lon.=34.169472, Alt.=-13.237923m. Speed=11.484000m/h.</desc>
<speed>3.190000</speed>
</trkpt>
<trkpt lat="44.496124" lon="34.169418">
<ele>-14.118782</ele>
<time>2011-10-13T10:18:57Z</time>
<desc>lat.=44.496124, lon.=34.169418, Alt.=-14.118782m. Speed=11.520000m/h.</desc>
<speed>3.200000</speed>
</trkpt>
<trkpt lat="44.496002" lon="34.169395">
<ele>-14.387825</ele>
<time>2011-10-13T10:19:02Z</time>
<desc>lat.=44.496002, lon.=34.169395, Alt.=-14.387825m. Speed=10.764000m/h.</desc>
<speed>2.990000</speed>
</trkpt>
<trkpt lat="44.495907" lon="34.169552">
<ele>-14.741341</ele>
<time>2011-10-13T10:19:07Z</time>
<desc>lat.=44.495907, lon.=34.169552, Alt.=-14.741341m. Speed=11.124000m/h.</desc>
<speed>3.090000</speed>
</trkpt>
<trkpt lat="44.495846" lon="34.169727">
<ele>-15.225227</ele>
<time>2011-10-13T10:19:12Z</time>
<desc>lat.=44.495846, lon.=34.169727, Alt.=-15.225227m. Speed=11.592000m/h.</desc>
<speed>3.220000</speed>
</trkpt>
<trkpt lat="44.495789" lon="34.169868">
<ele>-15.545784</ele>
<time>2011-10-13T10:19:17Z</time>
<desc>lat.=44.495789, lon.=34.169868, Alt.=-15.545784m. Speed=8.064000m/h.</desc>
<speed>2.240000</speed>
</trkpt>
<trkpt lat="44.495777" lon="34.169964">
<ele>-16.039810</ele>
<time>2011-10-13T10:19:22Z</time>
<desc>lat.=44.495777, lon.=34.169964, Alt.=-16.039810m. Speed=4.752000m/h.</desc>
<speed>1.320000</speed>
</trkpt>
<trkpt lat="44.495796" lon="34.170040">
<ele>-15.499641</ele>
<time>2011-10-13T10:19:27Z</time>
<desc>lat.=44.495796, lon.=34.170040, Alt.=-15.499641m. Speed=5.940000m/h.</desc>
<speed>1.650000</speed>
</trkpt>
<trkpt lat="44.495861" lon="34.170090">
<ele>-15.123177</ele>
<time>2011-10-13T10:19:32Z</time>
<desc>lat.=44.495861, lon.=34.170090, Alt.=-15.123177m. Speed=4.536000m/h.</desc>
<speed>1.260000</speed>
</trkpt>
<trkpt lat="44.495876" lon="34.170109">
<ele>-15.014046</ele>
<time>2011-10-13T10:19:37Z</time>
<desc>lat.=44.495876, lon.=34.170109, Alt.=-15.014046m. Speed=0.756000m/h.</desc>
<speed>0.210000</speed>
</trkpt>
<trkpt lat="44.495884" lon="34.170097">
<ele>-14.814827</ele>
<time>2011-10-13T10:19:42Z</time>
<desc>lat.=44.495884, lon.=34.170097, Alt.=-14.814827m. Speed=0.360000m/h.</desc>
<speed>0.100000</speed>
</trkpt>
<trkpt lat="44.495884" lon="34.170105">
<ele>-15.015511</ele>
<time>2011-10-13T10:19:47Z</time>
<desc>lat.=44.495884, lon.=34.170105, Alt.=-15.015511m. Speed=1.116000m/h.</desc>
<speed>0.310000</speed>
</trkpt>
<trkpt lat="44.495876" lon="34.170113">
<ele>-14.945686</ele>
<time>2011-10-13T10:19:52Z</time>
<desc>lat.=44.495876, lon.=34.170113, Alt.=-14.945686m. Speed=0.324000m/h.</desc>
<speed>0.090000</speed>
</trkpt>
<trkpt lat="44.495865" lon="34.170120">
<ele>-14.724007</ele>
<time>2011-10-13T10:19:57Z</time>
<desc>lat.=44.495865, lon.=34.170120, Alt.=-14.724007m. Speed=0.108000m/h.</desc>
<speed>0.030000</speed>
</trkpt>
<trkpt lat="44.495850" lon="34.170132">
<ele>-14.539436</ele>
<time>2011-10-13T10:20:02Z</time>
<desc>lat.=44.495850, lon.=34.170132, Alt.=-14.539436m. Speed=0.360000m/h.</desc>
<speed>0.100000</speed>
</trkpt>
<trkpt lat="44.495850" lon="34.170139">
<ele>-14.733772</ele>
<time>2011-10-13T10:20:07Z</time>
<desc>lat.=44.495850, lon.=34.170139, Alt.=-14.733772m. Speed=0.720000m/h.</desc>
<speed>0.200000</speed>
</trkpt>
<trkpt lat="44.495853" lon="34.170147">
<ele>-14.900520</ele>
<time>2011-10-13T10:20:12Z</time>
<desc>lat.=44.495853, lon.=34.170147, Alt.=-14.900520m. Speed=0.324000m/h.</desc>
<speed>0.090000</speed>
</trkpt>
<trkpt lat="44.495857" lon="34.170162">
<ele>-15.050423</ele>
<time>2011-10-13T10:20:17Z</time>
<desc>lat.=44.495857, lon.=34.170162, Alt.=-15.050423m. Speed=2.412000m/h.</desc>
<speed>0.670000</speed>
</trkpt>
<trkpt lat="44.495831" lon="34.170124">
<ele>-15.494759</ele>
<time>2011-10-13T10:20:22Z</time>
<desc>lat.=44.495831, lon.=34.170124, Alt.=-15.494759m. Speed=0.756000m/h.</desc>
<speed>0.210000</speed>
</trkpt>
<trkpt lat="44.495865" lon="34.170151">
<ele>-15.196419</ele>
<time>2011-10-13T10:20:27Z</time>
<desc>lat.=44.495865, lon.=34.170151, Alt.=-15.196419m. Speed=3.060000m/h.</desc>
<speed>0.850000</speed>
</trkpt>
<trkpt lat="44.495869" lon="34.170158">
<ele>-15.339241</ele>
<time>2011-10-13T10:20:32Z</time>
<desc>lat.=44.495869, lon.=34.170158, Alt.=-15.339241m. Speed=0.360000m/h.</desc>
<speed>0.100000</speed>
</trkpt>
<trkpt lat="44.495880" lon="34.170158">
<ele>-15.479622</ele>
<time>2011-10-13T10:20:37Z</time>
<desc>lat.=44.495880, lon.=34.170158, Alt.=-15.479622m. Speed=0.072000m/h.</desc>
<speed>0.020000</speed>
</trkpt>
<trkpt lat="44.495888" lon="34.170155">
<ele>-15.592171</ele>
<time>2011-10-13T10:20:42Z</time>
<desc>lat.=44.495888, lon.=34.170155, Alt.=-15.592171m. Speed=0.216000m/h.</desc>
<speed>0.060000</speed>
</trkpt>
<trkpt lat="44.495888" lon="34.170155">
<ele>-15.576057</ele>
<time>2011-10-13T10:20:47Z</time>
<desc>lat.=44.495888, lon.=34.170155, Alt.=-15.576057m. Speed=0.000000m/h.</desc>
<speed>0.000000</speed>
</trkpt>
<trkpt lat="44.495888" lon="34.170155">
<ele>-15.616585</ele>
<time>2011-10-13T10:20:52Z</time>
<desc>lat.=44.495888, lon.=34.170155, Alt.=-15.616585m. Speed=0.144000m/h.</desc>
<speed>0.040000</speed>
</trkpt>
<trkpt lat="44.495884" lon="34.170151">
<ele>-15.592171</ele>
<time>2011-10-13T10:20:57Z</time>
<desc>lat.=44.495884, lon.=34.170151, Alt.=-15.592171m. Speed=0.180000m/h.</desc>
<speed>0.050000</speed>
</trkpt>
<trkpt lat="44.495880" lon="34.170151">
<ele>-15.621712</ele>
<time>2011-10-13T10:21:02Z</time>
<desc>lat.=44.495880, lon.=34.170151, Alt.=-15.621712m. Speed=0.396000m/h.</desc>
<speed>0.110000</speed>
</trkpt>
<trkpt lat="44.495895" lon="34.170143">
<ele>-15.294807</ele>
<time>2011-10-13T10:21:07Z</time>
<desc>lat.=44.495895, lon.=34.170143, Alt.=-15.294807m. Speed=2.556000m/h.</desc>
<speed>0.710000</speed>
</trkpt>
<trkpt lat="44.495850" lon="34.170040">
<ele>-14.051888</ele>
<time>2011-10-13T10:21:12Z</time>
<desc>lat.=44.495850, lon.=34.170040, Alt.=-14.051888m. Speed=7.956000m/h.</desc>
<speed>2.210000</speed>
</trkpt>
<trkpt lat="44.495766" lon="34.169964">
<ele>-13.286507</ele>
<time>2011-10-13T10:21:17Z</time>
<desc>lat.=44.495766, lon.=34.169964, Alt.=-13.286507m. Speed=8.100000m/h.</desc>
<speed>2.250000</speed>
</trkpt>
<trkpt lat="44.495735" lon="34.170040">
<ele>-13.843147</ele>
<time>2011-10-13T10:21:22Z</time>
<desc>lat.=44.495735, lon.=34.170040, Alt.=-13.843147m. Speed=5.616000m/h.</desc>
<speed>1.560000</speed>
</trkpt>
<trkpt lat="44.495720" lon="34.169899">
<ele>-12.647591</ele>
<time>2011-10-13T10:21:27Z</time>
<desc>lat.=44.495720, lon.=34.169899, Alt.=-12.647591m. Speed=8.964000m/h.</desc>
<speed>2.490000</speed>
</trkpt>
<trkpt lat="44.495682" lon="34.169846">
<ele>-13.291389</ele>
<time>2011-10-13T10:21:32Z</time>
<desc>lat.=44.495682, lon.=34.169846, Alt.=-13.291389m. Speed=2.484000m/h.</desc>
<speed>0.690000</speed>
</trkpt>
<trkpt lat="44.495678" lon="34.169849">
<ele>-14.261604</ele>
<time>2011-10-13T10:21:37Z</time>
<desc>lat.=44.495678, lon.=34.169849, Alt.=-14.261604m. Speed=0.216000m/h.</desc>
<speed>0.060000</speed>
</trkpt>
<trkpt lat="44.495674" lon="34.169853">
<ele>-14.503304</ele>
<time>2011-10-13T10:21:42Z</time>
<desc>lat.=44.495674, lon.=34.169853, Alt.=-14.503304m. Speed=0.108000m/h.</desc>
<speed>0.030000</speed>
</trkpt>
<trkpt lat="44.495674" lon="34.169857">
<ele>-14.544563</ele>
<time>2011-10-13T10:21:47Z</time>
<desc>lat.=44.495674, lon.=34.169857, Alt.=-14.544563m. Speed=0.000000m/h.</desc>
<speed>0.000000</speed>
</trkpt>
<trkpt lat="44.495674" lon="34.169857">
<ele>-14.633919</ele>
<time>2011-10-13T10:21:52Z</time>
<desc>lat.=44.495674, lon.=34.169857, Alt.=-14.633919m. Speed=0.000000m/h.</desc>
<speed>0.000000</speed>
</trkpt>
<trkpt lat="44.495674" lon="34.169857">
<ele>-14.633675</ele>
<time>2011-10-13T10:21:57Z</time>
<desc>lat.=44.495674, lon.=34.169857, Alt.=-14.633675m. Speed=0.000000m/h.</desc>
<speed>0.000000</speed>
</trkpt>
<trkpt lat="44.495674" lon="34.169861">
<ele>-14.633675</ele>
<time>2011-10-13T10:22:02Z</time>
<desc>lat.=44.495674, lon.=34.169861, Alt.=-14.633675m. Speed=0.000000m/h.</desc>
<speed>0.000000</speed>
</trkpt>
<trkpt lat="44.495674" lon="34.169857">
<ele>-14.629524</ele>
<time>2011-10-13T10:22:07Z</time>
<desc>lat.=44.495674, lon.=34.169857, Alt.=-14.629524m. Speed=0.108000m/h.</desc>
<speed>0.030000</speed>
</trkpt>
<trkpt lat="44.495674" lon="34.169857">
<ele>-14.631233</ele>
<time>2011-10-13T10:22:12Z</time>
<desc>lat.=44.495674, lon.=34.169857, Alt.=-14.631233m. Speed=0.360000m/h.</desc>
<speed>0.100000</speed>
</trkpt>
<trkpt lat="44.495682" lon="34.169861">
<ele>-14.639046</ele>
<time>2011-10-13T10:22:17Z</time>
<desc>lat.=44.495682, lon.=34.169861, Alt.=-14.639046m. Speed=1.836000m/h.</desc>
<speed>0.510000</speed>
</trkpt>
<trkpt lat="44.495697" lon="34.169868">
<ele>-14.567757</ele>
<time>2011-10-13T10:22:22Z</time>
<desc>lat.=44.495697, lon.=34.169868, Alt.=-14.567757m. Speed=1.548000m/h.</desc>
<speed>0.430000</speed>
</trkpt>
<trkpt lat="44.495766" lon="34.169960">
<ele>-14.767708</ele>
<time>2011-10-13T10:22:27Z</time>
<desc>lat.=44.495766, lon.=34.169960, Alt.=-14.767708m. Speed=10.800000m/h.</desc>
<speed>3.000000</speed>
</trkpt>
<trkpt lat="44.495869" lon="34.170090">
<ele>-15.166634</ele>
<time>2011-10-13T10:22:32Z</time>
<desc>lat.=44.495869, lon.=34.170090, Alt.=-15.166634m. Speed=9.288000m/h.</desc>
<speed>2.580000</speed>
</trkpt>
<trkpt lat="44.495907" lon="34.170116">
<ele>-14.369759</ele>
<time>2011-10-13T10:22:37Z</time>
<desc>lat.=44.495907, lon.=34.170116, Alt.=-14.369759m. Speed=0.576000m/h.</desc>
<speed>0.160000</speed>
</trkpt>
<trkpt lat="44.495911" lon="34.170116">
<ele>-14.254524</ele>
<time>2011-10-13T10:22:42Z</time>
<desc>lat.=44.495911, lon.=34.170116, Alt.=-14.254524m. Speed=0.072000m/h.</desc>
<speed>0.020000</speed>
</trkpt>
<trkpt lat="44.495911" lon="34.170109">
<ele>-14.363655</ele>
<time>2011-10-13T10:22:47Z</time>
<desc>lat.=44.495911, lon.=34.170109, Alt.=-14.363655m. Speed=0.180000m/h.</desc>
<speed>0.050000</speed>
</trkpt>
<trkpt lat="44.495911" lon="34.170113">
<ele>-14.346321</ele>
<time>2011-10-13T10:22:52Z</time>
<desc>lat.=44.495911, lon.=34.170113, Alt.=-14.346321m. Speed=0.036000m/h.</desc>
<speed>0.010000</speed>
</trkpt>
<trkpt lat="44.495914" lon="34.170113">
<ele>-14.371956</ele>
<time>2011-10-13T10:22:57Z</time>
<desc>lat.=44.495914, lon.=34.170113, Alt.=-14.371956m. Speed=0.432000m/h.</desc>
<speed>0.120000</speed>
</trkpt>
<trkpt lat="44.495918" lon="34.170116">
<ele>-14.335579</ele>
<time>2011-10-13T10:23:02Z</time>
<desc>lat.=44.495918, lon.=34.170116, Alt.=-14.335579m. Speed=0.576000m/h.</desc>
<speed>0.160000</speed>
</trkpt>
<trkpt lat="44.495911" lon="34.170113">
<ele>-13.957893</ele>
<time>2011-10-13T10:23:07Z</time>
<desc>lat.=44.495911, lon.=34.170113, Alt.=-13.957893m. Speed=0.504000m/h.</desc>
<speed>0.140000</speed>
</trkpt>
<trkpt lat="44.495911" lon="34.170116">
<ele>-13.852669</ele>
<time>2011-10-13T10:23:12Z</time>
<desc>lat.=44.495911, lon.=34.170116, Alt.=-13.852669m. Speed=0.576000m/h.</desc>
<speed>0.160000</speed>
</trkpt>
<trkpt lat="44.495911" lon="34.170116">
<ele>-13.793831</ele>
<time>2011-10-13T10:23:17Z</time>
<desc>lat.=44.495911, lon.=34.170116, Alt.=-13.793831m. Speed=0.036000m/h.</desc>
<speed>0.010000</speed>
</trkpt>
<trkpt lat="44.495911" lon="34.170116">
<ele>-13.798225</ele>
<time>2011-10-13T10:23:22Z</time>
<desc>lat.=44.495911, lon.=34.170116, Alt.=-13.798225m. Speed=0.360000m/h.</desc>
<speed>0.100000</speed>
</trkpt>
<trkpt lat="44.495899" lon="34.170128">
<ele>-13.723763</ele>
<time>2011-10-13T10:23:27Z</time>
<desc>lat.=44.495899, lon.=34.170128, Alt.=-13.723763m. Speed=1.368000m/h.</desc>
<speed>0.380000</speed>
</trkpt>
<trkpt lat="44.495892" lon="34.170139">
<ele>-13.856575</ele>
<time>2011-10-13T10:23:32Z</time>
<desc>lat.=44.495892, lon.=34.170139, Alt.=-13.856575m. Speed=0.468000m/h.</desc>
<speed>0.130000</speed>
</trkpt>
<trkpt lat="44.495888" lon="34.170135">
<ele>-14.073372</ele>
<time>2011-10-13T10:23:37Z</time>
<desc>lat.=44.495888, lon.=34.170135, Alt.=-14.073372m. Speed=0.036000m/h.</desc>
<speed>0.010000</speed>
</trkpt>
<trkpt lat="44.495888" lon="34.170135">
<ele>-14.086311</ele>
<time>2011-10-13T10:23:42Z</time>
<desc>lat.=44.495888, lon.=34.170135, Alt.=-14.086311m. Speed=0.000000m/h.</desc>
<speed>0.000000</speed>
</trkpt>
<trkpt lat="44.495888" lon="34.170135">
<ele>-14.076057</ele>
<time>2011-10-13T10:23:47Z</time>
<desc>lat.=44.495888, lon.=34.170135, Alt.=-14.076057m. Speed=0.324000m/h.</desc>
<speed>0.090000</speed>
</trkpt>
<trkpt lat="44.495892" lon="34.170135">
<ele>-14.090950</ele>
<time>2011-10-13T10:23:52Z</time>
<desc>lat.=44.495892, lon.=34.170135, Alt.=-14.090950m. Speed=0.108000m/h.</desc>
<speed>0.030000</speed>
</trkpt>
<trkpt lat="44.495892" lon="34.170135">
<ele>-14.040901</ele>
<time>2011-10-13T10:23:57Z</time>
<desc>lat.=44.495892, lon.=34.170135, Alt.=-14.040901m. Speed=0.108000m/h.</desc>
<speed>0.030000</speed>
</trkpt>
<trkpt lat="44.495892" lon="34.170135">
<ele>-14.032356</ele>
<time>2011-10-13T10:24:02Z</time>
<desc>lat.=44.495892, lon.=34.170135, Alt.=-14.032356m. Speed=0.000000m/h.</desc>
<speed>0.000000</speed>
</trkpt>
<trkpt lat="44.495892" lon="34.170135">
<ele>-14.019905</ele>
<time>2011-10-13T10:24:07Z</time>
<desc>lat.=44.495892, lon.=34.170135, Alt.=-14.019905m. Speed=0.288000m/h.</desc>
<speed>0.080000</speed>
</trkpt>
<trkpt lat="44.495892" lon="34.170135">
<ele>-14.017708</ele>
<time>2011-10-13T10:24:12Z</time>
<desc>lat.=44.495892, lon.=34.170135, Alt.=-14.017708m. Speed=0.036000m/h.</desc>
<speed>0.010000</speed>
</trkpt>
<trkpt lat="44.495892" lon="34.170135">
<ele>-14.010139</ele>
<time>2011-10-13T10:24:17Z</time>
<desc>lat.=44.495892, lon.=34.170135, Alt.=-14.010139m. Speed=0.000000m/h.</desc>
<speed>0.000000</speed>
</trkpt>
<trkpt lat="44.495892" lon="34.170135">
<ele>-14.004524</ele>
<time>2011-10-13T10:24:22Z</time>
<desc>lat.=44.495892, lon.=34.170135, Alt.=-14.004524m. Speed=0.108000m/h.</desc>
<speed>0.030000</speed>
</trkpt>
<trkpt lat="44.495892" lon="34.170135">
<ele>-13.999397</ele>
<time>2011-10-13T10:24:27Z</time>
<desc>lat.=44.495892, lon.=34.170135, Alt.=-13.999397m. Speed=0.036000m/h.</desc>
<speed>0.010000</speed>
</trkpt>
<trkpt lat="44.495892" lon="34.170135">
<ele>-13.994759</ele>
<time>2011-10-13T10:24:32Z</time>
<desc>lat.=44.495892, lon.=34.170135, Alt.=-13.994759m. Speed=0.036000m/h.</desc>
<speed>0.010000</speed>
</trkpt>
<trkpt lat="44.495892" lon="34.170135">
<ele>-13.996223</ele>
<time>2011-10-13T10:24:37Z</time>
<desc>lat.=44.495892, lon.=34.170135, Alt.=-13.996223m. Speed=0.000000m/h.</desc>
<speed>0.000000</speed>
</trkpt>
<trkpt lat="44.495892" lon="34.170135">
<ele>-13.993538</ele>
<time>2011-10-13T10:24:42Z</time>
<desc>lat.=44.495892, lon.=34.170135, Alt.=-13.993538m. Speed=0.036000m/h.</desc>
<speed>0.010000</speed>
</trkpt>
<trkpt lat="44.495892" lon="34.170135">
<ele>-13.990364</ele>
<time>2011-10-13T10:24:47Z</time>
<desc>lat.=44.495892, lon.=34.170135, Alt.=-13.990364m. Speed=0.036000m/h.</desc>
<speed>0.010000</speed>
</trkpt>
<trkpt lat="44.495888" lon="34.170135">
<ele>-13.986214</ele>
<time>2011-10-13T10:24:52Z</time>
<desc>lat.=44.495888, lon.=34.170135, Alt.=-13.986214m. Speed=0.432000m/h.</desc>
<speed>0.120000</speed>
</trkpt>
<trkpt lat="44.495892" lon="34.170135">
<ele>-14.009407</ele>
<time>2011-10-13T10:24:57Z</time>
<desc>lat.=44.495892, lon.=34.170135, Alt.=-14.009407m. Speed=0.000000m/h.</desc>
<speed>0.000000</speed>
</trkpt>
<trkpt lat="44.495892" lon="34.170135">
<ele>-14.007942</ele>
<time>2011-10-13T10:25:02Z</time>
<desc>lat.=44.495892, lon.=34.170135, Alt.=-14.007942m. Speed=0.036000m/h.</desc>
<speed>0.010000</speed>
</trkpt>
<trkpt lat="44.495892" lon="34.170135">
<ele>-14.010139</ele>
<time>2011-10-13T10:25:07Z</time>
<desc>lat.=44.495892, lon.=34.170135, Alt.=-14.010139m. Speed=0.072000m/h.</desc>
<speed>0.020000</speed>
</trkpt>
<trkpt lat="44.495892" lon="34.170135">
<ele>-14.019417</ele>
<time>2011-10-13T10:25:12Z</time>
<desc>lat.=44.495892, lon.=34.170135, Alt.=-14.019417m. Speed=0.036000m/h.</desc>
<speed>0.010000</speed>
</trkpt>
<trkpt lat="44.495892" lon="34.170135">
<ele>-14.023811</ele>
<time>2011-10-13T10:25:17Z</time>
<desc>lat.=44.495892, lon.=34.170135, Alt.=-14.023811m. Speed=0.000000m/h.</desc>
<speed>0.000000</speed>
</trkpt>
<trkpt lat="44.495892" lon="34.170135">
<ele>-14.018196</ele>
<time>2011-10-13T10:25:22Z</time>
<desc>lat.=44.495892, lon.=34.170135, Alt.=-14.018196m. Speed=0.036000m/h.</desc>
<speed>0.010000</speed>
</trkpt>
<trkpt lat="44.495892" lon="34.170135">
<ele>-14.013069</ele>
<time>2011-10-13T10:25:27Z</time>
<desc>lat.=44.495892, lon.=34.170135, Alt.=-14.013069m. Speed=0.072000m/h.</desc>
<speed>0.020000</speed>
</trkpt>
<trkpt lat="44.495892" lon="34.170135">
<ele>-14.006721</ele>
<time>2011-10-13T10:25:32Z</time>
<desc>lat.=44.495892, lon.=34.170135, Alt.=-14.006721m. Speed=3.060000m/h.</desc>
<speed>0.850000</speed>
</trkpt>
<trkpt lat="44.495914" lon="34.170132">
<ele>-13.951057</ele>
<time>2011-10-13T10:25:37Z</time>
<desc>lat.=44.495914, lon.=34.170132, Alt.=-13.951057m. Speed=0.036000m/h.</desc>
<speed>0.010000</speed>
</trkpt>
<trkpt lat="44.495918" lon="34.170132">
<ele>-13.610481</ele>
<time>2011-10-13T10:25:42Z</time>
<desc>lat.=44.495918, lon.=34.170132, Alt.=-13.610481m. Speed=0.648000m/h.</desc>
<speed>0.180000</speed>
</trkpt>
<trkpt lat="44.495918" lon="34.170135">
<ele>-13.308235</ele>
<time>2011-10-13T10:25:47Z</time>
<desc>lat.=44.495918, lon.=34.170135, Alt.=-13.308235m. Speed=0.180000m/h.</desc>
<speed>0.050000</speed>
</trkpt>
<trkpt lat="44.495918" lon="34.170135">
<ele>-13.288216</ele>
<time>2011-10-13T10:25:52Z</time>
<desc>lat.=44.495918, lon.=34.170135, Alt.=-13.288216m. Speed=0.036000m/h.</desc>
<speed>0.010000</speed>
</trkpt>
<trkpt lat="44.495918" lon="34.170135">
<ele>-13.294319</ele>
<time>2011-10-13T10:25:57Z</time>
<desc>lat.=44.495918, lon.=34.170135, Alt.=-13.294319m. Speed=0.036000m/h.</desc>
<speed>0.010000</speed>
</trkpt>
<trkpt lat="44.495918" lon="34.170135">
<ele>-13.296761</ele>
<time>2011-10-13T10:26:02Z</time>
<desc>lat.=44.495918, lon.=34.170135, Alt.=-13.296761m. Speed=0.036000m/h.</desc>
<speed>0.010000</speed>
</trkpt>
<trkpt lat="44.495918" lon="34.170135">
<ele>-13.302132</ele>
<time>2011-10-13T10:26:07Z</time>
<desc>lat.=44.495918, lon.=34.170135, Alt.=-13.302132m. Speed=0.000000m/h.</desc>
<speed>0.000000</speed>
</trkpt>
<trkpt lat="44.495918" lon="34.170135">
<ele>-13.320198</ele>
<time>2011-10-13T10:26:12Z</time>
<desc>lat.=44.495918, lon.=34.170135, Alt.=-13.320198m. Speed=0.000000m/h.</desc>
<speed>0.000000</speed>
</trkpt>
<trkpt lat="44.495918" lon="34.170135">
<ele>-13.327522</ele>
<time>2011-10-13T10:26:17Z</time>
<desc>lat.=44.495918, lon.=34.170135, Alt.=-13.327522m. Speed=0.576000m/h.</desc>
<speed>0.160000</speed>
</trkpt>
<trkpt lat="44.495918" lon="34.170135">
<ele>-13.426399</ele>
<time>2011-10-13T10:26:22Z</time>
<desc>lat.=44.495918, lon.=34.170135, Alt.=-13.426399m. Speed=0.036000m/h.</desc>
<speed>0.010000</speed>
</trkpt>
<trkpt lat="44.495918" lon="34.170135">
<ele>-13.427620</ele>
<time>2011-10-13T10:26:27Z</time>
<desc>lat.=44.495918, lon.=34.170135, Alt.=-13.427620m. Speed=0.144000m/h.</desc>
<speed>0.040000</speed>
</trkpt>
<trkpt lat="44.495918" lon="34.170135">
<ele>-13.426643</ele>
<time>2011-10-13T10:26:32Z</time>
<desc>lat.=44.495918, lon.=34.170135, Alt.=-13.426643m. Speed=0.072000m/h.</desc>
<speed>0.020000</speed>
</trkpt>
<trkpt lat="44.495914" lon="34.170139">
<ele>-13.426888</ele>
<time>2011-10-13T10:26:37Z</time>
<desc>lat.=44.495914, lon.=34.170139, Alt.=-13.426888m. Speed=0.000000m/h.</desc>
<speed>0.000000</speed>
</trkpt>
<trkpt lat="44.495914" lon="34.170139">
<ele>-13.428352</ele>
<time>2011-10-13T10:26:42Z</time>
<desc>lat.=44.495914, lon.=34.170139, Alt.=-13.428352m. Speed=0.000000m/h.</desc>
<speed>0.000000</speed>
</trkpt>
<trkpt lat="44.495914" lon="34.170143">
<ele>-13.427620</ele>
<time>2011-10-13T10:26:47Z</time>
<desc>lat.=44.495914, lon.=34.170143, Alt.=-13.427620m. Speed=0.540000m/h.</desc>
<speed>0.150000</speed>
</trkpt>
<trkpt lat="44.495918" lon="34.170155">
<ele>-13.417610</ele>
<time>2011-10-13T10:26:52Z</time>
<desc>lat.=44.495918, lon.=34.170155, Alt.=-13.417610m. Speed=0.504000m/h.</desc>
<speed>0.140000</speed>
</trkpt>
<trkpt lat="44.495922" lon="34.170162">
<ele>-13.419807</ele>
<time>2011-10-13T10:26:57Z</time>
<desc>lat.=44.495922, lon.=34.170162, Alt.=-13.419807m. Speed=0.468000m/h.</desc>
<speed>0.130000</speed>
</trkpt>
<trkpt lat="44.495926" lon="34.170170">
<ele>-13.413704</ele>
<time>2011-10-13T10:27:02Z</time>
<desc>lat.=44.495926, lon.=34.170170, Alt.=-13.413704m. Speed=0.468000m/h.</desc>
<speed>0.130000</speed>
</trkpt>
<trkpt lat="44.495930" lon="34.170177">
<ele>-13.407356</ele>
<time>2011-10-13T10:27:07Z</time>
<desc>lat.=44.495930, lon.=34.170177, Alt.=-13.407356m. Speed=0.432000m/h.</desc>
<speed>0.120000</speed>
</trkpt>
<trkpt lat="44.495934" lon="34.170181">
<ele>-13.401497</ele>
<time>2011-10-13T10:27:12Z</time>
<desc>lat.=44.495934, lon.=34.170181, Alt.=-13.401497m. Speed=0.504000m/h.</desc>
<speed>0.140000</speed>
</trkpt>
<trkpt lat="44.495937" lon="34.170181">
<ele>-13.406136</ele>
<time>2011-10-13T10:27:17Z</time>
<desc>lat.=44.495937, lon.=34.170181, Alt.=-13.406136m. Speed=0.108000m/h.</desc>
<speed>0.030000</speed>
</trkpt>
<trkpt lat="44.495941" lon="34.170181">
<ele>-13.419807</ele>
<time>2011-10-13T10:27:22Z</time>
<desc>lat.=44.495941, lon.=34.170181, Alt.=-13.419807m. Speed=0.396000m/h.</desc>
<speed>0.110000</speed>
</trkpt>
<trkpt lat="44.495934" lon="34.170174">
<ele>-13.427132</ele>
<time>2011-10-13T10:27:27Z</time>
<desc>lat.=44.495934, lon.=34.170174, Alt.=-13.427132m. Speed=0.000000m/h.</desc>
<speed>0.000000</speed>
</trkpt>
<trkpt lat="44.495922" lon="34.170166">
<ele>-13.552620</ele>
<time>2011-10-13T10:27:32Z</time>
<desc>lat.=44.495922, lon.=34.170166, Alt.=-13.552620m. Speed=0.000000m/h.</desc>
<speed>0.000000</speed>
</trkpt>
<trkpt lat="44.495914" lon="34.170158">
<ele>-13.626350</ele>
<time>2011-10-13T10:27:37Z</time>
<desc>lat.=44.495914, lon.=34.170158, Alt.=-13.626350m. Speed=0.000000m/h.</desc>
<speed>0.000000</speed>
</trkpt>
<trkpt lat="44.495914" lon="34.170158">
<ele>-13.755745</ele>
<time>2011-10-13T10:27:42Z</time>
<desc>lat.=44.495914, lon.=34.170158, Alt.=-13.755745m. Speed=0.288000m/h.</desc>
<speed>0.080000</speed>
</trkpt>
<trkpt lat="44.495911" lon="34.170162">
<ele>-13.734505</ele>
<time>2011-10-13T10:27:47Z</time>
<desc>lat.=44.495911, lon.=34.170162, Alt.=-13.734505m. Speed=0.036000m/h.</desc>
<speed>0.010000</speed>
</trkpt>
<trkpt lat="44.495911" lon="34.170158">
<ele>-13.819954</ele>
<time>2011-10-13T10:27:52Z</time>
<desc>lat.=44.495911, lon.=34.170158, Alt.=-13.819954m. Speed=0.072000m/h.</desc>
<speed>0.020000</speed>
</trkpt>
<trkpt lat="44.495911" lon="34.170151">
<ele>-13.746712</ele>
<time>2011-10-13T10:27:57Z</time>
<desc>lat.=44.495911, lon.=34.170151, Alt.=-13.746712m. Speed=0.036000m/h.</desc>
<speed>0.010000</speed>
</trkpt>
<trkpt lat="44.495914" lon="34.170143">
<ele>-14.415169</ele>
<time>2011-10-13T10:28:02Z</time>
<desc>lat.=44.495914, lon.=34.170143, Alt.=-14.415169m. Speed=0.000000m/h.</desc>
<speed>0.000000</speed>
</trkpt>
<trkpt lat="44.495922" lon="34.170143">
<ele>-14.620979</ele>
<time>2011-10-13T10:28:07Z</time>
<desc>lat.=44.495922, lon.=34.170143, Alt.=-14.620979m. Speed=0.036000m/h.</desc>
<speed>0.010000</speed>
</trkpt>
<trkpt lat="44.495922" lon="34.170143">
<ele>-14.771858</ele>
<time>2011-10-13T10:28:12Z</time>
<desc>lat.=44.495922, lon.=34.170143, Alt.=-14.771858m. Speed=0.108000m/h.</desc>
<speed>0.030000</speed>
</trkpt>
<trkpt lat="44.495922" lon="34.170143">
<ele>-14.770638</ele>
<time>2011-10-13T10:28:17Z</time>
<desc>lat.=44.495922, lon.=34.170143, Alt.=-14.770638m. Speed=0.036000m/h.</desc>
<speed>0.010000</speed>
</trkpt>
<trkpt lat="44.495922" lon="34.170147">
<ele>-14.768929</ele>
<time>2011-10-13T10:28:22Z</time>
<desc>lat.=44.495922, lon.=34.170147, Alt.=-14.768929m. Speed=0.072000m/h.</desc>
<speed>0.020000</speed>
</trkpt>
<trkpt lat="44.495922" lon="34.170151">
<ele>-14.762337</ele>
<time>2011-10-13T10:28:27Z</time>
<desc>lat.=44.495922, lon.=34.170151, Alt.=-14.762337m. Speed=0.468000m/h.</desc>
<speed>0.130000</speed>
</trkpt>
<trkpt lat="44.495922" lon="34.170155">
<ele>-14.750862</ele>
<time>2011-10-13T10:28:32Z</time>
<desc>lat.=44.495922, lon.=34.170155, Alt.=-14.750862m. Speed=0.216000m/h.</desc>
<speed>0.060000</speed>
</trkpt>
<trkpt lat="44.495926" lon="34.170155">
<ele>-14.742561</ele>
<time>2011-10-13T10:28:37Z</time>
<desc>lat.=44.495926, lon.=34.170155, Alt.=-14.742561m. Speed=0.144000m/h.</desc>
<speed>0.040000</speed>
</trkpt>
<trkpt lat="44.495926" lon="34.170155">
<ele>-14.771126</ele>
<time>2011-10-13T10:28:42Z</time>
<desc>lat.=44.495926, lon.=34.170155, Alt.=-14.771126m. Speed=0.072000m/h.</desc>
<speed>0.020000</speed>
</trkpt>
<trkpt lat="44.495922" lon="34.170155">
<ele>-14.819466</ele>
<time>2011-10-13T10:28:47Z</time>
<desc>lat.=44.495922, lon.=34.170155, Alt.=-14.819466m. Speed=0.360000m/h.</desc>
<speed>0.100000</speed>
</trkpt>
<trkpt lat="44.495922" lon="34.170158">
<ele>-14.905403</ele>
<time>2011-10-13T10:28:52Z</time>
<desc>lat.=44.495922, lon.=34.170158, Alt.=-14.905403m. Speed=0.396000m/h.</desc>
<speed>0.110000</speed>
</trkpt>
<trkpt lat="44.495926" lon="34.170181">
<ele>-14.735237</ele>
<time>2011-10-13T10:28:57Z</time>
<desc>lat.=44.495926, lon.=34.170181, Alt.=-14.735237m. Speed=1.224000m/h.</desc>
<speed>0.340000</speed>
</trkpt>
<trkpt lat="44.495922" lon="34.170185">
<ele>-14.565804</ele>
<time>2011-10-13T10:29:02Z</time>
<desc>lat.=44.495922, lon.=34.170185, Alt.=-14.565804m. Speed=1.872000m/h.</desc>
<speed>0.520000</speed>
</trkpt>
<trkpt lat="44.495930" lon="34.170185">
<ele>-14.538216</ele>
<time>2011-10-13T10:29:07Z</time>
<desc>lat.=44.495930, lon.=34.170185, Alt.=-14.538216m. Speed=0.504000m/h.</desc>
<speed>0.140000</speed>
</trkpt>
<trkpt lat="44.495941" lon="34.170170">
<ele>-15.290901</ele>
<time>2011-10-13T10:29:12Z</time>
<desc>lat.=44.495941, lon.=34.170170, Alt.=-15.290901m. Speed=1.296000m/h.</desc>
<speed>0.360000</speed>
</trkpt>
<trkpt lat="44.495949" lon="34.170166">
<ele>-15.933235</ele>
<time>2011-10-13T10:29:17Z</time>
<desc>lat.=44.495949, lon.=34.170166, Alt.=-15.933235m. Speed=1.116000m/h.</desc>
<speed>0.310000</speed>
</trkpt>
<trkpt lat="44.495926" lon="34.170158">
<ele>-16.503677</ele>
<time>2011-10-13T10:29:22Z</time>
<desc>lat.=44.495926, lon.=34.170158, Alt.=-16.503677m. Speed=1.296000m/h.</desc>
<speed>0.360000</speed>
</trkpt>
<trkpt lat="44.495926" lon="34.170158">
<ele>-16.741470</ele>
<time>2011-10-13T10:29:27Z</time>
<desc>lat.=44.495926, lon.=34.170158, Alt.=-16.741470m. Speed=0.648000m/h.</desc>
<speed>0.180000</speed>
</trkpt>
<trkpt lat="44.495930" lon="34.170158">
<ele>-16.941666</ele>
<time>2011-10-13T10:29:32Z</time>
<desc>lat.=44.495930, lon.=34.170158, Alt.=-16.941666m. Speed=1.944000m/h.</desc>
<speed>0.540000</speed>
</trkpt>
<trkpt lat="44.495914" lon="34.170162">
<ele>-17.651138</ele>
<time>2011-10-13T10:29:37Z</time>
<desc>lat.=44.495914, lon.=34.170162, Alt.=-17.651138m. Speed=0.360000m/h.</desc>
<speed>0.100000</speed>
</trkpt>
<trkpt lat="44.495911" lon="34.170166">
<ele>-18.295670</ele>
<time>2011-10-13T10:29:42Z</time>
<desc>lat.=44.495911, lon.=34.170166, Alt.=-18.295670m. Speed=0.648000m/h.</desc>
<speed>0.180000</speed>
</trkpt>
<trkpt lat="44.495903" lon="34.170151">
<ele>-17.740494</ele>
<time>2011-10-13T10:29:47Z</time>
<desc>lat.=44.495903, lon.=34.170151, Alt.=-17.740494m. Speed=0.864000m/h.</desc>
<speed>0.240000</speed>
</trkpt>
<trkpt lat="44.495903" lon="34.170151">
<ele>-17.737564</ele>
<time>2011-10-13T10:29:52Z</time>
<desc>lat.=44.495903, lon.=34.170151, Alt.=-17.737564m. Speed=0.864000m/h.</desc>
<speed>0.240000</speed>
</trkpt>
<trkpt lat="44.495907" lon="34.170158">
<ele>-17.796158</ele>
<time>2011-10-13T10:29:57Z</time>
<desc>lat.=44.495907, lon.=34.170158, Alt.=-17.796158m. Speed=0.648000m/h.</desc>
<speed>0.180000</speed>
</trkpt>
<trkpt lat="44.495914" lon="34.170166">
<ele>-17.840591</ele>
<time>2011-10-13T10:30:02Z</time>
<desc>lat.=44.495914, lon.=34.170166, Alt.=-17.840591m. Speed=0.396000m/h.</desc>
<speed>0.110000</speed>
</trkpt>
<trkpt lat="44.495922" lon="34.170185">
<ele>-17.887466</ele>
<time>2011-10-13T10:30:07Z</time>
<desc>lat.=44.495922, lon.=34.170185, Alt.=-17.887466m. Speed=1.476000m/h.</desc>
<speed>0.410000</speed>
</trkpt>
<trkpt lat="44.495911" lon="34.170162">
<ele>-17.885513</ele>
<time>2011-10-13T10:30:12Z</time>
<desc>lat.=44.495911, lon.=34.170162, Alt.=-17.885513m. Speed=0.720000m/h.</desc>
<speed>0.200000</speed>
</trkpt>
<trkpt lat="44.495911" lon="34.170158">
<ele>-17.948990</ele>
<time>2011-10-13T10:30:17Z</time>
<desc>lat.=44.495911, lon.=34.170158, Alt.=-17.948990m. Speed=0.576000m/h.</desc>
<speed>0.160000</speed>
</trkpt>
<trkpt lat="44.495926" lon="34.170155">
<ele>-17.783951</ele>
<time>2011-10-13T10:30:22Z</time>
<desc>lat.=44.495926, lon.=34.170155, Alt.=-17.783951m. Speed=0.396000m/h.</desc>
<speed>0.110000</speed>
</trkpt>
<trkpt lat="44.495937" lon="34.170151">
<ele>-17.629166</ele>
<time>2011-10-13T10:30:27Z</time>
<desc>lat.=44.495937, lon.=34.170151, Alt.=-17.629166m. Speed=1.116000m/h.</desc>
<speed>0.310000</speed>
</trkpt>
<trkpt lat="44.495926" lon="34.170170">
<ele>-18.347427</ele>
<time>2011-10-13T10:30:32Z</time>
<desc>lat.=44.495926, lon.=34.170170, Alt.=-18.347427m. Speed=0.540000m/h.</desc>
<speed>0.150000</speed>
</trkpt>
<trkpt lat="44.495922" lon="34.170189">
<ele>-18.011490</ele>
<time>2011-10-13T10:30:37Z</time>
<desc>lat.=44.495922, lon.=34.170189, Alt.=-18.011490m. Speed=1.512000m/h.</desc>
<speed>0.420000</speed>
</trkpt>
<trkpt lat="44.495918" lon="34.170181">
<ele>-17.237564</ele>
<time>2011-10-13T10:30:42Z</time>
<desc>lat.=44.495918, lon.=34.170181, Alt.=-17.237564m. Speed=1.332000m/h.</desc>
<speed>0.370000</speed>
</trkpt>
<trkpt lat="44.495911" lon="34.170200">
<ele>-17.492447</ele>
<time>2011-10-13T10:30:47Z</time>
<desc>lat.=44.495911, lon.=34.170200, Alt.=-17.492447m. Speed=0.936000m/h.</desc>
<speed>0.260000</speed>
</trkpt>
<trkpt lat="44.495895" lon="34.170212">
<ele>-16.618912</ele>
<time>2011-10-13T10:30:52Z</time>
<desc>lat.=44.495895, lon.=34.170212, Alt.=-16.618912m. Speed=0.972000m/h.</desc>
<speed>0.270000</speed>
</trkpt>
<trkpt lat="44.495899" lon="34.170212">
<ele>-15.902718</ele>
<time>2011-10-13T10:30:57Z</time>
<desc>lat.=44.495899, lon.=34.170212, Alt.=-15.902718m. Speed=0.648000m/h.</desc>
<speed>0.180000</speed>
</trkpt>
<trkpt lat="44.495907" lon="34.170197">
<ele>-16.149185</ele>
<time>2011-10-13T10:31:02Z</time>
<desc>lat.=44.495907, lon.=34.170197, Alt.=-16.149185m. Speed=1.656000m/h.</desc>
<speed>0.460000</speed>
</trkpt>
<trkpt lat="44.495907" lon="34.170197">
<ele>-16.217545</ele>
<time>2011-10-13T10:31:07Z</time>
<desc>lat.=44.495907, lon.=34.170197, Alt.=-16.217545m. Speed=0.360000m/h.</desc>
<speed>0.100000</speed>
</trkpt>
<trkpt lat="44.495899" lon="34.170185">
<ele>-15.653206</ele>
<time>2011-10-13T10:31:12Z</time>
<desc>lat.=44.495899, lon.=34.170185, Alt.=-15.653206m. Speed=0.288000m/h.</desc>
<speed>0.080000</speed>
</trkpt>
<trkpt lat="44.495907" lon="34.170181">
<ele>-15.194954</ele>
<time>2011-10-13T10:31:17Z</time>
<desc>lat.=44.495907, lon.=34.170181, Alt.=-15.194954m. Speed=0.360000m/h.</desc>
<speed>0.100000</speed>
</trkpt>
<trkpt lat="44.495911" lon="34.170181">
<ele>-15.150520</ele>
<time>2011-10-13T10:31:22Z</time>
<desc>lat.=44.495911, lon.=34.170181, Alt.=-15.150520m. Speed=0.540000m/h.</desc>
<speed>0.150000</speed>
</trkpt>
<trkpt lat="44.495918" lon="34.170185">
<ele>-15.007210</ele>
<time>2011-10-13T10:31:27Z</time>
<desc>lat.=44.495918, lon.=34.170185, Alt.=-15.007210m. Speed=0.828000m/h.</desc>
<speed>0.230000</speed>
</trkpt>
<trkpt lat="44.495922" lon="34.170189">
<ele>-14.844612</ele>
<time>2011-10-13T10:31:32Z</time>
<desc>lat.=44.495922, lon.=34.170189, Alt.=-14.844612m. Speed=0.288000m/h.</desc>
<speed>0.080000</speed>
</trkpt>
<trkpt lat="44.495922" lon="34.170193">
<ele>-14.843636</ele>
<time>2011-10-13T10:31:37Z</time>
<desc>lat.=44.495922, lon.=34.170193, Alt.=-14.843636m. Speed=0.360000m/h.</desc>
<speed>0.100000</speed>
</trkpt>
<trkpt lat="44.495926" lon="34.170193">
<ele>-14.929329</ele>
<time>2011-10-13T10:31:42Z</time>
<desc>lat.=44.495926, lon.=34.170193, Alt.=-14.929329m. Speed=0.180000m/h.</desc>
<speed>0.050000</speed>
</trkpt>
<trkpt lat="44.495934" lon="34.170193">
<ele>-14.676399</ele>
<time>2011-10-13T10:31:47Z</time>
<desc>lat.=44.495934, lon.=34.170193, Alt.=-14.676399m. Speed=1.980000m/h.</desc>
<speed>0.550000</speed>
</trkpt>
<trkpt lat="44.495945" lon="34.170189">
<ele>-14.360970</ele>
<time>2011-10-13T10:31:52Z</time>
<desc>lat.=44.495945, lon.=34.170189, Alt.=-14.360970m. Speed=1.800000m/h.</desc>
<speed>0.500000</speed>
</trkpt>
<trkpt lat="44.495949" lon="34.170158">
<ele>-13.911507</ele>
<time>2011-10-13T10:31:57Z</time>
<desc>lat.=44.495949, lon.=34.170158, Alt.=-13.911507m. Speed=2.160000m/h.</desc>
<speed>0.600000</speed>
</trkpt>
<trkpt lat="44.495956" lon="34.170124">
<ele>-14.363655</ele>
<time>2011-10-13T10:32:02Z</time>
<desc>lat.=44.495956, lon.=34.170124, Alt.=-14.363655m. Speed=0.936000m/h.</desc>
<speed>0.260000</speed>
</trkpt>
<trkpt lat="44.495953" lon="34.170116">
<ele>-14.211067</ele>
<time>2011-10-13T10:32:07Z</time>
<desc>lat.=44.495953, lon.=34.170116, Alt.=-14.211067m. Speed=0.648000m/h.</desc>
<speed>0.180000</speed>
</trkpt>
<trkpt lat="44.495945" lon="34.170116">
<ele>-13.988899</ele>
<time>2011-10-13T10:32:12Z</time>
<desc>lat.=44.495945, lon.=34.170116, Alt.=-13.988899m. Speed=0.792000m/h.</desc>
<speed>0.220000</speed>
</trkpt>
<trkpt lat="44.495941" lon="34.170113">
<ele>-13.932014</ele>
<time>2011-10-13T10:32:17Z</time>
<desc>lat.=44.495941, lon.=34.170113, Alt.=-13.932014m. Speed=0.468000m/h.</desc>
<speed>0.130000</speed>
</trkpt>
<trkpt lat="44.495934" lon="34.170116">
<ele>-14.014046</ele>
<time>2011-10-13T10:32:22Z</time>
<desc>lat.=44.495934, lon.=34.170116, Alt.=-14.014046m. Speed=0.648000m/h.</desc>
<speed>0.180000</speed>
</trkpt>
<trkpt lat="44.495937" lon="34.170113">
<ele>-14.190559</ele>
<time>2011-10-13T10:32:27Z</time>
<desc>lat.=44.495937, lon.=34.170113, Alt.=-14.190559m. Speed=1.152000m/h.</desc>
<speed>0.320000</speed>
</trkpt>
<trkpt lat="44.495941" lon="34.170113">
<ele>-14.422249</ele>
<time>2011-10-13T10:32:32Z</time>
<desc>lat.=44.495941, lon.=34.170113, Alt.=-14.422249m. Speed=0.900000m/h.</desc>
<speed>0.250000</speed>
</trkpt>
<trkpt lat="44.495930" lon="34.170124">
<ele>-14.511848</ele>
<time>2011-10-13T10:32:37Z</time>
<desc>lat.=44.495930, lon.=34.170124, Alt.=-14.511848m. Speed=2.700000m/h.</desc>
<speed>0.750000</speed>
</trkpt>
<trkpt lat="44.495922" lon="34.170128">
<ele>-14.510384</ele>
<time>2011-10-13T10:32:42Z</time>
<desc>lat.=44.495922, lon.=34.170128, Alt.=-14.510384m. Speed=1.368000m/h.</desc>
<speed>0.380000</speed>
</trkpt>
<trkpt lat="44.495941" lon="34.170132">
<ele>-14.013802</ele>
<time>2011-10-13T10:32:47Z</time>
<desc>lat.=44.495941, lon.=34.170132, Alt.=-14.013802m. Speed=0.432000m/h.</desc>
<speed>0.120000</speed>
</trkpt>
<trkpt lat="44.495941" lon="34.170128">
<ele>-13.836311</ele>
<time>2011-10-13T10:32:52Z</time>
<desc>lat.=44.495941, lon.=34.170128, Alt.=-13.836311m. Speed=0.216000m/h.</desc>
<speed>0.060000</speed>
</trkpt>
<trkpt lat="44.495941" lon="34.170124">
<ele>-13.851448</ele>
<time>2011-10-13T10:32:57Z</time>
<desc>lat.=44.495941, lon.=34.170124, Alt.=-13.851448m. Speed=0.036000m/h.</desc>
<speed>0.010000</speed>
</trkpt>
<trkpt lat="44.495941" lon="34.170124">
<ele>-13.942513</ele>
<time>2011-10-13T10:33:02Z</time>
<desc>lat.=44.495941, lon.=34.170124, Alt.=-13.942513m. Speed=0.252000m/h.</desc>
<speed>0.070000</speed>
</trkpt>
<trkpt lat="44.495941" lon="34.170132">
<ele>-13.967415</ele>
<time>2011-10-13T10:33:07Z</time>
<desc>lat.=44.495941, lon.=34.170132, Alt.=-13.967415m. Speed=0.036000m/h.</desc>
<speed>0.010000</speed>
</trkpt>
<trkpt lat="44.495918" lon="34.170124">
<ele>-15.795296</ele>
<time>2011-10-13T10:33:12Z</time>
<desc>lat.=44.495918, lon.=34.170124, Alt.=-15.795296m. Speed=1.224000m/h.</desc>
<speed>0.340000</speed>
</trkpt>
<trkpt lat="44.495914" lon="34.170120">
<ele>-15.902473</ele>
<time>2011-10-13T10:33:17Z</time>
<desc>lat.=44.495914, lon.=34.170120, Alt.=-15.902473m. Speed=0.612000m/h.</desc>
<speed>0.170000</speed>
</trkpt>
<trkpt lat="44.495918" lon="34.170120">
<ele>-16.455338</ele>
<time>2011-10-13T10:33:22Z</time>
<desc>lat.=44.495918, lon.=34.170120, Alt.=-16.455338m. Speed=0.072000m/h.</desc>
<speed>0.020000</speed>
</trkpt>
<trkpt lat="44.495922" lon="34.170124">
<ele>-16.062271</ele>
<time>2011-10-13T10:33:27Z</time>
<desc>lat.=44.495922, lon.=34.170124, Alt.=-16.062271m. Speed=0.396000m/h.</desc>
<speed>0.110000</speed>
</trkpt>
<trkpt lat="44.495926" lon="34.170124">
<ele>-15.519173</ele>
<time>2011-10-13T10:33:32Z</time>
<desc>lat.=44.495926, lon.=34.170124, Alt.=-15.519173m. Speed=0.360000m/h.</desc>
<speed>0.100000</speed>
</trkpt>
<trkpt lat="44.495922" lon="34.170120">
<ele>-15.538460</ele>
<time>2011-10-13T10:33:37Z</time>
<desc>lat.=44.495922, lon.=34.170120, Alt.=-15.538460m. Speed=0.468000m/h.</desc>
<speed>0.130000</speed>
</trkpt>
<trkpt lat="44.495926" lon="34.170124">
<ele>-15.771858</ele>
<time>2011-10-13T10:33:42Z</time>
<desc>lat.=44.495926, lon.=34.170124, Alt.=-15.771858m. Speed=0.144000m/h.</desc>
<speed>0.040000</speed>
</trkpt>
<trkpt lat="44.495926" lon="34.170124">
<ele>-15.865608</ele>
<time>2011-10-13T10:33:47Z</time>
<desc>lat.=44.495926, lon.=34.170124, Alt.=-15.865608m. Speed=0.288000m/h.</desc>
<speed>0.080000</speed>
</trkpt>
<trkpt lat="44.495926" lon="34.170124">
<ele>-15.787239</ele>
<time>2011-10-13T10:33:52Z</time>
<desc>lat.=44.495926, lon.=34.170124, Alt.=-15.787239m. Speed=0.360000m/h.</desc>
<speed>0.100000</speed>
</trkpt>
<trkpt lat="44.495930" lon="34.170132">
<ele>-15.368050</ele>
<time>2011-10-13T10:33:57Z</time>
<desc>lat.=44.495930, lon.=34.170132, Alt.=-15.368050m. Speed=0.036000m/h.</desc>
<speed>0.010000</speed>
</trkpt>
<trkpt lat="44.495930" lon="34.170128">
<ele>-15.252083</ele>
<time>2011-10-13T10:34:02Z</time>
<desc>lat.=44.495930, lon.=34.170128, Alt.=-15.252083m. Speed=0.756000m/h.</desc>
<speed>0.210000</speed>
</trkpt>
<trkpt lat="44.495934" lon="34.170135">
<ele>-15.082161</ele>
<time>2011-10-13T10:34:07Z</time>
<desc>lat.=44.495934, lon.=34.170135, Alt.=-15.082161m. Speed=0.000000m/h.</desc>
<speed>0.000000</speed>
</trkpt>
<trkpt lat="44.495945" lon="34.170139">
<ele>-14.790901</ele>
<time>2011-10-13T10:34:12Z</time>
<desc>lat.=44.495945, lon.=34.170139, Alt.=-14.790901m. Speed=0.288000m/h.</desc>
<speed>0.080000</speed>
</trkpt>
<trkpt lat="44.495956" lon="34.170147">
<ele>-13.886848</ele>
<time>2011-10-13T10:34:17Z</time>
<desc>lat.=44.495956, lon.=34.170147, Alt.=-13.886848m. Speed=0.360000m/h.</desc>
<speed>0.100000</speed>
</trkpt>
<trkpt lat="44.495964" lon="34.170155">
<ele>-13.644173</ele>
<time>2011-10-13T10:34:22Z</time>
<desc>lat.=44.495964, lon.=34.170155, Alt.=-13.644173m. Speed=0.000000m/h.</desc>
<speed>0.000000</speed>
</trkpt>
<trkpt lat="44.495953" lon="34.170158">
<ele>-13.995247</ele>
<time>2011-10-13T10:34:27Z</time>
<desc>lat.=44.495953, lon.=34.170158, Alt.=-13.995247m. Speed=0.360000m/h.</desc>
<speed>0.100000</speed>
</trkpt>
<trkpt lat="44.495937" lon="34.170151">
<ele>-12.318001</ele>
<time>2011-10-13T10:34:32Z</time>
<desc>lat.=44.495937, lon.=34.170151, Alt.=-12.318001m. Speed=1.404000m/h.</desc>
<speed>0.390000</speed>
</trkpt>
<trkpt lat="44.495918" lon="34.170132">
<ele>-12.695198</ele>
<time>2011-10-13T10:34:37Z</time>
<desc>lat.=44.495918, lon.=34.170132, Alt.=-12.695198m. Speed=0.792000m/h.</desc>
<speed>0.220000</speed>
</trkpt>
<trkpt lat="44.495899" lon="34.170120">
<ele>-12.710335</ele>
<time>2011-10-13T10:34:42Z</time>
<desc>lat.=44.495899, lon.=34.170120, Alt.=-12.710335m. Speed=0.576000m/h.</desc>
<speed>0.160000</speed>
</trkpt>
<trkpt lat="44.495899" lon="34.170097">
<ele>-12.490120</ele>
<time>2011-10-13T10:34:47Z</time>
<desc>lat.=44.495899, lon.=34.170097, Alt.=-12.490120m. Speed=0.144000m/h.</desc>
<speed>0.040000</speed>
</trkpt>
<trkpt lat="44.495895" lon="34.170094">
<ele>-12.726692</ele>
<time>2011-10-13T10:34:52Z</time>
<desc>lat.=44.495895, lon.=34.170094, Alt.=-12.726692m. Speed=0.288000m/h.</desc>
<speed>0.080000</speed>
</trkpt>
<trkpt lat="44.495903" lon="34.170067">
<ele>-13.015999</ele>
<time>2011-10-13T10:34:57Z</time>
<desc>lat.=44.495903, lon.=34.170067, Alt.=-13.015999m. Speed=3.132000m/h.</desc>
<speed>0.870000</speed>
</trkpt>
<trkpt lat="44.495880" lon="34.170052">
<ele>-14.577766</ele>
<time>2011-10-13T10:35:02Z</time>
<desc>lat.=44.495880, lon.=34.170052, Alt.=-14.577766m. Speed=3.204000m/h.</desc>
<speed>0.890000</speed>
</trkpt>
<trkpt lat="44.495834" lon="34.170025">
<ele>-15.958870</ele>
<time>2011-10-13T10:35:07Z</time>
<desc>lat.=44.495834, lon.=34.170025, Alt.=-15.958870m. Speed=4.716000m/h.</desc>
<speed>1.310000</speed>
</trkpt>
<trkpt lat="44.495796" lon="34.169975">
<ele>-16.945572</ele>
<time>2011-10-13T10:35:12Z</time>
<desc>lat.=44.495796, lon.=34.169975, Alt.=-16.945572m. Speed=4.932000m/h.</desc>
<speed>1.370000</speed>
</trkpt>
<trkpt lat="44.495770" lon="34.169899">
<ele>-17.701431</ele>
<time>2011-10-13T10:35:17Z</time>
<desc>lat.=44.495770, lon.=34.169899, Alt.=-17.701431m. Speed=5.580000m/h.</desc>
<speed>1.550000</speed>
</trkpt>
<trkpt lat="44.495728" lon="34.169781">
<ele>-18.688248</ele>
<time>2011-10-13T10:35:22Z</time>
<desc>lat.=44.495728, lon.=34.169781, Alt.=-18.688248m. Speed=7.848000m/h.</desc>
<speed>2.180000</speed>
</trkpt>
<trkpt lat="44.495701" lon="34.169628">
<ele>-18.864029</ele>
<time>2011-10-13T10:35:27Z</time>
<desc>lat.=44.495701, lon.=34.169628, Alt.=-18.864029m. Speed=9.180000m/h.</desc>
<speed>2.550000</speed>
</trkpt>
<trkpt lat="44.495663" lon="34.169460">
<ele>-18.488052</ele>
<time>2011-10-13T10:35:32Z</time>
<desc>lat.=44.495663, lon.=34.169460, Alt.=-18.488052m. Speed=10.944000m/h.</desc>
<speed>3.040000</speed>
</trkpt>
<trkpt lat="44.495636" lon="34.169254">
<ele>-18.815201</ele>
<time>2011-10-13T10:35:37Z</time>
<desc>lat.=44.495636, lon.=34.169254, Alt.=-18.815201m. Speed=11.052000m/h.</desc>
<speed>3.070000</speed>
</trkpt>
<trkpt lat="44.495613" lon="34.169060">
<ele>-18.342545</ele>
<time>2011-10-13T10:35:42Z</time>
<desc>lat.=44.495613, lon.=34.169060, Alt.=-18.342545m. Speed=9.756000m/h.</desc>
<speed>2.710000</speed>
</trkpt>
<trkpt lat="44.495602" lon="34.168900">
<ele>-17.826431</ele>
<time>2011-10-13T10:35:47Z</time>
<desc>lat.=44.495602, lon.=34.168900, Alt.=-17.826431m. Speed=7.776000m/h.</desc>
<speed>2.160000</speed>
</trkpt>
<trkpt lat="44.495586" lon="34.168739">
<ele>-17.350357</ele>
<time>2011-10-13T10:35:52Z</time>
<desc>lat.=44.495586, lon.=34.168739, Alt.=-17.350357m. Speed=10.944000m/h.</desc>
<speed>3.040000</speed>
</trkpt>
<trkpt lat="44.495548" lon="34.168552">
<ele>-17.291763</ele>
<time>2011-10-13T10:35:57Z</time>
<desc>lat.=44.495548, lon.=34.168552, Alt.=-17.291763m. Speed=9.396000m/h.</desc>
<speed>2.610000</speed>
</trkpt>
<trkpt lat="44.495480" lon="34.168419">
<ele>-17.668228</ele>
<time>2011-10-13T10:36:02Z</time>
<desc>lat.=44.495480, lon.=34.168419, Alt.=-17.668228m. Speed=8.712000m/h.</desc>
<speed>2.420000</speed>
</trkpt>
<trkpt lat="44.495403" lon="34.168301">
<ele>-18.489517</ele>
<time>2011-10-13T10:36:07Z</time>
<desc>lat.=44.495403, lon.=34.168301, Alt.=-18.489517m. Speed=8.964000m/h.</desc>
<speed>2.490000</speed>
</trkpt>
<trkpt lat="44.495338" lon="34.168201">
<ele>-19.393326</ele>
<time>2011-10-13T10:36:12Z</time>
<desc>lat.=44.495338, lon.=34.168201, Alt.=-19.393326m. Speed=8.244000m/h.</desc>
<speed>2.290000</speed>
</trkpt>
<trkpt lat="44.495281" lon="34.168102">
<ele>-18.476822</ele>
<time>2011-10-13T10:36:17Z</time>
<desc>lat.=44.495281, lon.=34.168102, Alt.=-18.476822m. Speed=8.028000m/h.</desc>
<speed>2.230000</speed>
</trkpt>
<trkpt lat="44.495197" lon="34.167976">
<ele>-18.016861</ele>
<time>2011-10-13T10:36:22Z</time>
<desc>lat.=44.495197, lon.=34.167976, Alt.=-18.016861m. Speed=10.080000m/h.</desc>
<speed>2.800000</speed>
</trkpt>
<trkpt lat="44.495121" lon="34.167858">
<ele>-17.339615</ele>
<time>2011-10-13T10:36:27Z</time>
<desc>lat.=44.495121, lon.=34.167858, Alt.=-17.339615m. Speed=8.280000m/h.</desc>
<speed>2.300000</speed>
</trkpt>
<trkpt lat="44.495060" lon="34.167744">
<ele>-17.441666</ele>
<time>2011-10-13T10:36:32Z</time>
<desc>lat.=44.495060, lon.=34.167744, Alt.=-17.441666m. Speed=9.252000m/h.</desc>
<speed>2.570000</speed>
</trkpt>
<trkpt lat="44.494991" lon="34.167603">
<ele>-17.297134</ele>
<time>2011-10-13T10:36:37Z</time>
<desc>lat.=44.494991, lon.=34.167603, Alt.=-17.297134m. Speed=8.964000m/h.</desc>
<speed>2.490000</speed>
</trkpt>
<trkpt lat="44.494938" lon="34.167496">
<ele>-18.307877</ele>
<time>2011-10-13T10:36:42Z</time>
<desc>lat.=44.494938, lon.=34.167496, Alt.=-18.307877m. Speed=6.660000m/h.</desc>
<speed>1.850000</speed>
</trkpt>
<trkpt lat="44.494919" lon="34.167416">
<ele>-18.306412</ele>
<time>2011-10-13T10:36:47Z</time>
<desc>lat.=44.494919, lon.=34.167416, Alt.=-18.306412m. Speed=3.276000m/h.</desc>
<speed>0.910000</speed>
</trkpt>
<trkpt lat="44.494919" lon="34.167366">
<ele>-18.932388</ele>
<time>2011-10-13T10:36:52Z</time>
<desc>lat.=44.494919, lon.=34.167366, Alt.=-18.932388m. Speed=2.196000m/h.</desc>
<speed>0.610000</speed>
</trkpt>
<trkpt lat="44.494934" lon="34.167351">
<ele>-20.651138</ele>
<time>2011-10-13T10:36:57Z</time>
<desc>lat.=44.494934, lon.=34.167351, Alt.=-20.651138m. Speed=1.908000m/h.</desc>
<speed>0.530000</speed>
</trkpt>
<trkpt lat="44.494957" lon="34.167343">
<ele>-22.535904</ele>
<time>2011-10-13T10:37:02Z</time>
<desc>lat.=44.494957, lon.=34.167343, Alt.=-22.535904m. Speed=2.952000m/h.</desc>
<speed>0.820000</speed>
</trkpt>
<trkpt lat="44.494957" lon="34.167343">
<ele>-23.609146</ele>
<time>2011-10-13T10:37:07Z</time>
<desc>lat.=44.494957, lon.=34.167343, Alt.=-23.609146m. Speed=1.764000m/h.</desc>
<speed>0.490000</speed>
</trkpt>
<trkpt lat="44.494961" lon="34.167336">
<ele>-23.628189</ele>
<time>2011-10-13T10:37:12Z</time>
<desc>lat.=44.494961, lon.=34.167336, Alt.=-23.628189m. Speed=1.728000m/h.</desc>
<speed>0.480000</speed>
</trkpt>
<trkpt lat="44.494972" lon="34.167324">
<ele>-22.933365</ele>
<time>2011-10-13T10:37:17Z</time>
<desc>lat.=44.494972, lon.=34.167324, Alt.=-22.933365m. Speed=1.656000m/h.</desc>
<speed>0.460000</speed>
</trkpt>
<trkpt lat="44.494923" lon="34.167263">
<ele>-20.269302</ele>
<time>2011-10-13T10:37:22Z</time>
<desc>lat.=44.494923, lon.=34.167263, Alt.=-20.269302m. Speed=8.640000m/h.</desc>
<speed>2.400000</speed>
</trkpt>
<trkpt lat="44.494827" lon="34.167160">
<ele>-18.805923</ele>
<time>2011-10-13T10:37:27Z</time>
<desc>lat.=44.494827, lon.=34.167160, Alt.=-18.805923m. Speed=6.804000m/h.</desc>
<speed>1.890000</speed>
</trkpt>
<trkpt lat="44.494812" lon="34.167118">
<ele>-18.845474</ele>
<time>2011-10-13T10:37:32Z</time>
<desc>lat.=44.494812, lon.=34.167118, Alt.=-18.845474m. Speed=0.972000m/h.</desc>
<speed>0.270000</speed>
</trkpt>
<trkpt lat="44.494808" lon="34.167118">
<ele>-19.248795</ele>
<time>2011-10-13T10:37:37Z</time>
<desc>lat.=44.494808, lon.=34.167118, Alt.=-19.248795m. Speed=0.180000m/h.</desc>
<speed>0.050000</speed>
</trkpt>
<trkpt lat="44.494808" lon="34.167114">
<ele>-19.344986</ele>
<time>2011-10-13T10:37:42Z</time>
<desc>lat.=44.494808, lon.=34.167114, Alt.=-19.344986m. Speed=0.036000m/h.</desc>
<speed>0.010000</speed>
</trkpt>
<trkpt lat="44.494808" lon="34.167114">
<ele>-19.412369</ele>
<time>2011-10-13T10:37:47Z</time>
<desc>lat.=44.494808, lon.=34.167114, Alt.=-19.412369m. Speed=0.324000m/h.</desc>
<speed>0.090000</speed>
</trkpt>
<trkpt lat="44.494804" lon="34.167088">
<ele>-19.151627</ele>
<time>2011-10-13T10:37:52Z</time>
<desc>lat.=44.494804, lon.=34.167088, Alt.=-19.151627m. Speed=3.708000m/h.</desc>
<speed>1.030000</speed>
</trkpt>
<trkpt lat="44.494755" lon="34.167019">
<ele>-18.459244</ele>
<time>2011-10-13T10:37:57Z</time>
<desc>lat.=44.494755, lon.=34.167019, Alt.=-18.459244m. Speed=6.228000m/h.</desc>
<speed>1.730000</speed>
</trkpt>
<trkpt lat="44.494717" lon="34.166935">
<ele>-17.685318</ele>
<time>2011-10-13T10:38:02Z</time>
<desc>lat.=44.494717, lon.=34.166935, Alt.=-17.685318m. Speed=6.660000m/h.</desc>
<speed>1.850000</speed>
</trkpt>
<trkpt lat="44.494682" lon="34.166859">
<ele>-17.148209</ele>
<time>2011-10-13T10:38:07Z</time>
<desc>lat.=44.494682, lon.=34.166859, Alt.=-17.148209m. Speed=2.448000m/h.</desc>
<speed>0.680000</speed>
</trkpt>
<trkpt lat="44.494701" lon="34.166824">
<ele>-17.507584</ele>
<time>2011-10-13T10:38:12Z</time>
<desc>lat.=44.494701, lon.=34.166824, Alt.=-17.507584m. Speed=4.032000m/h.</desc>
<speed>1.120000</speed>
</trkpt>
<trkpt lat="44.494682" lon="34.166794">
<ele>-17.357681</ele>
<time>2011-10-13T10:38:17Z</time>
<desc>lat.=44.494682, lon.=34.166794, Alt.=-17.357681m. Speed=5.004000m/h.</desc>
<speed>1.390000</speed>
</trkpt>
<trkpt lat="44.494652" lon="34.166782">
<ele>-16.911392</ele>
<time>2011-10-13T10:38:22Z</time>
<desc>lat.=44.494652, lon.=34.166782, Alt.=-16.911392m. Speed=3.744000m/h.</desc>
<speed>1.040000</speed>
</trkpt>
<trkpt lat="44.494606" lon="34.166767">
<ele>-16.535416</ele>
<time>2011-10-13T10:38:27Z</time>
<desc>lat.=44.494606, lon.=34.166767, Alt.=-16.535416m. Speed=2.700000m/h.</desc>
<speed>0.750000</speed>
</trkpt>
<trkpt lat="44.494644" lon="34.166744">
<ele>-16.931900</ele>
<time>2011-10-13T10:38:32Z</time>
<desc>lat.=44.494644, lon.=34.166744, Alt.=-16.931900m. Speed=4.428000m/h.</desc>
<speed>1.230000</speed>
</trkpt>
<trkpt lat="44.494652" lon="34.166767">
<ele>-17.146255</ele>
<time>2011-10-13T10:38:37Z</time>
<desc>lat.=44.494652, lon.=34.166767, Alt.=-17.146255m. Speed=2.232000m/h.</desc>
<speed>0.620000</speed>
</trkpt>
<trkpt lat="44.494610" lon="34.166729">
<ele>-17.347427</ele>
<time>2011-10-13T10:38:42Z</time>
<desc>lat.=44.494610, lon.=34.166729, Alt.=-17.347427m. Speed=5.904000m/h.</desc>
<speed>1.640000</speed>
</trkpt>
<trkpt lat="44.494564" lon="34.166679">
<ele>-16.785904</ele>
<time>2011-10-13T10:38:47Z</time>
<desc>lat.=44.494564, lon.=34.166679, Alt.=-16.785904m. Speed=3.996000m/h.</desc>
<speed>1.110000</speed>
</trkpt>
<trkpt lat="44.494514" lon="34.166618">
<ele>-15.951302</ele>
<time>2011-10-13T10:38:52Z</time>
<desc>lat.=44.494514, lon.=34.166618, Alt.=-15.951302m. Speed=5.184000m/h.</desc>
<speed>1.440000</speed>
</trkpt>
<trkpt lat="44.494457" lon="34.166573">
<ele>-15.519417</ele>
<time>2011-10-13T10:38:57Z</time>
<desc>lat.=44.494457, lon.=34.166573, Alt.=-15.519417m. Speed=6.372000m/h.</desc>
<speed>1.770000</speed>
</trkpt>
<trkpt lat="44.494404" lon="34.166500">
<ele>-15.444466</ele>
<time>2011-10-13T10:39:02Z</time>
<desc>lat.=44.494404, lon.=34.166500, Alt.=-15.444466m. Speed=5.616000m/h.</desc>
<speed>1.560000</speed>
</trkpt>
<trkpt lat="44.494335" lon="34.166466">
<ele>-14.890999</ele>
<time>2011-10-13T10:39:07Z</time>
<desc>lat.=44.494335, lon.=34.166466, Alt.=-14.890999m. Speed=7.740000m/h.</desc>
<speed>2.150000</speed>
</trkpt>
<trkpt lat="44.494255" lon="34.166367">
<ele>-14.580696</ele>
<time>2011-10-13T10:39:12Z</time>
<desc>lat.=44.494255, lon.=34.166367, Alt.=-14.580696m. Speed=9.432000m/h.</desc>
<speed>2.620000</speed>
</trkpt>
<trkpt lat="44.494171" lon="34.166283">
<ele>-12.866341</ele>
<time>2011-10-13T10:39:17Z</time>
<desc>lat.=44.494171, lon.=34.166283, Alt.=-12.866341m. Speed=8.424000m/h.</desc>
<speed>2.340000</speed>
</trkpt>
<trkpt lat="44.494091" lon="34.166199">
<ele>-11.850716</ele>
<time>2011-10-13T10:39:22Z</time>
<desc>lat.=44.494091, lon.=34.166199, Alt.=-11.850716m. Speed=8.208000m/h.</desc>
<speed>2.280000</speed>
</trkpt>
<trkpt lat="44.493999" lon="34.166111">
<ele>-10.703743</ele>
<time>2011-10-13T10:39:27Z</time>
<desc>lat.=44.493999, lon.=34.166111, Alt.=-10.703743m. Speed=9.036000m/h.</desc>
<speed>2.510000</speed>
</trkpt>
<trkpt lat="44.493900" lon="34.166016">
<ele>-10.208870</ele>
<time>2011-10-13T10:39:32Z</time>
<desc>lat.=44.493900, lon.=34.166016, Alt.=-10.208870m. Speed=9.144000m/h.</desc>
<speed>2.540000</speed>
</trkpt>
<trkpt lat="44.493805" lon="34.165920">
<ele>-9.811653</ele>
<time>2011-10-13T10:39:37Z</time>
<desc>lat.=44.493805, lon.=34.165920, Alt.=-9.811653m. Speed=9.144000m/h.</desc>
<speed>2.540000</speed>
</trkpt>
<trkpt lat="44.493721" lon="34.165821">
<ele>-9.653938</ele>
<time>2011-10-13T10:39:42Z</time>
<desc>lat.=44.493721, lon.=34.165821, Alt.=-9.653938m. Speed=8.316000m/h.</desc>
<speed>2.310000</speed>
</trkpt>
<trkpt lat="44.493633" lon="34.165730">
<ele>-9.822151</ele>
<time>2011-10-13T10:39:47Z</time>
<desc>lat.=44.493633, lon.=34.165730, Alt.=-9.822151m. Speed=9.504000m/h.</desc>
<speed>2.640000</speed>
</trkpt>
<trkpt lat="44.493542" lon="34.165646">
<ele>-10.627083</ele>
<time>2011-10-13T10:39:52Z</time>
<desc>lat.=44.493542, lon.=34.165646, Alt.=-10.627083m. Speed=5.976000m/h.</desc>
<speed>1.660000</speed>
</trkpt>
<trkpt lat="44.493534" lon="34.165596">
<ele>-13.059700</ele>
<time>2011-10-13T10:39:57Z</time>
<desc>lat.=44.493534, lon.=34.165596, Alt.=-13.059700m. Speed=2.808000m/h.</desc>
<speed>0.780000</speed>
</trkpt>
<trkpt lat="44.493534" lon="34.165565">
<ele>-13.429329</ele>
<time>2011-10-13T10:40:02Z</time>
<desc>lat.=44.493534, lon.=34.165565, Alt.=-13.429329m. Speed=0.072000m/h.</desc>
<speed>0.020000</speed>
</trkpt>
<trkpt lat="44.493530" lon="34.165558">
<ele>-13.897591</ele>
<time>2011-10-13T10:40:07Z</time>
<desc>lat.=44.493530, lon.=34.165558, Alt.=-13.897591m. Speed=0.036000m/h.</desc>
<speed>0.010000</speed>
</trkpt>
<trkpt lat="44.493572" lon="34.165600">
<ele>-13.512825</ele>
<time>2011-10-13T10:40:12Z</time>
<desc>lat.=44.493572, lon.=34.165600, Alt.=-13.512825m. Speed=10.116000m/h.</desc>
<speed>2.810000</speed>
</trkpt>
<trkpt lat="44.493652" lon="34.165657">
<ele>-13.295540</ele>
<time>2011-10-13T10:40:17Z</time>
<desc>lat.=44.493652, lon.=34.165657, Alt.=-13.295540m. Speed=4.644000m/h.</desc>
<speed>1.290000</speed>
</trkpt>
<trkpt lat="44.493683" lon="34.165653">
<ele>-13.266243</ele>
<time>2011-10-13T10:40:22Z</time>
<desc>lat.=44.493683, lon.=34.165653, Alt.=-13.266243m. Speed=0.144000m/h.</desc>
<speed>0.040000</speed>
</trkpt>
<trkpt lat="44.493683" lon="34.165653">
<ele>-13.332893</ele>
<time>2011-10-13T10:40:27Z</time>
<desc>lat.=44.493683, lon.=34.165653, Alt.=-13.332893m. Speed=0.036000m/h.</desc>
<speed>0.010000</speed>
</trkpt>
<trkpt lat="44.493690" lon="34.165649">
<ele>-13.312630</ele>
<time>2011-10-13T10:40:32Z</time>
<desc>lat.=44.493690, lon.=34.165649, Alt.=-13.312630m. Speed=0.576000m/h.</desc>
<speed>0.160000</speed>
</trkpt>
<trkpt lat="44.493698" lon="34.165657">
<ele>-14.633430</ele>
<time>2011-10-13T10:40:37Z</time>
<desc>lat.=44.493698, lon.=34.165657, Alt.=-14.633430m. Speed=0.144000m/h.</desc>
<speed>0.040000</speed>
</trkpt>
<trkpt lat="44.493702" lon="34.165661">
<ele>-15.742805</ele>
<time>2011-10-13T10:40:42Z</time>
<desc>lat.=44.493702, lon.=34.165661, Alt.=-15.742805m. Speed=0.036000m/h.</desc>
<speed>0.010000</speed>
</trkpt>
<trkpt lat="44.493702" lon="34.165661">
<ele>-16.020767</ele>
<time>2011-10-13T10:40:47Z</time>
<desc>lat.=44.493702, lon.=34.165661, Alt.=-16.020767m. Speed=0.000000m/h.</desc>
<speed>0.000000</speed>
</trkpt>
<trkpt lat="44.493702" lon="34.165668">
<ele>-16.257095</ele>
<time>2011-10-13T10:40:52Z</time>
<desc>lat.=44.493702, lon.=34.165668, Alt.=-16.257095m. Speed=0.000000m/h.</desc>
<speed>0.000000</speed>
</trkpt>
<trkpt lat="44.493694" lon="34.165665">
<ele>-16.650162</ele>
<time>2011-10-13T10:40:57Z</time>
<desc>lat.=44.493694, lon.=34.165665, Alt.=-16.650162m. Speed=0.036000m/h.</desc>
<speed>0.010000</speed>
</trkpt>
<trkpt lat="44.493690" lon="34.165661">
<ele>-16.580826</ele>
<time>2011-10-13T10:41:02Z</time>
<desc>lat.=44.493690, lon.=34.165661, Alt.=-16.580826m. Speed=0.072000m/h.</desc>
<speed>0.020000</speed>
</trkpt>
<trkpt lat="44.493683" lon="34.165661">
<ele>-16.417252</ele>
<time>2011-10-13T10:41:07Z</time>
<desc>lat.=44.493683, lon.=34.165661, Alt.=-16.417252m. Speed=0.072000m/h.</desc>
<speed>0.020000</speed>
</trkpt>
<trkpt lat="44.493675" lon="34.165661">
<ele>-16.304947</ele>
<time>2011-10-13T10:41:12Z</time>
<desc>lat.=44.493675, lon.=34.165661, Alt.=-16.304947m. Speed=0.072000m/h.</desc>
<speed>0.020000</speed>
</trkpt>
<trkpt lat="44.493683" lon="34.165661">
<ele>-16.365005</ele>
<time>2011-10-13T10:41:17Z</time>
<desc>lat.=44.493683, lon.=34.165661, Alt.=-16.365005m. Speed=0.000000m/h.</desc>
<speed>0.000000</speed>
</trkpt>
<trkpt lat="44.493687" lon="34.165665">
<ele>-16.442154</ele>
<time>2011-10-13T10:41:22Z</time>
<desc>lat.=44.493687, lon.=34.165665, Alt.=-16.442154m. Speed=0.036000m/h.</desc>
<speed>0.010000</speed>
</trkpt>
<trkpt lat="44.493690" lon="34.165665">
<ele>-16.397232</ele>
<time>2011-10-13T10:41:27Z</time>
<desc>lat.=44.493690, lon.=34.165665, Alt.=-16.397232m. Speed=0.000000m/h.</desc>
<speed>0.000000</speed>
</trkpt>
<trkpt lat="44.493690" lon="34.165665">
<ele>-16.373795</ele>
<time>2011-10-13T10:41:32Z</time>
<desc>lat.=44.493690, lon.=34.165665, Alt.=-16.373795m. Speed=0.036000m/h.</desc>
<speed>0.010000</speed>
</trkpt>
<trkpt lat="44.493694" lon="34.165668">
<ele>-16.401138</ele>
<time>2011-10-13T10:41:37Z</time>
<desc>lat.=44.493694, lon.=34.165668, Alt.=-16.401138m. Speed=0.000000m/h.</desc>
<speed>0.000000</speed>
</trkpt>
<trkpt lat="44.493694" lon="34.165672">
<ele>-16.321548</ele>
<time>2011-10-13T10:41:42Z</time>
<desc>lat.=44.493694, lon.=34.165672, Alt.=-16.321548m. Speed=0.252000m/h.</desc>
<speed>0.070000</speed>
</trkpt>
<trkpt lat="44.493706" lon="34.165672">
<ele>-16.137466</ele>
<time>2011-10-13T10:41:47Z</time>
<desc>lat.=44.493706, lon.=34.165672, Alt.=-16.137466m. Speed=0.324000m/h.</desc>
<speed>0.090000</speed>
</trkpt>
<trkpt lat="44.493717" lon="34.165676">
<ele>-16.228775</ele>
<time>2011-10-13T10:41:52Z</time>
<desc>lat.=44.493717, lon.=34.165676, Alt.=-16.228775m. Speed=0.324000m/h.</desc>
<speed>0.090000</speed>
</trkpt>
<trkpt lat="44.493710" lon="34.165665">
<ele>-16.376724</ele>
<time>2011-10-13T10:41:57Z</time>
<desc>lat.=44.493710, lon.=34.165665, Alt.=-16.376724m. Speed=0.108000m/h.</desc>
<speed>0.030000</speed>
</trkpt>
<trkpt lat="44.493706" lon="34.165668">
<ele>-16.288345</ele>
<time>2011-10-13T10:42:02Z</time>
<desc>lat.=44.493706, lon.=34.165668, Alt.=-16.288345m. Speed=0.144000m/h.</desc>
<speed>0.040000</speed>
</trkpt>
<trkpt lat="44.493706" lon="34.165672">
<ele>-16.140884</ele>
<time>2011-10-13T10:42:07Z</time>
<desc>lat.=44.493706, lon.=34.165672, Alt.=-16.140884m. Speed=0.072000m/h.</desc>
<speed>0.020000</speed>
</trkpt>
<trkpt lat="44.493706" lon="34.165672">
<ele>-16.543228</ele>
<time>2011-10-13T10:42:12Z</time>
<desc>lat.=44.493706, lon.=34.165672, Alt.=-16.543228m. Speed=0.036000m/h.</desc>
<speed>0.010000</speed>
</trkpt>
<trkpt lat="44.493706" lon="34.165672">
<ele>-16.952896</ele>
<time>2011-10-13T10:42:17Z</time>
<desc>lat.=44.493706, lon.=34.165672, Alt.=-16.952896m. Speed=0.000000m/h.</desc>
<speed>0.000000</speed>
</trkpt>
<trkpt lat="44.493706" lon="34.165676">
<ele>-17.021744</ele>
<time>2011-10-13T10:42:22Z</time>
<desc>lat.=44.493706, lon.=34.165676, Alt.=-17.021744m. Speed=0.036000m/h.</desc>
<speed>0.010000</speed>
</trkpt>
<trkpt lat="44.493706" lon="34.165676">
<ele>-16.873795</ele>
<time>2011-10-13T10:42:27Z</time>
<desc>lat.=44.493706, lon.=34.165676, Alt.=-16.873795m. Speed=0.000000m/h.</desc>
<speed>0.000000</speed>
</trkpt>
<trkpt lat="44.493706" lon="34.165680">
<ele>-16.901627</ele>
<time>2011-10-13T10:42:32Z</time>
<desc>lat.=44.493706, lon.=34.165680, Alt.=-16.901627m. Speed=0.036000m/h.</desc>
<speed>0.010000</speed>
</trkpt>
<trkpt lat="44.493702" lon="34.165680">
<ele>-16.719986</ele>
<time>2011-10-13T10:42:37Z</time>
<desc>lat.=44.493702, lon.=34.165680, Alt.=-16.719986m. Speed=0.000000m/h.</desc>
<speed>0.000000</speed>
</trkpt>
<trkpt lat="44.493702" lon="34.165684">
<ele>-16.416275</ele>
<time>2011-10-13T10:42:42Z</time>
<desc>lat.=44.493702, lon.=34.165684, Alt.=-16.416275m. Speed=0.072000m/h.</desc>
<speed>0.020000</speed>
</trkpt>
<trkpt lat="44.493698" lon="34.165684">
<ele>-16.267349</ele>
<time>2011-10-13T10:42:47Z</time>
<desc>lat.=44.493698, lon.=34.165684, Alt.=-16.267349m. Speed=0.252000m/h.</desc>
<speed>0.070000</speed>
</trkpt>
<trkpt lat="44.493694" lon="34.165688">
<ele>-16.395767</ele>
<time>2011-10-13T10:42:52Z</time>
<desc>lat.=44.493694, lon.=34.165688, Alt.=-16.395767m. Speed=0.000000m/h.</desc>
<speed>0.000000</speed>
</trkpt>
<trkpt lat="44.493690" lon="34.165695">
<ele>-16.583755</ele>
<time>2011-10-13T10:42:57Z</time>
<desc>lat.=44.493690, lon.=34.165695, Alt.=-16.583755m. Speed=0.036000m/h.</desc>
<speed>0.010000</speed>
</trkpt>
<trkpt lat="44.493690" lon="34.165699">
<ele>-16.730728</ele>
<time>2011-10-13T10:43:02Z</time>
<desc>lat.=44.493690, lon.=34.165699, Alt.=-16.730728m. Speed=0.036000m/h.</desc>
<speed>0.010000</speed>
</trkpt>
<trkpt lat="44.493690" lon="34.165703">
<ele>-17.198502</ele>
<time>2011-10-13T10:43:07Z</time>
<desc>lat.=44.493690, lon.=34.165703, Alt.=-17.198502m. Speed=0.000000m/h.</desc>
<speed>0.000000</speed>
</trkpt>
<trkpt lat="44.493683" lon="34.165707">
<ele>-16.638931</ele>
<time>2011-10-13T10:43:12Z</time>
<desc>lat.=44.493683, lon.=34.165707, Alt.=-16.638931m. Speed=0.180000m/h.</desc>
<speed>0.050000</speed>
</trkpt>
<trkpt lat="44.493687" lon="34.165699">
<ele>-16.500748</ele>
<time>2011-10-13T10:43:17Z</time>
<desc>lat.=44.493687, lon.=34.165699, Alt.=-16.500748m. Speed=0.252000m/h.</desc>
<speed>0.070000</speed>
</trkpt>
<trkpt lat="44.493690" lon="34.165691">
<ele>-16.423111</ele>
<time>2011-10-13T10:43:22Z</time>
<desc>lat.=44.493690, lon.=34.165691, Alt.=-16.423111m. Speed=0.108000m/h.</desc>
<speed>0.030000</speed>
</trkpt>
<trkpt lat="44.493694" lon="34.165684">
<ele>-16.396255</ele>
<time>2011-10-13T10:43:27Z</time>
<desc>lat.=44.493694, lon.=34.165684, Alt.=-16.396255m. Speed=0.036000m/h.</desc>
<speed>0.010000</speed>
</trkpt>
<trkpt lat="44.493694" lon="34.165676">
<ele>-16.323502</ele>
<time>2011-10-13T10:43:32Z</time>
<desc>lat.=44.493694, lon.=34.165676, Alt.=-16.323502m. Speed=0.000000m/h.</desc>
<speed>0.000000</speed>
</trkpt>
<trkpt lat="44.493698" lon="34.165676">
<ele>-16.300064</ele>
<time>2011-10-13T10:43:37Z</time>
<desc>lat.=44.493698, lon.=34.165676, Alt.=-16.300064m. Speed=0.036000m/h.</desc>
<speed>0.010000</speed>
</trkpt>
<trkpt lat="44.493698" lon="34.165672">
<ele>-16.296646</ele>
<time>2011-10-13T10:43:42Z</time>
<desc>lat.=44.493698, lon.=34.165672, Alt.=-16.296646m. Speed=0.036000m/h.</desc>
<speed>0.010000</speed>
</trkpt>
<trkpt lat="44.493694" lon="34.165653">
<ele>-15.767952</ele>
<time>2011-10-13T10:43:47Z</time>
<desc>lat.=44.493694, lon.=34.165653, Alt.=-15.767952m. Speed=0.288000m/h.</desc>
<speed>0.080000</speed>
</trkpt>
<trkpt lat="44.493687" lon="34.165634">
<ele>-15.044807</ele>
<time>2011-10-13T10:43:52Z</time>
<desc>lat.=44.493687, lon.=34.165634, Alt.=-15.044807m. Speed=0.000000m/h.</desc>
<speed>0.000000</speed>
</trkpt>
<trkpt lat="44.493679" lon="34.165627">
<ele>-14.536751</ele>
<time>2011-10-13T10:43:57Z</time>
<desc>lat.=44.493679, lon.=34.165627, Alt.=-14.536751m. Speed=0.000000m/h.</desc>
<speed>0.000000</speed>
</trkpt>
<trkpt lat="44.493679" lon="34.165627">
<ele>-14.521858</ele>
<time>2011-10-13T10:44:02Z</time>
<desc>lat.=44.493679, lon.=34.165627, Alt.=-14.521858m. Speed=0.036000m/h.</desc>
<speed>0.010000</speed>
</trkpt>
<trkpt lat="44.493679" lon="34.165627">
<ele>-14.496956</ele>
<time>2011-10-13T10:44:07Z</time>
<desc>lat.=44.493679, lon.=34.165627, Alt.=-14.496956m. Speed=0.144000m/h.</desc>
<speed>0.040000</speed>
</trkpt>
<trkpt lat="44.493679" lon="34.165623">
<ele>-14.474007</ele>
<time>2011-10-13T10:44:12Z</time>
<desc>lat.=44.493679, lon.=34.165623, Alt.=-14.474007m. Speed=0.036000m/h.</desc>
<speed>0.010000</speed>
</trkpt>
<trkpt lat="44.493679" lon="34.165627">
<ele>-14.454720</ele>
<time>2011-10-13T10:44:17Z</time>
<desc>lat.=44.493679, lon.=34.165627, Alt.=-14.454720m. Speed=4.068000m/h.</desc>
<speed>1.130000</speed>
</trkpt>
<trkpt lat="44.493671" lon="34.165661">
<ele>-15.039436</ele>
<time>2011-10-13T10:44:22Z</time>
<desc>lat.=44.493671, lon.=34.165661, Alt.=-15.039436m. Speed=4.464000m/h.</desc>
<speed>1.240000</speed>
</trkpt>
<trkpt lat="44.493629" lon="34.165668">
<ele>-15.151741</ele>
<time>2011-10-13T10:44:27Z</time>
<desc>lat.=44.493629, lon.=34.165668, Alt.=-15.151741m. Speed=7.524000m/h.</desc>
<speed>2.090000</speed>
</trkpt>
<trkpt lat="44.493557" lon="34.165627">
<ele>-14.680305</ele>
<time>2011-10-13T10:44:32Z</time>
<desc>lat.=44.493557, lon.=34.165627, Alt.=-14.680305m. Speed=5.724000m/h.</desc>
<speed>1.590000</speed>
</trkpt>
<trkpt lat="44.493477" lon="34.165604">
<ele>-14.154671</ele>
<time>2011-10-13T10:44:37Z</time>
<desc>lat.=44.493477, lon.=34.165604, Alt.=-14.154671m. Speed=9.000000m/h.</desc>
<speed>2.500000</speed>
</trkpt>
<trkpt lat="44.493393" lon="34.165527">
<ele>-12.167854</ele>
<time>2011-10-13T10:44:42Z</time>
<desc>lat.=44.493393, lon.=34.165527, Alt.=-12.167854m. Speed=7.128000m/h.</desc>
<speed>1.980000</speed>
</trkpt>
<trkpt lat="44.493328" lon="34.165440">
<ele>-10.968391</ele>
<time>2011-10-13T10:44:47Z</time>
<desc>lat.=44.493328, lon.=34.165440, Alt.=-10.968391m. Speed=9.108000m/h.</desc>
<speed>2.530000</speed>
</trkpt>
<trkpt lat="44.493256" lon="34.165348">
<ele>-9.806526</ele>
<time>2011-10-13T10:44:52Z</time>
<desc>lat.=44.493256, lon.=34.165348, Alt.=-9.806526m. Speed=6.768000m/h.</desc>
<speed>1.880000</speed>
</trkpt>
<trkpt lat="44.493160" lon="34.165253">
<ele>-7.953434</ele>
<time>2011-10-13T10:44:57Z</time>
<desc>lat.=44.493160, lon.=34.165253, Alt.=-7.953434m. Speed=9.720000m/h.</desc>
<speed>2.700000</speed>
</trkpt>
<trkpt lat="44.493065" lon="34.165165">
<ele>-7.284000</ele>
<time>2011-10-13T10:45:02Z</time>
<desc>lat.=44.493065, lon.=34.165165, Alt.=-7.284000m. Speed=7.380000m/h.</desc>
<speed>2.050000</speed>
</trkpt>
<trkpt lat="44.492970" lon="34.165092">
<ele>-6.700260</ele>
<time>2011-10-13T10:45:07Z</time>
<desc>lat.=44.492970, lon.=34.165092, Alt.=-6.700260m. Speed=10.116000m/h.</desc>
<speed>2.810000</speed>
</trkpt>
<trkpt lat="44.492855" lon="34.165005">
<ele>-6.620182</ele>
<time>2011-10-13T10:45:12Z</time>
<desc>lat.=44.492855, lon.=34.165005, Alt.=-6.620182m. Speed=9.468000m/h.</desc>
<speed>2.630000</speed>
</trkpt>
<trkpt lat="44.492748" lon="34.164925">
<ele>-6.633610</ele>
<time>2011-10-13T10:45:17Z</time>
<desc>lat.=44.492748, lon.=34.164925, Alt.=-6.633610m. Speed=9.504000m/h.</desc>
<speed>2.640000</speed>
</trkpt>
<trkpt lat="44.492622" lon="34.164825">
<ele>-7.012638</ele>
<time>2011-10-13T10:45:22Z</time>
<desc>lat.=44.492622, lon.=34.164825, Alt.=-7.012638m. Speed=11.448000m/h.</desc>
<speed>3.180000</speed>
</trkpt>
<trkpt lat="44.492485" lon="34.164707">
<ele>-6.951725</ele>
<time>2011-10-13T10:45:27Z</time>
<desc>lat.=44.492485, lon.=34.164707, Alt.=-6.951725m. Speed=10.836000m/h.</desc>
<speed>3.010000</speed>
</trkpt>
<trkpt lat="44.492378" lon="34.164642">
<ele>-7.225529</ele>
<time>2011-10-13T10:45:32Z</time>
<desc>lat.=44.492378, lon.=34.164642, Alt.=-7.225529m. Speed=7.488000m/h.</desc>
<speed>2.080000</speed>
</trkpt>
<trkpt lat="44.492287" lon="34.164612">
<ele>-6.974430</ele>
<time>2011-10-13T10:45:37Z</time>
<desc>lat.=44.492287, lon.=34.164612, Alt.=-6.974430m. Speed=5.904000m/h.</desc>
<speed>1.640000</speed>
</trkpt>
<trkpt lat="44.492207" lon="34.164570">
<ele>-7.281559</ele>
<time>2011-10-13T10:45:42Z</time>
<desc>lat.=44.492207, lon.=34.164570, Alt.=-7.281559m. Speed=7.956000m/h.</desc>
<speed>2.210000</speed>
</trkpt>
<trkpt lat="44.492126" lon="34.164520">
<ele>-9.428596</ele>
<time>2011-10-13T10:45:47Z</time>
<desc>lat.=44.492126, lon.=34.164520, Alt.=-9.428596m. Speed=1.728000m/h.</desc>
<speed>0.480000</speed>
</trkpt>
<trkpt lat="44.492100" lon="34.164516">
<ele>-10.427376</ele>
<time>2011-10-13T10:45:52Z</time>
<desc>lat.=44.492100, lon.=34.164516, Alt.=-10.427376m. Speed=0.432000m/h.</desc>
<speed>0.120000</speed>
</trkpt>
<trkpt lat="44.492096" lon="34.164471">
<ele>-11.776253</ele>
<time>2011-10-13T10:45:57Z</time>
<desc>lat.=44.492096, lon.=34.164471, Alt.=-11.776253m. Speed=3.888000m/h.</desc>
<speed>1.080000</speed>
</trkpt>
<trkpt lat="44.492111" lon="34.164421">
<ele>-11.676155</ele>
<time>2011-10-13T10:46:02Z</time>
<desc>lat.=44.492111, lon.=34.164421, Alt.=-11.676155m. Speed=2.628000m/h.</desc>
<speed>0.730000</speed>
</trkpt>
<trkpt lat="44.492119" lon="34.164394">
<ele>-12.197884</ele>
<time>2011-10-13T10:46:07Z</time>
<desc>lat.=44.492119, lon.=34.164394, Alt.=-12.197884m. Speed=1.872000m/h.</desc>
<speed>0.520000</speed>
</trkpt>
<trkpt lat="44.492119" lon="34.164383">
<ele>-12.554085</ele>
<time>2011-10-13T10:46:12Z</time>
<desc>lat.=44.492119, lon.=34.164383, Alt.=-12.554085m. Speed=0.720000m/h.</desc>
<speed>0.200000</speed>
</trkpt>
<trkpt lat="44.492123" lon="34.164391">
<ele>-12.508675</ele>
<time>2011-10-13T10:46:17Z</time>
<desc>lat.=44.492123, lon.=34.164391, Alt.=-12.508675m. Speed=0.468000m/h.</desc>
<speed>0.130000</speed>
</trkpt>
<trkpt lat="44.492126" lon="34.164387">
<ele>-12.203255</ele>
<time>2011-10-13T10:46:22Z</time>
<desc>lat.=44.492126, lon.=34.164387, Alt.=-12.203255m. Speed=0.072000m/h.</desc>
<speed>0.020000</speed>
</trkpt>
<trkpt lat="44.492134" lon="34.164391">
<ele>-12.018196</ele>
<time>2011-10-13T10:46:27Z</time>
<desc>lat.=44.492134, lon.=34.164391, Alt.=-12.018196m. Speed=0.072000m/h.</desc>
<speed>0.020000</speed>
</trkpt>
<trkpt lat="44.492142" lon="34.164391">
<ele>-11.966682</ele>
<time>2011-10-13T10:46:32Z</time>
<desc>lat.=44.492142, lon.=34.164391, Alt.=-11.966682m. Speed=0.108000m/h.</desc>
<speed>0.030000</speed>
</trkpt>
<trkpt lat="44.492138" lon="34.164394">
<ele>-11.903206</ele>
<time>2011-10-13T10:46:37Z</time>
<desc>lat.=44.492138, lon.=34.164394, Alt.=-11.903206m. Speed=0.036000m/h.</desc>
<speed>0.010000</speed>
</trkpt>
<trkpt lat="44.492142" lon="34.164391">
<ele>-12.480110</ele>
<time>2011-10-13T10:46:42Z</time>
<desc>lat.=44.492142, lon.=34.164391, Alt.=-12.480110m. Speed=0.072000m/h.</desc>
<speed>0.020000</speed>
</trkpt>
<trkpt lat="44.492142" lon="34.164402">
<ele>-12.053352</ele>
<time>2011-10-13T10:46:47Z</time>
<desc>lat.=44.492142, lon.=34.164402, Alt.=-12.053352m. Speed=0.144000m/h.</desc>
<speed>0.040000</speed>
</trkpt>
<trkpt lat="44.492146" lon="34.164402">
<ele>-11.865852</ele>
<time>2011-10-13T10:46:52Z</time>
<desc>lat.=44.492146, lon.=34.164402, Alt.=-11.865852m. Speed=0.288000m/h.</desc>
<speed>0.080000</speed>
</trkpt>
<trkpt lat="44.492146" lon="34.164394">
<ele>-11.796516</ele>
<time>2011-10-13T10:46:57Z</time>
<desc>lat.=44.492146, lon.=34.164394, Alt.=-11.796516m. Speed=0.036000m/h.</desc>
<speed>0.010000</speed>
</trkpt>
<trkpt lat="44.492142" lon="34.164394">
<ele>-11.131721</ele>
<time>2011-10-13T10:47:02Z</time>
<desc>lat.=44.492142, lon.=34.164394, Alt.=-11.131721m. Speed=0.036000m/h.</desc>
<speed>0.010000</speed>
</trkpt>
<trkpt lat="44.492146" lon="34.164394">
<ele>-11.250618</ele>
<time>2011-10-13T10:47:07Z</time>
<desc>lat.=44.492146, lon.=34.164394, Alt.=-11.250618m. Speed=0.000000m/h.</desc>
<speed>0.000000</speed>
</trkpt>
<trkpt lat="44.492149" lon="34.164391">
<ele>-11.327278</ele>
<time>2011-10-13T10:47:12Z</time>
<desc>lat.=44.492149, lon.=34.164391, Alt.=-11.327278m. Speed=0.000000m/h.</desc>
<speed>0.000000</speed>
</trkpt>
<trkpt lat="44.492149" lon="34.164391">
<ele>-11.328987</ele>
<time>2011-10-13T10:47:17Z</time>
<desc>lat.=44.492149, lon.=34.164391, Alt.=-11.328987m. Speed=0.036000m/h.</desc>
<speed>0.010000</speed>
</trkpt>
<trkpt lat="44.492149" lon="34.164387">
<ele>-11.327766</ele>
<time>2011-10-13T10:47:22Z</time>
<desc>lat.=44.492149, lon.=34.164387, Alt.=-11.327766m. Speed=0.036000m/h.</desc>
<speed>0.010000</speed>
</trkpt>
<trkpt lat="44.492149" lon="34.164387">
<ele>-11.326546</ele>
<time>2011-10-13T10:47:27Z</time>
<desc>lat.=44.492149, lon.=34.164387, Alt.=-11.326546m. Speed=0.036000m/h.</desc>
<speed>0.010000</speed>
</trkpt>
<trkpt lat="44.492149" lon="34.164387">
<ele>-11.315315</ele>
<time>2011-10-13T10:47:32Z</time>
<desc>lat.=44.492149, lon.=34.164387, Alt.=-11.315315m. Speed=0.036000m/h.</desc>
<speed>0.010000</speed>
</trkpt>
<trkpt lat="44.492149" lon="34.164387">
<ele>-11.307991</ele>
<time>2011-10-13T10:47:37Z</time>
<desc>lat.=44.492149, lon.=34.164387, Alt.=-11.307991m. Speed=0.000000m/h.</desc>
<speed>0.000000</speed>
</trkpt>
<trkpt lat="44.492149" lon="34.164387">
<ele>-11.293343</ele>
<time>2011-10-13T10:47:42Z</time>
<desc>lat.=44.492149, lon.=34.164387, Alt.=-11.293343m. Speed=0.036000m/h.</desc>
<speed>0.010000</speed>
</trkpt>
<trkpt lat="44.492149" lon="34.164387">
<ele>-11.297249</ele>
<time>2011-10-13T10:47:47Z</time>
<desc>lat.=44.492149, lon.=34.164387, Alt.=-11.297249m. Speed=0.000000m/h.</desc>
<speed>0.000000</speed>
</trkpt>
<trkpt lat="44.492153" lon="34.164387">
<ele>-11.282600</ele>
<time>2011-10-13T10:47:52Z</time>
<desc>lat.=44.492153, lon.=34.164387, Alt.=-11.282600m. Speed=0.252000m/h.</desc>
<speed>0.070000</speed>
</trkpt>
<trkpt lat="44.492153" lon="34.164387">
<ele>-11.227425</ele>
<time>2011-10-13T10:47:57Z</time>
<desc>lat.=44.492153, lon.=34.164387, Alt.=-11.227425m. Speed=0.720000m/h.</desc>
<speed>0.200000</speed>
</trkpt>
<trkpt lat="44.492149" lon="34.164379">
<ele>-11.083870</ele>
<time>2011-10-13T10:48:02Z</time>
<desc>lat.=44.492149, lon.=34.164379, Alt.=-11.083870m. Speed=3.024000m/h.</desc>
<speed>0.840000</speed>
</trkpt>
<trkpt lat="44.492085" lon="34.164318">
<ele>-10.193977</ele>
<time>2011-10-13T10:48:07Z</time>
<desc>lat.=44.492085, lon.=34.164318, Alt.=-10.193977m. Speed=7.488000m/h.</desc>
<speed>2.080000</speed>
</trkpt>
<trkpt lat="44.491993" lon="34.164276">
<ele>-9.832649</ele>
<time>2011-10-13T10:48:12Z</time>
<desc>lat.=44.491993, lon.=34.164276, Alt.=-9.832649m. Speed=9.216000m/h.</desc>
<speed>2.560000</speed>
</trkpt>
<trkpt lat="44.491920" lon="34.164211">
<ele>-9.081917</ele>
<time>2011-10-13T10:48:17Z</time>
<desc>lat.=44.491920, lon.=34.164211, Alt.=-9.081917m. Speed=5.760000m/h.</desc>
<speed>1.600000</speed>
</trkpt>
<trkpt lat="44.491833" lon="34.164150">
<ele>-7.993229</ele>
<time>2011-10-13T10:48:22Z</time>
<desc>lat.=44.491833, lon.=34.164150, Alt.=-7.993229m. Speed=6.120000m/h.</desc>
<speed>1.700000</speed>
</trkpt>
<trkpt lat="44.491722" lon="34.164089">
<ele>-6.511417</ele>
<time>2011-10-13T10:48:27Z</time>
<desc>lat.=44.491722, lon.=34.164089, Alt.=-6.511417m. Speed=11.124000m/h.</desc>
<speed>3.090000</speed>
</trkpt>
<trkpt lat="44.491611" lon="34.164017">
<ele>-5.207096</ele>
<time>2011-10-13T10:48:32Z</time>
<desc>lat.=44.491611, lon.=34.164017, Alt.=-5.207096m. Speed=8.964000m/h.</desc>
<speed>2.490000</speed>
</trkpt>
<trkpt lat="44.491489" lon="34.163963">
<ele>-3.630220</ele>
<time>2011-10-13T10:48:37Z</time>
<desc>lat.=44.491489, lon.=34.163963, Alt.=-3.630220m. Speed=10.656000m/h.</desc>
<speed>2.960000</speed>
</trkpt>
<trkpt lat="44.491360" lon="34.163925">
<ele>-1.967668</ele>
<time>2011-10-13T10:48:42Z</time>
<desc>lat.=44.491360, lon.=34.163925, Alt.=-1.967668m. Speed=10.728000m/h.</desc>
<speed>2.980000</speed>
</trkpt>
<trkpt lat="44.491264" lon="34.163864">
<ele>-0.642739</ele>
<time>2011-10-13T10:48:47Z</time>
<desc>lat.=44.491264, lon.=34.163864, Alt.=-0.642739m. Speed=3.528000m/h.</desc>
<speed>0.980000</speed>
</trkpt>
<trkpt lat="44.491161" lon="34.163799">
<ele>0.487515</ele>
<time>2011-10-13T10:48:52Z</time>
<desc>lat.=44.491161, lon.=34.163799, Alt.=0.487515m. Speed=10.728000m/h.</desc>
<speed>2.980000</speed>
</trkpt>
<trkpt lat="44.491051" lon="34.163734">
<ele>1.434373</ele>
<time>2011-10-13T10:48:57Z</time>
<desc>lat.=44.491051, lon.=34.163734, Alt.=1.434373m. Speed=8.172000m/h.</desc>
<speed>2.270000</speed>
</trkpt>
<trkpt lat="44.490959" lon="34.163662">
<ele>1.198289</ele>
<time>2011-10-13T10:49:02Z</time>
<desc>lat.=44.490959, lon.=34.163662, Alt.=1.198289m. Speed=7.452000m/h.</desc>
<speed>2.070000</speed>
</trkpt>
<trkpt lat="44.490856" lon="34.163589">
<ele>1.668443</ele>
<time>2011-10-13T10:49:07Z</time>
<desc>lat.=44.490856, lon.=34.163589, Alt.=1.668443m. Speed=10.188000m/h.</desc>
<speed>2.830000</speed>
</trkpt>
<trkpt lat="44.490746" lon="34.163532">
<ele>1.665818</ele>
<time>2011-10-13T10:49:12Z</time>
<desc>lat.=44.490746, lon.=34.163532, Alt.=1.665818m. Speed=8.424000m/h.</desc>
<speed>2.340000</speed>
</trkpt>
<trkpt lat="44.490654" lon="34.163486">
<ele>1.754960</ele>
<time>2011-10-13T10:49:17Z</time>
<desc>lat.=44.490654, lon.=34.163486, Alt.=1.754960m. Speed=7.020000m/h.</desc>
<speed>1.950000</speed>
</trkpt>
<trkpt lat="44.490574" lon="34.163445">
<ele>2.408175</ele>
<time>2011-10-13T10:49:22Z</time>
<desc>lat.=44.490574, lon.=34.163445, Alt.=2.408175m. Speed=7.272000m/h.</desc>
<speed>2.020000</speed>
</trkpt>
<trkpt lat="44.490509" lon="34.163395">
<ele>3.205904</ele>
<time>2011-10-13T10:49:27Z</time>
<desc>lat.=44.490509, lon.=34.163395, Alt.=3.205904m. Speed=6.912000m/h.</desc>
<speed>1.920000</speed>
</trkpt>
<trkpt lat="44.490387" lon="34.163288">
<ele>0.408428</ele>
<time>2011-10-13T10:49:32Z</time>
<desc>lat.=44.490387, lon.=34.163288, Alt.=0.408428m. Speed=8.100000m/h.</desc>
<speed>2.250000</speed>
</trkpt>
<trkpt lat="44.490307" lon="34.163177">
<ele>-0.398876</ele>
<time>2011-10-13T10:49:37Z</time>
<desc>lat.=44.490307, lon.=34.163177, Alt.=-0.398876m. Speed=6.552000m/h.</desc>
<speed>1.820000</speed>
</trkpt>
<trkpt lat="44.490253" lon="34.163097">
<ele>-0.780724</ele>
<time>2011-10-13T10:49:42Z</time>
<desc>lat.=44.490253, lon.=34.163097, Alt.=-0.780724m. Speed=6.084000m/h.</desc>
<speed>1.690000</speed>
</trkpt>
<trkpt lat="44.490204" lon="34.163021">
<ele>-0.548180</ele>
<time>2011-10-13T10:49:47Z</time>
<desc>lat.=44.490204, lon.=34.163021, Alt.=-0.548180m. Speed=6.660000m/h.</desc>
<speed>1.850000</speed>
</trkpt>
<trkpt lat="44.490139" lon="34.162945">
<ele>-0.220553</ele>
<time>2011-10-13T10:49:52Z</time>
<desc>lat.=44.490139, lon.=34.162945, Alt.=-0.220553m. Speed=8.028000m/h.</desc>
<speed>2.230000</speed>
</trkpt>
<trkpt lat="44.490067" lon="34.162872">
<ele>1.293260</ele>
<time>2011-10-13T10:49:57Z</time>
<desc>lat.=44.490067, lon.=34.162872, Alt.=1.293260m. Speed=6.840000m/h.</desc>
<speed>1.900000</speed>
</trkpt>
<trkpt lat="44.490009" lon="34.162811">
<ele>2.658724</ele>
<time>2011-10-13T10:50:02Z</time>
<desc>lat.=44.490009, lon.=34.162811, Alt.=2.658724m. Speed=5.148000m/h.</desc>
<speed>1.430000</speed>
</trkpt>
<trkpt lat="44.489975" lon="34.162766">
<ele>1.619706</ele>
<time>2011-10-13T10:50:07Z</time>
<desc>lat.=44.489975, lon.=34.162766, Alt.=1.619706m. Speed=0.792000m/h.</desc>
<speed>0.220000</speed>
</trkpt>
<trkpt lat="44.489941" lon="34.162731">
<ele>-0.253674</ele>
<time>2011-10-13T10:50:12Z</time>
<desc>lat.=44.489941, lon.=34.162731, Alt.=-0.253674m. Speed=0.756000m/h.</desc>
<speed>0.210000</speed>
</trkpt>
<trkpt lat="44.489929" lon="34.162720">
<ele>-0.681084</ele>
<time>2011-10-13T10:50:17Z</time>
<desc>lat.=44.489929, lon.=34.162720, Alt.=-0.681084m. Speed=0.180000m/h.</desc>
<speed>0.050000</speed>
</trkpt>
<trkpt lat="44.489925" lon="34.162697">
<ele>0.251133</ele>
<time>2011-10-13T10:50:22Z</time>
<desc>lat.=44.489925, lon.=34.162697, Alt.=0.251133m. Speed=0.144000m/h.</desc>
<speed>0.040000</speed>
</trkpt>
<trkpt lat="44.489918" lon="34.162697">
<ele>0.882363</ele>
<time>2011-10-13T10:50:27Z</time>
<desc>lat.=44.489918, lon.=34.162697, Alt.=0.882363m. Speed=0.396000m/h.</desc>
<speed>0.110000</speed>
</trkpt>
<trkpt lat="44.489906" lon="34.162701">
<ele>0.715233</ele>
<time>2011-10-13T10:50:32Z</time>
<desc>lat.=44.489906, lon.=34.162701, Alt.=0.715233m. Speed=0.540000m/h.</desc>
<speed>0.150000</speed>
</trkpt>
<trkpt lat="44.489899" lon="34.162693">
<ele>0.568276</ele>
<time>2011-10-13T10:50:37Z</time>
<desc>lat.=44.489899, lon.=34.162693, Alt.=0.568276m. Speed=0.432000m/h.</desc>
<speed>0.120000</speed>
</trkpt>
<trkpt lat="44.489891" lon="34.162685">
<ele>1.107438</ele>
<time>2011-10-13T10:50:42Z</time>
<desc>lat.=44.489891, lon.=34.162685, Alt.=1.107438m. Speed=2.952000m/h.</desc>
<speed>0.820000</speed>
</trkpt>
<trkpt lat="44.489876" lon="34.162685">
<ele>1.483689</ele>
<time>2011-10-13T10:50:47Z</time>
<desc>lat.=44.489876, lon.=34.162685, Alt.=1.483689m. Speed=0.396000m/h.</desc>
<speed>0.110000</speed>
</trkpt>
<trkpt lat="44.489857" lon="34.162682">
<ele>1.620439</ele>
<time>2011-10-13T10:50:52Z</time>
<desc>lat.=44.489857, lon.=34.162682, Alt.=1.620439m. Speed=0.720000m/h.</desc>
<speed>0.200000</speed>
</trkpt>
<trkpt lat="44.489853" lon="34.162678">
<ele>1.949418</ele>
<time>2011-10-13T10:50:57Z</time>
<desc>lat.=44.489853, lon.=34.162678, Alt.=1.949418m. Speed=0.432000m/h.</desc>
<speed>0.120000</speed>
</trkpt>
<trkpt lat="44.489857" lon="34.162674">
<ele>2.251436</ele>
<time>2011-10-13T10:51:02Z</time>
<desc>lat.=44.489857, lon.=34.162674, Alt.=2.251436m. Speed=0.720000m/h.</desc>
<speed>0.200000</speed>
</trkpt>
<trkpt lat="44.489864" lon="34.162666">
<ele>2.569185</ele>
<time>2011-10-13T10:51:07Z</time>
<desc>lat.=44.489864, lon.=34.162666, Alt.=2.569185m. Speed=0.648000m/h.</desc>
<speed>0.180000</speed>
</trkpt>
<trkpt lat="44.489868" lon="34.162663">
<ele>2.847383</ele>
<time>2011-10-13T10:51:12Z</time>
<desc>lat.=44.489868, lon.=34.162663, Alt.=2.847383m. Speed=0.792000m/h.</desc>
<speed>0.220000</speed>
</trkpt>
<trkpt lat="44.489868" lon="34.162655">
<ele>3.064852</ele>
<time>2011-10-13T10:51:17Z</time>
<desc>lat.=44.489868, lon.=34.162655, Alt.=3.064852m. Speed=0.216000m/h.</desc>
<speed>0.060000</speed>
</trkpt>
<trkpt lat="44.489868" lon="34.162655">
<ele>3.318453</ele>
<time>2011-10-13T10:51:22Z</time>
<desc>lat.=44.489868, lon.=34.162655, Alt.=3.318453m. Speed=0.576000m/h.</desc>
<speed>0.160000</speed>
</trkpt>
<trkpt lat="44.489864" lon="34.162651">
<ele>3.580538</ele>
<time>2011-10-13T10:51:27Z</time>
<desc>lat.=44.489864, lon.=34.162651, Alt.=3.580538m. Speed=0.576000m/h.</desc>
<speed>0.160000</speed>
</trkpt>
<trkpt lat="44.489864" lon="34.162647">
<ele>3.749971</ele>
<time>2011-10-13T10:51:32Z</time>
<desc>lat.=44.489864, lon.=34.162647, Alt.=3.749971m. Speed=0.036000m/h.</desc>
<speed>0.010000</speed>
</trkpt>
<trkpt lat="44.489864" lon="34.162647">
<ele>3.758944</ele>
<time>2011-10-13T10:51:37Z</time>
<desc>lat.=44.489864, lon.=34.162647, Alt.=3.758944m. Speed=0.144000m/h.</desc>
<speed>0.040000</speed>
</trkpt>
<trkpt lat="44.489864" lon="34.162647">
<ele>3.784456</ele>
<time>2011-10-13T10:51:42Z</time>
<desc>lat.=44.489864, lon.=34.162647, Alt.=3.784456m. Speed=0.036000m/h.</desc>
<speed>0.010000</speed>
</trkpt>
<trkpt lat="44.489861" lon="34.162647">
<ele>3.793673</ele>
<time>2011-10-13T10:51:47Z</time>
<desc>lat.=44.489861, lon.=34.162647, Alt.=3.793673m. Speed=0.072000m/h.</desc>
<speed>0.020000</speed>
</trkpt>
<trkpt lat="44.489861" lon="34.162647">
<ele>3.792940</ele>
<time>2011-10-13T10:51:52Z</time>
<desc>lat.=44.489861, lon.=34.162647, Alt.=3.792940m. Speed=0.072000m/h.</desc>
<speed>0.020000</speed>
</trkpt>
<trkpt lat="44.489861" lon="34.162647">
<ele>3.798433</ele>
<time>2011-10-13T10:51:57Z</time>
<desc>lat.=44.489861, lon.=34.162647, Alt.=3.798433m. Speed=0.000000m/h.</desc>
<speed>0.000000</speed>
</trkpt>
<trkpt lat="44.489861" lon="34.162647">
<ele>3.815584</ele>
<time>2011-10-13T10:52:02Z</time>
<desc>lat.=44.489861, lon.=34.162647, Alt.=3.815584m. Speed=0.108000m/h.</desc>
<speed>0.030000</speed>
</trkpt>
<trkpt lat="44.489861" lon="34.162647">
<ele>3.825045</ele>
<time>2011-10-13T10:52:07Z</time>
<desc>lat.=44.489861, lon.=34.162647, Alt.=3.825045m. Speed=0.036000m/h.</desc>
<speed>0.010000</speed>
</trkpt>
<trkpt lat="44.489861" lon="34.162647">
<ele>3.838167</ele>
<time>2011-10-13T10:52:12Z</time>
<desc>lat.=44.489861, lon.=34.162647, Alt.=3.838167m. Speed=0.144000m/h.</desc>
<speed>0.040000</speed>
</trkpt>
<trkpt lat="44.489861" lon="34.162647">
<ele>3.838045</ele>
<time>2011-10-13T10:52:17Z</time>
<desc>lat.=44.489861, lon.=34.162647, Alt.=3.838045m. Speed=0.036000m/h.</desc>
<speed>0.010000</speed>
</trkpt>
<trkpt lat="44.489861" lon="34.162647">
<ele>3.849581</ele>
<time>2011-10-13T10:52:22Z</time>
<desc>lat.=44.489861, lon.=34.162647, Alt.=3.849581m. Speed=0.072000m/h.</desc>
<speed>0.020000</speed>
</trkpt>
<trkpt lat="44.489861" lon="34.162647">
<ele>3.876009</ele>
<time>2011-10-13T10:52:27Z</time>
<desc>lat.=44.489861, lon.=34.162647, Alt.=3.876009m. Speed=0.000000m/h.</desc>
<speed>0.000000</speed>
</trkpt>
<trkpt lat="44.489861" lon="34.162643">
<ele>3.901155</ele>
<time>2011-10-13T10:52:32Z</time>
<desc>lat.=44.489861, lon.=34.162643, Alt.=3.901155m. Speed=0.036000m/h.</desc>
<speed>0.010000</speed>
</trkpt>
<trkpt lat="44.489861" lon="34.162643">
<ele>3.924654</ele>
<time>2011-10-13T10:52:37Z</time>
<desc>lat.=44.489861, lon.=34.162643, Alt.=3.924654m. Speed=0.216000m/h.</desc>
<speed>0.060000</speed>
</trkpt>
<trkpt lat="44.489861" lon="34.162643">
<ele>3.929232</ele>
<time>2011-10-13T10:52:42Z</time>
<desc>lat.=44.489861, lon.=34.162643, Alt.=3.929232m. Speed=0.072000m/h.</desc>
<speed>0.020000</speed>
</trkpt>
<trkpt lat="44.489861" lon="34.162643">
<ele>3.945162</ele>
<time>2011-10-13T10:52:47Z</time>
<desc>lat.=44.489861, lon.=34.162643, Alt.=3.945162m. Speed=0.072000m/h.</desc>
<speed>0.020000</speed>
</trkpt>
<trkpt lat="44.489861" lon="34.162643">
<ele>3.964144</ele>
<time>2011-10-13T10:52:52Z</time>
<desc>lat.=44.489861, lon.=34.162643, Alt.=3.964144m. Speed=0.144000m/h.</desc>
<speed>0.040000</speed>
</trkpt>
<trkpt lat="44.489861" lon="34.162643">
<ele>3.963472</ele>
<time>2011-10-13T10:52:57Z</time>
<desc>lat.=44.489861, lon.=34.162643, Alt.=3.963472m. Speed=0.144000m/h.</desc>
<speed>0.040000</speed>
</trkpt>
<trkpt lat="44.489861" lon="34.162643">
<ele>3.954744</ele>
<time>2011-10-13T10:53:02Z</time>
<desc>lat.=44.489861, lon.=34.162643, Alt.=3.954744m. Speed=0.072000m/h.</desc>
<speed>0.020000</speed>
</trkpt>
<trkpt lat="44.489857" lon="34.162643">
<ele>3.955050</ele>
<time>2011-10-13T10:53:07Z</time>
<desc>lat.=44.489857, lon.=34.162643, Alt.=3.955050m. Speed=0.072000m/h.</desc>
<speed>0.020000</speed>
</trkpt>
<trkpt lat="44.489857" lon="34.162640">
<ele>3.940218</ele>
<time>2011-10-13T10:53:12Z</time>
<desc>lat.=44.489857, lon.=34.162640, Alt.=3.940218m. Speed=0.072000m/h.</desc>
<speed>0.020000</speed>
</trkpt>
<trkpt lat="44.489857" lon="34.162640">
<ele>3.924105</ele>
<time>2011-10-13T10:53:17Z</time>
<desc>lat.=44.489857, lon.=34.162640, Alt.=3.924105m. Speed=0.000000m/h.</desc>
<speed>0.000000</speed>
</trkpt>
<trkpt lat="44.489857" lon="34.162640">
<ele>3.914522</ele>
<time>2011-10-13T10:53:22Z</time>
<desc>lat.=44.489857, lon.=34.162640, Alt.=3.914522m. Speed=0.036000m/h.</desc>
<speed>0.010000</speed>
</trkpt>
<trkpt lat="44.489857" lon="34.162640">
<ele>3.907259</ele>
<time>2011-10-13T10:53:27Z</time>
<desc>lat.=44.489857, lon.=34.162640, Alt.=3.907259m. Speed=0.036000m/h.</desc>
<speed>0.010000</speed>
</trkpt>
<trkpt lat="44.489857" lon="34.162640">
<ele>3.905611</ele>
<time>2011-10-13T10:53:32Z</time>
<desc>lat.=44.489857, lon.=34.162640, Alt.=3.905611m. Speed=0.108000m/h.</desc>
<speed>0.030000</speed>
</trkpt>
<trkpt lat="44.489857" lon="34.162640">
<ele>3.895601</ele>
<time>2011-10-13T10:53:37Z</time>
<desc>lat.=44.489857, lon.=34.162640, Alt.=3.895601m. Speed=0.036000m/h.</desc>
<speed>0.010000</speed>
</trkpt>
<trkpt lat="44.489857" lon="34.162640">
<ele>3.790133</ele>
<time>2011-10-13T10:53:42Z</time>
<desc>lat.=44.489857, lon.=34.162640, Alt.=3.790133m. Speed=0.108000m/h.</desc>
<speed>0.030000</speed>
</trkpt>
<trkpt lat="44.489857" lon="34.162640">
<ele>3.755526</ele>
<time>2011-10-13T10:53:47Z</time>
<desc>lat.=44.489857, lon.=34.162640, Alt.=3.755526m. Speed=0.108000m/h.</desc>
<speed>0.030000</speed>
</trkpt>
<trkpt lat="44.489857" lon="34.162640">
<ele>3.753756</ele>
<time>2011-10-13T10:53:52Z</time>
<desc>lat.=44.489857, lon.=34.162640, Alt.=3.753756m. Speed=0.000000m/h.</desc>
<speed>0.000000</speed>
</trkpt>
<trkpt lat="44.489857" lon="34.162640">
<ele>3.748995</ele>
<time>2011-10-13T10:53:57Z</time>
<desc>lat.=44.489857, lon.=34.162640, Alt.=3.748995m. Speed=0.108000m/h.</desc>
<speed>0.030000</speed>
</trkpt>
<trkpt lat="44.489857" lon="34.162640">
<ele>3.760164</ele>
<time>2011-10-13T10:54:02Z</time>
<desc>lat.=44.489857, lon.=34.162640, Alt.=3.760164m. Speed=0.036000m/h.</desc>
<speed>0.010000</speed>
</trkpt>
<trkpt lat="44.489857" lon="34.162640">
<ele>3.757601</ele>
<time>2011-10-13T10:54:07Z</time>
<desc>lat.=44.489857, lon.=34.162640, Alt.=3.757601m. Speed=0.000000m/h.</desc>
<speed>0.000000</speed>
</trkpt>
<trkpt lat="44.489857" lon="34.162640">
<ele>3.762056</ele>
<time>2011-10-13T10:54:12Z</time>
<desc>lat.=44.489857, lon.=34.162640, Alt.=3.762056m. Speed=0.000000m/h.</desc>
<speed>0.000000</speed>
</trkpt>
<trkpt lat="44.489857" lon="34.162640">
<ele>3.758028</ele>
<time>2011-10-13T10:54:17Z</time>
<desc>lat.=44.489857, lon.=34.162640, Alt.=3.758028m. Speed=0.036000m/h.</desc>
<speed>0.010000</speed>
</trkpt>
<trkpt lat="44.489853" lon="34.162640">
<ele>3.760958</ele>
<time>2011-10-13T10:54:22Z</time>
<desc>lat.=44.489853, lon.=34.162640, Alt.=3.760958m. Speed=0.036000m/h.</desc>
<speed>0.010000</speed>
</trkpt>
<trkpt lat="44.489853" lon="34.162640">
<ele>3.752596</ele>
<time>2011-10-13T10:54:27Z</time>
<desc>lat.=44.489853, lon.=34.162640, Alt.=3.752596m. Speed=0.000000m/h.</desc>
<speed>0.000000</speed>
</trkpt>
<trkpt lat="44.489857" lon="34.162636">
<ele>3.728548</ele>
<time>2011-10-13T10:54:32Z</time>
<desc>lat.=44.489857, lon.=34.162636, Alt.=3.728548m. Speed=0.576000m/h.</desc>
<speed>0.160000</speed>
</trkpt>
<trkpt lat="44.489826" lon="34.162601">
<ele>3.643221</ele>
<time>2011-10-13T10:54:37Z</time>
<desc>lat.=44.489826, lon.=34.162601, Alt.=3.643221m. Speed=5.328000m/h.</desc>
<speed>1.480000</speed>
</trkpt>
<trkpt lat="44.489784" lon="34.162586">
<ele>1.334977</ele>
<time>2011-10-13T10:54:42Z</time>
<desc>lat.=44.489784, lon.=34.162586, Alt.=1.334977m. Speed=2.088000m/h.</desc>
<speed>0.580000</speed>
</trkpt>
<trkpt lat="44.489773" lon="34.162598">
<ele>1.319901</ele>
<time>2011-10-13T10:54:47Z</time>
<desc>lat.=44.489773, lon.=34.162598, Alt.=1.319901m. Speed=1.404000m/h.</desc>
<speed>0.390000</speed>
</trkpt>
<trkpt lat="44.489750" lon="34.162609">
<ele>2.175570</ele>
<time>2011-10-13T10:54:52Z</time>
<desc>lat.=44.489750, lon.=34.162609, Alt.=2.175570m. Speed=2.484000m/h.</desc>
<speed>0.690000</speed>
</trkpt>
<trkpt lat="44.489746" lon="34.162663">
<ele>2.151522</ele>
<time>2011-10-13T10:54:57Z</time>
<desc>lat.=44.489746, lon.=34.162663, Alt.=2.151522m. Speed=3.744000m/h.</desc>
<speed>1.040000</speed>
</trkpt>
<trkpt lat="44.489735" lon="34.162697">
<ele>2.331881</ele>
<time>2011-10-13T10:55:02Z</time>
<desc>lat.=44.489735, lon.=34.162697, Alt.=2.331881m. Speed=0.612000m/h.</desc>
<speed>0.170000</speed>
</trkpt>
<trkpt lat="44.489731" lon="34.162701">
<ele>2.400789</ele>
<time>2011-10-13T10:55:07Z</time>
<desc>lat.=44.489731, lon.=34.162701, Alt.=2.400789m. Speed=0.216000m/h.</desc>
<speed>0.060000</speed>
</trkpt>
<trkpt lat="44.489742" lon="34.162701">
<ele>2.163179</ele>
<time>2011-10-13T10:55:12Z</time>
<desc>lat.=44.489742, lon.=34.162701, Alt.=2.163179m. Speed=1.116000m/h.</desc>
<speed>0.310000</speed>
</trkpt>
<trkpt lat="44.489754" lon="34.162697">
<ele>2.185274</ele>
<time>2011-10-13T10:55:17Z</time>
<desc>lat.=44.489754, lon.=34.162697, Alt.=2.185274m. Speed=1.080000m/h.</desc>
<speed>0.300000</speed>
</trkpt>
<trkpt lat="44.489735" lon="34.162746">
<ele>1.689591</ele>
<time>2011-10-13T10:55:22Z</time>
<desc>lat.=44.489735, lon.=34.162746, Alt.=1.689591m. Speed=0.504000m/h.</desc>
<speed>0.140000</speed>
</trkpt>
<trkpt lat="44.489738" lon="34.162743">
<ele>1.670487</ele>
<time>2011-10-13T10:55:27Z</time>
<desc>lat.=44.489738, lon.=34.162743, Alt.=1.670487m. Speed=1.152000m/h.</desc>
<speed>0.320000</speed>
</trkpt>
<trkpt lat="44.489761" lon="34.162731">
<ele>0.530632</ele>
<time>2011-10-13T10:55:32Z</time>
<desc>lat.=44.489761, lon.=34.162731, Alt.=0.530632m. Speed=0.900000m/h.</desc>
<speed>0.250000</speed>
</trkpt>
<trkpt lat="44.489765" lon="34.162727">
<ele>0.319683</ele>
<time>2011-10-13T10:55:37Z</time>
<desc>lat.=44.489765, lon.=34.162727, Alt.=0.319683m. Speed=0.648000m/h.</desc>
<speed>0.180000</speed>
</trkpt>
<trkpt lat="44.489769" lon="34.162724">
<ele>0.662438</ele>
<time>2011-10-13T10:55:42Z</time>
<desc>lat.=44.489769, lon.=34.162724, Alt.=0.662438m. Speed=0.648000m/h.</desc>
<speed>0.180000</speed>
</trkpt>
<trkpt lat="44.489780" lon="34.162720">
<ele>1.006608</ele>
<time>2011-10-13T10:55:47Z</time>
<desc>lat.=44.489780, lon.=34.162720, Alt.=1.006608m. Speed=0.756000m/h.</desc>
<speed>0.210000</speed>
</trkpt>
<trkpt lat="44.489792" lon="34.162720">
<ele>1.341996</ele>
<time>2011-10-13T10:55:52Z</time>
<desc>lat.=44.489792, lon.=34.162720, Alt.=1.341996m. Speed=1.152000m/h.</desc>
<speed>0.320000</speed>
</trkpt>
<trkpt lat="44.489830" lon="34.162735">
<ele>1.193223</ele>
<time>2011-10-13T10:55:57Z</time>
<desc>lat.=44.489830, lon.=34.162735, Alt.=1.193223m. Speed=1.692000m/h.</desc>
<speed>0.470000</speed>
</trkpt>
<trkpt lat="44.489849" lon="34.162750">
<ele>0.926125</ele>
<time>2011-10-13T10:56:02Z</time>
<desc>lat.=44.489849, lon.=34.162750, Alt.=0.926125m. Speed=1.368000m/h.</desc>
<speed>0.380000</speed>
</trkpt>
<trkpt lat="44.489838" lon="34.162785">
<ele>0.913949</ele>
<time>2011-10-13T10:56:07Z</time>
<desc>lat.=44.489838, lon.=34.162785, Alt.=0.913949m. Speed=0.576000m/h.</desc>
<speed>0.160000</speed>
</trkpt>
<trkpt lat="44.489830" lon="34.162796">
<ele>1.283952</ele>
<time>2011-10-13T10:56:12Z</time>
<desc>lat.=44.489830, lon.=34.162796, Alt.=1.283952m. Speed=0.576000m/h.</desc>
<speed>0.160000</speed>
</trkpt>
<trkpt lat="44.489830" lon="34.162804">
<ele>1.551835</ele>
<time>2011-10-13T10:56:17Z</time>
<desc>lat.=44.489830, lon.=34.162804, Alt.=1.551835m. Speed=0.360000m/h.</desc>
<speed>0.100000</speed>
</trkpt>
<trkpt lat="44.489834" lon="34.162811">
<ele>1.815354</ele>
<time>2011-10-13T10:56:22Z</time>
<desc>lat.=44.489834, lon.=34.162811, Alt.=1.815354m. Speed=0.072000m/h.</desc>
<speed>0.020000</speed>
</trkpt>
<trkpt lat="44.489834" lon="34.162815">
<ele>2.084993</ele>
<time>2011-10-13T10:56:27Z</time>
<desc>lat.=44.489834, lon.=34.162815, Alt.=2.084993m. Speed=0.540000m/h.</desc>
<speed>0.150000</speed>
</trkpt>
<trkpt lat="44.489841" lon="34.162819">
<ele>2.372408</ele>
<time>2011-10-13T10:56:32Z</time>
<desc>lat.=44.489841, lon.=34.162819, Alt.=2.372408m. Speed=0.324000m/h.</desc>
<speed>0.090000</speed>
</trkpt>
<trkpt lat="44.489845" lon="34.162819">
<ele>2.662935</ele>
<time>2011-10-13T10:56:37Z</time>
<desc>lat.=44.489845, lon.=34.162819, Alt.=2.662935m. Speed=0.324000m/h.</desc>
<speed>0.090000</speed>
</trkpt>
<trkpt lat="44.489849" lon="34.162819">
<ele>2.948336</ele>
<time>2011-10-13T10:56:42Z</time>
<desc>lat.=44.489849, lon.=34.162819, Alt.=2.948336m. Speed=0.324000m/h.</desc>
<speed>0.090000</speed>
</trkpt>
<trkpt lat="44.489849" lon="34.162823">
<ele>3.206453</ele>
<time>2011-10-13T10:56:47Z</time>
<desc>lat.=44.489849, lon.=34.162823, Alt.=3.206453m. Speed=0.324000m/h.</desc>
<speed>0.090000</speed>
</trkpt>
<trkpt lat="44.489853" lon="34.162823">
<ele>3.419161</ele>
<time>2011-10-13T10:56:52Z</time>
<desc>lat.=44.489853, lon.=34.162823, Alt.=3.419161m. Speed=0.288000m/h.</desc>
<speed>0.080000</speed>
</trkpt>
<trkpt lat="44.489861" lon="34.162827">
<ele>3.596346</ele>
<time>2011-10-13T10:56:57Z</time>
<desc>lat.=44.489861, lon.=34.162827, Alt.=3.596346m. Speed=0.684000m/h.</desc>
<speed>0.190000</speed>
</trkpt>
<trkpt lat="44.489872" lon="34.162842">
<ele>3.588411</ele>
<time>2011-10-13T10:57:02Z</time>
<desc>lat.=44.489872, lon.=34.162842, Alt.=3.588411m. Speed=1.404000m/h.</desc>
<speed>0.390000</speed>
</trkpt>
<trkpt lat="44.489887" lon="34.162857">
<ele>3.395784</ele>
<time>2011-10-13T10:57:07Z</time>
<desc>lat.=44.489887, lon.=34.162857, Alt.=3.395784m. Speed=0.936000m/h.</desc>
<speed>0.260000</speed>
</trkpt>
<trkpt lat="44.489872" lon="34.162823">
<ele>3.013338</ele>
<time>2011-10-13T10:57:12Z</time>
<desc>lat.=44.489872, lon.=34.162823, Alt.=3.013338m. Speed=3.492000m/h.</desc>
<speed>0.970000</speed>
</trkpt>
<trkpt lat="44.489861" lon="34.162773">
<ele>3.082003</ele>
<time>2011-10-13T10:57:17Z</time>
<desc>lat.=44.489861, lon.=34.162773, Alt.=3.082003m. Speed=5.796000m/h.</desc>
<speed>1.610000</speed>
</trkpt>
<trkpt lat="44.489811" lon="34.162766">
<ele>3.204805</ele>
<time>2011-10-13T10:57:22Z</time>
<desc>lat.=44.489811, lon.=34.162766, Alt.=3.204805m. Speed=0.468000m/h.</desc>
<speed>0.130000</speed>
</trkpt>
<trkpt lat="44.489777" lon="34.162792">
<ele>3.343843</ele>
<time>2011-10-13T10:57:27Z</time>
<desc>lat.=44.489777, lon.=34.162792, Alt.=3.343843m. Speed=0.828000m/h.</desc>
<speed>0.230000</speed>
</trkpt>
<trkpt lat="44.489784" lon="34.162796">
<ele>3.337130</ele>
<time>2011-10-13T10:57:32Z</time>
<desc>lat.=44.489784, lon.=34.162796, Alt.=3.337130m. Speed=1.080000m/h.</desc>
<speed>0.300000</speed>
</trkpt>
<trkpt lat="44.489777" lon="34.162796">
<ele>3.465364</ele>
<time>2011-10-13T10:57:37Z</time>
<desc>lat.=44.489777, lon.=34.162796, Alt.=3.465364m. Speed=0.648000m/h.</desc>
<speed>0.180000</speed>
</trkpt>
<trkpt lat="44.489777" lon="34.162796">
<ele>3.471346</ele>
<time>2011-10-13T10:57:42Z</time>
<desc>lat.=44.489777, lon.=34.162796, Alt.=3.471346m. Speed=0.432000m/h.</desc>
<speed>0.120000</speed>
</trkpt>
<trkpt lat="44.489807" lon="34.162781">
<ele>3.440279</ele>
<time>2011-10-13T10:57:47Z</time>
<desc>lat.=44.489807, lon.=34.162781, Alt.=3.440279m. Speed=1.044000m/h.</desc>
<speed>0.290000</speed>
</trkpt>
<trkpt lat="44.489838" lon="34.162777">
<ele>3.229403</ele>
<time>2011-10-13T10:57:52Z</time>
<desc>lat.=44.489838, lon.=34.162777, Alt.=3.229403m. Speed=0.936000m/h.</desc>
<speed>0.260000</speed>
</trkpt>
<trkpt lat="44.489845" lon="34.162807">
<ele>3.239290</ele>
<time>2011-10-13T10:57:57Z</time>
<desc>lat.=44.489845, lon.=34.162807, Alt.=3.239290m. Speed=0.900000m/h.</desc>
<speed>0.250000</speed>
</trkpt>
<trkpt lat="44.489826" lon="34.162834">
<ele>3.518099</ele>
<time>2011-10-13T10:58:02Z</time>
<desc>lat.=44.489826, lon.=34.162834, Alt.=3.518099m. Speed=0.396000m/h.</desc>
<speed>0.110000</speed>
</trkpt>
<trkpt lat="44.489822" lon="34.162853">
<ele>3.657625</ele>
<time>2011-10-13T10:58:07Z</time>
<desc>lat.=44.489822, lon.=34.162853, Alt.=3.657625m. Speed=0.216000m/h.</desc>
<speed>0.060000</speed>
</trkpt>
<trkpt lat="44.489826" lon="34.162853">
<ele>3.830843</ele>
<time>2011-10-13T10:58:12Z</time>
<desc>lat.=44.489826, lon.=34.162853, Alt.=3.830843m. Speed=0.252000m/h.</desc>
<speed>0.070000</speed>
</trkpt>
<trkpt lat="44.489826" lon="34.162853">
<ele>3.919893</ele>
<time>2011-10-13T10:58:17Z</time>
<desc>lat.=44.489826, lon.=34.162853, Alt.=3.919893m. Speed=0.036000m/h.</desc>
<speed>0.010000</speed>
</trkpt>
<trkpt lat="44.489826" lon="34.162853">
<ele>3.940889</ele>
<time>2011-10-13T10:58:22Z</time>
<desc>lat.=44.489826, lon.=34.162853, Alt.=3.940889m. Speed=0.252000m/h.</desc>
<speed>0.070000</speed>
</trkpt>
<trkpt lat="44.489826" lon="34.162853">
<ele>3.949373</ele>
<time>2011-10-13T10:58:27Z</time>
<desc>lat.=44.489826, lon.=34.162853, Alt.=3.949373m. Speed=0.144000m/h.</desc>
<speed>0.040000</speed>
</trkpt>
<trkpt lat="44.489830" lon="34.162857">
<ele>3.971773</ele>
<time>2011-10-13T10:58:32Z</time>
<desc>lat.=44.489830, lon.=34.162857, Alt.=3.971773m. Speed=0.144000m/h.</desc>
<speed>0.040000</speed>
</trkpt>
<trkpt lat="44.489830" lon="34.162857">
<ele>4.003483</ele>
<time>2011-10-13T10:58:37Z</time>
<desc>lat.=44.489830, lon.=34.162857, Alt.=4.003483m. Speed=0.072000m/h.</desc>
<speed>0.020000</speed>
</trkpt>
<trkpt lat="44.489830" lon="34.162857">
<ele>4.026676</ele>
<time>2011-10-13T10:58:42Z</time>
<desc>lat.=44.489830, lon.=34.162857, Alt.=4.026676m. Speed=0.000000m/h.</desc>
<speed>0.000000</speed>
</trkpt>
<trkpt lat="44.489830" lon="34.162857">
<ele>4.030094</ele>
<time>2011-10-13T10:58:47Z</time>
<desc>lat.=44.489830, lon.=34.162857, Alt.=4.030094m. Speed=0.288000m/h.</desc>
<speed>0.080000</speed>
</trkpt>
<trkpt lat="44.489830" lon="34.162857">
<ele>4.028996</ele>
<time>2011-10-13T10:58:52Z</time>
<desc>lat.=44.489830, lon.=34.162857, Alt.=4.028996m. Speed=0.000000m/h.</desc>
<speed>0.000000</speed>
</trkpt>
<trkpt lat="44.489830" lon="34.162857">
<ele>4.026432</ele>
<time>2011-10-13T10:58:57Z</time>
<desc>lat.=44.489830, lon.=34.162857, Alt.=4.026432m. Speed=0.072000m/h.</desc>
<speed>0.020000</speed>
</trkpt>
<trkpt lat="44.489830" lon="34.162857">
<ele>4.021305</ele>
<time>2011-10-13T10:59:02Z</time>
<desc>lat.=44.489830, lon.=34.162857, Alt.=4.021305m. Speed=0.036000m/h.</desc>
<speed>0.010000</speed>
</trkpt>
<trkpt lat="44.489834" lon="34.162857">
<ele>4.010807</ele>
<time>2011-10-13T10:59:07Z</time>
<desc>lat.=44.489834, lon.=34.162857, Alt.=4.010807m. Speed=0.612000m/h.</desc>
<speed>0.170000</speed>
</trkpt>
<trkpt lat="44.489841" lon="34.162853">
<ele>3.991121</ele>
<time>2011-10-13T10:59:12Z</time>
<desc>lat.=44.489841, lon.=34.162853, Alt.=3.991121m. Speed=0.612000m/h.</desc>
<speed>0.170000</speed>
</trkpt>
<trkpt lat="44.489849" lon="34.162861">
<ele>3.959261</ele>
<time>2011-10-13T10:59:17Z</time>
<desc>lat.=44.489849, lon.=34.162861, Alt.=3.959261m. Speed=0.612000m/h.</desc>
<speed>0.170000</speed>
</trkpt>
<trkpt lat="44.489849" lon="34.162857">
<ele>4.016422</ele>
<time>2011-10-13T10:59:22Z</time>
<desc>lat.=44.489849, lon.=34.162857, Alt.=4.016422m. Speed=0.576000m/h.</desc>
<speed>0.160000</speed>
</trkpt>
<trkpt lat="44.489861" lon="34.162865">
<ele>4.952457</ele>
<time>2011-10-13T10:59:27Z</time>
<desc>lat.=44.489861, lon.=34.162865, Alt.=4.952457m. Speed=1.080000m/h.</desc>
<speed>0.300000</speed>
</trkpt>
<trkpt lat="44.489868" lon="34.162865">
<ele>5.555729</ele>
<time>2011-10-13T10:59:32Z</time>
<desc>lat.=44.489868, lon.=34.162865, Alt.=5.555729m. Speed=0.936000m/h.</desc>
<speed>0.260000</speed>
</trkpt>
<trkpt lat="44.489880" lon="34.162865">
<ele>6.307926</ele>
<time>2011-10-13T10:59:37Z</time>
<desc>lat.=44.489880, lon.=34.162865, Alt.=6.307926m. Speed=0.720000m/h.</desc>
<speed>0.200000</speed>
</trkpt>
<trkpt lat="44.489887" lon="34.162868">
<ele>6.942204</ele>
<time>2011-10-13T10:59:42Z</time>
<desc>lat.=44.489887, lon.=34.162868, Alt.=6.942204m. Speed=0.648000m/h.</desc>
<speed>0.180000</speed>
</trkpt>
<trkpt lat="44.489895" lon="34.162872">
<ele>7.450260</ele>
<time>2011-10-13T10:59:47Z</time>
<desc>lat.=44.489895, lon.=34.162872, Alt.=7.450260m. Speed=1.152000m/h.</desc>
<speed>0.320000</speed>
</trkpt>
<trkpt lat="44.489887" lon="34.162872">
<ele>7.718449</ele>
<time>2011-10-13T10:59:52Z</time>
<desc>lat.=44.489887, lon.=34.162872, Alt.=7.718449m. Speed=0.792000m/h.</desc>
<speed>0.220000</speed>
</trkpt>
<trkpt lat="44.489895" lon="34.162865">
<ele>8.223518</ele>
<time>2011-10-13T10:59:57Z</time>
<desc>lat.=44.489895, lon.=34.162865, Alt.=8.223518m. Speed=1.152000m/h.</desc>
<speed>0.320000</speed>
</trkpt>
<trkpt lat="44.489891" lon="34.162865">
<ele>8.429573</ele>
<time>2011-10-13T11:00:02Z</time>
<desc>lat.=44.489891, lon.=34.162865, Alt.=8.429573m. Speed=0.360000m/h.</desc>
<speed>0.100000</speed>
</trkpt>
<trkpt lat="44.489895" lon="34.162868">
<ele>8.923470</ele>
<time>2011-10-13T11:00:07Z</time>
<desc>lat.=44.489895, lon.=34.162868, Alt.=8.923470m. Speed=0.180000m/h.</desc>
<speed>0.050000</speed>
</trkpt>
<trkpt lat="44.489895" lon="34.162868">
<ele>9.532112</ele>
<time>2011-10-13T11:00:12Z</time>
<desc>lat.=44.489895, lon.=34.162868, Alt.=9.532112m. Speed=0.252000m/h.</desc>
<speed>0.070000</speed>
</trkpt>
<trkpt lat="44.489895" lon="34.162876">
<ele>10.137581</ele>
<time>2011-10-13T11:00:17Z</time>
<desc>lat.=44.489895, lon.=34.162876, Alt.=10.137581m. Speed=1.008000m/h.</desc>
<speed>0.280000</speed>
</trkpt>
<trkpt lat="44.489876" lon="34.162891">
<ele>10.545296</ele>
<time>2011-10-13T11:00:22Z</time>
<desc>lat.=44.489876, lon.=34.162891, Alt.=10.545296m. Speed=1.044000m/h.</desc>
<speed>0.290000</speed>
</trkpt>
<trkpt lat="44.489876" lon="34.162926">
<ele>10.805550</ele>
<time>2011-10-13T11:00:27Z</time>
<desc>lat.=44.489876, lon.=34.162926, Alt.=10.805550m. Speed=1.116000m/h.</desc>
<speed>0.310000</speed>
</trkpt>
<trkpt lat="44.489815" lon="34.162933">
<ele>11.253304</ele>
<time>2011-10-13T11:00:32Z</time>
<desc>lat.=44.489815, lon.=34.162933, Alt.=11.253304m. Speed=1.440000m/h.</desc>
<speed>0.400000</speed>
</trkpt>
<trkpt lat="44.489758" lon="34.162926">
<ele>11.807014</ele>
<time>2011-10-13T11:00:37Z</time>
<desc>lat.=44.489758, lon.=34.162926, Alt.=11.807014m. Speed=1.908000m/h.</desc>
<speed>0.530000</speed>
</trkpt>
<trkpt lat="44.489719" lon="34.162949">
<ele>12.331184</ele>
<time>2011-10-13T11:00:42Z</time>
<desc>lat.=44.489719, lon.=34.162949, Alt.=12.331184m. Speed=1.944000m/h.</desc>
<speed>0.540000</speed>
</trkpt>
<trkpt lat="44.489700" lon="34.162979">
<ele>12.807503</ele>
<time>2011-10-13T11:00:47Z</time>
<desc>lat.=44.489700, lon.=34.162979, Alt.=12.807503m. Speed=1.836000m/h.</desc>
<speed>0.510000</speed>
</trkpt>
<trkpt lat="44.489693" lon="34.162994">
<ele>13.341927</ele>
<time>2011-10-13T11:00:52Z</time>
<desc>lat.=44.489693, lon.=34.162994, Alt.=13.341927m. Speed=1.512000m/h.</desc>
<speed>0.420000</speed>
</trkpt>
<trkpt lat="44.489708" lon="34.162983">
<ele>13.842415</ele>
<time>2011-10-13T11:00:57Z</time>
<desc>lat.=44.489708, lon.=34.162983, Alt.=13.842415m. Speed=0.936000m/h.</desc>
<speed>0.260000</speed>
</trkpt>
<trkpt lat="44.489719" lon="34.162983">
<ele>14.342903</ele>
<time>2011-10-13T11:01:02Z</time>
<desc>lat.=44.489719, lon.=34.162983, Alt.=14.342903m. Speed=0.756000m/h.</desc>
<speed>0.210000</speed>
</trkpt>
<trkpt lat="44.489723" lon="34.162991">
<ele>14.849251</ele>
<time>2011-10-13T11:01:07Z</time>
<desc>lat.=44.489723, lon.=34.162991, Alt.=14.849251m. Speed=0.972000m/h.</desc>
<speed>0.270000</speed>
</trkpt>
<trkpt lat="44.489750" lon="34.162991">
<ele>15.060432</ele>
<time>2011-10-13T11:01:12Z</time>
<desc>lat.=44.489750, lon.=34.162991, Alt.=15.060432m. Speed=0.540000m/h.</desc>
<speed>0.150000</speed>
</trkpt>
<trkpt lat="44.489754" lon="34.162994">
<ele>15.592903</ele>
<time>2011-10-13T11:01:17Z</time>
<desc>lat.=44.489754, lon.=34.162994, Alt.=15.592903m. Speed=0.432000m/h.</desc>
<speed>0.120000</speed>
</trkpt>
<trkpt lat="44.489758" lon="34.162994">
<ele>16.125259</ele>
<time>2011-10-13T11:01:22Z</time>
<desc>lat.=44.489758, lon.=34.162994, Alt.=16.125259m. Speed=0.504000m/h.</desc>
<speed>0.140000</speed>
</trkpt>
<trkpt lat="44.489765" lon="34.162994">
<ele>16.619888</ele>
<time>2011-10-13T11:01:27Z</time>
<desc>lat.=44.489765, lon.=34.162994, Alt.=16.619888m. Speed=0.360000m/h.</desc>
<speed>0.100000</speed>
</trkpt>
<trkpt lat="44.489765" lon="34.162998">
<ele>17.126236</ele>
<time>2011-10-13T11:01:32Z</time>
<desc>lat.=44.489765, lon.=34.162998, Alt.=17.126236m. Speed=0.216000m/h.</desc>
<speed>0.060000</speed>
</trkpt>
<trkpt lat="44.489769" lon="34.162998">
<ele>17.634048</ele>
<time>2011-10-13T11:01:37Z</time>
<desc>lat.=44.489769, lon.=34.162998, Alt.=17.634048m. Speed=0.144000m/h.</desc>
<speed>0.040000</speed>
</trkpt>
<trkpt lat="44.489769" lon="34.163002">
<ele>18.109146</ele>
<time>2011-10-13T11:01:42Z</time>
<desc>lat.=44.489769, lon.=34.163002, Alt.=18.109146m. Speed=0.540000m/h.</desc>
<speed>0.150000</speed>
</trkpt>
<trkpt lat="44.489723" lon="34.163074">
<ele>18.683365</ele>
<time>2011-10-13T11:01:47Z</time>
<desc>lat.=44.489723, lon.=34.163074, Alt.=18.683365m. Speed=1.620000m/h.</desc>
<speed>0.450000</speed>
</trkpt>
<trkpt lat="44.489700" lon="34.163105">
<ele>18.414322</ele>
<time>2011-10-13T11:01:52Z</time>
<desc>lat.=44.489700, lon.=34.163105, Alt.=18.414322m. Speed=1.368000m/h.</desc>
<speed>0.380000</speed>
</trkpt>
<trkpt lat="44.489685" lon="34.163120">
<ele>18.487076</ele>
<time>2011-10-13T11:01:57Z</time>
<desc>lat.=44.489685, lon.=34.163120, Alt.=18.487076m. Speed=1.008000m/h.</desc>
<speed>0.280000</speed>
</trkpt>
<trkpt lat="44.489655" lon="34.163116">
<ele>17.466080</ele>
<time>2011-10-13T11:02:02Z</time>
<desc>lat.=44.489655, lon.=34.163116, Alt.=17.466080m. Speed=0.396000m/h.</desc>
<speed>0.110000</speed>
</trkpt>
<trkpt lat="44.489613" lon="34.163101">
<ele>17.142838</ele>
<time>2011-10-13T11:02:07Z</time>
<desc>lat.=44.489613, lon.=34.163101, Alt.=17.142838m. Speed=4.104000m/h.</desc>
<speed>1.140000</speed>
</trkpt>
<trkpt lat="44.489594" lon="34.163059">
<ele>16.724869</ele>
<time>2011-10-13T11:02:12Z</time>
<desc>lat.=44.489594, lon.=34.163059, Alt.=16.724869m. Speed=2.052000m/h.</desc>
<speed>0.570000</speed>
</trkpt>
<trkpt lat="44.489594" lon="34.163021">
<ele>16.340591</ele>
<time>2011-10-13T11:02:17Z</time>
<desc>lat.=44.489594, lon.=34.163021, Alt.=16.340591m. Speed=2.772000m/h.</desc>
<speed>0.770000</speed>
</trkpt>
<trkpt lat="44.489605" lon="34.163002">
<ele>16.016373</ele>
<time>2011-10-13T11:02:22Z</time>
<desc>lat.=44.489605, lon.=34.163002, Alt.=16.016373m. Speed=1.584000m/h.</desc>
<speed>0.440000</speed>
</trkpt>
<trkpt lat="44.489639" lon="34.162910">
<ele>15.671272</ele>
<time>2011-10-13T11:02:27Z</time>
<desc>lat.=44.489639, lon.=34.162910, Alt.=15.671272m. Speed=1.332000m/h.</desc>
<speed>0.370000</speed>
</trkpt>
<trkpt lat="44.489628" lon="34.162846">
<ele>15.406380</ele>
<time>2011-10-13T11:02:32Z</time>
<desc>lat.=44.489628, lon.=34.162846, Alt.=15.406380m. Speed=0.936000m/h.</desc>
<speed>0.260000</speed>
</trkpt>
<trkpt lat="44.489620" lon="34.162800">
<ele>15.048714</ele>
<time>2011-10-13T11:02:37Z</time>
<desc>lat.=44.489620, lon.=34.162800, Alt.=15.048714m. Speed=0.432000m/h.</desc>
<speed>0.120000</speed>
</trkpt>
<trkpt lat="44.489605" lon="34.162640">
<ele>12.177864</ele>
<time>2011-10-13T11:02:42Z</time>
<desc>lat.=44.489605, lon.=34.162640, Alt.=12.177864m. Speed=0.504000m/h.</desc>
<speed>0.140000</speed>
</trkpt>
<trkpt lat="44.489670" lon="34.162560">
<ele>8.386848</ele>
<time>2011-10-13T11:02:47Z</time>
<desc>lat.=44.489670, lon.=34.162560, Alt.=8.386848m. Speed=0.468000m/h.</desc>
<speed>0.130000</speed>
</trkpt>
<trkpt lat="44.489651" lon="34.162537">
<ele>6.850651</ele>
<time>2011-10-13T11:02:52Z</time>
<desc>lat.=44.489651, lon.=34.162537, Alt.=6.850651m. Speed=2.268000m/h.</desc>
<speed>0.630000</speed>
</trkpt>
<trkpt lat="44.489647" lon="34.162521">
<ele>6.684635</ele>
<time>2011-10-13T11:02:57Z</time>
<desc>lat.=44.489647, lon.=34.162521, Alt.=6.684635m. Speed=0.180000m/h.</desc>
<speed>0.050000</speed>
</trkpt>
<trkpt lat="44.489632" lon="34.162510">
<ele>7.280460</ele>
<time>2011-10-13T11:03:02Z</time>
<desc>lat.=44.489632, lon.=34.162510, Alt.=7.280460m. Speed=1.836000m/h.</desc>
<speed>0.510000</speed>
</trkpt>
<trkpt lat="44.489632" lon="34.162518">
<ele>7.977360</ele>
<time>2011-10-13T11:03:07Z</time>
<desc>lat.=44.489632, lon.=34.162518, Alt.=7.977360m. Speed=0.216000m/h.</desc>
<speed>0.060000</speed>
</trkpt>
<trkpt lat="44.489628" lon="34.162518">
<ele>7.908390</ele>
<time>2011-10-13T11:03:12Z</time>
<desc>lat.=44.489628, lon.=34.162518, Alt.=7.908390m. Speed=1.620000m/h.</desc>
<speed>0.450000</speed>
</trkpt>
<trkpt lat="44.489632" lon="34.162525">
<ele>8.457893</ele>
<time>2011-10-13T11:03:17Z</time>
<desc>lat.=44.489632, lon.=34.162525, Alt.=8.457893m. Speed=0.108000m/h.</desc>
<speed>0.030000</speed>
</trkpt>
<trkpt lat="44.489639" lon="34.162540">
<ele>7.746037</ele>
<time>2011-10-13T11:03:22Z</time>
<desc>lat.=44.489639, lon.=34.162540, Alt.=7.746037m. Speed=0.144000m/h.</desc>
<speed>0.040000</speed>
</trkpt>
<trkpt lat="44.489662" lon="34.162560">
<ele>6.850163</ele>
<time>2011-10-13T11:03:27Z</time>
<desc>lat.=44.489662, lon.=34.162560, Alt.=6.850163m. Speed=1.332000m/h.</desc>
<speed>0.370000</speed>
</trkpt>
<trkpt lat="44.489685" lon="34.162556">
<ele>6.327824</ele>
<time>2011-10-13T11:03:32Z</time>
<desc>lat.=44.489685, lon.=34.162556, Alt.=6.327824m. Speed=0.720000m/h.</desc>
<speed>0.200000</speed>
</trkpt>
<trkpt lat="44.489677" lon="34.162567">
<ele>6.169865</ele>
<time>2011-10-13T11:03:37Z</time>
<desc>lat.=44.489677, lon.=34.162567, Alt.=6.169865m. Speed=0.036000m/h.</desc>
<speed>0.010000</speed>
</trkpt>
<trkpt lat="44.489681" lon="34.162571">
<ele>5.454899</ele>
<time>2011-10-13T11:03:42Z</time>
<desc>lat.=44.489681, lon.=34.162571, Alt.=5.454899m. Speed=0.072000m/h.</desc>
<speed>0.020000</speed>
</trkpt>
<trkpt lat="44.489681" lon="34.162575">
<ele>6.177799</ele>
<time>2011-10-13T11:03:47Z</time>
<desc>lat.=44.489681, lon.=34.162575, Alt.=6.177799m. Speed=0.108000m/h.</desc>
<speed>0.030000</speed>
</trkpt>
<trkpt lat="44.489674" lon="34.162582">
<ele>7.302677</ele>
<time>2011-10-13T11:03:52Z</time>
<desc>lat.=44.489674, lon.=34.162582, Alt.=7.302677m. Speed=0.000000m/h.</desc>
<speed>0.000000</speed>
</trkpt>
<trkpt lat="44.489674" lon="34.162590">
<ele>8.197395</ele>
<time>2011-10-13T11:03:57Z</time>
<desc>lat.=44.489674, lon.=34.162590, Alt.=8.197395m. Speed=0.036000m/h.</desc>
<speed>0.010000</speed>
</trkpt>
<trkpt lat="44.489674" lon="34.162594">
<ele>8.431770</ele>
<time>2011-10-13T11:04:02Z</time>
<desc>lat.=44.489674, lon.=34.162594, Alt.=8.431770m. Speed=0.000000m/h.</desc>
<speed>0.000000</speed>
</trkpt>
<trkpt lat="44.489674" lon="34.162605">
<ele>8.172981</ele>
<time>2011-10-13T11:04:07Z</time>
<desc>lat.=44.489674, lon.=34.162605, Alt.=8.172981m. Speed=0.396000m/h.</desc>
<speed>0.110000</speed>
</trkpt>
<trkpt lat="44.489677" lon="34.162586">
<ele>7.164860</ele>
<time>2011-10-13T11:04:12Z</time>
<desc>lat.=44.489677, lon.=34.162586, Alt.=7.164860m. Speed=0.216000m/h.</desc>
<speed>0.060000</speed>
</trkpt>
<trkpt lat="44.489677" lon="34.162590">
<ele>6.922550</ele>
<time>2011-10-13T11:04:17Z</time>
<desc>lat.=44.489677, lon.=34.162590, Alt.=6.922550m. Speed=0.036000m/h.</desc>
<speed>0.010000</speed>
</trkpt>
<trkpt lat="44.489677" lon="34.162590">
<ele>6.876896</ele>
<time>2011-10-13T11:04:22Z</time>
<desc>lat.=44.489677, lon.=34.162590, Alt.=6.876896m. Speed=0.000000m/h.</desc>
<speed>0.000000</speed>
</trkpt>
<trkpt lat="44.489677" lon="34.162590">
<ele>6.857975</ele>
<time>2011-10-13T11:04:27Z</time>
<desc>lat.=44.489677, lon.=34.162590, Alt.=6.857975m. Speed=0.036000m/h.</desc>
<speed>0.010000</speed>
</trkpt>
<trkpt lat="44.489677" lon="34.162590">
<ele>6.840519</ele>
<time>2011-10-13T11:04:32Z</time>
<desc>lat.=44.489677, lon.=34.162590, Alt.=6.840519m. Speed=0.036000m/h.</desc>
<speed>0.010000</speed>
</trkpt>
<trkpt lat="44.489677" lon="34.162590">
<ele>6.821964</ele>
<time>2011-10-13T11:04:37Z</time>
<desc>lat.=44.489677, lon.=34.162590, Alt.=6.821964m. Speed=0.036000m/h.</desc>
<speed>0.010000</speed>
</trkpt>
<trkpt lat="44.489677" lon="34.162590">
<ele>6.792423</ele>
<time>2011-10-13T11:04:42Z</time>
<desc>lat.=44.489677, lon.=34.162590, Alt.=6.792423m. Speed=0.072000m/h.</desc>
<speed>0.020000</speed>
</trkpt>
<trkpt lat="44.489677" lon="34.162590">
<ele>6.769962</ele>
<time>2011-10-13T11:04:47Z</time>
<desc>lat.=44.489677, lon.=34.162590, Alt.=6.769962m. Speed=0.036000m/h.</desc>
<speed>0.010000</speed>
</trkpt>
<trkpt lat="44.489677" lon="34.162590">
<ele>6.747379</ele>
<time>2011-10-13T11:04:52Z</time>
<desc>lat.=44.489677, lon.=34.162590, Alt.=6.747379m. Speed=0.036000m/h.</desc>
<speed>0.010000</speed>
</trkpt>
<trkpt lat="44.489677" lon="34.162590">
<ele>6.722355</ele>
<time>2011-10-13T11:04:57Z</time>
<desc>lat.=44.489677, lon.=34.162590, Alt.=6.722355m. Speed=0.000000m/h.</desc>
<speed>0.000000</speed>
</trkpt>
<trkpt lat="44.489677" lon="34.162590">
<ele>6.694157</ele>
<time>2011-10-13T11:05:02Z</time>
<desc>lat.=44.489677, lon.=34.162590, Alt.=6.694157m. Speed=0.072000m/h.</desc>
<speed>0.020000</speed>
</trkpt>
<trkpt lat="44.489677" lon="34.162590">
<ele>6.610538</ele>
<time>2011-10-13T11:05:07Z</time>
<desc>lat.=44.489677, lon.=34.162590, Alt.=6.610538m. Speed=0.072000m/h.</desc>
<speed>0.020000</speed>
</trkpt>
<trkpt lat="44.489677" lon="34.162590">
<ele>6.601749</ele>
<time>2011-10-13T11:05:12Z</time>
<desc>lat.=44.489677, lon.=34.162590, Alt.=6.601749m. Speed=0.036000m/h.</desc>
<speed>0.010000</speed>
</trkpt>
<trkpt lat="44.489677" lon="34.162590">
<ele>6.584171</ele>
<time>2011-10-13T11:05:17Z</time>
<desc>lat.=44.489677, lon.=34.162590, Alt.=6.584171m. Speed=0.072000m/h.</desc>
<speed>0.020000</speed>
</trkpt>
<trkpt lat="44.489677" lon="34.162590">
<ele>6.569767</ele>
<time>2011-10-13T11:05:22Z</time>
<desc>lat.=44.489677, lon.=34.162590, Alt.=6.569767m. Speed=0.252000m/h.</desc>
<speed>0.070000</speed>
</trkpt>
<trkpt lat="44.489677" lon="34.162590">
<ele>6.540714</ele>
<time>2011-10-13T11:05:27Z</time>
<desc>lat.=44.489677, lon.=34.162590, Alt.=6.540714m. Speed=0.072000m/h.</desc>
<speed>0.020000</speed>
</trkpt>
<trkpt lat="44.489677" lon="34.162590">
<ele>6.526920</ele>
<time>2011-10-13T11:05:32Z</time>
<desc>lat.=44.489677, lon.=34.162590, Alt.=6.526920m. Speed=0.072000m/h.</desc>
<speed>0.020000</speed>
</trkpt>
<trkpt lat="44.489677" lon="34.162590">
<ele>6.520451</ele>
<time>2011-10-13T11:05:37Z</time>
<desc>lat.=44.489677, lon.=34.162590, Alt.=6.520451m. Speed=0.036000m/h.</desc>
<speed>0.010000</speed>
</trkpt>
<trkpt lat="44.489677" lon="34.162594">
<ele>6.510929</ele>
<time>2011-10-13T11:05:42Z</time>
<desc>lat.=44.489677, lon.=34.162594, Alt.=6.510929m. Speed=2.916000m/h.</desc>
<speed>0.810000</speed>
</trkpt>
<trkpt lat="44.489670" lon="34.162594">
<ele>5.784855</ele>
<time>2011-10-13T11:05:47Z</time>
<desc>lat.=44.489670, lon.=34.162594, Alt.=5.784855m. Speed=1.332000m/h.</desc>
<speed>0.370000</speed>
</trkpt>
<trkpt lat="44.489674" lon="34.162609">
<ele>5.917179</ele>
<time>2011-10-13T11:05:52Z</time>
<desc>lat.=44.489674, lon.=34.162609, Alt.=5.917179m. Speed=0.252000m/h.</desc>
<speed>0.070000</speed>
</trkpt>
<trkpt lat="44.489670" lon="34.162605">
<ele>5.674259</ele>
<time>2011-10-13T11:05:57Z</time>
<desc>lat.=44.489670, lon.=34.162605, Alt.=5.674259m. Speed=0.540000m/h.</desc>
<speed>0.150000</speed>
</trkpt>
<trkpt lat="44.489677" lon="34.162613">
<ele>5.212711</ele>
<time>2011-10-13T11:06:02Z</time>
<desc>lat.=44.489677, lon.=34.162613, Alt.=5.212711m. Speed=0.684000m/h.</desc>
<speed>0.190000</speed>
</trkpt>
<trkpt lat="44.489681" lon="34.162605">
<ele>4.509098</ele>
<time>2011-10-13T11:06:07Z</time>
<desc>lat.=44.489681, lon.=34.162605, Alt.=4.509098m. Speed=0.324000m/h.</desc>
<speed>0.090000</speed>
</trkpt>
<trkpt lat="44.489681" lon="34.162613">
<ele>4.815861</ele>
<time>2011-10-13T11:06:12Z</time>
<desc>lat.=44.489681, lon.=34.162613, Alt.=4.815861m. Speed=0.216000m/h.</desc>
<speed>0.060000</speed>
</trkpt>
<trkpt lat="44.489677" lon="34.162613">
<ele>5.138981</ele>
<time>2011-10-13T11:06:17Z</time>
<desc>lat.=44.489677, lon.=34.162613, Alt.=5.138981m. Speed=0.504000m/h.</desc>
<speed>0.140000</speed>
</trkpt>
<trkpt lat="44.489681" lon="34.162605">
<ele>5.252995</ele>
<time>2011-10-13T11:06:22Z</time>
<desc>lat.=44.489681, lon.=34.162605, Alt.=5.252995m. Speed=0.864000m/h.</desc>
<speed>0.240000</speed>
</trkpt>
<trkpt lat="44.489685" lon="34.162609">
<ele>5.310612</ele>
<time>2011-10-13T11:06:27Z</time>
<desc>lat.=44.489685, lon.=34.162609, Alt.=5.310612m. Speed=0.612000m/h.</desc>
<speed>0.170000</speed>
</trkpt>
<trkpt lat="44.489685" lon="34.162605">
<ele>5.339298</ele>
<time>2011-10-13T11:06:32Z</time>
<desc>lat.=44.489685, lon.=34.162605, Alt.=5.339298m. Speed=0.612000m/h.</desc>
<speed>0.170000</speed>
</trkpt>
<trkpt lat="44.489674" lon="34.162571">
<ele>5.593327</ele>
<time>2011-10-13T11:06:37Z</time>
<desc>lat.=44.489674, lon.=34.162571, Alt.=5.593327m. Speed=1.944000m/h.</desc>
<speed>0.540000</speed>
</trkpt>
<trkpt lat="44.489693" lon="34.162525">
<ele>5.655704</ele>
<time>2011-10-13T11:06:42Z</time>
<desc>lat.=44.489693, lon.=34.162525, Alt.=5.655704m. Speed=0.360000m/h.</desc>
<speed>0.100000</speed>
</trkpt>
<trkpt lat="44.489674" lon="34.162495">
<ele>6.305973</ele>
<time>2011-10-13T11:06:47Z</time>
<desc>lat.=44.489674, lon.=34.162495, Alt.=6.305973m. Speed=0.144000m/h.</desc>
<speed>0.040000</speed>
</trkpt>
<trkpt lat="44.489685" lon="34.162502">
<ele>6.341496</ele>
<time>2011-10-13T11:06:52Z</time>
<desc>lat.=44.489685, lon.=34.162502, Alt.=6.341496m. Speed=3.348000m/h.</desc>
<speed>0.930000</speed>
</trkpt>
<trkpt lat="44.489700" lon="34.162498">
<ele>6.929020</ele>
<time>2011-10-13T11:06:57Z</time>
<desc>lat.=44.489700, lon.=34.162498, Alt.=6.929020m. Speed=0.252000m/h.</desc>
<speed>0.070000</speed>
</trkpt>
<trkpt lat="44.489700" lon="34.162495">
<ele>7.267155</ele>
<time>2011-10-13T11:07:02Z</time>
<desc>lat.=44.489700, lon.=34.162495, Alt.=7.267155m. Speed=0.288000m/h.</desc>
<speed>0.080000</speed>
</trkpt>
<trkpt lat="44.489700" lon="34.162491">
<ele>7.625797</ele>
<time>2011-10-13T11:07:07Z</time>
<desc>lat.=44.489700, lon.=34.162491, Alt.=7.625797m. Speed=0.288000m/h.</desc>
<speed>0.080000</speed>
</trkpt>
<trkpt lat="44.489697" lon="34.162487">
<ele>7.991154</ele>
<time>2011-10-13T11:07:12Z</time>
<desc>lat.=44.489697, lon.=34.162487, Alt.=7.991154m. Speed=0.360000m/h.</desc>
<speed>0.100000</speed>
</trkpt>
<trkpt lat="44.489697" lon="34.162487">
<ele>8.401009</ele>
<time>2011-10-13T11:07:17Z</time>
<desc>lat.=44.489697, lon.=34.162487, Alt.=8.401009m. Speed=0.324000m/h.</desc>
<speed>0.090000</speed>
</trkpt>
<trkpt lat="44.489693" lon="34.162491">
<ele>8.843147</ele>
<time>2011-10-13T11:07:22Z</time>
<desc>lat.=44.489693, lon.=34.162491, Alt.=8.843147m. Speed=0.288000m/h.</desc>
<speed>0.080000</speed>
</trkpt>
<trkpt lat="44.489689" lon="34.162491">
<ele>9.275276</ele>
<time>2011-10-13T11:07:27Z</time>
<desc>lat.=44.489689, lon.=34.162491, Alt.=9.275276m. Speed=0.756000m/h.</desc>
<speed>0.210000</speed>
</trkpt>
<trkpt lat="44.489685" lon="34.162487">
<ele>9.696663</ele>
<time>2011-10-13T11:07:32Z</time>
<desc>lat.=44.489685, lon.=34.162487, Alt.=9.696663m. Speed=0.324000m/h.</desc>
<speed>0.090000</speed>
</trkpt>
<trkpt lat="44.489693" lon="34.162483">
<ele>10.113655</ele>
<time>2011-10-13T11:07:37Z</time>
<desc>lat.=44.489693, lon.=34.162483, Alt.=10.113655m. Speed=0.684000m/h.</desc>
<speed>0.190000</speed>
</trkpt>
<trkpt lat="44.489700" lon="34.162483">
<ele>10.527473</ele>
<time>2011-10-13T11:07:42Z</time>
<desc>lat.=44.489700, lon.=34.162483, Alt.=10.527473m. Speed=0.756000m/h.</desc>
<speed>0.210000</speed>
</trkpt>
<trkpt lat="44.489712" lon="34.162479">
<ele>10.940071</ele>
<time>2011-10-13T11:07:47Z</time>
<desc>lat.=44.489712, lon.=34.162479, Alt.=10.940071m. Speed=0.828000m/h.</desc>
<speed>0.230000</speed>
</trkpt>
<trkpt lat="44.489719" lon="34.162479">
<ele>11.352669</ele>
<time>2011-10-13T11:07:52Z</time>
<desc>lat.=44.489719, lon.=34.162479, Alt.=11.352669m. Speed=0.900000m/h.</desc>
<speed>0.250000</speed>
</trkpt>
<trkpt lat="44.489731" lon="34.162476">
<ele>11.764534</ele>
<time>2011-10-13T11:07:57Z</time>
<desc>lat.=44.489731, lon.=34.162476, Alt.=11.764534m. Speed=0.828000m/h.</desc>
<speed>0.230000</speed>
</trkpt>
<trkpt lat="44.489727" lon="34.162472">
<ele>12.262093</ele>
<time>2011-10-13T11:08:02Z</time>
<desc>lat.=44.489727, lon.=34.162472, Alt.=12.262093m. Speed=0.180000m/h.</desc>
<speed>0.050000</speed>
</trkpt>
<trkpt lat="44.489723" lon="34.162472">
<ele>12.709846</ele>
<time>2011-10-13T11:08:07Z</time>
<desc>lat.=44.489723, lon.=34.162472, Alt.=12.709846m. Speed=0.720000m/h.</desc>
<speed>0.200000</speed>
</trkpt>
<trkpt lat="44.489754" lon="34.162472">
<ele>13.185188</ele>
<time>2011-10-13T11:08:12Z</time>
<desc>lat.=44.489754, lon.=34.162472, Alt.=13.185188m. Speed=4.716000m/h.</desc>
<speed>1.310000</speed>
</trkpt>
<trkpt lat="44.489761" lon="34.162361">
<ele>13.758430</ele>
<time>2011-10-13T11:08:17Z</time>
<desc>lat.=44.489761, lon.=34.162361, Alt.=13.758430m. Speed=9.720000m/h.</desc>
<speed>2.700000</speed>
</trkpt>
<trkpt lat="44.489784" lon="34.162224">
<ele>14.068001</ele>
<time>2011-10-13T11:08:22Z</time>
<desc>lat.=44.489784, lon.=34.162224, Alt.=14.068001m. Speed=6.048000m/h.</desc>
<speed>1.680000</speed>
</trkpt>
<trkpt lat="44.489777" lon="34.162174">
<ele>14.035286</ele>
<time>2011-10-13T11:08:27Z</time>
<desc>lat.=44.489777, lon.=34.162174, Alt.=14.035286m. Speed=5.004000m/h.</desc>
<speed>1.390000</speed>
</trkpt>
<trkpt lat="44.489727" lon="34.162159">
<ele>14.228645</ele>
<time>2011-10-13T11:08:32Z</time>
<desc>lat.=44.489727, lon.=34.162159, Alt.=14.228645m. Speed=6.624000m/h.</desc>
<speed>1.840000</speed>
</trkpt>
<trkpt lat="44.489655" lon="34.162045">
<ele>16.658463</ele>
<time>2011-10-13T11:08:37Z</time>
<desc>lat.=44.489655, lon.=34.162045, Alt.=16.658463m. Speed=7.524000m/h.</desc>
<speed>2.090000</speed>
</trkpt>
<trkpt lat="44.489525" lon="34.161976">
<ele>21.172623</ele>
<time>2011-10-13T11:08:42Z</time>
<desc>lat.=44.489525, lon.=34.161976, Alt.=21.172623m. Speed=8.676000m/h.</desc>
<speed>2.410000</speed>
</trkpt>
<trkpt lat="44.489410" lon="34.161880">
<ele>24.262955</ele>
<time>2011-10-13T11:08:47Z</time>
<desc>lat.=44.489410, lon.=34.161880, Alt.=24.262955m. Speed=8.064000m/h.</desc>
<speed>2.240000</speed>
</trkpt>
<trkpt lat="44.489403" lon="34.161716">
<ele>27.755142</ele>
<time>2011-10-13T11:08:52Z</time>
<desc>lat.=44.489403, lon.=34.161716, Alt.=27.755142m. Speed=9.972000m/h.</desc>
<speed>2.770000</speed>
</trkpt>
<trkpt lat="44.489418" lon="34.161552">
<ele>30.789322</ele>
<time>2011-10-13T11:08:57Z</time>
<desc>lat.=44.489418, lon.=34.161552, Alt.=30.789322m. Speed=8.028000m/h.</desc>
<speed>2.230000</speed>
</trkpt>
<trkpt lat="44.489407" lon="34.161415">
<ele>35.781769</ele>
<time>2011-10-13T11:09:02Z</time>
<desc>lat.=44.489407, lon.=34.161415, Alt.=35.781769m. Speed=7.200000m/h.</desc>
<speed>2.000000</speed>
</trkpt>
<trkpt lat="44.489372" lon="34.161301">
<ele>40.659698</ele>
<time>2011-10-13T11:09:07Z</time>
<desc>lat.=44.489372, lon.=34.161301, Alt.=40.659698m. Speed=6.768000m/h.</desc>
<speed>1.880000</speed>
</trkpt>
<trkpt lat="44.489326" lon="34.161175">
<ele>44.997589</ele>
<time>2011-10-13T11:09:12Z</time>
<desc>lat.=44.489326, lon.=34.161175, Alt.=44.997589m. Speed=8.604000m/h.</desc>
<speed>2.390000</speed>
</trkpt>
<trkpt lat="44.489292" lon="34.161018">
<ele>48.253448</ele>
<time>2011-10-13T11:09:17Z</time>
<desc>lat.=44.489292, lon.=34.161018, Alt.=48.253448m. Speed=8.100000m/h.</desc>
<speed>2.250000</speed>
</trkpt>
<trkpt lat="44.489254" lon="34.160938">
<ele>52.243683</ele>
<time>2011-10-13T11:09:22Z</time>
<desc>lat.=44.489254, lon.=34.160938, Alt.=52.243683m. Speed=2.700000m/h.</desc>
<speed>0.750000</speed>
</trkpt>
<trkpt lat="44.489216" lon="34.160862">
<ele>52.119659</ele>
<time>2011-10-13T11:09:27Z</time>
<desc>lat.=44.489216, lon.=34.160862, Alt.=52.119659m. Speed=3.384000m/h.</desc>
<speed>0.940000</speed>
</trkpt>
<trkpt lat="44.489166" lon="34.160789">
<ele>52.430206</ele>
<time>2011-10-13T11:09:32Z</time>
<desc>lat.=44.489166, lon.=34.160789, Alt.=52.430206m. Speed=1.728000m/h.</desc>
<speed>0.480000</speed>
</trkpt>
<trkpt lat="44.489117" lon="34.160744">
<ele>51.814972</ele>
<time>2011-10-13T11:09:37Z</time>
<desc>lat.=44.489117, lon.=34.160744, Alt.=51.814972m. Speed=1.116000m/h.</desc>
<speed>0.310000</speed>
</trkpt>
<trkpt lat="44.488995" lon="34.160755">
<ele>51.510284</ele>
<time>2011-10-13T11:09:42Z</time>
<desc>lat.=44.488995, lon.=34.160755, Alt.=51.510284m. Speed=0.108000m/h.</desc>
<speed>0.030000</speed>
</trkpt>
<trkpt lat="44.488995" lon="34.160740">
<ele>51.980011</ele>
<time>2011-10-13T11:09:47Z</time>
<desc>lat.=44.488995, lon.=34.160740, Alt.=51.980011m. Speed=1.476000m/h.</desc>
<speed>0.410000</speed>
</trkpt>
<trkpt lat="44.488949" lon="34.160664">
<ele>53.377472</ele>
<time>2011-10-13T11:09:52Z</time>
<desc>lat.=44.488949, lon.=34.160664, Alt.=53.377472m. Speed=6.984000m/h.</desc>
<speed>1.940000</speed>
</trkpt>
<trkpt lat="44.488899" lon="34.160564">
<ele>54.053253</ele>
<time>2011-10-13T11:09:57Z</time>
<desc>lat.=44.488899, lon.=34.160564, Alt.=54.053253m. Speed=6.732000m/h.</desc>
<speed>1.870000</speed>
</trkpt>
<trkpt lat="44.488834" lon="34.160484">
<ele>54.629425</ele>
<time>2011-10-13T11:10:02Z</time>
<desc>lat.=44.488834, lon.=34.160484, Alt.=54.629425m. Speed=6.228000m/h.</desc>
<speed>1.730000</speed>
</trkpt>
<trkpt lat="44.488762" lon="34.160347">
<ele>56.156769</ele>
<time>2011-10-13T11:10:07Z</time>
<desc>lat.=44.488762, lon.=34.160347, Alt.=56.156769m. Speed=8.172000m/h.</desc>
<speed>2.270000</speed>
</trkpt>
<trkpt lat="44.488697" lon="34.160236">
<ele>57.054230</ele>
<time>2011-10-13T11:10:12Z</time>
<desc>lat.=44.488697, lon.=34.160236, Alt.=57.054230m. Speed=6.804000m/h.</desc>
<speed>1.890000</speed>
</trkpt>
<trkpt lat="44.488617" lon="34.160149">
<ele>57.817902</ele>
<time>2011-10-13T11:10:17Z</time>
<desc>lat.=44.488617, lon.=34.160149, Alt.=57.817902m. Speed=7.128000m/h.</desc>
<speed>1.980000</speed>
</trkpt>
<trkpt lat="44.488537" lon="34.160084">
<ele>57.917511</ele>
<time>2011-10-13T11:10:22Z</time>
<desc>lat.=44.488537, lon.=34.160084, Alt.=57.917511m. Speed=8.064000m/h.</desc>
<speed>2.240000</speed>
</trkpt>
<trkpt lat="44.488510" lon="34.159992">
<ele>58.834503</ele>
<time>2011-10-13T11:10:27Z</time>
<desc>lat.=44.488510, lon.=34.159992, Alt.=58.834503m. Speed=3.492000m/h.</desc>
<speed>0.970000</speed>
</trkpt>
<trkpt lat="44.488491" lon="34.159931">
<ele>59.633331</ele>
<time>2011-10-13T11:10:32Z</time>
<desc>lat.=44.488491, lon.=34.159931, Alt.=59.633331m. Speed=2.232000m/h.</desc>
<speed>0.620000</speed>
</trkpt>
<trkpt lat="44.488411" lon="34.159882">
<ele>57.642120</ele>
<time>2011-10-13T11:10:37Z</time>
<desc>lat.=44.488411, lon.=34.159882, Alt.=57.642120m. Speed=1.692000m/h.</desc>
<speed>0.470000</speed>
</trkpt>
<trkpt lat="44.488369" lon="34.159828">
<ele>55.500519</ele>
<time>2011-10-13T11:10:42Z</time>
<desc>lat.=44.488369, lon.=34.159828, Alt.=55.500519m. Speed=1.584000m/h.</desc>
<speed>0.440000</speed>
</trkpt>
<trkpt lat="44.488335" lon="34.159805">
<ele>55.167511</ele>
<time>2011-10-13T11:10:47Z</time>
<desc>lat.=44.488335, lon.=34.159805, Alt.=55.167511m. Speed=1.620000m/h.</desc>
<speed>0.450000</speed>
</trkpt>
<trkpt lat="44.488281" lon="34.159801">
<ele>54.656769</ele>
<time>2011-10-13T11:10:52Z</time>
<desc>lat.=44.488281, lon.=34.159801, Alt.=54.656769m. Speed=1.548000m/h.</desc>
<speed>0.430000</speed>
</trkpt>
<trkpt lat="44.488228" lon="34.159790">
<ele>54.156769</ele>
<time>2011-10-13T11:10:57Z</time>
<desc>lat.=44.488228, lon.=34.159790, Alt.=54.156769m. Speed=1.944000m/h.</desc>
<speed>0.540000</speed>
</trkpt>
<trkpt lat="44.488171" lon="34.159740">
<ele>53.804230</ele>
<time>2011-10-13T11:11:02Z</time>
<desc>lat.=44.488171, lon.=34.159740, Alt.=53.804230m. Speed=3.636000m/h.</desc>
<speed>1.010000</speed>
</trkpt>
<trkpt lat="44.488026" lon="34.159721">
<ele>52.741730</ele>
<time>2011-10-13T11:11:07Z</time>
<desc>lat.=44.488026, lon.=34.159721, Alt.=52.741730m. Speed=4.104000m/h.</desc>
<speed>1.140000</speed>
</trkpt>
<trkpt lat="44.487793" lon="34.159592">
<ele>51.961456</ele>
<time>2011-10-13T11:11:12Z</time>
<desc>lat.=44.487793, lon.=34.159592, Alt.=51.961456m. Speed=3.096000m/h.</desc>
<speed>0.860000</speed>
</trkpt>
<trkpt lat="44.487656" lon="34.159565">
<ele>49.466339</ele>
<time>2011-10-13T11:11:17Z</time>
<desc>lat.=44.487656, lon.=34.159565, Alt.=49.466339m. Speed=1.728000m/h.</desc>
<speed>0.480000</speed>
</trkpt>
<trkpt lat="44.487526" lon="34.159573">
<ele>50.285675</ele>
<time>2011-10-13T11:11:22Z</time>
<desc>lat.=44.487526, lon.=34.159573, Alt.=50.285675m. Speed=3.240000m/h.</desc>
<speed>0.900000</speed>
</trkpt>
<trkpt lat="44.487427" lon="34.159512">
<ele>51.864777</ele>
<time>2011-10-13T11:11:27Z</time>
<desc>lat.=44.487427, lon.=34.159512, Alt.=51.864777m. Speed=3.672000m/h.</desc>
<speed>1.020000</speed>
</trkpt>
<trkpt lat="44.487392" lon="34.159386">
<ele>53.381378</ele>
<time>2011-10-13T11:11:32Z</time>
<desc>lat.=44.487392, lon.=34.159386, Alt.=53.381378m. Speed=3.420000m/h.</desc>
<speed>0.950000</speed>
</trkpt>
<trkpt lat="44.487350" lon="34.159241">
<ele>54.382355</ele>
<time>2011-10-13T11:11:37Z</time>
<desc>lat.=44.487350, lon.=34.159241, Alt.=54.382355m. Speed=3.312000m/h.</desc>
<speed>0.920000</speed>
</trkpt>
<trkpt lat="44.487286" lon="34.159119">
<ele>55.307159</ele>
<time>2011-10-13T11:11:42Z</time>
<desc>lat.=44.487286, lon.=34.159119, Alt.=55.307159m. Speed=4.212000m/h.</desc>
<speed>1.170000</speed>
</trkpt>
<trkpt lat="44.487217" lon="34.158974">
<ele>56.715363</ele>
<time>2011-10-13T11:11:47Z</time>
<desc>lat.=44.487217, lon.=34.158974, Alt.=56.715363m. Speed=8.712000m/h.</desc>
<speed>2.420000</speed>
</trkpt>
<trkpt lat="44.487183" lon="34.158848">
<ele>56.027863</ele>
<time>2011-10-13T11:11:52Z</time>
<desc>lat.=44.487183, lon.=34.158848, Alt.=56.027863m. Speed=8.172000m/h.</desc>
<speed>2.270000</speed>
</trkpt>
<trkpt lat="44.487103" lon="34.158764">
<ele>50.934113</ele>
<time>2011-10-13T11:11:57Z</time>
<desc>lat.=44.487103, lon.=34.158764, Alt.=50.934113m. Speed=4.896000m/h.</desc>
<speed>1.360000</speed>
</trkpt>
<trkpt lat="44.486958" lon="34.158714">
<ele>50.291534</ele>
<time>2011-10-13T11:12:02Z</time>
<desc>lat.=44.486958, lon.=34.158714, Alt.=50.291534m. Speed=4.536000m/h.</desc>
<speed>1.260000</speed>
</trkpt>
<trkpt lat="44.486832" lon="34.158623">
<ele>50.775909</ele>
<time>2011-10-13T11:12:07Z</time>
<desc>lat.=44.486832, lon.=34.158623, Alt.=50.775909m. Speed=6.840000m/h.</desc>
<speed>1.900000</speed>
</trkpt>
<trkpt lat="44.486736" lon="34.158504">
<ele>52.446808</ele>
<time>2011-10-13T11:12:12Z</time>
<desc>lat.=44.486736, lon.=34.158504, Alt.=52.446808m. Speed=4.788000m/h.</desc>
<speed>1.330000</speed>
</trkpt>
<trkpt lat="44.486660" lon="34.158451">
<ele>53.626495</ele>
<time>2011-10-13T11:12:17Z</time>
<desc>lat.=44.486660, lon.=34.158451, Alt.=53.626495m. Speed=6.120000m/h.</desc>
<speed>1.700000</speed>
</trkpt>
<trkpt lat="44.486588" lon="34.158405">
<ele>56.143097</ele>
<time>2011-10-13T11:12:22Z</time>
<desc>lat.=44.486588, lon.=34.158405, Alt.=56.143097m. Speed=3.096000m/h.</desc>
<speed>0.860000</speed>
</trkpt>
<trkpt lat="44.486465" lon="34.158417">
<ele>55.393097</ele>
<time>2011-10-13T11:12:27Z</time>
<desc>lat.=44.486465, lon.=34.158417, Alt.=55.393097m. Speed=1.404000m/h.</desc>
<speed>0.390000</speed>
</trkpt>
<trkpt lat="44.486465" lon="34.158279">
<ele>53.210480</ele>
<time>2011-10-13T11:12:32Z</time>
<desc>lat.=44.486465, lon.=34.158279, Alt.=53.210480m. Speed=2.916000m/h.</desc>
<speed>0.810000</speed>
</trkpt>
<trkpt lat="44.486454" lon="34.158237">
<ele>53.911652</ele>
<time>2011-10-13T11:12:37Z</time>
<desc>lat.=44.486454, lon.=34.158237, Alt.=53.911652m. Speed=2.700000m/h.</desc>
<speed>0.750000</speed>
</trkpt>
<trkpt lat="44.486465" lon="34.158176">
<ele>55.765167</ele>
<time>2011-10-13T11:12:42Z</time>
<desc>lat.=44.486465, lon.=34.158176, Alt.=55.765167m. Speed=2.700000m/h.</desc>
<speed>0.750000</speed>
</trkpt>
<trkpt lat="44.486458" lon="34.158142">
<ele>57.740753</ele>
<time>2011-10-13T11:12:47Z</time>
<desc>lat.=44.486458, lon.=34.158142, Alt.=57.740753m. Speed=2.268000m/h.</desc>
<speed>0.630000</speed>
</trkpt>
<trkpt lat="44.486401" lon="34.158077">
<ele>57.466339</ele>
<time>2011-10-13T11:12:52Z</time>
<desc>lat.=44.486401, lon.=34.158077, Alt.=57.466339m. Speed=1.440000m/h.</desc>
<speed>0.400000</speed>
</trkpt>
<trkpt lat="44.486282" lon="34.158085">
<ele>55.131378</ele>
<time>2011-10-13T11:12:57Z</time>
<desc>lat.=44.486282, lon.=34.158085, Alt.=55.131378m. Speed=4.032000m/h.</desc>
<speed>1.120000</speed>
</trkpt>
<trkpt lat="44.486248" lon="34.157883">
<ele>55.795441</ele>
<time>2011-10-13T11:13:02Z</time>
<desc>lat.=44.486248, lon.=34.157883, Alt.=55.795441m. Speed=8.496000m/h.</desc>
<speed>2.360000</speed>
</trkpt>
<trkpt lat="44.486164" lon="34.157764">
<ele>54.660675</ele>
<time>2011-10-13T11:13:07Z</time>
<desc>lat.=44.486164, lon.=34.157764, Alt.=54.660675m. Speed=5.616000m/h.</desc>
<speed>1.560000</speed>
</trkpt>
<trkpt lat="44.486130" lon="34.157715">
<ele>56.987823</ele>
<time>2011-10-13T11:13:12Z</time>
<desc>lat.=44.486130, lon.=34.157715, Alt.=56.987823m. Speed=2.124000m/h.</desc>
<speed>0.590000</speed>
</trkpt>
<trkpt lat="44.486111" lon="34.157627">
<ele>61.522003</ele>
<time>2011-10-13T11:13:17Z</time>
<desc>lat.=44.486111, lon.=34.157627, Alt.=61.522003m. Speed=4.068000m/h.</desc>
<speed>1.130000</speed>
</trkpt>
<trkpt lat="44.486073" lon="34.157589">
<ele>65.938538</ele>
<time>2011-10-13T11:13:22Z</time>
<desc>lat.=44.486073, lon.=34.157589, Alt.=65.938538m. Speed=0.828000m/h.</desc>
<speed>0.230000</speed>
</trkpt>
<trkpt lat="44.486069" lon="34.157513">
<ele>68.713928</ele>
<time>2011-10-13T11:13:27Z</time>
<desc>lat.=44.486069, lon.=34.157513, Alt.=68.713928m. Speed=1.800000m/h.</desc>
<speed>0.500000</speed>
</trkpt>
<trkpt lat="44.486023" lon="34.157551">
<ele>71.934631</ele>
<time>2011-10-13T11:13:32Z</time>
<desc>lat.=44.486023, lon.=34.157551, Alt.=71.934631m. Speed=2.664000m/h.</desc>
<speed>0.740000</speed>
</trkpt>
<trkpt lat="44.485901" lon="34.157597">
<ele>73.252991</ele>
<time>2011-10-13T11:13:37Z</time>
<desc>lat.=44.485901, lon.=34.157597, Alt.=73.252991m. Speed=0.972000m/h.</desc>
<speed>0.270000</speed>
</trkpt>
<trkpt lat="44.485725" lon="34.157677">
<ele>74.157288</ele>
<time>2011-10-13T11:13:42Z</time>
<desc>lat.=44.485725, lon.=34.157677, Alt.=74.157288m. Speed=3.240000m/h.</desc>
<speed>0.900000</speed>
</trkpt>
<trkpt lat="44.485573" lon="34.157654">
<ele>79.145569</ele>
<time>2011-10-13T11:13:47Z</time>
<desc>lat.=44.485573, lon.=34.157654, Alt.=79.145569m. Speed=5.688000m/h.</desc>
<speed>1.580000</speed>
</trkpt>
<trkpt lat="44.485485" lon="34.157600">
<ele>83.862366</ele>
<time>2011-10-13T11:13:52Z</time>
<desc>lat.=44.485485, lon.=34.157600, Alt.=83.862366m. Speed=5.580000m/h.</desc>
<speed>1.550000</speed>
</trkpt>
<trkpt lat="44.485344" lon="34.157623">
<ele>88.336975</ele>
<time>2011-10-13T11:13:57Z</time>
<desc>lat.=44.485344, lon.=34.157623, Alt.=88.336975m. Speed=3.816000m/h.</desc>
<speed>1.060000</speed>
</trkpt>
<trkpt lat="44.485188" lon="34.157654">
<ele>92.747131</ele>
<time>2011-10-13T11:14:02Z</time>
<desc>lat.=44.485188, lon.=34.157654, Alt.=92.747131m. Speed=3.456000m/h.</desc>
<speed>0.960000</speed>
</trkpt>
<trkpt lat="44.485031" lon="34.157635">
<ele>96.893616</ele>
<time>2011-10-13T11:14:07Z</time>
<desc>lat.=44.485031, lon.=34.157635, Alt.=96.893616m. Speed=3.960000m/h.</desc>
<speed>1.100000</speed>
</trkpt>
<trkpt lat="44.484894" lon="34.157623">
<ele>100.268616</ele>
<time>2011-10-13T11:14:12Z</time>
<desc>lat.=44.484894, lon.=34.157623, Alt.=100.268616m. Speed=3.168000m/h.</desc>
<speed>0.880000</speed>
</trkpt>
<trkpt lat="44.484825" lon="34.157528">
<ele>104.071350</ele>
<time>2011-10-13T11:14:17Z</time>
<desc>lat.=44.484825, lon.=34.157528, Alt.=104.071350m. Speed=4.104000m/h.</desc>
<speed>1.140000</speed>
</trkpt>
<trkpt lat="44.484825" lon="34.157413">
<ele>108.926819</ele>
<time>2011-10-13T11:14:22Z</time>
<desc>lat.=44.484825, lon.=34.157413, Alt.=108.926819m. Speed=8.172000m/h.</desc>
<speed>2.270000</speed>
</trkpt>
<trkpt lat="44.484905" lon="34.157200">
<ele>113.754944</ele>
<time>2011-10-13T11:14:27Z</time>
<desc>lat.=44.484905, lon.=34.157200, Alt.=113.754944m. Speed=8.532000m/h.</desc>
<speed>2.370000</speed>
</trkpt>
<trkpt lat="44.484955" lon="34.157040">
<ele>118.538147</ele>
<time>2011-10-13T11:14:32Z</time>
<desc>lat.=44.484955, lon.=34.157040, Alt.=118.538147m. Speed=6.624000m/h.</desc>
<speed>1.840000</speed>
</trkpt>
<trkpt lat="44.484985" lon="34.156845">
<ele>122.284241</ele>
<time>2011-10-13T11:14:37Z</time>
<desc>lat.=44.484985, lon.=34.156845, Alt.=122.284241m. Speed=5.904000m/h.</desc>
<speed>1.640000</speed>
</trkpt>
<trkpt lat="44.484821" lon="34.156830">
<ele>126.428772</ele>
<time>2011-10-13T11:14:42Z</time>
<desc>lat.=44.484821, lon.=34.156830, Alt.=126.428772m. Speed=4.104000m/h.</desc>
<speed>1.140000</speed>
</trkpt>
<trkpt lat="44.484653" lon="34.156811">
<ele>130.564575</ele>
<time>2011-10-13T11:14:47Z</time>
<desc>lat.=44.484653, lon.=34.156811, Alt.=130.564575m. Speed=5.436000m/h.</desc>
<speed>1.510000</speed>
</trkpt>
<trkpt lat="44.484497" lon="34.156857">
<ele>133.142700</ele>
<time>2011-10-13T11:14:52Z</time>
<desc>lat.=44.484497, lon.=34.156857, Alt.=133.142700m. Speed=3.420000m/h.</desc>
<speed>0.950000</speed>
</trkpt>
<trkpt lat="44.484383" lon="34.156826">
<ele>135.693481</ele>
<time>2011-10-13T11:14:57Z</time>
<desc>lat.=44.484383, lon.=34.156826, Alt.=135.693481m. Speed=2.736000m/h.</desc>
<speed>0.760000</speed>
</trkpt>
<trkpt lat="44.484364" lon="34.156754">
<ele>138.955200</ele>
<time>2011-10-13T11:15:02Z</time>
<desc>lat.=44.484364, lon.=34.156754, Alt.=138.955200m. Speed=1.224000m/h.</desc>
<speed>0.340000</speed>
</trkpt>
<trkpt lat="44.484329" lon="34.156681">
<ele>141.263794</ele>
<time>2011-10-13T11:15:07Z</time>
<desc>lat.=44.484329, lon.=34.156681, Alt.=141.263794m. Speed=3.492000m/h.</desc>
<speed>0.970000</speed>
</trkpt>
<trkpt lat="44.484291" lon="34.156612">
<ele>143.052856</ele>
<time>2011-10-13T11:15:12Z</time>
<desc>lat.=44.484291, lon.=34.156612, Alt.=143.052856m. Speed=1.332000m/h.</desc>
<speed>0.370000</speed>
</trkpt>
<trkpt lat="44.484337" lon="34.156464">
<ele>145.607544</ele>
<time>2011-10-13T11:15:17Z</time>
<desc>lat.=44.484337, lon.=34.156464, Alt.=145.607544m. Speed=5.148000m/h.</desc>
<speed>1.430000</speed>
</trkpt>
<trkpt lat="44.484360" lon="34.156319">
<ele>147.607544</ele>
<time>2011-10-13T11:15:22Z</time>
<desc>lat.=44.484360, lon.=34.156319, Alt.=147.607544m. Speed=5.148000m/h.</desc>
<speed>1.430000</speed>
</trkpt>
<trkpt lat="44.484299" lon="34.156212">
<ele>149.373169</ele>
<time>2011-10-13T11:15:27Z</time>
<desc>lat.=44.484299, lon.=34.156212, Alt.=149.373169m. Speed=5.760000m/h.</desc>
<speed>1.600000</speed>
</trkpt>
<trkpt lat="44.484215" lon="34.156139">
<ele>152.904419</ele>
<time>2011-10-13T11:15:32Z</time>
<desc>lat.=44.484215, lon.=34.156139, Alt.=152.904419m. Speed=6.552000m/h.</desc>
<speed>1.820000</speed>
</trkpt>
<trkpt lat="44.484016" lon="34.156185">
<ele>155.611450</ele>
<time>2011-10-13T11:15:37Z</time>
<desc>lat.=44.484016, lon.=34.156185, Alt.=155.611450m. Speed=6.444000m/h.</desc>
<speed>1.790000</speed>
</trkpt>
<trkpt lat="44.483814" lon="34.156189">
<ele>158.259888</ele>
<time>2011-10-13T11:15:42Z</time>
<desc>lat.=44.483814, lon.=34.156189, Alt.=158.259888m. Speed=1.980000m/h.</desc>
<speed>0.550000</speed>
</trkpt>
<trkpt lat="44.483627" lon="34.156242">
<ele>158.041138</ele>
<time>2011-10-13T11:15:47Z</time>
<desc>lat.=44.483627, lon.=34.156242, Alt.=158.041138m. Speed=0.432000m/h.</desc>
<speed>0.120000</speed>
</trkpt>
<trkpt lat="44.483459" lon="34.156200">
<ele>159.478638</ele>
<time>2011-10-13T11:15:52Z</time>
<desc>lat.=44.483459, lon.=34.156200, Alt.=159.478638m. Speed=5.400000m/h.</desc>
<speed>1.500000</speed>
</trkpt>
<trkpt lat="44.483311" lon="34.156178">
<ele>161.107544</ele>
<time>2011-10-13T11:15:57Z</time>
<desc>lat.=44.483311, lon.=34.156178, Alt.=161.107544m. Speed=4.968000m/h.</desc>
<speed>1.380000</speed>
</trkpt>
<trkpt lat="44.483257" lon="34.156059">
<ele>164.384888</ele>
<time>2011-10-13T11:16:02Z</time>
<desc>lat.=44.483257, lon.=34.156059, Alt.=164.384888m. Speed=6.120000m/h.</desc>
<speed>1.700000</speed>
</trkpt>
<trkpt lat="44.483158" lon="34.156059">
<ele>167.877075</ele>
<time>2011-10-13T11:16:07Z</time>
<desc>lat.=44.483158, lon.=34.156059, Alt.=167.877075m. Speed=2.088000m/h.</desc>
<speed>0.580000</speed>
</trkpt>
<trkpt lat="44.483051" lon="34.156075">
<ele>172.119263</ele>
<time>2011-10-13T11:16:12Z</time>
<desc>lat.=44.483051, lon.=34.156075, Alt.=172.119263m. Speed=2.844000m/h.</desc>
<speed>0.790000</speed>
</trkpt>
<trkpt lat="44.482979" lon="34.155987">
<ele>172.595825</ele>
<time>2011-10-13T11:16:17Z</time>
<desc>lat.=44.482979, lon.=34.155987, Alt.=172.595825m. Speed=3.348000m/h.</desc>
<speed>0.930000</speed>
</trkpt>
<trkpt lat="44.482960" lon="34.155693">
<ele>170.013794</ele>
<time>2011-10-13T11:16:22Z</time>
<desc>lat.=44.482960, lon.=34.155693, Alt.=170.013794m. Speed=4.716000m/h.</desc>
<speed>1.310000</speed>
</trkpt>
<trkpt lat="44.482925" lon="34.155556">
<ele>169.970825</ele>
<time>2011-10-13T11:16:27Z</time>
<desc>lat.=44.482925, lon.=34.155556, Alt.=169.970825m. Speed=3.348000m/h.</desc>
<speed>0.930000</speed>
</trkpt>
<trkpt lat="44.482883" lon="34.155445">
<ele>169.498169</ele>
<time>2011-10-13T11:16:32Z</time>
<desc>lat.=44.482883, lon.=34.155445, Alt.=169.498169m. Speed=1.764000m/h.</desc>
<speed>0.490000</speed>
</trkpt>
<trkpt lat="44.482841" lon="34.155270">
<ele>172.724731</ele>
<time>2011-10-13T11:16:37Z</time>
<desc>lat.=44.482841, lon.=34.155270, Alt.=172.724731m. Speed=5.112000m/h.</desc>
<speed>1.420000</speed>
</trkpt>
<trkpt lat="44.482849" lon="34.155197">
<ele>176.107544</ele>
<time>2011-10-13T11:16:42Z</time>
<desc>lat.=44.482849, lon.=34.155197, Alt.=176.107544m. Speed=3.204000m/h.</desc>
<speed>0.890000</speed>
</trkpt>
<trkpt lat="44.482841" lon="34.155128">
<ele>178.173950</ele>
<time>2011-10-13T11:16:47Z</time>
<desc>lat.=44.482841, lon.=34.155128, Alt.=178.173950m. Speed=1.008000m/h.</desc>
<speed>0.280000</speed>
</trkpt>
<trkpt lat="44.482841" lon="34.155087">
<ele>178.697388</ele>
<time>2011-10-13T11:16:52Z</time>
<desc>lat.=44.482841, lon.=34.155087, Alt.=178.697388m. Speed=3.456000m/h.</desc>
<speed>0.960000</speed>
</trkpt>
<trkpt lat="44.482830" lon="34.155029">
<ele>178.408325</ele>
<time>2011-10-13T11:16:57Z</time>
<desc>lat.=44.482830, lon.=34.155029, Alt.=178.408325m. Speed=2.304000m/h.</desc>
<speed>0.640000</speed>
</trkpt>
<trkpt lat="44.482792" lon="34.155029">
<ele>177.822388</ele>
<time>2011-10-13T11:17:02Z</time>
<desc>lat.=44.482792, lon.=34.155029, Alt.=177.822388m. Speed=1.980000m/h.</desc>
<speed>0.550000</speed>
</trkpt>
<trkpt lat="44.482788" lon="34.154995">
<ele>177.720825</ele>
<time>2011-10-13T11:17:07Z</time>
<desc>lat.=44.482788, lon.=34.154995, Alt.=177.720825m. Speed=0.432000m/h.</desc>
<speed>0.120000</speed>
</trkpt>
<trkpt lat="44.482780" lon="34.154922">
<ele>177.513794</ele>
<time>2011-10-13T11:17:12Z</time>
<desc>lat.=44.482780, lon.=34.154922, Alt.=177.513794m. Speed=0.612000m/h.</desc>
<speed>0.170000</speed>
</trkpt>
<trkpt lat="44.482807" lon="34.154606">
<ele>173.091919</ele>
<time>2011-10-13T11:17:17Z</time>
<desc>lat.=44.482807, lon.=34.154606, Alt.=173.091919m. Speed=3.348000m/h.</desc>
<speed>0.930000</speed>
</trkpt>
<trkpt lat="44.482761" lon="34.154457">
<ele>173.279419</ele>
<time>2011-10-13T11:17:22Z</time>
<desc>lat.=44.482761, lon.=34.154457, Alt.=173.279419m. Speed=2.952000m/h.</desc>
<speed>0.820000</speed>
</trkpt>
<trkpt lat="44.482719" lon="34.154285">
<ele>169.771606</ele>
<time>2011-10-13T11:17:27Z</time>
<desc>lat.=44.482719, lon.=34.154285, Alt.=169.771606m. Speed=3.312000m/h.</desc>
<speed>0.920000</speed>
</trkpt>
<trkpt lat="44.482712" lon="34.154110">
<ele>168.955200</ele>
<time>2011-10-13T11:17:32Z</time>
<desc>lat.=44.482712, lon.=34.154110, Alt.=168.955200m. Speed=4.716000m/h.</desc>
<speed>1.310000</speed>
</trkpt>
<trkpt lat="44.482674" lon="34.153961">
<ele>170.920044</ele>
<time>2011-10-13T11:17:37Z</time>
<desc>lat.=44.482674, lon.=34.153961, Alt.=170.920044m. Speed=5.652000m/h.</desc>
<speed>1.570000</speed>
</trkpt>
<trkpt lat="44.482624" lon="34.153683">
<ele>170.724731</ele>
<time>2011-10-13T11:17:42Z</time>
<desc>lat.=44.482624, lon.=34.153683, Alt.=170.724731m. Speed=0.432000m/h.</desc>
<speed>0.120000</speed>
</trkpt>
<trkpt lat="44.482399" lon="34.153530">
<ele>169.814575</ele>
<time>2011-10-13T11:17:47Z</time>
<desc>lat.=44.482399, lon.=34.153530, Alt.=169.814575m. Speed=1.944000m/h.</desc>
<speed>0.540000</speed>
</trkpt>
<trkpt lat="44.482281" lon="34.153450">
<ele>169.244263</ele>
<time>2011-10-13T11:17:52Z</time>
<desc>lat.=44.482281, lon.=34.153450, Alt.=169.244263m. Speed=3.672000m/h.</desc>
<speed>1.020000</speed>
</trkpt>
<trkpt lat="44.482098" lon="34.153416">
<ele>168.580200</ele>
<time>2011-10-13T11:17:57Z</time>
<desc>lat.=44.482098, lon.=34.153416, Alt.=168.580200m. Speed=3.492000m/h.</desc>
<speed>0.970000</speed>
</trkpt>
<trkpt lat="44.481819" lon="34.153484">
<ele>166.595825</ele>
<time>2011-10-13T11:18:02Z</time>
<desc>lat.=44.481819, lon.=34.153484, Alt.=166.595825m. Speed=3.852000m/h.</desc>
<speed>1.070000</speed>
</trkpt>
<trkpt lat="44.481670" lon="34.153450">
<ele>165.400513</ele>
<time>2011-10-13T11:18:07Z</time>
<desc>lat.=44.481670, lon.=34.153450, Alt.=165.400513m. Speed=4.356000m/h.</desc>
<speed>1.210000</speed>
</trkpt>
<trkpt lat="44.481571" lon="34.153378">
<ele>164.451294</ele>
<time>2011-10-13T11:18:12Z</time>
<desc>lat.=44.481571, lon.=34.153378, Alt.=164.451294m. Speed=3.564000m/h.</desc>
<speed>0.990000</speed>
</trkpt>
<trkpt lat="44.481518" lon="34.153294">
<ele>163.466919</ele>
<time>2011-10-13T11:18:17Z</time>
<desc>lat.=44.481518, lon.=34.153294, Alt.=163.466919m. Speed=3.096000m/h.</desc>
<speed>0.860000</speed>
</trkpt>
<trkpt lat="44.481495" lon="34.153156">
<ele>162.818481</ele>
<time>2011-10-13T11:18:22Z</time>
<desc>lat.=44.481495, lon.=34.153156, Alt.=162.818481m. Speed=3.384000m/h.</desc>
<speed>0.940000</speed>
</trkpt>
<trkpt lat="44.481441" lon="34.153076">
<ele>160.982544</ele>
<time>2011-10-13T11:18:27Z</time>
<desc>lat.=44.481441, lon.=34.153076, Alt.=160.982544m. Speed=3.960000m/h.</desc>
<speed>1.100000</speed>
</trkpt>
<trkpt lat="44.481373" lon="34.153000">
<ele>162.283325</ele>
<time>2011-10-13T11:18:32Z</time>
<desc>lat.=44.481373, lon.=34.153000, Alt.=162.283325m. Speed=4.752000m/h.</desc>
<speed>1.320000</speed>
</trkpt>
<trkpt lat="44.481293" lon="34.152901">
<ele>163.994263</ele>
<time>2011-10-13T11:18:37Z</time>
<desc>lat.=44.481293, lon.=34.152901, Alt.=163.994263m. Speed=5.148000m/h.</desc>
<speed>1.430000</speed>
</trkpt>
<trkpt lat="44.481220" lon="34.152828">
<ele>164.912231</ele>
<time>2011-10-13T11:18:42Z</time>
<desc>lat.=44.481220, lon.=34.152828, Alt.=164.912231m. Speed=4.860000m/h.</desc>
<speed>1.350000</speed>
</trkpt>
<trkpt lat="44.481178" lon="34.152714">
<ele>165.091919</ele>
<time>2011-10-13T11:18:47Z</time>
<desc>lat.=44.481178, lon.=34.152714, Alt.=165.091919m. Speed=7.560000m/h.</desc>
<speed>2.100000</speed>
</trkpt>
<trkpt lat="44.481129" lon="34.152603">
<ele>167.806763</ele>
<time>2011-10-13T11:18:52Z</time>
<desc>lat.=44.481129, lon.=34.152603, Alt.=167.806763m. Speed=3.888000m/h.</desc>
<speed>1.080000</speed>
</trkpt>
<trkpt lat="44.481071" lon="34.152458">
<ele>169.767700</ele>
<time>2011-10-13T11:18:57Z</time>
<desc>lat.=44.481071, lon.=34.152458, Alt.=169.767700m. Speed=3.276000m/h.</desc>
<speed>0.910000</speed>
</trkpt>
<trkpt lat="44.481026" lon="34.152325">
<ele>170.963013</ele>
<time>2011-10-13T11:19:02Z</time>
<desc>lat.=44.481026, lon.=34.152325, Alt.=170.963013m. Speed=1.800000m/h.</desc>
<speed>0.500000</speed>
</trkpt>
<trkpt lat="44.480972" lon="34.152248">
<ele>172.220825</ele>
<time>2011-10-13T11:19:07Z</time>
<desc>lat.=44.480972, lon.=34.152248, Alt.=172.220825m. Speed=3.600000m/h.</desc>
<speed>1.000000</speed>
</trkpt>
<trkpt lat="44.480930" lon="34.152172">
<ele>173.103638</ele>
<time>2011-10-13T11:19:12Z</time>
<desc>lat.=44.480930, lon.=34.152172, Alt.=173.103638m. Speed=5.868000m/h.</desc>
<speed>1.630000</speed>
</trkpt>
<trkpt lat="44.480865" lon="34.152073">
<ele>173.752075</ele>
<time>2011-10-13T11:19:17Z</time>
<desc>lat.=44.480865, lon.=34.152073, Alt.=173.752075m. Speed=0.828000m/h.</desc>
<speed>0.230000</speed>
</trkpt>
<trkpt lat="44.480808" lon="34.152023">
<ele>173.224731</ele>
<time>2011-10-13T11:19:22Z</time>
<desc>lat.=44.480808, lon.=34.152023, Alt.=173.224731m. Speed=0.576000m/h.</desc>
<speed>0.160000</speed>
</trkpt>
<trkpt lat="44.480789" lon="34.151920">
<ele>172.103638</ele>
<time>2011-10-13T11:19:27Z</time>
<desc>lat.=44.480789, lon.=34.151920, Alt.=172.103638m. Speed=2.700000m/h.</desc>
<speed>0.750000</speed>
</trkpt>
<trkpt lat="44.480709" lon="34.151890">
<ele>173.908325</ele>
<time>2011-10-13T11:19:32Z</time>
<desc>lat.=44.480709, lon.=34.151890, Alt.=173.908325m. Speed=2.592000m/h.</desc>
<speed>0.720000</speed>
</trkpt>
<trkpt lat="44.480637" lon="34.151871">
<ele>174.435669</ele>
<time>2011-10-13T11:19:37Z</time>
<desc>lat.=44.480637, lon.=34.151871, Alt.=174.435669m. Speed=2.556000m/h.</desc>
<speed>0.710000</speed>
</trkpt>
<trkpt lat="44.480595" lon="34.151779">
<ele>175.334106</ele>
<time>2011-10-13T11:19:42Z</time>
<desc>lat.=44.480595, lon.=34.151779, Alt.=175.334106m. Speed=1.872000m/h.</desc>
<speed>0.520000</speed>
</trkpt>
<trkpt lat="44.480556" lon="34.151627">
<ele>172.603638</ele>
<time>2011-10-13T11:19:47Z</time>
<desc>lat.=44.480556, lon.=34.151627, Alt.=172.603638m. Speed=1.008000m/h.</desc>
<speed>0.280000</speed>
</trkpt>
<trkpt lat="44.480530" lon="34.151497">
<ele>170.420044</ele>
<time>2011-10-13T11:19:52Z</time>
<desc>lat.=44.480530, lon.=34.151497, Alt.=170.420044m. Speed=1.584000m/h.</desc>
<speed>0.440000</speed>
</trkpt>
<trkpt lat="44.480473" lon="34.151443">
<ele>171.599731</ele>
<time>2011-10-13T11:19:57Z</time>
<desc>lat.=44.480473, lon.=34.151443, Alt.=171.599731m. Speed=4.536000m/h.</desc>
<speed>1.260000</speed>
</trkpt>
<trkpt lat="44.480419" lon="34.151329">
<ele>172.834106</ele>
<time>2011-10-13T11:20:02Z</time>
<desc>lat.=44.480419, lon.=34.151329, Alt.=172.834106m. Speed=6.120000m/h.</desc>
<speed>1.700000</speed>
</trkpt>
<trkpt lat="44.480381" lon="34.151192">
<ele>173.916138</ele>
<time>2011-10-13T11:20:07Z</time>
<desc>lat.=44.480381, lon.=34.151192, Alt.=173.916138m. Speed=4.788000m/h.</desc>
<speed>1.330000</speed>
</trkpt>
<trkpt lat="44.480419" lon="34.150944">
<ele>174.181763</ele>
<time>2011-10-13T11:20:12Z</time>
<desc>lat.=44.480419, lon.=34.150944, Alt.=174.181763m. Speed=6.408000m/h.</desc>
<speed>1.780000</speed>
</trkpt>
<trkpt lat="44.480465" lon="34.150692">
<ele>173.025513</ele>
<time>2011-10-13T11:20:17Z</time>
<desc>lat.=44.480465, lon.=34.150692, Alt.=173.025513m. Speed=5.364000m/h.</desc>
<speed>1.490000</speed>
</trkpt>
<trkpt lat="44.480469" lon="34.150497">
<ele>173.064575</ele>
<time>2011-10-13T11:20:22Z</time>
<desc>lat.=44.480469, lon.=34.150497, Alt.=173.064575m. Speed=0.684000m/h.</desc>
<speed>0.190000</speed>
</trkpt>
<trkpt lat="44.480518" lon="34.150433">
<ele>169.545044</ele>
<time>2011-10-13T11:20:27Z</time>
<desc>lat.=44.480518, lon.=34.150433, Alt.=169.545044m. Speed=0.828000m/h.</desc>
<speed>0.230000</speed>
</trkpt>
<trkpt lat="44.480419" lon="34.150269">
<ele>174.095825</ele>
<time>2011-10-13T11:20:32Z</time>
<desc>lat.=44.480419, lon.=34.150269, Alt.=174.095825m. Speed=0.648000m/h.</desc>
<speed>0.180000</speed>
</trkpt>
<trkpt lat="44.480328" lon="34.150112">
<ele>170.170044</ele>
<time>2011-10-13T11:20:37Z</time>
<desc>lat.=44.480328, lon.=34.150112, Alt.=170.170044m. Speed=0.936000m/h.</desc>
<speed>0.260000</speed>
</trkpt>
<trkpt lat="44.480297" lon="34.150085">
<ele>168.220825</ele>
<time>2011-10-13T11:20:42Z</time>
<desc>lat.=44.480297, lon.=34.150085, Alt.=168.220825m. Speed=0.936000m/h.</desc>
<speed>0.260000</speed>
</trkpt>
<trkpt lat="44.480274" lon="34.150173">
<ele>164.869263</ele>
<time>2011-10-13T11:20:47Z</time>
<desc>lat.=44.480274, lon.=34.150173, Alt.=164.869263m. Speed=0.324000m/h.</desc>
<speed>0.090000</speed>
</trkpt>
<trkpt lat="44.480236" lon="34.150215">
<ele>159.170044</ele>
<time>2011-10-13T11:20:52Z</time>
<desc>lat.=44.480236, lon.=34.150215, Alt.=159.170044m. Speed=1.548000m/h.</desc>
<speed>0.430000</speed>
</trkpt>
<trkpt lat="44.480217" lon="34.150173">
<ele>154.275513</ele>
<time>2011-10-13T11:20:57Z</time>
<desc>lat.=44.480217, lon.=34.150173, Alt.=154.275513m. Speed=3.096000m/h.</desc>
<speed>0.860000</speed>
</trkpt>
<trkpt lat="44.480164" lon="34.150211">
<ele>149.580200</ele>
<time>2011-10-13T11:21:02Z</time>
<desc>lat.=44.480164, lon.=34.150211, Alt.=149.580200m. Speed=0.468000m/h.</desc>
<speed>0.130000</speed>
</trkpt>
<trkpt lat="44.480118" lon="34.150238">
<ele>146.435669</ele>
<time>2011-10-13T11:21:07Z</time>
<desc>lat.=44.480118, lon.=34.150238, Alt.=146.435669m. Speed=1.368000m/h.</desc>
<speed>0.380000</speed>
</trkpt>
<trkpt lat="44.480061" lon="34.150303">
<ele>145.357544</ele>
<time>2011-10-13T11:21:12Z</time>
<desc>lat.=44.480061, lon.=34.150303, Alt.=145.357544m. Speed=0.540000m/h.</desc>
<speed>0.150000</speed>
</trkpt>
<trkpt lat="44.479950" lon="34.150406">
<ele>142.877075</ele>
<time>2011-10-13T11:21:17Z</time>
<desc>lat.=44.479950, lon.=34.150406, Alt.=142.877075m. Speed=1.080000m/h.</desc>
<speed>0.300000</speed>
</trkpt>
<trkpt lat="44.479866" lon="34.150486">
<ele>141.533325</ele>
<time>2011-10-13T11:21:22Z</time>
<desc>lat.=44.479866, lon.=34.150486, Alt.=141.533325m. Speed=1.368000m/h.</desc>
<speed>0.380000</speed>
</trkpt>
<trkpt lat="44.479809" lon="34.150555">
<ele>141.216919</ele>
<time>2011-10-13T11:21:27Z</time>
<desc>lat.=44.479809, lon.=34.150555, Alt.=141.216919m. Speed=1.512000m/h.</desc>
<speed>0.420000</speed>
</trkpt>
<trkpt lat="44.479774" lon="34.150616">
<ele>141.017700</ele>
<time>2011-10-13T11:21:32Z</time>
<desc>lat.=44.479774, lon.=34.150616, Alt.=141.017700m. Speed=1.512000m/h.</desc>
<speed>0.420000</speed>
</trkpt>
<trkpt lat="44.479759" lon="34.150661">
<ele>140.830200</ele>
<time>2011-10-13T11:21:37Z</time>
<desc>lat.=44.479759, lon.=34.150661, Alt.=140.830200m. Speed=1.368000m/h.</desc>
<speed>0.380000</speed>
</trkpt>
<trkpt lat="44.479755" lon="34.150688">
<ele>139.857544</ele>
<time>2011-10-13T11:21:42Z</time>
<desc>lat.=44.479755, lon.=34.150688, Alt.=139.857544m. Speed=1.188000m/h.</desc>
<speed>0.330000</speed>
</trkpt>
<trkpt lat="44.479752" lon="34.150711">
<ele>138.888794</ele>
<time>2011-10-13T11:21:47Z</time>
<desc>lat.=44.479752, lon.=34.150711, Alt.=138.888794m. Speed=0.936000m/h.</desc>
<speed>0.260000</speed>
</trkpt>
<trkpt lat="44.479748" lon="34.150726">
<ele>139.111450</ele>
<time>2011-10-13T11:21:52Z</time>
<desc>lat.=44.479748, lon.=34.150726, Alt.=139.111450m. Speed=0.828000m/h.</desc>
<speed>0.230000</speed>
</trkpt>
<trkpt lat="44.479733" lon="34.150745">
<ele>139.177856</ele>
<time>2011-10-13T11:21:57Z</time>
<desc>lat.=44.479733, lon.=34.150745, Alt.=139.177856m. Speed=0.648000m/h.</desc>
<speed>0.180000</speed>
</trkpt>
<trkpt lat="44.479637" lon="34.150803">
<ele>139.412231</ele>
<time>2011-10-13T11:22:02Z</time>
<desc>lat.=44.479637, lon.=34.150803, Alt.=139.412231m. Speed=3.132000m/h.</desc>
<speed>0.870000</speed>
</trkpt>
<trkpt lat="44.479633" lon="34.150841">
<ele>138.884888</ele>
<time>2011-10-13T11:22:07Z</time>
<desc>lat.=44.479633, lon.=34.150841, Alt.=138.884888m. Speed=3.420000m/h.</desc>
<speed>0.950000</speed>
</trkpt>
<trkpt lat="44.479660" lon="34.150845">
<ele>137.998169</ele>
<time>2011-10-13T11:22:12Z</time>
<desc>lat.=44.479660, lon.=34.150845, Alt.=137.998169m. Speed=4.644000m/h.</desc>
<speed>1.290000</speed>
</trkpt>
<trkpt lat="44.479725" lon="34.150841">
<ele>134.959106</ele>
<time>2011-10-13T11:22:17Z</time>
<desc>lat.=44.479725, lon.=34.150841, Alt.=134.959106m. Speed=5.724000m/h.</desc>
<speed>1.590000</speed>
</trkpt>
<trkpt lat="44.479805" lon="34.150715">
<ele>133.173950</ele>
<time>2011-10-13T11:22:22Z</time>
<desc>lat.=44.479805, lon.=34.150715, Alt.=133.173950m. Speed=7.164000m/h.</desc>
<speed>1.990000</speed>
</trkpt>
<trkpt lat="44.479900" lon="34.150585">
<ele>131.724731</ele>
<time>2011-10-13T11:22:27Z</time>
<desc>lat.=44.479900, lon.=34.150585, Alt.=131.724731m. Speed=6.624000m/h.</desc>
<speed>1.840000</speed>
</trkpt>
<trkpt lat="44.479973" lon="34.150471">
<ele>131.767700</ele>
<time>2011-10-13T11:22:32Z</time>
<desc>lat.=44.479973, lon.=34.150471, Alt.=131.767700m. Speed=7.524000m/h.</desc>
<speed>2.090000</speed>
</trkpt>
<trkpt lat="44.480045" lon="34.150368">
<ele>130.588013</ele>
<time>2011-10-13T11:22:37Z</time>
<desc>lat.=44.480045, lon.=34.150368, Alt.=130.588013m. Speed=9.612000m/h.</desc>
<speed>2.670000</speed>
</trkpt>
<trkpt lat="44.480148" lon="34.150284">
<ele>131.525513</ele>
<time>2011-10-13T11:22:42Z</time>
<desc>lat.=44.480148, lon.=34.150284, Alt.=131.525513m. Speed=9.468000m/h.</desc>
<speed>2.630000</speed>
</trkpt>
<trkpt lat="44.480282" lon="34.150211">
<ele>134.404419</ele>
<time>2011-10-13T11:22:47Z</time>
<desc>lat.=44.480282, lon.=34.150211, Alt.=134.404419m. Speed=8.316000m/h.</desc>
<speed>2.310000</speed>
</trkpt>
<trkpt lat="44.480419" lon="34.150146">
<ele>135.916138</ele>
<time>2011-10-13T11:22:52Z</time>
<desc>lat.=44.480419, lon.=34.150146, Alt.=135.916138m. Speed=8.316000m/h.</desc>
<speed>2.310000</speed>
</trkpt>
<trkpt lat="44.480572" lon="34.150097">
<ele>135.666138</ele>
<time>2011-10-13T11:22:57Z</time>
<desc>lat.=44.480572, lon.=34.150097, Alt.=135.666138m. Speed=9.216000m/h.</desc>
<speed>2.560000</speed>
</trkpt>
<trkpt lat="44.480701" lon="34.150021">
<ele>137.588013</ele>
<time>2011-10-13T11:23:02Z</time>
<desc>lat.=44.480701, lon.=34.150021, Alt.=137.588013m. Speed=5.544000m/h.</desc>
<speed>1.540000</speed>
</trkpt>
<trkpt lat="44.480785" lon="34.149986">
<ele>140.201294</ele>
<time>2011-10-13T11:23:07Z</time>
<desc>lat.=44.480785, lon.=34.149986, Alt.=140.201294m. Speed=3.564000m/h.</desc>
<speed>0.990000</speed>
</trkpt>
<trkpt lat="44.480858" lon="34.149986">
<ele>142.865356</ele>
<time>2011-10-13T11:23:12Z</time>
<desc>lat.=44.480858, lon.=34.149986, Alt.=142.865356m. Speed=1.764000m/h.</desc>
<speed>0.490000</speed>
</trkpt>
<trkpt lat="44.480923" lon="34.150009">
<ele>146.681763</ele>
<time>2011-10-13T11:23:17Z</time>
<desc>lat.=44.480923, lon.=34.150009, Alt.=146.681763m. Speed=1.044000m/h.</desc>
<speed>0.290000</speed>
</trkpt>
<trkpt lat="44.481045" lon="34.150085">
<ele>146.560669</ele>
<time>2011-10-13T11:23:22Z</time>
<desc>lat.=44.481045, lon.=34.150085, Alt.=146.560669m. Speed=4.320000m/h.</desc>
<speed>1.200000</speed>
</trkpt>
<trkpt lat="44.481155" lon="34.150204">
<ele>146.216919</ele>
<time>2011-10-13T11:23:27Z</time>
<desc>lat.=44.481155, lon.=34.150204, Alt.=146.216919m. Speed=4.968000m/h.</desc>
<speed>1.380000</speed>
</trkpt>
<trkpt lat="44.481243" lon="34.150322">
<ele>148.252075</ele>
<time>2011-10-13T11:23:32Z</time>
<desc>lat.=44.481243, lon.=34.150322, Alt.=148.252075m. Speed=7.092000m/h.</desc>
<speed>1.970000</speed>
</trkpt>
<trkpt lat="44.481304" lon="34.150406">
<ele>150.494263</ele>
<time>2011-10-13T11:23:37Z</time>
<desc>lat.=44.481304, lon.=34.150406, Alt.=150.494263m. Speed=3.600000m/h.</desc>
<speed>1.000000</speed>
</trkpt>
<trkpt lat="44.481377" lon="34.150471">
<ele>152.197388</ele>
<time>2011-10-13T11:23:42Z</time>
<desc>lat.=44.481377, lon.=34.150471, Alt.=152.197388m. Speed=2.520000m/h.</desc>
<speed>0.700000</speed>
</trkpt>
<trkpt lat="44.481449" lon="34.150589">
<ele>153.005981</ele>
<time>2011-10-13T11:23:47Z</time>
<desc>lat.=44.481449, lon.=34.150589, Alt.=153.005981m. Speed=1.944000m/h.</desc>
<speed>0.540000</speed>
</trkpt>
<trkpt lat="44.481625" lon="34.150734">
<ele>151.658325</ele>
<time>2011-10-13T11:23:52Z</time>
<desc>lat.=44.481625, lon.=34.150734, Alt.=151.658325m. Speed=4.212000m/h.</desc>
<speed>1.170000</speed>
</trkpt>
<trkpt lat="44.481838" lon="34.150928">
<ele>149.173950</ele>
<time>2011-10-13T11:23:57Z</time>
<desc>lat.=44.481838, lon.=34.150928, Alt.=149.173950m. Speed=6.012000m/h.</desc>
<speed>1.670000</speed>
</trkpt>
<trkpt lat="44.481979" lon="34.151066">
<ele>148.213013</ele>
<time>2011-10-13T11:24:02Z</time>
<desc>lat.=44.481979, lon.=34.151066, Alt.=148.213013m. Speed=10.368000m/h.</desc>
<speed>2.880000</speed>
</trkpt>
<trkpt lat="44.482159" lon="34.151241">
<ele>147.334106</ele>
<time>2011-10-13T11:24:07Z</time>
<desc>lat.=44.482159, lon.=34.151241, Alt.=147.334106m. Speed=10.296000m/h.</desc>
<speed>2.860000</speed>
</trkpt>
<trkpt lat="44.482296" lon="34.151360">
<ele>147.482544</ele>
<time>2011-10-13T11:24:12Z</time>
<desc>lat.=44.482296, lon.=34.151360, Alt.=147.482544m. Speed=5.976000m/h.</desc>
<speed>1.660000</speed>
</trkpt>
<trkpt lat="44.482460" lon="34.151451">
<ele>144.767700</ele>
<time>2011-10-13T11:24:17Z</time>
<desc>lat.=44.482460, lon.=34.151451, Alt.=144.767700m. Speed=4.464000m/h.</desc>
<speed>1.240000</speed>
</trkpt>
<trkpt lat="44.482651" lon="34.151508">
<ele>139.033325</ele>
<time>2011-10-13T11:24:22Z</time>
<desc>lat.=44.482651, lon.=34.151508, Alt.=139.033325m. Speed=8.748000m/h.</desc>
<speed>2.430000</speed>
</trkpt>
<trkpt lat="44.482803" lon="34.151512">
<ele>134.798950</ele>
<time>2011-10-13T11:24:27Z</time>
<desc>lat.=44.482803, lon.=34.151512, Alt.=134.798950m. Speed=4.896000m/h.</desc>
<speed>1.360000</speed>
</trkpt>
<trkpt lat="44.482918" lon="34.151470">
<ele>131.142700</ele>
<time>2011-10-13T11:24:32Z</time>
<desc>lat.=44.482918, lon.=34.151470, Alt.=131.142700m. Speed=5.904000m/h.</desc>
<speed>1.640000</speed>
</trkpt>
<trkpt lat="44.483006" lon="34.151413">
<ele>129.470825</ele>
<time>2011-10-13T11:24:37Z</time>
<desc>lat.=44.483006, lon.=34.151413, Alt.=129.470825m. Speed=5.760000m/h.</desc>
<speed>1.600000</speed>
</trkpt>
<trkpt lat="44.483009" lon="34.151363">
<ele>130.713013</ele>
<time>2011-10-13T11:24:42Z</time>
<desc>lat.=44.483009, lon.=34.151363, Alt.=130.713013m. Speed=3.744000m/h.</desc>
<speed>1.040000</speed>
</trkpt>
<trkpt lat="44.482986" lon="34.151321">
<ele>132.709106</ele>
<time>2011-10-13T11:24:47Z</time>
<desc>lat.=44.482986, lon.=34.151321, Alt.=132.709106m. Speed=3.924000m/h.</desc>
<speed>1.090000</speed>
</trkpt>
<trkpt lat="44.482952" lon="34.151299">
<ele>134.072388</ele>
<time>2011-10-13T11:24:52Z</time>
<desc>lat.=44.482952, lon.=34.151299, Alt.=134.072388m. Speed=4.176000m/h.</desc>
<speed>1.160000</speed>
</trkpt>
<trkpt lat="44.482903" lon="34.151253">
<ele>136.771606</ele>
<time>2011-10-13T11:24:57Z</time>
<desc>lat.=44.482903, lon.=34.151253, Alt.=136.771606m. Speed=7.884000m/h.</desc>
<speed>2.190000</speed>
</trkpt>
<trkpt lat="44.482899" lon="34.151276">
<ele>137.767700</ele>
<time>2011-10-13T11:25:02Z</time>
<desc>lat.=44.482899, lon.=34.151276, Alt.=137.767700m. Speed=5.760000m/h.</desc>
<speed>1.600000</speed>
</trkpt>
<trkpt lat="44.482880" lon="34.151192">
<ele>141.041138</ele>
<time>2011-10-13T11:25:07Z</time>
<desc>lat.=44.482880, lon.=34.151192, Alt.=141.041138m. Speed=5.868000m/h.</desc>
<speed>1.630000</speed>
</trkpt>
<trkpt lat="44.482826" lon="34.151112">
<ele>145.427856</ele>
<time>2011-10-13T11:25:12Z</time>
<desc>lat.=44.482826, lon.=34.151112, Alt.=145.427856m. Speed=5.544000m/h.</desc>
<speed>1.540000</speed>
</trkpt>
<trkpt lat="44.482769" lon="34.151058">
<ele>150.361450</ele>
<time>2011-10-13T11:25:17Z</time>
<desc>lat.=44.482769, lon.=34.151058, Alt.=150.361450m. Speed=5.112000m/h.</desc>
<speed>1.420000</speed>
</trkpt>
<trkpt lat="44.482677" lon="34.151028">
<ele>155.861450</ele>
<time>2011-10-13T11:25:22Z</time>
<desc>lat.=44.482677, lon.=34.151028, Alt.=155.861450m. Speed=6.588000m/h.</desc>
<speed>1.830000</speed>
</trkpt>
<trkpt lat="44.482616" lon="34.150944">
<ele>161.857544</ele>
<time>2011-10-13T11:25:27Z</time>
<desc>lat.=44.482616, lon.=34.150944, Alt.=161.857544m. Speed=6.264000m/h.</desc>
<speed>1.740000</speed>
</trkpt>
<trkpt lat="44.482552" lon="34.150784">
<ele>167.216919</ele>
<time>2011-10-13T11:25:32Z</time>
<desc>lat.=44.482552, lon.=34.150784, Alt.=167.216919m. Speed=6.732000m/h.</desc>
<speed>1.870000</speed>
</trkpt>
<trkpt lat="44.482513" lon="34.150578">
<ele>171.306763</ele>
<time>2011-10-13T11:25:37Z</time>
<desc>lat.=44.482513, lon.=34.150578, Alt.=171.306763m. Speed=6.804000m/h.</desc>
<speed>1.890000</speed>
</trkpt>
<trkpt lat="44.482460" lon="34.150421">
<ele>174.697388</ele>
<time>2011-10-13T11:25:42Z</time>
<desc>lat.=44.482460, lon.=34.150421, Alt.=174.697388m. Speed=4.716000m/h.</desc>
<speed>1.310000</speed>
</trkpt>
<trkpt lat="44.482399" lon="34.150303">
<ele>178.369263</ele>
<time>2011-10-13T11:25:47Z</time>
<desc>lat.=44.482399, lon.=34.150303, Alt.=178.369263m. Speed=5.940000m/h.</desc>
<speed>1.650000</speed>
</trkpt>
<trkpt lat="44.482323" lon="34.150211">
<ele>182.373169</ele>
<time>2011-10-13T11:25:52Z</time>
<desc>lat.=44.482323, lon.=34.150211, Alt.=182.373169m. Speed=6.084000m/h.</desc>
<speed>1.690000</speed>
</trkpt>
<trkpt lat="44.482246" lon="34.150124">
<ele>186.923950</ele>
<time>2011-10-13T11:25:57Z</time>
<desc>lat.=44.482246, lon.=34.150124, Alt.=186.923950m. Speed=5.940000m/h.</desc>
<speed>1.650000</speed>
</trkpt>
<trkpt lat="44.482178" lon="34.150021">
<ele>191.189575</ele>
<time>2011-10-13T11:26:02Z</time>
<desc>lat.=44.482178, lon.=34.150021, Alt.=191.189575m. Speed=5.472000m/h.</desc>
<speed>1.520000</speed>
</trkpt>
<trkpt lat="44.482090" lon="34.149967">
<ele>195.525513</ele>
<time>2011-10-13T11:26:07Z</time>
<desc>lat.=44.482090, lon.=34.149967, Alt.=195.525513m. Speed=6.012000m/h.</desc>
<speed>1.670000</speed>
</trkpt>
<trkpt lat="44.482010" lon="34.149899">
<ele>198.416138</ele>
<time>2011-10-13T11:26:12Z</time>
<desc>lat.=44.482010, lon.=34.149899, Alt.=198.416138m. Speed=3.996000m/h.</desc>
<speed>1.110000</speed>
</trkpt>
<trkpt lat="44.481937" lon="34.149807">
<ele>202.064575</ele>
<time>2011-10-13T11:26:17Z</time>
<desc>lat.=44.481937, lon.=34.149807, Alt.=202.064575m. Speed=5.040000m/h.</desc>
<speed>1.400000</speed>
</trkpt>
<trkpt lat="44.481865" lon="34.149715">
<ele>205.896606</ele>
<time>2011-10-13T11:26:22Z</time>
<desc>lat.=44.481865, lon.=34.149715, Alt.=205.896606m. Speed=5.292000m/h.</desc>
<speed>1.470000</speed>
</trkpt>
<trkpt lat="44.481773" lon="34.149666">
<ele>209.529419</ele>
<time>2011-10-13T11:26:27Z</time>
<desc>lat.=44.481773, lon.=34.149666, Alt.=209.529419m. Speed=6.480000m/h.</desc>
<speed>1.800000</speed>
</trkpt>
<trkpt lat="44.481663" lon="34.149593">
<ele>211.720825</ele>
<time>2011-10-13T11:26:32Z</time>
<desc>lat.=44.481663, lon.=34.149593, Alt.=211.720825m. Speed=5.436000m/h.</desc>
<speed>1.510000</speed>
</trkpt>
<trkpt lat="44.481583" lon="34.149517">
<ele>213.670044</ele>
<time>2011-10-13T11:26:37Z</time>
<desc>lat.=44.481583, lon.=34.149517, Alt.=213.670044m. Speed=4.068000m/h.</desc>
<speed>1.130000</speed>
</trkpt>
<trkpt lat="44.481499" lon="34.149460">
<ele>216.123169</ele>
<time>2011-10-13T11:26:42Z</time>
<desc>lat.=44.481499, lon.=34.149460, Alt.=216.123169m. Speed=4.932000m/h.</desc>
<speed>1.370000</speed>
</trkpt>
<trkpt lat="44.481422" lon="34.149376">
<ele>219.185669</ele>
<time>2011-10-13T11:26:47Z</time>
<desc>lat.=44.481422, lon.=34.149376, Alt.=219.185669m. Speed=4.248000m/h.</desc>
<speed>1.180000</speed>
</trkpt>
<trkpt lat="44.481350" lon="34.149311">
<ele>222.603638</ele>
<time>2011-10-13T11:26:52Z</time>
<desc>lat.=44.481350, lon.=34.149311, Alt.=222.603638m. Speed=6.444000m/h.</desc>
<speed>1.790000</speed>
</trkpt>
<trkpt lat="44.481266" lon="34.149265">
<ele>226.048950</ele>
<time>2011-10-13T11:26:57Z</time>
<desc>lat.=44.481266, lon.=34.149265, Alt.=226.048950m. Speed=3.888000m/h.</desc>
<speed>1.080000</speed>
</trkpt>
<trkpt lat="44.481197" lon="34.149189">
<ele>229.084106</ele>
<time>2011-10-13T11:27:02Z</time>
<desc>lat.=44.481197, lon.=34.149189, Alt.=229.084106m. Speed=5.076000m/h.</desc>
<speed>1.410000</speed>
</trkpt>
<trkpt lat="44.481075" lon="34.149189">
<ele>232.826294</ele>
<time>2011-10-13T11:27:07Z</time>
<desc>lat.=44.481075, lon.=34.149189, Alt.=232.826294m. Speed=5.184000m/h.</desc>
<speed>1.440000</speed>
</trkpt>
<trkpt lat="44.480953" lon="34.149136">
<ele>236.068481</ele>
<time>2011-10-13T11:27:12Z</time>
<desc>lat.=44.480953, lon.=34.149136, Alt.=236.068481m. Speed=5.472000m/h.</desc>
<speed>1.520000</speed>
</trkpt>
<trkpt lat="44.480824" lon="34.149063">
<ele>240.904419</ele>
<time>2011-10-13T11:27:17Z</time>
<desc>lat.=44.480824, lon.=34.149063, Alt.=240.904419m. Speed=6.876000m/h.</desc>
<speed>1.910000</speed>
</trkpt>
<trkpt lat="44.480751" lon="34.148926">
<ele>244.181763</ele>
<time>2011-10-13T11:27:22Z</time>
<desc>lat.=44.480751, lon.=34.148926, Alt.=244.181763m. Speed=6.228000m/h.</desc>
<speed>1.730000</speed>
</trkpt>
<trkpt lat="44.480648" lon="34.148861">
<ele>244.986450</ele>
<time>2011-10-13T11:27:27Z</time>
<desc>lat.=44.480648, lon.=34.148861, Alt.=244.986450m. Speed=5.436000m/h.</desc>
<speed>1.510000</speed>
</trkpt>
<trkpt lat="44.480572" lon="34.148804">
<ele>245.728638</ele>
<time>2011-10-13T11:27:32Z</time>
<desc>lat.=44.480572, lon.=34.148804, Alt.=245.728638m. Speed=4.788000m/h.</desc>
<speed>1.330000</speed>
</trkpt>
<trkpt lat="44.480484" lon="34.148735">
<ele>247.162231</ele>
<time>2011-10-13T11:27:37Z</time>
<desc>lat.=44.480484, lon.=34.148735, Alt.=247.162231m. Speed=6.912000m/h.</desc>
<speed>1.920000</speed>
</trkpt>
<trkpt lat="44.480427" lon="34.148586">
<ele>247.369263</ele>
<time>2011-10-13T11:27:42Z</time>
<desc>lat.=44.480427, lon.=34.148586, Alt.=247.369263m. Speed=5.400000m/h.</desc>
<speed>1.500000</speed>
</trkpt>
<trkpt lat="44.480358" lon="34.148483">
<ele>250.076294</ele>
<time>2011-10-13T11:27:47Z</time>
<desc>lat.=44.480358, lon.=34.148483, Alt.=250.076294m. Speed=6.660000m/h.</desc>
<speed>1.850000</speed>
</trkpt>
<trkpt lat="44.480270" lon="34.148422">
<ele>253.658325</ele>
<time>2011-10-13T11:27:52Z</time>
<desc>lat.=44.480270, lon.=34.148422, Alt.=253.658325m. Speed=6.156000m/h.</desc>
<speed>1.710000</speed>
</trkpt>
<trkpt lat="44.480198" lon="34.148369">
<ele>256.215088</ele>
<time>2011-10-13T11:27:57Z</time>
<desc>lat.=44.480198, lon.=34.148369, Alt.=256.215088m. Speed=7.056000m/h.</desc>
<speed>1.960000</speed>
</trkpt>
<trkpt lat="44.480125" lon="34.148281">
<ele>258.801025</ele>
<time>2011-10-13T11:28:02Z</time>
<desc>lat.=44.480125, lon.=34.148281, Alt.=258.801025m. Speed=7.488000m/h.</desc>
<speed>2.080000</speed>
</trkpt>
<trkpt lat="44.480042" lon="34.148209">
<ele>263.277588</ele>
<time>2011-10-13T11:28:07Z</time>
<desc>lat.=44.480042, lon.=34.148209, Alt.=263.277588m. Speed=6.732000m/h.</desc>
<speed>1.870000</speed>
</trkpt>
<trkpt lat="44.479961" lon="34.148056">
<ele>266.293213</ele>
<time>2011-10-13T11:28:12Z</time>
<desc>lat.=44.479961, lon.=34.148056, Alt.=266.293213m. Speed=6.732000m/h.</desc>
<speed>1.870000</speed>
</trkpt>
<trkpt lat="44.479912" lon="34.147907">
<ele>269.332275</ele>
<time>2011-10-13T11:28:17Z</time>
<desc>lat.=44.479912, lon.=34.147907, Alt.=269.332275m. Speed=6.336000m/h.</desc>
<speed>1.760000</speed>
</trkpt>
<trkpt lat="44.479866" lon="34.147774">
<ele>272.996338</ele>
<time>2011-10-13T11:28:22Z</time>
<desc>lat.=44.479866, lon.=34.147774, Alt.=272.996338m. Speed=6.012000m/h.</desc>
<speed>1.670000</speed>
</trkpt>
<trkpt lat="44.479786" lon="34.147644">
<ele>276.621338</ele>
<time>2011-10-13T11:28:27Z</time>
<desc>lat.=44.479786, lon.=34.147644, Alt.=276.621338m. Speed=7.524000m/h.</desc>
<speed>2.090000</speed>
</trkpt>
<trkpt lat="44.479725" lon="34.147533">
<ele>278.136963</ele>
<time>2011-10-13T11:28:32Z</time>
<desc>lat.=44.479725, lon.=34.147533, Alt.=278.136963m. Speed=6.192000m/h.</desc>
<speed>1.720000</speed>
</trkpt>
<trkpt lat="44.479656" lon="34.147404">
<ele>280.668213</ele>
<time>2011-10-13T11:28:37Z</time>
<desc>lat.=44.479656, lon.=34.147404, Alt.=280.668213m. Speed=7.416000m/h.</desc>
<speed>2.060000</speed>
</trkpt>
<trkpt lat="44.479622" lon="34.147221">
<ele>283.261963</ele>
<time>2011-10-13T11:28:42Z</time>
<desc>lat.=44.479622, lon.=34.147221, Alt.=283.261963m. Speed=3.168000m/h.</desc>
<speed>0.880000</speed>
</trkpt>
<trkpt lat="44.479584" lon="34.147038">
<ele>284.730713</ele>
<time>2011-10-13T11:28:47Z</time>
<desc>lat.=44.479584, lon.=34.147038, Alt.=284.730713m. Speed=4.500000m/h.</desc>
<speed>1.250000</speed>
</trkpt>
<trkpt lat="44.479530" lon="34.146935">
<ele>287.082275</ele>
<time>2011-10-13T11:28:52Z</time>
<desc>lat.=44.479530, lon.=34.146935, Alt.=287.082275m. Speed=4.932000m/h.</desc>
<speed>1.370000</speed>
</trkpt>
<trkpt lat="44.479465" lon="34.146809">
<ele>288.808838</ele>
<time>2011-10-13T11:28:57Z</time>
<desc>lat.=44.479465, lon.=34.146809, Alt.=288.808838m. Speed=5.292000m/h.</desc>
<speed>1.470000</speed>
</trkpt>
<trkpt lat="44.479408" lon="34.146709">
<ele>290.660400</ele>
<time>2011-10-13T11:29:02Z</time>
<desc>lat.=44.479408, lon.=34.146709, Alt.=290.660400m. Speed=6.768000m/h.</desc>
<speed>1.880000</speed>
</trkpt>
<trkpt lat="44.479385" lon="34.146564">
<ele>293.113525</ele>
<time>2011-10-13T11:29:07Z</time>
<desc>lat.=44.479385, lon.=34.146564, Alt.=293.113525m. Speed=4.068000m/h.</desc>
<speed>1.130000</speed>
</trkpt>
<trkpt lat="44.479343" lon="34.146416">
<ele>295.941650</ele>
<time>2011-10-13T11:29:12Z</time>
<desc>lat.=44.479343, lon.=34.146416, Alt.=295.941650m. Speed=3.636000m/h.</desc>
<speed>1.010000</speed>
</trkpt>
<trkpt lat="44.479313" lon="34.146240">
<ele>297.941650</ele>
<time>2011-10-13T11:29:17Z</time>
<desc>lat.=44.479313, lon.=34.146240, Alt.=297.941650m. Speed=5.472000m/h.</desc>
<speed>1.520000</speed>
</trkpt>
<trkpt lat="44.479229" lon="34.146114">
<ele>298.754150</ele>
<time>2011-10-13T11:29:22Z</time>
<desc>lat.=44.479229, lon.=34.146114, Alt.=298.754150m. Speed=5.616000m/h.</desc>
<speed>1.560000</speed>
</trkpt>
<trkpt lat="44.479160" lon="34.145977">
<ele>298.551025</ele>
<time>2011-10-13T11:29:27Z</time>
<desc>lat.=44.479160, lon.=34.145977, Alt.=298.551025m. Speed=5.184000m/h.</desc>
<speed>1.440000</speed>
</trkpt>
<trkpt lat="44.479076" lon="34.145847">
<ele>298.769775</ele>
<time>2011-10-13T11:29:32Z</time>
<desc>lat.=44.479076, lon.=34.145847, Alt.=298.769775m. Speed=4.284000m/h.</desc>
<speed>1.190000</speed>
</trkpt>
<trkpt lat="44.478981" lon="34.145790">
<ele>299.965088</ele>
<time>2011-10-13T11:29:37Z</time>
<desc>lat.=44.478981, lon.=34.145790, Alt.=299.965088m. Speed=8.568000m/h.</desc>
<speed>2.380000</speed>
</trkpt>
<trkpt lat="44.478874" lon="34.145641">
<ele>300.668213</ele>
<time>2011-10-13T11:29:42Z</time>
<desc>lat.=44.478874, lon.=34.145641, Alt.=300.668213m. Speed=6.012000m/h.</desc>
<speed>1.670000</speed>
</trkpt>
<trkpt lat="44.478825" lon="34.145500">
<ele>302.230713</ele>
<time>2011-10-13T11:29:47Z</time>
<desc>lat.=44.478825, lon.=34.145500, Alt.=302.230713m. Speed=5.040000m/h.</desc>
<speed>1.400000</speed>
</trkpt>
<trkpt lat="44.478737" lon="34.145424">
<ele>303.613525</ele>
<time>2011-10-13T11:29:52Z</time>
<desc>lat.=44.478737, lon.=34.145424, Alt.=303.613525m. Speed=4.176000m/h.</desc>
<speed>1.160000</speed>
</trkpt>
<trkpt lat="44.478676" lon="34.145283">
<ele>306.176025</ele>
<time>2011-10-13T11:29:57Z</time>
<desc>lat.=44.478676, lon.=34.145283, Alt.=306.176025m. Speed=5.508000m/h.</desc>
<speed>1.530000</speed>
</trkpt>
<trkpt lat="44.478558" lon="34.145260">
<ele>308.738525</ele>
<time>2011-10-13T11:30:02Z</time>
<desc>lat.=44.478558, lon.=34.145260, Alt.=308.738525m. Speed=5.940000m/h.</desc>
<speed>1.650000</speed>
</trkpt>
<trkpt lat="44.478470" lon="34.145153">
<ele>311.761963</ele>
<time>2011-10-13T11:30:07Z</time>
<desc>lat.=44.478470, lon.=34.145153, Alt.=311.761963m. Speed=5.256000m/h.</desc>
<speed>1.460000</speed>
</trkpt>
<trkpt lat="44.478458" lon="34.145153">
<ele>308.972900</ele>
<time>2011-10-13T11:30:12Z</time>
<desc>lat.=44.478458, lon.=34.145153, Alt.=308.972900m. Speed=2.592000m/h.</desc>
<speed>0.720000</speed>
</trkpt>
<trkpt lat="44.478252" lon="34.145374">
<ele>309.176025</ele>
<time>2011-10-13T11:30:17Z</time>
<desc>lat.=44.478252, lon.=34.145374, Alt.=309.176025m. Speed=3.384000m/h.</desc>
<speed>0.940000</speed>
</trkpt>
<trkpt lat="44.478218" lon="34.145321">
<ele>307.894775</ele>
<time>2011-10-13T11:30:22Z</time>
<desc>lat.=44.478218, lon.=34.145321, Alt.=307.894775m. Speed=2.988000m/h.</desc>
<speed>0.830000</speed>
</trkpt>
<trkpt lat="44.478153" lon="34.145210">
<ele>299.605713</ele>
<time>2011-10-13T11:30:27Z</time>
<desc>lat.=44.478153, lon.=34.145210, Alt.=299.605713m. Speed=0.432000m/h.</desc>
<speed>0.120000</speed>
</trkpt>
<trkpt lat="44.478146" lon="34.145130">
<ele>297.199463</ele>
<time>2011-10-13T11:30:32Z</time>
<desc>lat.=44.478146, lon.=34.145130, Alt.=297.199463m. Speed=0.360000m/h.</desc>
<speed>0.100000</speed>
</trkpt>
<trkpt lat="44.478149" lon="34.144962">
<ele>289.707275</ele>
<time>2011-10-13T11:30:37Z</time>
<desc>lat.=44.478149, lon.=34.144962, Alt.=289.707275m. Speed=1.584000m/h.</desc>
<speed>0.440000</speed>
</trkpt>
<trkpt lat="44.478142" lon="34.144947">
<ele>288.011963</ele>
<time>2011-10-13T11:30:42Z</time>
<desc>lat.=44.478142, lon.=34.144947, Alt.=288.011963m. Speed=0.648000m/h.</desc>
<speed>0.180000</speed>
</trkpt>
<trkpt lat="44.478138" lon="34.144936">
<ele>286.285400</ele>
<time>2011-10-13T11:30:47Z</time>
<desc>lat.=44.478138, lon.=34.144936, Alt.=286.285400m. Speed=0.612000m/h.</desc>
<speed>0.170000</speed>
</trkpt>
<trkpt lat="44.478134" lon="34.144917">
<ele>284.011963</ele>
<time>2011-10-13T11:30:52Z</time>
<desc>lat.=44.478134, lon.=34.144917, Alt.=284.011963m. Speed=0.612000m/h.</desc>
<speed>0.170000</speed>
</trkpt>
<trkpt lat="44.478134" lon="34.144890">
<ele>281.910400</ele>
<time>2011-10-13T11:30:57Z</time>
<desc>lat.=44.478134, lon.=34.144890, Alt.=281.910400m. Speed=0.540000m/h.</desc>
<speed>0.150000</speed>
</trkpt>
<trkpt lat="44.478138" lon="34.144871">
<ele>280.293213</ele>
<time>2011-10-13T11:31:02Z</time>
<desc>lat.=44.478138, lon.=34.144871, Alt.=280.293213m. Speed=0.684000m/h.</desc>
<speed>0.190000</speed>
</trkpt>
<trkpt lat="44.478149" lon="34.144825">
<ele>278.340088</ele>
<time>2011-10-13T11:31:07Z</time>
<desc>lat.=44.478149, lon.=34.144825, Alt.=278.340088m. Speed=0.468000m/h.</desc>
<speed>0.130000</speed>
</trkpt>
<trkpt lat="44.478149" lon="34.144833">
<ele>278.590088</ele>
<time>2011-10-13T11:31:12Z</time>
<desc>lat.=44.478149, lon.=34.144833, Alt.=278.590088m. Speed=0.756000m/h.</desc>
<speed>0.210000</speed>
</trkpt>
<trkpt lat="44.478146" lon="34.144848">
<ele>278.816650</ele>
<time>2011-10-13T11:31:17Z</time>
<desc>lat.=44.478146, lon.=34.144848, Alt.=278.816650m. Speed=0.864000m/h.</desc>
<speed>0.240000</speed>
</trkpt>
<trkpt lat="44.478146" lon="34.144859">
<ele>279.051025</ele>
<time>2011-10-13T11:31:22Z</time>
<desc>lat.=44.478146, lon.=34.144859, Alt.=279.051025m. Speed=0.504000m/h.</desc>
<speed>0.140000</speed>
</trkpt>
<trkpt lat="44.478142" lon="34.144855">
<ele>278.613525</ele>
<time>2011-10-13T11:31:27Z</time>
<desc>lat.=44.478142, lon.=34.144855, Alt.=278.613525m. Speed=1.332000m/h.</desc>
<speed>0.370000</speed>
</trkpt>
<trkpt lat="44.478146" lon="34.144833">
<ele>277.090088</ele>
<time>2011-10-13T11:31:32Z</time>
<desc>lat.=44.478146, lon.=34.144833, Alt.=277.090088m. Speed=1.188000m/h.</desc>
<speed>0.330000</speed>
</trkpt>
<trkpt lat="44.478165" lon="34.144772">
<ele>274.379150</ele>
<time>2011-10-13T11:31:37Z</time>
<desc>lat.=44.478165, lon.=34.144772, Alt.=274.379150m. Speed=0.756000m/h.</desc>
<speed>0.210000</speed>
</trkpt>
<trkpt lat="44.478180" lon="34.144745">
<ele>273.363525</ele>
<time>2011-10-13T11:31:42Z</time>
<desc>lat.=44.478180, lon.=34.144745, Alt.=273.363525m. Speed=0.540000m/h.</desc>
<speed>0.150000</speed>
</trkpt>
<trkpt lat="44.478172" lon="34.144756">
<ele>273.285400</ele>
<time>2011-10-13T11:31:47Z</time>
<desc>lat.=44.478172, lon.=34.144756, Alt.=273.285400m. Speed=0.936000m/h.</desc>
<speed>0.260000</speed>
</trkpt>
<trkpt lat="44.478172" lon="34.144760">
<ele>273.129150</ele>
<time>2011-10-13T11:31:52Z</time>
<desc>lat.=44.478172, lon.=34.144760, Alt.=273.129150m. Speed=0.180000m/h.</desc>
<speed>0.050000</speed>
</trkpt>
<trkpt lat="44.478176" lon="34.144749">
<ele>272.957275</ele>
<time>2011-10-13T11:31:57Z</time>
<desc>lat.=44.478176, lon.=34.144749, Alt.=272.957275m. Speed=0.576000m/h.</desc>
<speed>0.160000</speed>
</trkpt>
<trkpt lat="44.478195" lon="34.144695">
<ele>272.527588</ele>
<time>2011-10-13T11:32:02Z</time>
<desc>lat.=44.478195, lon.=34.144695, Alt.=272.527588m. Speed=1.296000m/h.</desc>
<speed>0.360000</speed>
</trkpt>
<trkpt lat="44.478249" lon="34.144527">
<ele>270.801025</ele>
<time>2011-10-13T11:32:07Z</time>
<desc>lat.=44.478249, lon.=34.144527, Alt.=270.801025m. Speed=1.584000m/h.</desc>
<speed>0.440000</speed>
</trkpt>
<trkpt lat="44.478279" lon="34.144241">
<ele>269.347900</ele>
<time>2011-10-13T11:32:12Z</time>
<desc>lat.=44.478279, lon.=34.144241, Alt.=269.347900m. Speed=1.836000m/h.</desc>
<speed>0.510000</speed>
</trkpt>
<trkpt lat="44.478367" lon="34.143940">
<ele>266.519775</ele>
<time>2011-10-13T11:32:17Z</time>
<desc>lat.=44.478367, lon.=34.143940, Alt.=266.519775m. Speed=1.404000m/h.</desc>
<speed>0.390000</speed>
</trkpt>
<trkpt lat="44.478363" lon="34.143887">
<ele>265.058838</ele>
<time>2011-10-13T11:32:22Z</time>
<desc>lat.=44.478363, lon.=34.143887, Alt.=265.058838m. Speed=1.044000m/h.</desc>
<speed>0.290000</speed>
</trkpt>
<trkpt lat="44.478371" lon="34.143864">
<ele>264.199463</ele>
<time>2011-10-13T11:32:27Z</time>
<desc>lat.=44.478371, lon.=34.143864, Alt.=264.199463m. Speed=0.324000m/h.</desc>
<speed>0.090000</speed>
</trkpt>
<trkpt lat="44.478371" lon="34.143860">
<ele>264.019775</ele>
<time>2011-10-13T11:32:32Z</time>
<desc>lat.=44.478371, lon.=34.143860, Alt.=264.019775m. Speed=0.792000m/h.</desc>
<speed>0.220000</speed>
</trkpt>
<trkpt lat="44.478210" lon="34.143684">
<ele>263.105713</ele>
<time>2011-10-13T11:32:37Z</time>
<desc>lat.=44.478210, lon.=34.143684, Alt.=263.105713m. Speed=14.040000m/h.</desc>
<speed>3.900000</speed>
</trkpt>
<trkpt lat="44.478054" lon="34.143559">
<ele>264.168213</ele>
<time>2011-10-13T11:32:42Z</time>
<desc>lat.=44.478054, lon.=34.143559, Alt.=264.168213m. Speed=15.732000m/h.</desc>
<speed>4.370000</speed>
</trkpt>
<trkpt lat="44.477818" lon="34.143532">
<ele>266.426025</ele>
<time>2011-10-13T11:32:47Z</time>
<desc>lat.=44.477818, lon.=34.143532, Alt.=266.426025m. Speed=19.620001m/h.</desc>
<speed>5.450000</speed>
</trkpt>
<trkpt lat="44.477566" lon="34.143616">
<ele>270.277588</ele>
<time>2011-10-13T11:32:52Z</time>
<desc>lat.=44.477566, lon.=34.143616, Alt.=270.277588m. Speed=16.848000m/h.</desc>
<speed>4.680000</speed>
</trkpt>
<trkpt lat="44.477379" lon="34.143646">
<ele>274.668213</ele>
<time>2011-10-13T11:32:57Z</time>
<desc>lat.=44.477379, lon.=34.143646, Alt.=274.668213m. Speed=13.176000m/h.</desc>
<speed>3.660000</speed>
</trkpt>
<trkpt lat="44.477158" lon="34.143646">
<ele>278.215088</ele>
<time>2011-10-13T11:33:02Z</time>
<desc>lat.=44.477158, lon.=34.143646, Alt.=278.215088m. Speed=18.431999m/h.</desc>
<speed>5.120000</speed>
</trkpt>
<trkpt lat="44.476841" lon="34.143700">
<ele>282.152588</ele>
<time>2011-10-13T11:33:07Z</time>
<desc>lat.=44.476841, lon.=34.143700, Alt.=282.152588m. Speed=30.275999m/h.</desc>
<speed>8.410000</speed>
</trkpt>
<trkpt lat="44.476448" lon="34.143845">
<ele>285.308838</ele>
<time>2011-10-13T11:33:12Z</time>
<desc>lat.=44.476448, lon.=34.143845, Alt.=285.308838m. Speed=33.840000m/h.</desc>
<speed>9.400000</speed>
</trkpt>
<trkpt lat="44.476173" lon="34.144077">
<ele>289.566650</ele>
<time>2011-10-13T11:33:17Z</time>
<desc>lat.=44.476173, lon.=34.144077, Alt.=289.566650m. Speed=26.351999m/h.</desc>
<speed>7.320000</speed>
</trkpt>
<trkpt lat="44.476128" lon="34.144073">
<ele>294.668213</ele>
<time>2011-10-13T11:33:22Z</time>
<desc>lat.=44.476128, lon.=34.144073, Alt.=294.668213m. Speed=5.076000m/h.</desc>
<speed>1.410000</speed>
</trkpt>
<trkpt lat="44.476208" lon="34.143986">
<ele>298.715088</ele>
<time>2011-10-13T11:33:27Z</time>
<desc>lat.=44.476208, lon.=34.143986, Alt.=298.715088m. Speed=8.028000m/h.</desc>
<speed>2.230000</speed>
</trkpt>
<trkpt lat="44.476284" lon="34.144058">
<ele>303.551025</ele>
<time>2011-10-13T11:33:32Z</time>
<desc>lat.=44.476284, lon.=34.144058, Alt.=303.551025m. Speed=13.968000m/h.</desc>
<speed>3.880000</speed>
</trkpt>
<trkpt lat="44.476334" lon="34.143997">
<ele>312.035400</ele>
<time>2011-10-13T11:33:37Z</time>
<desc>lat.=44.476334, lon.=34.143997, Alt.=312.035400m. Speed=13.608000m/h.</desc>
<speed>3.780000</speed>
</trkpt>
<trkpt lat="44.476440" lon="34.143894">
<ele>320.293213</ele>
<time>2011-10-13T11:33:42Z</time>
<desc>lat.=44.476440, lon.=34.143894, Alt.=320.293213m. Speed=16.920000m/h.</desc>
<speed>4.700000</speed>
</trkpt>
<trkpt lat="44.476368" lon="34.143784">
<ele>309.793213</ele>
<time>2011-10-13T11:33:47Z</time>
<desc>lat.=44.476368, lon.=34.143784, Alt.=309.793213m. Speed=3.384000m/h.</desc>
<speed>0.940000</speed>
</trkpt>
<trkpt lat="44.476337" lon="34.143559">
<ele>312.035400</ele>
<time>2011-10-13T11:33:52Z</time>
<desc>lat.=44.476337, lon.=34.143559, Alt.=312.035400m. Speed=4.572000m/h.</desc>
<speed>1.270000</speed>
</trkpt>
<trkpt lat="44.476295" lon="34.143353">
<ele>315.246338</ele>
<time>2011-10-13T11:33:57Z</time>
<desc>lat.=44.476295, lon.=34.143353, Alt.=315.246338m. Speed=3.852000m/h.</desc>
<speed>1.070000</speed>
</trkpt>
<trkpt lat="44.476273" lon="34.143326">
<ele>319.855713</ele>
<time>2011-10-13T11:34:02Z</time>
<desc>lat.=44.476273, lon.=34.143326, Alt.=319.855713m. Speed=0.756000m/h.</desc>
<speed>0.210000</speed>
</trkpt>
<trkpt lat="44.476124" lon="34.142838">
<ele>321.449463</ele>
<time>2011-10-13T11:34:07Z</time>
<desc>lat.=44.476124, lon.=34.142838, Alt.=321.449463m. Speed=1.944000m/h.</desc>
<speed>0.540000</speed>
</trkpt>
<trkpt lat="44.476559" lon="34.142357">
<ele>322.043213</ele>
<time>2011-10-13T11:34:12Z</time>
<desc>lat.=44.476559, lon.=34.142357, Alt.=322.043213m. Speed=2.412000m/h.</desc>
<speed>0.670000</speed>
</trkpt>
<trkpt lat="44.476807" lon="34.141891">
<ele>323.277588</ele>
<time>2011-10-13T11:34:17Z</time>
<desc>lat.=44.476807, lon.=34.141891, Alt.=323.277588m. Speed=4.428000m/h.</desc>
<speed>1.230000</speed>
</trkpt>
<trkpt lat="44.476997" lon="34.141499">
<ele>313.957275</ele>
<time>2011-10-13T11:34:22Z</time>
<desc>lat.=44.476997, lon.=34.141499, Alt.=313.957275m. Speed=1.728000m/h.</desc>
<speed>0.480000</speed>
</trkpt>
<trkpt lat="44.476997" lon="34.141441">
<ele>317.058838</ele>
<time>2011-10-13T11:34:27Z</time>
<desc>lat.=44.476997, lon.=34.141441, Alt.=317.058838m. Speed=6.948000m/h.</desc>
<speed>1.930000</speed>
</trkpt>
<trkpt lat="44.476883" lon="34.141613">
<ele>321.644775</ele>
<time>2011-10-13T11:34:32Z</time>
<desc>lat.=44.476883, lon.=34.141613, Alt.=321.644775m. Speed=9.864000m/h.</desc>
<speed>2.740000</speed>
</trkpt>
<trkpt lat="44.476715" lon="34.141808">
<ele>326.597900</ele>
<time>2011-10-13T11:34:37Z</time>
<desc>lat.=44.476715, lon.=34.141808, Alt.=326.597900m. Speed=20.412001m/h.</desc>
<speed>5.670000</speed>
</trkpt>
<trkpt lat="44.476421" lon="34.142117">
<ele>332.058838</ele>
<time>2011-10-13T11:34:42Z</time>
<desc>lat.=44.476421, lon.=34.142117, Alt.=332.058838m. Speed=18.288000m/h.</desc>
<speed>5.080000</speed>
</trkpt>
<trkpt lat="44.476227" lon="34.142178">
<ele>337.410400</ele>
<time>2011-10-13T11:34:47Z</time>
<desc>lat.=44.476227, lon.=34.142178, Alt.=337.410400m. Speed=9.792000m/h.</desc>
<speed>2.720000</speed>
</trkpt>
<trkpt lat="44.476051" lon="34.142372">
<ele>343.629150</ele>
<time>2011-10-13T11:34:52Z</time>
<desc>lat.=44.476051, lon.=34.142372, Alt.=343.629150m. Speed=9.108000m/h.</desc>
<speed>2.530000</speed>
</trkpt>
<trkpt lat="44.475777" lon="34.142384">
<ele>348.511963</ele>
<time>2011-10-13T11:34:57Z</time>
<desc>lat.=44.475777, lon.=34.142384, Alt.=348.511963m. Speed=3.636000m/h.</desc>
<speed>1.010000</speed>
</trkpt>
<trkpt lat="44.475510" lon="34.142548">
<ele>353.926025</ele>
<time>2011-10-13T11:35:02Z</time>
<desc>lat.=44.475510, lon.=34.142548, Alt.=353.926025m. Speed=9.468000m/h.</desc>
<speed>2.630000</speed>
</trkpt>
<trkpt lat="44.475246" lon="34.142654">
<ele>360.340088</ele>
<time>2011-10-13T11:35:07Z</time>
<desc>lat.=44.475246, lon.=34.142654, Alt.=360.340088m. Speed=2.556000m/h.</desc>
<speed>0.710000</speed>
</trkpt>
<trkpt lat="44.475063" lon="34.142780">
<ele>365.246338</ele>
<time>2011-10-13T11:35:12Z</time>
<desc>lat.=44.475063, lon.=34.142780, Alt.=365.246338m. Speed=4.788000m/h.</desc>
<speed>1.330000</speed>
</trkpt>
<trkpt lat="44.474976" lon="34.142860">
<ele>370.590088</ele>
<time>2011-10-13T11:35:17Z</time>
<desc>lat.=44.474976, lon.=34.142860, Alt.=370.590088m. Speed=3.924000m/h.</desc>
<speed>1.090000</speed>
</trkpt>
<trkpt lat="44.474777" lon="34.143032">
<ele>377.011963</ele>
<time>2011-10-13T11:35:22Z</time>
<desc>lat.=44.474777, lon.=34.143032, Alt.=377.011963m. Speed=2.016000m/h.</desc>
<speed>0.560000</speed>
</trkpt>
<trkpt lat="44.474594" lon="34.142990">
<ele>381.910400</ele>
<time>2011-10-13T11:35:27Z</time>
<desc>lat.=44.474594, lon.=34.142990, Alt.=381.910400m. Speed=3.600000m/h.</desc>
<speed>1.000000</speed>
</trkpt>
<trkpt lat="44.474365" lon="34.143017">
<ele>387.863525</ele>
<time>2011-10-13T11:35:32Z</time>
<desc>lat.=44.474365, lon.=34.143017, Alt.=387.863525m. Speed=4.968000m/h.</desc>
<speed>1.380000</speed>
</trkpt>
<trkpt lat="44.474194" lon="34.142963">
<ele>394.051025</ele>
<time>2011-10-13T11:35:37Z</time>
<desc>lat.=44.474194, lon.=34.142963, Alt.=394.051025m. Speed=1.404000m/h.</desc>
<speed>0.390000</speed>
</trkpt>
<trkpt lat="44.474079" lon="34.142895">
<ele>399.121338</ele>
<time>2011-10-13T11:35:42Z</time>
<desc>lat.=44.474079, lon.=34.142895, Alt.=399.121338m. Speed=0.792000m/h.</desc>
<speed>0.220000</speed>
</trkpt>
<trkpt lat="44.474041" lon="34.142757">
<ele>402.238525</ele>
<time>2011-10-13T11:35:47Z</time>
<desc>lat.=44.474041, lon.=34.142757, Alt.=402.238525m. Speed=5.256000m/h.</desc>
<speed>1.460000</speed>
</trkpt>
<trkpt lat="44.474098" lon="34.142426">
<ele>405.801025</ele>
<time>2011-10-13T11:35:52Z</time>
<desc>lat.=44.474098, lon.=34.142426, Alt.=405.801025m. Speed=2.736000m/h.</desc>
<speed>0.760000</speed>
</trkpt>
<trkpt lat="44.474030" lon="34.142258">
<ele>410.566650</ele>
<time>2011-10-13T11:35:57Z</time>
<desc>lat.=44.474030, lon.=34.142258, Alt.=410.566650m. Speed=2.484000m/h.</desc>
<speed>0.690000</speed>
</trkpt>
<trkpt lat="44.473969" lon="34.142197">
<ele>415.879150</ele>
<time>2011-10-13T11:36:02Z</time>
<desc>lat.=44.473969, lon.=34.142197, Alt.=415.879150m. Speed=2.376000m/h.</desc>
<speed>0.660000</speed>
</trkpt>
<trkpt lat="44.473877" lon="34.142227">
<ele>421.129150</ele>
<time>2011-10-13T11:36:07Z</time>
<desc>lat.=44.473877, lon.=34.142227, Alt.=421.129150m. Speed=3.708000m/h.</desc>
<speed>1.030000</speed>
</trkpt>
<trkpt lat="44.473785" lon="34.142105">
<ele>425.668213</ele>
<time>2011-10-13T11:36:12Z</time>
<desc>lat.=44.473785, lon.=34.142105, Alt.=425.668213m. Speed=1.044000m/h.</desc>
<speed>0.290000</speed>
</trkpt>
<trkpt lat="44.473732" lon="34.141930">
<ele>428.746338</ele>
<time>2011-10-13T11:36:17Z</time>
<desc>lat.=44.473732, lon.=34.141930, Alt.=428.746338m. Speed=2.412000m/h.</desc>
<speed>0.670000</speed>
</trkpt>
<trkpt lat="44.473564" lon="34.141701">
<ele>431.363525</ele>
<time>2011-10-13T11:36:22Z</time>
<desc>lat.=44.473564, lon.=34.141701, Alt.=431.363525m. Speed=1.584000m/h.</desc>
<speed>0.440000</speed>
</trkpt>
<trkpt lat="44.473484" lon="34.141613">
<ele>433.699463</ele>
<time>2011-10-13T11:36:27Z</time>
<desc>lat.=44.473484, lon.=34.141613, Alt.=433.699463m. Speed=1.260000m/h.</desc>
<speed>0.350000</speed>
</trkpt>
<trkpt lat="44.473400" lon="34.141552">
<ele>436.543213</ele>
<time>2011-10-13T11:36:32Z</time>
<desc>lat.=44.473400, lon.=34.141552, Alt.=436.543213m. Speed=2.736000m/h.</desc>
<speed>0.760000</speed>
</trkpt>
<trkpt lat="44.473213" lon="34.141567">
<ele>439.691650</ele>
<time>2011-10-13T11:36:37Z</time>
<desc>lat.=44.473213, lon.=34.141567, Alt.=439.691650m. Speed=5.652000m/h.</desc>
<speed>1.570000</speed>
</trkpt>
<trkpt lat="44.473114" lon="34.141495">
<ele>442.168213</ele>
<time>2011-10-13T11:36:42Z</time>
<desc>lat.=44.473114, lon.=34.141495, Alt.=442.168213m. Speed=1.872000m/h.</desc>
<speed>0.520000</speed>
</trkpt>
<trkpt lat="44.473000" lon="34.141357">
<ele>442.824463</ele>
<time>2011-10-13T11:36:47Z</time>
<desc>lat.=44.473000, lon.=34.141357, Alt.=442.824463m. Speed=2.304000m/h.</desc>
<speed>0.640000</speed>
</trkpt>
<trkpt lat="44.473015" lon="34.141075">
<ele>443.746338</ele>
<time>2011-10-13T11:36:52Z</time>
<desc>lat.=44.473015, lon.=34.141075, Alt.=443.746338m. Speed=1.260000m/h.</desc>
<speed>0.350000</speed>
</trkpt>
<trkpt lat="44.473137" lon="34.140736">
<ele>443.410400</ele>
<time>2011-10-13T11:36:57Z</time>
<desc>lat.=44.473137, lon.=34.140736, Alt.=443.410400m. Speed=2.052000m/h.</desc>
<speed>0.570000</speed>
</trkpt>
<trkpt lat="44.473206" lon="34.140499">
<ele>443.668213</ele>
<time>2011-10-13T11:37:02Z</time>
<desc>lat.=44.473206, lon.=34.140499, Alt.=443.668213m. Speed=1.188000m/h.</desc>
<speed>0.330000</speed>
</trkpt>
<trkpt lat="44.473186" lon="34.140343">
<ele>444.410400</ele>
<time>2011-10-13T11:37:07Z</time>
<desc>lat.=44.473186, lon.=34.140343, Alt.=444.410400m. Speed=3.564000m/h.</desc>
<speed>0.990000</speed>
</trkpt>
<trkpt lat="44.473213" lon="34.140263">
<ele>445.277588</ele>
<time>2011-10-13T11:37:12Z</time>
<desc>lat.=44.473213, lon.=34.140263, Alt.=445.277588m. Speed=2.556000m/h.</desc>
<speed>0.710000</speed>
</trkpt>
<trkpt lat="44.473267" lon="34.140163">
<ele>446.418213</ele>
<time>2011-10-13T11:37:17Z</time>
<desc>lat.=44.473267, lon.=34.140163, Alt.=446.418213m. Speed=1.944000m/h.</desc>
<speed>0.540000</speed>
</trkpt>
<trkpt lat="44.473232" lon="34.140087">
<ele>447.660400</ele>
<time>2011-10-13T11:37:22Z</time>
<desc>lat.=44.473232, lon.=34.140087, Alt.=447.660400m. Speed=0.288000m/h.</desc>
<speed>0.080000</speed>
</trkpt>
<trkpt lat="44.472984" lon="34.140102">
<ele>449.191650</ele>
<time>2011-10-13T11:37:27Z</time>
<desc>lat.=44.472984, lon.=34.140102, Alt.=449.191650m. Speed=7.920000m/h.</desc>
<speed>2.200000</speed>
</trkpt>
<trkpt lat="44.472923" lon="34.140022">
<ele>451.308838</ele>
<time>2011-10-13T11:37:32Z</time>
<desc>lat.=44.472923, lon.=34.140022, Alt.=451.308838m. Speed=0.504000m/h.</desc>
<speed>0.140000</speed>
</trkpt>
<trkpt lat="44.472885" lon="34.139988">
<ele>452.691650</ele>
<time>2011-10-13T11:37:37Z</time>
<desc>lat.=44.472885, lon.=34.139988, Alt.=452.691650m. Speed=0.756000m/h.</desc>
<speed>0.210000</speed>
</trkpt>
<trkpt lat="44.472858" lon="34.139980">
<ele>452.910400</ele>
<time>2011-10-13T11:37:42Z</time>
<desc>lat.=44.472858, lon.=34.139980, Alt.=452.910400m. Speed=0.828000m/h.</desc>
<speed>0.230000</speed>
</trkpt>
<trkpt lat="44.472801" lon="34.139999">
<ele>452.840088</ele>
<time>2011-10-13T11:37:47Z</time>
<desc>lat.=44.472801, lon.=34.139999, Alt.=452.840088m. Speed=1.332000m/h.</desc>
<speed>0.370000</speed>
</trkpt>
<trkpt lat="44.472775" lon="34.139988">
<ele>452.644775</ele>
<time>2011-10-13T11:37:52Z</time>
<desc>lat.=44.472775, lon.=34.139988, Alt.=452.644775m. Speed=0.792000m/h.</desc>
<speed>0.220000</speed>
</trkpt>
<trkpt lat="44.472748" lon="34.139999">
<ele>452.465088</ele>
<time>2011-10-13T11:37:57Z</time>
<desc>lat.=44.472748, lon.=34.139999, Alt.=452.465088m. Speed=0.864000m/h.</desc>
<speed>0.240000</speed>
</trkpt>
<trkpt lat="44.472710" lon="34.140034">
<ele>452.355713</ele>
<time>2011-10-13T11:38:02Z</time>
<desc>lat.=44.472710, lon.=34.140034, Alt.=452.355713m. Speed=2.736000m/h.</desc>
<speed>0.760000</speed>
</trkpt>
<trkpt lat="44.472683" lon="34.140034">
<ele>452.261963</ele>
<time>2011-10-13T11:38:07Z</time>
<desc>lat.=44.472683, lon.=34.140034, Alt.=452.261963m. Speed=0.756000m/h.</desc>
<speed>0.210000</speed>
</trkpt>
<trkpt lat="44.472637" lon="34.140049">
<ele>452.043213</ele>
<time>2011-10-13T11:38:12Z</time>
<desc>lat.=44.472637, lon.=34.140049, Alt.=452.043213m. Speed=4.248000m/h.</desc>
<speed>1.180000</speed>
</trkpt>
<trkpt lat="44.472557" lon="34.140102">
<ele>451.777588</ele>
<time>2011-10-13T11:38:17Z</time>
<desc>lat.=44.472557, lon.=34.140102, Alt.=451.777588m. Speed=1.692000m/h.</desc>
<speed>0.470000</speed>
</trkpt>
<trkpt lat="44.472492" lon="34.140148">
<ele>450.965088</ele>
<time>2011-10-13T11:38:22Z</time>
<desc>lat.=44.472492, lon.=34.140148, Alt.=450.965088m. Speed=2.448000m/h.</desc>
<speed>0.680000</speed>
</trkpt>
<trkpt lat="44.472435" lon="34.140171">
<ele>450.340088</ele>
<time>2011-10-13T11:38:27Z</time>
<desc>lat.=44.472435, lon.=34.140171, Alt.=450.340088m. Speed=1.944000m/h.</desc>
<speed>0.540000</speed>
</trkpt>
<trkpt lat="44.472404" lon="34.140194">
<ele>449.488525</ele>
<time>2011-10-13T11:38:32Z</time>
<desc>lat.=44.472404, lon.=34.140194, Alt.=449.488525m. Speed=2.448000m/h.</desc>
<speed>0.680000</speed>
</trkpt>
<trkpt lat="44.472355" lon="34.140255">
<ele>448.910400</ele>
<time>2011-10-13T11:38:37Z</time>
<desc>lat.=44.472355, lon.=34.140255, Alt.=448.910400m. Speed=4.212000m/h.</desc>
<speed>1.170000</speed>
</trkpt>
<trkpt lat="44.472321" lon="34.140289">
<ele>448.308838</ele>
<time>2011-10-13T11:38:42Z</time>
<desc>lat.=44.472321, lon.=34.140289, Alt.=448.308838m. Speed=0.756000m/h.</desc>
<speed>0.210000</speed>
</trkpt>
<trkpt lat="44.472324" lon="34.140217">
<ele>447.082275</ele>
<time>2011-10-13T11:38:47Z</time>
<desc>lat.=44.472324, lon.=34.140217, Alt.=447.082275m. Speed=0.468000m/h.</desc>
<speed>0.130000</speed>
</trkpt>
<trkpt lat="44.471966" lon="34.140797">
<ele>439.176025</ele>
<time>2011-10-13T11:38:52Z</time>
<desc>lat.=44.471966, lon.=34.140797, Alt.=439.176025m. Speed=3.600000m/h.</desc>
<speed>1.000000</speed>
</trkpt>
<trkpt lat="44.473171" lon="34.138779">
<ele>433.691650</ele>
<time>2011-10-13T11:38:57Z</time>
<desc>lat.=44.473171, lon.=34.138779, Alt.=433.691650m. Speed=2.160000m/h.</desc>
<speed>0.600000</speed>
</trkpt>
<trkpt lat="44.472919" lon="34.138939">
<ele>433.472900</ele>
<time>2011-10-13T11:39:02Z</time>
<desc>lat.=44.472919, lon.=34.138939, Alt.=433.472900m. Speed=2.664000m/h.</desc>
<speed>0.740000</speed>
</trkpt>
<trkpt lat="44.472881" lon="34.139111">
<ele>433.543213</ele>
<time>2011-10-13T11:39:07Z</time>
<desc>lat.=44.472881, lon.=34.139111, Alt.=433.543213m. Speed=6.300000m/h.</desc>
<speed>1.750000</speed>
</trkpt>
<trkpt lat="44.472713" lon="34.139320">
<ele>433.574463</ele>
<time>2011-10-13T11:39:12Z</time>
<desc>lat.=44.472713, lon.=34.139320, Alt.=433.574463m. Speed=5.580000m/h.</desc>
<speed>1.550000</speed>
</trkpt>
<trkpt lat="44.472710" lon="34.139484">
<ele>432.902588</ele>
<time>2011-10-13T11:39:17Z</time>
<desc>lat.=44.472710, lon.=34.139484, Alt.=432.902588m. Speed=4.644000m/h.</desc>
<speed>1.290000</speed>
</trkpt>
<trkpt lat="44.472588" lon="34.139641">
<ele>432.371338</ele>
<time>2011-10-13T11:39:22Z</time>
<desc>lat.=44.472588, lon.=34.139641, Alt.=432.371338m. Speed=3.312000m/h.</desc>
<speed>0.920000</speed>
</trkpt>
<trkpt lat="44.472546" lon="34.139805">
<ele>431.980713</ele>
<time>2011-10-13T11:39:27Z</time>
<desc>lat.=44.472546, lon.=34.139805, Alt.=431.980713m. Speed=2.304000m/h.</desc>
<speed>0.640000</speed>
</trkpt>
<trkpt lat="44.472488" lon="34.139904">
<ele>431.683838</ele>
<time>2011-10-13T11:39:32Z</time>
<desc>lat.=44.472488, lon.=34.139904, Alt.=431.683838m. Speed=0.360000m/h.</desc>
<speed>0.100000</speed>
</trkpt>
<trkpt lat="44.472420" lon="34.139938">
<ele>432.402588</ele>
<time>2011-10-13T11:39:37Z</time>
<desc>lat.=44.472420, lon.=34.139938, Alt.=432.402588m. Speed=1.152000m/h.</desc>
<speed>0.320000</speed>
</trkpt>
<trkpt lat="44.472298" lon="34.140072">
<ele>431.496338</ele>
<time>2011-10-13T11:39:42Z</time>
<desc>lat.=44.472298, lon.=34.140072, Alt.=431.496338m. Speed=0.216000m/h.</desc>
<speed>0.060000</speed>
</trkpt>
<trkpt lat="44.470066" lon="34.143551">
<ele>452.816650</ele>
<time>2011-10-13T11:39:47Z</time>
<desc>lat.=44.470066, lon.=34.143551, Alt.=452.816650m. Speed=0.288000m/h.</desc>
<speed>0.080000</speed>
</trkpt>
<trkpt lat="44.470058" lon="34.143551">
<ele>452.683838</ele>
<time>2011-10-13T11:39:52Z</time>
<desc>lat.=44.470058, lon.=34.143551, Alt.=452.683838m. Speed=0.360000m/h.</desc>
<speed>0.100000</speed>
</trkpt>
<trkpt lat="44.469810" lon="34.143559">
<ele>446.183838</ele>
<time>2011-10-13T11:39:57Z</time>
<desc>lat.=44.469810, lon.=34.143559, Alt.=446.183838m. Speed=0.108000m/h.</desc>
<speed>0.030000</speed>
</trkpt>
<trkpt lat="44.469727" lon="34.143581">
<ele>443.129150</ele>
<time>2011-10-13T11:40:02Z</time>
<desc>lat.=44.469727, lon.=34.143581, Alt.=443.129150m. Speed=0.216000m/h.</desc>
<speed>0.060000</speed>
</trkpt>
<trkpt lat="44.469730" lon="34.143585">
<ele>443.699463</ele>
<time>2011-10-13T11:40:07Z</time>
<desc>lat.=44.469730, lon.=34.143585, Alt.=443.699463m. Speed=0.288000m/h.</desc>
<speed>0.080000</speed>
</trkpt>
<trkpt lat="44.469730" lon="34.143593">
<ele>442.754150</ele>
<time>2011-10-13T11:40:12Z</time>
<desc>lat.=44.469730, lon.=34.143593, Alt.=442.754150m. Speed=0.072000m/h.</desc>
<speed>0.020000</speed>
</trkpt>
<trkpt lat="44.469715" lon="34.143574">
<ele>442.238525</ele>
<time>2011-10-13T11:40:17Z</time>
<desc>lat.=44.469715, lon.=34.143574, Alt.=442.238525m. Speed=0.180000m/h.</desc>
<speed>0.050000</speed>
</trkpt>
<trkpt lat="44.469669" lon="34.143536">
<ele>436.363525</ele>
<time>2011-10-13T11:40:22Z</time>
<desc>lat.=44.469669, lon.=34.143536, Alt.=436.363525m. Speed=0.072000m/h.</desc>
<speed>0.020000</speed>
</trkpt>
<trkpt lat="44.469589" lon="34.143528">
<ele>428.090088</ele>
<time>2011-10-13T11:40:27Z</time>
<desc>lat.=44.469589, lon.=34.143528, Alt.=428.090088m. Speed=0.324000m/h.</desc>
<speed>0.090000</speed>
</trkpt>
<trkpt lat="44.469444" lon="34.143551">
<ele>406.246338</ele>
<time>2011-10-13T11:40:32Z</time>
<desc>lat.=44.469444, lon.=34.143551, Alt.=406.246338m. Speed=0.612000m/h.</desc>
<speed>0.170000</speed>
</trkpt>
<trkpt lat="44.469379" lon="34.143562">
<ele>399.113525</ele>
<time>2011-10-13T11:40:37Z</time>
<desc>lat.=44.469379, lon.=34.143562, Alt.=399.113525m. Speed=0.468000m/h.</desc>
<speed>0.130000</speed>
</trkpt>
<trkpt lat="44.469322" lon="34.143562">
<ele>391.605713</ele>
<time>2011-10-13T11:40:42Z</time>
<desc>lat.=44.469322, lon.=34.143562, Alt.=391.605713m. Speed=0.720000m/h.</desc>
<speed>0.200000</speed>
</trkpt>
<trkpt lat="44.469254" lon="34.143509">
<ele>387.582275</ele>
<time>2011-10-13T11:40:47Z</time>
<desc>lat.=44.469254, lon.=34.143509, Alt.=387.582275m. Speed=0.180000m/h.</desc>
<speed>0.050000</speed>
</trkpt>
<trkpt lat="44.468964" lon="34.143543">
<ele>368.058838</ele>
<time>2011-10-13T11:40:52Z</time>
<desc>lat.=44.468964, lon.=34.143543, Alt.=368.058838m. Speed=0.540000m/h.</desc>
<speed>0.150000</speed>
</trkpt>
<trkpt lat="44.468933" lon="34.143578">
<ele>351.332275</ele>
<time>2011-10-13T11:40:57Z</time>
<desc>lat.=44.468933, lon.=34.143578, Alt.=351.332275m. Speed=0.144000m/h.</desc>
<speed>0.040000</speed>
</trkpt>
<trkpt lat="44.468861" lon="34.143600">
<ele>328.379150</ele>
<time>2011-10-13T11:41:02Z</time>
<desc>lat.=44.468861, lon.=34.143600, Alt.=328.379150m. Speed=0.072000m/h.</desc>
<speed>0.020000</speed>
</trkpt>
<trkpt lat="44.468826" lon="34.143616">
<ele>312.058838</ele>
<time>2011-10-13T11:41:07Z</time>
<desc>lat.=44.468826, lon.=34.143616, Alt.=312.058838m. Speed=0.612000m/h.</desc>
<speed>0.170000</speed>
</trkpt>
<trkpt lat="44.468796" lon="34.143623">
<ele>302.590088</ele>
<time>2011-10-13T11:41:12Z</time>
<desc>lat.=44.468796, lon.=34.143623, Alt.=302.590088m. Speed=0.648000m/h.</desc>
<speed>0.180000</speed>
</trkpt>
<trkpt lat="44.468769" lon="34.143654">
<ele>296.558838</ele>
<time>2011-10-13T11:41:17Z</time>
<desc>lat.=44.468769, lon.=34.143654, Alt.=296.558838m. Speed=1.800000m/h.</desc>
<speed>0.500000</speed>
</trkpt>
<trkpt lat="44.468754" lon="34.143677">
<ele>294.113525</ele>
<time>2011-10-13T11:41:22Z</time>
<desc>lat.=44.468754, lon.=34.143677, Alt.=294.113525m. Speed=1.476000m/h.</desc>
<speed>0.410000</speed>
</trkpt>
<trkpt lat="44.468750" lon="34.143707">
<ele>292.668213</ele>
<time>2011-10-13T11:41:27Z</time>
<desc>lat.=44.468750, lon.=34.143707, Alt.=292.668213m. Speed=1.764000m/h.</desc>
<speed>0.490000</speed>
</trkpt>
<trkpt lat="44.468731" lon="34.143745">
<ele>291.090088</ele>
<time>2011-10-13T11:41:32Z</time>
<desc>lat.=44.468731, lon.=34.143745, Alt.=291.090088m. Speed=2.448000m/h.</desc>
<speed>0.680000</speed>
</trkpt>
<trkpt lat="44.468697" lon="34.143677">
<ele>288.011963</ele>
<time>2011-10-13T11:41:37Z</time>
<desc>lat.=44.468697, lon.=34.143677, Alt.=288.011963m. Speed=0.324000m/h.</desc>
<speed>0.090000</speed>
</trkpt>
<trkpt lat="44.468681" lon="34.143677">
<ele>286.035400</ele>
<time>2011-10-13T11:41:42Z</time>
<desc>lat.=44.468681, lon.=34.143677, Alt.=286.035400m. Speed=0.396000m/h.</desc>
<speed>0.110000</speed>
</trkpt>
<trkpt lat="44.468639" lon="34.143692">
<ele>281.949463</ele>
<time>2011-10-13T11:41:47Z</time>
<desc>lat.=44.468639, lon.=34.143692, Alt.=281.949463m. Speed=1.728000m/h.</desc>
<speed>0.480000</speed>
</trkpt>
<trkpt lat="44.468647" lon="34.143646">
<ele>280.605713</ele>
<time>2011-10-13T11:41:52Z</time>
<desc>lat.=44.468647, lon.=34.143646, Alt.=280.605713m. Speed=6.768000m/h.</desc>
<speed>1.880000</speed>
</trkpt>
<trkpt lat="44.468658" lon="34.143673">
<ele>279.644775</ele>
<time>2011-10-13T11:41:57Z</time>
<desc>lat.=44.468658, lon.=34.143673, Alt.=279.644775m. Speed=6.984000m/h.</desc>
<speed>1.940000</speed>
</trkpt>
<trkpt lat="44.468624" lon="34.143764">
<ele>279.129150</ele>
<time>2011-10-13T11:42:02Z</time>
<desc>lat.=44.468624, lon.=34.143764, Alt.=279.129150m. Speed=3.924000m/h.</desc>
<speed>1.090000</speed>
</trkpt>
<trkpt lat="44.468575" lon="34.143837">
<ele>279.168213</ele>
<time>2011-10-13T11:42:07Z</time>
<desc>lat.=44.468575, lon.=34.143837, Alt.=279.168213m. Speed=7.704000m/h.</desc>
<speed>2.140000</speed>
</trkpt>
<trkpt lat="44.468506" lon="34.144016">
<ele>279.558838</ele>
<time>2011-10-13T11:42:12Z</time>
<desc>lat.=44.468506, lon.=34.144016, Alt.=279.558838m. Speed=5.256000m/h.</desc>
<speed>1.460000</speed>
</trkpt>
<trkpt lat="44.468479" lon="34.144051">
<ele>280.074463</ele>
<time>2011-10-13T11:42:17Z</time>
<desc>lat.=44.468479, lon.=34.144051, Alt.=280.074463m. Speed=0.864000m/h.</desc>
<speed>0.240000</speed>
</trkpt>
<trkpt lat="44.468502" lon="34.144161">
<ele>280.090088</ele>
<time>2011-10-13T11:42:22Z</time>
<desc>lat.=44.468502, lon.=34.144161, Alt.=280.090088m. Speed=1.260000m/h.</desc>
<speed>0.350000</speed>
</trkpt>
<trkpt lat="44.468441" lon="34.144199">
<ele>280.441650</ele>
<time>2011-10-13T11:42:27Z</time>
<desc>lat.=44.468441, lon.=34.144199, Alt.=280.441650m. Speed=0.972000m/h.</desc>
<speed>0.270000</speed>
</trkpt>
<trkpt lat="44.468380" lon="34.144211">
<ele>279.746338</ele>
<time>2011-10-13T11:42:32Z</time>
<desc>lat.=44.468380, lon.=34.144211, Alt.=279.746338m. Speed=3.924000m/h.</desc>
<speed>1.090000</speed>
</trkpt>
<trkpt lat="44.468388" lon="34.144241">
<ele>280.363525</ele>
<time>2011-10-13T11:42:37Z</time>
<desc>lat.=44.468388, lon.=34.144241, Alt.=280.363525m. Speed=1.080000m/h.</desc>
<speed>0.300000</speed>
</trkpt>
<trkpt lat="44.468479" lon="34.144188">
<ele>280.777588</ele>
<time>2011-10-13T11:42:42Z</time>
<desc>lat.=44.468479, lon.=34.144188, Alt.=280.777588m. Speed=1.008000m/h.</desc>
<speed>0.280000</speed>
</trkpt>
<trkpt lat="44.468586" lon="34.144337">
<ele>281.246338</ele>
<time>2011-10-13T11:42:47Z</time>
<desc>lat.=44.468586, lon.=34.144337, Alt.=281.246338m. Speed=1.296000m/h.</desc>
<speed>0.360000</speed>
</trkpt>
<trkpt lat="44.468636" lon="34.144371">
<ele>281.316650</ele>
<time>2011-10-13T11:42:52Z</time>
<desc>lat.=44.468636, lon.=34.144371, Alt.=281.316650m. Speed=1.188000m/h.</desc>
<speed>0.330000</speed>
</trkpt>
<trkpt lat="44.468742" lon="34.144325">
<ele>277.769775</ele>
<time>2011-10-13T11:42:57Z</time>
<desc>lat.=44.468742, lon.=34.144325, Alt.=277.769775m. Speed=0.612000m/h.</desc>
<speed>0.170000</speed>
</trkpt>
<trkpt lat="44.468807" lon="34.144329">
<ele>275.980713</ele>
<time>2011-10-13T11:43:02Z</time>
<desc>lat.=44.468807, lon.=34.144329, Alt.=275.980713m. Speed=0.360000m/h.</desc>
<speed>0.100000</speed>
</trkpt>
<trkpt lat="44.468826" lon="34.144344">
<ele>275.722900</ele>
<time>2011-10-13T11:43:07Z</time>
<desc>lat.=44.468826, lon.=34.144344, Alt.=275.722900m. Speed=0.504000m/h.</desc>
<speed>0.140000</speed>
</trkpt>
<trkpt lat="44.468811" lon="34.144363">
<ele>275.707275</ele>
<time>2011-10-13T11:43:12Z</time>
<desc>lat.=44.468811, lon.=34.144363, Alt.=275.707275m. Speed=1.224000m/h.</desc>
<speed>0.340000</speed>
</trkpt>
<trkpt lat="44.468800" lon="34.144405">
<ele>275.668213</ele>
<time>2011-10-13T11:43:17Z</time>
<desc>lat.=44.468800, lon.=34.144405, Alt.=275.668213m. Speed=0.828000m/h.</desc>
<speed>0.230000</speed>
</trkpt>
<trkpt lat="44.468765" lon="34.144398">
<ele>275.340088</ele>
<time>2011-10-13T11:43:22Z</time>
<desc>lat.=44.468765, lon.=34.144398, Alt.=275.340088m. Speed=1.224000m/h.</desc>
<speed>0.340000</speed>
</trkpt>
<trkpt lat="44.468746" lon="34.144394">
<ele>275.254150</ele>
<time>2011-10-13T11:43:27Z</time>
<desc>lat.=44.468746, lon.=34.144394, Alt.=275.254150m. Speed=1.260000m/h.</desc>
<speed>0.350000</speed>
</trkpt>
<trkpt lat="44.468739" lon="34.144360">
<ele>274.918213</ele>
<time>2011-10-13T11:43:32Z</time>
<desc>lat.=44.468739, lon.=34.144360, Alt.=274.918213m. Speed=1.908000m/h.</desc>
<speed>0.530000</speed>
</trkpt>
<trkpt lat="44.468761" lon="34.144253">
<ele>274.957275</ele>
<time>2011-10-13T11:43:37Z</time>
<desc>lat.=44.468761, lon.=34.144253, Alt.=274.957275m. Speed=1.548000m/h.</desc>
<speed>0.430000</speed>
</trkpt>
<trkpt lat="44.468754" lon="34.144199">
<ele>275.043213</ele>
<time>2011-10-13T11:43:42Z</time>
<desc>lat.=44.468754, lon.=34.144199, Alt.=275.043213m. Speed=1.548000m/h.</desc>
<speed>0.430000</speed>
</trkpt>
<trkpt lat="44.468624" lon="34.144146">
<ele>274.996338</ele>
<time>2011-10-13T11:43:47Z</time>
<desc>lat.=44.468624, lon.=34.144146, Alt.=274.996338m. Speed=6.264000m/h.</desc>
<speed>1.740000</speed>
</trkpt>
<trkpt lat="44.468563" lon="34.144093">
<ele>275.793213</ele>
<time>2011-10-13T11:43:52Z</time>
<desc>lat.=44.468563, lon.=34.144093, Alt.=275.793213m. Speed=5.652000m/h.</desc>
<speed>1.570000</speed>
</trkpt>
<trkpt lat="44.468502" lon="34.144066">
<ele>277.371338</ele>
<time>2011-10-13T11:43:57Z</time>
<desc>lat.=44.468502, lon.=34.144066, Alt.=277.371338m. Speed=4.968000m/h.</desc>
<speed>1.380000</speed>
</trkpt>
<trkpt lat="44.468460" lon="34.144035">
<ele>278.957275</ele>
<time>2011-10-13T11:44:02Z</time>
<desc>lat.=44.468460, lon.=34.144035, Alt.=278.957275m. Speed=4.392000m/h.</desc>
<speed>1.220000</speed>
</trkpt>
<trkpt lat="44.468498" lon="34.143826">
<ele>279.660400</ele>
<time>2011-10-13T11:44:07Z</time>
<desc>lat.=44.468498, lon.=34.143826, Alt.=279.660400m. Speed=3.060000m/h.</desc>
<speed>0.850000</speed>
</trkpt>
<trkpt lat="44.467541" lon="34.144451">
<ele>280.097900</ele>
<time>2011-10-13T11:44:12Z</time>
<desc>lat.=44.467541, lon.=34.144451, Alt.=280.097900m. Speed=5.688000m/h.</desc>
<speed>1.580000</speed>
</trkpt>
<trkpt lat="44.467297" lon="34.144932">
<ele>281.082275</ele>
<time>2011-10-13T11:44:17Z</time>
<desc>lat.=44.467297, lon.=34.144932, Alt.=281.082275m. Speed=5.868000m/h.</desc>
<speed>1.630000</speed>
</trkpt>
<trkpt lat="44.467175" lon="34.144733">
<ele>278.386963</ele>
<time>2011-10-13T11:44:22Z</time>
<desc>lat.=44.467175, lon.=34.144733, Alt.=278.386963m. Speed=6.372000m/h.</desc>
<speed>1.770000</speed>
</trkpt>
<trkpt lat="44.467251" lon="34.144783">
<ele>278.918213</ele>
<time>2011-10-13T11:44:27Z</time>
<desc>lat.=44.467251, lon.=34.144783, Alt.=278.918213m. Speed=2.808000m/h.</desc>
<speed>0.780000</speed>
</trkpt>
<trkpt lat="44.467274" lon="34.144741">
<ele>278.183838</ele>
<time>2011-10-13T11:44:32Z</time>
<desc>lat.=44.467274, lon.=34.144741, Alt.=278.183838m. Speed=1.188000m/h.</desc>
<speed>0.330000</speed>
</trkpt>
<trkpt lat="44.467251" lon="34.144741">
<ele>277.371338</ele>
<time>2011-10-13T11:44:37Z</time>
<desc>lat.=44.467251, lon.=34.144741, Alt.=277.371338m. Speed=0.828000m/h.</desc>
<speed>0.230000</speed>
</trkpt>
<trkpt lat="44.467278" lon="34.144760">
<ele>276.371338</ele>
<time>2011-10-13T11:44:42Z</time>
<desc>lat.=44.467278, lon.=34.144760, Alt.=276.371338m. Speed=1.440000m/h.</desc>
<speed>0.400000</speed>
</trkpt>
<trkpt lat="44.467319" lon="34.144779">
<ele>275.722900</ele>
<time>2011-10-13T11:44:47Z</time>
<desc>lat.=44.467319, lon.=34.144779, Alt.=275.722900m. Speed=1.692000m/h.</desc>
<speed>0.470000</speed>
</trkpt>
<trkpt lat="44.467281" lon="34.144756">
<ele>275.926025</ele>
<time>2011-10-13T11:44:52Z</time>
<desc>lat.=44.467281, lon.=34.144756, Alt.=275.926025m. Speed=0.504000m/h.</desc>
<speed>0.140000</speed>
</trkpt>
<trkpt lat="44.467278" lon="34.144760">
<ele>276.543213</ele>
<time>2011-10-13T11:44:57Z</time>
<desc>lat.=44.467278, lon.=34.144760, Alt.=276.543213m. Speed=0.324000m/h.</desc>
<speed>0.090000</speed>
</trkpt>
<trkpt lat="44.467274" lon="34.144768">
<ele>277.160400</ele>
<time>2011-10-13T11:45:02Z</time>
<desc>lat.=44.467274, lon.=34.144768, Alt.=277.160400m. Speed=0.936000m/h.</desc>
<speed>0.260000</speed>
</trkpt>
<trkpt lat="44.467289" lon="34.144817">
<ele>277.488525</ele>
<time>2011-10-13T11:45:07Z</time>
<desc>lat.=44.467289, lon.=34.144817, Alt.=277.488525m. Speed=1.620000m/h.</desc>
<speed>0.450000</speed>
</trkpt>
<trkpt lat="44.467323" lon="34.144936">
<ele>277.590088</ele>
<time>2011-10-13T11:45:12Z</time>
<desc>lat.=44.467323, lon.=34.144936, Alt.=277.590088m. Speed=2.232000m/h.</desc>
<speed>0.620000</speed>
</trkpt>
<trkpt lat="44.467319" lon="34.145081">
<ele>277.558838</ele>
<time>2011-10-13T11:45:17Z</time>
<desc>lat.=44.467319, lon.=34.145081, Alt.=277.558838m. Speed=1.872000m/h.</desc>
<speed>0.520000</speed>
</trkpt>
<trkpt lat="44.467331" lon="34.145172">
<ele>277.457275</ele>
<time>2011-10-13T11:45:22Z</time>
<desc>lat.=44.467331, lon.=34.145172, Alt.=277.457275m. Speed=0.684000m/h.</desc>
<speed>0.190000</speed>
</trkpt>
<trkpt lat="44.467323" lon="34.145172">
<ele>278.004150</ele>
<time>2011-10-13T11:45:27Z</time>
<desc>lat.=44.467323, lon.=34.145172, Alt.=278.004150m. Speed=0.720000m/h.</desc>
<speed>0.200000</speed>
</trkpt>
<trkpt lat="44.467327" lon="34.145187">
<ele>278.613525</ele>
<time>2011-10-13T11:45:32Z</time>
<desc>lat.=44.467327, lon.=34.145187, Alt.=278.613525m. Speed=0.792000m/h.</desc>
<speed>0.220000</speed>
</trkpt>
<trkpt lat="44.467327" lon="34.145199">
<ele>279.222900</ele>
<time>2011-10-13T11:45:37Z</time>
<desc>lat.=44.467327, lon.=34.145199, Alt.=279.222900m. Speed=0.648000m/h.</desc>
<speed>0.180000</speed>
</trkpt>
<trkpt lat="44.467319" lon="34.145210">
<ele>279.840088</ele>
<time>2011-10-13T11:45:42Z</time>
<desc>lat.=44.467319, lon.=34.145210, Alt.=279.840088m. Speed=0.972000m/h.</desc>
<speed>0.270000</speed>
</trkpt>
<trkpt lat="44.467308" lon="34.145195">
<ele>280.191650</ele>
<time>2011-10-13T11:45:47Z</time>
<desc>lat.=44.467308, lon.=34.145195, Alt.=280.191650m. Speed=1.260000m/h.</desc>
<speed>0.350000</speed>
</trkpt>
<trkpt lat="44.467285" lon="34.145153">
<ele>280.301025</ele>
<time>2011-10-13T11:45:52Z</time>
<desc>lat.=44.467285, lon.=34.145153, Alt.=280.301025m. Speed=1.008000m/h.</desc>
<speed>0.280000</speed>
</trkpt>
<trkpt lat="44.467278" lon="34.145191">
<ele>280.316650</ele>
<time>2011-10-13T11:45:57Z</time>
<desc>lat.=44.467278, lon.=34.145191, Alt.=280.316650m. Speed=1.080000m/h.</desc>
<speed>0.300000</speed>
</trkpt>
<trkpt lat="44.467274" lon="34.145210">
<ele>280.808838</ele>
<time>2011-10-13T11:46:02Z</time>
<desc>lat.=44.467274, lon.=34.145210, Alt.=280.808838m. Speed=1.836000m/h.</desc>
<speed>0.510000</speed>
</trkpt>
<trkpt lat="44.467281" lon="34.145210">
<ele>280.980713</ele>
<time>2011-10-13T11:46:07Z</time>
<desc>lat.=44.467281, lon.=34.145210, Alt.=280.980713m. Speed=0.540000m/h.</desc>
<speed>0.150000</speed>
</trkpt>
<trkpt lat="44.467285" lon="34.145210">
<ele>281.347900</ele>
<time>2011-10-13T11:46:12Z</time>
<desc>lat.=44.467285, lon.=34.145210, Alt.=281.347900m. Speed=0.324000m/h.</desc>
<speed>0.090000</speed>
</trkpt>
<trkpt lat="44.467297" lon="34.145206">
<ele>281.793213</ele>
<time>2011-10-13T11:46:17Z</time>
<desc>lat.=44.467297, lon.=34.145206, Alt.=281.793213m. Speed=0.396000m/h.</desc>
<speed>0.110000</speed>
</trkpt>
<trkpt lat="44.467304" lon="34.145260">
<ele>281.215088</ele>
<time>2011-10-13T11:46:22Z</time>
<desc>lat.=44.467304, lon.=34.145260, Alt.=281.215088m. Speed=1.548000m/h.</desc>
<speed>0.430000</speed>
</trkpt>
<trkpt lat="44.467312" lon="34.145370">
<ele>280.488525</ele>
<time>2011-10-13T11:46:27Z</time>
<desc>lat.=44.467312, lon.=34.145370, Alt.=280.488525m. Speed=1.692000m/h.</desc>
<speed>0.470000</speed>
</trkpt>
<trkpt lat="44.467358" lon="34.145485">
<ele>280.097900</ele>
<time>2011-10-13T11:46:32Z</time>
<desc>lat.=44.467358, lon.=34.145485, Alt.=280.097900m. Speed=2.412000m/h.</desc>
<speed>0.670000</speed>
</trkpt>
<trkpt lat="44.467388" lon="34.145508">
<ele>279.980713</ele>
<time>2011-10-13T11:46:37Z</time>
<desc>lat.=44.467388, lon.=34.145508, Alt.=279.980713m. Speed=1.656000m/h.</desc>
<speed>0.460000</speed>
</trkpt>
<trkpt lat="44.467422" lon="34.145546">
<ele>280.043213</ele>
<time>2011-10-13T11:46:42Z</time>
<desc>lat.=44.467422, lon.=34.145546, Alt.=280.043213m. Speed=1.692000m/h.</desc>
<speed>0.470000</speed>
</trkpt>
<trkpt lat="44.467468" lon="34.145584">
<ele>280.004150</ele>
<time>2011-10-13T11:46:47Z</time>
<desc>lat.=44.467468, lon.=34.145584, Alt.=280.004150m. Speed=1.908000m/h.</desc>
<speed>0.530000</speed>
</trkpt>
<trkpt lat="44.467518" lon="34.145630">
<ele>280.207275</ele>
<time>2011-10-13T11:46:52Z</time>
<desc>lat.=44.467518, lon.=34.145630, Alt.=280.207275m. Speed=2.016000m/h.</desc>
<speed>0.560000</speed>
</trkpt>
<trkpt lat="44.467567" lon="34.145683">
<ele>279.972900</ele>
<time>2011-10-13T11:46:57Z</time>
<desc>lat.=44.467567, lon.=34.145683, Alt.=279.972900m. Speed=1.872000m/h.</desc>
<speed>0.520000</speed>
</trkpt>
<trkpt lat="44.467556" lon="34.145741">
<ele>279.793213</ele>
<time>2011-10-13T11:47:02Z</time>
<desc>lat.=44.467556, lon.=34.145741, Alt.=279.793213m. Speed=1.800000m/h.</desc>
<speed>0.500000</speed>
</trkpt>
<trkpt lat="44.467579" lon="34.145805">
<ele>278.801025</ele>
<time>2011-10-13T11:47:07Z</time>
<desc>lat.=44.467579, lon.=34.145805, Alt.=278.801025m. Speed=1.944000m/h.</desc>
<speed>0.540000</speed>
</trkpt>
<trkpt lat="44.467575" lon="34.145809">
<ele>278.066650</ele>
<time>2011-10-13T11:47:12Z</time>
<desc>lat.=44.467575, lon.=34.145809, Alt.=278.066650m. Speed=1.404000m/h.</desc>
<speed>0.390000</speed>
</trkpt>
<trkpt lat="44.467606" lon="34.145794">
<ele>278.019775</ele>
<time>2011-10-13T11:47:17Z</time>
<desc>lat.=44.467606, lon.=34.145794, Alt.=278.019775m. Speed=1.404000m/h.</desc>
<speed>0.390000</speed>
</trkpt>
<trkpt lat="44.467609" lon="34.145840">
<ele>276.863525</ele>
<time>2011-10-13T11:47:22Z</time>
<desc>lat.=44.467609, lon.=34.145840, Alt.=276.863525m. Speed=1.404000m/h.</desc>
<speed>0.390000</speed>
</trkpt>
<trkpt lat="44.467598" lon="34.145824">
<ele>275.683838</ele>
<time>2011-10-13T11:47:27Z</time>
<desc>lat.=44.467598, lon.=34.145824, Alt.=275.683838m. Speed=0.792000m/h.</desc>
<speed>0.220000</speed>
</trkpt>
<trkpt lat="44.467587" lon="34.145794">
<ele>274.918213</ele>
<time>2011-10-13T11:47:32Z</time>
<desc>lat.=44.467587, lon.=34.145794, Alt.=274.918213m. Speed=0.648000m/h.</desc>
<speed>0.180000</speed>
</trkpt>
<trkpt lat="44.467602" lon="34.145802">
<ele>274.058838</ele>
<time>2011-10-13T11:47:37Z</time>
<desc>lat.=44.467602, lon.=34.145802, Alt.=274.058838m. Speed=0.756000m/h.</desc>
<speed>0.210000</speed>
</trkpt>
<trkpt lat="44.467609" lon="34.145794">
<ele>273.629150</ele>
<time>2011-10-13T11:47:42Z</time>
<desc>lat.=44.467609, lon.=34.145794, Alt.=273.629150m. Speed=0.396000m/h.</desc>
<speed>0.110000</speed>
</trkpt>
<trkpt lat="44.467636" lon="34.145832">
<ele>273.152588</ele>
<time>2011-10-13T11:47:47Z</time>
<desc>lat.=44.467636, lon.=34.145832, Alt.=273.152588m. Speed=0.576000m/h.</desc>
<speed>0.160000</speed>
</trkpt>
<trkpt lat="44.467651" lon="34.145855">
<ele>272.715088</ele>
<time>2011-10-13T11:47:52Z</time>
<desc>lat.=44.467651, lon.=34.145855, Alt.=272.715088m. Speed=0.504000m/h.</desc>
<speed>0.140000</speed>
</trkpt>
<trkpt lat="44.467640" lon="34.145836">
<ele>272.340088</ele>
<time>2011-10-13T11:47:57Z</time>
<desc>lat.=44.467640, lon.=34.145836, Alt.=272.340088m. Speed=0.396000m/h.</desc>
<speed>0.110000</speed>
</trkpt>
<trkpt lat="44.467636" lon="34.145828">
<ele>272.191650</ele>
<time>2011-10-13T11:48:02Z</time>
<desc>lat.=44.467636, lon.=34.145828, Alt.=272.191650m. Speed=0.216000m/h.</desc>
<speed>0.060000</speed>
</trkpt>
<trkpt lat="44.467602" lon="34.145786">
<ele>272.011963</ele>
<time>2011-10-13T11:48:07Z</time>
<desc>lat.=44.467602, lon.=34.145786, Alt.=272.011963m. Speed=0.288000m/h.</desc>
<speed>0.080000</speed>
</trkpt>
<trkpt lat="44.467606" lon="34.145782">
<ele>271.863525</ele>
<time>2011-10-13T11:48:12Z</time>
<desc>lat.=44.467606, lon.=34.145782, Alt.=271.863525m. Speed=0.216000m/h.</desc>
<speed>0.060000</speed>
</trkpt>
<trkpt lat="44.467590" lon="34.145756">
<ele>271.613525</ele>
<time>2011-10-13T11:48:17Z</time>
<desc>lat.=44.467590, lon.=34.145756, Alt.=271.613525m. Speed=0.180000m/h.</desc>
<speed>0.050000</speed>
</trkpt>
<trkpt lat="44.467552" lon="34.145653">
<ele>271.004150</ele>
<time>2011-10-13T11:48:22Z</time>
<desc>lat.=44.467552, lon.=34.145653, Alt.=271.004150m. Speed=0.612000m/h.</desc>
<speed>0.170000</speed>
</trkpt>
<trkpt lat="44.467529" lon="34.145626">
<ele>271.199463</ele>
<time>2011-10-13T11:48:27Z</time>
<desc>lat.=44.467529, lon.=34.145626, Alt.=271.199463m. Speed=0.756000m/h.</desc>
<speed>0.210000</speed>
</trkpt>
<trkpt lat="44.467506" lon="34.145580">
<ele>271.441650</ele>
<time>2011-10-13T11:48:32Z</time>
<desc>lat.=44.467506, lon.=34.145580, Alt.=271.441650m. Speed=1.044000m/h.</desc>
<speed>0.290000</speed>
</trkpt>
<trkpt lat="44.467499" lon="34.145569">
<ele>271.941650</ele>
<time>2011-10-13T11:48:37Z</time>
<desc>lat.=44.467499, lon.=34.145569, Alt.=271.941650m. Speed=0.612000m/h.</desc>
<speed>0.170000</speed>
</trkpt>
<trkpt lat="44.467476" lon="34.145557">
<ele>272.379150</ele>
<time>2011-10-13T11:48:42Z</time>
<desc>lat.=44.467476, lon.=34.145557, Alt.=272.379150m. Speed=1.404000m/h.</desc>
<speed>0.390000</speed>
</trkpt>
<trkpt lat="44.467442" lon="34.145535">
<ele>272.691650</ele>
<time>2011-10-13T11:48:47Z</time>
<desc>lat.=44.467442, lon.=34.145535, Alt.=272.691650m. Speed=1.368000m/h.</desc>
<speed>0.380000</speed>
</trkpt>
<trkpt lat="44.467426" lon="34.145500">
<ele>273.019775</ele>
<time>2011-10-13T11:48:52Z</time>
<desc>lat.=44.467426, lon.=34.145500, Alt.=273.019775m. Speed=1.116000m/h.</desc>
<speed>0.310000</speed>
</trkpt>
<trkpt lat="44.467396" lon="34.145470">
<ele>273.340088</ele>
<time>2011-10-13T11:48:57Z</time>
<desc>lat.=44.467396, lon.=34.145470, Alt.=273.340088m. Speed=1.152000m/h.</desc>
<speed>0.320000</speed>
</trkpt>
<trkpt lat="44.467354" lon="34.145405">
<ele>273.488525</ele>
<time>2011-10-13T11:49:02Z</time>
<desc>lat.=44.467354, lon.=34.145405, Alt.=273.488525m. Speed=1.836000m/h.</desc>
<speed>0.510000</speed>
</trkpt>
<trkpt lat="44.467335" lon="34.145378">
<ele>273.988525</ele>
<time>2011-10-13T11:49:07Z</time>
<desc>lat.=44.467335, lon.=34.145378, Alt.=273.988525m. Speed=1.332000m/h.</desc>
<speed>0.370000</speed>
</trkpt>
<trkpt lat="44.467319" lon="34.145340">
<ele>274.457275</ele>
<time>2011-10-13T11:49:12Z</time>
<desc>lat.=44.467319, lon.=34.145340, Alt.=274.457275m. Speed=1.152000m/h.</desc>
<speed>0.320000</speed>
</trkpt>
<trkpt lat="44.467266" lon="34.145336">
<ele>274.957275</ele>
<time>2011-10-13T11:49:17Z</time>
<desc>lat.=44.467266, lon.=34.145336, Alt.=274.957275m. Speed=1.440000m/h.</desc>
<speed>0.400000</speed>
</trkpt>
<trkpt lat="44.467262" lon="34.145309">
<ele>275.551025</ele>
<time>2011-10-13T11:49:22Z</time>
<desc>lat.=44.467262, lon.=34.145309, Alt.=275.551025m. Speed=1.152000m/h.</desc>
<speed>0.320000</speed>
</trkpt>
<trkpt lat="44.467247" lon="34.145264">
<ele>276.066650</ele>
<time>2011-10-13T11:49:27Z</time>
<desc>lat.=44.467247, lon.=34.145264, Alt.=276.066650m. Speed=1.296000m/h.</desc>
<speed>0.360000</speed>
</trkpt>
<trkpt lat="44.467209" lon="34.145226">
<ele>276.535400</ele>
<time>2011-10-13T11:49:32Z</time>
<desc>lat.=44.467209, lon.=34.145226, Alt.=276.535400m. Speed=1.476000m/h.</desc>
<speed>0.410000</speed>
</trkpt>
<trkpt lat="44.467564" lon="34.145519">
<ele>279.535400</ele>
<time>2011-10-13T11:49:38Z</time>
<desc>lat.=44.467564, lon.=34.145519, Alt.=279.535400m. Speed=0.288000m/h.</desc>
<speed>0.080000</speed>
</trkpt>
<trkpt lat="44.467594" lon="34.145500">
<ele>271.761963</ele>
<time>2011-10-13T11:49:43Z</time>
<desc>lat.=44.467594, lon.=34.145500, Alt.=271.761963m. Speed=0.180000m/h.</desc>
<speed>0.050000</speed>
</trkpt>
<trkpt lat="44.467598" lon="34.145489">
<ele>271.519775</ele>
<time>2011-10-13T11:49:48Z</time>
<desc>lat.=44.467598, lon.=34.145489, Alt.=271.519775m. Speed=0.324000m/h.</desc>
<speed>0.090000</speed>
</trkpt>
<trkpt lat="44.467602" lon="34.145485">
<ele>271.379150</ele>
<time>2011-10-13T11:49:53Z</time>
<desc>lat.=44.467602, lon.=34.145485, Alt.=271.379150m. Speed=0.396000m/h.</desc>
<speed>0.110000</speed>
</trkpt>
<trkpt lat="44.467606" lon="34.145481">
<ele>271.230713</ele>
<time>2011-10-13T11:49:58Z</time>
<desc>lat.=44.467606, lon.=34.145481, Alt.=271.230713m. Speed=0.288000m/h.</desc>
<speed>0.080000</speed>
</trkpt>
<trkpt lat="44.467609" lon="34.145477">
<ele>271.129150</ele>
<time>2011-10-13T11:50:03Z</time>
<desc>lat.=44.467609, lon.=34.145477, Alt.=271.129150m. Speed=0.252000m/h.</desc>
<speed>0.070000</speed>
</trkpt>
<trkpt lat="44.467613" lon="34.145477">
<ele>271.011963</ele>
<time>2011-10-13T11:50:08Z</time>
<desc>lat.=44.467613, lon.=34.145477, Alt.=271.011963m. Speed=0.144000m/h.</desc>
<speed>0.040000</speed>
</trkpt>
<trkpt lat="44.467609" lon="34.145477">
<ele>270.855713</ele>
<time>2011-10-13T11:50:13Z</time>
<desc>lat.=44.467609, lon.=34.145477, Alt.=270.855713m. Speed=1.152000m/h.</desc>
<speed>0.320000</speed>
</trkpt>
<trkpt lat="44.467587" lon="34.145500">
<ele>267.277588</ele>
<time>2011-10-13T11:50:18Z</time>
<desc>lat.=44.467587, lon.=34.145500, Alt.=267.277588m. Speed=1.908000m/h.</desc>
<speed>0.530000</speed>
</trkpt>
<trkpt lat="44.467575" lon="34.145519">
<ele>263.816650</ele>
<time>2011-10-13T11:50:23Z</time>
<desc>lat.=44.467575, lon.=34.145519, Alt.=263.816650m. Speed=1.440000m/h.</desc>
<speed>0.400000</speed>
</trkpt>
<trkpt lat="44.467541" lon="34.145592">
<ele>259.597900</ele>
<time>2011-10-13T11:50:28Z</time>
<desc>lat.=44.467541, lon.=34.145592, Alt.=259.597900m. Speed=1.188000m/h.</desc>
<speed>0.330000</speed>
</trkpt>
<trkpt lat="44.467537" lon="34.145596">
<ele>258.472900</ele>
<time>2011-10-13T11:50:33Z</time>
<desc>lat.=44.467537, lon.=34.145596, Alt.=258.472900m. Speed=0.648000m/h.</desc>
<speed>0.180000</speed>
</trkpt>
<trkpt lat="44.467518" lon="34.145569">
<ele>258.129150</ele>
<time>2011-10-13T11:50:38Z</time>
<desc>lat.=44.467518, lon.=34.145569, Alt.=258.129150m. Speed=0.540000m/h.</desc>
<speed>0.150000</speed>
</trkpt>
<trkpt lat="44.467472" lon="34.145531">
<ele>257.097900</ele>
<time>2011-10-13T11:50:43Z</time>
<desc>lat.=44.467472, lon.=34.145531, Alt.=257.097900m. Speed=0.864000m/h.</desc>
<speed>0.240000</speed>
</trkpt>
<trkpt lat="44.467434" lon="34.145508">
<ele>255.123169</ele>
<time>2011-10-13T11:50:48Z</time>
<desc>lat.=44.467434, lon.=34.145508, Alt.=255.123169m. Speed=0.900000m/h.</desc>
<speed>0.250000</speed>
</trkpt>
<trkpt lat="44.467422" lon="34.145481">
<ele>254.330200</ele>
<time>2011-10-13T11:50:53Z</time>
<desc>lat.=44.467422, lon.=34.145481, Alt.=254.330200m. Speed=0.828000m/h.</desc>
<speed>0.230000</speed>
</trkpt>
<trkpt lat="44.467407" lon="34.145504">
<ele>253.630981</ele>
<time>2011-10-13T11:50:58Z</time>
<desc>lat.=44.467407, lon.=34.145504, Alt.=253.630981m. Speed=0.972000m/h.</desc>
<speed>0.270000</speed>
</trkpt>
<trkpt lat="44.467400" lon="34.145531">
<ele>253.361450</ele>
<time>2011-10-13T11:51:03Z</time>
<desc>lat.=44.467400, lon.=34.145531, Alt.=253.361450m. Speed=1.512000m/h.</desc>
<speed>0.420000</speed>
</trkpt>
<trkpt lat="44.467365" lon="34.145512">
<ele>253.345825</ele>
<time>2011-10-13T11:51:08Z</time>
<desc>lat.=44.467365, lon.=34.145512, Alt.=253.345825m. Speed=3.096000m/h.</desc>
<speed>0.860000</speed>
</trkpt>
<trkpt lat="44.467251" lon="34.145485">
<ele>253.908325</ele>
<time>2011-10-13T11:51:13Z</time>
<desc>lat.=44.467251, lon.=34.145485, Alt.=253.908325m. Speed=9.756000m/h.</desc>
<speed>2.710000</speed>
</trkpt>
<trkpt lat="44.467178" lon="34.145359">
<ele>254.279419</ele>
<time>2011-10-13T11:51:18Z</time>
<desc>lat.=44.467178, lon.=34.145359, Alt.=254.279419m. Speed=7.596000m/h.</desc>
<speed>2.110000</speed>
</trkpt>
<trkpt lat="44.467072" lon="34.145294">
<ele>256.957275</ele>
<time>2011-10-13T11:51:23Z</time>
<desc>lat.=44.467072, lon.=34.145294, Alt.=256.957275m. Speed=8.928000m/h.</desc>
<speed>2.480000</speed>
</trkpt>
<trkpt lat="44.466991" lon="34.145199">
<ele>259.855713</ele>
<time>2011-10-13T11:51:28Z</time>
<desc>lat.=44.466991, lon.=34.145199, Alt.=259.855713m. Speed=2.196000m/h.</desc>
<speed>0.610000</speed>
</trkpt>
<trkpt lat="44.466972" lon="34.145077">
<ele>257.769775</ele>
<time>2011-10-13T11:51:33Z</time>
<desc>lat.=44.466972, lon.=34.145077, Alt.=257.769775m. Speed=0.684000m/h.</desc>
<speed>0.190000</speed>
</trkpt>
<trkpt lat="44.466930" lon="34.145065">
<ele>256.215088</ele>
<time>2011-10-13T11:51:38Z</time>
<desc>lat.=44.466930, lon.=34.145065, Alt.=256.215088m. Speed=2.016000m/h.</desc>
<speed>0.560000</speed>
</trkpt>
<trkpt lat="44.466843" lon="34.145023">
<ele>255.759888</ele>
<time>2011-10-13T11:51:43Z</time>
<desc>lat.=44.466843, lon.=34.145023, Alt.=255.759888m. Speed=1.008000m/h.</desc>
<speed>0.280000</speed>
</trkpt>
<trkpt lat="44.466805" lon="34.144997">
<ele>254.752075</ele>
<time>2011-10-13T11:51:48Z</time>
<desc>lat.=44.466805, lon.=34.144997, Alt.=254.752075m. Speed=0.828000m/h.</desc>
<speed>0.230000</speed>
</trkpt>
<trkpt lat="44.466732" lon="34.144962">
<ele>253.357544</ele>
<time>2011-10-13T11:51:53Z</time>
<desc>lat.=44.466732, lon.=34.144962, Alt.=253.357544m. Speed=1.260000m/h.</desc>
<speed>0.350000</speed>
</trkpt>
<trkpt lat="44.466705" lon="34.144848">
<ele>251.791138</ele>
<time>2011-10-13T11:51:58Z</time>
<desc>lat.=44.466705, lon.=34.144848, Alt.=251.791138m. Speed=3.780000m/h.</desc>
<speed>1.050000</speed>
</trkpt>
<trkpt lat="44.466690" lon="34.144829">
<ele>250.353638</ele>
<time>2011-10-13T11:52:03Z</time>
<desc>lat.=44.466690, lon.=34.144829, Alt.=250.353638m. Speed=1.692000m/h.</desc>
<speed>0.470000</speed>
</trkpt>
<trkpt lat="44.466682" lon="34.144810">
<ele>249.709106</ele>
<time>2011-10-13T11:52:08Z</time>
<desc>lat.=44.466682, lon.=34.144810, Alt.=249.709106m. Speed=1.512000m/h.</desc>
<speed>0.420000</speed>
</trkpt>
<trkpt lat="44.466637" lon="34.144802">
<ele>249.666138</ele>
<time>2011-10-13T11:52:13Z</time>
<desc>lat.=44.466637, lon.=34.144802, Alt.=249.666138m. Speed=3.888000m/h.</desc>
<speed>1.080000</speed>
</trkpt>
<trkpt lat="44.466545" lon="34.144783">
<ele>250.134888</ele>
<time>2011-10-13T11:52:18Z</time>
<desc>lat.=44.466545, lon.=34.144783, Alt.=250.134888m. Speed=6.660000m/h.</desc>
<speed>1.850000</speed>
</trkpt>
<trkpt lat="44.466469" lon="34.144691">
<ele>250.662231</ele>
<time>2011-10-13T11:52:23Z</time>
<desc>lat.=44.466469, lon.=34.144691, Alt.=250.662231m. Speed=6.120000m/h.</desc>
<speed>1.700000</speed>
</trkpt>
<trkpt lat="44.466381" lon="34.144600">
<ele>250.904419</ele>
<time>2011-10-13T11:52:28Z</time>
<desc>lat.=44.466381, lon.=34.144600, Alt.=250.904419m. Speed=4.788000m/h.</desc>
<speed>1.330000</speed>
</trkpt>
<trkpt lat="44.466263" lon="34.144516">
<ele>253.388794</ele>
<time>2011-10-13T11:52:33Z</time>
<desc>lat.=44.466263, lon.=34.144516, Alt.=253.388794m. Speed=10.692000m/h.</desc>
<speed>2.970000</speed>
</trkpt>
<trkpt lat="44.466125" lon="34.144436">
<ele>256.629150</ele>
<time>2011-10-13T11:52:38Z</time>
<desc>lat.=44.466125, lon.=34.144436, Alt.=256.629150m. Speed=7.416000m/h.</desc>
<speed>2.060000</speed>
</trkpt>
<trkpt lat="44.466106" lon="34.144276">
<ele>258.941650</ele>
<time>2011-10-13T11:52:43Z</time>
<desc>lat.=44.466106, lon.=34.144276, Alt.=258.941650m. Speed=2.340000m/h.</desc>
<speed>0.650000</speed>
</trkpt>
<trkpt lat="44.466122" lon="34.144218">
<ele>260.043213</ele>
<time>2011-10-13T11:52:48Z</time>
<desc>lat.=44.466122, lon.=34.144218, Alt.=260.043213m. Speed=7.092000m/h.</desc>
<speed>1.970000</speed>
</trkpt>
<trkpt lat="44.466095" lon="34.144138">
<ele>263.754150</ele>
<time>2011-10-13T11:52:53Z</time>
<desc>lat.=44.466095, lon.=34.144138, Alt.=263.754150m. Speed=5.832000m/h.</desc>
<speed>1.620000</speed>
</trkpt>
<trkpt lat="44.466084" lon="34.143913">
<ele>264.207275</ele>
<time>2011-10-13T11:52:58Z</time>
<desc>lat.=44.466084, lon.=34.143913, Alt.=264.207275m. Speed=5.616000m/h.</desc>
<speed>1.560000</speed>
</trkpt>
<trkpt lat="44.465981" lon="34.143627">
<ele>266.551025</ele>
<time>2011-10-13T11:53:03Z</time>
<desc>lat.=44.465981, lon.=34.143627, Alt.=266.551025m. Speed=7.488000m/h.</desc>
<speed>2.080000</speed>
</trkpt>
<trkpt lat="44.465889" lon="34.143406">
<ele>269.363525</ele>
<time>2011-10-13T11:53:08Z</time>
<desc>lat.=44.465889, lon.=34.143406, Alt.=269.363525m. Speed=11.052000m/h.</desc>
<speed>3.070000</speed>
</trkpt>
<trkpt lat="44.465775" lon="34.143150">
<ele>271.988525</ele>
<time>2011-10-13T11:53:13Z</time>
<desc>lat.=44.465775, lon.=34.143150, Alt.=271.988525m. Speed=19.080000m/h.</desc>
<speed>5.300000</speed>
</trkpt>
<trkpt lat="44.465698" lon="34.142830">
<ele>275.504150</ele>
<time>2011-10-13T11:53:18Z</time>
<desc>lat.=44.465698, lon.=34.142830, Alt.=275.504150m. Speed=8.676000m/h.</desc>
<speed>2.410000</speed>
</trkpt>
<trkpt lat="44.465702" lon="34.142487">
<ele>278.941650</ele>
<time>2011-10-13T11:53:23Z</time>
<desc>lat.=44.465702, lon.=34.142487, Alt.=278.941650m. Speed=10.296000m/h.</desc>
<speed>2.860000</speed>
</trkpt>
<trkpt lat="44.465710" lon="34.142139">
<ele>282.996338</ele>
<time>2011-10-13T11:53:28Z</time>
<desc>lat.=44.465710, lon.=34.142139, Alt.=282.996338m. Speed=5.364000m/h.</desc>
<speed>1.490000</speed>
</trkpt>
<trkpt lat="44.465736" lon="34.141968">
<ele>288.801025</ele>
<time>2011-10-13T11:53:33Z</time>
<desc>lat.=44.465736, lon.=34.141968, Alt.=288.801025m. Speed=4.320000m/h.</desc>
<speed>1.200000</speed>
</trkpt>
<trkpt lat="44.465744" lon="34.141808">
<ele>294.605713</ele>
<time>2011-10-13T11:53:38Z</time>
<desc>lat.=44.465744, lon.=34.141808, Alt.=294.605713m. Speed=5.832000m/h.</desc>
<speed>1.620000</speed>
</trkpt>
<trkpt lat="44.465683" lon="34.141514">
<ele>298.371338</ele>
<time>2011-10-13T11:53:43Z</time>
<desc>lat.=44.465683, lon.=34.141514, Alt.=298.371338m. Speed=9.828000m/h.</desc>
<speed>2.730000</speed>
</trkpt>
<trkpt lat="44.465710" lon="34.141396">
<ele>302.957275</ele>
<time>2011-10-13T11:53:48Z</time>
<desc>lat.=44.465710, lon.=34.141396, Alt.=302.957275m. Speed=9.036000m/h.</desc>
<speed>2.510000</speed>
</trkpt>
<trkpt lat="44.465740" lon="34.141510">
<ele>306.855713</ele>
<time>2011-10-13T11:53:53Z</time>
<desc>lat.=44.465740, lon.=34.141510, Alt.=306.855713m. Speed=16.056000m/h.</desc>
<speed>4.460000</speed>
</trkpt>
<trkpt lat="44.465782" lon="34.141586">
<ele>312.347900</ele>
<time>2011-10-13T11:53:58Z</time>
<desc>lat.=44.465782, lon.=34.141586, Alt.=312.347900m. Speed=13.464000m/h.</desc>
<speed>3.740000</speed>
</trkpt>
<trkpt lat="44.465572" lon="34.141865">
<ele>316.777588</ele>
<time>2011-10-13T11:54:03Z</time>
<desc>lat.=44.465572, lon.=34.141865, Alt.=316.777588m. Speed=9.180000m/h.</desc>
<speed>2.550000</speed>
</trkpt>
<trkpt lat="44.463604" lon="34.143719">
<ele>319.129150</ele>
<time>2011-10-13T11:54:08Z</time>
<desc>lat.=44.463604, lon.=34.143719, Alt.=319.129150m. Speed=10.476000m/h.</desc>
<speed>2.910000</speed>
</trkpt>
<trkpt lat="44.463650" lon="34.144016">
<ele>323.285400</ele>
<time>2011-10-13T11:54:13Z</time>
<desc>lat.=44.463650, lon.=34.144016, Alt.=323.285400m. Speed=5.004000m/h.</desc>
<speed>1.390000</speed>
</trkpt>
<trkpt lat="44.463703" lon="34.144218">
<ele>328.129150</ele>
<time>2011-10-13T11:54:18Z</time>
<desc>lat.=44.463703, lon.=34.144218, Alt.=328.129150m. Speed=9.468000m/h.</desc>
<speed>2.630000</speed>
</trkpt>
<trkpt lat="44.463680" lon="34.144581">
<ele>332.277588</ele>
<time>2011-10-13T11:54:23Z</time>
<desc>lat.=44.463680, lon.=34.144581, Alt.=332.277588m. Speed=12.456000m/h.</desc>
<speed>3.460000</speed>
</trkpt>
<trkpt lat="44.463737" lon="34.144794">
<ele>336.715088</ele>
<time>2011-10-13T11:54:28Z</time>
<desc>lat.=44.463737, lon.=34.144794, Alt.=336.715088m. Speed=11.556000m/h.</desc>
<speed>3.210000</speed>
</trkpt>
<trkpt lat="44.463749" lon="34.145050">
<ele>341.144775</ele>
<time>2011-10-13T11:54:33Z</time>
<desc>lat.=44.463749, lon.=34.145050, Alt.=341.144775m. Speed=6.084000m/h.</desc>
<speed>1.690000</speed>
</trkpt>
<trkpt lat="44.463745" lon="34.145195">
<ele>344.527588</ele>
<time>2011-10-13T11:54:38Z</time>
<desc>lat.=44.463745, lon.=34.145195, Alt.=344.527588m. Speed=7.704000m/h.</desc>
<speed>2.140000</speed>
</trkpt>
<trkpt lat="44.463768" lon="34.145340">
<ele>348.199463</ele>
<time>2011-10-13T11:54:43Z</time>
<desc>lat.=44.463768, lon.=34.145340, Alt.=348.199463m. Speed=11.808000m/h.</desc>
<speed>3.280000</speed>
</trkpt>
<trkpt lat="44.463661" lon="34.145611">
<ele>350.746338</ele>
<time>2011-10-13T11:54:48Z</time>
<desc>lat.=44.463661, lon.=34.145611, Alt.=350.746338m. Speed=0.252000m/h.</desc>
<speed>0.070000</speed>
</trkpt>
<trkpt lat="44.463657" lon="34.145626">
<ele>351.394775</ele>
<time>2011-10-13T11:54:53Z</time>
<desc>lat.=44.463657, lon.=34.145626, Alt.=351.394775m. Speed=0.036000m/h.</desc>
<speed>0.010000</speed>
</trkpt>
<trkpt lat="44.463634" lon="34.145706">
<ele>351.144775</ele>
<time>2011-10-13T11:54:58Z</time>
<desc>lat.=44.463634, lon.=34.145706, Alt.=351.144775m. Speed=0.864000m/h.</desc>
<speed>0.240000</speed>
</trkpt>
<trkpt lat="44.463570" lon="34.145836">
<ele>349.847900</ele>
<time>2011-10-13T11:55:03Z</time>
<desc>lat.=44.463570, lon.=34.145836, Alt.=349.847900m. Speed=0.648000m/h.</desc>
<speed>0.180000</speed>
</trkpt>
<trkpt lat="44.463593" lon="34.145950">
<ele>347.222900</ele>
<time>2011-10-13T11:55:08Z</time>
<desc>lat.=44.463593, lon.=34.145950, Alt.=347.222900m. Speed=0.180000m/h.</desc>
<speed>0.050000</speed>
</trkpt>
<trkpt lat="44.463604" lon="34.146046">
<ele>344.308838</ele>
<time>2011-10-13T11:55:13Z</time>
<desc>lat.=44.463604, lon.=34.146046, Alt.=344.308838m. Speed=0.180000m/h.</desc>
<speed>0.050000</speed>
</trkpt>
<trkpt lat="44.463604" lon="34.146221">
<ele>341.636963</ele>
<time>2011-10-13T11:55:18Z</time>
<desc>lat.=44.463604, lon.=34.146221, Alt.=341.636963m. Speed=0.324000m/h.</desc>
<speed>0.090000</speed>
</trkpt>
<trkpt lat="44.463657" lon="34.146374">
<ele>338.551025</ele>
<time>2011-10-13T11:55:23Z</time>
<desc>lat.=44.463657, lon.=34.146374, Alt.=338.551025m. Speed=2.916000m/h.</desc>
<speed>0.810000</speed>
</trkpt>
<trkpt lat="44.463688" lon="34.146446">
<ele>337.894775</ele>
<time>2011-10-13T11:55:28Z</time>
<desc>lat.=44.463688, lon.=34.146446, Alt.=337.894775m. Speed=1.980000m/h.</desc>
<speed>0.550000</speed>
</trkpt>
<trkpt lat="44.463730" lon="34.146515">
<ele>336.980713</ele>
<time>2011-10-13T11:55:33Z</time>
<desc>lat.=44.463730, lon.=34.146515, Alt.=336.980713m. Speed=1.620000m/h.</desc>
<speed>0.450000</speed>
</trkpt>
<trkpt lat="44.463726" lon="34.146519">
<ele>336.769775</ele>
<time>2011-10-13T11:55:38Z</time>
<desc>lat.=44.463726, lon.=34.146519, Alt.=336.769775m. Speed=0.900000m/h.</desc>
<speed>0.250000</speed>
</trkpt>
<trkpt lat="44.463699" lon="34.146610">
<ele>336.066650</ele>
<time>2011-10-13T11:55:43Z</time>
<desc>lat.=44.463699, lon.=34.146610, Alt.=336.066650m. Speed=1.296000m/h.</desc>
<speed>0.360000</speed>
</trkpt>
<trkpt lat="44.463703" lon="34.146664">
<ele>335.793213</ele>
<time>2011-10-13T11:55:48Z</time>
<desc>lat.=44.463703, lon.=34.146664, Alt.=335.793213m. Speed=2.484000m/h.</desc>
<speed>0.690000</speed>
</trkpt>
<trkpt lat="44.463737" lon="34.146645">
<ele>335.980713</ele>
<time>2011-10-13T11:55:53Z</time>
<desc>lat.=44.463737, lon.=34.146645, Alt.=335.980713m. Speed=2.124000m/h.</desc>
<speed>0.590000</speed>
</trkpt>
<trkpt lat="44.463779" lon="34.146664">
<ele>336.402588</ele>
<time>2011-10-13T11:55:58Z</time>
<desc>lat.=44.463779, lon.=34.146664, Alt.=336.402588m. Speed=1.836000m/h.</desc>
<speed>0.510000</speed>
</trkpt>
<trkpt lat="44.463818" lon="34.146744">
<ele>337.019775</ele>
<time>2011-10-13T11:56:03Z</time>
<desc>lat.=44.463818, lon.=34.146744, Alt.=337.019775m. Speed=2.376000m/h.</desc>
<speed>0.660000</speed>
</trkpt>
<trkpt lat="44.463856" lon="34.146851">
<ele>337.918213</ele>
<time>2011-10-13T11:56:08Z</time>
<desc>lat.=44.463856, lon.=34.146851, Alt.=337.918213m. Speed=2.196000m/h.</desc>
<speed>0.610000</speed>
</trkpt>
<trkpt lat="44.463924" lon="34.146927">
<ele>338.527588</ele>
<time>2011-10-13T11:56:13Z</time>
<desc>lat.=44.463924, lon.=34.146927, Alt.=338.527588m. Speed=3.276000m/h.</desc>
<speed>0.910000</speed>
</trkpt>
<trkpt lat="44.464012" lon="34.147060">
<ele>339.254150</ele>
<time>2011-10-13T11:56:18Z</time>
<desc>lat.=44.464012, lon.=34.147060, Alt.=339.254150m. Speed=6.048000m/h.</desc>
<speed>1.680000</speed>
</trkpt>
<trkpt lat="44.464100" lon="34.147003">
<ele>340.129150</ele>
<time>2011-10-13T11:56:23Z</time>
<desc>lat.=44.464100, lon.=34.147003, Alt.=340.129150m. Speed=7.632000m/h.</desc>
<speed>2.120000</speed>
</trkpt>
<trkpt lat="44.464169" lon="34.147392">
<ele>337.277588</ele>
<time>2011-10-13T11:56:28Z</time>
<desc>lat.=44.464169, lon.=34.147392, Alt.=337.277588m. Speed=13.788000m/h.</desc>
<speed>3.830000</speed>
</trkpt>
<trkpt lat="44.464226" lon="34.147644">
<ele>338.527588</ele>
<time>2011-10-13T11:56:33Z</time>
<desc>lat.=44.464226, lon.=34.147644, Alt.=338.527588m. Speed=3.816000m/h.</desc>
<speed>1.060000</speed>
</trkpt>
<trkpt lat="44.464306" lon="34.147980">
<ele>336.269775</ele>
<time>2011-10-13T11:56:38Z</time>
<desc>lat.=44.464306, lon.=34.147980, Alt.=336.269775m. Speed=0.972000m/h.</desc>
<speed>0.270000</speed>
</trkpt>
<trkpt lat="44.464439" lon="34.148151">
<ele>331.894775</ele>
<time>2011-10-13T11:56:43Z</time>
<desc>lat.=44.464439, lon.=34.148151, Alt.=331.894775m. Speed=0.576000m/h.</desc>
<speed>0.160000</speed>
</trkpt>
<trkpt lat="44.464497" lon="34.148338">
<ele>328.129150</ele>
<time>2011-10-13T11:56:48Z</time>
<desc>lat.=44.464497, lon.=34.148338, Alt.=328.129150m. Speed=0.504000m/h.</desc>
<speed>0.140000</speed>
</trkpt>
<trkpt lat="44.464516" lon="34.148403">
<ele>326.543213</ele>
<time>2011-10-13T11:56:53Z</time>
<desc>lat.=44.464516, lon.=34.148403, Alt.=326.543213m. Speed=0.180000m/h.</desc>
<speed>0.050000</speed>
</trkpt>
<trkpt lat="44.464581" lon="34.148491">
<ele>322.097900</ele>
<time>2011-10-13T11:56:58Z</time>
<desc>lat.=44.464581, lon.=34.148491, Alt.=322.097900m. Speed=0.432000m/h.</desc>
<speed>0.120000</speed>
</trkpt>
<trkpt lat="44.464630" lon="34.148533">
<ele>320.066650</ele>
<time>2011-10-13T11:57:03Z</time>
<desc>lat.=44.464630, lon.=34.148533, Alt.=320.066650m. Speed=0.468000m/h.</desc>
<speed>0.130000</speed>
</trkpt>
<trkpt lat="44.464695" lon="34.148628">
<ele>316.847900</ele>
<time>2011-10-13T11:57:08Z</time>
<desc>lat.=44.464695, lon.=34.148628, Alt.=316.847900m. Speed=0.360000m/h.</desc>
<speed>0.100000</speed>
</trkpt>
<trkpt lat="44.464714" lon="34.148705">
<ele>315.504150</ele>
<time>2011-10-13T11:57:13Z</time>
<desc>lat.=44.464714, lon.=34.148705, Alt.=315.504150m. Speed=0.504000m/h.</desc>
<speed>0.140000</speed>
</trkpt>
<trkpt lat="44.464722" lon="34.148712">
<ele>315.441650</ele>
<time>2011-10-13T11:57:18Z</time>
<desc>lat.=44.464722, lon.=34.148712, Alt.=315.441650m. Speed=0.324000m/h.</desc>
<speed>0.090000</speed>
</trkpt>
<trkpt lat="44.464722" lon="34.148716">
<ele>315.394775</ele>
<time>2011-10-13T11:57:23Z</time>
<desc>lat.=44.464722, lon.=34.148716, Alt.=315.394775m. Speed=0.216000m/h.</desc>
<speed>0.060000</speed>
</trkpt>
<trkpt lat="44.464741" lon="34.148731">
<ele>315.340088</ele>
<time>2011-10-13T11:57:29Z</time>
<desc>lat.=44.464741, lon.=34.148731, Alt.=315.340088m. Speed=0.936000m/h.</desc>
<speed>0.260000</speed>
</trkpt>
<trkpt lat="44.464756" lon="34.148670">
<ele>313.605713</ele>
<time>2011-10-13T11:57:36Z</time>
<desc>lat.=44.464756, lon.=34.148670, Alt.=313.605713m. Speed=0.720000m/h.</desc>
<speed>0.200000</speed>
</trkpt>
<trkpt lat="44.464748" lon="34.148674">
<ele>313.199463</ele>
<time>2011-10-13T11:57:41Z</time>
<desc>lat.=44.464748, lon.=34.148674, Alt.=313.199463m. Speed=1.800000m/h.</desc>
<speed>0.500000</speed>
</trkpt>
<trkpt lat="44.464729" lon="34.148666">
<ele>313.902588</ele>
<time>2011-10-13T11:57:46Z</time>
<desc>lat.=44.464729, lon.=34.148666, Alt.=313.902588m. Speed=1.656000m/h.</desc>
<speed>0.460000</speed>
</trkpt>
<trkpt lat="44.464699" lon="34.148670">
<ele>314.855713</ele>
<time>2011-10-13T11:57:51Z</time>
<desc>lat.=44.464699, lon.=34.148670, Alt.=314.855713m. Speed=3.528000m/h.</desc>
<speed>0.980000</speed>
</trkpt>
<trkpt lat="44.464672" lon="34.148663">
<ele>315.918213</ele>
<time>2011-10-13T11:57:56Z</time>
<desc>lat.=44.464672, lon.=34.148663, Alt.=315.918213m. Speed=2.412000m/h.</desc>
<speed>0.670000</speed>
</trkpt>
<trkpt lat="44.464695" lon="34.148598">
<ele>315.027588</ele>
<time>2011-10-13T11:58:01Z</time>
<desc>lat.=44.464695, lon.=34.148598, Alt.=315.027588m. Speed=3.636000m/h.</desc>
<speed>1.010000</speed>
</trkpt>
<trkpt lat="44.464901" lon="34.148842">
<ele>309.316650</ele>
<time>2011-10-13T11:58:06Z</time>
<desc>lat.=44.464901, lon.=34.148842, Alt.=309.316650m. Speed=3.888000m/h.</desc>
<speed>1.080000</speed>
</trkpt>
<trkpt lat="44.464893" lon="34.148979">
<ele>307.355713</ele>
<time>2011-10-13T11:58:11Z</time>
<desc>lat.=44.464893, lon.=34.148979, Alt.=307.355713m. Speed=2.340000m/h.</desc>
<speed>0.650000</speed>
</trkpt>
<trkpt lat="44.464954" lon="34.148972">
<ele>308.301025</ele>
<time>2011-10-13T11:58:16Z</time>
<desc>lat.=44.464954, lon.=34.148972, Alt.=308.301025m. Speed=1.476000m/h.</desc>
<speed>0.410000</speed>
</trkpt>
<trkpt lat="44.464924" lon="34.149002">
<ele>308.871338</ele>
<time>2011-10-13T11:58:21Z</time>
<desc>lat.=44.464924, lon.=34.149002, Alt.=308.871338m. Speed=1.044000m/h.</desc>
<speed>0.290000</speed>
</trkpt>
<trkpt lat="44.464924" lon="34.149002">
<ele>308.949463</ele>
<time>2011-10-13T11:58:26Z</time>
<desc>lat.=44.464924, lon.=34.149002, Alt.=308.949463m. Speed=0.036000m/h.</desc>
<speed>0.010000</speed>
</trkpt>
<trkpt lat="44.464886" lon="34.149006">
<ele>309.035400</ele>
<time>2011-10-13T11:58:31Z</time>
<desc>lat.=44.464886, lon.=34.149006, Alt.=309.035400m. Speed=1.152000m/h.</desc>
<speed>0.320000</speed>
</trkpt>
<trkpt lat="44.464867" lon="34.148983">
<ele>306.996338</ele>
<time>2011-10-13T11:58:36Z</time>
<desc>lat.=44.464867, lon.=34.148983, Alt.=306.996338m. Speed=1.224000m/h.</desc>
<speed>0.340000</speed>
</trkpt>
<trkpt lat="44.464825" lon="34.148869">
<ele>298.027588</ele>
<time>2011-10-13T11:58:41Z</time>
<desc>lat.=44.464825, lon.=34.148869, Alt.=298.027588m. Speed=2.988000m/h.</desc>
<speed>0.830000</speed>
</trkpt>
<trkpt lat="44.464779" lon="34.148849">
<ele>298.004150</ele>
<time>2011-10-13T11:58:46Z</time>
<desc>lat.=44.464779, lon.=34.148849, Alt.=298.004150m. Speed=2.700000m/h.</desc>
<speed>0.750000</speed>
</trkpt>
<trkpt lat="44.464706" lon="34.148849">
<ele>297.394775</ele>
<time>2011-10-13T11:58:51Z</time>
<desc>lat.=44.464706, lon.=34.148849, Alt.=297.394775m. Speed=1.224000m/h.</desc>
<speed>0.340000</speed>
</trkpt>
<trkpt lat="44.464622" lon="34.148861">
<ele>295.676025</ele>
<time>2011-10-13T11:58:56Z</time>
<desc>lat.=44.464622, lon.=34.148861, Alt.=295.676025m. Speed=1.440000m/h.</desc>
<speed>0.400000</speed>
</trkpt>
<trkpt lat="44.464615" lon="34.148766">
<ele>297.535400</ele>
<time>2011-10-13T11:59:01Z</time>
<desc>lat.=44.464615, lon.=34.148766, Alt.=297.535400m. Speed=1.908000m/h.</desc>
<speed>0.530000</speed>
</trkpt>
<trkpt lat="44.464607" lon="34.148766">
<ele>299.551025</ele>
<time>2011-10-13T11:59:06Z</time>
<desc>lat.=44.464607, lon.=34.148766, Alt.=299.551025m. Speed=0.468000m/h.</desc>
<speed>0.130000</speed>
</trkpt>
<trkpt lat="44.464607" lon="34.148762">
<ele>299.535400</ele>
<time>2011-10-13T11:59:11Z</time>
<desc>lat.=44.464607, lon.=34.148762, Alt.=299.535400m. Speed=0.216000m/h.</desc>
<speed>0.060000</speed>
</trkpt>
<trkpt lat="44.464600" lon="34.148785">
<ele>301.636963</ele>
<time>2011-10-13T11:59:16Z</time>
<desc>lat.=44.464600, lon.=34.148785, Alt.=301.636963m. Speed=1.404000m/h.</desc>
<speed>0.390000</speed>
</trkpt>
<trkpt lat="44.464626" lon="34.148762">
<ele>302.847900</ele>
<time>2011-10-13T11:59:21Z</time>
<desc>lat.=44.464626, lon.=34.148762, Alt.=302.847900m. Speed=2.880000m/h.</desc>
<speed>0.800000</speed>
</trkpt>
<trkpt lat="44.464657" lon="34.148712">
<ele>302.160400</ele>
<time>2011-10-13T11:59:26Z</time>
<desc>lat.=44.464657, lon.=34.148712, Alt.=302.160400m. Speed=2.880000m/h.</desc>
<speed>0.800000</speed>
</trkpt>
<trkpt lat="44.464680" lon="34.148674">
<ele>301.761963</ele>
<time>2011-10-13T11:59:31Z</time>
<desc>lat.=44.464680, lon.=34.148674, Alt.=301.761963m. Speed=1.800000m/h.</desc>
<speed>0.500000</speed>
</trkpt>
<trkpt lat="44.464714" lon="34.148624">
<ele>301.371338</ele>
<time>2011-10-13T11:59:36Z</time>
<desc>lat.=44.464714, lon.=34.148624, Alt.=301.371338m. Speed=2.196000m/h.</desc>
<speed>0.610000</speed>
</trkpt>
<trkpt lat="44.464725" lon="34.148590">
<ele>301.426025</ele>
<time>2011-10-13T11:59:41Z</time>
<desc>lat.=44.464725, lon.=34.148590, Alt.=301.426025m. Speed=1.548000m/h.</desc>
<speed>0.430000</speed>
</trkpt>
<trkpt lat="44.464752" lon="34.148510">
<ele>301.605713</ele>
<time>2011-10-13T11:59:46Z</time>
<desc>lat.=44.464752, lon.=34.148510, Alt.=301.605713m. Speed=2.628000m/h.</desc>
<speed>0.730000</speed>
</trkpt>
<trkpt lat="44.464760" lon="34.148464">
<ele>301.816650</ele>
<time>2011-10-13T11:59:51Z</time>
<desc>lat.=44.464760, lon.=34.148464, Alt.=301.816650m. Speed=2.232000m/h.</desc>
<speed>0.620000</speed>
</trkpt>
<trkpt lat="44.464798" lon="34.148453">
<ele>302.090088</ele>
<time>2011-10-13T11:59:56Z</time>
<desc>lat.=44.464798, lon.=34.148453, Alt.=302.090088m. Speed=1.476000m/h.</desc>
<speed>0.410000</speed>
</trkpt>
<trkpt lat="44.464809" lon="34.148460">
<ele>302.207275</ele>
<time>2011-10-13T12:00:01Z</time>
<desc>lat.=44.464809, lon.=34.148460, Alt.=302.207275m. Speed=0.792000m/h.</desc>
<speed>0.220000</speed>
</trkpt>
<trkpt lat="44.464809" lon="34.148430">
<ele>302.347900</ele>
<time>2011-10-13T12:00:06Z</time>
<desc>lat.=44.464809, lon.=34.148430, Alt.=302.347900m. Speed=0.720000m/h.</desc>
<speed>0.200000</speed>
</trkpt>
<trkpt lat="44.464806" lon="34.148422">
<ele>302.433838</ele>
<time>2011-10-13T12:00:11Z</time>
<desc>lat.=44.464806, lon.=34.148422, Alt.=302.433838m. Speed=0.288000m/h.</desc>
<speed>0.080000</speed>
</trkpt>
<trkpt lat="44.464809" lon="34.148331">
<ele>301.949463</ele>
<time>2011-10-13T12:00:16Z</time>
<desc>lat.=44.464809, lon.=34.148331, Alt.=301.949463m. Speed=2.016000m/h.</desc>
<speed>0.560000</speed>
</trkpt>
<trkpt lat="44.464809" lon="34.148277">
<ele>302.090088</ele>
<time>2011-10-13T12:00:21Z</time>
<desc>lat.=44.464809, lon.=34.148277, Alt.=302.090088m. Speed=2.628000m/h.</desc>
<speed>0.730000</speed>
</trkpt>
<trkpt lat="44.464756" lon="34.148247">
<ele>302.129150</ele>
<time>2011-10-13T12:00:26Z</time>
<desc>lat.=44.464756, lon.=34.148247, Alt.=302.129150m. Speed=5.976000m/h.</desc>
<speed>1.660000</speed>
</trkpt>
<trkpt lat="44.464684" lon="34.148254">
<ele>302.285400</ele>
<time>2011-10-13T12:00:31Z</time>
<desc>lat.=44.464684, lon.=34.148254, Alt.=302.285400m. Speed=5.508000m/h.</desc>
<speed>1.530000</speed>
</trkpt>
<trkpt lat="44.464615" lon="34.148270">
<ele>304.066650</ele>
<time>2011-10-13T12:00:36Z</time>
<desc>lat.=44.464615, lon.=34.148270, Alt.=304.066650m. Speed=3.996000m/h.</desc>
<speed>1.110000</speed>
</trkpt>
<trkpt lat="44.464565" lon="34.148190">
<ele>306.261963</ele>
<time>2011-10-13T12:00:41Z</time>
<desc>lat.=44.464565, lon.=34.148190, Alt.=306.261963m. Speed=3.852000m/h.</desc>
<speed>1.070000</speed>
</trkpt>
<trkpt lat="44.464520" lon="34.148129">
<ele>308.894775</ele>
<time>2011-10-13T12:00:46Z</time>
<desc>lat.=44.464520, lon.=34.148129, Alt.=308.894775m. Speed=1.692000m/h.</desc>
<speed>0.470000</speed>
</trkpt>
<trkpt lat="44.464466" lon="34.148060">
<ele>310.261963</ele>
<time>2011-10-13T12:00:51Z</time>
<desc>lat.=44.464466, lon.=34.148060, Alt.=310.261963m. Speed=3.348000m/h.</desc>
<speed>0.930000</speed>
</trkpt>
<trkpt lat="44.464378" lon="34.147942">
<ele>311.965088</ele>
<time>2011-10-13T12:00:56Z</time>
<desc>lat.=44.464378, lon.=34.147942, Alt.=311.965088m. Speed=6.768000m/h.</desc>
<speed>1.880000</speed>
</trkpt>
<trkpt lat="44.464272" lon="34.147842">
<ele>313.761963</ele>
<time>2011-10-13T12:01:01Z</time>
<desc>lat.=44.464272, lon.=34.147842, Alt.=313.761963m. Speed=6.840000m/h.</desc>
<speed>1.900000</speed>
</trkpt>
<trkpt lat="44.464249" lon="34.147713">
<ele>316.777588</ele>
<time>2011-10-13T12:01:06Z</time>
<desc>lat.=44.464249, lon.=34.147713, Alt.=316.777588m. Speed=0.936000m/h.</desc>
<speed>0.260000</speed>
</trkpt>
<trkpt lat="44.464066" lon="34.147694">
<ele>320.152588</ele>
<time>2011-10-13T12:01:11Z</time>
<desc>lat.=44.464066, lon.=34.147694, Alt.=320.152588m. Speed=1.476000m/h.</desc>
<speed>0.410000</speed>
</trkpt>
<trkpt lat="44.464058" lon="34.147713">
<ele>321.933838</ele>
<time>2011-10-13T12:01:16Z</time>
<desc>lat.=44.464058, lon.=34.147713, Alt.=321.933838m. Speed=0.828000m/h.</desc>
<speed>0.230000</speed>
</trkpt>
<trkpt lat="44.463936" lon="34.147652">
<ele>321.996338</ele>
<time>2011-10-13T12:01:21Z</time>
<desc>lat.=44.463936, lon.=34.147652, Alt.=321.996338m. Speed=0.576000m/h.</desc>
<speed>0.160000</speed>
</trkpt>
<trkpt lat="44.463863" lon="34.147610">
<ele>322.168213</ele>
<time>2011-10-13T12:01:26Z</time>
<desc>lat.=44.463863, lon.=34.147610, Alt.=322.168213m. Speed=2.412000m/h.</desc>
<speed>0.670000</speed>
</trkpt>
<trkpt lat="44.463879" lon="34.147583">
<ele>323.035400</ele>
<time>2011-10-13T12:01:31Z</time>
<desc>lat.=44.463879, lon.=34.147583, Alt.=323.035400m. Speed=3.960000m/h.</desc>
<speed>1.100000</speed>
</trkpt>
<trkpt lat="44.463928" lon="34.147629">
<ele>324.386963</ele>
<time>2011-10-13T12:01:36Z</time>
<desc>lat.=44.463928, lon.=34.147629, Alt.=324.386963m. Speed=4.284000m/h.</desc>
<speed>1.190000</speed>
</trkpt>
<trkpt lat="44.463913" lon="34.147621">
<ele>325.824463</ele>
<time>2011-10-13T12:01:41Z</time>
<desc>lat.=44.463913, lon.=34.147621, Alt.=325.824463m. Speed=1.224000m/h.</desc>
<speed>0.340000</speed>
</trkpt>
<trkpt lat="44.463860" lon="34.147610">
<ele>327.105713</ele>
<time>2011-10-13T12:01:46Z</time>
<desc>lat.=44.463860, lon.=34.147610, Alt.=327.105713m. Speed=3.096000m/h.</desc>
<speed>0.860000</speed>
</trkpt>
<trkpt lat="44.463867" lon="34.147396">
<ele>328.574463</ele>
<time>2011-10-13T12:01:51Z</time>
<desc>lat.=44.463867, lon.=34.147396, Alt.=328.574463m. Speed=7.632000m/h.</desc>
<speed>2.120000</speed>
</trkpt>
<trkpt lat="44.463909" lon="34.147251">
<ele>328.957275</ele>
<time>2011-10-13T12:01:56Z</time>
<desc>lat.=44.463909, lon.=34.147251, Alt.=328.957275m. Speed=8.928000m/h.</desc>
<speed>2.480000</speed>
</trkpt>
<trkpt lat="44.463997" lon="34.147099">
<ele>328.629150</ele>
<time>2011-10-13T12:02:01Z</time>
<desc>lat.=44.463997, lon.=34.147099, Alt.=328.629150m. Speed=8.928000m/h.</desc>
<speed>2.480000</speed>
</trkpt>
<trkpt lat="44.464100" lon="34.146942">
<ele>328.301025</ele>
<time>2011-10-13T12:02:06Z</time>
<desc>lat.=44.464100, lon.=34.146942, Alt.=328.301025m. Speed=9.360000m/h.</desc>
<speed>2.600000</speed>
</trkpt>
<trkpt lat="44.464054" lon="34.146942">
<ele>329.105713</ele>
<time>2011-10-13T12:02:11Z</time>
<desc>lat.=44.464054, lon.=34.146942, Alt.=329.105713m. Speed=5.724000m/h.</desc>
<speed>1.590000</speed>
</trkpt>
<trkpt lat="44.464008" lon="34.146866">
<ele>330.340088</ele>
<time>2011-10-13T12:02:16Z</time>
<desc>lat.=44.464008, lon.=34.146866, Alt.=330.340088m. Speed=5.760000m/h.</desc>
<speed>1.600000</speed>
</trkpt>
<trkpt lat="44.463978" lon="34.146736">
<ele>332.027588</ele>
<time>2011-10-13T12:02:21Z</time>
<desc>lat.=44.463978, lon.=34.146736, Alt.=332.027588m. Speed=4.104000m/h.</desc>
<speed>1.140000</speed>
</trkpt>
<trkpt lat="44.463947" lon="34.146618">
<ele>334.074463</ele>
<time>2011-10-13T12:02:26Z</time>
<desc>lat.=44.463947, lon.=34.146618, Alt.=334.074463m. Speed=2.880000m/h.</desc>
<speed>0.800000</speed>
</trkpt>
<trkpt lat="44.463928" lon="34.146442">
<ele>336.011963</ele>
<time>2011-10-13T12:02:31Z</time>
<desc>lat.=44.463928, lon.=34.146442, Alt.=336.011963m. Speed=3.672000m/h.</desc>
<speed>1.020000</speed>
</trkpt>
<trkpt lat="44.463932" lon="34.146240">
<ele>337.754150</ele>
<time>2011-10-13T12:02:36Z</time>
<desc>lat.=44.463932, lon.=34.146240, Alt.=337.754150m. Speed=5.328000m/h.</desc>
<speed>1.480000</speed>
</trkpt>
<trkpt lat="44.463936" lon="34.146088">
<ele>339.832275</ele>
<time>2011-10-13T12:02:41Z</time>
<desc>lat.=44.463936, lon.=34.146088, Alt.=339.832275m. Speed=2.124000m/h.</desc>
<speed>0.590000</speed>
</trkpt>
<trkpt lat="44.463940" lon="34.145943">
<ele>341.863525</ele>
<time>2011-10-13T12:02:46Z</time>
<desc>lat.=44.463940, lon.=34.145943, Alt.=341.863525m. Speed=3.996000m/h.</desc>
<speed>1.110000</speed>
</trkpt>
<trkpt lat="44.463921" lon="34.145859">
<ele>343.730713</ele>
<time>2011-10-13T12:02:51Z</time>
<desc>lat.=44.463921, lon.=34.145859, Alt.=343.730713m. Speed=4.176000m/h.</desc>
<speed>1.160000</speed>
</trkpt>
<trkpt lat="44.463928" lon="34.145710">
<ele>345.683838</ele>
<time>2011-10-13T12:02:56Z</time>
<desc>lat.=44.463928, lon.=34.145710, Alt.=345.683838m. Speed=6.012000m/h.</desc>
<speed>1.670000</speed>
</trkpt>
<trkpt lat="44.463932" lon="34.145569">
<ele>347.511963</ele>
<time>2011-10-13T12:03:01Z</time>
<desc>lat.=44.463932, lon.=34.145569, Alt.=347.511963m. Speed=5.436000m/h.</desc>
<speed>1.510000</speed>
</trkpt>
<trkpt lat="44.463936" lon="34.145382">
<ele>349.269775</ele>
<time>2011-10-13T12:03:06Z</time>
<desc>lat.=44.463936, lon.=34.145382, Alt.=349.269775m. Speed=6.372000m/h.</desc>
<speed>1.770000</speed>
</trkpt>
<trkpt lat="44.463928" lon="34.145226">
<ele>351.176025</ele>
<time>2011-10-13T12:03:11Z</time>
<desc>lat.=44.463928, lon.=34.145226, Alt.=351.176025m. Speed=5.796000m/h.</desc>
<speed>1.610000</speed>
</trkpt>
<trkpt lat="44.463894" lon="34.145161">
<ele>353.160400</ele>
<time>2011-10-13T12:03:16Z</time>
<desc>lat.=44.463894, lon.=34.145161, Alt.=353.160400m. Speed=3.204000m/h.</desc>
<speed>0.890000</speed>
</trkpt>
<trkpt lat="44.463818" lon="34.145126">
<ele>355.722900</ele>
<time>2011-10-13T12:03:21Z</time>
<desc>lat.=44.463818, lon.=34.145126, Alt.=355.722900m. Speed=3.636000m/h.</desc>
<speed>1.010000</speed>
</trkpt>
<trkpt lat="44.463703" lon="34.145069">
<ele>358.293213</ele>
<time>2011-10-13T12:03:26Z</time>
<desc>lat.=44.463703, lon.=34.145069, Alt.=358.293213m. Speed=4.104000m/h.</desc>
<speed>1.140000</speed>
</trkpt>
<trkpt lat="44.463615" lon="34.145039">
<ele>360.933838</ele>
<time>2011-10-13T12:03:31Z</time>
<desc>lat.=44.463615, lon.=34.145039, Alt.=360.933838m. Speed=1.764000m/h.</desc>
<speed>0.490000</speed>
</trkpt>
<trkpt lat="44.463501" lon="34.145020">
<ele>362.340088</ele>
<time>2011-10-13T12:03:36Z</time>
<desc>lat.=44.463501, lon.=34.145020, Alt.=362.340088m. Speed=0.612000m/h.</desc>
<speed>0.170000</speed>
</trkpt>
<trkpt lat="44.463478" lon="34.145035">
<ele>361.801025</ele>
<time>2011-10-13T12:03:41Z</time>
<desc>lat.=44.463478, lon.=34.145035, Alt.=361.801025m. Speed=0.432000m/h.</desc>
<speed>0.120000</speed>
</trkpt>
<trkpt lat="44.463459" lon="34.145039">
<ele>361.644775</ele>
<time>2011-10-13T12:03:46Z</time>
<desc>lat.=44.463459, lon.=34.145039, Alt.=361.644775m. Speed=0.612000m/h.</desc>
<speed>0.170000</speed>
</trkpt>
<trkpt lat="44.463459" lon="34.145035">
<ele>361.582275</ele>
<time>2011-10-13T12:03:51Z</time>
<desc>lat.=44.463459, lon.=34.145035, Alt.=361.582275m. Speed=0.288000m/h.</desc>
<speed>0.080000</speed>
</trkpt>
<trkpt lat="44.463474" lon="34.145012">
<ele>361.574463</ele>
<time>2011-10-13T12:03:56Z</time>
<desc>lat.=44.463474, lon.=34.145012, Alt.=361.574463m. Speed=1.476000m/h.</desc>
<speed>0.410000</speed>
</trkpt>
<trkpt lat="44.463539" lon="34.144909">
<ele>361.574463</ele>
<time>2011-10-13T12:04:01Z</time>
<desc>lat.=44.463539, lon.=34.144909, Alt.=361.574463m. Speed=2.196000m/h.</desc>
<speed>0.610000</speed>
</trkpt>
<trkpt lat="44.463539" lon="34.144913">
<ele>361.472900</ele>
<time>2011-10-13T12:04:06Z</time>
<desc>lat.=44.463539, lon.=34.144913, Alt.=361.472900m. Speed=0.828000m/h.</desc>
<speed>0.230000</speed>
</trkpt>
<trkpt lat="44.463554" lon="34.144909">
<ele>361.363525</ele>
<time>2011-10-13T12:04:11Z</time>
<desc>lat.=44.463554, lon.=34.144909, Alt.=361.363525m. Speed=1.116000m/h.</desc>
<speed>0.310000</speed>
</trkpt>
<trkpt lat="44.463558" lon="34.144901">
<ele>360.965088</ele>
<time>2011-10-13T12:04:16Z</time>
<desc>lat.=44.463558, lon.=34.144901, Alt.=360.965088m. Speed=0.936000m/h.</desc>
<speed>0.260000</speed>
</trkpt>
<trkpt lat="44.463501" lon="34.144909">
<ele>361.230713</ele>
<time>2011-10-13T12:04:21Z</time>
<desc>lat.=44.463501, lon.=34.144909, Alt.=361.230713m. Speed=2.376000m/h.</desc>
<speed>0.660000</speed>
</trkpt>
<trkpt lat="44.463463" lon="34.144924">
<ele>361.519775</ele>
<time>2011-10-13T12:04:26Z</time>
<desc>lat.=44.463463, lon.=34.144924, Alt.=361.519775m. Speed=1.944000m/h.</desc>
<speed>0.540000</speed>
</trkpt>
<trkpt lat="44.463432" lon="34.144871">
<ele>360.629150</ele>
<time>2011-10-13T12:04:31Z</time>
<desc>lat.=44.463432, lon.=34.144871, Alt.=360.629150m. Speed=2.412000m/h.</desc>
<speed>0.670000</speed>
</trkpt>
<trkpt lat="44.463436" lon="34.144829">
<ele>359.379150</ele>
<time>2011-10-13T12:04:36Z</time>
<desc>lat.=44.463436, lon.=34.144829, Alt.=359.379150m. Speed=2.772000m/h.</desc>
<speed>0.770000</speed>
</trkpt>
<trkpt lat="44.463432" lon="34.144588">
<ele>355.613525</ele>
<time>2011-10-13T12:04:41Z</time>
<desc>lat.=44.463432, lon.=34.144588, Alt.=355.613525m. Speed=4.176000m/h.</desc>
<speed>1.160000</speed>
</trkpt>
<trkpt lat="44.463448" lon="34.144371">
<ele>352.496338</ele>
<time>2011-10-13T12:04:46Z</time>
<desc>lat.=44.463448, lon.=34.144371, Alt.=352.496338m. Speed=3.168000m/h.</desc>
<speed>0.880000</speed>
</trkpt>
<trkpt lat="44.463467" lon="34.144276">
<ele>350.090088</ele>
<time>2011-10-13T12:04:51Z</time>
<desc>lat.=44.463467, lon.=34.144276, Alt.=350.090088m. Speed=2.736000m/h.</desc>
<speed>0.760000</speed>
</trkpt>
<trkpt lat="44.463528" lon="34.144203">
<ele>347.590088</ele>
<time>2011-10-13T12:04:56Z</time>
<desc>lat.=44.463528, lon.=34.144203, Alt.=347.590088m. Speed=2.484000m/h.</desc>
<speed>0.690000</speed>
</trkpt>
<trkpt lat="44.463615" lon="34.144218">
<ele>345.097900</ele>
<time>2011-10-13T12:05:01Z</time>
<desc>lat.=44.463615, lon.=34.144218, Alt.=345.097900m. Speed=3.276000m/h.</desc>
<speed>0.910000</speed>
</trkpt>
<trkpt lat="44.463657" lon="34.144234">
<ele>342.019775</ele>
<time>2011-10-13T12:05:06Z</time>
<desc>lat.=44.463657, lon.=34.144234, Alt.=342.019775m. Speed=3.780000m/h.</desc>
<speed>1.050000</speed>
</trkpt>
<trkpt lat="44.463711" lon="34.144192">
<ele>340.801025</ele>
<time>2011-10-13T12:05:11Z</time>
<desc>lat.=44.463711, lon.=34.144192, Alt.=340.801025m. Speed=4.104000m/h.</desc>
<speed>1.140000</speed>
</trkpt>
<trkpt lat="44.463806" lon="34.144062">
<ele>337.777588</ele>
<time>2011-10-13T12:05:16Z</time>
<desc>lat.=44.463806, lon.=34.144062, Alt.=337.777588m. Speed=5.508000m/h.</desc>
<speed>1.530000</speed>
</trkpt>
<trkpt lat="44.463879" lon="34.143902">
<ele>335.293213</ele>
<time>2011-10-13T12:05:21Z</time>
<desc>lat.=44.463879, lon.=34.143902, Alt.=335.293213m. Speed=2.772000m/h.</desc>
<speed>0.770000</speed>
</trkpt>
<trkpt lat="44.463913" lon="34.143829">
<ele>334.769775</ele>
<time>2011-10-13T12:05:26Z</time>
<desc>lat.=44.463913, lon.=34.143829, Alt.=334.769775m. Speed=5.220000m/h.</desc>
<speed>1.450000</speed>
</trkpt>
<trkpt lat="44.463940" lon="34.143841">
<ele>334.347900</ele>
<time>2011-10-13T12:05:31Z</time>
<desc>lat.=44.463940, lon.=34.143841, Alt.=334.347900m. Speed=0.216000m/h.</desc>
<speed>0.060000</speed>
</trkpt>
<trkpt lat="44.463974" lon="34.143833">
<ele>333.441650</ele>
<time>2011-10-13T12:05:36Z</time>
<desc>lat.=44.463974, lon.=34.143833, Alt.=333.441650m. Speed=0.396000m/h.</desc>
<speed>0.110000</speed>
</trkpt>
<trkpt lat="44.463970" lon="34.143871">
<ele>332.371338</ele>
<time>2011-10-13T12:05:41Z</time>
<desc>lat.=44.463970, lon.=34.143871, Alt.=332.371338m. Speed=0.216000m/h.</desc>
<speed>0.060000</speed>
</trkpt>
<trkpt lat="44.463997" lon="34.143906">
<ele>330.574463</ele>
<time>2011-10-13T12:05:46Z</time>
<desc>lat.=44.463997, lon.=34.143906, Alt.=330.574463m. Speed=0.108000m/h.</desc>
<speed>0.030000</speed>
</trkpt>
<trkpt lat="44.464005" lon="34.143890">
<ele>329.769775</ele>
<time>2011-10-13T12:05:51Z</time>
<desc>lat.=44.464005, lon.=34.143890, Alt.=329.769775m. Speed=0.900000m/h.</desc>
<speed>0.250000</speed>
</trkpt>
<trkpt lat="44.464008" lon="34.143894">
<ele>329.761963</ele>
<time>2011-10-13T12:05:56Z</time>
<desc>lat.=44.464008, lon.=34.143894, Alt.=329.761963m. Speed=1.224000m/h.</desc>
<speed>0.340000</speed>
</trkpt>
<trkpt lat="44.464008" lon="34.143909">
<ele>325.722900</ele>
<time>2011-10-13T12:06:01Z</time>
<desc>lat.=44.464008, lon.=34.143909, Alt.=325.722900m. Speed=0.828000m/h.</desc>
<speed>0.230000</speed>
</trkpt>
<trkpt lat="44.464012" lon="34.143913">
<ele>325.238525</ele>
<time>2011-10-13T12:06:06Z</time>
<desc>lat.=44.464012, lon.=34.143913, Alt.=325.238525m. Speed=0.936000m/h.</desc>
<speed>0.260000</speed>
</trkpt>
<trkpt lat="44.464054" lon="34.143944">
<ele>321.926025</ele>
<time>2011-10-13T12:06:11Z</time>
<desc>lat.=44.464054, lon.=34.143944, Alt.=321.926025m. Speed=2.520000m/h.</desc>
<speed>0.700000</speed>
</trkpt>
<trkpt lat="44.464153" lon="34.143951">
<ele>317.957275</ele>
<time>2011-10-13T12:06:16Z</time>
<desc>lat.=44.464153, lon.=34.143951, Alt.=317.957275m. Speed=3.708000m/h.</desc>
<speed>1.030000</speed>
</trkpt>
<trkpt lat="44.464252" lon="34.144009">
<ele>314.691650</ele>
<time>2011-10-13T12:06:21Z</time>
<desc>lat.=44.464252, lon.=34.144009, Alt.=314.691650m. Speed=4.644000m/h.</desc>
<speed>1.290000</speed>
</trkpt>
<trkpt lat="44.464294" lon="34.144039">
<ele>313.269775</ele>
<time>2011-10-13T12:06:26Z</time>
<desc>lat.=44.464294, lon.=34.144039, Alt.=313.269775m. Speed=3.204000m/h.</desc>
<speed>0.890000</speed>
</trkpt>
<trkpt lat="44.464314" lon="34.144077">
<ele>312.246338</ele>
<time>2011-10-13T12:06:31Z</time>
<desc>lat.=44.464314, lon.=34.144077, Alt.=312.246338m. Speed=2.304000m/h.</desc>
<speed>0.640000</speed>
</trkpt>
<trkpt lat="44.464352" lon="34.144165">
<ele>310.379150</ele>
<time>2011-10-13T12:06:36Z</time>
<desc>lat.=44.464352, lon.=34.144165, Alt.=310.379150m. Speed=3.204000m/h.</desc>
<speed>0.890000</speed>
</trkpt>
<trkpt lat="44.464359" lon="34.144218">
<ele>309.519775</ele>
<time>2011-10-13T12:06:41Z</time>
<desc>lat.=44.464359, lon.=34.144218, Alt.=309.519775m. Speed=3.492000m/h.</desc>
<speed>0.970000</speed>
</trkpt>
<trkpt lat="44.464432" lon="34.144295">
<ele>309.277588</ele>
<time>2011-10-13T12:06:46Z</time>
<desc>lat.=44.464432, lon.=34.144295, Alt.=309.277588m. Speed=4.968000m/h.</desc>
<speed>1.380000</speed>
</trkpt>
<trkpt lat="44.464481" lon="34.144409">
<ele>306.566650</ele>
<time>2011-10-13T12:06:51Z</time>
<desc>lat.=44.464481, lon.=34.144409, Alt.=306.566650m. Speed=4.860000m/h.</desc>
<speed>1.350000</speed>
</trkpt>
<trkpt lat="44.464516" lon="34.144459">
<ele>300.082275</ele>
<time>2011-10-13T12:06:56Z</time>
<desc>lat.=44.464516, lon.=34.144459, Alt.=300.082275m. Speed=6.732000m/h.</desc>
<speed>1.870000</speed>
</trkpt>
<trkpt lat="44.464558" lon="34.144428">
<ele>298.449463</ele>
<time>2011-10-13T12:07:01Z</time>
<desc>lat.=44.464558, lon.=34.144428, Alt.=298.449463m. Speed=4.392000m/h.</desc>
<speed>1.220000</speed>
</trkpt>
<trkpt lat="44.464619" lon="34.144390">
<ele>295.347900</ele>
<time>2011-10-13T12:07:06Z</time>
<desc>lat.=44.464619, lon.=34.144390, Alt.=295.347900m. Speed=3.600000m/h.</desc>
<speed>1.000000</speed>
</trkpt>
<trkpt lat="44.464695" lon="34.144413">
<ele>291.355713</ele>
<time>2011-10-13T12:07:11Z</time>
<desc>lat.=44.464695, lon.=34.144413, Alt.=291.355713m. Speed=5.580000m/h.</desc>
<speed>1.550000</speed>
</trkpt>
<trkpt lat="44.464775" lon="34.144367">
<ele>287.074463</ele>
<time>2011-10-13T12:07:16Z</time>
<desc>lat.=44.464775, lon.=34.144367, Alt.=287.074463m. Speed=3.780000m/h.</desc>
<speed>1.050000</speed>
</trkpt>
<trkpt lat="44.464890" lon="34.144299">
<ele>284.160400</ele>
<time>2011-10-13T12:07:21Z</time>
<desc>lat.=44.464890, lon.=34.144299, Alt.=284.160400m. Speed=3.888000m/h.</desc>
<speed>1.080000</speed>
</trkpt>
<trkpt lat="44.464962" lon="34.144249">
<ele>283.363525</ele>
<time>2011-10-13T12:07:26Z</time>
<desc>lat.=44.464962, lon.=34.144249, Alt.=283.363525m. Speed=2.088000m/h.</desc>
<speed>0.580000</speed>
</trkpt>
<trkpt lat="44.465031" lon="34.144207">
<ele>283.261963</ele>
<time>2011-10-13T12:07:31Z</time>
<desc>lat.=44.465031, lon.=34.144207, Alt.=283.261963m. Speed=3.168000m/h.</desc>
<speed>0.880000</speed>
</trkpt>
<trkpt lat="44.465176" lon="34.144218">
<ele>283.426025</ele>
<time>2011-10-13T12:07:36Z</time>
<desc>lat.=44.465176, lon.=34.144218, Alt.=283.426025m. Speed=4.104000m/h.</desc>
<speed>1.140000</speed>
</trkpt>
<trkpt lat="44.465324" lon="34.144211">
<ele>282.316650</ele>
<time>2011-10-13T12:07:41Z</time>
<desc>lat.=44.465324, lon.=34.144211, Alt.=282.316650m. Speed=4.320000m/h.</desc>
<speed>1.200000</speed>
</trkpt>
<trkpt lat="44.465405" lon="34.144260">
<ele>282.613525</ele>
<time>2011-10-13T12:07:46Z</time>
<desc>lat.=44.465405, lon.=34.144260, Alt.=282.613525m. Speed=2.196000m/h.</desc>
<speed>0.610000</speed>
</trkpt>
<trkpt lat="44.465527" lon="34.144299">
<ele>270.465088</ele>
<time>2011-10-13T12:07:51Z</time>
<desc>lat.=44.465527, lon.=34.144299, Alt.=270.465088m. Speed=4.392000m/h.</desc>
<speed>1.220000</speed>
</trkpt>
<trkpt lat="44.465565" lon="34.144314">
<ele>265.504150</ele>
<time>2011-10-13T12:07:56Z</time>
<desc>lat.=44.465565, lon.=34.144314, Alt.=265.504150m. Speed=0.540000m/h.</desc>
<speed>0.150000</speed>
</trkpt>
<trkpt lat="44.465591" lon="34.144302">
<ele>258.426025</ele>
<time>2011-10-13T12:08:01Z</time>
<desc>lat.=44.465591, lon.=34.144302, Alt.=258.426025m. Speed=0.072000m/h.</desc>
<speed>0.020000</speed>
</trkpt>
<trkpt lat="44.465614" lon="34.144283">
<ele>253.322388</ele>
<time>2011-10-13T12:08:06Z</time>
<desc>lat.=44.465614, lon.=34.144283, Alt.=253.322388m. Speed=0.144000m/h.</desc>
<speed>0.040000</speed>
</trkpt>
<trkpt lat="44.465645" lon="34.144279">
<ele>249.427856</ele>
<time>2011-10-13T12:08:11Z</time>
<desc>lat.=44.465645, lon.=34.144279, Alt.=249.427856m. Speed=0.468000m/h.</desc>
<speed>0.130000</speed>
</trkpt>
<trkpt lat="44.465679" lon="34.144268">
<ele>245.939575</ele>
<time>2011-10-13T12:08:16Z</time>
<desc>lat.=44.465679, lon.=34.144268, Alt.=245.939575m. Speed=0.468000m/h.</desc>
<speed>0.130000</speed>
</trkpt>
<trkpt lat="44.465729" lon="34.144234">
<ele>239.029419</ele>
<time>2011-10-13T12:08:21Z</time>
<desc>lat.=44.465729, lon.=34.144234, Alt.=239.029419m. Speed=0.252000m/h.</desc>
<speed>0.070000</speed>
</trkpt>
<trkpt lat="44.465748" lon="34.144222">
<ele>237.162231</ele>
<time>2011-10-13T12:08:26Z</time>
<desc>lat.=44.465748, lon.=34.144222, Alt.=237.162231m. Speed=0.648000m/h.</desc>
<speed>0.180000</speed>
</trkpt>
<trkpt lat="44.465755" lon="34.144218">
<ele>236.420044</ele>
<time>2011-10-13T12:08:31Z</time>
<desc>lat.=44.465755, lon.=34.144218, Alt.=236.420044m. Speed=0.144000m/h.</desc>
<speed>0.040000</speed>
</trkpt>
<trkpt lat="44.465755" lon="34.144211">
<ele>235.857544</ele>
<time>2011-10-13T12:08:36Z</time>
<desc>lat.=44.465755, lon.=34.144211, Alt.=235.857544m. Speed=0.072000m/h.</desc>
<speed>0.020000</speed>
</trkpt>
<trkpt lat="44.465755" lon="34.144222">
<ele>235.525513</ele>
<time>2011-10-13T12:08:41Z</time>
<desc>lat.=44.465755, lon.=34.144222, Alt.=235.525513m. Speed=1.368000m/h.</desc>
<speed>0.380000</speed>
</trkpt>
<trkpt lat="44.465801" lon="34.144211">
<ele>233.709106</ele>
<time>2011-10-13T12:08:46Z</time>
<desc>lat.=44.465801, lon.=34.144211, Alt.=233.709106m. Speed=0.540000m/h.</desc>
<speed>0.150000</speed>
</trkpt>
<trkpt lat="44.465809" lon="34.144188">
<ele>231.998169</ele>
<time>2011-10-13T12:08:51Z</time>
<desc>lat.=44.465809, lon.=34.144188, Alt.=231.998169m. Speed=1.080000m/h.</desc>
<speed>0.300000</speed>
</trkpt>
<trkpt lat="44.465828" lon="34.144150">
<ele>230.427856</ele>
<time>2011-10-13T12:08:56Z</time>
<desc>lat.=44.465828, lon.=34.144150, Alt.=230.427856m. Speed=0.648000m/h.</desc>
<speed>0.180000</speed>
</trkpt>
<trkpt lat="44.465828" lon="34.144119">
<ele>229.861450</ele>
<time>2011-10-13T12:09:01Z</time>
<desc>lat.=44.465828, lon.=34.144119, Alt.=229.861450m. Speed=1.188000m/h.</desc>
<speed>0.330000</speed>
</trkpt>
<trkpt lat="44.465836" lon="34.144043">
<ele>229.048950</ele>
<time>2011-10-13T12:09:06Z</time>
<desc>lat.=44.465836, lon.=34.144043, Alt.=229.048950m. Speed=1.764000m/h.</desc>
<speed>0.490000</speed>
</trkpt>
<trkpt lat="44.465836" lon="34.143936">
<ele>228.099731</ele>
<time>2011-10-13T12:09:11Z</time>
<desc>lat.=44.465836, lon.=34.143936, Alt.=228.099731m. Speed=2.484000m/h.</desc>
<speed>0.690000</speed>
</trkpt>
<trkpt lat="44.465832" lon="34.143745">
<ele>226.959106</ele>
<time>2011-10-13T12:09:16Z</time>
<desc>lat.=44.465832, lon.=34.143745, Alt.=226.959106m. Speed=4.356000m/h.</desc>
<speed>1.210000</speed>
</trkpt>
<trkpt lat="44.465836" lon="34.143597">
<ele>225.931763</ele>
<time>2011-10-13T12:09:21Z</time>
<desc>lat.=44.465836, lon.=34.143597, Alt.=225.931763m. Speed=3.528000m/h.</desc>
<speed>0.980000</speed>
</trkpt>
<trkpt lat="44.465816" lon="34.143555">
<ele>225.341919</ele>
<time>2011-10-13T12:09:26Z</time>
<desc>lat.=44.465816, lon.=34.143555, Alt.=225.341919m. Speed=2.376000m/h.</desc>
<speed>0.660000</speed>
</trkpt>
<trkpt lat="44.465790" lon="34.143539">
<ele>225.209106</ele>
<time>2011-10-13T12:09:31Z</time>
<desc>lat.=44.465790, lon.=34.143539, Alt.=225.209106m. Speed=1.476000m/h.</desc>
<speed>0.410000</speed>
</trkpt>
<trkpt lat="44.465736" lon="34.143555">
<ele>224.552856</ele>
<time>2011-10-13T12:09:36Z</time>
<desc>lat.=44.465736, lon.=34.143555, Alt.=224.552856m. Speed=1.260000m/h.</desc>
<speed>0.350000</speed>
</trkpt>
<trkpt lat="44.465664" lon="34.143551">
<ele>224.205200</ele>
<time>2011-10-13T12:09:41Z</time>
<desc>lat.=44.465664, lon.=34.143551, Alt.=224.205200m. Speed=3.132000m/h.</desc>
<speed>0.870000</speed>
</trkpt>
<trkpt lat="44.465630" lon="34.143532">
<ele>223.779419</ele>
<time>2011-10-13T12:09:46Z</time>
<desc>lat.=44.465630, lon.=34.143532, Alt.=223.779419m. Speed=2.916000m/h.</desc>
<speed>0.810000</speed>
</trkpt>
<trkpt lat="44.465553" lon="34.143539">
<ele>223.513794</ele>
<time>2011-10-13T12:09:51Z</time>
<desc>lat.=44.465553, lon.=34.143539, Alt.=223.513794m. Speed=2.124000m/h.</desc>
<speed>0.590000</speed>
</trkpt>
<trkpt lat="44.465500" lon="34.143486">
<ele>224.154419</ele>
<time>2011-10-13T12:09:56Z</time>
<desc>lat.=44.465500, lon.=34.143486, Alt.=224.154419m. Speed=1.476000m/h.</desc>
<speed>0.410000</speed>
</trkpt>
<trkpt lat="44.465477" lon="34.143318">
<ele>222.978638</ele>
<time>2011-10-13T12:10:01Z</time>
<desc>lat.=44.465477, lon.=34.143318, Alt.=222.978638m. Speed=0.108000m/h.</desc>
<speed>0.030000</speed>
</trkpt>
<trkpt lat="44.465435" lon="34.143211">
<ele>221.228638</ele>
<time>2011-10-13T12:10:06Z</time>
<desc>lat.=44.465435, lon.=34.143211, Alt.=221.228638m. Speed=0.252000m/h.</desc>
<speed>0.070000</speed>
</trkpt>
<trkpt lat="44.465267" lon="34.143326">
<ele>216.224731</ele>
<time>2011-10-13T12:10:11Z</time>
<desc>lat.=44.465267, lon.=34.143326, Alt.=216.224731m. Speed=0.792000m/h.</desc>
<speed>0.220000</speed>
</trkpt>
<trkpt lat="44.465187" lon="34.143391">
<ele>211.138794</ele>
<time>2011-10-13T12:10:16Z</time>
<desc>lat.=44.465187, lon.=34.143391, Alt.=211.138794m. Speed=0.216000m/h.</desc>
<speed>0.060000</speed>
</trkpt>
<trkpt lat="44.465160" lon="34.143429">
<ele>207.884888</ele>
<time>2011-10-13T12:10:21Z</time>
<desc>lat.=44.465160, lon.=34.143429, Alt.=207.884888m. Speed=0.036000m/h.</desc>
<speed>0.010000</speed>
</trkpt>
<trkpt lat="44.465149" lon="34.143459">
<ele>205.380981</ele>
<time>2011-10-13T12:10:26Z</time>
<desc>lat.=44.465149, lon.=34.143459, Alt.=205.380981m. Speed=0.036000m/h.</desc>
<speed>0.010000</speed>
</trkpt>
<trkpt lat="44.465141" lon="34.143475">
<ele>203.103638</ele>
<time>2011-10-13T12:10:31Z</time>
<desc>lat.=44.465141, lon.=34.143475, Alt.=203.103638m. Speed=0.036000m/h.</desc>
<speed>0.010000</speed>
</trkpt>
<trkpt lat="44.465134" lon="34.143494">
<ele>201.552856</ele>
<time>2011-10-13T12:10:36Z</time>
<desc>lat.=44.465134, lon.=34.143494, Alt.=201.552856m. Speed=0.072000m/h.</desc>
<speed>0.020000</speed>
</trkpt>
<trkpt lat="44.465137" lon="34.143490">
<ele>200.158325</ele>
<time>2011-10-13T12:10:41Z</time>
<desc>lat.=44.465137, lon.=34.143490, Alt.=200.158325m. Speed=0.036000m/h.</desc>
<speed>0.010000</speed>
</trkpt>
<trkpt lat="44.465145" lon="34.143478">
<ele>198.435669</ele>
<time>2011-10-13T12:10:46Z</time>
<desc>lat.=44.465145, lon.=34.143478, Alt.=198.435669m. Speed=0.036000m/h.</desc>
<speed>0.010000</speed>
</trkpt>
<trkpt lat="44.465145" lon="34.143456">
<ele>195.693481</ele>
<time>2011-10-13T12:10:51Z</time>
<desc>lat.=44.465145, lon.=34.143456, Alt.=195.693481m. Speed=0.072000m/h.</desc>
<speed>0.020000</speed>
</trkpt>
<trkpt lat="44.465168" lon="34.143425">
<ele>192.630981</ele>
<time>2011-10-13T12:10:56Z</time>
<desc>lat.=44.465168, lon.=34.143425, Alt.=192.630981m. Speed=0.036000m/h.</desc>
<speed>0.010000</speed>
</trkpt>
<trkpt lat="44.465179" lon="34.143402">
<ele>190.377075</ele>
<time>2011-10-13T12:11:01Z</time>
<desc>lat.=44.465179, lon.=34.143402, Alt.=190.377075m. Speed=0.036000m/h.</desc>
<speed>0.010000</speed>
</trkpt>
<trkpt lat="44.465195" lon="34.143364">
<ele>188.287231</ele>
<time>2011-10-13T12:11:06Z</time>
<desc>lat.=44.465195, lon.=34.143364, Alt.=188.287231m. Speed=0.108000m/h.</desc>
<speed>0.030000</speed>
</trkpt>
<trkpt lat="44.465187" lon="34.143330">
<ele>187.283325</ele>
<time>2011-10-13T12:11:11Z</time>
<desc>lat.=44.465187, lon.=34.143330, Alt.=187.283325m. Speed=0.180000m/h.</desc>
<speed>0.050000</speed>
</trkpt>
<trkpt lat="44.465164" lon="34.143272">
<ele>186.384888</ele>
<time>2011-10-13T12:11:16Z</time>
<desc>lat.=44.465164, lon.=34.143272, Alt.=186.384888m. Speed=0.756000m/h.</desc>
<speed>0.210000</speed>
</trkpt>
<trkpt lat="44.465153" lon="34.143177">
<ele>184.291138</ele>
<time>2011-10-13T12:11:21Z</time>
<desc>lat.=44.465153, lon.=34.143177, Alt.=184.291138m. Speed=1.692000m/h.</desc>
<speed>0.470000</speed>
</trkpt>
<trkpt lat="44.465118" lon="34.143097">
<ele>183.529419</ele>
<time>2011-10-13T12:11:26Z</time>
<desc>lat.=44.465118, lon.=34.143097, Alt.=183.529419m. Speed=2.952000m/h.</desc>
<speed>0.820000</speed>
</trkpt>
<trkpt lat="44.465057" lon="34.142967">
<ele>183.072388</ele>
<time>2011-10-13T12:11:31Z</time>
<desc>lat.=44.465057, lon.=34.142967, Alt.=183.072388m. Speed=5.040000m/h.</desc>
<speed>1.400000</speed>
</trkpt>
<trkpt lat="44.464973" lon="34.142834">
<ele>182.392700</ele>
<time>2011-10-13T12:11:36Z</time>
<desc>lat.=44.464973, lon.=34.142834, Alt.=182.392700m. Speed=2.448000m/h.</desc>
<speed>0.680000</speed>
</trkpt>
<trkpt lat="44.464890" lon="34.142677">
<ele>182.681763</ele>
<time>2011-10-13T12:11:41Z</time>
<desc>lat.=44.464890, lon.=34.142677, Alt.=182.681763m. Speed=5.076000m/h.</desc>
<speed>1.410000</speed>
</trkpt>
<trkpt lat="44.464779" lon="34.142544">
<ele>183.162231</ele>
<time>2011-10-13T12:11:46Z</time>
<desc>lat.=44.464779, lon.=34.142544, Alt.=183.162231m. Speed=6.516000m/h.</desc>
<speed>1.810000</speed>
</trkpt>
<trkpt lat="44.464752" lon="34.142326">
<ele>183.552856</ele>
<time>2011-10-13T12:11:51Z</time>
<desc>lat.=44.464752, lon.=34.142326, Alt.=183.552856m. Speed=4.644000m/h.</desc>
<speed>1.290000</speed>
</trkpt>
<trkpt lat="44.464741" lon="34.142120">
<ele>183.888794</ele>
<time>2011-10-13T12:11:56Z</time>
<desc>lat.=44.464741, lon.=34.142120, Alt.=183.888794m. Speed=5.832000m/h.</desc>
<speed>1.620000</speed>
</trkpt>
<trkpt lat="44.464638" lon="34.141861">
<ele>188.170044</ele>
<time>2011-10-13T12:12:01Z</time>
<desc>lat.=44.464638, lon.=34.141861, Alt.=188.170044m. Speed=2.052000m/h.</desc>
<speed>0.570000</speed>
</trkpt>
<trkpt lat="44.464607" lon="34.141651">
<ele>190.880981</ele>
<time>2011-10-13T12:12:06Z</time>
<desc>lat.=44.464607, lon.=34.141651, Alt.=190.880981m. Speed=1.548000m/h.</desc>
<speed>0.430000</speed>
</trkpt>
<trkpt lat="44.464520" lon="34.141506">
<ele>190.205200</ele>
<time>2011-10-13T12:12:11Z</time>
<desc>lat.=44.464520, lon.=34.141506, Alt.=190.205200m. Speed=6.048000m/h.</desc>
<speed>1.680000</speed>
</trkpt>
<trkpt lat="44.464386" lon="34.141361">
<ele>190.173950</ele>
<time>2011-10-13T12:12:16Z</time>
<desc>lat.=44.464386, lon.=34.141361, Alt.=190.173950m. Speed=3.096000m/h.</desc>
<speed>0.860000</speed>
</trkpt>
<trkpt lat="44.464302" lon="34.141212">
<ele>188.873169</ele>
<time>2011-10-13T12:12:21Z</time>
<desc>lat.=44.464302, lon.=34.141212, Alt.=188.873169m. Speed=4.140000m/h.</desc>
<speed>1.150000</speed>
</trkpt>
<trkpt lat="44.464222" lon="34.141052">
<ele>185.107544</ele>
<time>2011-10-13T12:12:26Z</time>
<desc>lat.=44.464222, lon.=34.141052, Alt.=185.107544m. Speed=5.940000m/h.</desc>
<speed>1.650000</speed>
</trkpt>
<trkpt lat="44.464119" lon="34.140980">
<ele>184.252075</ele>
<time>2011-10-13T12:12:31Z</time>
<desc>lat.=44.464119, lon.=34.140980, Alt.=184.252075m. Speed=3.996000m/h.</desc>
<speed>1.110000</speed>
</trkpt>
<trkpt lat="44.464027" lon="34.140797">
<ele>182.900513</ele>
<time>2011-10-13T12:12:36Z</time>
<desc>lat.=44.464027, lon.=34.140797, Alt.=182.900513m. Speed=7.524000m/h.</desc>
<speed>2.090000</speed>
</trkpt>
<trkpt lat="44.463947" lon="34.140663">
<ele>182.927856</ele>
<time>2011-10-13T12:12:41Z</time>
<desc>lat.=44.463947, lon.=34.140663, Alt.=182.927856m. Speed=2.088000m/h.</desc>
<speed>0.580000</speed>
</trkpt>
<trkpt lat="44.463879" lon="34.140511">
<ele>184.627075</ele>
<time>2011-10-13T12:12:46Z</time>
<desc>lat.=44.463879, lon.=34.140511, Alt.=184.627075m. Speed=3.492000m/h.</desc>
<speed>0.970000</speed>
</trkpt>
<trkpt lat="44.463772" lon="34.140354">
<ele>185.408325</ele>
<time>2011-10-13T12:12:51Z</time>
<desc>lat.=44.463772, lon.=34.140354, Alt.=185.408325m. Speed=5.868000m/h.</desc>
<speed>1.630000</speed>
</trkpt>
<trkpt lat="44.463680" lon="34.140198">
<ele>186.705200</ele>
<time>2011-10-13T12:12:56Z</time>
<desc>lat.=44.463680, lon.=34.140198, Alt.=186.705200m. Speed=1.008000m/h.</desc>
<speed>0.280000</speed>
</trkpt>
<trkpt lat="44.463589" lon="34.140083">
<ele>187.779419</ele>
<time>2011-10-13T12:13:01Z</time>
<desc>lat.=44.463589, lon.=34.140083, Alt.=187.779419m. Speed=2.844000m/h.</desc>
<speed>0.790000</speed>
</trkpt>
<trkpt lat="44.463497" lon="34.140011">
<ele>189.556763</ele>
<time>2011-10-13T12:13:06Z</time>
<desc>lat.=44.463497, lon.=34.140011, Alt.=189.556763m. Speed=3.204000m/h.</desc>
<speed>0.890000</speed>
</trkpt>
<trkpt lat="44.463406" lon="34.139847">
<ele>190.330200</ele>
<time>2011-10-13T12:13:11Z</time>
<desc>lat.=44.463406, lon.=34.139847, Alt.=190.330200m. Speed=3.456000m/h.</desc>
<speed>0.960000</speed>
</trkpt>
<trkpt lat="44.463295" lon="34.139729">
<ele>192.213013</ele>
<time>2011-10-13T12:13:16Z</time>
<desc>lat.=44.463295, lon.=34.139729, Alt.=192.213013m. Speed=8.280000m/h.</desc>
<speed>2.300000</speed>
</trkpt>
<trkpt lat="44.463142" lon="34.139729">
<ele>193.630981</ele>
<time>2011-10-13T12:13:21Z</time>
<desc>lat.=44.463142, lon.=34.139729, Alt.=193.630981m. Speed=5.076000m/h.</desc>
<speed>1.410000</speed>
</trkpt>
<trkpt lat="44.463043" lon="34.139671">
<ele>195.978638</ele>
<time>2011-10-13T12:13:26Z</time>
<desc>lat.=44.463043, lon.=34.139671, Alt.=195.978638m. Speed=7.020000m/h.</desc>
<speed>1.950000</speed>
</trkpt>
<trkpt lat="44.462902" lon="34.139576">
<ele>197.826294</ele>
<time>2011-10-13T12:13:31Z</time>
<desc>lat.=44.462902, lon.=34.139576, Alt.=197.826294m. Speed=6.624000m/h.</desc>
<speed>1.840000</speed>
</trkpt>
<trkpt lat="44.462749" lon="34.139492">
<ele>200.146606</ele>
<time>2011-10-13T12:13:36Z</time>
<desc>lat.=44.462749, lon.=34.139492, Alt.=200.146606m. Speed=5.400000m/h.</desc>
<speed>1.500000</speed>
</trkpt>
<trkpt lat="44.462635" lon="34.139454">
<ele>202.443481</ele>
<time>2011-10-13T12:13:41Z</time>
<desc>lat.=44.462635, lon.=34.139454, Alt.=202.443481m. Speed=2.304000m/h.</desc>
<speed>0.640000</speed>
</trkpt>
<trkpt lat="44.462612" lon="34.139389">
<ele>205.525513</ele>
<time>2011-10-13T12:13:46Z</time>
<desc>lat.=44.462612, lon.=34.139389, Alt.=205.525513m. Speed=3.096000m/h.</desc>
<speed>0.860000</speed>
</trkpt>
<trkpt lat="44.462502" lon="34.139294">
<ele>208.084106</ele>
<time>2011-10-13T12:13:51Z</time>
<desc>lat.=44.462502, lon.=34.139294, Alt.=208.084106m. Speed=2.232000m/h.</desc>
<speed>0.620000</speed>
</trkpt>
<trkpt lat="44.462383" lon="34.139160">
<ele>212.224731</ele>
<time>2011-10-13T12:13:56Z</time>
<desc>lat.=44.462383, lon.=34.139160, Alt.=212.224731m. Speed=2.160000m/h.</desc>
<speed>0.600000</speed>
</trkpt>
<trkpt lat="44.462238" lon="34.139095">
<ele>215.486450</ele>
<time>2011-10-13T12:14:01Z</time>
<desc>lat.=44.462238, lon.=34.139095, Alt.=215.486450m. Speed=5.760000m/h.</desc>
<speed>1.600000</speed>
</trkpt>
<trkpt lat="44.462074" lon="34.139023">
<ele>218.880981</ele>
<time>2011-10-13T12:14:06Z</time>
<desc>lat.=44.462074, lon.=34.139023, Alt.=218.880981m. Speed=3.348000m/h.</desc>
<speed>0.930000</speed>
</trkpt>
<trkpt lat="44.461956" lon="34.138958">
<ele>221.474731</ele>
<time>2011-10-13T12:14:11Z</time>
<desc>lat.=44.461956, lon.=34.138958, Alt.=221.474731m. Speed=3.240000m/h.</desc>
<speed>0.900000</speed>
</trkpt>
<trkpt lat="44.461853" lon="34.138840">
<ele>223.181763</ele>
<time>2011-10-13T12:14:16Z</time>
<desc>lat.=44.461853, lon.=34.138840, Alt.=223.181763m. Speed=0.252000m/h.</desc>
<speed>0.070000</speed>
</trkpt>
<trkpt lat="44.461761" lon="34.138752">
<ele>223.537231</ele>
<time>2011-10-13T12:14:21Z</time>
<desc>lat.=44.461761, lon.=34.138752, Alt.=223.537231m. Speed=1.764000m/h.</desc>
<speed>0.490000</speed>
</trkpt>
<trkpt lat="44.461723" lon="34.138763">
<ele>225.377075</ele>
<time>2011-10-13T12:14:26Z</time>
<desc>lat.=44.461723, lon.=34.138763, Alt.=225.377075m. Speed=1.692000m/h.</desc>
<speed>0.470000</speed>
</trkpt>
<trkpt lat="44.461681" lon="34.138767">
<ele>228.533325</ele>
<time>2011-10-13T12:14:31Z</time>
<desc>lat.=44.461681, lon.=34.138767, Alt.=228.533325m. Speed=2.808000m/h.</desc>
<speed>0.780000</speed>
</trkpt>
<trkpt lat="44.461563" lon="34.138931">
<ele>234.306763</ele>
<time>2011-10-13T12:14:36Z</time>
<desc>lat.=44.461563, lon.=34.138931, Alt.=234.306763m. Speed=3.348000m/h.</desc>
<speed>0.930000</speed>
</trkpt>
<trkpt lat="44.461452" lon="34.139076">
<ele>238.916138</ele>
<time>2011-10-13T12:14:41Z</time>
<desc>lat.=44.461452, lon.=34.139076, Alt.=238.916138m. Speed=2.880000m/h.</desc>
<speed>0.800000</speed>
</trkpt>
<trkpt lat="44.461281" lon="34.139194">
<ele>244.189575</ele>
<time>2011-10-13T12:14:46Z</time>
<desc>lat.=44.461281, lon.=34.139194, Alt.=244.189575m. Speed=4.680000m/h.</desc>
<speed>1.300000</speed>
</trkpt>
<trkpt lat="44.461140" lon="34.139313">
<ele>249.259888</ele>
<time>2011-10-13T12:14:51Z</time>
<desc>lat.=44.461140, lon.=34.139313, Alt.=249.259888m. Speed=4.752000m/h.</desc>
<speed>1.320000</speed>
</trkpt>
<trkpt lat="44.461063" lon="34.139507">
<ele>252.318481</ele>
<time>2011-10-13T12:14:56Z</time>
<desc>lat.=44.461063, lon.=34.139507, Alt.=252.318481m. Speed=5.724000m/h.</desc>
<speed>1.590000</speed>
</trkpt>
<trkpt lat="44.460991" lon="34.139664">
<ele>257.754150</ele>
<time>2011-10-13T12:15:01Z</time>
<desc>lat.=44.460991, lon.=34.139664, Alt.=257.754150m. Speed=5.796000m/h.</desc>
<speed>1.610000</speed>
</trkpt>
<trkpt lat="44.460892" lon="34.139832">
<ele>263.410400</ele>
<time>2011-10-13T12:15:06Z</time>
<desc>lat.=44.460892, lon.=34.139832, Alt.=263.410400m. Speed=4.212000m/h.</desc>
<speed>1.170000</speed>
</trkpt>
<trkpt lat="44.460770" lon="34.139950">
<ele>271.910400</ele>
<time>2011-10-13T12:15:11Z</time>
<desc>lat.=44.460770, lon.=34.139950, Alt.=271.910400m. Speed=7.308000m/h.</desc>
<speed>2.030000</speed>
</trkpt>
<trkpt lat="44.460484" lon="34.140259">
<ele>271.285400</ele>
<time>2011-10-13T12:15:16Z</time>
<desc>lat.=44.460484, lon.=34.140259, Alt.=271.285400m. Speed=11.628000m/h.</desc>
<speed>3.230000</speed>
</trkpt>
<trkpt lat="44.460320" lon="34.140488">
<ele>273.418213</ele>
<time>2011-10-13T12:15:21Z</time>
<desc>lat.=44.460320, lon.=34.140488, Alt.=273.418213m. Speed=5.292000m/h.</desc>
<speed>1.470000</speed>
</trkpt>
<trkpt lat="44.460094" lon="34.140594">
<ele>272.777588</ele>
<time>2011-10-13T12:15:26Z</time>
<desc>lat.=44.460094, lon.=34.140594, Alt.=272.777588m. Speed=2.448000m/h.</desc>
<speed>0.680000</speed>
</trkpt>
<trkpt lat="44.459957" lon="34.140663">
<ele>269.121338</ele>
<time>2011-10-13T12:15:31Z</time>
<desc>lat.=44.459957, lon.=34.140663, Alt.=269.121338m. Speed=0.864000m/h.</desc>
<speed>0.240000</speed>
</trkpt>
<trkpt lat="44.459942" lon="34.140663">
<ele>269.496338</ele>
<time>2011-10-13T12:15:36Z</time>
<desc>lat.=44.459942, lon.=34.140663, Alt.=269.496338m. Speed=0.468000m/h.</desc>
<speed>0.130000</speed>
</trkpt>
<trkpt lat="44.459946" lon="34.140598">
<ele>266.871338</ele>
<time>2011-10-13T12:15:41Z</time>
<desc>lat.=44.459946, lon.=34.140598, Alt.=266.871338m. Speed=0.252000m/h.</desc>
<speed>0.070000</speed>
</trkpt>
<trkpt lat="44.459919" lon="34.140579">
<ele>265.613525</ele>
<time>2011-10-13T12:15:46Z</time>
<desc>lat.=44.459919, lon.=34.140579, Alt.=265.613525m. Speed=0.144000m/h.</desc>
<speed>0.040000</speed>
</trkpt>
<trkpt lat="44.459881" lon="34.140564">
<ele>263.355713</ele>
<time>2011-10-13T12:15:51Z</time>
<desc>lat.=44.459881, lon.=34.140564, Alt.=263.355713m. Speed=0.252000m/h.</desc>
<speed>0.070000</speed>
</trkpt>
<trkpt lat="44.459866" lon="34.140526">
<ele>259.191650</ele>
<time>2011-10-13T12:15:56Z</time>
<desc>lat.=44.459866, lon.=34.140526, Alt.=259.191650m. Speed=0.072000m/h.</desc>
<speed>0.020000</speed>
</trkpt>
<trkpt lat="44.459839" lon="34.140499">
<ele>256.676025</ele>
<time>2011-10-13T12:16:01Z</time>
<desc>lat.=44.459839, lon.=34.140499, Alt.=256.676025m. Speed=0.036000m/h.</desc>
<speed>0.010000</speed>
</trkpt>
<trkpt lat="44.459801" lon="34.140476">
<ele>252.029419</ele>
<time>2011-10-13T12:16:06Z</time>
<desc>lat.=44.459801, lon.=34.140476, Alt.=252.029419m. Speed=0.108000m/h.</desc>
<speed>0.030000</speed>
</trkpt>
<trkpt lat="44.459770" lon="34.140442">
<ele>248.232544</ele>
<time>2011-10-13T12:16:11Z</time>
<desc>lat.=44.459770, lon.=34.140442, Alt.=248.232544m. Speed=0.396000m/h.</desc>
<speed>0.110000</speed>
</trkpt>
<trkpt lat="44.459717" lon="34.140438">
<ele>245.045044</ele>
<time>2011-10-13T12:16:16Z</time>
<desc>lat.=44.459717, lon.=34.140438, Alt.=245.045044m. Speed=0.324000m/h.</desc>
<speed>0.090000</speed>
</trkpt>
<trkpt lat="44.459656" lon="34.140453">
<ele>242.185669</ele>
<time>2011-10-13T12:16:21Z</time>
<desc>lat.=44.459656, lon.=34.140453, Alt.=242.185669m. Speed=0.612000m/h.</desc>
<speed>0.170000</speed>
</trkpt>
<trkpt lat="44.459610" lon="34.140430">
<ele>239.548950</ele>
<time>2011-10-13T12:16:26Z</time>
<desc>lat.=44.459610, lon.=34.140430, Alt.=239.548950m. Speed=0.684000m/h.</desc>
<speed>0.190000</speed>
</trkpt>
<trkpt lat="44.459560" lon="34.140415">
<ele>236.869263</ele>
<time>2011-10-13T12:16:31Z</time>
<desc>lat.=44.459560, lon.=34.140415, Alt.=236.869263m. Speed=1.008000m/h.</desc>
<speed>0.280000</speed>
</trkpt>
<trkpt lat="44.459473" lon="34.140385">
<ele>234.373169</ele>
<time>2011-10-13T12:16:36Z</time>
<desc>lat.=44.459473, lon.=34.140385, Alt.=234.373169m. Speed=4.068000m/h.</desc>
<speed>1.130000</speed>
</trkpt>
<trkpt lat="44.459408" lon="34.140282">
<ele>227.291138</ele>
<time>2011-10-13T12:16:41Z</time>
<desc>lat.=44.459408, lon.=34.140282, Alt.=227.291138m. Speed=3.168000m/h.</desc>
<speed>0.880000</speed>
</trkpt>
<trkpt lat="44.459354" lon="34.140171">
<ele>223.959106</ele>
<time>2011-10-13T12:16:46Z</time>
<desc>lat.=44.459354, lon.=34.140171, Alt.=223.959106m. Speed=1.260000m/h.</desc>
<speed>0.350000</speed>
</trkpt>
<trkpt lat="44.459335" lon="34.140110">
<ele>222.849731</ele>
<time>2011-10-13T12:16:51Z</time>
<desc>lat.=44.459335, lon.=34.140110, Alt.=222.849731m. Speed=0.432000m/h.</desc>
<speed>0.120000</speed>
</trkpt>
<trkpt lat="44.459305" lon="34.140125">
<ele>220.463013</ele>
<time>2011-10-13T12:16:56Z</time>
<desc>lat.=44.459305, lon.=34.140125, Alt.=220.463013m. Speed=0.180000m/h.</desc>
<speed>0.050000</speed>
</trkpt>
<trkpt lat="44.459297" lon="34.140121">
<ele>219.642700</ele>
<time>2011-10-13T12:17:01Z</time>
<desc>lat.=44.459297, lon.=34.140121, Alt.=219.642700m. Speed=0.468000m/h.</desc>
<speed>0.130000</speed>
</trkpt>
<trkpt lat="44.459297" lon="34.140129">
<ele>219.947388</ele>
<time>2011-10-13T12:17:06Z</time>
<desc>lat.=44.459297, lon.=34.140129, Alt.=219.947388m. Speed=0.324000m/h.</desc>
<speed>0.090000</speed>
</trkpt>
<trkpt lat="44.459297" lon="34.140133">
<ele>220.123169</ele>
<time>2011-10-13T12:17:11Z</time>
<desc>lat.=44.459297, lon.=34.140133, Alt.=220.123169m. Speed=0.180000m/h.</desc>
<speed>0.050000</speed>
</trkpt>
<trkpt lat="44.459297" lon="34.140133">
<ele>220.255981</ele>
<time>2011-10-13T12:17:16Z</time>
<desc>lat.=44.459297, lon.=34.140133, Alt.=220.255981m. Speed=0.108000m/h.</desc>
<speed>0.030000</speed>
</trkpt>
<trkpt lat="44.459301" lon="34.140133">
<ele>220.357544</ele>
<time>2011-10-13T12:17:21Z</time>
<desc>lat.=44.459301, lon.=34.140133, Alt.=220.357544m. Speed=0.072000m/h.</desc>
<speed>0.020000</speed>
</trkpt>
<trkpt lat="44.459297" lon="34.140133">
<ele>220.408325</ele>
<time>2011-10-13T12:17:26Z</time>
<desc>lat.=44.459297, lon.=34.140133, Alt.=220.408325m. Speed=0.036000m/h.</desc>
<speed>0.010000</speed>
</trkpt>
<trkpt lat="44.459297" lon="34.140133">
<ele>220.400513</ele>
<time>2011-10-13T12:17:31Z</time>
<desc>lat.=44.459297, lon.=34.140133, Alt.=220.400513m. Speed=0.108000m/h.</desc>
<speed>0.030000</speed>
</trkpt>
<trkpt lat="44.459297" lon="34.140129">
<ele>220.357544</ele>
<time>2011-10-13T12:17:36Z</time>
<desc>lat.=44.459297, lon.=34.140129, Alt.=220.357544m. Speed=0.288000m/h.</desc>
<speed>0.080000</speed>
</trkpt>
<trkpt lat="44.459282" lon="34.140087">
<ele>220.025513</ele>
<time>2011-10-13T12:17:41Z</time>
<desc>lat.=44.459282, lon.=34.140087, Alt.=220.025513m. Speed=3.132000m/h.</desc>
<speed>0.870000</speed>
</trkpt>
<trkpt lat="44.459244" lon="34.139938">
<ele>217.841919</ele>
<time>2011-10-13T12:17:46Z</time>
<desc>lat.=44.459244, lon.=34.139938, Alt.=217.841919m. Speed=6.624000m/h.</desc>
<speed>1.840000</speed>
</trkpt>
<trkpt lat="44.459187" lon="34.139748">
<ele>214.724731</ele>
<time>2011-10-13T12:17:51Z</time>
<desc>lat.=44.459187, lon.=34.139748, Alt.=214.724731m. Speed=5.004000m/h.</desc>
<speed>1.390000</speed>
</trkpt>
<trkpt lat="44.459137" lon="34.139580">
<ele>211.935669</ele>
<time>2011-10-13T12:17:56Z</time>
<desc>lat.=44.459137, lon.=34.139580, Alt.=211.935669m. Speed=4.752000m/h.</desc>
<speed>1.320000</speed>
</trkpt>
<trkpt lat="44.459034" lon="34.139473">
<ele>209.318481</ele>
<time>2011-10-13T12:18:01Z</time>
<desc>lat.=44.459034, lon.=34.139473, Alt.=209.318481m. Speed=1.440000m/h.</desc>
<speed>0.400000</speed>
</trkpt>
<trkpt lat="44.458969" lon="34.139381">
<ele>208.353638</ele>
<time>2011-10-13T12:18:06Z</time>
<desc>lat.=44.458969, lon.=34.139381, Alt.=208.353638m. Speed=2.520000m/h.</desc>
<speed>0.700000</speed>
</trkpt>
<trkpt lat="44.458965" lon="34.139282">
<ele>209.213013</ele>
<time>2011-10-13T12:18:11Z</time>
<desc>lat.=44.458965, lon.=34.139282, Alt.=209.213013m. Speed=5.256000m/h.</desc>
<speed>1.460000</speed>
</trkpt>
<trkpt lat="44.458874" lon="34.139225">
<ele>210.236450</ele>
<time>2011-10-13T12:18:16Z</time>
<desc>lat.=44.458874, lon.=34.139225, Alt.=210.236450m. Speed=3.024000m/h.</desc>
<speed>0.840000</speed>
</trkpt>
<trkpt lat="44.458775" lon="34.139214">
<ele>213.103638</ele>
<time>2011-10-13T12:18:21Z</time>
<desc>lat.=44.458775, lon.=34.139214, Alt.=213.103638m. Speed=5.832000m/h.</desc>
<speed>1.620000</speed>
</trkpt>
<trkpt lat="44.458698" lon="34.139145">
<ele>216.041138</ele>
<time>2011-10-13T12:18:26Z</time>
<desc>lat.=44.458698, lon.=34.139145, Alt.=216.041138m. Speed=3.024000m/h.</desc>
<speed>0.840000</speed>
</trkpt>
<trkpt lat="44.458649" lon="34.139072">
<ele>218.923950</ele>
<time>2011-10-13T12:18:31Z</time>
<desc>lat.=44.458649, lon.=34.139072, Alt.=218.923950m. Speed=3.672000m/h.</desc>
<speed>1.020000</speed>
</trkpt>
<trkpt lat="44.458546" lon="34.139057">
<ele>222.564575</ele>
<time>2011-10-13T12:18:36Z</time>
<desc>lat.=44.458546, lon.=34.139057, Alt.=222.564575m. Speed=5.616000m/h.</desc>
<speed>1.560000</speed>
</trkpt>
<trkpt lat="44.458458" lon="34.139050">
<ele>227.216919</ele>
<time>2011-10-13T12:18:41Z</time>
<desc>lat.=44.458458, lon.=34.139050, Alt.=227.216919m. Speed=2.628000m/h.</desc>
<speed>0.730000</speed>
</trkpt>
<trkpt lat="44.458431" lon="34.138935">
<ele>229.767700</ele>
<time>2011-10-13T12:18:46Z</time>
<desc>lat.=44.458431, lon.=34.138935, Alt.=229.767700m. Speed=0.396000m/h.</desc>
<speed>0.110000</speed>
</trkpt>
<trkpt lat="44.458389" lon="34.138714">
<ele>226.724731</ele>
<time>2011-10-13T12:18:51Z</time>
<desc>lat.=44.458389, lon.=34.138714, Alt.=226.724731m. Speed=0.540000m/h.</desc>
<speed>0.150000</speed>
</trkpt>
<trkpt lat="44.458294" lon="34.138580">
<ele>220.127075</ele>
<time>2011-10-13T12:18:56Z</time>
<desc>lat.=44.458294, lon.=34.138580, Alt.=220.127075m. Speed=0.252000m/h.</desc>
<speed>0.070000</speed>
</trkpt>
<trkpt lat="44.458241" lon="34.138546">
<ele>216.873169</ele>
<time>2011-10-13T12:19:01Z</time>
<desc>lat.=44.458241, lon.=34.138546, Alt.=216.873169m. Speed=0.252000m/h.</desc>
<speed>0.070000</speed>
</trkpt>
<trkpt lat="44.458183" lon="34.138470">
<ele>210.263794</ele>
<time>2011-10-13T12:19:06Z</time>
<desc>lat.=44.458183, lon.=34.138470, Alt.=210.263794m. Speed=0.576000m/h.</desc>
<speed>0.160000</speed>
</trkpt>
<trkpt lat="44.458153" lon="34.138474">
<ele>207.580200</ele>
<time>2011-10-13T12:19:11Z</time>
<desc>lat.=44.458153, lon.=34.138474, Alt.=207.580200m. Speed=0.936000m/h.</desc>
<speed>0.260000</speed>
</trkpt>
<trkpt lat="44.458107" lon="34.138489">
<ele>205.275513</ele>
<time>2011-10-13T12:19:16Z</time>
<desc>lat.=44.458107, lon.=34.138489, Alt.=205.275513m. Speed=0.828000m/h.</desc>
<speed>0.230000</speed>
</trkpt>
<trkpt lat="44.458092" lon="34.138504">
<ele>203.338013</ele>
<time>2011-10-13T12:19:21Z</time>
<desc>lat.=44.458092, lon.=34.138504, Alt.=203.338013m. Speed=0.504000m/h.</desc>
<speed>0.140000</speed>
</trkpt>
<trkpt lat="44.458088" lon="34.138508">
<ele>203.088013</ele>
<time>2011-10-13T12:19:26Z</time>
<desc>lat.=44.458088, lon.=34.138508, Alt.=203.088013m. Speed=0.288000m/h.</desc>
<speed>0.080000</speed>
</trkpt>
<trkpt lat="44.458088" lon="34.138508">
<ele>202.810669</ele>
<time>2011-10-13T12:19:31Z</time>
<desc>lat.=44.458088, lon.=34.138508, Alt.=202.810669m. Speed=0.468000m/h.</desc>
<speed>0.130000</speed>
</trkpt>
<trkpt lat="44.458084" lon="34.138512">
<ele>202.490356</ele>
<time>2011-10-13T12:19:36Z</time>
<desc>lat.=44.458084, lon.=34.138512, Alt.=202.490356m. Speed=0.972000m/h.</desc>
<speed>0.270000</speed>
</trkpt>
<trkpt lat="44.458080" lon="34.138519">
<ele>202.701294</ele>
<time>2011-10-13T12:19:41Z</time>
<desc>lat.=44.458080, lon.=34.138519, Alt.=202.701294m. Speed=0.756000m/h.</desc>
<speed>0.210000</speed>
</trkpt>
<trkpt lat="44.458073" lon="34.138531">
<ele>202.752075</ele>
<time>2011-10-13T12:19:46Z</time>
<desc>lat.=44.458073, lon.=34.138531, Alt.=202.752075m. Speed=0.504000m/h.</desc>
<speed>0.140000</speed>
</trkpt>
<trkpt lat="44.458065" lon="34.138535">
<ele>202.759888</ele>
<time>2011-10-13T12:19:51Z</time>
<desc>lat.=44.458065, lon.=34.138535, Alt.=202.759888m. Speed=1.044000m/h.</desc>
<speed>0.290000</speed>
</trkpt>
<trkpt lat="44.457981" lon="34.138500">
<ele>201.584106</ele>
<time>2011-10-13T12:19:56Z</time>
<desc>lat.=44.457981, lon.=34.138500, Alt.=201.584106m. Speed=1.836000m/h.</desc>
<speed>0.510000</speed>
</trkpt>
<trkpt lat="44.457935" lon="34.138477">
<ele>200.720825</ele>
<time>2011-10-13T12:20:01Z</time>
<desc>lat.=44.457935, lon.=34.138477, Alt.=200.720825m. Speed=1.692000m/h.</desc>
<speed>0.470000</speed>
</trkpt>
<trkpt lat="44.457912" lon="34.138493">
<ele>191.482544</ele>
<time>2011-10-13T12:20:06Z</time>
<desc>lat.=44.457912, lon.=34.138493, Alt.=191.482544m. Speed=0.684000m/h.</desc>
<speed>0.190000</speed>
</trkpt>
<trkpt lat="44.457901" lon="34.138496">
<ele>191.412231</ele>
<time>2011-10-13T12:20:11Z</time>
<desc>lat.=44.457901, lon.=34.138496, Alt.=191.412231m. Speed=0.540000m/h.</desc>
<speed>0.150000</speed>
</trkpt>
<trkpt lat="44.457897" lon="34.138493">
<ele>191.334106</ele>
<time>2011-10-13T12:20:16Z</time>
<desc>lat.=44.457897, lon.=34.138493, Alt.=191.334106m. Speed=0.432000m/h.</desc>
<speed>0.120000</speed>
</trkpt>
<trkpt lat="44.457890" lon="34.138489">
<ele>191.310669</ele>
<time>2011-10-13T12:20:21Z</time>
<desc>lat.=44.457890, lon.=34.138489, Alt.=191.310669m. Speed=0.288000m/h.</desc>
<speed>0.080000</speed>
</trkpt>
<trkpt lat="44.457890" lon="34.138485">
<ele>191.263794</ele>
<time>2011-10-13T12:20:26Z</time>
<desc>lat.=44.457890, lon.=34.138485, Alt.=191.263794m. Speed=0.288000m/h.</desc>
<speed>0.080000</speed>
</trkpt>
<trkpt lat="44.457886" lon="34.138477">
<ele>191.228638</ele>
<time>2011-10-13T12:20:31Z</time>
<desc>lat.=44.457886, lon.=34.138477, Alt.=191.228638m. Speed=0.540000m/h.</desc>
<speed>0.150000</speed>
</trkpt>
<trkpt lat="44.457878" lon="34.138470">
<ele>190.966919</ele>
<time>2011-10-13T12:20:36Z</time>
<desc>lat.=44.457878, lon.=34.138470, Alt.=190.966919m. Speed=0.288000m/h.</desc>
<speed>0.080000</speed>
</trkpt>
<trkpt lat="44.457874" lon="34.138466">
<ele>190.834106</ele>
<time>2011-10-13T12:20:41Z</time>
<desc>lat.=44.457874, lon.=34.138466, Alt.=190.834106m. Speed=0.108000m/h.</desc>
<speed>0.030000</speed>
</trkpt>
<trkpt lat="44.457870" lon="34.138466">
<ele>190.716919</ele>
<time>2011-10-13T12:20:46Z</time>
<desc>lat.=44.457870, lon.=34.138466, Alt.=190.716919m. Speed=0.468000m/h.</desc>
<speed>0.130000</speed>
</trkpt>
<trkpt lat="44.457867" lon="34.138470">
<ele>190.713013</ele>
<time>2011-10-13T12:20:51Z</time>
<desc>lat.=44.457867, lon.=34.138470, Alt.=190.713013m. Speed=0.468000m/h.</desc>
<speed>0.130000</speed>
</trkpt>
<trkpt lat="44.457863" lon="34.138474">
<ele>190.630981</ele>
<time>2011-10-13T12:20:56Z</time>
<desc>lat.=44.457863, lon.=34.138474, Alt.=190.630981m. Speed=0.612000m/h.</desc>
<speed>0.170000</speed>
</trkpt>
<trkpt lat="44.457859" lon="34.138470">
<ele>190.420044</ele>
<time>2011-10-13T12:21:01Z</time>
<desc>lat.=44.457859, lon.=34.138470, Alt.=190.420044m. Speed=0.648000m/h.</desc>
<speed>0.180000</speed>
</trkpt>
<trkpt lat="44.457863" lon="34.138470">
<ele>190.353638</ele>
<time>2011-10-13T12:21:06Z</time>
<desc>lat.=44.457863, lon.=34.138470, Alt.=190.353638m. Speed=0.216000m/h.</desc>
<speed>0.060000</speed>
</trkpt>
<trkpt lat="44.457859" lon="34.138470">
<ele>190.306763</ele>
<time>2011-10-13T12:21:11Z</time>
<desc>lat.=44.457859, lon.=34.138470, Alt.=190.306763m. Speed=0.000000m/h.</desc>
<speed>0.000000</speed>
</trkpt>
<trkpt lat="44.457859" lon="34.138474">
<ele>190.361450</ele>
<time>2011-10-13T12:21:16Z</time>
<desc>lat.=44.457859, lon.=34.138474, Alt.=190.361450m. Speed=1.332000m/h.</desc>
<speed>0.370000</speed>
</trkpt>
<trkpt lat="44.457859" lon="34.138481">
<ele>190.451294</ele>
<time>2011-10-13T12:21:21Z</time>
<desc>lat.=44.457859, lon.=34.138481, Alt.=190.451294m. Speed=0.432000m/h.</desc>
<speed>0.120000</speed>
</trkpt>
<trkpt lat="44.457870" lon="34.138470">
<ele>190.228638</ele>
<time>2011-10-13T12:21:26Z</time>
<desc>lat.=44.457870, lon.=34.138470, Alt.=190.228638m. Speed=1.440000m/h.</desc>
<speed>0.400000</speed>
</trkpt>
<trkpt lat="44.457840" lon="34.138424">
<ele>189.486450</ele>
<time>2011-10-13T12:21:31Z</time>
<desc>lat.=44.457840, lon.=34.138424, Alt.=189.486450m. Speed=3.852000m/h.</desc>
<speed>1.070000</speed>
</trkpt>
<trkpt lat="44.457783" lon="34.138302">
<ele>187.841919</ele>
<time>2011-10-13T12:21:36Z</time>
<desc>lat.=44.457783, lon.=34.138302, Alt.=187.841919m. Speed=3.960000m/h.</desc>
<speed>1.100000</speed>
</trkpt>
<trkpt lat="44.457771" lon="34.138210">
<ele>187.295044</ele>
<time>2011-10-13T12:21:41Z</time>
<desc>lat.=44.457771, lon.=34.138210, Alt.=187.295044m. Speed=3.708000m/h.</desc>
<speed>1.030000</speed>
</trkpt>
<trkpt lat="44.457771" lon="34.138065">
<ele>186.955200</ele>
<time>2011-10-13T12:21:46Z</time>
<desc>lat.=44.457771, lon.=34.138065, Alt.=186.955200m. Speed=4.644000m/h.</desc>
<speed>1.290000</speed>
</trkpt>
<trkpt lat="44.457737" lon="34.137909">
<ele>187.252075</ele>
<time>2011-10-13T12:21:51Z</time>
<desc>lat.=44.457737, lon.=34.137909, Alt.=187.252075m. Speed=4.104000m/h.</desc>
<speed>1.140000</speed>
</trkpt>
<trkpt lat="44.457748" lon="34.137726">
<ele>188.748169</ele>
<time>2011-10-13T12:21:56Z</time>
<desc>lat.=44.457748, lon.=34.137726, Alt.=188.748169m. Speed=11.124000m/h.</desc>
<speed>3.090000</speed>
</trkpt>
<trkpt lat="44.457726" lon="34.137653">
<ele>192.603638</ele>
<time>2011-10-13T12:22:01Z</time>
<desc>lat.=44.457726, lon.=34.137653, Alt.=192.603638m. Speed=3.096000m/h.</desc>
<speed>0.860000</speed>
</trkpt>
<trkpt lat="44.457714" lon="34.137630">
<ele>196.326294</ele>
<time>2011-10-13T12:22:06Z</time>
<desc>lat.=44.457714, lon.=34.137630, Alt.=196.326294m. Speed=0.972000m/h.</desc>
<speed>0.270000</speed>
</trkpt>
<trkpt lat="44.457706" lon="34.137634">
<ele>197.322388</ele>
<time>2011-10-13T12:22:11Z</time>
<desc>lat.=44.457706, lon.=34.137634, Alt.=197.322388m. Speed=0.684000m/h.</desc>
<speed>0.190000</speed>
</trkpt>
<trkpt lat="44.457748" lon="34.137642">
<ele>197.490356</ele>
<time>2011-10-13T12:22:16Z</time>
<desc>lat.=44.457748, lon.=34.137642, Alt.=197.490356m. Speed=1.044000m/h.</desc>
<speed>0.290000</speed>
</trkpt>
<trkpt lat="44.457775" lon="34.137550">
<ele>197.388794</ele>
<time>2011-10-13T12:22:21Z</time>
<desc>lat.=44.457775, lon.=34.137550, Alt.=197.388794m. Speed=1.476000m/h.</desc>
<speed>0.410000</speed>
</trkpt>
<trkpt lat="44.457832" lon="34.137413">
<ele>196.654419</ele>
<time>2011-10-13T12:22:26Z</time>
<desc>lat.=44.457832, lon.=34.137413, Alt.=196.654419m. Speed=2.520000m/h.</desc>
<speed>0.700000</speed>
</trkpt>
<trkpt lat="44.457878" lon="34.137306">
<ele>196.224731</ele>
<time>2011-10-13T12:22:31Z</time>
<desc>lat.=44.457878, lon.=34.137306, Alt.=196.224731m. Speed=2.268000m/h.</desc>
<speed>0.630000</speed>
</trkpt>
<trkpt lat="44.457920" lon="34.137226">
<ele>195.572388</ele>
<time>2011-10-13T12:22:36Z</time>
<desc>lat.=44.457920, lon.=34.137226, Alt.=195.572388m. Speed=2.124000m/h.</desc>
<speed>0.590000</speed>
</trkpt>
<trkpt lat="44.457951" lon="34.137161">
<ele>194.572388</ele>
<time>2011-10-13T12:22:41Z</time>
<desc>lat.=44.457951, lon.=34.137161, Alt.=194.572388m. Speed=1.800000m/h.</desc>
<speed>0.500000</speed>
</trkpt>
<trkpt lat="44.457993" lon="34.137085">
<ele>194.525513</ele>
<time>2011-10-13T12:22:46Z</time>
<desc>lat.=44.457993, lon.=34.137085, Alt.=194.525513m. Speed=2.124000m/h.</desc>
<speed>0.590000</speed>
</trkpt>
<trkpt lat="44.457993" lon="34.137104">
<ele>193.990356</ele>
<time>2011-10-13T12:22:51Z</time>
<desc>lat.=44.457993, lon.=34.137104, Alt.=193.990356m. Speed=3.060000m/h.</desc>
<speed>0.850000</speed>
</trkpt>
<trkpt lat="44.458069" lon="34.136974">
<ele>191.853638</ele>
<time>2011-10-13T12:22:56Z</time>
<desc>lat.=44.458069, lon.=34.136974, Alt.=191.853638m. Speed=4.536000m/h.</desc>
<speed>1.260000</speed>
</trkpt>
<trkpt lat="44.458138" lon="34.136929">
<ele>191.486450</ele>
<time>2011-10-13T12:23:01Z</time>
<desc>lat.=44.458138, lon.=34.136929, Alt.=191.486450m. Speed=0.864000m/h.</desc>
<speed>0.240000</speed>
</trkpt>
<trkpt lat="44.458210" lon="34.136902">
<ele>191.162231</ele>
<time>2011-10-13T12:23:06Z</time>
<desc>lat.=44.458210, lon.=34.136902, Alt.=191.162231m. Speed=1.548000m/h.</desc>
<speed>0.430000</speed>
</trkpt>
<trkpt lat="44.458256" lon="34.136845">
<ele>191.037231</ele>
<time>2011-10-13T12:23:11Z</time>
<desc>lat.=44.458256, lon.=34.136845, Alt.=191.037231m. Speed=2.448000m/h.</desc>
<speed>0.680000</speed>
</trkpt>
<trkpt lat="44.458336" lon="34.136768">
<ele>190.076294</ele>
<time>2011-10-13T12:23:16Z</time>
<desc>lat.=44.458336, lon.=34.136768, Alt.=190.076294m. Speed=0.324000m/h.</desc>
<speed>0.090000</speed>
</trkpt>
<trkpt lat="44.458385" lon="34.136768">
<ele>189.088013</ele>
<time>2011-10-13T12:23:21Z</time>
<desc>lat.=44.458385, lon.=34.136768, Alt.=189.088013m. Speed=1.620000m/h.</desc>
<speed>0.450000</speed>
</trkpt>
<trkpt lat="44.458389" lon="34.136799">
<ele>188.291138</ele>
<time>2011-10-13T12:23:26Z</time>
<desc>lat.=44.458389, lon.=34.136799, Alt.=188.291138m. Speed=0.324000m/h.</desc>
<speed>0.090000</speed>
</trkpt>
<trkpt lat="44.458382" lon="34.136871">
<ele>187.267700</ele>
<time>2011-10-13T12:23:31Z</time>
<desc>lat.=44.458382, lon.=34.136871, Alt.=187.267700m. Speed=1.620000m/h.</desc>
<speed>0.450000</speed>
</trkpt>
<trkpt lat="44.458359" lon="34.136906">
<ele>186.670044</ele>
<time>2011-10-13T12:23:36Z</time>
<desc>lat.=44.458359, lon.=34.136906, Alt.=186.670044m. Speed=1.584000m/h.</desc>
<speed>0.440000</speed>
</trkpt>
<trkpt lat="44.458324" lon="34.136852">
<ele>186.373169</ele>
<time>2011-10-13T12:23:41Z</time>
<desc>lat.=44.458324, lon.=34.136852, Alt.=186.373169m. Speed=1.260000m/h.</desc>
<speed>0.350000</speed>
</trkpt>
<trkpt lat="44.458298" lon="34.136803">
<ele>185.369263</ele>
<time>2011-10-13T12:23:46Z</time>
<desc>lat.=44.458298, lon.=34.136803, Alt.=185.369263m. Speed=1.512000m/h.</desc>
<speed>0.420000</speed>
</trkpt>
<trkpt lat="44.458267" lon="34.136745">
<ele>184.021606</ele>
<time>2011-10-13T12:23:51Z</time>
<desc>lat.=44.458267, lon.=34.136745, Alt.=184.021606m. Speed=2.052000m/h.</desc>
<speed>0.570000</speed>
</trkpt>
<trkpt lat="44.458241" lon="34.136673">
<ele>181.748169</ele>
<time>2011-10-13T12:23:56Z</time>
<desc>lat.=44.458241, lon.=34.136673, Alt.=181.748169m. Speed=2.016000m/h.</desc>
<speed>0.560000</speed>
</trkpt>
<trkpt lat="44.458210" lon="34.136597">
<ele>181.521606</ele>
<time>2011-10-13T12:24:01Z</time>
<desc>lat.=44.458210, lon.=34.136597, Alt.=181.521606m. Speed=2.052000m/h.</desc>
<speed>0.570000</speed>
</trkpt>
<trkpt lat="44.458179" lon="34.136551">
<ele>181.322388</ele>
<time>2011-10-13T12:24:06Z</time>
<desc>lat.=44.458179, lon.=34.136551, Alt.=181.322388m. Speed=2.232000m/h.</desc>
<speed>0.620000</speed>
</trkpt>
<trkpt lat="44.458141" lon="34.136528">
<ele>181.170044</ele>
<time>2011-10-13T12:24:11Z</time>
<desc>lat.=44.458141, lon.=34.136528, Alt.=181.170044m. Speed=1.692000m/h.</desc>
<speed>0.470000</speed>
</trkpt>
<trkpt lat="44.458092" lon="34.136478">
<ele>181.345825</ele>
<time>2011-10-13T12:24:16Z</time>
<desc>lat.=44.458092, lon.=34.136478, Alt.=181.345825m. Speed=2.016000m/h.</desc>
<speed>0.560000</speed>
</trkpt>
<trkpt lat="44.458008" lon="34.136444">
<ele>182.107544</ele>
<time>2011-10-13T12:24:21Z</time>
<desc>lat.=44.458008, lon.=34.136444, Alt.=182.107544m. Speed=2.952000m/h.</desc>
<speed>0.820000</speed>
</trkpt>
<trkpt lat="44.457909" lon="34.136383">
<ele>183.224731</ele>
<time>2011-10-13T12:24:26Z</time>
<desc>lat.=44.457909, lon.=34.136383, Alt.=183.224731m. Speed=3.060000m/h.</desc>
<speed>0.850000</speed>
</trkpt>
<trkpt lat="44.457771" lon="34.136387">
<ele>184.877075</ele>
<time>2011-10-13T12:24:31Z</time>
<desc>lat.=44.457771, lon.=34.136387, Alt.=184.877075m. Speed=3.636000m/h.</desc>
<speed>1.010000</speed>
</trkpt>
<trkpt lat="44.457684" lon="34.136383">
<ele>186.900513</ele>
<time>2011-10-13T12:24:36Z</time>
<desc>lat.=44.457684, lon.=34.136383, Alt.=186.900513m. Speed=3.744000m/h.</desc>
<speed>1.040000</speed>
</trkpt>
<trkpt lat="44.457550" lon="34.136314">
<ele>190.529419</ele>
<time>2011-10-13T12:24:41Z</time>
<desc>lat.=44.457550, lon.=34.136314, Alt.=190.529419m. Speed=6.372000m/h.</desc>
<speed>1.770000</speed>
</trkpt>
<trkpt lat="44.457447" lon="34.136230">
<ele>193.591919</ele>
<time>2011-10-13T12:24:46Z</time>
<desc>lat.=44.457447, lon.=34.136230, Alt.=193.591919m. Speed=3.708000m/h.</desc>
<speed>1.030000</speed>
</trkpt>
<trkpt lat="44.457355" lon="34.136147">
<ele>196.810669</ele>
<time>2011-10-13T12:24:51Z</time>
<desc>lat.=44.457355, lon.=34.136147, Alt.=196.810669m. Speed=5.076000m/h.</desc>
<speed>1.410000</speed>
</trkpt>
<trkpt lat="44.457233" lon="34.135986">
<ele>200.181763</ele>
<time>2011-10-13T12:24:56Z</time>
<desc>lat.=44.457233, lon.=34.135986, Alt.=200.181763m. Speed=1.728000m/h.</desc>
<speed>0.480000</speed>
</trkpt>
<trkpt lat="44.457138" lon="34.135742">
<ele>203.646606</ele>
<time>2011-10-13T12:25:01Z</time>
<desc>lat.=44.457138, lon.=34.135742, Alt.=203.646606m. Speed=1.152000m/h.</desc>
<speed>0.320000</speed>
</trkpt>
<trkpt lat="44.457043" lon="34.135643">
<ele>206.005981</ele>
<time>2011-10-13T12:25:06Z</time>
<desc>lat.=44.457043, lon.=34.135643, Alt.=206.005981m. Speed=0.612000m/h.</desc>
<speed>0.170000</speed>
</trkpt>
<trkpt lat="44.456959" lon="34.135601">
<ele>208.146606</ele>
<time>2011-10-13T12:25:11Z</time>
<desc>lat.=44.456959, lon.=34.135601, Alt.=208.146606m. Speed=3.348000m/h.</desc>
<speed>0.930000</speed>
</trkpt>
<trkpt lat="44.456821" lon="34.135601">
<ele>211.966919</ele>
<time>2011-10-13T12:25:16Z</time>
<desc>lat.=44.456821, lon.=34.135601, Alt.=211.966919m. Speed=6.984000m/h.</desc>
<speed>1.940000</speed>
</trkpt>
<trkpt lat="44.456673" lon="34.135551">
<ele>216.388794</ele>
<time>2011-10-13T12:25:21Z</time>
<desc>lat.=44.456673, lon.=34.135551, Alt.=216.388794m. Speed=9.612000m/h.</desc>
<speed>2.670000</speed>
</trkpt>
<trkpt lat="44.456543" lon="34.135502">
<ele>222.900513</ele>
<time>2011-10-13T12:25:26Z</time>
<desc>lat.=44.456543, lon.=34.135502, Alt.=222.900513m. Speed=7.128000m/h.</desc>
<speed>1.980000</speed>
</trkpt>
<trkpt lat="44.456394" lon="34.135464">
<ele>225.302856</ele>
<time>2011-10-13T12:25:31Z</time>
<desc>lat.=44.456394, lon.=34.135464, Alt.=225.302856m. Speed=2.736000m/h.</desc>
<speed>0.760000</speed>
</trkpt>
<trkpt lat="44.456253" lon="34.135376">
<ele>228.076294</ele>
<time>2011-10-13T12:25:36Z</time>
<desc>lat.=44.456253, lon.=34.135376, Alt.=228.076294m. Speed=4.140000m/h.</desc>
<speed>1.150000</speed>
</trkpt>
<trkpt lat="44.456135" lon="34.135231">
<ele>230.431763</ele>
<time>2011-10-13T12:25:41Z</time>
<desc>lat.=44.456135, lon.=34.135231, Alt.=230.431763m. Speed=3.852000m/h.</desc>
<speed>1.070000</speed>
</trkpt>
<trkpt lat="44.456062" lon="34.135078">
<ele>232.271606</ele>
<time>2011-10-13T12:25:46Z</time>
<desc>lat.=44.456062, lon.=34.135078, Alt.=232.271606m. Speed=1.116000m/h.</desc>
<speed>0.310000</speed>
</trkpt>
<trkpt lat="44.456017" lon="34.134968">
<ele>232.548950</ele>
<time>2011-10-13T12:25:51Z</time>
<desc>lat.=44.456017, lon.=34.134968, Alt.=232.548950m. Speed=2.016000m/h.</desc>
<speed>0.560000</speed>
</trkpt>
<trkpt lat="44.455978" lon="34.134857">
<ele>232.064575</ele>
<time>2011-10-13T12:25:56Z</time>
<desc>lat.=44.455978, lon.=34.134857, Alt.=232.064575m. Speed=1.512000m/h.</desc>
<speed>0.420000</speed>
</trkpt>
<trkpt lat="44.455944" lon="34.134777">
<ele>231.138794</ele>
<time>2011-10-13T12:26:01Z</time>
<desc>lat.=44.455944, lon.=34.134777, Alt.=231.138794m. Speed=2.700000m/h.</desc>
<speed>0.750000</speed>
</trkpt>
<trkpt lat="44.455894" lon="34.134701">
<ele>230.275513</ele>
<time>2011-10-13T12:26:06Z</time>
<desc>lat.=44.455894, lon.=34.134701, Alt.=230.275513m. Speed=1.044000m/h.</desc>
<speed>0.290000</speed>
</trkpt>
<trkpt lat="44.455833" lon="34.134640">
<ele>229.326294</ele>
<time>2011-10-13T12:26:11Z</time>
<desc>lat.=44.455833, lon.=34.134640, Alt.=229.326294m. Speed=1.692000m/h.</desc>
<speed>0.470000</speed>
</trkpt>
<trkpt lat="44.455803" lon="34.134548">
<ele>227.423950</ele>
<time>2011-10-13T12:26:16Z</time>
<desc>lat.=44.455803, lon.=34.134548, Alt.=227.423950m. Speed=2.340000m/h.</desc>
<speed>0.650000</speed>
</trkpt>
<trkpt lat="44.455753" lon="34.134403">
<ele>224.959106</ele>
<time>2011-10-13T12:26:21Z</time>
<desc>lat.=44.455753, lon.=34.134403, Alt.=224.959106m. Speed=2.556000m/h.</desc>
<speed>0.710000</speed>
</trkpt>
<trkpt lat="44.455685" lon="34.134392">
<ele>221.904419</ele>
<time>2011-10-13T12:26:26Z</time>
<desc>lat.=44.455685, lon.=34.134392, Alt.=221.904419m. Speed=2.988000m/h.</desc>
<speed>0.830000</speed>
</trkpt>
<trkpt lat="44.455620" lon="34.134354">
<ele>220.416138</ele>
<time>2011-10-13T12:26:31Z</time>
<desc>lat.=44.455620, lon.=34.134354, Alt.=220.416138m. Speed=3.204000m/h.</desc>
<speed>0.890000</speed>
</trkpt>
<trkpt lat="44.455620" lon="34.134209">
<ele>217.216919</ele>
<time>2011-10-13T12:26:36Z</time>
<desc>lat.=44.455620, lon.=34.134209, Alt.=217.216919m. Speed=1.152000m/h.</desc>
<speed>0.320000</speed>
</trkpt>
<trkpt lat="44.455589" lon="34.134178">
<ele>215.463013</ele>
<time>2011-10-13T12:26:41Z</time>
<desc>lat.=44.455589, lon.=34.134178, Alt.=215.463013m. Speed=1.548000m/h.</desc>
<speed>0.430000</speed>
</trkpt>
<trkpt lat="44.455544" lon="34.134136">
<ele>214.599731</ele>
<time>2011-10-13T12:26:46Z</time>
<desc>lat.=44.455544, lon.=34.134136, Alt.=214.599731m. Speed=2.484000m/h.</desc>
<speed>0.690000</speed>
</trkpt>
<trkpt lat="44.455475" lon="34.134102">
<ele>213.685669</ele>
<time>2011-10-13T12:26:51Z</time>
<desc>lat.=44.455475, lon.=34.134102, Alt.=213.685669m. Speed=3.384000m/h.</desc>
<speed>0.940000</speed>
</trkpt>
<trkpt lat="44.455376" lon="34.134087">
<ele>213.095825</ele>
<time>2011-10-13T12:26:56Z</time>
<desc>lat.=44.455376, lon.=34.134087, Alt.=213.095825m. Speed=4.176000m/h.</desc>
<speed>1.160000</speed>
</trkpt>
<trkpt lat="44.455330" lon="34.134048">
<ele>212.709106</ele>
<time>2011-10-13T12:27:01Z</time>
<desc>lat.=44.455330, lon.=34.134048, Alt.=212.709106m. Speed=2.340000m/h.</desc>
<speed>0.650000</speed>
</trkpt>
<trkpt lat="44.455238" lon="34.134003">
<ele>211.060669</ele>
<time>2011-10-13T12:27:06Z</time>
<desc>lat.=44.455238, lon.=34.134003, Alt.=211.060669m. Speed=2.952000m/h.</desc>
<speed>0.820000</speed>
</trkpt>
<trkpt lat="44.455097" lon="34.133915">
<ele>207.193481</ele>
<time>2011-10-13T12:27:11Z</time>
<desc>lat.=44.455097, lon.=34.133915, Alt.=207.193481m. Speed=3.240000m/h.</desc>
<speed>0.900000</speed>
</trkpt>
<trkpt lat="44.455009" lon="34.133755">
<ele>204.654419</ele>
<time>2011-10-13T12:27:16Z</time>
<desc>lat.=44.455009, lon.=34.133755, Alt.=204.654419m. Speed=3.996000m/h.</desc>
<speed>1.110000</speed>
</trkpt>
<trkpt lat="44.454926" lon="34.133614">
<ele>204.205200</ele>
<time>2011-10-13T12:27:21Z</time>
<desc>lat.=44.454926, lon.=34.133614, Alt.=204.205200m. Speed=4.536000m/h.</desc>
<speed>1.260000</speed>
</trkpt>
<trkpt lat="44.454865" lon="34.133469">
<ele>204.521606</ele>
<time>2011-10-13T12:27:26Z</time>
<desc>lat.=44.454865, lon.=34.133469, Alt.=204.521606m. Speed=8.208000m/h.</desc>
<speed>2.280000</speed>
</trkpt>
<trkpt lat="44.454777" lon="34.133247">
<ele>206.474731</ele>
<time>2011-10-13T12:27:31Z</time>
<desc>lat.=44.454777, lon.=34.133247, Alt.=206.474731m. Speed=11.340000m/h.</desc>
<speed>3.150000</speed>
</trkpt>
<trkpt lat="44.454731" lon="34.133064">
<ele>206.142700</ele>
<time>2011-10-13T12:27:36Z</time>
<desc>lat.=44.454731, lon.=34.133064, Alt.=206.142700m. Speed=4.068000m/h.</desc>
<speed>1.130000</speed>
</trkpt>
<trkpt lat="44.454727" lon="34.132969">
<ele>204.123169</ele>
<time>2011-10-13T12:27:41Z</time>
<desc>lat.=44.454727, lon.=34.132969, Alt.=204.123169m. Speed=2.232000m/h.</desc>
<speed>0.620000</speed>
</trkpt>
<trkpt lat="44.454723" lon="34.132942">
<ele>201.451294</ele>
<time>2011-10-13T12:27:46Z</time>
<desc>lat.=44.454723, lon.=34.132942, Alt.=201.451294m. Speed=0.756000m/h.</desc>
<speed>0.210000</speed>
</trkpt>
<trkpt lat="44.454685" lon="34.132885">
<ele>201.279419</ele>
<time>2011-10-13T12:27:51Z</time>
<desc>lat.=44.454685, lon.=34.132885, Alt.=201.279419m. Speed=1.044000m/h.</desc>
<speed>0.290000</speed>
</trkpt>
<trkpt lat="44.454674" lon="34.132767">
<ele>201.787231</ele>
<time>2011-10-13T12:27:56Z</time>
<desc>lat.=44.454674, lon.=34.132767, Alt.=201.787231m. Speed=1.332000m/h.</desc>
<speed>0.370000</speed>
</trkpt>
<trkpt lat="44.454636" lon="34.132698">
<ele>195.888794</ele>
<time>2011-10-13T12:28:01Z</time>
<desc>lat.=44.454636, lon.=34.132698, Alt.=195.888794m. Speed=1.944000m/h.</desc>
<speed>0.540000</speed>
</trkpt>
<trkpt lat="44.454460" lon="34.132526">
<ele>194.740356</ele>
<time>2011-10-13T12:28:06Z</time>
<desc>lat.=44.454460, lon.=34.132526, Alt.=194.740356m. Speed=0.864000m/h.</desc>
<speed>0.240000</speed>
</trkpt>
<trkpt lat="44.454414" lon="34.132412">
<ele>192.396606</ele>
<time>2011-10-13T12:28:11Z</time>
<desc>lat.=44.454414, lon.=34.132412, Alt.=192.396606m. Speed=0.432000m/h.</desc>
<speed>0.120000</speed>
</trkpt>
<trkpt lat="44.454399" lon="34.132324">
<ele>189.822388</ele>
<time>2011-10-13T12:28:16Z</time>
<desc>lat.=44.454399, lon.=34.132324, Alt.=189.822388m. Speed=0.720000m/h.</desc>
<speed>0.200000</speed>
</trkpt>
<trkpt lat="44.454380" lon="34.132259">
<ele>181.021606</ele>
<time>2011-10-13T12:28:21Z</time>
<desc>lat.=44.454380, lon.=34.132259, Alt.=181.021606m. Speed=2.664000m/h.</desc>
<speed>0.740000</speed>
</trkpt>
<trkpt lat="44.454399" lon="34.132156">
<ele>177.947388</ele>
<time>2011-10-13T12:28:26Z</time>
<desc>lat.=44.454399, lon.=34.132156, Alt.=177.947388m. Speed=1.980000m/h.</desc>
<speed>0.550000</speed>
</trkpt>
<trkpt lat="44.454441" lon="34.132057">
<ele>173.482544</ele>
<time>2011-10-13T12:28:31Z</time>
<desc>lat.=44.454441, lon.=34.132057, Alt.=173.482544m. Speed=2.340000m/h.</desc>
<speed>0.650000</speed>
</trkpt>
<trkpt lat="44.454487" lon="34.131939">
<ele>170.689575</ele>
<time>2011-10-13T12:28:36Z</time>
<desc>lat.=44.454487, lon.=34.131939, Alt.=170.689575m. Speed=2.304000m/h.</desc>
<speed>0.640000</speed>
</trkpt>
<trkpt lat="44.454468" lon="34.131882">
<ele>169.502075</ele>
<time>2011-10-13T12:28:41Z</time>
<desc>lat.=44.454468, lon.=34.131882, Alt.=169.502075m. Speed=2.124000m/h.</desc>
<speed>0.590000</speed>
</trkpt>
<trkpt lat="44.454437" lon="34.131809">
<ele>167.748169</ele>
<time>2011-10-13T12:28:46Z</time>
<desc>lat.=44.454437, lon.=34.131809, Alt.=167.748169m. Speed=2.052000m/h.</desc>
<speed>0.570000</speed>
</trkpt>
<trkpt lat="44.454369" lon="34.131725">
<ele>165.634888</ele>
<time>2011-10-13T12:28:51Z</time>
<desc>lat.=44.454369, lon.=34.131725, Alt.=165.634888m. Speed=1.908000m/h.</desc>
<speed>0.530000</speed>
</trkpt>
<trkpt lat="44.454334" lon="34.131615">
<ele>165.654419</ele>
<time>2011-10-13T12:28:56Z</time>
<desc>lat.=44.454334, lon.=34.131615, Alt.=165.654419m. Speed=2.124000m/h.</desc>
<speed>0.590000</speed>
</trkpt>
<trkpt lat="44.454304" lon="34.131527">
<ele>166.705200</ele>
<time>2011-10-13T12:29:01Z</time>
<desc>lat.=44.454304, lon.=34.131527, Alt.=166.705200m. Speed=1.908000m/h.</desc>
<speed>0.530000</speed>
</trkpt>
<trkpt lat="44.454292" lon="34.131420">
<ele>167.564575</ele>
<time>2011-10-13T12:29:06Z</time>
<desc>lat.=44.454292, lon.=34.131420, Alt.=167.564575m. Speed=3.168000m/h.</desc>
<speed>0.880000</speed>
</trkpt>
<trkpt lat="44.454296" lon="34.131351">
<ele>168.459106</ele>
<time>2011-10-13T12:29:11Z</time>
<desc>lat.=44.454296, lon.=34.131351, Alt.=168.459106m. Speed=3.168000m/h.</desc>
<speed>0.880000</speed>
</trkpt>
<trkpt lat="44.454323" lon="34.131271">
<ele>169.459106</ele>
<time>2011-10-13T12:29:16Z</time>
<desc>lat.=44.454323, lon.=34.131271, Alt.=169.459106m. Speed=3.384000m/h.</desc>
<speed>0.940000</speed>
</trkpt>
<trkpt lat="44.454350" lon="34.131222">
<ele>170.470825</ele>
<time>2011-10-13T12:29:21Z</time>
<desc>lat.=44.454350, lon.=34.131222, Alt.=170.470825m. Speed=2.268000m/h.</desc>
<speed>0.630000</speed>
</trkpt>
<trkpt lat="44.454372" lon="34.131172">
<ele>171.584106</ele>
<time>2011-10-13T12:29:26Z</time>
<desc>lat.=44.454372, lon.=34.131172, Alt.=171.584106m. Speed=1.404000m/h.</desc>
<speed>0.390000</speed>
</trkpt>
<trkpt lat="44.454342" lon="34.131092">
<ele>173.845825</ele>
<time>2011-10-13T12:29:31Z</time>
<desc>lat.=44.454342, lon.=34.131092, Alt.=173.845825m. Speed=1.800000m/h.</desc>
<speed>0.500000</speed>
</trkpt>
<trkpt lat="44.454296" lon="34.131008">
<ele>174.584106</ele>
<time>2011-10-13T12:29:36Z</time>
<desc>lat.=44.454296, lon.=34.131008, Alt.=174.584106m. Speed=1.332000m/h.</desc>
<speed>0.370000</speed>
</trkpt>
<trkpt lat="44.454269" lon="34.130974">
<ele>174.486450</ele>
<time>2011-10-13T12:29:41Z</time>
<desc>lat.=44.454269, lon.=34.130974, Alt.=174.486450m. Speed=0.252000m/h.</desc>
<speed>0.070000</speed>
</trkpt>
<trkpt lat="44.454250" lon="34.130932">
<ele>174.263794</ele>
<time>2011-10-13T12:29:46Z</time>
<desc>lat.=44.454250, lon.=34.130932, Alt.=174.263794m. Speed=0.000000m/h.</desc>
<speed>0.000000</speed>
</trkpt>
<trkpt lat="44.454235" lon="34.130886">
<ele>173.677856</ele>
<time>2011-10-13T12:29:51Z</time>
<desc>lat.=44.454235, lon.=34.130886, Alt.=173.677856m. Speed=0.180000m/h.</desc>
<speed>0.050000</speed>
</trkpt>
<trkpt lat="44.454224" lon="34.130840">
<ele>172.966919</ele>
<time>2011-10-13T12:29:56Z</time>
<desc>lat.=44.454224, lon.=34.130840, Alt.=172.966919m. Speed=0.432000m/h.</desc>
<speed>0.120000</speed>
</trkpt>
<trkpt lat="44.454201" lon="34.130760">
<ele>171.330200</ele>
<time>2011-10-13T12:30:01Z</time>
<desc>lat.=44.454201, lon.=34.130760, Alt.=171.330200m. Speed=0.900000m/h.</desc>
<speed>0.250000</speed>
</trkpt>
<trkpt lat="44.454197" lon="34.130703">
<ele>170.623169</ele>
<time>2011-10-13T12:30:06Z</time>
<desc>lat.=44.454197, lon.=34.130703, Alt.=170.623169m. Speed=1.476000m/h.</desc>
<speed>0.410000</speed>
</trkpt>
<trkpt lat="44.454205" lon="34.130608">
<ele>169.490356</ele>
<time>2011-10-13T12:30:11Z</time>
<desc>lat.=44.454205, lon.=34.130608, Alt.=169.490356m. Speed=1.944000m/h.</desc>
<speed>0.540000</speed>
</trkpt>
<trkpt lat="44.454235" lon="34.130421">
<ele>168.931763</ele>
<time>2011-10-13T12:30:16Z</time>
<desc>lat.=44.454235, lon.=34.130421, Alt.=168.931763m. Speed=1.548000m/h.</desc>
<speed>0.430000</speed>
</trkpt>
<trkpt lat="44.454224" lon="34.130379">
<ele>168.021606</ele>
<time>2011-10-13T12:30:21Z</time>
<desc>lat.=44.454224, lon.=34.130379, Alt.=168.021606m. Speed=0.360000m/h.</desc>
<speed>0.100000</speed>
</trkpt>
<trkpt lat="44.454224" lon="34.130375">
<ele>167.791138</ele>
<time>2011-10-13T12:30:26Z</time>
<desc>lat.=44.454224, lon.=34.130375, Alt.=167.791138m. Speed=0.252000m/h.</desc>
<speed>0.070000</speed>
</trkpt>
<trkpt lat="44.454220" lon="34.130367">
<ele>167.509888</ele>
<time>2011-10-13T12:30:31Z</time>
<desc>lat.=44.454220, lon.=34.130367, Alt.=167.509888m. Speed=0.900000m/h.</desc>
<speed>0.250000</speed>
</trkpt>
<trkpt lat="44.454220" lon="34.130341">
<ele>167.150513</ele>
<time>2011-10-13T12:30:36Z</time>
<desc>lat.=44.454220, lon.=34.130341, Alt.=167.150513m. Speed=1.008000m/h.</desc>
<speed>0.280000</speed>
</trkpt>
<trkpt lat="44.454212" lon="34.130299">
<ele>167.287231</ele>
<time>2011-10-13T12:30:41Z</time>
<desc>lat.=44.454212, lon.=34.130299, Alt.=167.287231m. Speed=1.764000m/h.</desc>
<speed>0.490000</speed>
</trkpt>
<trkpt lat="44.454201" lon="34.130272">
<ele>167.384888</ele>
<time>2011-10-13T12:30:46Z</time>
<desc>lat.=44.454201, lon.=34.130272, Alt.=167.384888m. Speed=1.656000m/h.</desc>
<speed>0.460000</speed>
</trkpt>
<trkpt lat="44.454170" lon="34.130211">
<ele>167.580200</ele>
<time>2011-10-13T12:30:51Z</time>
<desc>lat.=44.454170, lon.=34.130211, Alt.=167.580200m. Speed=2.016000m/h.</desc>
<speed>0.560000</speed>
</trkpt>
<trkpt lat="44.454121" lon="34.130119">
<ele>167.244263</ele>
<time>2011-10-13T12:30:56Z</time>
<desc>lat.=44.454121, lon.=34.130119, Alt.=167.244263m. Speed=2.376000m/h.</desc>
<speed>0.660000</speed>
</trkpt>
<trkpt lat="44.454105" lon="34.130005">
<ele>166.646606</ele>
<time>2011-10-13T12:31:01Z</time>
<desc>lat.=44.454105, lon.=34.130005, Alt.=166.646606m. Speed=1.908000m/h.</desc>
<speed>0.530000</speed>
</trkpt>
<trkpt lat="44.454094" lon="34.129963">
<ele>166.892700</ele>
<time>2011-10-13T12:31:06Z</time>
<desc>lat.=44.454094, lon.=34.129963, Alt.=166.892700m. Speed=1.764000m/h.</desc>
<speed>0.490000</speed>
</trkpt>
<trkpt lat="44.454056" lon="34.129944">
<ele>167.380981</ele>
<time>2011-10-13T12:31:11Z</time>
<desc>lat.=44.454056, lon.=34.129944, Alt.=167.380981m. Speed=2.304000m/h.</desc>
<speed>0.640000</speed>
</trkpt>
<trkpt lat="44.454010" lon="34.129929">
<ele>168.150513</ele>
<time>2011-10-13T12:31:16Z</time>
<desc>lat.=44.454010, lon.=34.129929, Alt.=168.150513m. Speed=2.196000m/h.</desc>
<speed>0.610000</speed>
</trkpt>
<trkpt lat="44.453960" lon="34.129868">
<ele>169.201294</ele>
<time>2011-10-13T12:31:21Z</time>
<desc>lat.=44.453960, lon.=34.129868, Alt.=169.201294m. Speed=2.700000m/h.</desc>
<speed>0.750000</speed>
</trkpt>
<trkpt lat="44.453892" lon="34.129768">
<ele>170.560669</ele>
<time>2011-10-13T12:31:26Z</time>
<desc>lat.=44.453892, lon.=34.129768, Alt.=170.560669m. Speed=3.024000m/h.</desc>
<speed>0.840000</speed>
</trkpt>
<trkpt lat="44.453819" lon="34.129658">
<ele>172.115356</ele>
<time>2011-10-13T12:31:31Z</time>
<desc>lat.=44.453819, lon.=34.129658, Alt.=172.115356m. Speed=2.988000m/h.</desc>
<speed>0.830000</speed>
</trkpt>
<trkpt lat="44.453751" lon="34.129536">
<ele>173.912231</ele>
<time>2011-10-13T12:31:36Z</time>
<desc>lat.=44.453751, lon.=34.129536, Alt.=173.912231m. Speed=4.428000m/h.</desc>
<speed>1.230000</speed>
</trkpt>
<trkpt lat="44.453659" lon="34.129421">
<ele>175.978638</ele>
<time>2011-10-13T12:31:41Z</time>
<desc>lat.=44.453659, lon.=34.129421, Alt.=175.978638m. Speed=3.348000m/h.</desc>
<speed>0.930000</speed>
</trkpt>
<trkpt lat="44.453609" lon="34.129337">
<ele>177.111450</ele>
<time>2011-10-13T12:31:46Z</time>
<desc>lat.=44.453609, lon.=34.129337, Alt.=177.111450m. Speed=2.052000m/h.</desc>
<speed>0.570000</speed>
</trkpt>
<trkpt lat="44.453529" lon="34.129314">
<ele>178.556763</ele>
<time>2011-10-13T12:31:51Z</time>
<desc>lat.=44.453529, lon.=34.129314, Alt.=178.556763m. Speed=2.808000m/h.</desc>
<speed>0.780000</speed>
</trkpt>
<trkpt lat="44.453419" lon="34.129284">
<ele>180.466919</ele>
<time>2011-10-13T12:31:56Z</time>
<desc>lat.=44.453419, lon.=34.129284, Alt.=180.466919m. Speed=6.372000m/h.</desc>
<speed>1.770000</speed>
</trkpt>
<trkpt lat="44.453289" lon="34.129383">
<ele>183.943481</ele>
<time>2011-10-13T12:32:01Z</time>
<desc>lat.=44.453289, lon.=34.129383, Alt.=183.943481m. Speed=5.940000m/h.</desc>
<speed>1.650000</speed>
</trkpt>
<trkpt lat="44.453236" lon="34.129459">
<ele>188.564575</ele>
<time>2011-10-13T12:32:06Z</time>
<desc>lat.=44.453236, lon.=34.129459, Alt.=188.564575m. Speed=4.572000m/h.</desc>
<speed>1.270000</speed>
</trkpt>
<trkpt lat="44.453182" lon="34.129578">
<ele>194.240356</ele>
<time>2011-10-13T12:32:11Z</time>
<desc>lat.=44.453182, lon.=34.129578, Alt.=194.240356m. Speed=9.144000m/h.</desc>
<speed>2.540000</speed>
</trkpt>
<trkpt lat="44.453117" lon="34.129692">
<ele>201.134888</ele>
<time>2011-10-13T12:32:16Z</time>
<desc>lat.=44.453117, lon.=34.129692, Alt.=201.134888m. Speed=4.860000m/h.</desc>
<speed>1.350000</speed>
</trkpt>
<trkpt lat="44.453068" lon="34.129692">
<ele>205.029419</ele>
<time>2011-10-13T12:32:21Z</time>
<desc>lat.=44.453068, lon.=34.129692, Alt.=205.029419m. Speed=0.612000m/h.</desc>
<speed>0.170000</speed>
</trkpt>
<trkpt lat="44.453037" lon="34.129623">
<ele>207.205200</ele>
<time>2011-10-13T12:32:26Z</time>
<desc>lat.=44.453037, lon.=34.129623, Alt.=207.205200m. Speed=3.168000m/h.</desc>
<speed>0.880000</speed>
</trkpt>
<trkpt lat="44.453022" lon="34.129642">
<ele>211.736450</ele>
<time>2011-10-13T12:32:31Z</time>
<desc>lat.=44.453022, lon.=34.129642, Alt.=211.736450m. Speed=3.528000m/h.</desc>
<speed>0.980000</speed>
</trkpt>
<trkpt lat="44.453030" lon="34.129581">
<ele>215.752075</ele>
<time>2011-10-13T12:32:36Z</time>
<desc>lat.=44.453030, lon.=34.129581, Alt.=215.752075m. Speed=6.012000m/h.</desc>
<speed>1.670000</speed>
</trkpt>
<trkpt lat="44.452862" lon="34.129677">
<ele>224.748169</ele>
<time>2011-10-13T12:32:41Z</time>
<desc>lat.=44.452862, lon.=34.129677, Alt.=224.748169m. Speed=3.528000m/h.</desc>
<speed>0.980000</speed>
</trkpt>
<trkpt lat="44.452686" lon="34.129684">
<ele>232.451294</ele>
<time>2011-10-13T12:32:46Z</time>
<desc>lat.=44.452686, lon.=34.129684, Alt.=232.451294m. Speed=2.700000m/h.</desc>
<speed>0.750000</speed>
</trkpt>
<trkpt lat="44.452534" lon="34.129742">
<ele>236.771606</ele>
<time>2011-10-13T12:32:51Z</time>
<desc>lat.=44.452534, lon.=34.129742, Alt.=236.771606m. Speed=6.732000m/h.</desc>
<speed>1.870000</speed>
</trkpt>
<trkpt lat="44.452396" lon="34.129772">
<ele>240.791138</ele>
<time>2011-10-13T12:32:56Z</time>
<desc>lat.=44.452396, lon.=34.129772, Alt.=240.791138m. Speed=4.860000m/h.</desc>
<speed>1.350000</speed>
</trkpt>
<trkpt lat="44.452232" lon="34.129749">
<ele>244.752075</ele>
<time>2011-10-13T12:33:01Z</time>
<desc>lat.=44.452232, lon.=34.129749, Alt.=244.752075m. Speed=6.444000m/h.</desc>
<speed>1.790000</speed>
</trkpt>
<trkpt lat="44.452160" lon="34.129768">
<ele>249.591919</ele>
<time>2011-10-13T12:33:06Z</time>
<desc>lat.=44.452160, lon.=34.129768, Alt.=249.591919m. Speed=0.144000m/h.</desc>
<speed>0.040000</speed>
</trkpt>
<trkpt lat="44.452087" lon="34.129566">
<ele>250.595825</ele>
<time>2011-10-13T12:33:11Z</time>
<desc>lat.=44.452087, lon.=34.129566, Alt.=250.595825m. Speed=1.548000m/h.</desc>
<speed>0.430000</speed>
</trkpt>
<trkpt lat="44.451996" lon="34.129498">
<ele>251.037231</ele>
<time>2011-10-13T12:33:16Z</time>
<desc>lat.=44.451996, lon.=34.129498, Alt.=251.037231m. Speed=3.960000m/h.</desc>
<speed>1.100000</speed>
</trkpt>
<trkpt lat="44.451962" lon="34.129440">
<ele>256.019775</ele>
<time>2011-10-13T12:33:21Z</time>
<desc>lat.=44.451962, lon.=34.129440, Alt.=256.019775m. Speed=4.320000m/h.</desc>
<speed>1.200000</speed>
</trkpt>
<trkpt lat="44.451904" lon="34.129501">
<ele>261.926025</ele>
<time>2011-10-13T12:33:26Z</time>
<desc>lat.=44.451904, lon.=34.129501, Alt.=261.926025m. Speed=4.104000m/h.</desc>
<speed>1.140000</speed>
</trkpt>
<trkpt lat="44.451801" lon="34.129795">
<ele>266.418213</ele>
<time>2011-10-13T12:33:31Z</time>
<desc>lat.=44.451801, lon.=34.129795, Alt.=266.418213m. Speed=5.148000m/h.</desc>
<speed>1.430000</speed>
</trkpt>
<trkpt lat="44.451439" lon="34.129955">
<ele>274.230713</ele>
<time>2011-10-13T12:33:36Z</time>
<desc>lat.=44.451439, lon.=34.129955, Alt.=274.230713m. Speed=4.212000m/h.</desc>
<speed>1.170000</speed>
</trkpt>
<trkpt lat="44.451286" lon="34.129971">
<ele>274.879150</ele>
<time>2011-10-13T12:33:41Z</time>
<desc>lat.=44.451286, lon.=34.129971, Alt.=274.879150m. Speed=2.232000m/h.</desc>
<speed>0.620000</speed>
</trkpt>
<trkpt lat="44.451237" lon="34.129856">
<ele>276.699463</ele>
<time>2011-10-13T12:33:46Z</time>
<desc>lat.=44.451237, lon.=34.129856, Alt.=276.699463m. Speed=2.340000m/h.</desc>
<speed>0.650000</speed>
</trkpt>
<trkpt lat="44.451187" lon="34.129757">
<ele>278.465088</ele>
<time>2011-10-13T12:33:51Z</time>
<desc>lat.=44.451187, lon.=34.129757, Alt.=278.465088m. Speed=1.476000m/h.</desc>
<speed>0.410000</speed>
</trkpt>
<trkpt lat="44.451130" lon="34.129684">
<ele>280.652588</ele>
<time>2011-10-13T12:33:56Z</time>
<desc>lat.=44.451130, lon.=34.129684, Alt.=280.652588m. Speed=4.788000m/h.</desc>
<speed>1.330000</speed>
</trkpt>
<trkpt lat="44.451057" lon="34.129627">
<ele>283.332275</ele>
<time>2011-10-13T12:34:01Z</time>
<desc>lat.=44.451057, lon.=34.129627, Alt.=283.332275m. Speed=1.800000m/h.</desc>
<speed>0.500000</speed>
</trkpt>
<trkpt lat="44.450996" lon="34.129581">
<ele>284.176025</ele>
<time>2011-10-13T12:34:06Z</time>
<desc>lat.=44.450996, lon.=34.129581, Alt.=284.176025m. Speed=1.656000m/h.</desc>
<speed>0.460000</speed>
</trkpt>
<trkpt lat="44.451008" lon="34.129658">
<ele>285.269775</ele>
<time>2011-10-13T12:34:11Z</time>
<desc>lat.=44.451008, lon.=34.129658, Alt.=285.269775m. Speed=2.556000m/h.</desc>
<speed>0.710000</speed>
</trkpt>
<trkpt lat="44.450981" lon="34.129742">
<ele>286.793213</ele>
<time>2011-10-13T12:34:16Z</time>
<desc>lat.=44.450981, lon.=34.129742, Alt.=286.793213m. Speed=3.348000m/h.</desc>
<speed>0.930000</speed>
</trkpt>
<trkpt lat="44.450951" lon="34.129772">
<ele>288.590088</ele>
<time>2011-10-13T12:34:21Z</time>
<desc>lat.=44.450951, lon.=34.129772, Alt.=288.590088m. Speed=2.304000m/h.</desc>
<speed>0.640000</speed>
</trkpt>
<trkpt lat="44.450901" lon="34.129616">
<ele>287.855713</ele>
<time>2011-10-13T12:34:26Z</time>
<desc>lat.=44.450901, lon.=34.129616, Alt.=287.855713m. Speed=2.304000m/h.</desc>
<speed>0.640000</speed>
</trkpt>
<trkpt lat="44.450863" lon="34.129475">
<ele>291.301025</ele>
<time>2011-10-13T12:34:31Z</time>
<desc>lat.=44.450863, lon.=34.129475, Alt.=291.301025m. Speed=1.692000m/h.</desc>
<speed>0.470000</speed>
</trkpt>
<trkpt lat="44.450821" lon="34.129486">
<ele>292.511963</ele>
<time>2011-10-13T12:34:36Z</time>
<desc>lat.=44.450821, lon.=34.129486, Alt.=292.511963m. Speed=1.476000m/h.</desc>
<speed>0.410000</speed>
</trkpt>
<trkpt lat="44.450733" lon="34.129517">
<ele>292.988525</ele>
<time>2011-10-13T12:34:41Z</time>
<desc>lat.=44.450733, lon.=34.129517, Alt.=292.988525m. Speed=1.980000m/h.</desc>
<speed>0.550000</speed>
</trkpt>
<trkpt lat="44.450642" lon="34.129559">
<ele>294.746338</ele>
<time>2011-10-13T12:34:46Z</time>
<desc>lat.=44.450642, lon.=34.129559, Alt.=294.746338m. Speed=2.304000m/h.</desc>
<speed>0.640000</speed>
</trkpt>
<trkpt lat="44.450523" lon="34.129528">
<ele>295.629150</ele>
<time>2011-10-13T12:34:51Z</time>
<desc>lat.=44.450523, lon.=34.129528, Alt.=295.629150m. Speed=3.132000m/h.</desc>
<speed>0.870000</speed>
</trkpt>
<trkpt lat="44.450478" lon="34.129536">
<ele>295.722900</ele>
<time>2011-10-13T12:34:56Z</time>
<desc>lat.=44.450478, lon.=34.129536, Alt.=295.722900m. Speed=3.312000m/h.</desc>
<speed>0.920000</speed>
</trkpt>
<trkpt lat="44.450245" lon="34.129532">
<ele>292.496338</ele>
<time>2011-10-13T12:35:01Z</time>
<desc>lat.=44.450245, lon.=34.129532, Alt.=292.496338m. Speed=3.600000m/h.</desc>
<speed>1.000000</speed>
</trkpt>
<trkpt lat="44.450100" lon="34.129505">
<ele>293.754150</ele>
<time>2011-10-13T12:35:06Z</time>
<desc>lat.=44.450100, lon.=34.129505, Alt.=293.754150m. Speed=2.412000m/h.</desc>
<speed>0.670000</speed>
</trkpt>
<trkpt lat="44.450024" lon="34.129459">
<ele>294.754150</ele>
<time>2011-10-13T12:35:11Z</time>
<desc>lat.=44.450024, lon.=34.129459, Alt.=294.754150m. Speed=1.728000m/h.</desc>
<speed>0.480000</speed>
</trkpt>
<trkpt lat="44.449883" lon="34.129436">
<ele>296.574463</ele>
<time>2011-10-13T12:35:16Z</time>
<desc>lat.=44.449883, lon.=34.129436, Alt.=296.574463m. Speed=1.944000m/h.</desc>
<speed>0.540000</speed>
</trkpt>
<trkpt lat="44.449783" lon="34.129364">
<ele>298.551025</ele>
<time>2011-10-13T12:35:21Z</time>
<desc>lat.=44.449783, lon.=34.129364, Alt.=298.551025m. Speed=2.196000m/h.</desc>
<speed>0.610000</speed>
</trkpt>
<trkpt lat="44.449677" lon="34.129292">
<ele>299.011963</ele>
<time>2011-10-13T12:35:26Z</time>
<desc>lat.=44.449677, lon.=34.129292, Alt.=299.011963m. Speed=1.728000m/h.</desc>
<speed>0.480000</speed>
</trkpt>
<trkpt lat="44.449570" lon="34.129257">
<ele>299.738525</ele>
<time>2011-10-13T12:35:31Z</time>
<desc>lat.=44.449570, lon.=34.129257, Alt.=299.738525m. Speed=2.124000m/h.</desc>
<speed>0.590000</speed>
</trkpt>
<trkpt lat="44.449471" lon="34.129219">
<ele>300.824463</ele>
<time>2011-10-13T12:35:36Z</time>
<desc>lat.=44.449471, lon.=34.129219, Alt.=300.824463m. Speed=2.664000m/h.</desc>
<speed>0.740000</speed>
</trkpt>
<trkpt lat="44.449257" lon="34.129131">
<ele>301.785400</ele>
<time>2011-10-13T12:35:41Z</time>
<desc>lat.=44.449257, lon.=34.129131, Alt.=301.785400m. Speed=5.076000m/h.</desc>
<speed>1.410000</speed>
</trkpt>
<trkpt lat="44.449135" lon="34.129040">
<ele>301.761963</ele>
<time>2011-10-13T12:35:46Z</time>
<desc>lat.=44.449135, lon.=34.129040, Alt.=301.761963m. Speed=3.348000m/h.</desc>
<speed>0.930000</speed>
</trkpt>
<trkpt lat="44.449009" lon="34.128956">
<ele>302.277588</ele>
<time>2011-10-13T12:35:51Z</time>
<desc>lat.=44.449009, lon.=34.128956, Alt.=302.277588m. Speed=5.940000m/h.</desc>
<speed>1.650000</speed>
</trkpt>
<trkpt lat="44.448895" lon="34.128826">
<ele>303.316650</ele>
<time>2011-10-13T12:35:56Z</time>
<desc>lat.=44.448895, lon.=34.128826, Alt.=303.316650m. Speed=3.564000m/h.</desc>
<speed>0.990000</speed>
</trkpt>
<trkpt lat="44.448452" lon="34.128983">
<ele>298.972900</ele>
<time>2011-10-13T12:36:01Z</time>
<desc>lat.=44.448452, lon.=34.128983, Alt.=298.972900m. Speed=4.428000m/h.</desc>
<speed>1.230000</speed>
</trkpt>
<trkpt lat="44.448483" lon="34.128860">
<ele>299.855713</ele>
<time>2011-10-13T12:36:06Z</time>
<desc>lat.=44.448483, lon.=34.128860, Alt.=299.855713m. Speed=4.140000m/h.</desc>
<speed>1.150000</speed>
</trkpt>
<trkpt lat="44.448444" lon="34.128799">
<ele>300.441650</ele>
<time>2011-10-13T12:36:11Z</time>
<desc>lat.=44.448444, lon.=34.128799, Alt.=300.441650m. Speed=1.512000m/h.</desc>
<speed>0.420000</speed>
</trkpt>
<trkpt lat="44.448395" lon="34.128757">
<ele>298.965088</ele>
<time>2011-10-13T12:36:16Z</time>
<desc>lat.=44.448395, lon.=34.128757, Alt.=298.965088m. Speed=1.548000m/h.</desc>
<speed>0.430000</speed>
</trkpt>
<trkpt lat="44.448318" lon="34.128681">
<ele>299.504150</ele>
<time>2011-10-13T12:36:21Z</time>
<desc>lat.=44.448318, lon.=34.128681, Alt.=299.504150m. Speed=1.476000m/h.</desc>
<speed>0.410000</speed>
</trkpt>
<trkpt lat="44.448242" lon="34.128597">
<ele>300.222900</ele>
<time>2011-10-13T12:36:26Z</time>
<desc>lat.=44.448242, lon.=34.128597, Alt.=300.222900m. Speed=1.476000m/h.</desc>
<speed>0.410000</speed>
</trkpt>
<trkpt lat="44.448257" lon="34.128475">
<ele>301.043213</ele>
<time>2011-10-13T12:36:31Z</time>
<desc>lat.=44.448257, lon.=34.128475, Alt.=301.043213m. Speed=0.792000m/h.</desc>
<speed>0.220000</speed>
</trkpt>
<trkpt lat="44.448212" lon="34.128464">
<ele>302.488525</ele>
<time>2011-10-13T12:36:36Z</time>
<desc>lat.=44.448212, lon.=34.128464, Alt.=302.488525m. Speed=0.612000m/h.</desc>
<speed>0.170000</speed>
</trkpt>
<trkpt lat="44.448189" lon="34.128433">
<ele>303.652588</ele>
<time>2011-10-13T12:36:41Z</time>
<desc>lat.=44.448189, lon.=34.128433, Alt.=303.652588m. Speed=1.188000m/h.</desc>
<speed>0.330000</speed>
</trkpt>
<trkpt lat="44.448040" lon="34.128330">
<ele>305.965088</ele>
<time>2011-10-13T12:36:46Z</time>
<desc>lat.=44.448040, lon.=34.128330, Alt.=305.965088m. Speed=2.448000m/h.</desc>
<speed>0.680000</speed>
</trkpt>
<trkpt lat="44.447872" lon="34.128189">
<ele>309.090088</ele>
<time>2011-10-13T12:36:51Z</time>
<desc>lat.=44.447872, lon.=34.128189, Alt.=309.090088m. Speed=4.356000m/h.</desc>
<speed>1.210000</speed>
</trkpt>
<trkpt lat="44.447731" lon="34.128216">
<ele>310.730713</ele>
<time>2011-10-13T12:36:56Z</time>
<desc>lat.=44.447731, lon.=34.128216, Alt.=310.730713m. Speed=4.392000m/h.</desc>
<speed>1.220000</speed>
</trkpt>
<trkpt lat="44.447582" lon="34.128223">
<ele>312.324463</ele>
<time>2011-10-13T12:37:01Z</time>
<desc>lat.=44.447582, lon.=34.128223, Alt.=312.324463m. Speed=2.556000m/h.</desc>
<speed>0.710000</speed>
</trkpt>
<trkpt lat="44.447445" lon="34.128239">
<ele>313.511963</ele>
<time>2011-10-13T12:37:06Z</time>
<desc>lat.=44.447445, lon.=34.128239, Alt.=313.511963m. Speed=4.824000m/h.</desc>
<speed>1.340000</speed>
</trkpt>
<trkpt lat="44.447319" lon="34.128254">
<ele>314.933838</ele>
<time>2011-10-13T12:37:11Z</time>
<desc>lat.=44.447319, lon.=34.128254, Alt.=314.933838m. Speed=4.464000m/h.</desc>
<speed>1.240000</speed>
</trkpt>
<trkpt lat="44.447212" lon="34.128239">
<ele>316.886963</ele>
<time>2011-10-13T12:37:16Z</time>
<desc>lat.=44.447212, lon.=34.128239, Alt.=316.886963m. Speed=3.240000m/h.</desc>
<speed>0.900000</speed>
</trkpt>
<trkpt lat="44.447170" lon="34.128269">
<ele>319.715088</ele>
<time>2011-10-13T12:37:21Z</time>
<desc>lat.=44.447170, lon.=34.128269, Alt.=319.715088m. Speed=2.988000m/h.</desc>
<speed>0.830000</speed>
</trkpt>
<trkpt lat="44.447094" lon="34.128323">
<ele>322.957275</ele>
<time>2011-10-13T12:37:26Z</time>
<desc>lat.=44.447094, lon.=34.128323, Alt.=322.957275m. Speed=4.752000m/h.</desc>
<speed>1.320000</speed>
</trkpt>
<trkpt lat="44.447048" lon="34.128399">
<ele>327.043213</ele>
<time>2011-10-13T12:37:31Z</time>
<desc>lat.=44.447048, lon.=34.128399, Alt.=327.043213m. Speed=2.556000m/h.</desc>
<speed>0.710000</speed>
</trkpt>
<trkpt lat="44.446972" lon="34.128311">
<ele>326.988525</ele>
<time>2011-10-13T12:37:36Z</time>
<desc>lat.=44.446972, lon.=34.128311, Alt.=326.988525m. Speed=3.600000m/h.</desc>
<speed>1.000000</speed>
</trkpt>
<trkpt lat="44.446800" lon="34.128349">
<ele>327.707275</ele>
<time>2011-10-13T12:37:41Z</time>
<desc>lat.=44.446800, lon.=34.128349, Alt.=327.707275m. Speed=3.708000m/h.</desc>
<speed>1.030000</speed>
</trkpt>
<trkpt lat="44.446671" lon="34.128548">
<ele>330.988525</ele>
<time>2011-10-13T12:37:46Z</time>
<desc>lat.=44.446671, lon.=34.128548, Alt.=330.988525m. Speed=2.700000m/h.</desc>
<speed>0.750000</speed>
</trkpt>
<trkpt lat="44.446590" lon="34.128563">
<ele>332.097900</ele>
<time>2011-10-13T12:37:51Z</time>
<desc>lat.=44.446590, lon.=34.128563, Alt.=332.097900m. Speed=1.548000m/h.</desc>
<speed>0.430000</speed>
</trkpt>
<trkpt lat="44.446507" lon="34.128578">
<ele>333.207275</ele>
<time>2011-10-13T12:37:56Z</time>
<desc>lat.=44.446507, lon.=34.128578, Alt.=333.207275m. Speed=2.196000m/h.</desc>
<speed>0.610000</speed>
</trkpt>
<trkpt lat="44.446350" lon="34.128723">
<ele>334.386963</ele>
<time>2011-10-13T12:38:01Z</time>
<desc>lat.=44.446350, lon.=34.128723, Alt.=334.386963m. Speed=4.176000m/h.</desc>
<speed>1.160000</speed>
</trkpt>
<trkpt lat="44.446136" lon="34.128819">
<ele>335.910400</ele>
<time>2011-10-13T12:38:06Z</time>
<desc>lat.=44.446136, lon.=34.128819, Alt.=335.910400m. Speed=5.256000m/h.</desc>
<speed>1.460000</speed>
</trkpt>
<trkpt lat="44.445843" lon="34.128990">
<ele>337.676025</ele>
<time>2011-10-13T12:38:11Z</time>
<desc>lat.=44.445843, lon.=34.128990, Alt.=337.676025m. Speed=7.740000m/h.</desc>
<speed>2.150000</speed>
</trkpt>
<trkpt lat="44.445660" lon="34.129002">
<ele>341.027588</ele>
<time>2011-10-13T12:38:16Z</time>
<desc>lat.=44.445660, lon.=34.129002, Alt.=341.027588m. Speed=6.084000m/h.</desc>
<speed>1.690000</speed>
</trkpt>
<trkpt lat="44.445541" lon="34.128971">
<ele>344.761963</ele>
<time>2011-10-13T12:38:21Z</time>
<desc>lat.=44.445541, lon.=34.128971, Alt.=344.761963m. Speed=5.076000m/h.</desc>
<speed>1.410000</speed>
</trkpt>
<trkpt lat="44.445457" lon="34.128975">
<ele>348.551025</ele>
<time>2011-10-13T12:38:26Z</time>
<desc>lat.=44.445457, lon.=34.128975, Alt.=348.551025m. Speed=3.960000m/h.</desc>
<speed>1.100000</speed>
</trkpt>
<trkpt lat="44.445282" lon="34.128925">
<ele>366.621338</ele>
<time>2011-10-13T12:38:31Z</time>
<desc>lat.=44.445282, lon.=34.128925, Alt.=366.621338m. Speed=7.236000m/h.</desc>
<speed>2.010000</speed>
</trkpt>
<trkpt lat="44.445129" lon="34.129047">
<ele>373.918213</ele>
<time>2011-10-13T12:38:36Z</time>
<desc>lat.=44.445129, lon.=34.129047, Alt.=373.918213m. Speed=2.700000m/h.</desc>
<speed>0.750000</speed>
</trkpt>
<trkpt lat="44.445007" lon="34.129196">
<ele>379.254150</ele>
<time>2011-10-13T12:38:41Z</time>
<desc>lat.=44.445007, lon.=34.129196, Alt.=379.254150m. Speed=6.336000m/h.</desc>
<speed>1.760000</speed>
</trkpt>
<trkpt lat="44.444862" lon="34.129307">
<ele>381.652588</ele>
<time>2011-10-13T12:38:46Z</time>
<desc>lat.=44.444862, lon.=34.129307, Alt.=381.652588m. Speed=3.132000m/h.</desc>
<speed>0.870000</speed>
</trkpt>
<trkpt lat="44.444595" lon="34.129425">
<ele>386.152588</ele>
<time>2011-10-13T12:38:51Z</time>
<desc>lat.=44.444595, lon.=34.129425, Alt.=386.152588m. Speed=6.768000m/h.</desc>
<speed>1.880000</speed>
</trkpt>
<trkpt lat="44.444374" lon="34.129406">
<ele>383.191650</ele>
<time>2011-10-13T12:38:56Z</time>
<desc>lat.=44.444374, lon.=34.129406, Alt.=383.191650m. Speed=6.048000m/h.</desc>
<speed>1.680000</speed>
</trkpt>
<trkpt lat="44.444244" lon="34.129395">
<ele>383.043213</ele>
<time>2011-10-13T12:39:01Z</time>
<desc>lat.=44.444244, lon.=34.129395, Alt.=383.043213m. Speed=5.472000m/h.</desc>
<speed>1.520000</speed>
</trkpt>
<trkpt lat="44.444168" lon="34.129356">
<ele>383.832275</ele>
<time>2011-10-13T12:39:06Z</time>
<desc>lat.=44.444168, lon.=34.129356, Alt.=383.832275m. Speed=5.940000m/h.</desc>
<speed>1.650000</speed>
</trkpt>
<trkpt lat="44.444027" lon="34.129395">
<ele>385.824463</ele>
<time>2011-10-13T12:39:11Z</time>
<desc>lat.=44.444027, lon.=34.129395, Alt.=385.824463m. Speed=5.760000m/h.</desc>
<speed>1.600000</speed>
</trkpt>
<trkpt lat="44.443871" lon="34.129440">
<ele>386.472900</ele>
<time>2011-10-13T12:39:16Z</time>
<desc>lat.=44.443871, lon.=34.129440, Alt.=386.472900m. Speed=5.328000m/h.</desc>
<speed>1.480000</speed>
</trkpt>
<trkpt lat="44.443741" lon="34.129486">
<ele>389.504150</ele>
<time>2011-10-13T12:39:21Z</time>
<desc>lat.=44.443741, lon.=34.129486, Alt.=389.504150m. Speed=13.140000m/h.</desc>
<speed>3.650000</speed>
</trkpt>
<trkpt lat="44.443649" lon="34.129494">
<ele>393.535400</ele>
<time>2011-10-13T12:39:26Z</time>
<desc>lat.=44.443649, lon.=34.129494, Alt.=393.535400m. Speed=2.376000m/h.</desc>
<speed>0.660000</speed>
</trkpt>
<trkpt lat="44.443451" lon="34.129593">
<ele>390.949463</ele>
<time>2011-10-13T12:39:31Z</time>
<desc>lat.=44.443451, lon.=34.129593, Alt.=390.949463m. Speed=9.324000m/h.</desc>
<speed>2.590000</speed>
</trkpt>
<trkpt lat="44.443363" lon="34.129597">
<ele>393.808838</ele>
<time>2011-10-13T12:39:36Z</time>
<desc>lat.=44.443363, lon.=34.129597, Alt.=393.808838m. Speed=1.980000m/h.</desc>
<speed>0.550000</speed>
</trkpt>
<trkpt lat="44.443409" lon="34.129452">
<ele>396.449463</ele>
<time>2011-10-13T12:39:41Z</time>
<desc>lat.=44.443409, lon.=34.129452, Alt.=396.449463m. Speed=13.608000m/h.</desc>
<speed>3.780000</speed>
</trkpt>
<trkpt lat="44.443451" lon="34.129440">
<ele>399.918213</ele>
<time>2011-10-13T12:39:46Z</time>
<desc>lat.=44.443451, lon.=34.129440, Alt.=399.918213m. Speed=4.608000m/h.</desc>
<speed>1.280000</speed>
</trkpt>
<trkpt lat="44.443329" lon="34.129608">
<ele>406.582275</ele>
<time>2011-10-13T12:39:51Z</time>
<desc>lat.=44.443329, lon.=34.129608, Alt.=406.582275m. Speed=4.608000m/h.</desc>
<speed>1.280000</speed>
</trkpt>
<trkpt lat="44.443218" lon="34.129745">
<ele>412.801025</ele>
<time>2011-10-13T12:39:56Z</time>
<desc>lat.=44.443218, lon.=34.129745, Alt.=412.801025m. Speed=7.812000m/h.</desc>
<speed>2.170000</speed>
</trkpt>
<trkpt lat="44.443127" lon="34.129845">
<ele>418.324463</ele>
<time>2011-10-13T12:40:01Z</time>
<desc>lat.=44.443127, lon.=34.129845, Alt.=418.324463m. Speed=5.940000m/h.</desc>
<speed>1.650000</speed>
</trkpt>
<trkpt lat="44.442902" lon="34.130051">
<ele>421.730713</ele>
<time>2011-10-13T12:40:06Z</time>
<desc>lat.=44.442902, lon.=34.130051, Alt.=421.730713m. Speed=5.904000m/h.</desc>
<speed>1.640000</speed>
</trkpt>
<trkpt lat="44.442688" lon="34.130070">
<ele>424.886963</ele>
<time>2011-10-13T12:40:11Z</time>
<desc>lat.=44.442688, lon.=34.130070, Alt.=424.886963m. Speed=6.444000m/h.</desc>
<speed>1.790000</speed>
</trkpt>
<trkpt lat="44.442459" lon="34.130096">
<ele>429.261963</ele>
<time>2011-10-13T12:40:16Z</time>
<desc>lat.=44.442459, lon.=34.130096, Alt.=429.261963m. Speed=9.000000m/h.</desc>
<speed>2.500000</speed>
</trkpt>
<trkpt lat="44.442238" lon="34.130184">
<ele>428.722900</ele>
<time>2011-10-13T12:40:21Z</time>
<desc>lat.=44.442238, lon.=34.130184, Alt.=428.722900m. Speed=7.020000m/h.</desc>
<speed>1.950000</speed>
</trkpt>
<trkpt lat="44.442017" lon="34.130371">
<ele>431.066650</ele>
<time>2011-10-13T12:40:26Z</time>
<desc>lat.=44.442017, lon.=34.130371, Alt.=431.066650m. Speed=7.884000m/h.</desc>
<speed>2.190000</speed>
</trkpt>
<trkpt lat="44.441765" lon="34.130444">
<ele>437.105713</ele>
<time>2011-10-13T12:40:31Z</time>
<desc>lat.=44.441765, lon.=34.130444, Alt.=437.105713m. Speed=7.740000m/h.</desc>
<speed>2.150000</speed>
</trkpt>
<trkpt lat="44.441544" lon="34.130535">
<ele>442.105713</ele>
<time>2011-10-13T12:40:36Z</time>
<desc>lat.=44.441544, lon.=34.130535, Alt.=442.105713m. Speed=4.104000m/h.</desc>
<speed>1.140000</speed>
</trkpt>
<trkpt lat="44.441341" lon="34.130531">
<ele>443.043213</ele>
<time>2011-10-13T12:40:41Z</time>
<desc>lat.=44.441341, lon.=34.130531, Alt.=443.043213m. Speed=3.348000m/h.</desc>
<speed>0.930000</speed>
</trkpt>
<trkpt lat="44.441105" lon="34.130577">
<ele>441.754150</ele>
<time>2011-10-13T12:40:46Z</time>
<desc>lat.=44.441105, lon.=34.130577, Alt.=441.754150m. Speed=3.744000m/h.</desc>
<speed>1.040000</speed>
</trkpt>
<trkpt lat="44.440769" lon="34.130638">
<ele>433.863525</ele>
<time>2011-10-13T12:40:51Z</time>
<desc>lat.=44.440769, lon.=34.130638, Alt.=433.863525m. Speed=6.228000m/h.</desc>
<speed>1.730000</speed>
</trkpt>
<trkpt lat="44.440544" lon="34.130600">
<ele>428.316650</ele>
<time>2011-10-13T12:40:56Z</time>
<desc>lat.=44.440544, lon.=34.130600, Alt.=428.316650m. Speed=6.372000m/h.</desc>
<speed>1.770000</speed>
</trkpt>
<trkpt lat="44.440468" lon="34.130562">
<ele>429.082275</ele>
<time>2011-10-13T12:41:01Z</time>
<desc>lat.=44.440468, lon.=34.130562, Alt.=429.082275m. Speed=2.808000m/h.</desc>
<speed>0.780000</speed>
</trkpt>
<trkpt lat="44.440388" lon="34.130466">
<ele>428.160400</ele>
<time>2011-10-13T12:41:06Z</time>
<desc>lat.=44.440388, lon.=34.130466, Alt.=428.160400m. Speed=1.800000m/h.</desc>
<speed>0.500000</speed>
</trkpt>
<trkpt lat="44.440327" lon="34.130451">
<ele>426.551025</ele>
<time>2011-10-13T12:41:11Z</time>
<desc>lat.=44.440327, lon.=34.130451, Alt.=426.551025m. Speed=1.692000m/h.</desc>
<speed>0.470000</speed>
</trkpt>
<trkpt lat="44.440277" lon="34.130390">
<ele>426.551025</ele>
<time>2011-10-13T12:41:16Z</time>
<desc>lat.=44.440277, lon.=34.130390, Alt.=426.551025m. Speed=1.116000m/h.</desc>
<speed>0.310000</speed>
</trkpt>
<trkpt lat="44.440269" lon="34.130390">
<ele>427.199463</ele>
<time>2011-10-13T12:41:21Z</time>
<desc>lat.=44.440269, lon.=34.130390, Alt.=427.199463m. Speed=0.648000m/h.</desc>
<speed>0.180000</speed>
</trkpt>
<trkpt lat="44.440258" lon="34.130386">
<ele>428.097900</ele>
<time>2011-10-13T12:41:26Z</time>
<desc>lat.=44.440258, lon.=34.130386, Alt.=428.097900m. Speed=0.216000m/h.</desc>
<speed>0.060000</speed>
</trkpt>
<trkpt lat="44.439507" lon="34.130348">
<ele>426.097900</ele>
<time>2011-10-13T12:41:31Z</time>
<desc>lat.=44.439507, lon.=34.130348, Alt.=426.097900m. Speed=1.296000m/h.</desc>
<speed>0.360000</speed>
</trkpt>
<trkpt lat="44.439037" lon="34.130222">
<ele>423.957275</ele>
<time>2011-10-13T12:41:36Z</time>
<desc>lat.=44.439037, lon.=34.130222, Alt.=423.957275m. Speed=1.008000m/h.</desc>
<speed>0.280000</speed>
</trkpt>
<trkpt lat="44.439060" lon="34.130241">
<ele>423.136963</ele>
<time>2011-10-13T12:41:41Z</time>
<desc>lat.=44.439060, lon.=34.130241, Alt.=423.136963m. Speed=0.360000m/h.</desc>
<speed>0.100000</speed>
</trkpt>
<trkpt lat="44.439056" lon="34.130238">
<ele>424.066650</ele>
<time>2011-10-13T12:41:46Z</time>
<desc>lat.=44.439056, lon.=34.130238, Alt.=424.066650m. Speed=0.144000m/h.</desc>
<speed>0.040000</speed>
</trkpt>
<trkpt lat="44.439053" lon="34.130238">
<ele>424.926025</ele>
<time>2011-10-13T12:41:51Z</time>
<desc>lat.=44.439053, lon.=34.130238, Alt.=424.926025m. Speed=0.324000m/h.</desc>
<speed>0.090000</speed>
</trkpt>
<trkpt lat="44.439049" lon="34.130234">
<ele>425.754150</ele>
<time>2011-10-13T12:41:56Z</time>
<desc>lat.=44.439049, lon.=34.130234, Alt.=425.754150m. Speed=0.468000m/h.</desc>
<speed>0.130000</speed>
</trkpt>
<trkpt lat="44.439037" lon="34.130234">
<ele>426.527588</ele>
<time>2011-10-13T12:42:01Z</time>
<desc>lat.=44.439037, lon.=34.130234, Alt.=426.527588m. Speed=0.540000m/h.</desc>
<speed>0.150000</speed>
</trkpt>
<trkpt lat="44.439030" lon="34.130238">
<ele>427.144775</ele>
<time>2011-10-13T12:42:06Z</time>
<desc>lat.=44.439030, lon.=34.130238, Alt.=427.144775m. Speed=0.504000m/h.</desc>
<speed>0.140000</speed>
</trkpt>
<trkpt lat="44.439026" lon="34.130238">
<ele>427.652588</ele>
<time>2011-10-13T12:42:11Z</time>
<desc>lat.=44.439026, lon.=34.130238, Alt.=427.652588m. Speed=0.360000m/h.</desc>
<speed>0.100000</speed>
</trkpt>
<trkpt lat="44.439026" lon="34.130241">
<ele>428.121338</ele>
<time>2011-10-13T12:42:16Z</time>
<desc>lat.=44.439026, lon.=34.130241, Alt.=428.121338m. Speed=0.288000m/h.</desc>
<speed>0.080000</speed>
</trkpt>
<trkpt lat="44.439034" lon="34.130249">
<ele>428.418213</ele>
<time>2011-10-13T12:42:21Z</time>
<desc>lat.=44.439034, lon.=34.130249, Alt.=428.418213m. Speed=0.612000m/h.</desc>
<speed>0.170000</speed>
</trkpt>
<trkpt lat="44.439022" lon="34.130260">
<ele>428.441650</ele>
<time>2011-10-13T12:42:26Z</time>
<desc>lat.=44.439022, lon.=34.130260, Alt.=428.441650m. Speed=0.720000m/h.</desc>
<speed>0.200000</speed>
</trkpt>
<trkpt lat="44.439030" lon="34.130257">
<ele>428.691650</ele>
<time>2011-10-13T12:42:31Z</time>
<desc>lat.=44.439030, lon.=34.130257, Alt.=428.691650m. Speed=0.432000m/h.</desc>
<speed>0.120000</speed>
</trkpt>
<trkpt lat="44.439034" lon="34.130230">
<ele>428.566650</ele>
<time>2011-10-13T12:42:36Z</time>
<desc>lat.=44.439034, lon.=34.130230, Alt.=428.566650m. Speed=0.252000m/h.</desc>
<speed>0.070000</speed>
</trkpt>
<trkpt lat="44.439034" lon="34.130222">
<ele>428.699463</ele>
<time>2011-10-13T12:42:41Z</time>
<desc>lat.=44.439034, lon.=34.130222, Alt.=428.699463m. Speed=0.216000m/h.</desc>
<speed>0.060000</speed>
</trkpt>
<trkpt lat="44.439030" lon="34.130219">
<ele>428.855713</ele>
<time>2011-10-13T12:42:46Z</time>
<desc>lat.=44.439030, lon.=34.130219, Alt.=428.855713m. Speed=0.036000m/h.</desc>
<speed>0.010000</speed>
</trkpt>
<trkpt lat="44.439034" lon="34.130219">
<ele>429.011963</ele>
<time>2011-10-13T12:42:51Z</time>
<desc>lat.=44.439034, lon.=34.130219, Alt.=429.011963m. Speed=0.360000m/h.</desc>
<speed>0.100000</speed>
</trkpt>
<trkpt lat="44.439037" lon="34.130215">
<ele>429.191650</ele>
<time>2011-10-13T12:42:56Z</time>
<desc>lat.=44.439037, lon.=34.130215, Alt.=429.191650m. Speed=0.504000m/h.</desc>
<speed>0.140000</speed>
</trkpt>
<trkpt lat="44.439045" lon="34.130211">
<ele>429.347900</ele>
<time>2011-10-13T12:43:01Z</time>
<desc>lat.=44.439045, lon.=34.130211, Alt.=429.347900m. Speed=0.468000m/h.</desc>
<speed>0.130000</speed>
</trkpt>
<trkpt lat="44.439053" lon="34.130207">
<ele>429.480713</ele>
<time>2011-10-13T12:43:06Z</time>
<desc>lat.=44.439053, lon.=34.130207, Alt.=429.480713m. Speed=0.396000m/h.</desc>
<speed>0.110000</speed>
</trkpt>
<trkpt lat="44.439053" lon="34.130207">
<ele>429.574463</ele>
<time>2011-10-13T12:43:11Z</time>
<desc>lat.=44.439053, lon.=34.130207, Alt.=429.574463m. Speed=0.252000m/h.</desc>
<speed>0.070000</speed>
</trkpt>
<trkpt lat="44.439060" lon="34.130215">
<ele>429.472900</ele>
<time>2011-10-13T12:43:16Z</time>
<desc>lat.=44.439060, lon.=34.130215, Alt.=429.472900m. Speed=0.396000m/h.</desc>
<speed>0.110000</speed>
</trkpt>
<trkpt lat="44.439087" lon="34.130226">
<ele>429.230713</ele>
<time>2011-10-13T12:43:21Z</time>
<desc>lat.=44.439087, lon.=34.130226, Alt.=429.230713m. Speed=0.648000m/h.</desc>
<speed>0.180000</speed>
</trkpt>
<trkpt lat="44.439117" lon="34.130226">
<ele>428.793213</ele>
<time>2011-10-13T12:43:26Z</time>
<desc>lat.=44.439117, lon.=34.130226, Alt.=428.793213m. Speed=0.972000m/h.</desc>
<speed>0.270000</speed>
</trkpt>
<trkpt lat="44.439152" lon="34.130226">
<ele>428.347900</ele>
<time>2011-10-13T12:43:31Z</time>
<desc>lat.=44.439152, lon.=34.130226, Alt.=428.347900m. Speed=1.152000m/h.</desc>
<speed>0.320000</speed>
</trkpt>
<trkpt lat="44.439331" lon="34.130157">
<ele>425.972900</ele>
<time>2011-10-13T12:43:36Z</time>
<desc>lat.=44.439331, lon.=34.130157, Alt.=425.972900m. Speed=1.548000m/h.</desc>
<speed>0.430000</speed>
</trkpt>
<trkpt lat="44.439369" lon="34.130138">
<ele>424.551025</ele>
<time>2011-10-13T12:43:41Z</time>
<desc>lat.=44.439369, lon.=34.130138, Alt.=424.551025m. Speed=0.792000m/h.</desc>
<speed>0.220000</speed>
</trkpt>
<trkpt lat="44.439384" lon="34.130123">
<ele>423.441650</ele>
<time>2011-10-13T12:43:46Z</time>
<desc>lat.=44.439384, lon.=34.130123, Alt.=423.441650m. Speed=0.864000m/h.</desc>
<speed>0.240000</speed>
</trkpt>
<trkpt lat="44.439411" lon="34.130150">
<ele>422.910400</ele>
<time>2011-10-13T12:43:51Z</time>
<desc>lat.=44.439411, lon.=34.130150, Alt.=422.910400m. Speed=1.008000m/h.</desc>
<speed>0.280000</speed>
</trkpt>
<trkpt lat="44.439476" lon="34.130257">
<ele>421.090088</ele>
<time>2011-10-13T12:43:56Z</time>
<desc>lat.=44.439476, lon.=34.130257, Alt.=421.090088m. Speed=1.116000m/h.</desc>
<speed>0.310000</speed>
</trkpt>
<trkpt lat="44.439560" lon="34.130405">
<ele>418.207275</ele>
<time>2011-10-13T12:44:01Z</time>
<desc>lat.=44.439560, lon.=34.130405, Alt.=418.207275m. Speed=1.152000m/h.</desc>
<speed>0.320000</speed>
</trkpt>
<trkpt lat="44.439644" lon="34.130383">
<ele>415.355713</ele>
<time>2011-10-13T12:44:06Z</time>
<desc>lat.=44.439644, lon.=34.130383, Alt.=415.355713m. Speed=1.476000m/h.</desc>
<speed>0.410000</speed>
</trkpt>
<trkpt lat="44.439583" lon="34.130379">
<ele>412.222900</ele>
<time>2011-10-13T12:44:11Z</time>
<desc>lat.=44.439583, lon.=34.130379, Alt.=412.222900m. Speed=3.060000m/h.</desc>
<speed>0.850000</speed>
</trkpt>
<trkpt lat="44.439476" lon="34.130379">
<ele>410.418213</ele>
<time>2011-10-13T12:44:16Z</time>
<desc>lat.=44.439476, lon.=34.130379, Alt.=410.418213m. Speed=5.724000m/h.</desc>
<speed>1.590000</speed>
</trkpt>
<trkpt lat="44.439369" lon="34.130371">
<ele>407.988525</ele>
<time>2011-10-13T12:44:21Z</time>
<desc>lat.=44.439369, lon.=34.130371, Alt.=407.988525m. Speed=6.732000m/h.</desc>
<speed>1.870000</speed>
</trkpt>
<trkpt lat="44.439297" lon="34.130299">
<ele>404.004150</ele>
<time>2011-10-13T12:44:26Z</time>
<desc>lat.=44.439297, lon.=34.130299, Alt.=404.004150m. Speed=5.148000m/h.</desc>
<speed>1.430000</speed>
</trkpt>
<trkpt lat="44.439224" lon="34.130222">
<ele>402.527588</ele>
<time>2011-10-13T12:44:31Z</time>
<desc>lat.=44.439224, lon.=34.130222, Alt.=402.527588m. Speed=4.320000m/h.</desc>
<speed>1.200000</speed>
</trkpt>
<trkpt lat="44.439194" lon="34.130192">
<ele>402.597900</ele>
<time>2011-10-13T12:44:36Z</time>
<desc>lat.=44.439194, lon.=34.130192, Alt.=402.597900m. Speed=2.124000m/h.</desc>
<speed>0.590000</speed>
</trkpt>
<trkpt lat="44.439114" lon="34.130077">
<ele>400.855713</ele>
<time>2011-10-13T12:44:41Z</time>
<desc>lat.=44.439114, lon.=34.130077, Alt.=400.855713m. Speed=2.628000m/h.</desc>
<speed>0.730000</speed>
</trkpt>
<trkpt lat="44.439022" lon="34.129997">
<ele>399.761963</ele>
<time>2011-10-13T12:44:46Z</time>
<desc>lat.=44.439022, lon.=34.129997, Alt.=399.761963m. Speed=2.340000m/h.</desc>
<speed>0.650000</speed>
</trkpt>
<trkpt lat="44.438988" lon="34.129951">
<ele>399.035400</ele>
<time>2011-10-13T12:44:51Z</time>
<desc>lat.=44.438988, lon.=34.129951, Alt.=399.035400m. Speed=1.044000m/h.</desc>
<speed>0.290000</speed>
</trkpt>
<trkpt lat="44.439011" lon="34.129730">
<ele>397.183838</ele>
<time>2011-10-13T12:44:56Z</time>
<desc>lat.=44.439011, lon.=34.129730, Alt.=397.183838m. Speed=0.720000m/h.</desc>
<speed>0.200000</speed>
</trkpt>
<trkpt lat="44.439037" lon="34.129604">
<ele>394.308838</ele>
<time>2011-10-13T12:45:01Z</time>
<desc>lat.=44.439037, lon.=34.129604, Alt.=394.308838m. Speed=0.396000m/h.</desc>
<speed>0.110000</speed>
</trkpt>
<trkpt lat="44.439049" lon="34.129585">
<ele>392.613525</ele>
<time>2011-10-13T12:45:06Z</time>
<desc>lat.=44.439049, lon.=34.129585, Alt.=392.613525m. Speed=0.540000m/h.</desc>
<speed>0.150000</speed>
</trkpt>
<trkpt lat="44.439018" lon="34.129539">
<ele>389.683838</ele>
<time>2011-10-13T12:45:11Z</time>
<desc>lat.=44.439018, lon.=34.129539, Alt.=389.683838m. Speed=0.396000m/h.</desc>
<speed>0.110000</speed>
</trkpt>
<trkpt lat="44.439011" lon="34.129478">
<ele>385.730713</ele>
<time>2011-10-13T12:45:16Z</time>
<desc>lat.=44.439011, lon.=34.129478, Alt.=385.730713m. Speed=0.180000m/h.</desc>
<speed>0.050000</speed>
</trkpt>
<trkpt lat="44.439003" lon="34.129452">
<ele>383.605713</ele>
<time>2011-10-13T12:45:21Z</time>
<desc>lat.=44.439003, lon.=34.129452, Alt.=383.605713m. Speed=0.216000m/h.</desc>
<speed>0.060000</speed>
</trkpt>
<trkpt lat="44.438988" lon="34.129414">
<ele>382.090088</ele>
<time>2011-10-13T12:45:26Z</time>
<desc>lat.=44.438988, lon.=34.129414, Alt.=382.090088m. Speed=0.900000m/h.</desc>
<speed>0.250000</speed>
</trkpt>
<trkpt lat="44.438965" lon="34.129322">
<ele>380.129150</ele>
<time>2011-10-13T12:45:31Z</time>
<desc>lat.=44.438965, lon.=34.129322, Alt.=380.129150m. Speed=3.132000m/h.</desc>
<speed>0.870000</speed>
</trkpt>
<trkpt lat="44.438900" lon="34.129238">
<ele>378.566650</ele>
<time>2011-10-13T12:45:36Z</time>
<desc>lat.=44.438900, lon.=34.129238, Alt.=378.566650m. Speed=5.076000m/h.</desc>
<speed>1.410000</speed>
</trkpt>
<trkpt lat="44.438812" lon="34.129150">
<ele>377.886963</ele>
<time>2011-10-13T12:45:41Z</time>
<desc>lat.=44.438812, lon.=34.129150, Alt.=377.886963m. Speed=5.904000m/h.</desc>
<speed>1.640000</speed>
</trkpt>
<trkpt lat="44.438740" lon="34.129017">
<ele>377.933838</ele>
<time>2011-10-13T12:45:46Z</time>
<desc>lat.=44.438740, lon.=34.129017, Alt.=377.933838m. Speed=3.888000m/h.</desc>
<speed>1.080000</speed>
</trkpt>
<trkpt lat="44.438705" lon="34.128929">
<ele>378.183838</ele>
<time>2011-10-13T12:45:51Z</time>
<desc>lat.=44.438705, lon.=34.128929, Alt.=378.183838m. Speed=4.716000m/h.</desc>
<speed>1.310000</speed>
</trkpt>
<trkpt lat="44.438599" lon="34.128754">
<ele>377.308838</ele>
<time>2011-10-13T12:45:56Z</time>
<desc>lat.=44.438599, lon.=34.128754, Alt.=377.308838m. Speed=3.960000m/h.</desc>
<speed>1.100000</speed>
</trkpt>
<trkpt lat="44.438351" lon="34.128399">
<ele>375.183838</ele>
<time>2011-10-13T12:46:01Z</time>
<desc>lat.=44.438351, lon.=34.128399, Alt.=375.183838m. Speed=4.968000m/h.</desc>
<speed>1.380000</speed>
</trkpt>
<trkpt lat="44.438076" lon="34.128094">
<ele>374.238525</ele>
<time>2011-10-13T12:46:06Z</time>
<desc>lat.=44.438076, lon.=34.128094, Alt.=374.238525m. Speed=5.004000m/h.</desc>
<speed>1.390000</speed>
</trkpt>
<trkpt lat="44.437954" lon="34.127815">
<ele>374.261963</ele>
<time>2011-10-13T12:46:11Z</time>
<desc>lat.=44.437954, lon.=34.127815, Alt.=374.261963m. Speed=3.888000m/h.</desc>
<speed>1.080000</speed>
</trkpt>
<trkpt lat="44.437798" lon="34.127544">
<ele>374.441650</ele>
<time>2011-10-13T12:46:16Z</time>
<desc>lat.=44.437798, lon.=34.127544, Alt.=374.441650m. Speed=7.848000m/h.</desc>
<speed>2.180000</speed>
</trkpt>
<trkpt lat="44.437603" lon="34.127254">
<ele>374.886963</ele>
<time>2011-10-13T12:46:21Z</time>
<desc>lat.=44.437603, lon.=34.127254, Alt.=374.886963m. Speed=10.080000m/h.</desc>
<speed>2.800000</speed>
</trkpt>
<trkpt lat="44.437504" lon="34.127087">
<ele>376.543213</ele>
<time>2011-10-13T12:46:26Z</time>
<desc>lat.=44.437504, lon.=34.127087, Alt.=376.543213m. Speed=6.120000m/h.</desc>
<speed>1.700000</speed>
</trkpt>
<trkpt lat="44.437389" lon="34.126873">
<ele>378.363525</ele>
<time>2011-10-13T12:46:31Z</time>
<desc>lat.=44.437389, lon.=34.126873, Alt.=378.363525m. Speed=6.768000m/h.</desc>
<speed>1.880000</speed>
</trkpt>
<trkpt lat="44.437408" lon="34.126717">
<ele>378.949463</ele>
<time>2011-10-13T12:46:36Z</time>
<desc>lat.=44.437408, lon.=34.126717, Alt.=378.949463m. Speed=6.444000m/h.</desc>
<speed>1.790000</speed>
</trkpt>
<trkpt lat="44.437408" lon="34.126545">
<ele>380.988525</ele>
<time>2011-10-13T12:46:41Z</time>
<desc>lat.=44.437408, lon.=34.126545, Alt.=380.988525m. Speed=2.232000m/h.</desc>
<speed>0.620000</speed>
</trkpt>
<trkpt lat="44.437527" lon="34.126465">
<ele>380.269775</ele>
<time>2011-10-13T12:46:46Z</time>
<desc>lat.=44.437527, lon.=34.126465, Alt.=380.269775m. Speed=4.392000m/h.</desc>
<speed>1.220000</speed>
</trkpt>
<trkpt lat="44.437595" lon="34.126366">
<ele>382.418213</ele>
<time>2011-10-13T12:46:51Z</time>
<desc>lat.=44.437595, lon.=34.126366, Alt.=382.418213m. Speed=2.268000m/h.</desc>
<speed>0.630000</speed>
</trkpt>
<trkpt lat="44.437656" lon="34.126198">
<ele>387.207275</ele>
<time>2011-10-13T12:46:56Z</time>
<desc>lat.=44.437656, lon.=34.126198, Alt.=387.207275m. Speed=4.608000m/h.</desc>
<speed>1.280000</speed>
</trkpt>
<trkpt lat="44.437622" lon="34.125973">
<ele>391.386963</ele>
<time>2011-10-13T12:47:01Z</time>
<desc>lat.=44.437622, lon.=34.125973, Alt.=391.386963m. Speed=7.020000m/h.</desc>
<speed>1.950000</speed>
</trkpt>
<trkpt lat="44.437645" lon="34.125751">
<ele>395.840088</ele>
<time>2011-10-13T12:47:06Z</time>
<desc>lat.=44.437645, lon.=34.125751, Alt.=395.840088m. Speed=7.596000m/h.</desc>
<speed>2.110000</speed>
</trkpt>
<trkpt lat="44.437801" lon="34.125568">
<ele>401.457275</ele>
<time>2011-10-13T12:47:11Z</time>
<desc>lat.=44.437801, lon.=34.125568, Alt.=401.457275m. Speed=2.448000m/h.</desc>
<speed>0.680000</speed>
</trkpt>
<trkpt lat="44.437943" lon="34.125362">
<ele>407.066650</ele>
<time>2011-10-13T12:47:16Z</time>
<desc>lat.=44.437943, lon.=34.125362, Alt.=407.066650m. Speed=4.968000m/h.</desc>
<speed>1.380000</speed>
</trkpt>
<trkpt lat="44.438046" lon="34.125179">
<ele>412.332275</ele>
<time>2011-10-13T12:47:21Z</time>
<desc>lat.=44.438046, lon.=34.125179, Alt.=412.332275m. Speed=2.592000m/h.</desc>
<speed>0.720000</speed>
</trkpt>
<trkpt lat="44.438091" lon="34.125072">
<ele>414.590088</ele>
<time>2011-10-13T12:47:26Z</time>
<desc>lat.=44.438091, lon.=34.125072, Alt.=414.590088m. Speed=1.548000m/h.</desc>
<speed>0.430000</speed>
</trkpt>
<trkpt lat="44.438091" lon="34.124996">
<ele>416.676025</ele>
<time>2011-10-13T12:47:31Z</time>
<desc>lat.=44.438091, lon.=34.124996, Alt.=416.676025m. Speed=2.124000m/h.</desc>
<speed>0.590000</speed>
</trkpt>
<trkpt lat="44.438007" lon="34.124893">
<ele>419.121338</ele>
<time>2011-10-13T12:47:36Z</time>
<desc>lat.=44.438007, lon.=34.124893, Alt.=419.121338m. Speed=2.412000m/h.</desc>
<speed>0.670000</speed>
</trkpt>
<trkpt lat="44.437836" lon="34.124813">
<ele>420.785400</ele>
<time>2011-10-13T12:47:41Z</time>
<desc>lat.=44.437836, lon.=34.124813, Alt.=420.785400m. Speed=7.524000m/h.</desc>
<speed>2.090000</speed>
</trkpt>
<trkpt lat="44.437679" lon="34.124680">
<ele>424.636963</ele>
<time>2011-10-13T12:47:46Z</time>
<desc>lat.=44.437679, lon.=34.124680, Alt.=424.636963m. Speed=5.436000m/h.</desc>
<speed>1.510000</speed>
</trkpt>
<trkpt lat="44.437603" lon="34.124481">
<ele>428.551025</ele>
<time>2011-10-13T12:47:51Z</time>
<desc>lat.=44.437603, lon.=34.124481, Alt.=428.551025m. Speed=6.516000m/h.</desc>
<speed>1.810000</speed>
</trkpt>
<trkpt lat="44.437546" lon="34.124302">
<ele>433.168213</ele>
<time>2011-10-13T12:47:56Z</time>
<desc>lat.=44.437546, lon.=34.124302, Alt.=433.168213m. Speed=4.536000m/h.</desc>
<speed>1.260000</speed>
</trkpt>
<trkpt lat="44.437420" lon="34.124111">
<ele>439.652588</ele>
<time>2011-10-13T12:48:01Z</time>
<desc>lat.=44.437420, lon.=34.124111, Alt.=439.652588m. Speed=9.432000m/h.</desc>
<speed>2.620000</speed>
</trkpt>
<trkpt lat="44.437305" lon="34.123989">
<ele>446.199463</ele>
<time>2011-10-13T12:48:06Z</time>
<desc>lat.=44.437305, lon.=34.123989, Alt.=446.199463m. Speed=5.040000m/h.</desc>
<speed>1.400000</speed>
</trkpt>
<trkpt lat="44.437176" lon="34.123817">
<ele>451.230713</ele>
<time>2011-10-13T12:48:11Z</time>
<desc>lat.=44.437176, lon.=34.123817, Alt.=451.230713m. Speed=8.064000m/h.</desc>
<speed>2.240000</speed>
</trkpt>
<trkpt lat="44.437119" lon="34.123604">
<ele>457.410400</ele>
<time>2011-10-13T12:48:16Z</time>
<desc>lat.=44.437119, lon.=34.123604, Alt.=457.410400m. Speed=5.112000m/h.</desc>
<speed>1.420000</speed>
</trkpt>
<trkpt lat="44.437042" lon="34.123417">
<ele>464.082275</ele>
<time>2011-10-13T12:48:21Z</time>
<desc>lat.=44.437042, lon.=34.123417, Alt.=464.082275m. Speed=4.824000m/h.</desc>
<speed>1.340000</speed>
</trkpt>
<trkpt lat="44.437012" lon="34.123173">
<ele>469.254150</ele>
<time>2011-10-13T12:48:26Z</time>
<desc>lat.=44.437012, lon.=34.123173, Alt.=469.254150m. Speed=3.528000m/h.</desc>
<speed>0.980000</speed>
</trkpt>
<trkpt lat="44.436966" lon="34.122917">
<ele>475.230713</ele>
<time>2011-10-13T12:48:31Z</time>
<desc>lat.=44.436966, lon.=34.122917, Alt.=475.230713m. Speed=2.340000m/h.</desc>
<speed>0.650000</speed>
</trkpt>
<trkpt lat="44.436935" lon="34.122818">
<ele>476.441650</ele>
<time>2011-10-13T12:48:36Z</time>
<desc>lat.=44.436935, lon.=34.122818, Alt.=476.441650m. Speed=0.828000m/h.</desc>
<speed>0.230000</speed>
</trkpt>
<trkpt lat="44.436710" lon="34.122871">
<ele>477.113525</ele>
<time>2011-10-13T12:48:41Z</time>
<desc>lat.=44.436710, lon.=34.122871, Alt.=477.113525m. Speed=2.088000m/h.</desc>
<speed>0.580000</speed>
</trkpt>
<trkpt lat="44.436508" lon="34.122879">
<ele>482.261963</ele>
<time>2011-10-13T12:48:46Z</time>
<desc>lat.=44.436508, lon.=34.122879, Alt.=482.261963m. Speed=0.504000m/h.</desc>
<speed>0.140000</speed>
</trkpt>
<trkpt lat="44.436459" lon="34.122894">
<ele>482.426025</ele>
<time>2011-10-13T12:48:51Z</time>
<desc>lat.=44.436459, lon.=34.122894, Alt.=482.426025m. Speed=0.432000m/h.</desc>
<speed>0.120000</speed>
</trkpt>
<trkpt lat="44.436459" lon="34.122887">
<ele>482.801025</ele>
<time>2011-10-13T12:48:56Z</time>
<desc>lat.=44.436459, lon.=34.122887, Alt.=482.801025m. Speed=0.360000m/h.</desc>
<speed>0.100000</speed>
</trkpt>
<trkpt lat="44.436459" lon="34.122883">
<ele>483.222900</ele>
<time>2011-10-13T12:49:01Z</time>
<desc>lat.=44.436459, lon.=34.122883, Alt.=483.222900m. Speed=0.144000m/h.</desc>
<speed>0.040000</speed>
</trkpt>
<trkpt lat="44.436459" lon="34.122879">
<ele>483.699463</ele>
<time>2011-10-13T12:49:06Z</time>
<desc>lat.=44.436459, lon.=34.122879, Alt.=483.699463m. Speed=0.468000m/h.</desc>
<speed>0.130000</speed>
</trkpt>
<trkpt lat="44.436455" lon="34.122875">
<ele>484.254150</ele>
<time>2011-10-13T12:49:11Z</time>
<desc>lat.=44.436455, lon.=34.122875, Alt.=484.254150m. Speed=1.044000m/h.</desc>
<speed>0.290000</speed>
</trkpt>
<trkpt lat="44.436440" lon="34.122868">
<ele>485.051025</ele>
<time>2011-10-13T12:49:16Z</time>
<desc>lat.=44.436440, lon.=34.122868, Alt.=485.051025m. Speed=0.792000m/h.</desc>
<speed>0.220000</speed>
</trkpt>
<trkpt lat="44.436367" lon="34.122490">
<ele>486.386963</ele>
<time>2011-10-13T12:49:21Z</time>
<desc>lat.=44.436367, lon.=34.122490, Alt.=486.386963m. Speed=0.648000m/h.</desc>
<speed>0.180000</speed>
</trkpt>
<trkpt lat="44.436306" lon="34.122368">
<ele>487.676025</ele>
<time>2011-10-13T12:49:26Z</time>
<desc>lat.=44.436306, lon.=34.122368, Alt.=487.676025m. Speed=0.612000m/h.</desc>
<speed>0.170000</speed>
</trkpt>
<trkpt lat="44.436272" lon="34.122269">
<ele>487.855713</ele>
<time>2011-10-13T12:49:31Z</time>
<desc>lat.=44.436272, lon.=34.122269, Alt.=487.855713m. Speed=0.504000m/h.</desc>
<speed>0.140000</speed>
</trkpt>
<trkpt lat="44.436241" lon="34.122223">
<ele>487.777588</ele>
<time>2011-10-13T12:49:36Z</time>
<desc>lat.=44.436241, lon.=34.122223, Alt.=487.777588m. Speed=0.576000m/h.</desc>
<speed>0.160000</speed>
</trkpt>
<trkpt lat="44.436222" lon="34.122189">
<ele>488.496338</ele>
<time>2011-10-13T12:49:41Z</time>
<desc>lat.=44.436222, lon.=34.122189, Alt.=488.496338m. Speed=0.396000m/h.</desc>
<speed>0.110000</speed>
</trkpt>
<trkpt lat="44.436218" lon="34.122189">
<ele>489.254150</ele>
<time>2011-10-13T12:49:46Z</time>
<desc>lat.=44.436218, lon.=34.122189, Alt.=489.254150m. Speed=0.072000m/h.</desc>
<speed>0.020000</speed>
</trkpt>
<trkpt lat="44.436211" lon="34.122070">
<ele>490.144775</ele>
<time>2011-10-13T12:49:51Z</time>
<desc>lat.=44.436211, lon.=34.122070, Alt.=490.144775m. Speed=0.252000m/h.</desc>
<speed>0.070000</speed>
</trkpt>
<trkpt lat="44.436169" lon="34.121922">
<ele>489.785400</ele>
<time>2011-10-13T12:49:56Z</time>
<desc>lat.=44.436169, lon.=34.121922, Alt.=489.785400m. Speed=0.324000m/h.</desc>
<speed>0.090000</speed>
</trkpt>
<trkpt lat="44.435562" lon="34.119801">
<ele>481.511963</ele>
<time>2011-10-13T12:50:01Z</time>
<desc>lat.=44.435562, lon.=34.119801, Alt.=481.511963m. Speed=1.476000m/h.</desc>
<speed>0.410000</speed>
</trkpt>
<trkpt lat="44.435646" lon="34.118927">
<ele>477.629150</ele>
<time>2011-10-13T12:50:06Z</time>
<desc>lat.=44.435646, lon.=34.118927, Alt.=477.629150m. Speed=2.124000m/h.</desc>
<speed>0.590000</speed>
</trkpt>
<trkpt lat="44.435749" lon="34.118641">
<ele>475.816650</ele>
<time>2011-10-13T12:50:11Z</time>
<desc>lat.=44.435749, lon.=34.118641, Alt.=475.816650m. Speed=1.188000m/h.</desc>
<speed>0.330000</speed>
</trkpt>
<trkpt lat="44.435753" lon="34.118530">
<ele>472.035400</ele>
<time>2011-10-13T12:50:16Z</time>
<desc>lat.=44.435753, lon.=34.118530, Alt.=472.035400m. Speed=1.044000m/h.</desc>
<speed>0.290000</speed>
</trkpt>
<trkpt lat="44.435791" lon="34.118500">
<ele>464.613525</ele>
<time>2011-10-13T12:50:21Z</time>
<desc>lat.=44.435791, lon.=34.118500, Alt.=464.613525m. Speed=0.648000m/h.</desc>
<speed>0.180000</speed>
</trkpt>
<trkpt lat="44.435699" lon="34.118477">
<ele>458.879150</ele>
<time>2011-10-13T12:50:26Z</time>
<desc>lat.=44.435699, lon.=34.118477, Alt.=458.879150m. Speed=1.260000m/h.</desc>
<speed>0.350000</speed>
</trkpt>
<trkpt lat="44.435566" lon="34.118477">
<ele>452.480713</ele>
<time>2011-10-13T12:50:31Z</time>
<desc>lat.=44.435566, lon.=34.118477, Alt.=452.480713m. Speed=2.556000m/h.</desc>
<speed>0.710000</speed>
</trkpt>
<trkpt lat="44.435535" lon="34.118488">
<ele>446.488525</ele>
<time>2011-10-13T12:50:36Z</time>
<desc>lat.=44.435535, lon.=34.118488, Alt.=446.488525m. Speed=1.080000m/h.</desc>
<speed>0.300000</speed>
</trkpt>
<trkpt lat="44.435509" lon="34.118481">
<ele>434.441650</ele>
<time>2011-10-13T12:50:41Z</time>
<desc>lat.=44.435509, lon.=34.118481, Alt.=434.441650m. Speed=1.476000m/h.</desc>
<speed>0.410000</speed>
</trkpt>
<trkpt lat="44.435448" lon="34.118481">
<ele>425.308838</ele>
<time>2011-10-13T12:50:46Z</time>
<desc>lat.=44.435448, lon.=34.118481, Alt.=425.308838m. Speed=0.864000m/h.</desc>
<speed>0.240000</speed>
</trkpt>
<trkpt lat="44.435463" lon="34.118530">
<ele>412.722900</ele>
<time>2011-10-13T12:50:51Z</time>
<desc>lat.=44.435463, lon.=34.118530, Alt.=412.722900m. Speed=1.692000m/h.</desc>
<speed>0.470000</speed>
</trkpt>
<trkpt lat="44.435440" lon="34.118530">
<ele>398.199463</ele>
<time>2011-10-13T12:50:56Z</time>
<desc>lat.=44.435440, lon.=34.118530, Alt.=398.199463m. Speed=0.252000m/h.</desc>
<speed>0.070000</speed>
</trkpt>
<trkpt lat="44.435406" lon="34.118511">
<ele>391.449463</ele>
<time>2011-10-13T12:51:01Z</time>
<desc>lat.=44.435406, lon.=34.118511, Alt.=391.449463m. Speed=0.288000m/h.</desc>
<speed>0.080000</speed>
</trkpt>
<trkpt lat="44.435402" lon="34.118511">
<ele>391.113525</ele>
<time>2011-10-13T12:51:06Z</time>
<desc>lat.=44.435402, lon.=34.118511, Alt.=391.113525m. Speed=0.540000m/h.</desc>
<speed>0.150000</speed>
</trkpt>
<trkpt lat="44.435406" lon="34.118515">
<ele>391.051025</ele>
<time>2011-10-13T12:51:11Z</time>
<desc>lat.=44.435406, lon.=34.118515, Alt.=391.051025m. Speed=0.936000m/h.</desc>
<speed>0.260000</speed>
</trkpt>
<trkpt lat="44.435364" lon="34.118572">
<ele>388.902588</ele>
<time>2011-10-13T12:51:16Z</time>
<desc>lat.=44.435364, lon.=34.118572, Alt.=388.902588m. Speed=5.688000m/h.</desc>
<speed>1.580000</speed>
</trkpt>
<trkpt lat="44.435223" lon="34.118633">
<ele>379.910400</ele>
<time>2011-10-13T12:51:21Z</time>
<desc>lat.=44.435223, lon.=34.118633, Alt.=379.910400m. Speed=5.472000m/h.</desc>
<speed>1.520000</speed>
</trkpt>
<trkpt lat="44.435123" lon="34.118599">
<ele>373.699463</ele>
<time>2011-10-13T12:51:26Z</time>
<desc>lat.=44.435123, lon.=34.118599, Alt.=373.699463m. Speed=3.096000m/h.</desc>
<speed>0.860000</speed>
</trkpt>
<trkpt lat="44.435005" lon="34.118530">
<ele>369.074463</ele>
<time>2011-10-13T12:51:31Z</time>
<desc>lat.=44.435005, lon.=34.118530, Alt.=369.074463m. Speed=3.168000m/h.</desc>
<speed>0.880000</speed>
</trkpt>
<trkpt lat="44.434875" lon="34.118473">
<ele>365.082275</ele>
<time>2011-10-13T12:51:36Z</time>
<desc>lat.=44.434875, lon.=34.118473, Alt.=365.082275m. Speed=7.308000m/h.</desc>
<speed>2.030000</speed>
</trkpt>
<trkpt lat="44.434734" lon="34.118462">
<ele>357.058838</ele>
<time>2011-10-13T12:51:41Z</time>
<desc>lat.=44.434734, lon.=34.118462, Alt.=357.058838m. Speed=9.540000m/h.</desc>
<speed>2.650000</speed>
</trkpt>
<trkpt lat="44.434624" lon="34.118679">
<ele>352.230713</ele>
<time>2011-10-13T12:51:46Z</time>
<desc>lat.=44.434624, lon.=34.118679, Alt.=352.230713m. Speed=19.691999m/h.</desc>
<speed>5.470000</speed>
</trkpt>
<trkpt lat="44.434483" lon="34.119068">
<ele>343.168213</ele>
<time>2011-10-13T12:51:51Z</time>
<desc>lat.=44.434483, lon.=34.119068, Alt.=343.168213m. Speed=32.112000m/h.</desc>
<speed>8.920000</speed>
</trkpt>
<trkpt lat="44.434242" lon="34.119568">
<ele>325.769775</ele>
<time>2011-10-13T12:51:56Z</time>
<desc>lat.=44.434242, lon.=34.119568, Alt.=325.769775m. Speed=40.139999m/h.</desc>
<speed>11.150000</speed>
</trkpt>
<trkpt lat="44.433960" lon="34.120037">
<ele>310.394775</ele>
<time>2011-10-13T12:52:01Z</time>
<desc>lat.=44.433960, lon.=34.120037, Alt.=310.394775m. Speed=35.388000m/h.</desc>
<speed>9.830000</speed>
</trkpt>
<trkpt lat="44.433876" lon="34.120556">
<ele>301.605713</ele>
<time>2011-10-13T12:52:06Z</time>
<desc>lat.=44.433876, lon.=34.120556, Alt.=301.605713m. Speed=29.844000m/h.</desc>
<speed>8.290000</speed>
</trkpt>
<trkpt lat="44.433975" lon="34.121010">
<ele>298.004150</ele>
<time>2011-10-13T12:52:11Z</time>
<desc>lat.=44.433975, lon.=34.121010, Alt.=298.004150m. Speed=29.304001m/h.</desc>
<speed>8.140000</speed>
</trkpt>
<trkpt lat="44.434090" lon="34.121521">
<ele>290.738525</ele>
<time>2011-10-13T12:52:16Z</time>
<desc>lat.=44.434090, lon.=34.121521, Alt.=290.738525m. Speed=31.968000m/h.</desc>
<speed>8.880000</speed>
</trkpt>
<trkpt lat="44.434231" lon="34.122097">
<ele>281.730713</ele>
<time>2011-10-13T12:52:21Z</time>
<desc>lat.=44.434231, lon.=34.122097, Alt.=281.730713m. Speed=35.063999m/h.</desc>
<speed>9.740000</speed>
</trkpt>
<trkpt lat="44.434284" lon="34.122585">
<ele>278.144775</ele>
<time>2011-10-13T12:52:26Z</time>
<desc>lat.=44.434284, lon.=34.122585, Alt.=278.144775m. Speed=22.572001m/h.</desc>
<speed>6.270000</speed>
</trkpt>
<trkpt lat="44.434429" lon="34.122856">
<ele>277.715088</ele>
<time>2011-10-13T12:52:31Z</time>
<desc>lat.=44.434429, lon.=34.122856, Alt.=277.715088m. Speed=8.388000m/h.</desc>
<speed>2.330000</speed>
</trkpt>
<trkpt lat="44.434368" lon="34.122738">
<ele>277.613525</ele>
<time>2011-10-13T12:52:36Z</time>
<desc>lat.=44.434368, lon.=34.122738, Alt.=277.613525m. Speed=23.112000m/h.</desc>
<speed>6.420000</speed>
</trkpt>
<trkpt lat="44.434879" lon="34.125130">
<ele>283.207275</ele>
<time>2011-10-13T12:52:41Z</time>
<desc>lat.=44.434879, lon.=34.125130, Alt.=283.207275m. Speed=27.504000m/h.</desc>
<speed>7.640000</speed>
</trkpt>
<trkpt lat="44.434723" lon="34.124649">
<ele>256.043213</ele>
<time>2011-10-13T12:52:46Z</time>
<desc>lat.=44.434723, lon.=34.124649, Alt.=256.043213m. Speed=30.563999m/h.</desc>
<speed>8.490000</speed>
</trkpt>
<trkpt lat="44.434544" lon="34.124088">
<ele>236.170044</ele>
<time>2011-10-13T12:52:51Z</time>
<desc>lat.=44.434544, lon.=34.124088, Alt.=236.170044m. Speed=29.375999m/h.</desc>
<speed>8.160000</speed>
</trkpt>
<trkpt lat="44.434425" lon="34.123554">
<ele>227.037231</ele>
<time>2011-10-13T12:52:56Z</time>
<desc>lat.=44.434425, lon.=34.123554, Alt.=227.037231m. Speed=27.216000m/h.</desc>
<speed>7.560000</speed>
</trkpt>
<trkpt lat="44.434330" lon="34.123013">
<ele>218.412231</ele>
<time>2011-10-13T12:53:01Z</time>
<desc>lat.=44.434330, lon.=34.123013, Alt.=218.412231m. Speed=28.403999m/h.</desc>
<speed>7.890000</speed>
</trkpt>
<trkpt lat="44.434132" lon="34.122505">
<ele>211.361450</ele>
<time>2011-10-13T12:53:06Z</time>
<desc>lat.=44.434132, lon.=34.122505, Alt.=211.361450m. Speed=31.212000m/h.</desc>
<speed>8.670000</speed>
</trkpt>
<trkpt lat="44.433693" lon="34.122124">
<ele>198.646606</ele>
<time>2011-10-13T12:53:11Z</time>
<desc>lat.=44.433693, lon.=34.122124, Alt.=198.646606m. Speed=33.660000m/h.</desc>
<speed>9.350000</speed>
</trkpt>
<trkpt lat="44.433167" lon="34.121616">
<ele>174.974731</ele>
<time>2011-10-13T12:53:16Z</time>
<desc>lat.=44.433167, lon.=34.121616, Alt.=174.974731m. Speed=38.844002m/h.</desc>
<speed>10.790000</speed>
</trkpt>
<trkpt lat="44.432659" lon="34.121296">
<ele>165.130981</ele>
<time>2011-10-13T12:53:21Z</time>
<desc>lat.=44.432659, lon.=34.121296, Alt.=165.130981m. Speed=39.888000m/h.</desc>
<speed>11.080000</speed>
</trkpt>
<trkpt lat="44.432117" lon="34.121132">
<ele>153.658325</ele>
<time>2011-10-13T12:53:26Z</time>
<desc>lat.=44.432117, lon.=34.121132, Alt.=153.658325m. Speed=45.035999m/h.</desc>
<speed>12.510000</speed>
</trkpt>
<trkpt lat="44.431828" lon="34.121334">
<ele>133.404419</ele>
<time>2011-10-13T12:53:31Z</time>
<desc>lat.=44.431828, lon.=34.121334, Alt.=133.404419m. Speed=16.344000m/h.</desc>
<speed>4.540000</speed>
</trkpt>
<trkpt lat="44.432163" lon="34.121929">
<ele>126.114319</ele>
<time>2011-10-13T12:53:36Z</time>
<desc>lat.=44.432163, lon.=34.121929, Alt.=126.114319m. Speed=45.683998m/h.</desc>
<speed>12.689999</speed>
</trkpt>
<trkpt lat="44.432571" lon="34.122501">
<ele>119.143616</ele>
<time>2011-10-13T12:53:41Z</time>
<desc>lat.=44.432571, lon.=34.122501, Alt.=119.143616m. Speed=45.936001m/h.</desc>
<speed>12.760000</speed>
</trkpt>
<trkpt lat="44.432995" lon="34.123093">
<ele>113.092834</ele>
<time>2011-10-13T12:53:46Z</time>
<desc>lat.=44.432995, lon.=34.123093, Alt.=113.092834m. Speed=45.576000m/h.</desc>
<speed>12.660000</speed>
</trkpt>
<trkpt lat="44.433399" lon="34.123516">
<ele>109.321350</ele>
<time>2011-10-13T12:53:51Z</time>
<desc>lat.=44.433399, lon.=34.123516, Alt.=109.321350m. Speed=36.504002m/h.</desc>
<speed>10.140000</speed>
</trkpt>
<trkpt lat="44.433624" lon="34.123886">
<ele>107.004944</ele>
<time>2011-10-13T12:53:56Z</time>
<desc>lat.=44.433624, lon.=34.123886, Alt.=107.004944m. Speed=27.972000m/h.</desc>
<speed>7.770000</speed>
</trkpt>
<trkpt lat="44.433609" lon="34.124325">
<ele>108.549866</ele>
<time>2011-10-13T12:54:01Z</time>
<desc>lat.=44.433609, lon.=34.124325, Alt.=108.549866m. Speed=24.480000m/h.</desc>
<speed>6.800000</speed>
</trkpt>
<trkpt lat="44.433552" lon="34.124561">
<ele>109.836975</ele>
<time>2011-10-13T12:54:06Z</time>
<desc>lat.=44.433552, lon.=34.124561, Alt.=109.836975m. Speed=10.224000m/h.</desc>
<speed>2.840000</speed>
</trkpt>
<trkpt lat="44.433529" lon="34.124638">
<ele>108.145569</ele>
<time>2011-10-13T12:54:11Z</time>
<desc>lat.=44.433529, lon.=34.124638, Alt.=108.145569m. Speed=1.044000m/h.</desc>
<speed>0.290000</speed>
</trkpt>
<trkpt lat="44.433514" lon="34.124660">
<ele>109.440491</ele>
<time>2011-10-13T12:54:16Z</time>
<desc>lat.=44.433514, lon.=34.124660, Alt.=109.440491m. Speed=2.412000m/h.</desc>
<speed>0.670000</speed>
</trkpt>
<trkpt lat="44.433502" lon="34.124645">
<ele>110.680725</ele>
<time>2011-10-13T12:54:21Z</time>
<desc>lat.=44.433502, lon.=34.124645, Alt.=110.680725m. Speed=3.600000m/h.</desc>
<speed>1.000000</speed>
</trkpt>
<trkpt lat="44.433525" lon="34.124748">
<ele>108.819397</ele>
<time>2011-10-13T12:54:26Z</time>
<desc>lat.=44.433525, lon.=34.124748, Alt.=108.819397m. Speed=2.232000m/h.</desc>
<speed>0.620000</speed>
</trkpt>
<trkpt lat="44.433548" lon="34.124821">
<ele>108.692444</ele>
<time>2011-10-13T12:54:31Z</time>
<desc>lat.=44.433548, lon.=34.124821, Alt.=108.692444m. Speed=2.628000m/h.</desc>
<speed>0.730000</speed>
</trkpt>
<trkpt lat="44.433567" lon="34.124901">
<ele>110.807678</ele>
<time>2011-10-13T12:54:36Z</time>
<desc>lat.=44.433567, lon.=34.124901, Alt.=110.807678m. Speed=1.044000m/h.</desc>
<speed>0.290000</speed>
</trkpt>
<trkpt lat="44.433575" lon="34.124901">
<ele>111.567444</ele>
<time>2011-10-13T12:54:41Z</time>
<desc>lat.=44.433575, lon.=34.124901, Alt.=111.567444m. Speed=0.216000m/h.</desc>
<speed>0.060000</speed>
</trkpt>
<trkpt lat="44.433559" lon="34.124981">
<ele>112.790100</ele>
<time>2011-10-13T12:54:46Z</time>
<desc>lat.=44.433559, lon.=34.124981, Alt.=112.790100m. Speed=0.504000m/h.</desc>
<speed>0.140000</speed>
</trkpt>
<trkpt lat="44.433567" lon="34.124985">
<ele>113.407288</ele>
<time>2011-10-13T12:54:51Z</time>
<desc>lat.=44.433567, lon.=34.124985, Alt.=113.407288m. Speed=0.432000m/h.</desc>
<speed>0.120000</speed>
</trkpt>
<trkpt lat="44.433571" lon="34.124989">
<ele>113.629944</ele>
<time>2011-10-13T12:54:56Z</time>
<desc>lat.=44.433571, lon.=34.124989, Alt.=113.629944m. Speed=0.540000m/h.</desc>
<speed>0.150000</speed>
</trkpt>
<trkpt lat="44.433578" lon="34.124992">
<ele>113.833069</ele>
<time>2011-10-13T12:55:01Z</time>
<desc>lat.=44.433578, lon.=34.124992, Alt.=113.833069m. Speed=0.540000m/h.</desc>
<speed>0.150000</speed>
</trkpt>
<trkpt lat="44.433586" lon="34.124992">
<ele>114.020569</ele>
<time>2011-10-13T12:55:06Z</time>
<desc>lat.=44.433586, lon.=34.124992, Alt.=114.020569m. Speed=0.468000m/h.</desc>
<speed>0.130000</speed>
</trkpt>
<trkpt lat="44.433594" lon="34.124996">
<ele>114.264709</ele>
<time>2011-10-13T12:55:11Z</time>
<desc>lat.=44.433594, lon.=34.124996, Alt.=114.264709m. Speed=0.576000m/h.</desc>
<speed>0.160000</speed>
</trkpt>
<trkpt lat="44.433598" lon="34.125000">
<ele>114.536194</ele>
<time>2011-10-13T12:55:16Z</time>
<desc>lat.=44.433598, lon.=34.125000, Alt.=114.536194m. Speed=0.216000m/h.</desc>
<speed>0.060000</speed>
</trkpt>
<trkpt lat="44.433601" lon="34.125004">
<ele>114.784241</ele>
<time>2011-10-13T12:55:21Z</time>
<desc>lat.=44.433601, lon.=34.125004, Alt.=114.784241m. Speed=0.504000m/h.</desc>
<speed>0.140000</speed>
</trkpt>
<trkpt lat="44.433609" lon="34.125008">
<ele>115.118225</ele>
<time>2011-10-13T12:55:26Z</time>
<desc>lat.=44.433609, lon.=34.125008, Alt.=115.118225m. Speed=0.432000m/h.</desc>
<speed>0.120000</speed>
</trkpt>
<trkpt lat="44.433620" lon="34.125011">
<ele>115.522522</ele>
<time>2011-10-13T12:55:31Z</time>
<desc>lat.=44.433620, lon.=34.125011, Alt.=115.522522m. Speed=0.792000m/h.</desc>
<speed>0.220000</speed>
</trkpt>
<trkpt lat="44.433628" lon="34.125011">
<ele>115.950256</ele>
<time>2011-10-13T12:55:36Z</time>
<desc>lat.=44.433628, lon.=34.125011, Alt.=115.950256m. Speed=0.648000m/h.</desc>
<speed>0.180000</speed>
</trkpt>
<trkpt lat="44.433640" lon="34.125015">
<ele>116.419006</ele>
<time>2011-10-13T12:55:41Z</time>
<desc>lat.=44.433640, lon.=34.125015, Alt.=116.419006m. Speed=0.864000m/h.</desc>
<speed>0.240000</speed>
</trkpt>
<trkpt lat="44.433647" lon="34.125015">
<ele>116.930725</ele>
<time>2011-10-13T12:55:46Z</time>
<desc>lat.=44.433647, lon.=34.125015, Alt.=116.930725m. Speed=0.756000m/h.</desc>
<speed>0.210000</speed>
</trkpt>
<trkpt lat="44.433659" lon="34.125019">
<ele>117.430725</ele>
<time>2011-10-13T12:55:51Z</time>
<desc>lat.=44.433659, lon.=34.125019, Alt.=117.430725m. Speed=0.720000m/h.</desc>
<speed>0.200000</speed>
</trkpt>
<trkpt lat="44.433666" lon="34.125019">
<ele>117.928772</ele>
<time>2011-10-13T12:55:56Z</time>
<desc>lat.=44.433666, lon.=34.125019, Alt.=117.928772m. Speed=0.648000m/h.</desc>
<speed>0.180000</speed>
</trkpt>
<trkpt lat="44.433674" lon="34.125023">
<ele>118.389709</ele>
<time>2011-10-13T12:56:01Z</time>
<desc>lat.=44.433674, lon.=34.125023, Alt.=118.389709m. Speed=0.432000m/h.</desc>
<speed>0.120000</speed>
</trkpt>
<trkpt lat="44.433678" lon="34.125023">
<ele>118.743225</ele>
<time>2011-10-13T12:56:06Z</time>
<desc>lat.=44.433678, lon.=34.125023, Alt.=118.743225m. Speed=0.792000m/h.</desc>
<speed>0.220000</speed>
</trkpt>
<trkpt lat="44.433685" lon="34.125023">
<ele>119.030334</ele>
<time>2011-10-13T12:56:11Z</time>
<desc>lat.=44.433685, lon.=34.125023, Alt.=119.030334m. Speed=0.504000m/h.</desc>
<speed>0.140000</speed>
</trkpt>
<trkpt lat="44.433689" lon="34.125027">
<ele>119.286194</ele>
<time>2011-10-13T12:56:16Z</time>
<desc>lat.=44.433689, lon.=34.125027, Alt.=119.286194m. Speed=0.504000m/h.</desc>
<speed>0.140000</speed>
</trkpt>
<trkpt lat="44.433693" lon="34.125027">
<ele>119.608459</ele>
<time>2011-10-13T12:56:21Z</time>
<desc>lat.=44.433693, lon.=34.125027, Alt.=119.608459m. Speed=0.540000m/h.</desc>
<speed>0.150000</speed>
</trkpt>
<trkpt lat="44.433701" lon="34.125027">
<ele>120.061584</ele>
<time>2011-10-13T12:56:26Z</time>
<desc>lat.=44.433701, lon.=34.125027, Alt.=120.061584m. Speed=0.468000m/h.</desc>
<speed>0.130000</speed>
</trkpt>
<trkpt lat="44.433708" lon="34.125031">
<ele>120.549866</ele>
<time>2011-10-13T12:56:31Z</time>
<desc>lat.=44.433708, lon.=34.125031, Alt.=120.549866m. Speed=0.180000m/h.</desc>
<speed>0.050000</speed>
</trkpt>
<trkpt lat="44.433712" lon="34.125053">
<ele>123.018616</ele>
<time>2011-10-13T12:56:36Z</time>
<desc>lat.=44.433712, lon.=34.125053, Alt.=123.018616m. Speed=1.404000m/h.</desc>
<speed>0.390000</speed>
</trkpt>
<trkpt lat="44.433701" lon="34.125092">
<ele>123.868225</ele>
<time>2011-10-13T12:56:41Z</time>
<desc>lat.=44.433701, lon.=34.125092, Alt.=123.868225m. Speed=0.504000m/h.</desc>
<speed>0.140000</speed>
</trkpt>
<trkpt lat="44.433697" lon="34.125099">
<ele>124.028381</ele>
<time>2011-10-13T12:56:46Z</time>
<desc>lat.=44.433697, lon.=34.125099, Alt.=124.028381m. Speed=0.396000m/h.</desc>
<speed>0.110000</speed>
</trkpt>
<trkpt lat="44.433689" lon="34.125099">
<ele>124.141663</ele>
<time>2011-10-13T12:56:51Z</time>
<desc>lat.=44.433689, lon.=34.125099, Alt.=124.141663m. Speed=0.360000m/h.</desc>
<speed>0.100000</speed>
</trkpt>
<trkpt lat="44.433643" lon="34.125267">
<ele>124.430725</ele>
<time>2011-10-13T12:56:56Z</time>
<desc>lat.=44.433643, lon.=34.125267, Alt.=124.430725m. Speed=0.504000m/h.</desc>
<speed>0.140000</speed>
</trkpt>
<trkpt lat="44.433647" lon="34.125343">
<ele>124.409241</ele>
<time>2011-10-13T12:57:01Z</time>
<desc>lat.=44.433647, lon.=34.125343, Alt.=124.409241m. Speed=0.756000m/h.</desc>
<speed>0.210000</speed>
</trkpt>
<trkpt lat="44.433624" lon="34.125370">
<ele>125.102600</ele>
<time>2011-10-13T12:57:06Z</time>
<desc>lat.=44.433624, lon.=34.125370, Alt.=125.102600m. Speed=0.792000m/h.</desc>
<speed>0.220000</speed>
</trkpt>
<trkpt lat="44.433613" lon="34.125412">
<ele>125.352600</ele>
<time>2011-10-13T12:57:11Z</time>
<desc>lat.=44.433613, lon.=34.125412, Alt.=125.352600m. Speed=0.612000m/h.</desc>
<speed>0.170000</speed>
</trkpt>
<trkpt lat="44.433617" lon="34.125416">
<ele>125.805725</ele>
<time>2011-10-13T12:57:16Z</time>
<desc>lat.=44.433617, lon.=34.125416, Alt.=125.805725m. Speed=0.324000m/h.</desc>
<speed>0.090000</speed>
</trkpt>
<trkpt lat="44.433624" lon="34.125431">
<ele>126.098694</ele>
<time>2011-10-13T12:57:21Z</time>
<desc>lat.=44.433624, lon.=34.125431, Alt.=126.098694m. Speed=0.324000m/h.</desc>
<speed>0.090000</speed>
</trkpt>
<trkpt lat="44.433628" lon="34.125439">
<ele>126.325256</ele>
<time>2011-10-13T12:57:26Z</time>
<desc>lat.=44.433628, lon.=34.125439, Alt.=126.325256m. Speed=0.612000m/h.</desc>
<speed>0.170000</speed>
</trkpt>
<trkpt lat="44.433624" lon="34.125443">
<ele>126.559631</ele>
<time>2011-10-13T12:57:31Z</time>
<desc>lat.=44.433624, lon.=34.125443, Alt.=126.559631m. Speed=0.504000m/h.</desc>
<speed>0.140000</speed>
</trkpt>
<trkpt lat="44.433620" lon="34.125450">
<ele>126.778381</ele>
<time>2011-10-13T12:57:36Z</time>
<desc>lat.=44.433620, lon.=34.125450, Alt.=126.778381m. Speed=0.576000m/h.</desc>
<speed>0.160000</speed>
</trkpt>
<trkpt lat="44.433613" lon="34.125454">
<ele>127.034241</ele>
<time>2011-10-13T12:57:41Z</time>
<desc>lat.=44.433613, lon.=34.125454, Alt.=127.034241m. Speed=0.648000m/h.</desc>
<speed>0.180000</speed>
</trkpt>
<trkpt lat="44.433605" lon="34.125462">
<ele>127.338928</ele>
<time>2011-10-13T12:57:46Z</time>
<desc>lat.=44.433605, lon.=34.125462, Alt.=127.338928m. Speed=0.756000m/h.</desc>
<speed>0.210000</speed>
</trkpt>
<trkpt lat="44.433598" lon="34.125469">
<ele>127.676819</ele>
<time>2011-10-13T12:57:51Z</time>
<desc>lat.=44.433598, lon.=34.125469, Alt.=127.676819m. Speed=0.756000m/h.</desc>
<speed>0.210000</speed>
</trkpt>
<trkpt lat="44.433590" lon="34.125477">
<ele>128.013794</ele>
<time>2011-10-13T12:57:56Z</time>
<desc>lat.=44.433590, lon.=34.125477, Alt.=128.013794m. Speed=0.936000m/h.</desc>
<speed>0.260000</speed>
</trkpt>
<trkpt lat="44.433594" lon="34.125504">
<ele>128.088013</ele>
<time>2011-10-13T12:58:01Z</time>
<desc>lat.=44.433594, lon.=34.125504, Alt.=128.088013m. Speed=0.900000m/h.</desc>
<speed>0.250000</speed>
</trkpt>
<trkpt lat="44.433586" lon="34.125507">
<ele>128.392700</ele>
<time>2011-10-13T12:58:06Z</time>
<desc>lat.=44.433586, lon.=34.125507, Alt.=128.392700m. Speed=0.684000m/h.</desc>
<speed>0.190000</speed>
</trkpt>
<trkpt lat="44.433578" lon="34.125515">
<ele>128.638794</ele>
<time>2011-10-13T12:58:11Z</time>
<desc>lat.=44.433578, lon.=34.125515, Alt.=128.638794m. Speed=0.612000m/h.</desc>
<speed>0.170000</speed>
</trkpt>
<trkpt lat="44.433575" lon="34.125519">
<ele>128.849731</ele>
<time>2011-10-13T12:58:16Z</time>
<desc>lat.=44.433575, lon.=34.125519, Alt.=128.849731m. Speed=0.612000m/h.</desc>
<speed>0.170000</speed>
</trkpt>
<trkpt lat="44.433563" lon="34.125542">
<ele>129.201294</ele>
<time>2011-10-13T12:58:21Z</time>
<desc>lat.=44.433563, lon.=34.125542, Alt.=129.201294m. Speed=0.576000m/h.</desc>
<speed>0.160000</speed>
</trkpt>
<trkpt lat="44.433559" lon="34.125546">
<ele>129.568481</ele>
<time>2011-10-13T12:58:26Z</time>
<desc>lat.=44.433559, lon.=34.125546, Alt.=129.568481m. Speed=0.540000m/h.</desc>
<speed>0.150000</speed>
</trkpt>
<trkpt lat="44.433556" lon="34.125546">
<ele>129.947388</ele>
<time>2011-10-13T12:58:31Z</time>
<desc>lat.=44.433556, lon.=34.125546, Alt.=129.947388m. Speed=0.000000m/h.</desc>
<speed>0.000000</speed>
</trkpt>
<trkpt lat="44.433556" lon="34.125549">
<ele>130.295044</ele>
<time>2011-10-13T12:58:36Z</time>
<desc>lat.=44.433556, lon.=34.125549, Alt.=130.295044m. Speed=1.152000m/h.</desc>
<speed>0.320000</speed>
</trkpt>
<trkpt lat="44.433578" lon="34.125580">
<ele>129.830200</ele>
<time>2011-10-13T12:58:41Z</time>
<desc>lat.=44.433578, lon.=34.125580, Alt.=129.830200m. Speed=1.008000m/h.</desc>
<speed>0.280000</speed>
</trkpt>
<trkpt lat="44.433575" lon="34.125587">
<ele>130.013794</ele>
<time>2011-10-13T12:58:46Z</time>
<desc>lat.=44.433575, lon.=34.125587, Alt.=130.013794m. Speed=0.216000m/h.</desc>
<speed>0.060000</speed>
</trkpt>
<trkpt lat="44.433578" lon="34.125587">
<ele>130.025513</ele>
<time>2011-10-13T12:58:51Z</time>
<desc>lat.=44.433578, lon.=34.125587, Alt.=130.025513m. Speed=0.684000m/h.</desc>
<speed>0.190000</speed>
</trkpt>
<trkpt lat="44.433578" lon="34.125591">
<ele>130.029419</ele>
<time>2011-10-13T12:58:56Z</time>
<desc>lat.=44.433578, lon.=34.125591, Alt.=130.029419m. Speed=0.396000m/h.</desc>
<speed>0.110000</speed>
</trkpt>
<trkpt lat="44.433578" lon="34.125591">
<ele>130.130981</ele>
<time>2011-10-13T12:59:01Z</time>
<desc>lat.=44.433578, lon.=34.125591, Alt.=130.130981m. Speed=0.288000m/h.</desc>
<speed>0.080000</speed>
</trkpt>
<trkpt lat="44.433578" lon="34.125591">
<ele>130.177856</ele>
<time>2011-10-13T12:59:06Z</time>
<desc>lat.=44.433578, lon.=34.125591, Alt.=130.177856m. Speed=0.000000m/h.</desc>
<speed>0.000000</speed>
</trkpt>
<trkpt lat="44.433578" lon="34.125591">
<ele>130.201294</ele>
<time>2011-10-13T12:59:11Z</time>
<desc>lat.=44.433578, lon.=34.125591, Alt.=130.201294m. Speed=0.072000m/h.</desc>
<speed>0.020000</speed>
</trkpt>
<trkpt lat="44.433578" lon="34.125591">
<ele>130.201294</ele>
<time>2011-10-13T12:59:16Z</time>
<desc>lat.=44.433578, lon.=34.125591, Alt.=130.201294m. Speed=0.036000m/h.</desc>
<speed>0.010000</speed>
</trkpt>
<trkpt lat="44.433578" lon="34.125595">
<ele>130.181763</ele>
<time>2011-10-13T12:59:21Z</time>
<desc>lat.=44.433578, lon.=34.125595, Alt.=130.181763m. Speed=0.072000m/h.</desc>
<speed>0.020000</speed>
</trkpt>
<trkpt lat="44.433578" lon="34.125595">
<ele>130.177856</ele>
<time>2011-10-13T12:59:26Z</time>
<desc>lat.=44.433578, lon.=34.125595, Alt.=130.177856m. Speed=0.036000m/h.</desc>
<speed>0.010000</speed>
</trkpt>
<trkpt lat="44.433582" lon="34.125595">
<ele>130.173950</ele>
<time>2011-10-13T12:59:31Z</time>
<desc>lat.=44.433582, lon.=34.125595, Alt.=130.173950m. Speed=0.216000m/h.</desc>
<speed>0.060000</speed>
</trkpt>
<trkpt lat="44.433582" lon="34.125595">
<ele>130.166138</ele>
<time>2011-10-13T12:59:36Z</time>
<desc>lat.=44.433582, lon.=34.125595, Alt.=130.166138m. Speed=0.036000m/h.</desc>
<speed>0.010000</speed>
</trkpt>
<trkpt lat="44.433582" lon="34.125595">
<ele>130.162231</ele>
<time>2011-10-13T12:59:41Z</time>
<desc>lat.=44.433582, lon.=34.125595, Alt.=130.162231m. Speed=0.036000m/h.</desc>
<speed>0.010000</speed>
</trkpt>
<trkpt lat="44.433582" lon="34.125595">
<ele>130.162231</ele>
<time>2011-10-13T12:59:46Z</time>
<desc>lat.=44.433582, lon.=34.125595, Alt.=130.162231m. Speed=0.036000m/h.</desc>
<speed>0.010000</speed>
</trkpt>
<trkpt lat="44.433582" lon="34.125595">
<ele>130.166138</ele>
<time>2011-10-13T12:59:51Z</time>
<desc>lat.=44.433582, lon.=34.125595, Alt.=130.166138m. Speed=0.072000m/h.</desc>
<speed>0.020000</speed>
</trkpt>
<trkpt lat="44.433582" lon="34.125595">
<ele>130.173950</ele>
<time>2011-10-13T12:59:56Z</time>
<desc>lat.=44.433582, lon.=34.125595, Alt.=130.173950m. Speed=0.036000m/h.</desc>
<speed>0.010000</speed>
</trkpt>
<trkpt lat="44.433582" lon="34.125599">
<ele>130.177856</ele>
<time>2011-10-13T13:00:01Z</time>
<desc>lat.=44.433582, lon.=34.125599, Alt.=130.177856m. Speed=0.036000m/h.</desc>
<speed>0.010000</speed>
</trkpt>
<trkpt lat="44.433582" lon="34.125599">
<ele>130.181763</ele>
<time>2011-10-13T13:00:06Z</time>
<desc>lat.=44.433582, lon.=34.125599, Alt.=130.181763m. Speed=0.036000m/h.</desc>
<speed>0.010000</speed>
</trkpt>
<trkpt lat="44.433582" lon="34.125599">
<ele>130.185669</ele>
<time>2011-10-13T13:00:11Z</time>
<desc>lat.=44.433582, lon.=34.125599, Alt.=130.185669m. Speed=0.036000m/h.</desc>
<speed>0.010000</speed>
</trkpt>
<trkpt lat="44.433582" lon="34.125599">
<ele>130.185669</ele>
<time>2011-10-13T13:00:16Z</time>
<desc>lat.=44.433582, lon.=34.125599, Alt.=130.185669m. Speed=0.000000m/h.</desc>
<speed>0.000000</speed>
</trkpt>
<trkpt lat="44.433582" lon="34.125599">
<ele>130.185669</ele>
<time>2011-10-13T13:00:21Z</time>
<desc>lat.=44.433582, lon.=34.125599, Alt.=130.185669m. Speed=0.000000m/h.</desc>
<speed>0.000000</speed>
</trkpt>
<trkpt lat="44.433582" lon="34.125599">
<ele>130.181763</ele>
<time>2011-10-13T13:00:26Z</time>
<desc>lat.=44.433582, lon.=34.125599, Alt.=130.181763m. Speed=0.000000m/h.</desc>
<speed>0.000000</speed>
</trkpt>
<trkpt lat="44.433582" lon="34.125599">
<ele>130.185669</ele>
<time>2011-10-13T13:00:31Z</time>
<desc>lat.=44.433582, lon.=34.125599, Alt.=130.185669m. Speed=0.108000m/h.</desc>
<speed>0.030000</speed>
</trkpt>
<trkpt lat="44.433582" lon="34.125599">
<ele>130.185669</ele>
<time>2011-10-13T13:00:36Z</time>
<desc>lat.=44.433582, lon.=34.125599, Alt.=130.185669m. Speed=0.000000m/h.</desc>
<speed>0.000000</speed>
</trkpt>
<trkpt lat="44.433582" lon="34.125599">
<ele>130.189575</ele>
<time>2011-10-13T13:00:41Z</time>
<desc>lat.=44.433582, lon.=34.125599, Alt.=130.189575m. Speed=0.000000m/h.</desc>
<speed>0.000000</speed>
</trkpt>
<trkpt lat="44.433582" lon="34.125599">
<ele>130.185669</ele>
<time>2011-10-13T13:00:46Z</time>
<desc>lat.=44.433582, lon.=34.125599, Alt.=130.185669m. Speed=0.000000m/h.</desc>
<speed>0.000000</speed>
</trkpt>
<trkpt lat="44.433582" lon="34.125599">
<ele>130.189575</ele>
<time>2011-10-13T13:00:51Z</time>
<desc>lat.=44.433582, lon.=34.125599, Alt.=130.189575m. Speed=0.180000m/h.</desc>
<speed>0.050000</speed>
</trkpt>
<trkpt lat="44.433582" lon="34.125599">
<ele>130.197388</ele>
<time>2011-10-13T13:00:56Z</time>
<desc>lat.=44.433582, lon.=34.125599, Alt.=130.197388m. Speed=0.072000m/h.</desc>
<speed>0.020000</speed>
</trkpt>
<trkpt lat="44.433586" lon="34.125603">
<ele>130.201294</ele>
<time>2011-10-13T13:01:01Z</time>
<desc>lat.=44.433586, lon.=34.125603, Alt.=130.201294m. Speed=0.036000m/h.</desc>
<speed>0.010000</speed>
</trkpt>
<trkpt lat="44.433586" lon="34.125603">
<ele>130.205200</ele>
<time>2011-10-13T13:01:06Z</time>
<desc>lat.=44.433586, lon.=34.125603, Alt.=130.205200m. Speed=0.036000m/h.</desc>
<speed>0.010000</speed>
</trkpt>
<trkpt lat="44.433586" lon="34.125603">
<ele>130.216919</ele>
<time>2011-10-13T13:01:11Z</time>
<desc>lat.=44.433586, lon.=34.125603, Alt.=130.216919m. Speed=0.000000m/h.</desc>
<speed>0.000000</speed>
</trkpt>
<trkpt lat="44.433586" lon="34.125603">
<ele>130.220825</ele>
<time>2011-10-13T13:01:16Z</time>
<desc>lat.=44.433586, lon.=34.125603, Alt.=130.220825m. Speed=0.000000m/h.</desc>
<speed>0.000000</speed>
</trkpt>
<trkpt lat="44.433586" lon="34.125603">
<ele>130.220825</ele>
<time>2011-10-13T13:01:21Z</time>
<desc>lat.=44.433586, lon.=34.125603, Alt.=130.220825m. Speed=0.000000m/h.</desc>
<speed>0.000000</speed>
</trkpt>
<trkpt lat="44.433586" lon="34.125603">
<ele>130.213013</ele>
<time>2011-10-13T13:01:26Z</time>
<desc>lat.=44.433586, lon.=34.125603, Alt.=130.213013m. Speed=0.108000m/h.</desc>
<speed>0.030000</speed>
</trkpt>
<trkpt lat="44.433586" lon="34.125603">
<ele>130.209106</ele>
<time>2011-10-13T13:01:31Z</time>
<desc>lat.=44.433586, lon.=34.125603, Alt.=130.209106m. Speed=0.036000m/h.</desc>
<speed>0.010000</speed>
</trkpt>
<trkpt lat="44.433586" lon="34.125603">
<ele>130.209106</ele>
<time>2011-10-13T13:01:36Z</time>
<desc>lat.=44.433586, lon.=34.125603, Alt.=130.209106m. Speed=0.108000m/h.</desc>
<speed>0.030000</speed>
</trkpt>
<trkpt lat="44.433586" lon="34.125603">
<ele>130.209106</ele>
<time>2011-10-13T13:01:41Z</time>
<desc>lat.=44.433586, lon.=34.125603, Alt.=130.209106m. Speed=0.144000m/h.</desc>
<speed>0.040000</speed>
</trkpt>
<trkpt lat="44.433586" lon="34.125603">
<ele>130.209106</ele>
<time>2011-10-13T13:01:46Z</time>
<desc>lat.=44.433586, lon.=34.125603, Alt.=130.209106m. Speed=0.072000m/h.</desc>
<speed>0.020000</speed>
</trkpt>
<trkpt lat="44.433586" lon="34.125603">
<ele>130.209106</ele>
<time>2011-10-13T13:01:51Z</time>
<desc>lat.=44.433586, lon.=34.125603, Alt.=130.209106m. Speed=0.360000m/h.</desc>
<speed>0.100000</speed>
</trkpt>
<trkpt lat="44.433586" lon="34.125599">
<ele>130.209106</ele>
<time>2011-10-13T13:01:56Z</time>
<desc>lat.=44.433586, lon.=34.125599, Alt.=130.209106m. Speed=0.432000m/h.</desc>
<speed>0.120000</speed>
</trkpt>
<trkpt lat="44.433586" lon="34.125599">
<ele>130.209106</ele>
<time>2011-10-13T13:02:01Z</time>
<desc>lat.=44.433586, lon.=34.125599, Alt.=130.209106m. Speed=0.036000m/h.</desc>
<speed>0.010000</speed>
</trkpt>
<trkpt lat="44.433586" lon="34.125595">
<ele>130.209106</ele>
<time>2011-10-13T13:02:06Z</time>
<desc>lat.=44.433586, lon.=34.125595, Alt.=130.209106m. Speed=0.252000m/h.</desc>
<speed>0.070000</speed>
</trkpt>
<trkpt lat="44.433586" lon="34.125595">
<ele>130.197388</ele>
<time>2011-10-13T13:02:11Z</time>
<desc>lat.=44.433586, lon.=34.125595, Alt.=130.197388m. Speed=0.036000m/h.</desc>
<speed>0.010000</speed>
</trkpt>
<trkpt lat="44.433586" lon="34.125595">
<ele>130.193481</ele>
<time>2011-10-13T13:02:16Z</time>
<desc>lat.=44.433586, lon.=34.125595, Alt.=130.193481m. Speed=0.036000m/h.</desc>
<speed>0.010000</speed>
</trkpt>
<trkpt lat="44.433586" lon="34.125595">
<ele>130.189575</ele>
<time>2011-10-13T13:02:21Z</time>
<desc>lat.=44.433586, lon.=34.125595, Alt.=130.189575m. Speed=0.000000m/h.</desc>
<speed>0.000000</speed>
</trkpt>
<trkpt lat="44.433586" lon="34.125595">
<ele>130.189575</ele>
<time>2011-10-13T13:02:26Z</time>
<desc>lat.=44.433586, lon.=34.125595, Alt.=130.189575m. Speed=0.036000m/h.</desc>
<speed>0.010000</speed>
</trkpt>
<trkpt lat="44.433586" lon="34.125595">
<ele>130.185669</ele>
<time>2011-10-13T13:02:31Z</time>
<desc>lat.=44.433586, lon.=34.125595, Alt.=130.185669m. Speed=0.108000m/h.</desc>
<speed>0.030000</speed>
</trkpt>
<trkpt lat="44.433586" lon="34.125599">
<ele>130.173950</ele>
<time>2011-10-13T13:02:36Z</time>
<desc>lat.=44.433586, lon.=34.125599, Alt.=130.173950m. Speed=0.180000m/h.</desc>
<speed>0.050000</speed>
</trkpt>
<trkpt lat="44.433586" lon="34.125614">
<ele>130.158325</ele>
<time>2011-10-13T13:02:41Z</time>
<desc>lat.=44.433586, lon.=34.125614, Alt.=130.158325m. Speed=1.116000m/h.</desc>
<speed>0.310000</speed>
</trkpt>
<trkpt lat="44.433559" lon="34.125694">
<ele>129.810669</ele>
<time>2011-10-13T13:02:46Z</time>
<desc>lat.=44.433559, lon.=34.125694, Alt.=129.810669m. Speed=1.584000m/h.</desc>
<speed>0.440000</speed>
</trkpt>
<trkpt lat="44.433483" lon="34.125767">
<ele>129.521606</ele>
<time>2011-10-13T13:02:51Z</time>
<desc>lat.=44.433483, lon.=34.125767, Alt.=129.521606m. Speed=1.944000m/h.</desc>
<speed>0.540000</speed>
</trkpt>
<trkpt lat="44.433430" lon="34.125793">
<ele>129.338013</ele>
<time>2011-10-13T13:02:56Z</time>
<desc>lat.=44.433430, lon.=34.125793, Alt.=129.338013m. Speed=1.908000m/h.</desc>
<speed>0.530000</speed>
</trkpt>
<trkpt lat="44.433395" lon="34.125851">
<ele>129.127075</ele>
<time>2011-10-13T13:03:01Z</time>
<desc>lat.=44.433395, lon.=34.125851, Alt.=129.127075m. Speed=2.052000m/h.</desc>
<speed>0.570000</speed>
</trkpt>
<trkpt lat="44.433369" lon="34.125854">
<ele>128.927856</ele>
<time>2011-10-13T13:03:06Z</time>
<desc>lat.=44.433369, lon.=34.125854, Alt.=128.927856m. Speed=1.764000m/h.</desc>
<speed>0.490000</speed>
</trkpt>
<trkpt lat="44.433323" lon="34.125874">
<ele>128.724731</ele>
<time>2011-10-13T13:03:11Z</time>
<desc>lat.=44.433323, lon.=34.125874, Alt.=128.724731m. Speed=1.944000m/h.</desc>
<speed>0.540000</speed>
</trkpt>
<trkpt lat="44.433315" lon="34.125877">
<ele>128.420044</ele>
<time>2011-10-13T13:03:16Z</time>
<desc>lat.=44.433315, lon.=34.125877, Alt.=128.420044m. Speed=1.440000m/h.</desc>
<speed>0.400000</speed>
</trkpt>
<trkpt lat="44.433285" lon="34.125835">
<ele>127.965881</ele>
<time>2011-10-13T13:03:21Z</time>
<desc>lat.=44.433285, lon.=34.125835, Alt.=127.965881m. Speed=1.116000m/h.</desc>
<speed>0.310000</speed>
</trkpt>
<trkpt lat="44.433266" lon="34.125801">
<ele>127.653381</ele>
<time>2011-10-13T13:03:26Z</time>
<desc>lat.=44.433266, lon.=34.125801, Alt.=127.653381m. Speed=1.116000m/h.</desc>
<speed>0.310000</speed>
</trkpt>
<trkpt lat="44.433243" lon="34.125748">
<ele>127.370178</ele>
<time>2011-10-13T13:03:31Z</time>
<desc>lat.=44.433243, lon.=34.125748, Alt.=127.370178m. Speed=1.368000m/h.</desc>
<speed>0.380000</speed>
</trkpt>
<trkpt lat="44.433273" lon="34.125652">
<ele>127.030334</ele>
<time>2011-10-13T13:03:36Z</time>
<desc>lat.=44.433273, lon.=34.125652, Alt.=127.030334m. Speed=1.296000m/h.</desc>
<speed>0.360000</speed>
</trkpt>
<trkpt lat="44.433254" lon="34.125687">
<ele>126.725647</ele>
<time>2011-10-13T13:03:41Z</time>
<desc>lat.=44.433254, lon.=34.125687, Alt.=126.725647m. Speed=0.972000m/h.</desc>
<speed>0.270000</speed>
</trkpt>
<trkpt lat="44.433247" lon="34.125710">
<ele>126.555725</ele>
<time>2011-10-13T13:03:46Z</time>
<desc>lat.=44.433247, lon.=34.125710, Alt.=126.555725m. Speed=1.188000m/h.</desc>
<speed>0.330000</speed>
</trkpt>
<trkpt lat="44.433189" lon="34.125748">
<ele>125.811584</ele>
<time>2011-10-13T13:03:51Z</time>
<desc>lat.=44.433189, lon.=34.125748, Alt.=125.811584m. Speed=1.656000m/h.</desc>
<speed>0.460000</speed>
</trkpt>
<trkpt lat="44.433159" lon="34.125786">
<ele>125.213928</ele>
<time>2011-10-13T13:03:56Z</time>
<desc>lat.=44.433159, lon.=34.125786, Alt.=125.213928m. Speed=1.692000m/h.</desc>
<speed>0.470000</speed>
</trkpt>
<trkpt lat="44.433163" lon="34.125835">
<ele>124.649475</ele>
<time>2011-10-13T13:04:01Z</time>
<desc>lat.=44.433163, lon.=34.125835, Alt.=124.649475m. Speed=1.224000m/h.</desc>
<speed>0.340000</speed>
</trkpt>
<trkpt lat="44.433159" lon="34.125881">
<ele>124.174866</ele>
<time>2011-10-13T13:04:06Z</time>
<desc>lat.=44.433159, lon.=34.125881, Alt.=124.174866m. Speed=1.260000m/h.</desc>
<speed>0.350000</speed>
</trkpt>
<trkpt lat="44.433144" lon="34.125896">
<ele>123.756897</ele>
<time>2011-10-13T13:04:11Z</time>
<desc>lat.=44.433144, lon.=34.125896, Alt.=123.756897m. Speed=1.044000m/h.</desc>
<speed>0.290000</speed>
</trkpt>
<trkpt lat="44.433136" lon="34.125893">
<ele>123.415100</ele>
<time>2011-10-13T13:04:16Z</time>
<desc>lat.=44.433136, lon.=34.125893, Alt.=123.415100m. Speed=0.612000m/h.</desc>
<speed>0.170000</speed>
</trkpt>
<trkpt lat="44.433128" lon="34.125900">
<ele>123.211975</ele>
<time>2011-10-13T13:04:21Z</time>
<desc>lat.=44.433128, lon.=34.125900, Alt.=123.211975m. Speed=1.188000m/h.</desc>
<speed>0.330000</speed>
</trkpt>
<trkpt lat="44.433067" lon="34.125946">
<ele>122.254944</ele>
<time>2011-10-13T13:04:26Z</time>
<desc>lat.=44.433067, lon.=34.125946, Alt.=122.254944m. Speed=1.620000m/h.</desc>
<speed>0.450000</speed>
</trkpt>
<trkpt lat="44.433041" lon="34.125992">
<ele>119.942444</ele>
<time>2011-10-13T13:04:31Z</time>
<desc>lat.=44.433041, lon.=34.125992, Alt.=119.942444m. Speed=1.188000m/h.</desc>
<speed>0.330000</speed>
</trkpt>
<trkpt lat="44.433025" lon="34.126064">
<ele>117.026428</ele>
<time>2011-10-13T13:04:36Z</time>
<desc>lat.=44.433025, lon.=34.126064, Alt.=117.026428m. Speed=1.584000m/h.</desc>
<speed>0.440000</speed>
</trkpt>
<trkpt lat="44.432995" lon="34.126137">
<ele>114.526428</ele>
<time>2011-10-13T13:04:41Z</time>
<desc>lat.=44.432995, lon.=34.126137, Alt.=114.526428m. Speed=1.656000m/h.</desc>
<speed>0.460000</speed>
</trkpt>
<trkpt lat="44.432961" lon="34.126213">
<ele>111.852600</ele>
<time>2011-10-13T13:04:46Z</time>
<desc>lat.=44.432961, lon.=34.126213, Alt.=111.852600m. Speed=1.944000m/h.</desc>
<speed>0.540000</speed>
</trkpt>
<trkpt lat="44.432938" lon="34.126266">
<ele>108.061584</ele>
<time>2011-10-13T13:04:51Z</time>
<desc>lat.=44.432938, lon.=34.126266, Alt.=108.061584m. Speed=1.800000m/h.</desc>
<speed>0.500000</speed>
</trkpt>
<trkpt lat="44.432899" lon="34.126328">
<ele>105.629944</ele>
<time>2011-10-13T13:04:56Z</time>
<desc>lat.=44.432899, lon.=34.126328, Alt.=105.629944m. Speed=1.440000m/h.</desc>
<speed>0.400000</speed>
</trkpt>
<trkpt lat="44.432842" lon="34.126385">
<ele>102.526428</ele>
<time>2011-10-13T13:05:01Z</time>
<desc>lat.=44.432842, lon.=34.126385, Alt.=102.526428m. Speed=1.656000m/h.</desc>
<speed>0.460000</speed>
</trkpt>
<trkpt lat="44.432835" lon="34.126446">
<ele>99.752991</ele>
<time>2011-10-13T13:05:06Z</time>
<desc>lat.=44.432835, lon.=34.126446, Alt.=99.752991m. Speed=1.476000m/h.</desc>
<speed>0.410000</speed>
</trkpt>
<trkpt lat="44.432861" lon="34.126534">
<ele>96.706116</ele>
<time>2011-10-13T13:05:11Z</time>
<desc>lat.=44.432861, lon.=34.126534, Alt.=96.706116m. Speed=2.124000m/h.</desc>
<speed>0.590000</speed>
</trkpt>
<trkpt lat="44.432816" lon="34.126587">
<ele>94.399475</ele>
<time>2011-10-13T13:05:16Z</time>
<desc>lat.=44.432816, lon.=34.126587, Alt.=94.399475m. Speed=1.368000m/h.</desc>
<speed>0.380000</speed>
</trkpt>
<trkpt lat="44.432789" lon="34.126667">
<ele>92.360413</ele>
<time>2011-10-13T13:05:21Z</time>
<desc>lat.=44.432789, lon.=34.126667, Alt.=92.360413m. Speed=1.656000m/h.</desc>
<speed>0.460000</speed>
</trkpt>
<trkpt lat="44.432739" lon="34.126694">
<ele>90.467834</ele>
<time>2011-10-13T13:05:26Z</time>
<desc>lat.=44.432739, lon.=34.126694, Alt.=90.467834m. Speed=1.584000m/h.</desc>
<speed>0.440000</speed>
</trkpt>
<trkpt lat="44.432716" lon="34.126747">
<ele>87.930725</ele>
<time>2011-10-13T13:05:31Z</time>
<desc>lat.=44.432716, lon.=34.126747, Alt.=87.930725m. Speed=1.728000m/h.</desc>
<speed>0.480000</speed>
</trkpt>
<trkpt lat="44.432693" lon="34.126797">
<ele>87.413147</ele>
<time>2011-10-13T13:05:36Z</time>
<desc>lat.=44.432693, lon.=34.126797, Alt.=87.413147m. Speed=1.728000m/h.</desc>
<speed>0.480000</speed>
</trkpt>
<trkpt lat="44.432663" lon="34.126842">
<ele>85.370178</ele>
<time>2011-10-13T13:05:41Z</time>
<desc>lat.=44.432663, lon.=34.126842, Alt.=85.370178m. Speed=1.800000m/h.</desc>
<speed>0.500000</speed>
</trkpt>
<trkpt lat="44.432629" lon="34.126900">
<ele>83.342834</ele>
<time>2011-10-13T13:05:46Z</time>
<desc>lat.=44.432629, lon.=34.126900, Alt.=83.342834m. Speed=1.404000m/h.</desc>
<speed>0.390000</speed>
</trkpt>
<trkpt lat="44.432640" lon="34.127007">
<ele>80.225647</ele>
<time>2011-10-13T13:05:51Z</time>
<desc>lat.=44.432640, lon.=34.127007, Alt.=80.225647m. Speed=1.188000m/h.</desc>
<speed>0.330000</speed>
</trkpt>
<trkpt lat="44.432613" lon="34.127041">
<ele>77.985413</ele>
<time>2011-10-13T13:05:56Z</time>
<desc>lat.=44.432613, lon.=34.127041, Alt.=77.985413m. Speed=1.224000m/h.</desc>
<speed>0.340000</speed>
</trkpt>
<trkpt lat="44.432571" lon="34.127045">
<ele>75.262756</ele>
<time>2011-10-13T13:06:01Z</time>
<desc>lat.=44.432571, lon.=34.127045, Alt.=75.262756m. Speed=0.972000m/h.</desc>
<speed>0.270000</speed>
</trkpt>
<trkpt lat="44.432564" lon="34.127064">
<ele>73.655334</ele>
<time>2011-10-13T13:06:06Z</time>
<desc>lat.=44.432564, lon.=34.127064, Alt.=73.655334m. Speed=0.864000m/h.</desc>
<speed>0.240000</speed>
</trkpt>
<trkpt lat="44.432560" lon="34.127071">
<ele>72.518616</ele>
<time>2011-10-13T13:06:11Z</time>
<desc>lat.=44.432560, lon.=34.127071, Alt.=72.518616m. Speed=0.540000m/h.</desc>
<speed>0.150000</speed>
</trkpt>
<trkpt lat="44.432552" lon="34.127075">
<ele>71.309631</ele>
<time>2011-10-13T13:06:16Z</time>
<desc>lat.=44.432552, lon.=34.127075, Alt.=71.309631m. Speed=0.360000m/h.</desc>
<speed>0.100000</speed>
</trkpt>
<trkpt lat="44.432549" lon="34.127075">
<ele>70.024475</ele>
<time>2011-10-13T13:06:21Z</time>
<desc>lat.=44.432549, lon.=34.127075, Alt.=70.024475m. Speed=0.576000m/h.</desc>
<speed>0.160000</speed>
</trkpt>
<trkpt lat="44.432533" lon="34.127083">
<ele>70.088928</ele>
<time>2011-10-13T13:06:26Z</time>
<desc>lat.=44.432533, lon.=34.127083, Alt.=70.088928m. Speed=1.152000m/h.</desc>
<speed>0.320000</speed>
</trkpt>
<trkpt lat="44.432507" lon="34.127102">
<ele>67.704163</ele>
<time>2011-10-13T13:06:31Z</time>
<desc>lat.=44.432507, lon.=34.127102, Alt.=67.704163m. Speed=1.296000m/h.</desc>
<speed>0.360000</speed>
</trkpt>
<trkpt lat="44.432503" lon="34.127098">
<ele>65.184631</ele>
<time>2011-10-13T13:06:36Z</time>
<desc>lat.=44.432503, lon.=34.127098, Alt.=65.184631m. Speed=0.756000m/h.</desc>
<speed>0.210000</speed>
</trkpt>
<trkpt lat="44.432461" lon="34.127090">
<ele>62.298370</ele>
<time>2011-10-13T13:06:41Z</time>
<desc>lat.=44.432461, lon.=34.127090, Alt.=62.298370m. Speed=0.864000m/h.</desc>
<speed>0.240000</speed>
</trkpt>
<trkpt lat="44.432438" lon="34.127075">
<ele>60.604034</ele>
<time>2011-10-13T13:06:46Z</time>
<desc>lat.=44.432438, lon.=34.127075, Alt.=60.604034m. Speed=0.972000m/h.</desc>
<speed>0.270000</speed>
</trkpt>
<trkpt lat="44.432381" lon="34.127117">
<ele>61.800323</ele>
<time>2011-10-13T13:06:51Z</time>
<desc>lat.=44.432381, lon.=34.127117, Alt.=61.800323m. Speed=3.168000m/h.</desc>
<speed>0.880000</speed>
</trkpt>
<trkpt lat="44.432396" lon="34.127201">
<ele>56.945831</ele>
<time>2011-10-13T13:06:56Z</time>
<desc>lat.=44.432396, lon.=34.127201, Alt.=56.945831m. Speed=1.188000m/h.</desc>
<speed>0.330000</speed>
</trkpt>
<trkpt lat="44.432396" lon="34.127243">
<ele>52.703644</ele>
<time>2011-10-13T13:07:01Z</time>
<desc>lat.=44.432396, lon.=34.127243, Alt.=52.703644m. Speed=0.576000m/h.</desc>
<speed>0.160000</speed>
</trkpt>
<trkpt lat="44.432404" lon="34.127254">
<ele>50.294464</ele>
<time>2011-10-13T13:07:06Z</time>
<desc>lat.=44.432404, lon.=34.127254, Alt.=50.294464m. Speed=0.648000m/h.</desc>
<speed>0.180000</speed>
</trkpt>
<trkpt lat="44.432400" lon="34.127258">
<ele>49.040558</ele>
<time>2011-10-13T13:07:11Z</time>
<desc>lat.=44.432400, lon.=34.127258, Alt.=49.040558m. Speed=0.972000m/h.</desc>
<speed>0.270000</speed>
</trkpt>
<trkpt lat="44.432373" lon="34.127243">
<ele>48.620636</ele>
<time>2011-10-13T13:07:16Z</time>
<desc>lat.=44.432373, lon.=34.127243, Alt.=48.620636m. Speed=1.008000m/h.</desc>
<speed>0.280000</speed>
</trkpt>
<trkpt lat="44.432354" lon="34.127228">
<ele>47.748566</ele>
<time>2011-10-13T13:07:21Z</time>
<desc>lat.=44.432354, lon.=34.127228, Alt.=47.748566m. Speed=1.152000m/h.</desc>
<speed>0.320000</speed>
</trkpt>
<trkpt lat="44.432339" lon="34.127216">
<ele>47.632355</ele>
<time>2011-10-13T13:07:26Z</time>
<desc>lat.=44.432339, lon.=34.127216, Alt.=47.632355m. Speed=1.080000m/h.</desc>
<speed>0.300000</speed>
</trkpt>
<trkpt lat="44.432278" lon="34.127178">
<ele>45.655792</ele>
<time>2011-10-13T13:07:31Z</time>
<desc>lat.=44.432278, lon.=34.127178, Alt.=45.655792m. Speed=1.080000m/h.</desc>
<speed>0.300000</speed>
</trkpt>
<trkpt lat="44.432266" lon="34.127171">
<ele>44.733917</ele>
<time>2011-10-13T13:07:36Z</time>
<desc>lat.=44.432266, lon.=34.127171, Alt.=44.733917m. Speed=1.116000m/h.</desc>
<speed>0.310000</speed>
</trkpt>
<trkpt lat="44.432255" lon="34.127171">
<ele>43.827667</ele>
<time>2011-10-13T13:07:41Z</time>
<desc>lat.=44.432255, lon.=34.127171, Alt.=43.827667m. Speed=0.144000m/h.</desc>
<speed>0.040000</speed>
</trkpt>
<trkpt lat="44.432255" lon="34.127171">
<ele>43.125519</ele>
<time>2011-10-13T13:07:46Z</time>
<desc>lat.=44.432255, lon.=34.127171, Alt.=43.125519m. Speed=0.036000m/h.</desc>
<speed>0.010000</speed>
</trkpt>
<trkpt lat="44.432255" lon="34.127167">
<ele>42.377472</ele>
<time>2011-10-13T13:07:51Z</time>
<desc>lat.=44.432255, lon.=34.127167, Alt.=42.377472m. Speed=0.432000m/h.</desc>
<speed>0.120000</speed>
</trkpt>
<trkpt lat="44.432255" lon="34.127159">
<ele>41.598175</ele>
<time>2011-10-13T13:07:56Z</time>
<desc>lat.=44.432255, lon.=34.127159, Alt.=41.598175m. Speed=0.324000m/h.</desc>
<speed>0.090000</speed>
</trkpt>
<trkpt lat="44.432255" lon="34.127151">
<ele>40.802277</ele>
<time>2011-10-13T13:08:01Z</time>
<desc>lat.=44.432255, lon.=34.127151, Alt.=40.802277m. Speed=0.468000m/h.</desc>
<speed>0.130000</speed>
</trkpt>
<trkpt lat="44.432251" lon="34.127144">
<ele>39.969269</ele>
<time>2011-10-13T13:08:06Z</time>
<desc>lat.=44.432251, lon.=34.127144, Alt.=39.969269m. Speed=0.684000m/h.</desc>
<speed>0.190000</speed>
</trkpt>
<trkpt lat="44.432240" lon="34.127083">
<ele>39.139191</ele>
<time>2011-10-13T13:08:11Z</time>
<desc>lat.=44.432240, lon.=34.127083, Alt.=39.139191m. Speed=1.584000m/h.</desc>
<speed>0.440000</speed>
</trkpt>
<trkpt lat="44.432213" lon="34.126995">
<ele>38.546417</ele>
<time>2011-10-13T13:08:16Z</time>
<desc>lat.=44.432213, lon.=34.126995, Alt.=38.546417m. Speed=1.764000m/h.</desc>
<speed>0.490000</speed>
</trkpt>
<trkpt lat="44.432217" lon="34.127022">
<ele>37.886261</ele>
<time>2011-10-13T13:08:21Z</time>
<desc>lat.=44.432217, lon.=34.127022, Alt.=37.886261m. Speed=0.468000m/h.</desc>
<speed>0.130000</speed>
</trkpt>
<trkpt lat="44.432209" lon="34.127022">
<ele>37.934113</ele>
<time>2011-10-13T13:08:26Z</time>
<desc>lat.=44.432209, lon.=34.127022, Alt.=37.934113m. Speed=0.396000m/h.</desc>
<speed>0.110000</speed>
</trkpt>
<trkpt lat="44.432205" lon="34.127018">
<ele>37.336456</ele>
<time>2011-10-13T13:08:31Z</time>
<desc>lat.=44.432205, lon.=34.127018, Alt.=37.336456m. Speed=0.432000m/h.</desc>
<speed>0.120000</speed>
</trkpt>
<trkpt lat="44.432201" lon="34.127007">
<ele>36.763214</ele>
<time>2011-10-13T13:08:36Z</time>
<desc>lat.=44.432201, lon.=34.127007, Alt.=36.763214m. Speed=0.612000m/h.</desc>
<speed>0.170000</speed>
</trkpt>
<trkpt lat="44.432194" lon="34.127007">
<ele>36.145050</ele>
<time>2011-10-13T13:08:41Z</time>
<desc>lat.=44.432194, lon.=34.127007, Alt.=36.145050m. Speed=0.648000m/h.</desc>
<speed>0.180000</speed>
</trkpt>
<trkpt lat="44.432194" lon="34.127022">
<ele>35.504425</ele>
<time>2011-10-13T13:08:46Z</time>
<desc>lat.=44.432194, lon.=34.127022, Alt.=35.504425m. Speed=1.080000m/h.</desc>
<speed>0.300000</speed>
</trkpt>
<trkpt lat="44.432270" lon="34.127117">
<ele>33.590363</ele>
<time>2011-10-13T13:08:51Z</time>
<desc>lat.=44.432270, lon.=34.127117, Alt.=33.590363m. Speed=1.764000m/h.</desc>
<speed>0.490000</speed>
</trkpt>
<trkpt lat="44.432270" lon="34.127224">
<ele>32.259308</ele>
<time>2011-10-13T13:08:56Z</time>
<desc>lat.=44.432270, lon.=34.127224, Alt.=32.259308m. Speed=1.872000m/h.</desc>
<speed>0.520000</speed>
</trkpt>
<trkpt lat="44.432228" lon="34.127239">
<ele>30.883560</ele>
<time>2011-10-13T13:09:01Z</time>
<desc>lat.=44.432228, lon.=34.127239, Alt.=30.883560m. Speed=1.584000m/h.</desc>
<speed>0.440000</speed>
</trkpt>
<trkpt lat="44.432163" lon="34.127235">
<ele>28.907486</ele>
<time>2011-10-13T13:09:06Z</time>
<desc>lat.=44.432163, lon.=34.127235, Alt.=28.907486m. Speed=1.872000m/h.</desc>
<speed>0.520000</speed>
</trkpt>
<trkpt lat="44.432095" lon="34.127209">
<ele>26.674088</ele>
<time>2011-10-13T13:09:11Z</time>
<desc>lat.=44.432095, lon.=34.127209, Alt.=26.674088m. Speed=1.584000m/h.</desc>
<speed>0.440000</speed>
</trkpt>
<trkpt lat="44.432076" lon="34.127186">
<ele>25.417252</ele>
<time>2011-10-13T13:09:16Z</time>
<desc>lat.=44.432076, lon.=34.127186, Alt.=25.417252m. Speed=1.008000m/h.</desc>
<speed>0.280000</speed>
</trkpt>
<trkpt lat="44.432091" lon="34.127094">
<ele>24.114517</ele>
<time>2011-10-13T13:09:21Z</time>
<desc>lat.=44.432091, lon.=34.127094, Alt.=24.114517m. Speed=1.044000m/h.</desc>
<speed>0.290000</speed>
</trkpt>
<trkpt lat="44.432060" lon="34.127071">
<ele>22.668228</ele>
<time>2011-10-13T13:09:26Z</time>
<desc>lat.=44.432060, lon.=34.127071, Alt.=22.668228m. Speed=1.116000m/h.</desc>
<speed>0.310000</speed>
</trkpt>
<trkpt lat="44.432060" lon="34.127098">
<ele>20.705826</ele>
<time>2011-10-13T13:09:31Z</time>
<desc>lat.=44.432060, lon.=34.127098, Alt.=20.705826m. Speed=0.540000m/h.</desc>
<speed>0.150000</speed>
</trkpt>
<trkpt lat="44.432064" lon="34.127132">
<ele>19.310806</ele>
<time>2011-10-13T13:09:36Z</time>
<desc>lat.=44.432064, lon.=34.127132, Alt.=19.310806m. Speed=0.612000m/h.</desc>
<speed>0.170000</speed>
</trkpt>
<trkpt lat="44.432060" lon="34.127136">
<ele>18.407974</ele>
<time>2011-10-13T13:09:41Z</time>
<desc>lat.=44.432060, lon.=34.127136, Alt.=18.407974m. Speed=0.144000m/h.</desc>
<speed>0.040000</speed>
</trkpt>
<trkpt lat="44.432037" lon="34.127167">
<ele>18.146744</ele>
<time>2011-10-13T13:09:46Z</time>
<desc>lat.=44.432037, lon.=34.127167, Alt.=18.146744m. Speed=0.432000m/h.</desc>
<speed>0.120000</speed>
</trkpt>
<trkpt lat="44.432011" lon="34.127193">
<ele>18.616959</ele>
<time>2011-10-13T13:09:51Z</time>
<desc>lat.=44.432011, lon.=34.127193, Alt.=18.616959m. Speed=0.432000m/h.</desc>
<speed>0.120000</speed>
</trkpt>
<trkpt lat="44.431957" lon="34.127243">
<ele>21.294693</ele>
<time>2011-10-13T13:09:56Z</time>
<desc>lat.=44.431957, lon.=34.127243, Alt.=21.294693m. Speed=0.684000m/h.</desc>
<speed>0.190000</speed>
</trkpt>
<trkpt lat="44.431938" lon="34.127281">
<ele>22.202896</ele>
<time>2011-10-13T13:10:01Z</time>
<desc>lat.=44.431938, lon.=34.127281, Alt.=22.202896m. Speed=1.332000m/h.</desc>
<speed>0.370000</speed>
</trkpt>
<trkpt lat="44.431850" lon="34.127293">
<ele>20.395279</ele>
<time>2011-10-13T13:10:06Z</time>
<desc>lat.=44.431850, lon.=34.127293, Alt.=20.395279m. Speed=1.764000m/h.</desc>
<speed>0.490000</speed>
</trkpt>
<trkpt lat="44.431755" lon="34.127262">
<ele>18.683853</ele>
<time>2011-10-13T13:10:11Z</time>
<desc>lat.=44.431755, lon.=34.127262, Alt.=18.683853m. Speed=1.728000m/h.</desc>
<speed>0.480000</speed>
</trkpt>
<trkpt lat="44.431728" lon="34.127258">
<ele>19.370865</ele>
<time>2011-10-13T13:10:16Z</time>
<desc>lat.=44.431728, lon.=34.127258, Alt.=19.370865m. Speed=1.476000m/h.</desc>
<speed>0.410000</speed>
</trkpt>
<trkpt lat="44.431694" lon="34.127316">
<ele>22.403091</ele>
<time>2011-10-13T13:10:21Z</time>
<desc>lat.=44.431694, lon.=34.127316, Alt.=22.403091m. Speed=3.168000m/h.</desc>
<speed>0.880000</speed>
</trkpt>
<trkpt lat="44.431690" lon="34.127357">
<ele>24.458267</ele>
<time>2011-10-13T13:10:26Z</time>
<desc>lat.=44.431690, lon.=34.127357, Alt.=24.458267m. Speed=1.728000m/h.</desc>
<speed>0.480000</speed>
</trkpt>
<trkpt lat="44.431641" lon="34.127403">
<ele>26.981705</ele>
<time>2011-10-13T13:10:31Z</time>
<desc>lat.=44.431641, lon.=34.127403, Alt.=26.981705m. Speed=2.988000m/h.</desc>
<speed>0.830000</speed>
</trkpt>
<trkpt lat="44.431618" lon="34.127457">
<ele>30.078873</ele>
<time>2011-10-13T13:10:36Z</time>
<desc>lat.=44.431618, lon.=34.127457, Alt.=30.078873m. Speed=2.700000m/h.</desc>
<speed>0.750000</speed>
</trkpt>
<trkpt lat="44.431614" lon="34.127510">
<ele>32.148956</ele>
<time>2011-10-13T13:10:41Z</time>
<desc>lat.=44.431614, lon.=34.127510, Alt.=32.148956m. Speed=2.376000m/h.</desc>
<speed>0.660000</speed>
</trkpt>
<trkpt lat="44.431610" lon="34.127548">
<ele>34.096222</ele>
<time>2011-10-13T13:10:46Z</time>
<desc>lat.=44.431610, lon.=34.127548, Alt.=34.096222m. Speed=1.584000m/h.</desc>
<speed>0.440000</speed>
</trkpt>
<trkpt lat="44.431614" lon="34.127602">
<ele>35.489777</ele>
<time>2011-10-13T13:10:51Z</time>
<desc>lat.=44.431614, lon.=34.127602, Alt.=35.489777m. Speed=1.548000m/h.</desc>
<speed>0.430000</speed>
</trkpt>
<trkpt lat="44.431583" lon="34.127628">
<ele>37.457550</ele>
<time>2011-10-13T13:10:56Z</time>
<desc>lat.=44.431583, lon.=34.127628, Alt.=37.457550m. Speed=1.116000m/h.</desc>
<speed>0.310000</speed>
</trkpt>
<trkpt lat="44.431473" lon="34.127636">
<ele>39.461456</ele>
<time>2011-10-13T13:11:01Z</time>
<desc>lat.=44.431473, lon.=34.127636, Alt.=39.461456m. Speed=2.448000m/h.</desc>
<speed>0.680000</speed>
</trkpt>
<trkpt lat="44.431377" lon="34.127682">
<ele>39.667511</ele>
<time>2011-10-13T13:11:06Z</time>
<desc>lat.=44.431377, lon.=34.127682, Alt.=39.667511m. Speed=1.728000m/h.</desc>
<speed>0.480000</speed>
</trkpt>
<trkpt lat="44.431313" lon="34.127701">
<ele>40.493683</ele>
<time>2011-10-13T13:11:11Z</time>
<desc>lat.=44.431313, lon.=34.127701, Alt.=40.493683m. Speed=0.756000m/h.</desc>
<speed>0.210000</speed>
</trkpt>
<trkpt lat="44.431290" lon="34.127720">
<ele>41.562042</ele>
<time>2011-10-13T13:11:16Z</time>
<desc>lat.=44.431290, lon.=34.127720, Alt.=41.562042m. Speed=0.756000m/h.</desc>
<speed>0.210000</speed>
</trkpt>
<trkpt lat="44.431267" lon="34.127777">
<ele>41.735870</ele>
<time>2011-10-13T13:11:21Z</time>
<desc>lat.=44.431267, lon.=34.127777, Alt.=41.735870m. Speed=1.188000m/h.</desc>
<speed>0.330000</speed>
</trkpt>
<trkpt lat="44.431274" lon="34.127876">
<ele>41.870636</ele>
<time>2011-10-13T13:11:26Z</time>
<desc>lat.=44.431274, lon.=34.127876, Alt.=41.870636m. Speed=1.296000m/h.</desc>
<speed>0.360000</speed>
</trkpt>
<trkpt lat="44.431252" lon="34.127911">
<ele>42.683136</ele>
<time>2011-10-13T13:11:31Z</time>
<desc>lat.=44.431252, lon.=34.127911, Alt.=42.683136m. Speed=1.116000m/h.</desc>
<speed>0.310000</speed>
</trkpt>
<trkpt lat="44.431213" lon="34.127937">
<ele>43.283722</ele>
<time>2011-10-13T13:11:36Z</time>
<desc>lat.=44.431213, lon.=34.127937, Alt.=43.283722m. Speed=1.836000m/h.</desc>
<speed>0.510000</speed>
</trkpt>
<trkpt lat="44.431164" lon="34.127934">
<ele>43.580597</ele>
<time>2011-10-13T13:11:41Z</time>
<desc>lat.=44.431164, lon.=34.127934, Alt.=43.580597m. Speed=2.520000m/h.</desc>
<speed>0.700000</speed>
</trkpt>
<trkpt lat="44.431114" lon="34.127895">
<ele>43.944855</ele>
<time>2011-10-13T13:11:46Z</time>
<desc>lat.=44.431114, lon.=34.127895, Alt.=43.944855m. Speed=3.168000m/h.</desc>
<speed>0.880000</speed>
</trkpt>
<trkpt lat="44.431053" lon="34.127861">
<ele>44.291534</ele>
<time>2011-10-13T13:11:51Z</time>
<desc>lat.=44.431053, lon.=34.127861, Alt.=44.291534m. Speed=3.276000m/h.</desc>
<speed>0.910000</speed>
</trkpt>
<trkpt lat="44.430988" lon="34.127831">
<ele>44.966339</ele>
<time>2011-10-13T13:11:56Z</time>
<desc>lat.=44.430988, lon.=34.127831, Alt.=44.966339m. Speed=3.852000m/h.</desc>
<speed>1.070000</speed>
</trkpt>
<trkpt lat="44.430920" lon="34.127811">
<ele>45.711456</ele>
<time>2011-10-13T13:12:01Z</time>
<desc>lat.=44.430920, lon.=34.127811, Alt.=45.711456m. Speed=4.104000m/h.</desc>
<speed>1.140000</speed>
</trkpt>
<trkpt lat="44.430866" lon="34.127792">
<ele>46.333527</ele>
<time>2011-10-13T13:12:06Z</time>
<desc>lat.=44.430866, lon.=34.127792, Alt.=46.333527m. Speed=4.824000m/h.</desc>
<speed>1.340000</speed>
</trkpt>
<trkpt lat="44.430832" lon="34.127777">
<ele>47.123566</ele>
<time>2011-10-13T13:12:11Z</time>
<desc>lat.=44.430832, lon.=34.127777, Alt.=47.123566m. Speed=1.944000m/h.</desc>
<speed>0.540000</speed>
</trkpt>
<trkpt lat="44.430809" lon="34.127754">
<ele>47.723175</ele>
<time>2011-10-13T13:12:16Z</time>
<desc>lat.=44.430809, lon.=34.127754, Alt.=47.723175m. Speed=1.260000m/h.</desc>
<speed>0.350000</speed>
</trkpt>
<trkpt lat="44.430809" lon="34.127777">
<ele>47.920441</ele>
<time>2011-10-13T13:12:21Z</time>
<desc>lat.=44.430809, lon.=34.127777, Alt.=47.920441m. Speed=0.612000m/h.</desc>
<speed>0.170000</speed>
</trkpt>
<trkpt lat="44.430790" lon="34.127785">
<ele>48.191925</ele>
<time>2011-10-13T13:12:26Z</time>
<desc>lat.=44.430790, lon.=34.127785, Alt.=48.191925m. Speed=0.612000m/h.</desc>
<speed>0.170000</speed>
</trkpt>
<trkpt lat="44.430771" lon="34.127766">
<ele>48.530792</ele>
<time>2011-10-13T13:12:31Z</time>
<desc>lat.=44.430771, lon.=34.127766, Alt.=48.530792m. Speed=0.828000m/h.</desc>
<speed>0.230000</speed>
</trkpt>
<trkpt lat="44.430779" lon="34.127712">
<ele>48.829620</ele>
<time>2011-10-13T13:12:36Z</time>
<desc>lat.=44.430779, lon.=34.127712, Alt.=48.829620m. Speed=0.936000m/h.</desc>
<speed>0.260000</speed>
</trkpt>
<trkpt lat="44.430801" lon="34.127579">
<ele>49.306183</ele>
<time>2011-10-13T13:12:41Z</time>
<desc>lat.=44.430801, lon.=34.127579, Alt.=49.306183m. Speed=0.648000m/h.</desc>
<speed>0.180000</speed>
</trkpt>
<trkpt lat="44.430798" lon="34.127563">
<ele>50.188995</ele>
<time>2011-10-13T13:12:46Z</time>
<desc>lat.=44.430798, lon.=34.127563, Alt.=50.188995m. Speed=0.324000m/h.</desc>
<speed>0.090000</speed>
</trkpt>
<trkpt lat="44.430801" lon="34.127560">
<ele>51.084503</ele>
<time>2011-10-13T13:12:51Z</time>
<desc>lat.=44.430801, lon.=34.127560, Alt.=51.084503m. Speed=0.468000m/h.</desc>
<speed>0.130000</speed>
</trkpt>
<trkpt lat="44.430805" lon="34.127552">
<ele>51.916534</ele>
<time>2011-10-13T13:12:56Z</time>
<desc>lat.=44.430805, lon.=34.127552, Alt.=51.916534m. Speed=0.468000m/h.</desc>
<speed>0.130000</speed>
</trkpt>
<trkpt lat="44.430809" lon="34.127548">
<ele>52.680206</ele>
<time>2011-10-13T13:13:01Z</time>
<desc>lat.=44.430809, lon.=34.127548, Alt.=52.680206m. Speed=0.540000m/h.</desc>
<speed>0.150000</speed>
</trkpt>
<trkpt lat="44.430817" lon="34.127548">
<ele>53.389191</ele>
<time>2011-10-13T13:13:06Z</time>
<desc>lat.=44.430817, lon.=34.127548, Alt.=53.389191m. Speed=0.432000m/h.</desc>
<speed>0.120000</speed>
</trkpt>
<trkpt lat="44.430820" lon="34.127548">
<ele>54.029816</ele>
<time>2011-10-13T13:13:11Z</time>
<desc>lat.=44.430820, lon.=34.127548, Alt.=54.029816m. Speed=0.144000m/h.</desc>
<speed>0.040000</speed>
</trkpt>
<trkpt lat="44.430817" lon="34.127544">
<ele>54.563995</ele>
<time>2011-10-13T13:13:16Z</time>
<desc>lat.=44.430817, lon.=34.127544, Alt.=54.563995m. Speed=0.360000m/h.</desc>
<speed>0.100000</speed>
</trkpt>
<trkpt lat="44.430813" lon="34.127541">
<ele>54.977081</ele>
<time>2011-10-13T13:13:21Z</time>
<desc>lat.=44.430813, lon.=34.127541, Alt.=54.977081m. Speed=0.540000m/h.</desc>
<speed>0.150000</speed>
</trkpt>
<trkpt lat="44.430809" lon="34.127529">
<ele>55.302277</ele>
<time>2011-10-13T13:13:26Z</time>
<desc>lat.=44.430809, lon.=34.127529, Alt.=55.302277m. Speed=1.080000m/h.</desc>
<speed>0.300000</speed>
</trkpt>
<trkpt lat="44.430805" lon="34.127430">
<ele>54.572784</ele>
<time>2011-10-13T13:13:31Z</time>
<desc>lat.=44.430805, lon.=34.127430, Alt.=54.572784m. Speed=1.764000m/h.</desc>
<speed>0.490000</speed>
</trkpt>
<trkpt lat="44.430782" lon="34.127350">
<ele>53.489777</ele>
<time>2011-10-13T13:13:36Z</time>
<desc>lat.=44.430782, lon.=34.127350, Alt.=53.489777m. Speed=1.980000m/h.</desc>
<speed>0.550000</speed>
</trkpt>
<trkpt lat="44.430748" lon="34.127304">
<ele>52.236847</ele>
<time>2011-10-13T13:13:41Z</time>
<desc>lat.=44.430748, lon.=34.127304, Alt.=52.236847m. Speed=1.692000m/h.</desc>
<speed>0.470000</speed>
</trkpt>
<trkpt lat="44.430729" lon="34.127296">
<ele>51.460480</ele>
<time>2011-10-13T13:13:46Z</time>
<desc>lat.=44.430729, lon.=34.127296, Alt.=51.460480m. Speed=1.080000m/h.</desc>
<speed>0.300000</speed>
</trkpt>
<trkpt lat="44.430729" lon="34.127316">
<ele>50.525909</ele>
<time>2011-10-13T13:13:51Z</time>
<desc>lat.=44.430729, lon.=34.127316, Alt.=50.525909m. Speed=0.432000m/h.</desc>
<speed>0.120000</speed>
</trkpt>
<trkpt lat="44.430725" lon="34.127308">
<ele>50.364777</ele>
<time>2011-10-13T13:13:56Z</time>
<desc>lat.=44.430725, lon.=34.127308, Alt.=50.364777m. Speed=0.540000m/h.</desc>
<speed>0.150000</speed>
</trkpt>
<trkpt lat="44.430717" lon="34.127304">
<ele>50.141144</ele>
<time>2011-10-13T13:14:01Z</time>
<desc>lat.=44.430717, lon.=34.127304, Alt.=50.141144m. Speed=0.540000m/h.</desc>
<speed>0.150000</speed>
</trkpt>
<trkpt lat="44.430710" lon="34.127296">
<ele>49.823761</ele>
<time>2011-10-13T13:14:06Z</time>
<desc>lat.=44.430710, lon.=34.127296, Alt.=49.823761m. Speed=0.540000m/h.</desc>
<speed>0.150000</speed>
</trkpt>
<trkpt lat="44.430683" lon="34.127293">
<ele>47.270050</ele>
<time>2011-10-13T13:14:11Z</time>
<desc>lat.=44.430683, lon.=34.127293, Alt.=47.270050m. Speed=0.288000m/h.</desc>
<speed>0.080000</speed>
</trkpt>
<trkpt lat="44.430660" lon="34.127270">
<ele>44.944855</ele>
<time>2011-10-13T13:14:16Z</time>
<desc>lat.=44.430660, lon.=34.127270, Alt.=44.944855m. Speed=0.756000m/h.</desc>
<speed>0.210000</speed>
</trkpt>
<trkpt lat="44.430660" lon="34.127235">
<ele>43.141144</ele>
<time>2011-10-13T13:14:21Z</time>
<desc>lat.=44.430660, lon.=34.127235, Alt.=43.141144m. Speed=0.576000m/h.</desc>
<speed>0.160000</speed>
</trkpt>
<trkpt lat="44.430630" lon="34.127213">
<ele>41.049347</ele>
<time>2011-10-13T13:14:26Z</time>
<desc>lat.=44.430630, lon.=34.127213, Alt.=41.049347m. Speed=0.792000m/h.</desc>
<speed>0.220000</speed>
</trkpt>
<trkpt lat="44.430576" lon="34.127140">
<ele>37.531769</ele>
<time>2011-10-13T13:14:31Z</time>
<desc>lat.=44.430576, lon.=34.127140, Alt.=37.531769m. Speed=1.332000m/h.</desc>
<speed>0.370000</speed>
</trkpt>
<trkpt lat="44.430576" lon="34.127094">
<ele>36.648956</ele>
<time>2011-10-13T13:14:36Z</time>
<desc>lat.=44.430576, lon.=34.127094, Alt.=36.648956m. Speed=1.512000m/h.</desc>
<speed>0.420000</speed>
</trkpt>
<trkpt lat="44.430576" lon="34.127106">
<ele>35.825714</ele>
<time>2011-10-13T13:14:41Z</time>
<desc>lat.=44.430576, lon.=34.127106, Alt.=35.825714m. Speed=0.936000m/h.</desc>
<speed>0.260000</speed>
</trkpt>
<trkpt lat="44.430595" lon="34.127140">
<ele>33.717316</ele>
<time>2011-10-13T13:14:46Z</time>
<desc>lat.=44.430595, lon.=34.127140, Alt.=33.717316m. Speed=0.216000m/h.</desc>
<speed>0.060000</speed>
</trkpt>
<trkpt lat="44.430603" lon="34.127144">
<ele>32.130402</ele>
<time>2011-10-13T13:14:51Z</time>
<desc>lat.=44.430603, lon.=34.127144, Alt.=32.130402m. Speed=0.216000m/h.</desc>
<speed>0.060000</speed>
</trkpt>
<trkpt lat="44.430607" lon="34.127144">
<ele>31.195572</ele>
<time>2011-10-13T13:14:56Z</time>
<desc>lat.=44.430607, lon.=34.127144, Alt.=31.195572m. Speed=0.504000m/h.</desc>
<speed>0.140000</speed>
</trkpt>
<trkpt lat="44.430611" lon="34.127155">
<ele>30.321548</ele>
<time>2011-10-13T13:15:01Z</time>
<desc>lat.=44.430611, lon.=34.127155, Alt.=30.321548m. Speed=0.576000m/h.</desc>
<speed>0.160000</speed>
</trkpt>
<trkpt lat="44.430618" lon="34.127171">
<ele>29.475845</ele>
<time>2011-10-13T13:15:06Z</time>
<desc>lat.=44.430618, lon.=34.127171, Alt.=29.475845m. Speed=0.540000m/h.</desc>
<speed>0.150000</speed>
</trkpt>
<trkpt lat="44.430634" lon="34.127220">
<ele>29.402603</ele>
<time>2011-10-13T13:15:11Z</time>
<desc>lat.=44.430634, lon.=34.127220, Alt.=29.402603m. Speed=1.008000m/h.</desc>
<speed>0.280000</speed>
</trkpt>
<trkpt lat="44.430653" lon="34.127277">
<ele>29.075943</ele>
<time>2011-10-13T13:15:16Z</time>
<desc>lat.=44.430653, lon.=34.127277, Alt.=29.075943m. Speed=1.440000m/h.</desc>
<speed>0.400000</speed>
</trkpt>
<trkpt lat="44.430672" lon="34.127346">
<ele>28.398209</ele>
<time>2011-10-13T13:15:21Z</time>
<desc>lat.=44.430672, lon.=34.127346, Alt.=28.398209m. Speed=1.584000m/h.</desc>
<speed>0.440000</speed>
</trkpt>
<trkpt lat="44.430649" lon="34.127548">
<ele>27.751236</ele>
<time>2011-10-13T13:15:26Z</time>
<desc>lat.=44.430649, lon.=34.127548, Alt.=27.751236m. Speed=2.124000m/h.</desc>
<speed>0.590000</speed>
</trkpt>
<trkpt lat="44.430649" lon="34.127617">
<ele>27.328384</ele>
<time>2011-10-13T13:15:31Z</time>
<desc>lat.=44.430649, lon.=34.127617, Alt.=27.328384m. Speed=0.828000m/h.</desc>
<speed>0.230000</speed>
</trkpt>
<trkpt lat="44.430645" lon="34.127625">
<ele>27.076920</ele>
<time>2011-10-13T13:15:36Z</time>
<desc>lat.=44.430645, lon.=34.127625, Alt.=27.076920m. Speed=0.540000m/h.</desc>
<speed>0.150000</speed>
</trkpt>
<trkpt lat="44.430706" lon="34.127605">
<ele>27.030533</ele>
<time>2011-10-13T13:15:41Z</time>
<desc>lat.=44.430706, lon.=34.127605, Alt.=27.030533m. Speed=0.756000m/h.</desc>
<speed>0.210000</speed>
</trkpt>
<trkpt lat="44.430683" lon="34.127632">
<ele>28.635025</ele>
<time>2011-10-13T13:15:46Z</time>
<desc>lat.=44.430683, lon.=34.127632, Alt.=28.635025m. Speed=2.556000m/h.</desc>
<speed>0.710000</speed>
</trkpt>
<trkpt lat="44.430660" lon="34.127644">
<ele>29.448502</ele>
<time>2011-10-13T13:15:51Z</time>
<desc>lat.=44.430660, lon.=34.127644, Alt.=29.448502m. Speed=1.908000m/h.</desc>
<speed>0.530000</speed>
</trkpt>
<trkpt lat="44.430679" lon="34.127655">
<ele>30.000748</ele>
<time>2011-10-13T13:15:56Z</time>
<desc>lat.=44.430679, lon.=34.127655, Alt.=30.000748m. Speed=0.576000m/h.</desc>
<speed>0.160000</speed>
</trkpt>
<trkpt lat="44.430660" lon="34.127682">
<ele>30.198013</ele>
<time>2011-10-13T13:16:01Z</time>
<desc>lat.=44.430660, lon.=34.127682, Alt.=30.198013m. Speed=0.864000m/h.</desc>
<speed>0.240000</speed>
</trkpt>
<trkpt lat="44.430626" lon="34.127647">
<ele>30.933365</ele>
<time>2011-10-13T13:16:06Z</time>
<desc>lat.=44.430626, lon.=34.127647, Alt.=30.933365m. Speed=1.836000m/h.</desc>
<speed>0.510000</speed>
</trkpt>
<trkpt lat="44.430576" lon="34.127590">
<ele>31.608170</ele>
<time>2011-10-13T13:16:11Z</time>
<desc>lat.=44.430576, lon.=34.127590, Alt.=31.608170m. Speed=2.124000m/h.</desc>
<speed>0.590000</speed>
</trkpt>
<trkpt lat="44.430565" lon="34.127579">
<ele>32.407745</ele>
<time>2011-10-13T13:16:16Z</time>
<desc>lat.=44.430565, lon.=34.127579, Alt.=32.407745m. Speed=0.468000m/h.</desc>
<speed>0.130000</speed>
</trkpt>
<trkpt lat="44.430511" lon="34.127583">
<ele>32.423370</ele>
<time>2011-10-13T13:16:21Z</time>
<desc>lat.=44.430511, lon.=34.127583, Alt.=32.423370m. Speed=0.396000m/h.</desc>
<speed>0.110000</speed>
</trkpt>
<trkpt lat="44.430492" lon="34.127602">
<ele>33.048370</ele>
<time>2011-10-13T13:16:26Z</time>
<desc>lat.=44.430492, lon.=34.127602, Alt.=33.048370m. Speed=0.396000m/h.</desc>
<speed>0.110000</speed>
</trkpt>
<trkpt lat="44.430492" lon="34.127644">
<ele>33.531769</ele>
<time>2011-10-13T13:16:31Z</time>
<desc>lat.=44.430492, lon.=34.127644, Alt.=33.531769m. Speed=0.828000m/h.</desc>
<speed>0.230000</speed>
</trkpt>
<trkpt lat="44.430481" lon="34.127720">
<ele>35.333527</ele>
<time>2011-10-13T13:16:36Z</time>
<desc>lat.=44.430481, lon.=34.127720, Alt.=35.333527m. Speed=1.440000m/h.</desc>
<speed>0.400000</speed>
</trkpt>
<trkpt lat="44.430489" lon="34.127808">
<ele>37.729034</ele>
<time>2011-10-13T13:16:41Z</time>
<desc>lat.=44.430489, lon.=34.127808, Alt.=37.729034m. Speed=3.564000m/h.</desc>
<speed>0.990000</speed>
</trkpt>
<trkpt lat="44.430492" lon="34.127880">
<ele>40.643097</ele>
<time>2011-10-13T13:16:46Z</time>
<desc>lat.=44.430492, lon.=34.127880, Alt.=40.643097m. Speed=2.268000m/h.</desc>
<speed>0.630000</speed>
</trkpt>
<trkpt lat="44.430504" lon="34.127960">
<ele>44.590363</ele>
<time>2011-10-13T13:16:51Z</time>
<desc>lat.=44.430504, lon.=34.127960, Alt.=44.590363m. Speed=3.132000m/h.</desc>
<speed>0.870000</speed>
</trkpt>
<trkpt lat="44.430531" lon="34.128052">
<ele>47.844269</ele>
<time>2011-10-13T13:16:56Z</time>
<desc>lat.=44.430531, lon.=34.128052, Alt.=47.844269m. Speed=2.556000m/h.</desc>
<speed>0.710000</speed>
</trkpt>
<trkpt lat="44.430527" lon="34.128098">
<ele>50.648956</ele>
<time>2011-10-13T13:17:01Z</time>
<desc>lat.=44.430527, lon.=34.128098, Alt.=50.648956m. Speed=2.052000m/h.</desc>
<speed>0.570000</speed>
</trkpt>
<trkpt lat="44.430515" lon="34.128113">
<ele>52.011261</ele>
<time>2011-10-13T13:17:06Z</time>
<desc>lat.=44.430515, lon.=34.128113, Alt.=52.011261m. Speed=0.900000m/h.</desc>
<speed>0.250000</speed>
</trkpt>
<trkpt lat="44.430511" lon="34.128124">
<ele>52.944855</ele>
<time>2011-10-13T13:17:11Z</time>
<desc>lat.=44.430511, lon.=34.128124, Alt.=52.944855m. Speed=0.324000m/h.</desc>
<speed>0.090000</speed>
</trkpt>
<trkpt lat="44.430511" lon="34.128128">
<ele>53.724152</ele>
<time>2011-10-13T13:17:16Z</time>
<desc>lat.=44.430511, lon.=34.128128, Alt.=53.724152m. Speed=0.540000m/h.</desc>
<speed>0.150000</speed>
</trkpt>
<trkpt lat="44.430470" lon="34.128166">
<ele>51.907745</ele>
<time>2011-10-13T13:17:21Z</time>
<desc>lat.=44.430470, lon.=34.128166, Alt.=51.907745m. Speed=1.404000m/h.</desc>
<speed>0.390000</speed>
</trkpt>
<trkpt lat="44.430450" lon="34.128239">
<ele>51.312042</ele>
<time>2011-10-13T13:17:26Z</time>
<desc>lat.=44.430450, lon.=34.128239, Alt.=51.312042m. Speed=1.908000m/h.</desc>
<speed>0.530000</speed>
</trkpt>
<trkpt lat="44.430454" lon="34.128315">
<ele>51.278839</ele>
<time>2011-10-13T13:17:31Z</time>
<desc>lat.=44.430454, lon.=34.128315, Alt.=51.278839m. Speed=2.772000m/h.</desc>
<speed>0.770000</speed>
</trkpt>
<trkpt lat="44.430462" lon="34.128395">
<ele>51.255402</ele>
<time>2011-10-13T13:17:36Z</time>
<desc>lat.=44.430462, lon.=34.128395, Alt.=51.255402m. Speed=2.700000m/h.</desc>
<speed>0.750000</speed>
</trkpt>
<trkpt lat="44.430470" lon="34.128628">
<ele>50.809113</ele>
<time>2011-10-13T13:17:41Z</time>
<desc>lat.=44.430470, lon.=34.128628, Alt.=50.809113m. Speed=2.952000m/h.</desc>
<speed>0.820000</speed>
</trkpt>
<trkpt lat="44.430511" lon="34.128647">
<ele>50.608917</ele>
<time>2011-10-13T13:17:46Z</time>
<desc>lat.=44.430511, lon.=34.128647, Alt.=50.608917m. Speed=0.900000m/h.</desc>
<speed>0.250000</speed>
</trkpt>
<trkpt lat="44.430561" lon="34.128677">
<ele>50.167511</ele>
<time>2011-10-13T13:17:51Z</time>
<desc>lat.=44.430561, lon.=34.128677, Alt.=50.167511m. Speed=0.756000m/h.</desc>
<speed>0.210000</speed>
</trkpt>
<trkpt lat="44.430592" lon="34.128708">
<ele>49.915558</ele>
<time>2011-10-13T13:17:56Z</time>
<desc>lat.=44.430592, lon.=34.128708, Alt.=49.915558m. Speed=1.332000m/h.</desc>
<speed>0.370000</speed>
</trkpt>
<trkpt lat="44.430672" lon="34.128708">
<ele>49.240753</ele>
<time>2011-10-13T13:18:01Z</time>
<desc>lat.=44.430672, lon.=34.128708, Alt.=49.240753m. Speed=2.052000m/h.</desc>
<speed>0.570000</speed>
</trkpt>
<trkpt lat="44.430706" lon="34.128681">
<ele>48.647003</ele>
<time>2011-10-13T13:18:06Z</time>
<desc>lat.=44.430706, lon.=34.128681, Alt.=48.647003m. Speed=1.764000m/h.</desc>
<speed>0.490000</speed>
</trkpt>
<trkpt lat="44.430740" lon="34.128635">
<ele>47.799347</ele>
<time>2011-10-13T13:18:11Z</time>
<desc>lat.=44.430740, lon.=34.128635, Alt.=47.799347m. Speed=2.016000m/h.</desc>
<speed>0.560000</speed>
</trkpt>
<trkpt lat="44.430744" lon="34.128597">
<ele>47.855011</ele>
<time>2011-10-13T13:18:16Z</time>
<desc>lat.=44.430744, lon.=34.128597, Alt.=47.855011m. Speed=1.800000m/h.</desc>
<speed>0.500000</speed>
</trkpt>
<trkpt lat="44.430706" lon="34.128525">
<ele>47.723175</ele>
<time>2011-10-13T13:18:21Z</time>
<desc>lat.=44.430706, lon.=34.128525, Alt.=47.723175m. Speed=1.656000m/h.</desc>
<speed>0.460000</speed>
</trkpt>
<trkpt lat="44.430683" lon="34.128429">
<ele>47.937042</ele>
<time>2011-10-13T13:18:26Z</time>
<desc>lat.=44.430683, lon.=34.128429, Alt.=47.937042m. Speed=1.116000m/h.</desc>
<speed>0.310000</speed>
</trkpt>
<trkpt lat="44.430622" lon="34.128372">
<ele>47.953644</ele>
<time>2011-10-13T13:18:31Z</time>
<desc>lat.=44.430622, lon.=34.128372, Alt.=47.953644m. Speed=2.160000m/h.</desc>
<speed>0.600000</speed>
</trkpt>
<trkpt lat="44.430569" lon="34.128365">
<ele>48.067902</ele>
<time>2011-10-13T13:18:36Z</time>
<desc>lat.=44.430569, lon.=34.128365, Alt.=48.067902m. Speed=1.188000m/h.</desc>
<speed>0.330000</speed>
</trkpt>
<trkpt lat="44.430542" lon="34.128391">
<ele>48.695831</ele>
<time>2011-10-13T13:18:41Z</time>
<desc>lat.=44.430542, lon.=34.128391, Alt.=48.695831m. Speed=1.044000m/h.</desc>
<speed>0.290000</speed>
</trkpt>
<trkpt lat="44.430492" lon="34.128410">
<ele>47.538605</ele>
<time>2011-10-13T13:18:46Z</time>
<desc>lat.=44.430492, lon.=34.128410, Alt.=47.538605m. Speed=1.044000m/h.</desc>
<speed>0.290000</speed>
</trkpt>
<trkpt lat="44.430492" lon="34.128418">
<ele>47.673370</ele>
<time>2011-10-13T13:18:51Z</time>
<desc>lat.=44.430492, lon.=34.128418, Alt.=47.673370m. Speed=0.756000m/h.</desc>
<speed>0.210000</speed>
</trkpt>
<trkpt lat="44.430492" lon="34.128429">
<ele>47.782745</ele>
<time>2011-10-13T13:18:56Z</time>
<desc>lat.=44.430492, lon.=34.128429, Alt.=47.782745m. Speed=0.396000m/h.</desc>
<speed>0.110000</speed>
</trkpt>
<trkpt lat="44.430496" lon="34.128426">
<ele>47.971222</ele>
<time>2011-10-13T13:19:01Z</time>
<desc>lat.=44.430496, lon.=34.128426, Alt.=47.971222m. Speed=0.504000m/h.</desc>
<speed>0.140000</speed>
</trkpt>
<trkpt lat="44.430496" lon="34.128418">
<ele>48.188995</ele>
<time>2011-10-13T13:19:06Z</time>
<desc>lat.=44.430496, lon.=34.128418, Alt.=48.188995m. Speed=0.216000m/h.</desc>
<speed>0.060000</speed>
</trkpt>
<trkpt lat="44.430500" lon="34.128418">
<ele>48.437042</ele>
<time>2011-10-13T13:19:11Z</time>
<desc>lat.=44.430500, lon.=34.128418, Alt.=48.437042m. Speed=0.360000m/h.</desc>
<speed>0.100000</speed>
</trkpt>
<trkpt lat="44.430500" lon="34.128410">
<ele>48.710480</ele>
<time>2011-10-13T13:19:16Z</time>
<desc>lat.=44.430500, lon.=34.128410, Alt.=48.710480m. Speed=0.216000m/h.</desc>
<speed>0.060000</speed>
</trkpt>
<trkpt lat="44.430504" lon="34.128407">
<ele>49.009308</ele>
<time>2011-10-13T13:19:21Z</time>
<desc>lat.=44.430504, lon.=34.128407, Alt.=49.009308m. Speed=0.252000m/h.</desc>
<speed>0.070000</speed>
</trkpt>
<trkpt lat="44.430504" lon="34.128407">
<ele>49.241730</ele>
<time>2011-10-13T13:19:26Z</time>
<desc>lat.=44.430504, lon.=34.128407, Alt.=49.241730m. Speed=1.548000m/h.</desc>
<speed>0.430000</speed>
</trkpt>
<trkpt lat="44.430519" lon="34.128407">
<ele>49.529816</ele>
<time>2011-10-13T13:19:31Z</time>
<desc>lat.=44.430519, lon.=34.128407, Alt.=49.529816m. Speed=1.404000m/h.</desc>
<speed>0.390000</speed>
</trkpt>
<trkpt lat="44.430489" lon="34.128414">
<ele>48.571808</ele>
<time>2011-10-13T13:19:36Z</time>
<desc>lat.=44.430489, lon.=34.128414, Alt.=48.571808m. Speed=0.144000m/h.</desc>
<speed>0.040000</speed>
</trkpt>
<trkpt lat="44.430477" lon="34.128391">
<ele>49.009308</ele>
<time>2011-10-13T13:19:41Z</time>
<desc>lat.=44.430477, lon.=34.128391, Alt.=49.009308m. Speed=0.540000m/h.</desc>
<speed>0.150000</speed>
</trkpt>
<trkpt lat="44.430473" lon="34.128384">
<ele>49.217316</ele>
<time>2011-10-13T13:19:46Z</time>
<desc>lat.=44.430473, lon.=34.128384, Alt.=49.217316m. Speed=0.612000m/h.</desc>
<speed>0.170000</speed>
</trkpt>
<trkpt lat="44.430470" lon="34.128376">
<ele>49.429230</ele>
<time>2011-10-13T13:19:51Z</time>
<desc>lat.=44.430470, lon.=34.128376, Alt.=49.429230m. Speed=0.360000m/h.</desc>
<speed>0.100000</speed>
</trkpt>
<trkpt lat="44.430470" lon="34.128372">
<ele>49.646027</ele>
<time>2011-10-13T13:19:56Z</time>
<desc>lat.=44.430470, lon.=34.128372, Alt.=49.646027m. Speed=0.180000m/h.</desc>
<speed>0.050000</speed>
</trkpt>
<trkpt lat="44.430470" lon="34.128368">
<ele>49.860870</ele>
<time>2011-10-13T13:20:01Z</time>
<desc>lat.=44.430470, lon.=34.128368, Alt.=49.860870m. Speed=0.216000m/h.</desc>
<speed>0.060000</speed>
</trkpt>
<trkpt lat="44.430470" lon="34.128365">
<ele>50.102081</ele>
<time>2011-10-13T13:20:06Z</time>
<desc>lat.=44.430470, lon.=34.128365, Alt.=50.102081m. Speed=0.108000m/h.</desc>
<speed>0.030000</speed>
</trkpt>
<trkpt lat="44.430470" lon="34.128365">
<ele>50.166534</ele>
<time>2011-10-13T13:20:11Z</time>
<desc>lat.=44.430470, lon.=34.128365, Alt.=50.166534m. Speed=0.000000m/h.</desc>
<speed>0.000000</speed>
</trkpt>
<trkpt lat="44.430470" lon="34.128365">
<ele>50.141144</ele>
<time>2011-10-13T13:20:16Z</time>
<desc>lat.=44.430470, lon.=34.128365, Alt.=50.141144m. Speed=0.180000m/h.</desc>
<speed>0.050000</speed>
</trkpt>
<trkpt lat="44.430470" lon="34.128368">
<ele>50.117706</ele>
<time>2011-10-13T13:20:21Z</time>
<desc>lat.=44.430470, lon.=34.128368, Alt.=50.117706m. Speed=0.108000m/h.</desc>
<speed>0.030000</speed>
</trkpt>
<trkpt lat="44.430470" lon="34.128368">
<ele>50.116730</ele>
<time>2011-10-13T13:20:26Z</time>
<desc>lat.=44.430470, lon.=34.128368, Alt.=50.116730m. Speed=0.036000m/h.</desc>
<speed>0.010000</speed>
</trkpt>
<trkpt lat="44.430470" lon="34.128368">
<ele>50.113800</ele>
<time>2011-10-13T13:20:31Z</time>
<desc>lat.=44.430470, lon.=34.128368, Alt.=50.113800m. Speed=0.108000m/h.</desc>
<speed>0.030000</speed>
</trkpt>
<trkpt lat="44.430470" lon="34.128368">
<ele>50.105011</ele>
<time>2011-10-13T13:20:36Z</time>
<desc>lat.=44.430470, lon.=34.128368, Alt.=50.105011m. Speed=0.036000m/h.</desc>
<speed>0.010000</speed>
</trkpt>
<trkpt lat="44.430470" lon="34.128368">
<ele>50.091339</ele>
<time>2011-10-13T13:20:41Z</time>
<desc>lat.=44.430470, lon.=34.128368, Alt.=50.091339m. Speed=0.000000m/h.</desc>
<speed>0.000000</speed>
</trkpt>
<trkpt lat="44.430470" lon="34.128368">
<ele>50.062042</ele>
<time>2011-10-13T13:20:46Z</time>
<desc>lat.=44.430470, lon.=34.128368, Alt.=50.062042m. Speed=0.072000m/h.</desc>
<speed>0.020000</speed>
</trkpt>
<trkpt lat="44.430470" lon="34.128368">
<ele>50.047394</ele>
<time>2011-10-13T13:20:51Z</time>
<desc>lat.=44.430470, lon.=34.128368, Alt.=50.047394m. Speed=0.036000m/h.</desc>
<speed>0.010000</speed>
</trkpt>
<trkpt lat="44.430470" lon="34.128372">
<ele>50.031769</ele>
<time>2011-10-13T13:20:56Z</time>
<desc>lat.=44.430470, lon.=34.128372, Alt.=50.031769m. Speed=0.000000m/h.</desc>
<speed>0.000000</speed>
</trkpt>
<trkpt lat="44.430473" lon="34.128376">
<ele>49.705597</ele>
<time>2011-10-13T13:21:01Z</time>
<desc>lat.=44.430473, lon.=34.128376, Alt.=49.705597m. Speed=0.180000m/h.</desc>
<speed>0.050000</speed>
</trkpt>
<trkpt lat="44.430481" lon="34.128399">
<ele>49.593292</ele>
<time>2011-10-13T13:21:06Z</time>
<desc>lat.=44.430481, lon.=34.128399, Alt.=49.593292m. Speed=0.252000m/h.</desc>
<speed>0.070000</speed>
</trkpt>
<trkpt lat="44.430489" lon="34.128399">
<ele>49.157745</ele>
<time>2011-10-13T13:21:11Z</time>
<desc>lat.=44.430489, lon.=34.128399, Alt.=49.157745m. Speed=0.072000m/h.</desc>
<speed>0.020000</speed>
</trkpt>
<trkpt lat="44.430489" lon="34.128414">
<ele>49.349152</ele>
<time>2011-10-13T13:21:16Z</time>
<desc>lat.=44.430489, lon.=34.128414, Alt.=49.349152m. Speed=0.144000m/h.</desc>
<speed>0.040000</speed>
</trkpt>
<trkpt lat="44.430489" lon="34.128403">
<ele>49.046417</ele>
<time>2011-10-13T13:21:21Z</time>
<desc>lat.=44.430489, lon.=34.128403, Alt.=49.046417m. Speed=0.036000m/h.</desc>
<speed>0.010000</speed>
</trkpt>
<trkpt lat="44.430492" lon="34.128407">
<ele>48.952667</ele>
<time>2011-10-13T13:21:26Z</time>
<desc>lat.=44.430492, lon.=34.128407, Alt.=48.952667m. Speed=0.036000m/h.</desc>
<speed>0.010000</speed>
</trkpt>
<trkpt lat="44.430496" lon="34.128395">
<ele>48.603058</ele>
<time>2011-10-13T13:21:31Z</time>
<desc>lat.=44.430496, lon.=34.128395, Alt.=48.603058m. Speed=0.144000m/h.</desc>
<speed>0.040000</speed>
</trkpt>
<trkpt lat="44.430496" lon="34.128387">
<ele>48.302277</ele>
<time>2011-10-13T13:21:36Z</time>
<desc>lat.=44.430496, lon.=34.128387, Alt.=48.302277m. Speed=0.108000m/h.</desc>
<speed>0.030000</speed>
</trkpt>
<trkpt lat="44.430500" lon="34.128357">
<ele>48.191925</ele>
<time>2011-10-13T13:21:41Z</time>
<desc>lat.=44.430500, lon.=34.128357, Alt.=48.191925m. Speed=0.072000m/h.</desc>
<speed>0.020000</speed>
</trkpt>
<trkpt lat="44.430508" lon="34.128353">
<ele>47.684113</ele>
<time>2011-10-13T13:21:46Z</time>
<desc>lat.=44.430508, lon.=34.128353, Alt.=47.684113m. Speed=0.108000m/h.</desc>
<speed>0.030000</speed>
</trkpt>
<trkpt lat="44.430508" lon="34.128345">
<ele>47.029816</ele>
<time>2011-10-13T13:21:51Z</time>
<desc>lat.=44.430508, lon.=34.128345, Alt.=47.029816m. Speed=0.144000m/h.</desc>
<speed>0.040000</speed>
</trkpt>
<trkpt lat="44.430504" lon="34.128349">
<ele>45.830597</ele>
<time>2011-10-13T13:21:56Z</time>
<desc>lat.=44.430504, lon.=34.128349, Alt.=45.830597m. Speed=0.252000m/h.</desc>
<speed>0.070000</speed>
</trkpt>
<trkpt lat="44.430489" lon="34.128372">
<ele>45.610870</ele>
<time>2011-10-13T13:22:01Z</time>
<desc>lat.=44.430489, lon.=34.128372, Alt.=45.610870m. Speed=0.252000m/h.</desc>
<speed>0.070000</speed>
</trkpt>
<trkpt lat="44.430496" lon="34.128372">
<ele>44.945831</ele>
<time>2011-10-13T13:22:06Z</time>
<desc>lat.=44.430496, lon.=34.128372, Alt.=44.945831m. Speed=0.108000m/h.</desc>
<speed>0.030000</speed>
</trkpt>
<trkpt lat="44.430492" lon="34.128368">
<ele>45.049347</ele>
<time>2011-10-13T13:22:11Z</time>
<desc>lat.=44.430492, lon.=34.128368, Alt.=45.049347m. Speed=0.036000m/h.</desc>
<speed>0.010000</speed>
</trkpt>
<trkpt lat="44.430500" lon="34.128368">
<ele>46.799347</ele>
<time>2011-10-13T13:22:16Z</time>
<desc>lat.=44.430500, lon.=34.128368, Alt.=46.799347m. Speed=0.072000m/h.</desc>
<speed>0.020000</speed>
</trkpt>
<trkpt lat="44.430492" lon="34.128372">
<ele>46.225128</ele>
<time>2011-10-13T13:22:21Z</time>
<desc>lat.=44.430492, lon.=34.128372, Alt.=46.225128m. Speed=0.036000m/h.</desc>
<speed>0.010000</speed>
</trkpt>
<trkpt lat="44.430485" lon="34.128368">
<ele>45.686066</ele>
<time>2011-10-13T13:22:26Z</time>
<desc>lat.=44.430485, lon.=34.128368, Alt.=45.686066m. Speed=0.036000m/h.</desc>
<speed>0.010000</speed>
</trkpt>
<trkpt lat="44.430477" lon="34.128372">
<ele>45.747589</ele>
<time>2011-10-13T13:22:31Z</time>
<desc>lat.=44.430477, lon.=34.128372, Alt.=45.747589m. Speed=0.000000m/h.</desc>
<speed>0.000000</speed>
</trkpt>
<trkpt lat="44.430485" lon="34.128368">
<ele>44.595245</ele>
<time>2011-10-13T13:22:36Z</time>
<desc>lat.=44.430485, lon.=34.128368, Alt.=44.595245m. Speed=0.000000m/h.</desc>
<speed>0.000000</speed>
</trkpt>
<trkpt lat="44.430481" lon="34.128365">
<ele>44.392120</ele>
<time>2011-10-13T13:22:41Z</time>
<desc>lat.=44.430481, lon.=34.128365, Alt.=44.392120m. Speed=0.108000m/h.</desc>
<speed>0.030000</speed>
</trkpt>
<trkpt lat="44.430489" lon="34.128365">
<ele>44.014191</ele>
<time>2011-10-13T13:22:46Z</time>
<desc>lat.=44.430489, lon.=34.128365, Alt.=44.014191m. Speed=0.108000m/h.</desc>
<speed>0.030000</speed>
</trkpt>
<trkpt lat="44.430492" lon="34.128353">
<ele>44.569855</ele>
<time>2011-10-13T13:22:51Z</time>
<desc>lat.=44.430492, lon.=34.128353, Alt.=44.569855m. Speed=0.108000m/h.</desc>
<speed>0.030000</speed>
</trkpt>
<trkpt lat="44.430500" lon="34.128342">
<ele>44.676300</ele>
<time>2011-10-13T13:22:56Z</time>
<desc>lat.=44.430500, lon.=34.128342, Alt.=44.676300m. Speed=0.036000m/h.</desc>
<speed>0.010000</speed>
</trkpt>
<trkpt lat="44.430508" lon="34.128353">
<ele>44.197784</ele>
<time>2011-10-13T13:23:01Z</time>
<desc>lat.=44.430508, lon.=34.128353, Alt.=44.197784m. Speed=0.000000m/h.</desc>
<speed>0.000000</speed>
</trkpt>
<trkpt lat="44.430523" lon="34.128342">
<ele>43.664581</ele>
<time>2011-10-13T13:23:06Z</time>
<desc>lat.=44.430523, lon.=34.128342, Alt.=43.664581m. Speed=0.072000m/h.</desc>
<speed>0.020000</speed>
</trkpt>
<trkpt lat="44.430565" lon="34.128323">
<ele>41.237823</ele>
<time>2011-10-13T13:23:11Z</time>
<desc>lat.=44.430565, lon.=34.128323, Alt.=41.237823m. Speed=0.036000m/h.</desc>
<speed>0.010000</speed>
</trkpt>
<trkpt lat="44.430580" lon="34.128288">
<ele>40.377472</ele>
<time>2011-10-13T13:23:16Z</time>
<desc>lat.=44.430580, lon.=34.128288, Alt.=40.377472m. Speed=0.216000m/h.</desc>
<speed>0.060000</speed>
</trkpt>
<trkpt lat="44.430580" lon="34.128185">
<ele>40.354034</ele>
<time>2011-10-13T13:23:21Z</time>
<desc>lat.=44.430580, lon.=34.128185, Alt.=40.354034m. Speed=1.152000m/h.</desc>
<speed>0.320000</speed>
</trkpt>
<trkpt lat="44.430595" lon="34.128136">
<ele>41.766144</ele>
<time>2011-10-13T13:23:26Z</time>
<desc>lat.=44.430595, lon.=34.128136, Alt.=41.766144m. Speed=1.080000m/h.</desc>
<speed>0.300000</speed>
</trkpt>
<trkpt lat="44.430618" lon="34.128162">
<ele>41.060089</ele>
<time>2011-10-13T13:23:31Z</time>
<desc>lat.=44.430618, lon.=34.128162, Alt.=41.060089m. Speed=0.756000m/h.</desc>
<speed>0.210000</speed>
</trkpt>
<trkpt lat="44.430634" lon="34.128189">
<ele>40.560089</ele>
<time>2011-10-13T13:23:36Z</time>
<desc>lat.=44.430634, lon.=34.128189, Alt.=40.560089m. Speed=0.648000m/h.</desc>
<speed>0.180000</speed>
</trkpt>
<trkpt lat="44.430637" lon="34.128212">
<ele>40.721222</ele>
<time>2011-10-13T13:23:41Z</time>
<desc>lat.=44.430637, lon.=34.128212, Alt.=40.721222m. Speed=0.792000m/h.</desc>
<speed>0.220000</speed>
</trkpt>
<trkpt lat="44.430630" lon="34.128216">
<ele>40.853058</ele>
<time>2011-10-13T13:23:46Z</time>
<desc>lat.=44.430630, lon.=34.128216, Alt.=40.853058m. Speed=0.252000m/h.</desc>
<speed>0.070000</speed>
</trkpt>
<trkpt lat="44.430599" lon="34.128181">
<ele>41.542511</ele>
<time>2011-10-13T13:23:51Z</time>
<desc>lat.=44.430599, lon.=34.128181, Alt.=41.542511m. Speed=3.852000m/h.</desc>
<speed>1.070000</speed>
</trkpt>
<trkpt lat="44.430565" lon="34.128143">
<ele>43.375519</ele>
<time>2011-10-13T13:23:56Z</time>
<desc>lat.=44.430565, lon.=34.128143, Alt.=43.375519m. Speed=1.692000m/h.</desc>
<speed>0.470000</speed>
</trkpt>
<trkpt lat="44.430508" lon="34.128147">
<ele>43.172394</ele>
<time>2011-10-13T13:24:01Z</time>
<desc>lat.=44.430508, lon.=34.128147, Alt.=43.172394m. Speed=1.764000m/h.</desc>
<speed>0.490000</speed>
</trkpt>
<trkpt lat="44.430466" lon="34.128113">
<ele>43.890167</ele>
<time>2011-10-13T13:24:06Z</time>
<desc>lat.=44.430466, lon.=34.128113, Alt.=43.890167m. Speed=3.996000m/h.</desc>
<speed>1.110000</speed>
</trkpt>
<trkpt lat="44.430412" lon="34.128021">
<ele>44.781769</ele>
<time>2011-10-13T13:24:11Z</time>
<desc>lat.=44.430412, lon.=34.128021, Alt.=44.781769m. Speed=3.816000m/h.</desc>
<speed>1.060000</speed>
</trkpt>
<trkpt lat="44.430378" lon="34.128036">
<ele>45.586456</ele>
<time>2011-10-13T13:24:16Z</time>
<desc>lat.=44.430378, lon.=34.128036, Alt.=45.586456m. Speed=3.276000m/h.</desc>
<speed>0.910000</speed>
</trkpt>
<trkpt lat="44.430332" lon="34.128094">
<ele>46.050323</ele>
<time>2011-10-13T13:24:21Z</time>
<desc>lat.=44.430332, lon.=34.128094, Alt.=46.050323m. Speed=4.104000m/h.</desc>
<speed>1.140000</speed>
</trkpt>
<trkpt lat="44.430321" lon="34.128120">
<ele>47.313995</ele>
<time>2011-10-13T13:24:26Z</time>
<desc>lat.=44.430321, lon.=34.128120, Alt.=47.313995m. Speed=1.008000m/h.</desc>
<speed>0.280000</speed>
</trkpt>
<trkpt lat="44.430313" lon="34.128147">
<ele>47.480988</ele>
<time>2011-10-13T13:24:31Z</time>
<desc>lat.=44.430313, lon.=34.128147, Alt.=47.480988m. Speed=0.144000m/h.</desc>
<speed>0.040000</speed>
</trkpt>
<trkpt lat="44.430302" lon="34.128170">
<ele>47.561066</ele>
<time>2011-10-13T13:24:36Z</time>
<desc>lat.=44.430302, lon.=34.128170, Alt.=47.561066m. Speed=0.144000m/h.</desc>
<speed>0.040000</speed>
</trkpt>
<trkpt lat="44.430302" lon="34.128170">
<ele>47.688995</ele>
<time>2011-10-13T13:24:41Z</time>
<desc>lat.=44.430302, lon.=34.128170, Alt.=47.688995m. Speed=0.576000m/h.</desc>
<speed>0.160000</speed>
</trkpt>
<trkpt lat="44.430283" lon="34.128147">
<ele>47.448761</ele>
<time>2011-10-13T13:24:46Z</time>
<desc>lat.=44.430283, lon.=34.128147, Alt.=47.448761m. Speed=0.468000m/h.</desc>
<speed>0.130000</speed>
</trkpt>
<trkpt lat="44.430252" lon="34.128117">
<ele>46.862823</ele>
<time>2011-10-13T13:24:51Z</time>
<desc>lat.=44.430252, lon.=34.128117, Alt.=46.862823m. Speed=0.540000m/h.</desc>
<speed>0.150000</speed>
</trkpt>
<trkpt lat="44.430244" lon="34.128109">
<ele>46.736847</ele>
<time>2011-10-13T13:24:56Z</time>
<desc>lat.=44.430244, lon.=34.128109, Alt.=46.736847m. Speed=0.396000m/h.</desc>
<speed>0.110000</speed>
</trkpt>
<trkpt lat="44.430229" lon="34.128101">
<ele>46.241730</ele>
<time>2011-10-13T13:25:01Z</time>
<desc>lat.=44.430229, lon.=34.128101, Alt.=46.241730m. Speed=0.180000m/h.</desc>
<speed>0.050000</speed>
</trkpt>
<trkpt lat="44.430214" lon="34.128128">
<ele>45.672394</ele>
<time>2011-10-13T13:25:06Z</time>
<desc>lat.=44.430214, lon.=34.128128, Alt.=45.672394m. Speed=0.216000m/h.</desc>
<speed>0.060000</speed>
</trkpt>
<trkpt lat="44.430222" lon="34.128132">
<ele>45.626495</ele>
<time>2011-10-13T13:25:11Z</time>
<desc>lat.=44.430222, lon.=34.128132, Alt.=45.626495m. Speed=0.108000m/h.</desc>
<speed>0.030000</speed>
</trkpt>
<trkpt lat="44.430225" lon="34.128120">
<ele>45.744659</ele>
<time>2011-10-13T13:25:16Z</time>
<desc>lat.=44.430225, lon.=34.128120, Alt.=45.744659m. Speed=0.144000m/h.</desc>
<speed>0.040000</speed>
</trkpt>
<trkpt lat="44.430233" lon="34.128101">
<ele>46.569855</ele>
<time>2011-10-13T13:25:21Z</time>
<desc>lat.=44.430233, lon.=34.128101, Alt.=46.569855m. Speed=0.144000m/h.</desc>
<speed>0.040000</speed>
</trkpt>
<trkpt lat="44.430252" lon="34.128090">
<ele>45.407745</ele>
<time>2011-10-13T13:25:26Z</time>
<desc>lat.=44.430252, lon.=34.128090, Alt.=45.407745m. Speed=2.016000m/h.</desc>
<speed>0.560000</speed>
</trkpt>
<trkpt lat="44.430275" lon="34.128105">
<ele>44.861847</ele>
<time>2011-10-13T13:25:31Z</time>
<desc>lat.=44.430275, lon.=34.128105, Alt.=44.861847m. Speed=1.836000m/h.</desc>
<speed>0.510000</speed>
</trkpt>
<trkpt lat="44.430302" lon="34.128086">
<ele>42.368683</ele>
<time>2011-10-13T13:25:36Z</time>
<desc>lat.=44.430302, lon.=34.128086, Alt.=42.368683m. Speed=3.996000m/h.</desc>
<speed>1.110000</speed>
</trkpt>
<trkpt lat="44.430340" lon="34.128075">
<ele>41.318878</ele>
<time>2011-10-13T13:25:41Z</time>
<desc>lat.=44.430340, lon.=34.128075, Alt.=41.318878m. Speed=1.836000m/h.</desc>
<speed>0.510000</speed>
</trkpt>
<trkpt lat="44.430351" lon="34.128059">
<ele>41.555206</ele>
<time>2011-10-13T13:25:46Z</time>
<desc>lat.=44.430351, lon.=34.128059, Alt.=41.555206m. Speed=2.052000m/h.</desc>
<speed>0.570000</speed>
</trkpt>
<trkpt lat="44.430355" lon="34.128010">
<ele>40.882355</ele>
<time>2011-10-13T13:25:51Z</time>
<desc>lat.=44.430355, lon.=34.128010, Alt.=40.882355m. Speed=3.600000m/h.</desc>
<speed>1.000000</speed>
</trkpt>
<trkpt lat="44.430363" lon="34.128006">
<ele>40.728058</ele>
<time>2011-10-13T13:25:56Z</time>
<desc>lat.=44.430363, lon.=34.128006, Alt.=40.728058m. Speed=0.180000m/h.</desc>
<speed>0.050000</speed>
</trkpt>
<trkpt lat="44.430374" lon="34.127991">
<ele>38.988800</ele>
<time>2011-10-13T13:26:01Z</time>
<desc>lat.=44.430374, lon.=34.127991, Alt.=38.988800m. Speed=0.504000m/h.</desc>
<speed>0.140000</speed>
</trkpt>
<trkpt lat="44.430389" lon="34.127987">
<ele>38.492706</ele>
<time>2011-10-13T13:26:06Z</time>
<desc>lat.=44.430389, lon.=34.127987, Alt.=38.492706m. Speed=1.980000m/h.</desc>
<speed>0.550000</speed>
</trkpt>
<trkpt lat="44.430424" lon="34.127983">
<ele>38.272003</ele>
<time>2011-10-13T13:26:11Z</time>
<desc>lat.=44.430424, lon.=34.127983, Alt.=38.272003m. Speed=2.376000m/h.</desc>
<speed>0.660000</speed>
</trkpt>
<trkpt lat="44.430439" lon="34.128010">
<ele>37.849152</ele>
<time>2011-10-13T13:26:16Z</time>
<desc>lat.=44.430439, lon.=34.128010, Alt.=37.849152m. Speed=2.052000m/h.</desc>
<speed>0.570000</speed>
</trkpt>
<trkpt lat="44.430470" lon="34.128052">
<ele>37.270050</ele>
<time>2011-10-13T13:26:21Z</time>
<desc>lat.=44.430470, lon.=34.128052, Alt.=37.270050m. Speed=1.800000m/h.</desc>
<speed>0.500000</speed>
</trkpt>
<trkpt lat="44.430531" lon="34.128117">
<ele>35.489777</ele>
<time>2011-10-13T13:26:26Z</time>
<desc>lat.=44.430531, lon.=34.128117, Alt.=35.489777m. Speed=3.636000m/h.</desc>
<speed>1.010000</speed>
</trkpt>
<trkpt lat="44.430553" lon="34.128044">
<ele>34.688019</ele>
<time>2011-10-13T13:26:31Z</time>
<desc>lat.=44.430553, lon.=34.128044, Alt.=34.688019m. Speed=7.056000m/h.</desc>
<speed>1.960000</speed>
</trkpt>
<trkpt lat="44.430542" lon="34.127941">
<ele>34.455597</ele>
<time>2011-10-13T13:26:36Z</time>
<desc>lat.=44.430542, lon.=34.127941, Alt.=34.455597m. Speed=6.444000m/h.</desc>
<speed>1.790000</speed>
</trkpt>
<trkpt lat="44.430531" lon="34.127842">
<ele>34.480011</ele>
<time>2011-10-13T13:26:41Z</time>
<desc>lat.=44.430531, lon.=34.127842, Alt.=34.480011m. Speed=5.940000m/h.</desc>
<speed>1.650000</speed>
</trkpt>
<trkpt lat="44.430515" lon="34.127750">
<ele>34.600128</ele>
<time>2011-10-13T13:26:46Z</time>
<desc>lat.=44.430515, lon.=34.127750, Alt.=34.600128m. Speed=5.724000m/h.</desc>
<speed>1.590000</speed>
</trkpt>
<trkpt lat="44.430508" lon="34.127659">
<ele>35.329620</ele>
<time>2011-10-13T13:26:51Z</time>
<desc>lat.=44.430508, lon.=34.127659, Alt.=35.329620m. Speed=4.824000m/h.</desc>
<speed>1.340000</speed>
</trkpt>
<trkpt lat="44.430515" lon="34.127609">
<ele>33.662628</ele>
<time>2011-10-13T13:26:56Z</time>
<desc>lat.=44.430515, lon.=34.127609, Alt.=33.662628m. Speed=3.060000m/h.</desc>
<speed>0.850000</speed>
</trkpt>
<trkpt lat="44.430542" lon="34.127617">
<ele>33.781769</ele>
<time>2011-10-13T13:27:01Z</time>
<desc>lat.=44.430542, lon.=34.127617, Alt.=33.781769m. Speed=0.648000m/h.</desc>
<speed>0.180000</speed>
</trkpt>
<trkpt lat="44.430576" lon="34.127636">
<ele>33.570831</ele>
<time>2011-10-13T13:27:06Z</time>
<desc>lat.=44.430576, lon.=34.127636, Alt.=33.570831m. Speed=1.908000m/h.</desc>
<speed>0.530000</speed>
</trkpt>
<trkpt lat="44.430637" lon="34.127628">
<ele>32.579620</ele>
<time>2011-10-13T13:27:11Z</time>
<desc>lat.=44.430637, lon.=34.127628, Alt.=32.579620m. Speed=2.844000m/h.</desc>
<speed>0.790000</speed>
</trkpt>
<trkpt lat="44.430687" lon="34.127571">
<ele>31.461685</ele>
<time>2011-10-13T13:27:16Z</time>
<desc>lat.=44.430687, lon.=34.127571, Alt.=31.461685m. Speed=2.664000m/h.</desc>
<speed>0.740000</speed>
</trkpt>
<trkpt lat="44.430744" lon="34.127602">
<ele>30.092545</ele>
<time>2011-10-13T13:27:21Z</time>
<desc>lat.=44.430744, lon.=34.127602, Alt.=30.092545m. Speed=2.484000m/h.</desc>
<speed>0.690000</speed>
</trkpt>
<trkpt lat="44.430782" lon="34.127636">
<ele>29.352310</ele>
<time>2011-10-13T13:27:26Z</time>
<desc>lat.=44.430782, lon.=34.127636, Alt.=29.352310m. Speed=2.052000m/h.</desc>
<speed>0.570000</speed>
</trkpt>
<trkpt lat="44.430817" lon="34.127663">
<ele>27.761490</ele>
<time>2011-10-13T13:27:31Z</time>
<desc>lat.=44.430817, lon.=34.127663, Alt.=27.761490m. Speed=2.484000m/h.</desc>
<speed>0.690000</speed>
</trkpt>
<trkpt lat="44.430859" lon="34.127693">
<ele>25.990982</ele>
<time>2011-10-13T13:27:36Z</time>
<desc>lat.=44.430859, lon.=34.127693, Alt.=25.990982m. Speed=2.772000m/h.</desc>
<speed>0.770000</speed>
</trkpt>
<trkpt lat="44.430893" lon="34.127720">
<ele>22.159439</ele>
<time>2011-10-13T13:27:41Z</time>
<desc>lat.=44.430893, lon.=34.127720, Alt.=22.159439m. Speed=1.368000m/h.</desc>
<speed>0.380000</speed>
</trkpt>
<trkpt lat="44.430920" lon="34.127735">
<ele>19.396744</ele>
<time>2011-10-13T13:27:46Z</time>
<desc>lat.=44.430920, lon.=34.127735, Alt.=19.396744m. Speed=3.456000m/h.</desc>
<speed>0.960000</speed>
</trkpt>
<trkpt lat="44.430946" lon="34.127747">
<ele>19.536880</ele>
<time>2011-10-13T13:27:51Z</time>
<desc>lat.=44.430946, lon.=34.127747, Alt.=19.536880m. Speed=2.016000m/h.</desc>
<speed>0.560000</speed>
</trkpt>
<trkpt lat="44.430981" lon="34.127781">
<ele>17.142838</ele>
<time>2011-10-13T13:27:56Z</time>
<desc>lat.=44.430981, lon.=34.127781, Alt.=17.142838m. Speed=1.800000m/h.</desc>
<speed>0.500000</speed>
</trkpt>
<trkpt lat="44.431023" lon="34.127804">
<ele>14.912727</ele>
<time>2011-10-13T13:28:01Z</time>
<desc>lat.=44.431023, lon.=34.127804, Alt.=14.912727m. Speed=4.824000m/h.</desc>
<speed>1.340000</speed>
</trkpt>
<trkpt lat="44.431061" lon="34.127808">
<ele>13.466438</ele>
<time>2011-10-13T13:28:06Z</time>
<desc>lat.=44.431061, lon.=34.127808, Alt.=13.466438m. Speed=3.132000m/h.</desc>
<speed>0.870000</speed>
</trkpt>
<trkpt lat="44.431091" lon="34.127785">
<ele>12.202278</ele>
<time>2011-10-13T13:28:11Z</time>
<desc>lat.=44.431091, lon.=34.127785, Alt.=12.202278m. Speed=3.312000m/h.</desc>
<speed>0.920000</speed>
</trkpt>
<trkpt lat="44.431095" lon="34.127766">
<ele>11.496956</ele>
<time>2011-10-13T13:28:16Z</time>
<desc>lat.=44.431095, lon.=34.127766, Alt.=11.496956m. Speed=0.324000m/h.</desc>
<speed>0.090000</speed>
</trkpt>
<trkpt lat="44.431099" lon="34.127773">
<ele>10.495247</ele>
<time>2011-10-13T13:28:21Z</time>
<desc>lat.=44.431099, lon.=34.127773, Alt.=10.495247m. Speed=0.324000m/h.</desc>
<speed>0.090000</speed>
</trkpt>
<trkpt lat="44.431095" lon="34.127777">
<ele>10.548958</ele>
<time>2011-10-13T13:28:26Z</time>
<desc>lat.=44.431095, lon.=34.127777, Alt.=10.548958m. Speed=0.612000m/h.</desc>
<speed>0.170000</speed>
</trkpt>
<trkpt lat="44.431099" lon="34.127777">
<ele>10.753304</ele>
<time>2011-10-13T13:28:31Z</time>
<desc>lat.=44.431099, lon.=34.127777, Alt.=10.753304m. Speed=0.000000m/h.</desc>
<speed>0.000000</speed>
</trkpt>
<trkpt lat="44.431095" lon="34.127781">
<ele>10.734993</ele>
<time>2011-10-13T13:28:36Z</time>
<desc>lat.=44.431095, lon.=34.127781, Alt.=10.734993m. Speed=0.360000m/h.</desc>
<speed>0.100000</speed>
</trkpt>
<trkpt lat="44.431091" lon="34.127777">
<ele>10.123177</ele>
<time>2011-10-13T13:28:41Z</time>
<desc>lat.=44.431091, lon.=34.127777, Alt.=10.123177m. Speed=0.432000m/h.</desc>
<speed>0.120000</speed>
</trkpt>
<trkpt lat="44.431110" lon="34.127785">
<ele>9.891975</ele>
<time>2011-10-13T13:28:46Z</time>
<desc>lat.=44.431110, lon.=34.127785, Alt.=9.891975m. Speed=1.440000m/h.</desc>
<speed>0.400000</speed>
</trkpt>
<trkpt lat="44.431137" lon="34.127766">
<ele>10.133675</ele>
<time>2011-10-13T13:28:51Z</time>
<desc>lat.=44.431137, lon.=34.127766, Alt.=10.133675m. Speed=3.096000m/h.</desc>
<speed>0.860000</speed>
</trkpt>
<trkpt lat="44.431149" lon="34.127758">
<ele>9.959114</ele>
<time>2011-10-13T13:28:56Z</time>
<desc>lat.=44.431149, lon.=34.127758, Alt.=9.959114m. Speed=0.252000m/h.</desc>
<speed>0.070000</speed>
</trkpt>
<trkpt lat="44.431149" lon="34.127762">
<ele>10.207161</ele>
<time>2011-10-13T13:29:01Z</time>
<desc>lat.=44.431149, lon.=34.127762, Alt.=10.207161m. Speed=0.324000m/h.</desc>
<speed>0.090000</speed>
</trkpt>
<trkpt lat="44.431164" lon="34.127750">
<ele>10.506233</ele>
<time>2011-10-13T13:29:06Z</time>
<desc>lat.=44.431164, lon.=34.127750, Alt.=10.506233m. Speed=0.720000m/h.</desc>
<speed>0.200000</speed>
</trkpt>
<trkpt lat="44.431160" lon="34.127766">
<ele>11.097054</ele>
<time>2011-10-13T13:29:11Z</time>
<desc>lat.=44.431160, lon.=34.127766, Alt.=11.097054m. Speed=0.504000m/h.</desc>
<speed>0.140000</speed>
</trkpt>
<trkpt lat="44.431164" lon="34.127769">
<ele>11.098274</ele>
<time>2011-10-13T13:29:16Z</time>
<desc>lat.=44.431164, lon.=34.127769, Alt.=11.098274m. Speed=1.692000m/h.</desc>
<speed>0.470000</speed>
</trkpt>
<trkpt lat="44.431198" lon="34.127743">
<ele>11.141243</ele>
<time>2011-10-13T13:29:21Z</time>
<desc>lat.=44.431198, lon.=34.127743, Alt.=11.141243m. Speed=2.988000m/h.</desc>
<speed>0.830000</speed>
</trkpt>
<trkpt lat="44.431221" lon="34.127701">
<ele>10.429329</ele>
<time>2011-10-13T13:29:26Z</time>
<desc>lat.=44.431221, lon.=34.127701, Alt.=10.429329m. Speed=2.628000m/h.</desc>
<speed>0.730000</speed>
</trkpt>
<trkpt lat="44.431248" lon="34.127659">
<ele>9.636116</ele>
<time>2011-10-13T13:29:31Z</time>
<desc>lat.=44.431248, lon.=34.127659, Alt.=9.636116m. Speed=2.160000m/h.</desc>
<speed>0.600000</speed>
</trkpt>
<trkpt lat="44.431286" lon="34.127666">
<ele>9.456673</ele>
<time>2011-10-13T13:29:36Z</time>
<desc>lat.=44.431286, lon.=34.127666, Alt.=9.456673m. Speed=3.132000m/h.</desc>
<speed>0.870000</speed>
</trkpt>
<trkpt lat="44.431305" lon="34.127659">
<ele>8.933723</ele>
<time>2011-10-13T13:29:41Z</time>
<desc>lat.=44.431305, lon.=34.127659, Alt.=8.933723m. Speed=1.296000m/h.</desc>
<speed>0.360000</speed>
</trkpt>
<trkpt lat="44.431343" lon="34.127632">
<ele>8.393684</ele>
<time>2011-10-13T13:29:46Z</time>
<desc>lat.=44.431343, lon.=34.127632, Alt.=8.393684m. Speed=1.620000m/h.</desc>
<speed>0.450000</speed>
</trkpt>
<trkpt lat="44.431362" lon="34.127594">
<ele>7.814518</ele>
<time>2011-10-13T13:29:51Z</time>
<desc>lat.=44.431362, lon.=34.127594, Alt.=7.814518m. Speed=0.612000m/h.</desc>
<speed>0.170000</speed>
</trkpt>
<trkpt lat="44.431366" lon="34.127586">
<ele>7.728214</ele>
<time>2011-10-13T13:29:56Z</time>
<desc>lat.=44.431366, lon.=34.127586, Alt.=7.728214m. Speed=0.252000m/h.</desc>
<speed>0.070000</speed>
</trkpt>
<trkpt lat="44.431362" lon="34.127579">
<ele>7.695866</ele>
<time>2011-10-13T13:30:01Z</time>
<desc>lat.=44.431362, lon.=34.127579, Alt.=7.695866m. Speed=0.504000m/h.</desc>
<speed>0.140000</speed>
</trkpt>
<trkpt lat="44.431358" lon="34.127571">
<ele>7.681217</ele>
<time>2011-10-13T13:30:06Z</time>
<desc>lat.=44.431358, lon.=34.127571, Alt.=7.681217m. Speed=0.576000m/h.</desc>
<speed>0.160000</speed>
</trkpt>
<trkpt lat="44.431366" lon="34.127567">
<ele>7.636784</ele>
<time>2011-10-13T13:30:11Z</time>
<desc>lat.=44.431366, lon.=34.127567, Alt.=7.636784m. Speed=0.432000m/h.</desc>
<speed>0.120000</speed>
</trkpt>
<trkpt lat="44.431393" lon="34.127552">
<ele>7.421696</ele>
<time>2011-10-13T13:30:16Z</time>
<desc>lat.=44.431393, lon.=34.127552, Alt.=7.421696m. Speed=3.060000m/h.</desc>
<speed>0.850000</speed>
</trkpt>
<trkpt lat="44.431438" lon="34.127510">
<ele>6.261784</ele>
<time>2011-10-13T13:30:21Z</time>
<desc>lat.=44.431438, lon.=34.127510, Alt.=6.261784m. Speed=4.428000m/h.</desc>
<speed>1.230000</speed>
</trkpt>
<trkpt lat="44.431484" lon="34.127468">
<ele>5.801334</ele>
<time>2011-10-13T13:30:26Z</time>
<desc>lat.=44.431484, lon.=34.127468, Alt.=5.801334m. Speed=4.860000m/h.</desc>
<speed>1.350000</speed>
</trkpt>
<trkpt lat="44.431530" lon="34.127430">
<ele>5.702702</ele>
<time>2011-10-13T13:30:31Z</time>
<desc>lat.=44.431530, lon.=34.127430, Alt.=5.702702m. Speed=4.680000m/h.</desc>
<speed>1.300000</speed>
</trkpt>
<trkpt lat="44.431580" lon="34.127396">
<ele>6.553288</ele>
<time>2011-10-13T13:30:36Z</time>
<desc>lat.=44.431580, lon.=34.127396, Alt.=6.553288m. Speed=4.428000m/h.</desc>
<speed>1.230000</speed>
</trkpt>
<trkpt lat="44.431633" lon="34.127369">
<ele>7.383366</ele>
<time>2011-10-13T13:30:41Z</time>
<desc>lat.=44.431633, lon.=34.127369, Alt.=7.383366m. Speed=4.716000m/h.</desc>
<speed>1.310000</speed>
</trkpt>
<trkpt lat="44.431698" lon="34.127335">
<ele>7.867008</ele>
<time>2011-10-13T13:30:46Z</time>
<desc>lat.=44.431698, lon.=34.127335, Alt.=7.867008m. Speed=5.220000m/h.</desc>
<speed>1.450000</speed>
</trkpt>
<trkpt lat="44.431755" lon="34.127293">
<ele>8.192513</ele>
<time>2011-10-13T13:30:51Z</time>
<desc>lat.=44.431755, lon.=34.127293, Alt.=8.192513m. Speed=4.824000m/h.</desc>
<speed>1.340000</speed>
</trkpt>
<trkpt lat="44.431808" lon="34.127254">
<ele>8.466927</ele>
<time>2011-10-13T13:30:56Z</time>
<desc>lat.=44.431808, lon.=34.127254, Alt.=8.466927m. Speed=4.752000m/h.</desc>
<speed>1.320000</speed>
</trkpt>
<trkpt lat="44.431866" lon="34.127209">
<ele>8.784798</ele>
<time>2011-10-13T13:31:01Z</time>
<desc>lat.=44.431866, lon.=34.127209, Alt.=8.784798m. Speed=4.788000m/h.</desc>
<speed>1.330000</speed>
</trkpt>
<trkpt lat="44.431911" lon="34.127182">
<ele>10.817024</ele>
<time>2011-10-13T13:31:06Z</time>
<desc>lat.=44.431911, lon.=34.127182, Alt.=10.817024m. Speed=4.500000m/h.</desc>
<speed>1.250000</speed>
</trkpt>
<trkpt lat="44.431934" lon="34.127159">
<ele>11.887093</ele>
<time>2011-10-13T13:31:11Z</time>
<desc>lat.=44.431934, lon.=34.127159, Alt.=11.887093m. Speed=1.512000m/h.</desc>
<speed>0.420000</speed>
</trkpt>
<trkpt lat="44.431953" lon="34.127148">
<ele>12.696663</ele>
<time>2011-10-13T13:31:16Z</time>
<desc>lat.=44.431953, lon.=34.127148, Alt.=12.696663m. Speed=1.656000m/h.</desc>
<speed>0.460000</speed>
</trkpt>
<trkpt lat="44.431969" lon="34.127144">
<ele>13.037483</ele>
<time>2011-10-13T13:31:21Z</time>
<desc>lat.=44.431969, lon.=34.127144, Alt.=13.037483m. Speed=0.324000m/h.</desc>
<speed>0.090000</speed>
</trkpt>
<trkpt lat="44.431973" lon="34.127144">
<ele>13.342171</ele>
<time>2011-10-13T13:31:26Z</time>
<desc>lat.=44.431973, lon.=34.127144, Alt.=13.342171m. Speed=0.216000m/h.</desc>
<speed>0.060000</speed>
</trkpt>
<trkpt lat="44.431973" lon="34.127098">
<ele>15.094368</ele>
<time>2011-10-13T13:31:31Z</time>
<desc>lat.=44.431973, lon.=34.127098, Alt.=15.094368m. Speed=3.672000m/h.</desc>
<speed>1.020000</speed>
</trkpt>
<trkpt lat="44.431976" lon="34.127083">
<ele>17.516373</ele>
<time>2011-10-13T13:31:36Z</time>
<desc>lat.=44.431976, lon.=34.127083, Alt.=17.516373m. Speed=1.620000m/h.</desc>
<speed>0.450000</speed>
</trkpt>
<trkpt lat="44.431992" lon="34.127079">
<ele>18.861099</ele>
<time>2011-10-13T13:31:41Z</time>
<desc>lat.=44.431992, lon.=34.127079, Alt.=18.861099m. Speed=1.296000m/h.</desc>
<speed>0.360000</speed>
</trkpt>
<trkpt lat="44.432007" lon="34.127087">
<ele>19.896255</ele>
<time>2011-10-13T13:31:46Z</time>
<desc>lat.=44.432007, lon.=34.127087, Alt.=19.896255m. Speed=1.548000m/h.</desc>
<speed>0.430000</speed>
</trkpt>
<trkpt lat="44.432041" lon="34.127113">
<ele>21.433365</ele>
<time>2011-10-13T13:31:51Z</time>
<desc>lat.=44.432041, lon.=34.127113, Alt.=21.433365m. Speed=2.808000m/h.</desc>
<speed>0.780000</speed>
</trkpt>
<trkpt lat="44.432064" lon="34.127121">
<ele>22.316666</ele>
<time>2011-10-13T13:31:56Z</time>
<desc>lat.=44.432064, lon.=34.127121, Alt.=22.316666m. Speed=0.324000m/h.</desc>
<speed>0.090000</speed>
</trkpt>
<trkpt lat="44.432083" lon="34.127144">
<ele>23.475845</ele>
<time>2011-10-13T13:32:01Z</time>
<desc>lat.=44.432083, lon.=34.127144, Alt.=23.475845m. Speed=2.232000m/h.</desc>
<speed>0.620000</speed>
</trkpt>
<trkpt lat="44.432117" lon="34.127171">
<ele>24.458755</ele>
<time>2011-10-13T13:32:06Z</time>
<desc>lat.=44.432117, lon.=34.127171, Alt.=24.458755m. Speed=2.664000m/h.</desc>
<speed>0.740000</speed>
</trkpt>
<trkpt lat="44.432140" lon="34.127182">
<ele>25.617935</ele>
<time>2011-10-13T13:32:11Z</time>
<desc>lat.=44.432140, lon.=34.127182, Alt.=25.617935m. Speed=2.232000m/h.</desc>
<speed>0.620000</speed>
</trkpt>
<trkpt lat="44.432175" lon="34.127190">
<ele>25.800064</ele>
<time>2011-10-13T13:32:16Z</time>
<desc>lat.=44.432175, lon.=34.127190, Alt.=25.800064m. Speed=1.728000m/h.</desc>
<speed>0.480000</speed>
</trkpt>
<trkpt lat="44.432198" lon="34.127171">
<ele>25.429947</ele>
<time>2011-10-13T13:32:21Z</time>
<desc>lat.=44.432198, lon.=34.127171, Alt.=25.429947m. Speed=2.952000m/h.</desc>
<speed>0.820000</speed>
</trkpt>
<trkpt lat="44.432224" lon="34.127151">
<ele>25.892838</ele>
<time>2011-10-13T13:32:26Z</time>
<desc>lat.=44.432224, lon.=34.127151, Alt.=25.892838m. Speed=1.692000m/h.</desc>
<speed>0.470000</speed>
</trkpt>
<trkpt lat="44.432247" lon="34.127132">
<ele>26.644302</ele>
<time>2011-10-13T13:32:31Z</time>
<desc>lat.=44.432247, lon.=34.127132, Alt.=26.644302m. Speed=2.412000m/h.</desc>
<speed>0.670000</speed>
</trkpt>
<trkpt lat="44.432281" lon="34.127110">
<ele>27.126236</ele>
<time>2011-10-13T13:32:36Z</time>
<desc>lat.=44.432281, lon.=34.127110, Alt.=27.126236m. Speed=3.276000m/h.</desc>
<speed>0.910000</speed>
</trkpt>
<trkpt lat="44.432327" lon="34.127068">
<ele>27.017349</ele>
<time>2011-10-13T13:32:41Z</time>
<desc>lat.=44.432327, lon.=34.127068, Alt.=27.017349m. Speed=4.680000m/h.</desc>
<speed>1.300000</speed>
</trkpt>
<trkpt lat="44.432362" lon="34.127026">
<ele>27.184341</ele>
<time>2011-10-13T13:32:46Z</time>
<desc>lat.=44.432362, lon.=34.127026, Alt.=27.184341m. Speed=3.744000m/h.</desc>
<speed>1.040000</speed>
</trkpt>
<trkpt lat="44.432396" lon="34.127018">
<ele>28.077408</ele>
<time>2011-10-13T13:32:51Z</time>
<desc>lat.=44.432396, lon.=34.127018, Alt.=28.077408m. Speed=1.908000m/h.</desc>
<speed>0.530000</speed>
</trkpt>
<trkpt lat="44.432438" lon="34.127026">
<ele>29.988052</ele>
<time>2011-10-13T13:32:56Z</time>
<desc>lat.=44.432438, lon.=34.127026, Alt.=29.988052m. Speed=3.924000m/h.</desc>
<speed>1.090000</speed>
</trkpt>
<trkpt lat="44.432491" lon="34.127022">
<ele>30.832779</ele>
<time>2011-10-13T13:33:01Z</time>
<desc>lat.=44.432491, lon.=34.127022, Alt.=30.832779m. Speed=6.336000m/h.</desc>
<speed>1.760000</speed>
</trkpt>
<trkpt lat="44.432518" lon="34.126999">
<ele>32.415558</ele>
<time>2011-10-13T13:33:06Z</time>
<desc>lat.=44.432518, lon.=34.126999, Alt.=32.415558m. Speed=2.448000m/h.</desc>
<speed>0.680000</speed>
</trkpt>
<trkpt lat="44.432541" lon="34.126980">
<ele>34.681183</ele>
<time>2011-10-13T13:33:11Z</time>
<desc>lat.=44.432541, lon.=34.126980, Alt.=34.681183m. Speed=2.088000m/h.</desc>
<speed>0.580000</speed>
</trkpt>
<trkpt lat="44.432575" lon="34.126949">
<ele>36.441925</ele>
<time>2011-10-13T13:33:16Z</time>
<desc>lat.=44.432575, lon.=34.126949, Alt.=36.441925m. Speed=1.692000m/h.</desc>
<speed>0.470000</speed>
</trkpt>
<trkpt lat="44.432598" lon="34.126919">
<ele>37.957550</ele>
<time>2011-10-13T13:33:21Z</time>
<desc>lat.=44.432598, lon.=34.126919, Alt.=37.957550m. Speed=2.232000m/h.</desc>
<speed>0.620000</speed>
</trkpt>
<trkpt lat="44.432617" lon="34.126884">
<ele>39.820831</ele>
<time>2011-10-13T13:33:26Z</time>
<desc>lat.=44.432617, lon.=34.126884, Alt.=39.820831m. Speed=1.044000m/h.</desc>
<speed>0.290000</speed>
</trkpt>
<trkpt lat="44.432644" lon="34.126869">
<ele>41.119659</ele>
<time>2011-10-13T13:33:31Z</time>
<desc>lat.=44.432644, lon.=34.126869, Alt.=41.119659m. Speed=1.980000m/h.</desc>
<speed>0.550000</speed>
</trkpt>
<trkpt lat="44.432663" lon="34.126804">
<ele>41.234894</ele>
<time>2011-10-13T13:33:36Z</time>
<desc>lat.=44.432663, lon.=34.126804, Alt.=41.234894m. Speed=4.392000m/h.</desc>
<speed>1.220000</speed>
</trkpt>
<trkpt lat="44.432682" lon="34.126743">
<ele>42.671417</ele>
<time>2011-10-13T13:33:41Z</time>
<desc>lat.=44.432682, lon.=34.126743, Alt.=42.671417m. Speed=3.312000m/h.</desc>
<speed>0.920000</speed>
</trkpt>
<trkpt lat="44.432705" lon="34.126671">
<ele>43.929230</ele>
<time>2011-10-13T13:33:46Z</time>
<desc>lat.=44.432705, lon.=34.126671, Alt.=43.929230m. Speed=3.672000m/h.</desc>
<speed>1.020000</speed>
</trkpt>
<trkpt lat="44.432720" lon="34.126598">
<ele>44.100128</ele>
<time>2011-10-13T13:33:51Z</time>
<desc>lat.=44.432720, lon.=34.126598, Alt.=44.100128m. Speed=4.320000m/h.</desc>
<speed>1.200000</speed>
</trkpt>
<trkpt lat="44.432724" lon="34.126530">
<ele>44.481964</ele>
<time>2011-10-13T13:33:56Z</time>
<desc>lat.=44.432724, lon.=34.126530, Alt.=44.481964m. Speed=3.348000m/h.</desc>
<speed>0.930000</speed>
</trkpt>
<trkpt lat="44.432739" lon="34.126476">
<ele>45.805206</ele>
<time>2011-10-13T13:34:01Z</time>
<desc>lat.=44.432739, lon.=34.126476, Alt.=45.805206m. Speed=3.276000m/h.</desc>
<speed>0.910000</speed>
</trkpt>
<trkpt lat="44.432762" lon="34.126427">
<ele>47.032745</ele>
<time>2011-10-13T13:34:06Z</time>
<desc>lat.=44.432762, lon.=34.126427, Alt.=47.032745m. Speed=2.736000m/h.</desc>
<speed>0.760000</speed>
</trkpt>
<trkpt lat="44.432796" lon="34.126373">
<ele>47.120636</ele>
<time>2011-10-13T13:34:11Z</time>
<desc>lat.=44.432796, lon.=34.126373, Alt.=47.120636m. Speed=4.068000m/h.</desc>
<speed>1.130000</speed>
</trkpt>
<trkpt lat="44.432831" lon="34.126312">
<ele>47.353058</ele>
<time>2011-10-13T13:34:16Z</time>
<desc>lat.=44.432831, lon.=34.126312, Alt.=47.353058m. Speed=2.484000m/h.</desc>
<speed>0.690000</speed>
</trkpt>
<trkpt lat="44.432873" lon="34.126266">
<ele>47.714386</ele>
<time>2011-10-13T13:34:21Z</time>
<desc>lat.=44.432873, lon.=34.126266, Alt.=47.714386m. Speed=3.564000m/h.</desc>
<speed>0.990000</speed>
</trkpt>
<trkpt lat="44.432919" lon="34.126244">
<ele>48.772980</ele>
<time>2011-10-13T13:34:26Z</time>
<desc>lat.=44.432919, lon.=34.126244, Alt.=48.772980m. Speed=3.672000m/h.</desc>
<speed>1.020000</speed>
</trkpt>
<trkpt lat="44.432957" lon="34.126205">
<ele>50.696808</ele>
<time>2011-10-13T13:34:31Z</time>
<desc>lat.=44.432957, lon.=34.126205, Alt.=50.696808m. Speed=2.808000m/h.</desc>
<speed>0.780000</speed>
</trkpt>
<trkpt lat="44.432987" lon="34.126198">
<ele>52.266144</ele>
<time>2011-10-13T13:34:36Z</time>
<desc>lat.=44.432987, lon.=34.126198, Alt.=52.266144m. Speed=2.700000m/h.</desc>
<speed>0.750000</speed>
</trkpt>
<trkpt lat="44.433025" lon="34.126183">
<ele>54.219269</ele>
<time>2011-10-13T13:34:41Z</time>
<desc>lat.=44.433025, lon.=34.126183, Alt.=54.219269m. Speed=2.772000m/h.</desc>
<speed>0.770000</speed>
</trkpt>
<trkpt lat="44.433064" lon="34.126137">
<ele>56.360870</ele>
<time>2011-10-13T13:34:46Z</time>
<desc>lat.=44.433064, lon.=34.126137, Alt.=56.360870m. Speed=1.728000m/h.</desc>
<speed>0.480000</speed>
</trkpt>
<trkpt lat="44.433125" lon="34.126095">
<ele>58.584503</ele>
<time>2011-10-13T13:34:51Z</time>
<desc>lat.=44.433125, lon.=34.126095, Alt.=58.584503m. Speed=1.620000m/h.</desc>
<speed>0.450000</speed>
</trkpt>
<trkpt lat="44.433174" lon="34.126076">
<ele>56.859894</ele>
<time>2011-10-13T13:34:56Z</time>
<desc>lat.=44.433174, lon.=34.126076, Alt.=56.859894m. Speed=0.504000m/h.</desc>
<speed>0.140000</speed>
</trkpt>
<trkpt lat="44.433182" lon="34.126007">
<ele>57.685089</ele>
<time>2011-10-13T13:35:01Z</time>
<desc>lat.=44.433182, lon.=34.126007, Alt.=57.685089m. Speed=2.916000m/h.</desc>
<speed>0.810000</speed>
</trkpt>
<trkpt lat="44.433208" lon="34.125942">
<ele>57.471222</ele>
<time>2011-10-13T13:35:06Z</time>
<desc>lat.=44.433208, lon.=34.125942, Alt.=57.471222m. Speed=2.952000m/h.</desc>
<speed>0.820000</speed>
</trkpt>
<trkpt lat="44.433216" lon="34.125881">
<ele>57.744659</ele>
<time>2011-10-13T13:35:11Z</time>
<desc>lat.=44.433216, lon.=34.125881, Alt.=57.744659m. Speed=3.996000m/h.</desc>
<speed>1.110000</speed>
</trkpt>
<trkpt lat="44.433247" lon="34.125816">
<ele>58.778839</ele>
<time>2011-10-13T13:35:16Z</time>
<desc>lat.=44.433247, lon.=34.125816, Alt.=58.778839m. Speed=3.132000m/h.</desc>
<speed>0.870000</speed>
</trkpt>
<trkpt lat="44.433258" lon="34.125763">
<ele>60.635284</ele>
<time>2011-10-13T13:35:21Z</time>
<desc>lat.=44.433258, lon.=34.125763, Alt.=60.635284m. Speed=3.168000m/h.</desc>
<speed>0.880000</speed>
</trkpt>
<trkpt lat="44.433292" lon="34.125748">
<ele>62.335480</ele>
<time>2011-10-13T13:35:26Z</time>
<desc>lat.=44.433292, lon.=34.125748, Alt.=62.335480m. Speed=2.772000m/h.</desc>
<speed>0.770000</speed>
</trkpt>
<trkpt lat="44.433338" lon="34.125706">
<ele>64.430725</ele>
<time>2011-10-13T13:35:31Z</time>
<desc>lat.=44.433338, lon.=34.125706, Alt.=64.430725m. Speed=2.700000m/h.</desc>
<speed>0.750000</speed>
</trkpt>
<trkpt lat="44.433369" lon="34.125679">
<ele>64.288147</ele>
<time>2011-10-13T13:35:36Z</time>
<desc>lat.=44.433369, lon.=34.125679, Alt.=64.288147m. Speed=1.440000m/h.</desc>
<speed>0.400000</speed>
</trkpt>
<trkpt lat="44.433380" lon="34.125687">
<ele>64.641663</ele>
<time>2011-10-13T13:35:41Z</time>
<desc>lat.=44.433380, lon.=34.125687, Alt.=64.641663m. Speed=1.296000m/h.</desc>
<speed>0.360000</speed>
</trkpt>
<trkpt lat="44.433399" lon="34.125687">
<ele>64.903381</ele>
<time>2011-10-13T13:35:46Z</time>
<desc>lat.=44.433399, lon.=34.125687, Alt.=64.903381m. Speed=1.152000m/h.</desc>
<speed>0.320000</speed>
</trkpt>
<trkpt lat="44.433403" lon="34.125706">
<ele>63.893097</ele>
<time>2011-10-13T13:35:51Z</time>
<desc>lat.=44.433403, lon.=34.125706, Alt.=63.893097m. Speed=0.036000m/h.</desc>
<speed>0.010000</speed>
</trkpt>
<trkpt lat="44.433422" lon="34.125713">
<ele>63.043488</ele>
<time>2011-10-13T13:35:56Z</time>
<desc>lat.=44.433422, lon.=34.125713, Alt.=63.043488m. Speed=2.736000m/h.</desc>
<speed>0.760000</speed>
</trkpt>
<trkpt lat="44.433456" lon="34.125740">
<ele>63.172394</ele>
<time>2011-10-13T13:36:01Z</time>
<desc>lat.=44.433456, lon.=34.125740, Alt.=63.172394m. Speed=3.852000m/h.</desc>
<speed>1.070000</speed>
</trkpt>
<trkpt lat="44.433502" lon="34.125751">
<ele>65.501038</ele>
<time>2011-10-13T13:36:06Z</time>
<desc>lat.=44.433502, lon.=34.125751, Alt.=65.501038m. Speed=2.916000m/h.</desc>
<speed>0.810000</speed>
</trkpt>
<trkpt lat="44.433506" lon="34.125809">
<ele>69.172913</ele>
<time>2011-10-13T13:36:11Z</time>
<desc>lat.=44.433506, lon.=34.125809, Alt.=69.172913m. Speed=2.088000m/h.</desc>
<speed>0.580000</speed>
</trkpt>
<trkpt lat="44.433517" lon="34.125862">
<ele>70.879944</ele>
<time>2011-10-13T13:36:16Z</time>
<desc>lat.=44.433517, lon.=34.125862, Alt.=70.879944m. Speed=3.096000m/h.</desc>
<speed>0.860000</speed>
</trkpt>
<trkpt lat="44.433498" lon="34.125961">
<ele>73.297913</ele>
<time>2011-10-13T13:36:21Z</time>
<desc>lat.=44.433498, lon.=34.125961, Alt.=73.297913m. Speed=5.220000m/h.</desc>
<speed>1.450000</speed>
</trkpt>
<trkpt lat="44.433517" lon="34.126019">
<ele>75.559631</ele>
<time>2011-10-13T13:36:26Z</time>
<desc>lat.=44.433517, lon.=34.126019, Alt.=75.559631m. Speed=3.420000m/h.</desc>
<speed>0.950000</speed>
</trkpt>
<trkpt lat="44.433559" lon="34.126083">
<ele>77.385803</ele>
<time>2011-10-13T13:36:31Z</time>
<desc>lat.=44.433559, lon.=34.126083, Alt.=77.385803m. Speed=3.132000m/h.</desc>
<speed>0.870000</speed>
</trkpt>
<trkpt lat="44.433643" lon="34.126083">
<ele>77.139709</ele>
<time>2011-10-13T13:36:36Z</time>
<desc>lat.=44.433643, lon.=34.126083, Alt.=77.139709m. Speed=1.800000m/h.</desc>
<speed>0.500000</speed>
</trkpt>
<trkpt lat="44.433708" lon="34.126072">
<ele>74.227600</ele>
<time>2011-10-13T13:36:41Z</time>
<desc>lat.=44.433708, lon.=34.126072, Alt.=74.227600m. Speed=3.240000m/h.</desc>
<speed>0.900000</speed>
</trkpt>
<trkpt lat="44.433723" lon="34.126041">
<ele>75.342834</ele>
<time>2011-10-13T13:36:46Z</time>
<desc>lat.=44.433723, lon.=34.126041, Alt.=75.342834m. Speed=2.520000m/h.</desc>
<speed>0.700000</speed>
</trkpt>
<trkpt lat="44.433731" lon="34.126026">
<ele>76.680725</ele>
<time>2011-10-13T13:36:51Z</time>
<desc>lat.=44.433731, lon.=34.126026, Alt.=76.680725m. Speed=1.440000m/h.</desc>
<speed>0.400000</speed>
</trkpt>
<trkpt lat="44.433765" lon="34.126011">
<ele>76.008850</ele>
<time>2011-10-13T13:36:56Z</time>
<desc>lat.=44.433765, lon.=34.126011, Alt.=76.008850m. Speed=3.384000m/h.</desc>
<speed>0.940000</speed>
</trkpt>
<trkpt lat="44.433800" lon="34.126041">
<ele>76.676819</ele>
<time>2011-10-13T13:37:01Z</time>
<desc>lat.=44.433800, lon.=34.126041, Alt.=76.676819m. Speed=4.536000m/h.</desc>
<speed>1.260000</speed>
</trkpt>
<trkpt lat="44.433830" lon="34.126102">
<ele>76.256897</ele>
<time>2011-10-13T13:37:06Z</time>
<desc>lat.=44.433830, lon.=34.126102, Alt.=76.256897m. Speed=5.076000m/h.</desc>
<speed>1.410000</speed>
</trkpt>
<trkpt lat="44.433857" lon="34.126152">
<ele>78.049866</ele>
<time>2011-10-13T13:37:11Z</time>
<desc>lat.=44.433857, lon.=34.126152, Alt.=78.049866m. Speed=2.808000m/h.</desc>
<speed>0.780000</speed>
</trkpt>
<trkpt lat="44.433891" lon="34.126171">
<ele>79.700256</ele>
<time>2011-10-13T13:37:16Z</time>
<desc>lat.=44.433891, lon.=34.126171, Alt.=79.700256m. Speed=2.088000m/h.</desc>
<speed>0.580000</speed>
</trkpt>
<trkpt lat="44.433907" lon="34.126228">
<ele>80.036194</ele>
<time>2011-10-13T13:37:21Z</time>
<desc>lat.=44.433907, lon.=34.126228, Alt.=80.036194m. Speed=0.360000m/h.</desc>
<speed>0.100000</speed>
</trkpt>
<trkpt lat="44.433918" lon="34.126266">
<ele>79.340881</ele>
<time>2011-10-13T13:37:26Z</time>
<desc>lat.=44.433918, lon.=34.126266, Alt.=79.340881m. Speed=0.864000m/h.</desc>
<speed>0.240000</speed>
</trkpt>
<trkpt lat="44.433922" lon="34.126297">
<ele>79.192444</ele>
<time>2011-10-13T13:37:31Z</time>
<desc>lat.=44.433922, lon.=34.126297, Alt.=79.192444m. Speed=0.216000m/h.</desc>
<speed>0.060000</speed>
</trkpt>
<trkpt lat="44.433922" lon="34.126297">
<ele>79.274475</ele>
<time>2011-10-13T13:37:36Z</time>
<desc>lat.=44.433922, lon.=34.126297, Alt.=79.274475m. Speed=0.432000m/h.</desc>
<speed>0.120000</speed>
</trkpt>
<trkpt lat="44.433918" lon="34.126297">
<ele>79.456116</ele>
<time>2011-10-13T13:37:41Z</time>
<desc>lat.=44.433918, lon.=34.126297, Alt.=79.456116m. Speed=0.036000m/h.</desc>
<speed>0.010000</speed>
</trkpt>
<trkpt lat="44.433918" lon="34.126301">
<ele>79.501038</ele>
<time>2011-10-13T13:37:46Z</time>
<desc>lat.=44.433918, lon.=34.126301, Alt.=79.501038m. Speed=0.216000m/h.</desc>
<speed>0.060000</speed>
</trkpt>
<trkpt lat="44.433914" lon="34.126301">
<ele>79.360413</ele>
<time>2011-10-13T13:37:51Z</time>
<desc>lat.=44.433914, lon.=34.126301, Alt.=79.360413m. Speed=0.144000m/h.</desc>
<speed>0.040000</speed>
</trkpt>
<trkpt lat="44.433918" lon="34.126301">
<ele>79.368225</ele>
<time>2011-10-13T13:37:56Z</time>
<desc>lat.=44.433918, lon.=34.126301, Alt.=79.368225m. Speed=0.036000m/h.</desc>
<speed>0.010000</speed>
</trkpt>
<trkpt lat="44.433918" lon="34.126301">
<ele>79.354553</ele>
<time>2011-10-13T13:38:01Z</time>
<desc>lat.=44.433918, lon.=34.126301, Alt.=79.354553m. Speed=0.000000m/h.</desc>
<speed>0.000000</speed>
</trkpt>
<trkpt lat="44.433918" lon="34.126301">
<ele>79.348694</ele>
<time>2011-10-13T13:38:06Z</time>
<desc>lat.=44.433918, lon.=34.126301, Alt.=79.348694m. Speed=0.288000m/h.</desc>
<speed>0.080000</speed>
</trkpt>
<trkpt lat="44.433918" lon="34.126301">
<ele>79.356506</ele>
<time>2011-10-13T13:38:11Z</time>
<desc>lat.=44.433918, lon.=34.126301, Alt.=79.356506m. Speed=0.036000m/h.</desc>
<speed>0.010000</speed>
</trkpt>
<trkpt lat="44.433918" lon="34.126305">
<ele>79.374084</ele>
<time>2011-10-13T13:38:16Z</time>
<desc>lat.=44.433918, lon.=34.126305, Alt.=79.374084m. Speed=0.072000m/h.</desc>
<speed>0.020000</speed>
</trkpt>
<trkpt lat="44.433918" lon="34.126312">
<ele>78.786194</ele>
<time>2011-10-13T13:38:21Z</time>
<desc>lat.=44.433918, lon.=34.126312, Alt.=78.786194m. Speed=0.252000m/h.</desc>
<speed>0.070000</speed>
</trkpt>
<trkpt lat="44.433918" lon="34.126312">
<ele>78.544006</ele>
<time>2011-10-13T13:38:26Z</time>
<desc>lat.=44.433918, lon.=34.126312, Alt.=78.544006m. Speed=0.828000m/h.</desc>
<speed>0.230000</speed>
</trkpt>
<trkpt lat="44.433918" lon="34.126308">
<ele>77.629944</ele>
<time>2011-10-13T13:38:31Z</time>
<desc>lat.=44.433918, lon.=34.126308, Alt.=77.629944m. Speed=0.828000m/h.</desc>
<speed>0.230000</speed>
</trkpt>
<trkpt lat="44.433922" lon="34.126305">
<ele>77.014709</ele>
<time>2011-10-13T13:38:36Z</time>
<desc>lat.=44.433922, lon.=34.126305, Alt.=77.014709m. Speed=0.036000m/h.</desc>
<speed>0.010000</speed>
</trkpt>
<trkpt lat="44.433922" lon="34.126305">
<ele>76.969788</ele>
<time>2011-10-13T13:38:41Z</time>
<desc>lat.=44.433922, lon.=34.126305, Alt.=76.969788m. Speed=0.000000m/h.</desc>
<speed>0.000000</speed>
</trkpt>
<trkpt lat="44.433922" lon="34.126305">
<ele>76.971741</ele>
<time>2011-10-13T13:38:46Z</time>
<desc>lat.=44.433922, lon.=34.126305, Alt.=76.971741m. Speed=0.000000m/h.</desc>
<speed>0.000000</speed>
</trkpt>
<trkpt lat="44.433922" lon="34.126305">
<ele>76.979553</ele>
<time>2011-10-13T13:38:51Z</time>
<desc>lat.=44.433922, lon.=34.126305, Alt.=76.979553m. Speed=0.000000m/h.</desc>
<speed>0.000000</speed>
</trkpt>
<trkpt lat="44.433922" lon="34.126305">
<ele>76.993225</ele>
<time>2011-10-13T13:38:56Z</time>
<desc>lat.=44.433922, lon.=34.126305, Alt.=76.993225m. Speed=0.036000m/h.</desc>
<speed>0.010000</speed>
</trkpt>
<trkpt lat="44.433922" lon="34.126305">
<ele>77.001038</ele>
<time>2011-10-13T13:39:01Z</time>
<desc>lat.=44.433922, lon.=34.126305, Alt.=77.001038m. Speed=0.000000m/h.</desc>
<speed>0.000000</speed>
</trkpt>
<trkpt lat="44.433922" lon="34.126305">
<ele>77.004944</ele>
<time>2011-10-13T13:39:06Z</time>
<desc>lat.=44.433922, lon.=34.126305, Alt.=77.004944m. Speed=0.000000m/h.</desc>
<speed>0.000000</speed>
</trkpt>
<trkpt lat="44.433922" lon="34.126305">
<ele>77.010803</ele>
<time>2011-10-13T13:39:11Z</time>
<desc>lat.=44.433922, lon.=34.126305, Alt.=77.010803m. Speed=0.000000m/h.</desc>
<speed>0.000000</speed>
</trkpt>
<trkpt lat="44.433922" lon="34.126305">
<ele>77.006897</ele>
<time>2011-10-13T13:39:16Z</time>
<desc>lat.=44.433922, lon.=34.126305, Alt.=77.006897m. Speed=0.000000m/h.</desc>
<speed>0.000000</speed>
</trkpt>
<trkpt lat="44.433922" lon="34.126305">
<ele>77.008850</ele>
<time>2011-10-13T13:39:21Z</time>
<desc>lat.=44.433922, lon.=34.126305, Alt.=77.008850m. Speed=0.036000m/h.</desc>
<speed>0.010000</speed>
</trkpt>
<trkpt lat="44.433922" lon="34.126305">
<ele>77.008850</ele>
<time>2011-10-13T13:39:26Z</time>
<desc>lat.=44.433922, lon.=34.126305, Alt.=77.008850m. Speed=0.036000m/h.</desc>
<speed>0.010000</speed>
</trkpt>
<trkpt lat="44.433922" lon="34.126305">
<ele>77.010803</ele>
<time>2011-10-13T13:39:31Z</time>
<desc>lat.=44.433922, lon.=34.126305, Alt.=77.010803m. Speed=0.000000m/h.</desc>
<speed>0.000000</speed>
</trkpt>
<trkpt lat="44.433922" lon="34.126305">
<ele>77.014709</ele>
<time>2011-10-13T13:39:36Z</time>
<desc>lat.=44.433922, lon.=34.126305, Alt.=77.014709m. Speed=0.000000m/h.</desc>
<speed>0.000000</speed>
</trkpt>
<trkpt lat="44.433926" lon="34.126305">
<ele>77.024475</ele>
<time>2011-10-13T13:39:41Z</time>
<desc>lat.=44.433926, lon.=34.126305, Alt.=77.024475m. Speed=0.000000m/h.</desc>
<speed>0.000000</speed>
</trkpt>
<trkpt lat="44.433922" lon="34.126305">
<ele>77.032288</ele>
<time>2011-10-13T13:39:46Z</time>
<desc>lat.=44.433922, lon.=34.126305, Alt.=77.032288m. Speed=0.000000m/h.</desc>
<speed>0.000000</speed>
</trkpt>
<trkpt lat="44.433922" lon="34.126305">
<ele>77.038147</ele>
<time>2011-10-13T13:39:51Z</time>
<desc>lat.=44.433922, lon.=34.126305, Alt.=77.038147m. Speed=0.036000m/h.</desc>
<speed>0.010000</speed>
</trkpt>
<trkpt lat="44.433922" lon="34.126305">
<ele>77.044006</ele>
<time>2011-10-13T13:39:56Z</time>
<desc>lat.=44.433922, lon.=34.126305, Alt.=77.044006m. Speed=0.000000m/h.</desc>
<speed>0.000000</speed>
</trkpt>
<trkpt lat="44.433922" lon="34.126305">
<ele>77.049866</ele>
<time>2011-10-13T13:40:01Z</time>
<desc>lat.=44.433922, lon.=34.126305, Alt.=77.049866m. Speed=0.000000m/h.</desc>
<speed>0.000000</speed>
</trkpt>
<trkpt lat="44.433926" lon="34.126305">
<ele>77.057678</ele>
<time>2011-10-13T13:40:06Z</time>
<desc>lat.=44.433926, lon.=34.126305, Alt.=77.057678m. Speed=0.000000m/h.</desc>
<speed>0.000000</speed>
</trkpt>
<trkpt lat="44.433922" lon="34.126305">
<ele>77.061584</ele>
<time>2011-10-13T13:40:11Z</time>
<desc>lat.=44.433922, lon.=34.126305, Alt.=77.061584m. Speed=0.000000m/h.</desc>
<speed>0.000000</speed>
</trkpt>
<trkpt lat="44.433926" lon="34.126301">
<ele>76.893616</ele>
<time>2011-10-13T13:40:16Z</time>
<desc>lat.=44.433926, lon.=34.126301, Alt.=76.893616m. Speed=0.036000m/h.</desc>
<speed>0.010000</speed>
</trkpt>
<trkpt lat="44.433922" lon="34.126301">
<ele>76.932678</ele>
<time>2011-10-13T13:40:21Z</time>
<desc>lat.=44.433922, lon.=34.126301, Alt.=76.932678m. Speed=0.720000m/h.</desc>
<speed>0.200000</speed>
</trkpt>
<trkpt lat="44.433922" lon="34.126301">
<ele>76.911194</ele>
<time>2011-10-13T13:40:26Z</time>
<desc>lat.=44.433922, lon.=34.126301, Alt.=76.911194m. Speed=0.144000m/h.</desc>
<speed>0.040000</speed>
</trkpt>
<trkpt lat="44.433922" lon="34.126305">
<ele>76.915100</ele>
<time>2011-10-13T13:40:31Z</time>
<desc>lat.=44.433922, lon.=34.126305, Alt.=76.915100m. Speed=0.468000m/h.</desc>
<speed>0.130000</speed>
</trkpt>
<trkpt lat="44.433914" lon="34.126297">
<ele>77.104553</ele>
<time>2011-10-13T13:40:36Z</time>
<desc>lat.=44.433914, lon.=34.126297, Alt.=77.104553m. Speed=1.656000m/h.</desc>
<speed>0.460000</speed>
</trkpt>
<trkpt lat="44.433903" lon="34.126293">
<ele>77.254944</ele>
<time>2011-10-13T13:40:41Z</time>
<desc>lat.=44.433903, lon.=34.126293, Alt.=77.254944m. Speed=0.108000m/h.</desc>
<speed>0.030000</speed>
</trkpt>
<trkpt lat="44.433907" lon="34.126289">
<ele>77.272522</ele>
<time>2011-10-13T13:40:46Z</time>
<desc>lat.=44.433907, lon.=34.126289, Alt.=77.272522m. Speed=0.072000m/h.</desc>
<speed>0.020000</speed>
</trkpt>
<trkpt lat="44.433907" lon="34.126282">
<ele>77.383850</ele>
<time>2011-10-13T13:40:51Z</time>
<desc>lat.=44.433907, lon.=34.126282, Alt.=77.383850m. Speed=0.000000m/h.</desc>
<speed>0.000000</speed>
</trkpt>
<trkpt lat="44.433907" lon="34.126286">
<ele>77.411194</ele>
<time>2011-10-13T13:40:56Z</time>
<desc>lat.=44.433907, lon.=34.126286, Alt.=77.411194m. Speed=0.144000m/h.</desc>
<speed>0.040000</speed>
</trkpt>
<trkpt lat="44.433907" lon="34.126286">
<ele>77.411194</ele>
<time>2011-10-13T13:41:01Z</time>
<desc>lat.=44.433907, lon.=34.126286, Alt.=77.411194m. Speed=0.144000m/h.</desc>
<speed>0.040000</speed>
</trkpt>
<trkpt lat="44.433907" lon="34.126286">
<ele>77.460022</ele>
<time>2011-10-13T13:41:06Z</time>
<desc>lat.=44.433907, lon.=34.126286, Alt.=77.460022m. Speed=0.072000m/h.</desc>
<speed>0.020000</speed>
</trkpt>
<trkpt lat="44.433903" lon="34.126270">
<ele>77.514709</ele>
<time>2011-10-13T13:41:11Z</time>
<desc>lat.=44.433903, lon.=34.126270, Alt.=77.514709m. Speed=0.180000m/h.</desc>
<speed>0.050000</speed>
</trkpt>
<trkpt lat="44.433899" lon="34.126263">
<ele>77.692444</ele>
<time>2011-10-13T13:41:16Z</time>
<desc>lat.=44.433899, lon.=34.126263, Alt.=77.692444m. Speed=0.000000m/h.</desc>
<speed>0.000000</speed>
</trkpt>
<trkpt lat="44.433899" lon="34.126263">
<ele>77.696350</ele>
<time>2011-10-13T13:41:21Z</time>
<desc>lat.=44.433899, lon.=34.126263, Alt.=77.696350m. Speed=0.828000m/h.</desc>
<speed>0.230000</speed>
</trkpt>
<trkpt lat="44.433899" lon="34.126266">
<ele>77.717834</ele>
<time>2011-10-13T13:41:26Z</time>
<desc>lat.=44.433899, lon.=34.126266, Alt.=77.717834m. Speed=0.108000m/h.</desc>
<speed>0.030000</speed>
</trkpt>
<trkpt lat="44.433899" lon="34.126266">
<ele>77.725647</ele>
<time>2011-10-13T13:41:31Z</time>
<desc>lat.=44.433899, lon.=34.126266, Alt.=77.725647m. Speed=0.000000m/h.</desc>
<speed>0.000000</speed>
</trkpt>
<trkpt lat="44.433899" lon="34.126266">
<ele>77.727600</ele>
<time>2011-10-13T13:41:36Z</time>
<desc>lat.=44.433899, lon.=34.126266, Alt.=77.727600m. Speed=0.036000m/h.</desc>
<speed>0.010000</speed>
</trkpt>
<trkpt lat="44.433899" lon="34.126266">
<ele>77.729553</ele>
<time>2011-10-13T13:41:41Z</time>
<desc>lat.=44.433899, lon.=34.126266, Alt.=77.729553m. Speed=0.000000m/h.</desc>
<speed>0.000000</speed>
</trkpt>
<trkpt lat="44.433899" lon="34.126266">
<ele>77.729553</ele>
<time>2011-10-13T13:41:46Z</time>
<desc>lat.=44.433899, lon.=34.126266, Alt.=77.729553m. Speed=0.036000m/h.</desc>
<speed>0.010000</speed>
</trkpt>
<trkpt lat="44.433899" lon="34.126266">
<ele>77.717834</ele>
<time>2011-10-13T13:41:51Z</time>
<desc>lat.=44.433899, lon.=34.126266, Alt.=77.717834m. Speed=0.036000m/h.</desc>
<speed>0.010000</speed>
</trkpt>
<trkpt lat="44.433899" lon="34.126266">
<ele>77.700256</ele>
<time>2011-10-13T13:41:56Z</time>
<desc>lat.=44.433899, lon.=34.126266, Alt.=77.700256m. Speed=0.036000m/h.</desc>
<speed>0.010000</speed>
</trkpt>
<trkpt lat="44.433899" lon="34.126266">
<ele>77.688538</ele>
<time>2011-10-13T13:42:01Z</time>
<desc>lat.=44.433899, lon.=34.126266, Alt.=77.688538m. Speed=0.000000m/h.</desc>
<speed>0.000000</speed>
</trkpt>
<trkpt lat="44.433899" lon="34.126266">
<ele>77.678772</ele>
<time>2011-10-13T13:42:06Z</time>
<desc>lat.=44.433899, lon.=34.126266, Alt.=77.678772m. Speed=0.036000m/h.</desc>
<speed>0.010000</speed>
</trkpt>
<trkpt lat="44.433899" lon="34.126266">
<ele>77.672913</ele>
<time>2011-10-13T13:42:11Z</time>
<desc>lat.=44.433899, lon.=34.126266, Alt.=77.672913m. Speed=0.000000m/h.</desc>
<speed>0.000000</speed>
</trkpt>
<trkpt lat="44.433899" lon="34.126266">
<ele>77.667053</ele>
<time>2011-10-13T13:42:16Z</time>
<desc>lat.=44.433899, lon.=34.126266, Alt.=77.667053m. Speed=0.072000m/h.</desc>
<speed>0.020000</speed>
</trkpt>
<trkpt lat="44.433899" lon="34.126266">
<ele>77.665100</ele>
<time>2011-10-13T13:42:21Z</time>
<desc>lat.=44.433899, lon.=34.126266, Alt.=77.665100m. Speed=0.000000m/h.</desc>
<speed>0.000000</speed>
</trkpt>
<trkpt lat="44.433899" lon="34.126263">
<ele>77.561584</ele>
<time>2011-10-13T13:42:26Z</time>
<desc>lat.=44.433899, lon.=34.126263, Alt.=77.561584m. Speed=0.396000m/h.</desc>
<speed>0.110000</speed>
</trkpt>
<trkpt lat="44.433918" lon="34.126266">
<ele>78.206116</ele>
<time>2011-10-13T13:42:31Z</time>
<desc>lat.=44.433918, lon.=34.126266, Alt.=78.206116m. Speed=2.088000m/h.</desc>
<speed>0.580000</speed>
</trkpt>
<trkpt lat="44.433937" lon="34.126293">
<ele>78.600647</ele>
<time>2011-10-13T13:42:36Z</time>
<desc>lat.=44.433937, lon.=34.126293, Alt.=78.600647m. Speed=1.548000m/h.</desc>
<speed>0.430000</speed>
</trkpt>
<trkpt lat="44.433956" lon="34.126289">
<ele>78.938538</ele>
<time>2011-10-13T13:42:41Z</time>
<desc>lat.=44.433956, lon.=34.126289, Alt.=78.938538m. Speed=0.720000m/h.</desc>
<speed>0.200000</speed>
</trkpt>
<trkpt lat="44.433964" lon="34.126293">
<ele>79.262756</ele>
<time>2011-10-13T13:42:46Z</time>
<desc>lat.=44.433964, lon.=34.126293, Alt.=79.262756m. Speed=0.540000m/h.</desc>
<speed>0.150000</speed>
</trkpt>
<trkpt lat="44.433968" lon="34.126293">
<ele>79.493225</ele>
<time>2011-10-13T13:42:51Z</time>
<desc>lat.=44.433968, lon.=34.126293, Alt.=79.493225m. Speed=0.468000m/h.</desc>
<speed>0.130000</speed>
</trkpt>
<trkpt lat="44.433968" lon="34.126293">
<ele>79.604553</ele>
<time>2011-10-13T13:42:56Z</time>
<desc>lat.=44.433968, lon.=34.126293, Alt.=79.604553m. Speed=0.072000m/h.</desc>
<speed>0.020000</speed>
</trkpt>
<trkpt lat="44.433968" lon="34.126293">
<ele>79.657288</ele>
<time>2011-10-13T13:43:01Z</time>
<desc>lat.=44.433968, lon.=34.126293, Alt.=79.657288m. Speed=0.000000m/h.</desc>
<speed>0.000000</speed>
</trkpt>
<trkpt lat="44.433968" lon="34.126293">
<ele>79.659241</ele>
<time>2011-10-13T13:43:06Z</time>
<desc>lat.=44.433968, lon.=34.126293, Alt.=79.659241m. Speed=0.072000m/h.</desc>
<speed>0.020000</speed>
</trkpt>
<trkpt lat="44.433968" lon="34.126293">
<ele>79.663147</ele>
<time>2011-10-13T13:43:11Z</time>
<desc>lat.=44.433968, lon.=34.126293, Alt.=79.663147m. Speed=0.036000m/h.</desc>
<speed>0.010000</speed>
</trkpt>
<trkpt lat="44.433968" lon="34.126293">
<ele>79.667053</ele>
<time>2011-10-13T13:43:16Z</time>
<desc>lat.=44.433968, lon.=34.126293, Alt.=79.667053m. Speed=0.000000m/h.</desc>
<speed>0.000000</speed>
</trkpt>
<trkpt lat="44.433968" lon="34.126293">
<ele>79.669006</ele>
<time>2011-10-13T13:43:21Z</time>
<desc>lat.=44.433968, lon.=34.126293, Alt.=79.669006m. Speed=0.036000m/h.</desc>
<speed>0.010000</speed>
</trkpt>
<trkpt lat="44.433968" lon="34.126293">
<ele>79.684631</ele>
<time>2011-10-13T13:43:26Z</time>
<desc>lat.=44.433968, lon.=34.126293, Alt.=79.684631m. Speed=0.000000m/h.</desc>
<speed>0.000000</speed>
</trkpt>
<trkpt lat="44.433968" lon="34.126293">
<ele>79.686584</ele>
<time>2011-10-13T13:43:31Z</time>
<desc>lat.=44.433968, lon.=34.126293, Alt.=79.686584m. Speed=0.036000m/h.</desc>
<speed>0.010000</speed>
</trkpt>
<trkpt lat="44.433968" lon="34.126293">
<ele>79.688538</ele>
<time>2011-10-13T13:43:36Z</time>
<desc>lat.=44.433968, lon.=34.126293, Alt.=79.688538m. Speed=0.036000m/h.</desc>
<speed>0.010000</speed>
</trkpt>
<trkpt lat="44.433968" lon="34.126293">
<ele>79.690491</ele>
<time>2011-10-13T13:43:41Z</time>
<desc>lat.=44.433968, lon.=34.126293, Alt.=79.690491m. Speed=0.144000m/h.</desc>
<speed>0.040000</speed>
</trkpt>
<trkpt lat="44.433952" lon="34.126293">
<ele>80.766663</ele>
<time>2011-10-13T13:43:46Z</time>
<desc>lat.=44.433952, lon.=34.126293, Alt.=80.766663m. Speed=1.008000m/h.</desc>
<speed>0.280000</speed>
</trkpt>
<trkpt lat="44.433956" lon="34.126293">
<ele>81.223694</ele>
<time>2011-10-13T13:43:51Z</time>
<desc>lat.=44.433956, lon.=34.126293, Alt.=81.223694m. Speed=0.072000m/h.</desc>
<speed>0.020000</speed>
</trkpt>
<trkpt lat="44.433956" lon="34.126293">
<ele>81.579163</ele>
<time>2011-10-13T13:43:56Z</time>
<desc>lat.=44.433956, lon.=34.126293, Alt.=81.579163m. Speed=0.072000m/h.</desc>
<speed>0.020000</speed>
</trkpt>
<trkpt lat="44.433956" lon="34.126293">
<ele>81.768616</ele>
<time>2011-10-13T13:44:01Z</time>
<desc>lat.=44.433956, lon.=34.126293, Alt.=81.768616m. Speed=0.576000m/h.</desc>
<speed>0.160000</speed>
</trkpt>
<trkpt lat="44.433945" lon="34.126286">
<ele>82.395569</ele>
<time>2011-10-13T13:44:06Z</time>
<desc>lat.=44.433945, lon.=34.126286, Alt.=82.395569m. Speed=0.036000m/h.</desc>
<speed>0.010000</speed>
</trkpt>
<trkpt lat="44.433945" lon="34.126286">
<ele>82.419006</ele>
<time>2011-10-13T13:44:11Z</time>
<desc>lat.=44.433945, lon.=34.126286, Alt.=82.419006m. Speed=0.000000m/h.</desc>
<speed>0.000000</speed>
</trkpt>
<trkpt lat="44.433945" lon="34.126286">
<ele>82.428772</ele>
<time>2011-10-13T13:44:16Z</time>
<desc>lat.=44.433945, lon.=34.126286, Alt.=82.428772m. Speed=0.072000m/h.</desc>
<speed>0.020000</speed>
</trkpt>
<trkpt lat="44.433945" lon="34.126282">
<ele>82.280334</ele>
<time>2011-10-13T13:44:21Z</time>
<desc>lat.=44.433945, lon.=34.126282, Alt.=82.280334m. Speed=0.036000m/h.</desc>
<speed>0.010000</speed>
</trkpt>
<trkpt lat="44.433945" lon="34.126282">
<ele>82.278381</ele>
<time>2011-10-13T13:44:26Z</time>
<desc>lat.=44.433945, lon.=34.126282, Alt.=82.278381m. Speed=0.000000m/h.</desc>
<speed>0.000000</speed>
</trkpt>
<trkpt lat="44.433945" lon="34.126282">
<ele>82.231506</ele>
<time>2011-10-13T13:44:31Z</time>
<desc>lat.=44.433945, lon.=34.126282, Alt.=82.231506m. Speed=0.072000m/h.</desc>
<speed>0.020000</speed>
</trkpt>
<trkpt lat="44.433945" lon="34.126282">
<ele>82.233459</ele>
<time>2011-10-13T13:44:36Z</time>
<desc>lat.=44.433945, lon.=34.126282, Alt.=82.233459m. Speed=0.108000m/h.</desc>
<speed>0.030000</speed>
</trkpt>
<trkpt lat="44.433945" lon="34.126282">
<ele>82.233459</ele>
<time>2011-10-13T13:44:41Z</time>
<desc>lat.=44.433945, lon.=34.126282, Alt.=82.233459m. Speed=0.000000m/h.</desc>
<speed>0.000000</speed>
</trkpt>
<trkpt lat="44.433945" lon="34.126282">
<ele>82.239319</ele>
<time>2011-10-13T13:44:46Z</time>
<desc>lat.=44.433945, lon.=34.126282, Alt.=82.239319m. Speed=0.036000m/h.</desc>
<speed>0.010000</speed>
</trkpt>
<trkpt lat="44.433945" lon="34.126282">
<ele>82.237366</ele>
<time>2011-10-13T13:44:51Z</time>
<desc>lat.=44.433945, lon.=34.126282, Alt.=82.237366m. Speed=0.576000m/h.</desc>
<speed>0.160000</speed>
</trkpt>
<trkpt lat="44.433945" lon="34.126278">
<ele>82.241272</ele>
<time>2011-10-13T13:44:56Z</time>
<desc>lat.=44.433945, lon.=34.126278, Alt.=82.241272m. Speed=0.000000m/h.</desc>
<speed>0.000000</speed>
</trkpt>
<trkpt lat="44.433945" lon="34.126278">
<ele>82.251038</ele>
<time>2011-10-13T13:45:01Z</time>
<desc>lat.=44.433945, lon.=34.126278, Alt.=82.251038m. Speed=0.000000m/h.</desc>
<speed>0.000000</speed>
</trkpt>
<trkpt lat="44.433945" lon="34.126278">
<ele>82.256897</ele>
<time>2011-10-13T13:45:06Z</time>
<desc>lat.=44.433945, lon.=34.126278, Alt.=82.256897m. Speed=0.036000m/h.</desc>
<speed>0.010000</speed>
</trkpt>
<trkpt lat="44.433945" lon="34.126278">
<ele>82.270569</ele>
<time>2011-10-13T13:45:11Z</time>
<desc>lat.=44.433945, lon.=34.126278, Alt.=82.270569m. Speed=0.000000m/h.</desc>
<speed>0.000000</speed>
</trkpt>
<trkpt lat="44.433945" lon="34.126278">
<ele>82.282288</ele>
<time>2011-10-13T13:45:16Z</time>
<desc>lat.=44.433945, lon.=34.126278, Alt.=82.282288m. Speed=0.036000m/h.</desc>
<speed>0.010000</speed>
</trkpt>
<trkpt lat="44.433945" lon="34.126278">
<ele>82.290100</ele>
<time>2011-10-13T13:45:21Z</time>
<desc>lat.=44.433945, lon.=34.126278, Alt.=82.290100m. Speed=0.072000m/h.</desc>
<speed>0.020000</speed>
</trkpt>
<trkpt lat="44.433945" lon="34.126278">
<ele>82.280334</ele>
<time>2011-10-13T13:45:26Z</time>
<desc>lat.=44.433945, lon.=34.126278, Alt.=82.280334m. Speed=0.072000m/h.</desc>
<speed>0.020000</speed>
</trkpt>
<trkpt lat="44.433945" lon="34.126278">
<ele>82.272522</ele>
<time>2011-10-13T13:45:31Z</time>
<desc>lat.=44.433945, lon.=34.126278, Alt.=82.272522m. Speed=0.000000m/h.</desc>
<speed>0.000000</speed>
</trkpt>
<trkpt lat="44.433945" lon="34.126278">
<ele>82.266663</ele>
<time>2011-10-13T13:45:36Z</time>
<desc>lat.=44.433945, lon.=34.126278, Alt.=82.266663m. Speed=0.000000m/h.</desc>
<speed>0.000000</speed>
</trkpt>
<trkpt lat="44.433945" lon="34.126278">
<ele>82.256897</ele>
<time>2011-10-13T13:45:41Z</time>
<desc>lat.=44.433945, lon.=34.126278, Alt.=82.256897m. Speed=0.036000m/h.</desc>
<speed>0.010000</speed>
</trkpt>
<trkpt lat="44.433945" lon="34.126278">
<ele>82.256897</ele>
<time>2011-10-13T13:45:46Z</time>
<desc>lat.=44.433945, lon.=34.126278, Alt.=82.256897m. Speed=0.000000m/h.</desc>
<speed>0.000000</speed>
</trkpt>
<trkpt lat="44.433945" lon="34.126278">
<ele>82.254944</ele>
<time>2011-10-13T13:45:51Z</time>
<desc>lat.=44.433945, lon.=34.126278, Alt.=82.254944m. Speed=0.000000m/h.</desc>
<speed>0.000000</speed>
</trkpt>
<trkpt lat="44.433941" lon="34.126278">
<ele>82.245178</ele>
<time>2011-10-13T13:45:56Z</time>
<desc>lat.=44.433941, lon.=34.126278, Alt.=82.245178m. Speed=0.000000m/h.</desc>
<speed>0.000000</speed>
</trkpt>
<trkpt lat="44.433941" lon="34.126278">
<ele>82.243225</ele>
<time>2011-10-13T13:46:01Z</time>
<desc>lat.=44.433941, lon.=34.126278, Alt.=82.243225m. Speed=0.036000m/h.</desc>
<speed>0.010000</speed>
</trkpt>
<trkpt lat="44.433941" lon="34.126278">
<ele>82.245178</ele>
<time>2011-10-13T13:46:06Z</time>
<desc>lat.=44.433941, lon.=34.126278, Alt.=82.245178m. Speed=0.036000m/h.</desc>
<speed>0.010000</speed>
</trkpt>
<trkpt lat="44.433941" lon="34.126278">
<ele>82.264709</ele>
<time>2011-10-13T13:46:11Z</time>
<desc>lat.=44.433941, lon.=34.126278, Alt.=82.264709m. Speed=0.000000m/h.</desc>
<speed>0.000000</speed>
</trkpt>
<trkpt lat="44.433941" lon="34.126274">
<ele>82.294006</ele>
<time>2011-10-13T13:46:16Z</time>
<desc>lat.=44.433941, lon.=34.126274, Alt.=82.294006m. Speed=0.108000m/h.</desc>
<speed>0.030000</speed>
</trkpt>
<trkpt lat="44.433941" lon="34.126274">
<ele>82.366272</ele>
<time>2011-10-13T13:46:21Z</time>
<desc>lat.=44.433941, lon.=34.126274, Alt.=82.366272m. Speed=0.036000m/h.</desc>
<speed>0.010000</speed>
</trkpt>
<trkpt lat="44.433941" lon="34.126274">
<ele>82.508850</ele>
<time>2011-10-13T13:46:26Z</time>
<desc>lat.=44.433941, lon.=34.126274, Alt.=82.508850m. Speed=0.036000m/h.</desc>
<speed>0.010000</speed>
</trkpt>
<trkpt lat="44.433945" lon="34.126270">
<ele>82.743225</ele>
<time>2011-10-13T13:46:31Z</time>
<desc>lat.=44.433945, lon.=34.126270, Alt.=82.743225m. Speed=0.108000m/h.</desc>
<speed>0.030000</speed>
</trkpt>
<trkpt lat="44.433941" lon="34.126274">
<ele>82.952209</ele>
<time>2011-10-13T13:46:36Z</time>
<desc>lat.=44.433941, lon.=34.126274, Alt.=82.952209m. Speed=0.036000m/h.</desc>
<speed>0.010000</speed>
</trkpt>
<trkpt lat="44.433941" lon="34.126270">
<ele>83.069397</ele>
<time>2011-10-13T13:46:41Z</time>
<desc>lat.=44.433941, lon.=34.126270, Alt.=83.069397m. Speed=0.108000m/h.</desc>
<speed>0.030000</speed>
</trkpt>
<trkpt lat="44.433941" lon="34.126270">
<ele>83.110413</ele>
<time>2011-10-13T13:46:46Z</time>
<desc>lat.=44.433941, lon.=34.126270, Alt.=83.110413m. Speed=0.072000m/h.</desc>
<speed>0.020000</speed>
</trkpt>
<trkpt lat="44.433941" lon="34.126270">
<ele>83.215881</ele>
<time>2011-10-13T13:46:51Z</time>
<desc>lat.=44.433941, lon.=34.126270, Alt.=83.215881m. Speed=0.756000m/h.</desc>
<speed>0.210000</speed>
</trkpt>
<trkpt lat="44.433945" lon="34.126270">
<ele>83.081116</ele>
<time>2011-10-13T13:46:56Z</time>
<desc>lat.=44.433945, lon.=34.126270, Alt.=83.081116m. Speed=0.000000m/h.</desc>
<speed>0.000000</speed>
</trkpt>
<trkpt lat="44.433945" lon="34.126270">
<ele>83.106506</ele>
<time>2011-10-13T13:47:01Z</time>
<desc>lat.=44.433945, lon.=34.126270, Alt.=83.106506m. Speed=0.180000m/h.</desc>
<speed>0.050000</speed>
</trkpt>
<trkpt lat="44.433941" lon="34.126286">
<ele>82.575256</ele>
<time>2011-10-13T13:47:06Z</time>
<desc>lat.=44.433941, lon.=34.126286, Alt.=82.575256m. Speed=0.972000m/h.</desc>
<speed>0.270000</speed>
</trkpt>
<trkpt lat="44.433933" lon="34.126286">
<ele>82.659241</ele>
<time>2011-10-13T13:47:11Z</time>
<desc>lat.=44.433933, lon.=34.126286, Alt.=82.659241m. Speed=0.216000m/h.</desc>
<speed>0.060000</speed>
</trkpt>
<trkpt lat="44.433926" lon="34.126289">
<ele>82.778381</ele>
<time>2011-10-13T13:47:16Z</time>
<desc>lat.=44.433926, lon.=34.126289, Alt.=82.778381m. Speed=1.368000m/h.</desc>
<speed>0.380000</speed>
</trkpt>
<trkpt lat="44.433918" lon="34.126274">
<ele>83.946350</ele>
<time>2011-10-13T13:47:21Z</time>
<desc>lat.=44.433918, lon.=34.126274, Alt.=83.946350m. Speed=0.144000m/h.</desc>
<speed>0.040000</speed>
</trkpt>
<trkpt lat="44.433918" lon="34.126274">
<ele>84.237366</ele>
<time>2011-10-13T13:47:26Z</time>
<desc>lat.=44.433918, lon.=34.126274, Alt.=84.237366m. Speed=0.036000m/h.</desc>
<speed>0.010000</speed>
</trkpt>
<trkpt lat="44.433918" lon="34.126274">
<ele>84.200256</ele>
<time>2011-10-13T13:47:31Z</time>
<desc>lat.=44.433918, lon.=34.126274, Alt.=84.200256m. Speed=0.252000m/h.</desc>
<speed>0.070000</speed>
</trkpt>
<trkpt lat="44.433918" lon="34.126274">
<ele>84.186584</ele>
<time>2011-10-13T13:47:36Z</time>
<desc>lat.=44.433918, lon.=34.126274, Alt.=84.186584m. Speed=0.216000m/h.</desc>
<speed>0.060000</speed>
</trkpt>
<trkpt lat="44.433918" lon="34.126274">
<ele>84.190491</ele>
<time>2011-10-13T13:47:41Z</time>
<desc>lat.=44.433918, lon.=34.126274, Alt.=84.190491m. Speed=0.252000m/h.</desc>
<speed>0.070000</speed>
</trkpt>
<trkpt lat="44.433918" lon="34.126274">
<ele>84.192444</ele>
<time>2011-10-13T13:47:46Z</time>
<desc>lat.=44.433918, lon.=34.126274, Alt.=84.192444m. Speed=0.036000m/h.</desc>
<speed>0.010000</speed>
</trkpt>
<trkpt lat="44.433918" lon="34.126274">
<ele>84.194397</ele>
<time>2011-10-13T13:47:51Z</time>
<desc>lat.=44.433918, lon.=34.126274, Alt.=84.194397m. Speed=0.036000m/h.</desc>
<speed>0.010000</speed>
</trkpt>
<trkpt lat="44.433918" lon="34.126278">
<ele>84.206116</ele>
<time>2011-10-13T13:47:56Z</time>
<desc>lat.=44.433918, lon.=34.126278, Alt.=84.206116m. Speed=0.000000m/h.</desc>
<speed>0.000000</speed>
</trkpt>
<trkpt lat="44.433918" lon="34.126278">
<ele>84.196350</ele>
<time>2011-10-13T13:48:01Z</time>
<desc>lat.=44.433918, lon.=34.126278, Alt.=84.196350m. Speed=0.612000m/h.</desc>
<speed>0.170000</speed>
</trkpt>
<trkpt lat="44.433922" lon="34.126274">
<ele>84.075256</ele>
<time>2011-10-13T13:48:06Z</time>
<desc>lat.=44.433922, lon.=34.126274, Alt.=84.075256m. Speed=1.008000m/h.</desc>
<speed>0.280000</speed>
</trkpt>
<trkpt lat="44.433918" lon="34.126213">
<ele>81.801819</ele>
<time>2011-10-13T13:48:11Z</time>
<desc>lat.=44.433918, lon.=34.126213, Alt.=81.801819m. Speed=8.964000m/h.</desc>
<speed>2.490000</speed>
</trkpt>
<trkpt lat="44.433853" lon="34.126034">
<ele>78.204163</ele>
<time>2011-10-13T13:48:16Z</time>
<desc>lat.=44.433853, lon.=34.126034, Alt.=78.204163m. Speed=13.716000m/h.</desc>
<speed>3.810000</speed>
</trkpt>
<trkpt lat="44.433765" lon="34.125793">
<ele>75.038147</ele>
<time>2011-10-13T13:48:21Z</time>
<desc>lat.=44.433765, lon.=34.125793, Alt.=75.038147m. Speed=16.667999m/h.</desc>
<speed>4.630000</speed>
</trkpt>
<trkpt lat="44.433659" lon="34.125504">
<ele>72.356506</ele>
<time>2011-10-13T13:48:26Z</time>
<desc>lat.=44.433659, lon.=34.125504, Alt.=72.356506m. Speed=20.016001m/h.</desc>
<speed>5.560000</speed>
</trkpt>
<trkpt lat="44.433586" lon="34.125179">
<ele>70.991272</ele>
<time>2011-10-13T13:48:31Z</time>
<desc>lat.=44.433586, lon.=34.125179, Alt.=70.991272m. Speed=18.972000m/h.</desc>
<speed>5.270000</speed>
</trkpt>
<trkpt lat="44.433563" lon="34.124859">
<ele>70.020569</ele>
<time>2011-10-13T13:48:36Z</time>
<desc>lat.=44.433563, lon.=34.124859, Alt.=70.020569m. Speed=16.452000m/h.</desc>
<speed>4.570000</speed>
</trkpt>
<trkpt lat="44.433571" lon="34.124611">
<ele>70.096741</ele>
<time>2011-10-13T13:48:41Z</time>
<desc>lat.=44.433571, lon.=34.124611, Alt.=70.096741m. Speed=14.544000m/h.</desc>
<speed>4.040000</speed>
</trkpt>
<trkpt lat="44.433529" lon="34.124390">
<ele>69.348694</ele>
<time>2011-10-13T13:48:46Z</time>
<desc>lat.=44.433529, lon.=34.124390, Alt.=69.348694m. Speed=12.528000m/h.</desc>
<speed>3.480000</speed>
</trkpt>
<trkpt lat="44.433460" lon="34.124222">
<ele>69.004944</ele>
<time>2011-10-13T13:48:51Z</time>
<desc>lat.=44.433460, lon.=34.124222, Alt.=69.004944m. Speed=10.332000m/h.</desc>
<speed>2.870000</speed>
</trkpt>
<trkpt lat="44.433380" lon="34.124088">
<ele>68.446350</ele>
<time>2011-10-13T13:48:56Z</time>
<desc>lat.=44.433380, lon.=34.124088, Alt.=68.446350m. Speed=10.512000m/h.</desc>
<speed>2.920000</speed>
</trkpt>
<trkpt lat="44.433266" lon="34.123989">
<ele>67.200256</ele>
<time>2011-10-13T13:49:01Z</time>
<desc>lat.=44.433266, lon.=34.123989, Alt.=67.200256m. Speed=12.204000m/h.</desc>
<speed>3.390000</speed>
</trkpt>
<trkpt lat="44.433056" lon="34.123920">
<ele>64.930725</ele>
<time>2011-10-13T13:49:06Z</time>
<desc>lat.=44.433056, lon.=34.123920, Alt.=64.930725m. Speed=22.427999m/h.</desc>
<speed>6.230000</speed>
</trkpt>
<trkpt lat="44.432739" lon="34.123802">
<ele>62.431183</ele>
<time>2011-10-13T13:49:11Z</time>
<desc>lat.=44.432739, lon.=34.123802, Alt.=62.431183m. Speed=27.756001m/h.</desc>
<speed>7.710000</speed>
</trkpt>
<trkpt lat="44.432438" lon="34.123516">
<ele>59.901886</ele>
<time>2011-10-13T13:49:16Z</time>
<desc>lat.=44.432438, lon.=34.123516, Alt.=59.901886m. Speed=29.879999m/h.</desc>
<speed>8.300000</speed>
</trkpt>
<trkpt lat="44.432102" lon="34.123268">
<ele>57.625519</ele>
<time>2011-10-13T13:49:21Z</time>
<desc>lat.=44.432102, lon.=34.123268, Alt.=57.625519m. Speed=31.247999m/h.</desc>
<speed>8.680000</speed>
</trkpt>
<trkpt lat="44.431725" lon="34.123154">
<ele>56.030792</ele>
<time>2011-10-13T13:49:26Z</time>
<desc>lat.=44.431725, lon.=34.123154, Alt.=56.030792m. Speed=31.427999m/h.</desc>
<speed>8.730000</speed>
</trkpt>
<trkpt lat="44.431419" lon="34.122795">
<ele>54.603058</ele>
<time>2011-10-13T13:49:31Z</time>
<desc>lat.=44.431419, lon.=34.122795, Alt.=54.603058m. Speed=31.572001m/h.</desc>
<speed>8.770000</speed>
</trkpt>
<trkpt lat="44.431091" lon="34.122498">
<ele>53.313019</ele>
<time>2011-10-13T13:49:36Z</time>
<desc>lat.=44.431091, lon.=34.122498, Alt.=53.313019m. Speed=30.996000m/h.</desc>
<speed>8.610000</speed>
</trkpt>
<trkpt lat="44.430828" lon="34.122089">
<ele>51.485870</ele>
<time>2011-10-13T13:49:41Z</time>
<desc>lat.=44.430828, lon.=34.122089, Alt.=51.485870m. Speed=31.572001m/h.</desc>
<speed>8.770000</speed>
</trkpt>
<trkpt lat="44.430725" lon="34.121552">
<ele>49.464386</ele>
<time>2011-10-13T13:49:46Z</time>
<desc>lat.=44.430725, lon.=34.121552, Alt.=49.464386m. Speed=31.931999m/h.</desc>
<speed>8.870000</speed>
</trkpt>
<trkpt lat="44.430717" lon="34.121021">
<ele>47.565948</ele>
<time>2011-10-13T13:49:51Z</time>
<desc>lat.=44.430717, lon.=34.121021, Alt.=47.565948m. Speed=27.612000m/h.</desc>
<speed>7.670000</speed>
</trkpt>
<trkpt lat="44.430847" lon="34.120564">
<ele>47.183136</ele>
<time>2011-10-13T13:49:56Z</time>
<desc>lat.=44.430847, lon.=34.120564, Alt.=47.183136m. Speed=26.424000m/h.</desc>
<speed>7.340000</speed>
</trkpt>
<trkpt lat="44.430958" lon="34.120132">
<ele>46.922394</ele>
<time>2011-10-13T13:50:01Z</time>
<desc>lat.=44.430958, lon.=34.120132, Alt.=46.922394m. Speed=24.875999m/h.</desc>
<speed>6.910000</speed>
</trkpt>
<trkpt lat="44.431015" lon="34.119732">
<ele>46.926300</ele>
<time>2011-10-13T13:50:06Z</time>
<desc>lat.=44.431015, lon.=34.119732, Alt.=46.926300m. Speed=22.608000m/h.</desc>
<speed>6.280000</speed>
</trkpt>
<trkpt lat="44.431068" lon="34.119335">
<ele>48.120636</ele>
<time>2011-10-13T13:50:11Z</time>
<desc>lat.=44.431068, lon.=34.119335, Alt.=48.120636m. Speed=22.931999m/h.</desc>
<speed>6.370000</speed>
</trkpt>
<trkpt lat="44.431137" lon="34.118958">
<ele>48.481964</ele>
<time>2011-10-13T13:50:16Z</time>
<desc>lat.=44.431137, lon.=34.118958, Alt.=48.481964m. Speed=21.167999m/h.</desc>
<speed>5.880000</speed>
</trkpt>
<trkpt lat="44.431190" lon="34.118618">
<ele>49.718292</ele>
<time>2011-10-13T13:50:21Z</time>
<desc>lat.=44.431190, lon.=34.118618, Alt.=49.718292m. Speed=20.195999m/h.</desc>
<speed>5.610000</speed>
</trkpt>
<trkpt lat="44.431236" lon="34.118275">
<ele>50.604034</ele>
<time>2011-10-13T13:50:26Z</time>
<desc>lat.=44.431236, lon.=34.118275, Alt.=50.604034m. Speed=18.827999m/h.</desc>
<speed>5.230000</speed>
</trkpt>
<trkpt lat="44.431290" lon="34.117981">
<ele>50.937042</ele>
<time>2011-10-13T13:50:31Z</time>
<desc>lat.=44.431290, lon.=34.117981, Alt.=50.937042m. Speed=15.840000m/h.</desc>
<speed>4.400000</speed>
</trkpt>
<trkpt lat="44.431324" lon="34.117699">
<ele>52.358917</ele>
<time>2011-10-13T13:50:36Z</time>
<desc>lat.=44.431324, lon.=34.117699, Alt.=52.358917m. Speed=14.364000m/h.</desc>
<speed>3.990000</speed>
</trkpt>
<trkpt lat="44.431328" lon="34.117458">
<ele>53.594269</ele>
<time>2011-10-13T13:50:41Z</time>
<desc>lat.=44.431328, lon.=34.117458, Alt.=53.594269m. Speed=12.096000m/h.</desc>
<speed>3.360000</speed>
</trkpt>
<trkpt lat="44.431313" lon="34.117252">
<ele>54.768097</ele>
<time>2011-10-13T13:50:46Z</time>
<desc>lat.=44.431313, lon.=34.117252, Alt.=54.768097m. Speed=13.680000m/h.</desc>
<speed>3.800000</speed>
</trkpt>
<trkpt lat="44.431278" lon="34.117069">
<ele>56.120636</ele>
<time>2011-10-13T13:50:51Z</time>
<desc>lat.=44.431278, lon.=34.117069, Alt.=56.120636m. Speed=9.144000m/h.</desc>
<speed>2.540000</speed>
</trkpt>
<trkpt lat="44.431232" lon="34.116943">
<ele>59.542511</ele>
<time>2011-10-13T13:50:56Z</time>
<desc>lat.=44.431232, lon.=34.116943, Alt.=59.542511m. Speed=9.144000m/h.</desc>
<speed>2.540000</speed>
</trkpt>
<trkpt lat="44.431194" lon="34.116768">
<ele>61.252472</ele>
<time>2011-10-13T13:51:01Z</time>
<desc>lat.=44.431194, lon.=34.116768, Alt.=61.252472m. Speed=9.216000m/h.</desc>
<speed>2.560000</speed>
</trkpt>
<trkpt lat="44.431141" lon="34.116592">
<ele>63.547394</ele>
<time>2011-10-13T13:51:06Z</time>
<desc>lat.=44.431141, lon.=34.116592, Alt.=63.547394m. Speed=10.692000m/h.</desc>
<speed>2.970000</speed>
</trkpt>
<trkpt lat="44.431057" lon="34.116314">
<ele>66.643616</ele>
<time>2011-10-13T13:51:11Z</time>
<desc>lat.=44.431057, lon.=34.116314, Alt.=66.643616m. Speed=14.724000m/h.</desc>
<speed>4.090000</speed>
</trkpt>
<trkpt lat="44.431057" lon="34.116081">
<ele>70.145569</ele>
<time>2011-10-13T13:51:16Z</time>
<desc>lat.=44.431057, lon.=34.116081, Alt.=70.145569m. Speed=14.652000m/h.</desc>
<speed>4.070000</speed>
</trkpt>
<trkpt lat="44.431038" lon="34.115860">
<ele>74.473694</ele>
<time>2011-10-13T13:51:21Z</time>
<desc>lat.=44.431038, lon.=34.115860, Alt.=74.473694m. Speed=9.612000m/h.</desc>
<speed>2.670000</speed>
</trkpt>
<trkpt lat="44.431023" lon="34.115540">
<ele>77.434631</ele>
<time>2011-10-13T13:51:26Z</time>
<desc>lat.=44.431023, lon.=34.115540, Alt.=77.434631m. Speed=13.896000m/h.</desc>
<speed>3.860000</speed>
</trkpt>
<trkpt lat="44.431007" lon="34.115284">
<ele>82.077209</ele>
<time>2011-10-13T13:51:31Z</time>
<desc>lat.=44.431007, lon.=34.115284, Alt.=82.077209m. Speed=8.892000m/h.</desc>
<speed>2.470000</speed>
</trkpt>
<trkpt lat="44.431000" lon="34.115074">
<ele>86.333069</ele>
<time>2011-10-13T13:51:36Z</time>
<desc>lat.=44.431000, lon.=34.115074, Alt.=86.333069m. Speed=7.308000m/h.</desc>
<speed>2.030000</speed>
</trkpt>
<trkpt lat="44.430973" lon="34.114880">
<ele>89.680725</ele>
<time>2011-10-13T13:51:41Z</time>
<desc>lat.=44.430973, lon.=34.114880, Alt.=89.680725m. Speed=10.872000m/h.</desc>
<speed>3.020000</speed>
</trkpt>
<trkpt lat="44.430965" lon="34.114628">
<ele>93.338928</ele>
<time>2011-10-13T13:51:46Z</time>
<desc>lat.=44.430965, lon.=34.114628, Alt.=93.338928m. Speed=10.332000m/h.</desc>
<speed>2.870000</speed>
</trkpt>
<trkpt lat="44.430916" lon="34.114365">
<ele>95.999084</ele>
<time>2011-10-13T13:51:51Z</time>
<desc>lat.=44.430916, lon.=34.114365, Alt.=95.999084m. Speed=14.364000m/h.</desc>
<speed>3.990000</speed>
</trkpt>
<trkpt lat="44.430851" lon="34.114010">
<ele>93.096741</ele>
<time>2011-10-13T13:51:56Z</time>
<desc>lat.=44.430851, lon.=34.114010, Alt.=93.096741m. Speed=20.448000m/h.</desc>
<speed>5.680000</speed>
</trkpt>
<trkpt lat="44.430767" lon="34.113667">
<ele>88.024475</ele>
<time>2011-10-13T13:52:01Z</time>
<desc>lat.=44.430767, lon.=34.113667, Alt.=88.024475m. Speed=19.152000m/h.</desc>
<speed>5.320000</speed>
</trkpt>
<trkpt lat="44.430676" lon="34.113346">
<ele>83.567444</ele>
<time>2011-10-13T13:52:06Z</time>
<desc>lat.=44.430676, lon.=34.113346, Alt.=83.567444m. Speed=16.416000m/h.</desc>
<speed>4.560000</speed>
</trkpt>
<trkpt lat="44.430691" lon="34.112938">
<ele>79.764709</ele>
<time>2011-10-13T13:52:11Z</time>
<desc>lat.=44.430691, lon.=34.112938, Alt.=79.764709m. Speed=21.312000m/h.</desc>
<speed>5.920000</speed>
</trkpt>
<trkpt lat="44.430798" lon="34.112537">
<ele>77.727600</ele>
<time>2011-10-13T13:52:16Z</time>
<desc>lat.=44.430798, lon.=34.112537, Alt.=77.727600m. Speed=21.132000m/h.</desc>
<speed>5.870000</speed>
</trkpt>
<trkpt lat="44.430889" lon="34.112171">
<ele>76.762756</ele>
<time>2011-10-13T13:52:21Z</time>
<desc>lat.=44.430889, lon.=34.112171, Alt.=76.762756m. Speed=19.691999m/h.</desc>
<speed>5.470000</speed>
</trkpt>
<trkpt lat="44.430931" lon="34.111847">
<ele>74.774475</ele>
<time>2011-10-13T13:52:26Z</time>
<desc>lat.=44.430931, lon.=34.111847, Alt.=74.774475m. Speed=15.660000m/h.</desc>
<speed>4.350000</speed>
</trkpt>
<trkpt lat="44.430943" lon="34.111549">
<ele>72.547913</ele>
<time>2011-10-13T13:52:31Z</time>
<desc>lat.=44.430943, lon.=34.111549, Alt.=72.547913m. Speed=17.280001m/h.</desc>
<speed>4.800000</speed>
</trkpt>
<trkpt lat="44.430912" lon="34.111206">
<ele>70.252991</ele>
<time>2011-10-13T13:52:36Z</time>
<desc>lat.=44.430912, lon.=34.111206, Alt.=70.252991m. Speed=22.068001m/h.</desc>
<speed>6.130000</speed>
</trkpt>
<trkpt lat="44.430874" lon="34.110783">
<ele>68.454163</ele>
<time>2011-10-13T13:52:41Z</time>
<desc>lat.=44.430874, lon.=34.110783, Alt.=68.454163m. Speed=25.812000m/h.</desc>
<speed>7.170000</speed>
</trkpt>
<trkpt lat="44.430958" lon="34.110279">
<ele>65.633850</ele>
<time>2011-10-13T13:52:46Z</time>
<desc>lat.=44.430958, lon.=34.110279, Alt.=65.633850m. Speed=30.348000m/h.</desc>
<speed>8.430000</speed>
</trkpt>
<trkpt lat="44.431095" lon="34.109921">
<ele>64.174866</ele>
<time>2011-10-13T13:52:51Z</time>
<desc>lat.=44.431095, lon.=34.109921, Alt.=64.174866m. Speed=16.416000m/h.</desc>
<speed>4.560000</speed>
</trkpt>
<trkpt lat="44.431217" lon="34.109650">
<ele>62.868683</ele>
<time>2011-10-13T13:52:56Z</time>
<desc>lat.=44.431217, lon.=34.109650, Alt.=62.868683m. Speed=20.412001m/h.</desc>
<speed>5.670000</speed>
</trkpt>
<trkpt lat="44.431385" lon="34.109287">
<ele>61.313019</ele>
<time>2011-10-13T13:53:01Z</time>
<desc>lat.=44.431385, lon.=34.109287, Alt.=61.313019m. Speed=24.516001m/h.</desc>
<speed>6.810000</speed>
</trkpt>
<trkpt lat="44.431492" lon="34.108932">
<ele>60.683136</ele>
<time>2011-10-13T13:53:06Z</time>
<desc>lat.=44.431492, lon.=34.108932, Alt.=60.683136m. Speed=18.360001m/h.</desc>
<speed>5.100000</speed>
</trkpt>
<trkpt lat="44.431271" lon="34.108768">
<ele>60.758331</ele>
<time>2011-10-13T13:53:11Z</time>
<desc>lat.=44.431271, lon.=34.108768, Alt.=60.758331m. Speed=25.740000m/h.</desc>
<speed>7.150000</speed>
</trkpt>
<trkpt lat="44.430984" lon="34.108707">
<ele>60.179230</ele>
<time>2011-10-13T13:53:16Z</time>
<desc>lat.=44.430984, lon.=34.108707, Alt.=60.179230m. Speed=23.112000m/h.</desc>
<speed>6.420000</speed>
</trkpt>
<trkpt lat="44.430817" lon="34.108479">
<ele>59.679230</ele>
<time>2011-10-13T13:53:21Z</time>
<desc>lat.=44.430817, lon.=34.108479, Alt.=59.679230m. Speed=15.048000m/h.</desc>
<speed>4.180000</speed>
</trkpt>
<trkpt lat="44.430756" lon="34.108212">
<ele>60.836456</ele>
<time>2011-10-13T13:53:26Z</time>
<desc>lat.=44.430756, lon.=34.108212, Alt.=60.836456m. Speed=16.955999m/h.</desc>
<speed>4.710000</speed>
</trkpt>
<trkpt lat="44.430714" lon="34.107944">
<ele>62.060089</ele>
<time>2011-10-13T13:53:31Z</time>
<desc>lat.=44.430714, lon.=34.107944, Alt.=62.060089m. Speed=14.040000m/h.</desc>
<speed>3.900000</speed>
</trkpt>
<trkpt lat="44.430710" lon="34.107716">
<ele>62.257355</ele>
<time>2011-10-13T13:53:36Z</time>
<desc>lat.=44.430710, lon.=34.107716, Alt.=62.257355m. Speed=14.076000m/h.</desc>
<speed>3.910000</speed>
</trkpt>
<trkpt lat="44.430695" lon="34.107479">
<ele>63.506378</ele>
<time>2011-10-13T13:53:41Z</time>
<desc>lat.=44.430695, lon.=34.107479, Alt.=63.506378m. Speed=13.644000m/h.</desc>
<speed>3.790000</speed>
</trkpt>
<trkpt lat="44.430626" lon="34.107269">
<ele>65.409241</ele>
<time>2011-10-13T13:53:46Z</time>
<desc>lat.=44.430626, lon.=34.107269, Alt.=65.409241m. Speed=12.384000m/h.</desc>
<speed>3.440000</speed>
</trkpt>
<trkpt lat="44.430538" lon="34.107094">
<ele>68.844788</ele>
<time>2011-10-13T13:53:51Z</time>
<desc>lat.=44.430538, lon.=34.107094, Alt.=68.844788m. Speed=11.844000m/h.</desc>
<speed>3.290000</speed>
</trkpt>
<trkpt lat="44.430454" lon="34.106915">
<ele>71.026428</ele>
<time>2011-10-13T13:53:56Z</time>
<desc>lat.=44.430454, lon.=34.106915, Alt.=71.026428m. Speed=10.512000m/h.</desc>
<speed>2.920000</speed>
</trkpt>
<trkpt lat="44.430450" lon="34.106716">
<ele>72.836975</ele>
<time>2011-10-13T13:54:01Z</time>
<desc>lat.=44.430450, lon.=34.106716, Alt.=72.836975m. Speed=7.524000m/h.</desc>
<speed>2.090000</speed>
</trkpt>
<trkpt lat="44.430557" lon="34.106552">
<ele>72.221741</ele>
<time>2011-10-13T13:54:06Z</time>
<desc>lat.=44.430557, lon.=34.106552, Alt.=72.221741m. Speed=9.576000m/h.</desc>
<speed>2.660000</speed>
</trkpt>
<trkpt lat="44.430683" lon="34.106491">
<ele>74.118225</ele>
<time>2011-10-13T13:54:11Z</time>
<desc>lat.=44.430683, lon.=34.106491, Alt.=74.118225m. Speed=9.720000m/h.</desc>
<speed>2.700000</speed>
</trkpt>
<trkpt lat="44.430809" lon="34.106415">
<ele>78.907288</ele>
<time>2011-10-13T13:54:16Z</time>
<desc>lat.=44.430809, lon.=34.106415, Alt.=78.907288m. Speed=9.720000m/h.</desc>
<speed>2.700000</speed>
</trkpt>
<trkpt lat="44.430889" lon="34.106350">
<ele>81.893616</ele>
<time>2011-10-13T13:54:21Z</time>
<desc>lat.=44.430889, lon.=34.106350, Alt.=81.893616m. Speed=6.984000m/h.</desc>
<speed>1.940000</speed>
</trkpt>
<trkpt lat="44.430939" lon="34.106293">
<ele>84.575256</ele>
<time>2011-10-13T13:54:26Z</time>
<desc>lat.=44.430939, lon.=34.106293, Alt.=84.575256m. Speed=3.744000m/h.</desc>
<speed>1.040000</speed>
</trkpt>
<trkpt lat="44.430962" lon="34.106281">
<ele>86.256897</ele>
<time>2011-10-13T13:54:31Z</time>
<desc>lat.=44.430962, lon.=34.106281, Alt.=86.256897m. Speed=1.368000m/h.</desc>
<speed>0.380000</speed>
</trkpt>
<trkpt lat="44.430969" lon="34.106285">
<ele>87.442444</ele>
<time>2011-10-13T13:54:36Z</time>
<desc>lat.=44.430969, lon.=34.106285, Alt.=87.442444m. Speed=0.252000m/h.</desc>
<speed>0.070000</speed>
</trkpt>
<trkpt lat="44.430969" lon="34.106285">
<ele>87.729553</ele>
<time>2011-10-13T13:54:41Z</time>
<desc>lat.=44.430969, lon.=34.106285, Alt.=87.729553m. Speed=0.252000m/h.</desc>
<speed>0.070000</speed>
</trkpt>
<trkpt lat="44.430969" lon="34.106281">
<ele>87.877991</ele>
<time>2011-10-13T13:54:46Z</time>
<desc>lat.=44.430969, lon.=34.106281, Alt.=87.877991m. Speed=0.180000m/h.</desc>
<speed>0.050000</speed>
</trkpt>
<trkpt lat="44.430981" lon="34.106266">
<ele>88.305725</ele>
<time>2011-10-13T13:54:51Z</time>
<desc>lat.=44.430981, lon.=34.106266, Alt.=88.305725m. Speed=2.016000m/h.</desc>
<speed>0.560000</speed>
</trkpt>
<trkpt lat="44.431011" lon="34.106251">
<ele>83.760803</ele>
<time>2011-10-13T13:54:56Z</time>
<desc>lat.=44.431011, lon.=34.106251, Alt.=83.760803m. Speed=2.916000m/h.</desc>
<speed>0.810000</speed>
</trkpt>
<trkpt lat="44.431019" lon="34.106182">
<ele>82.235413</ele>
<time>2011-10-13T13:55:01Z</time>
<desc>lat.=44.431019, lon.=34.106182, Alt.=82.235413m. Speed=6.840000m/h.</desc>
<speed>1.900000</speed>
</trkpt>
<trkpt lat="44.430988" lon="34.106041">
<ele>82.586975</ele>
<time>2011-10-13T13:55:06Z</time>
<desc>lat.=44.430988, lon.=34.106041, Alt.=82.586975m. Speed=9.108000m/h.</desc>
<speed>2.530000</speed>
</trkpt>
<trkpt lat="44.430965" lon="34.105976">
<ele>80.516663</ele>
<time>2011-10-13T13:55:11Z</time>
<desc>lat.=44.430965, lon.=34.105976, Alt.=80.516663m. Speed=4.752000m/h.</desc>
<speed>1.320000</speed>
</trkpt>
<trkpt lat="44.430954" lon="34.105892">
<ele>79.340881</ele>
<time>2011-10-13T13:55:16Z</time>
<desc>lat.=44.430954, lon.=34.105892, Alt.=79.340881m. Speed=5.904000m/h.</desc>
<speed>1.640000</speed>
</trkpt>
<trkpt lat="44.430939" lon="34.105843">
<ele>77.752991</ele>
<time>2011-10-13T13:55:21Z</time>
<desc>lat.=44.430939, lon.=34.105843, Alt.=77.752991m. Speed=0.324000m/h.</desc>
<speed>0.090000</speed>
</trkpt>
<trkpt lat="44.430962" lon="34.105797">
<ele>75.874084</ele>
<time>2011-10-13T13:55:26Z</time>
<desc>lat.=44.430962, lon.=34.105797, Alt.=75.874084m. Speed=0.216000m/h.</desc>
<speed>0.060000</speed>
</trkpt>
<trkpt lat="44.430969" lon="34.105797">
<ele>75.135803</ele>
<time>2011-10-13T13:55:31Z</time>
<desc>lat.=44.430969, lon.=34.105797, Alt.=75.135803m. Speed=0.108000m/h.</desc>
<speed>0.030000</speed>
</trkpt>
<trkpt lat="44.430958" lon="34.105736">
<ele>74.286194</ele>
<time>2011-10-13T13:55:36Z</time>
<desc>lat.=44.430958, lon.=34.105736, Alt.=74.286194m. Speed=8.892000m/h.</desc>
<speed>2.470000</speed>
</trkpt>
<trkpt lat="44.430946" lon="34.105675">
<ele>73.919006</ele>
<time>2011-10-13T13:55:41Z</time>
<desc>lat.=44.430946, lon.=34.105675, Alt.=73.919006m. Speed=0.900000m/h.</desc>
<speed>0.250000</speed>
</trkpt>
<trkpt lat="44.430946" lon="34.105679">
<ele>73.508850</ele>
<time>2011-10-13T13:55:46Z</time>
<desc>lat.=44.430946, lon.=34.105679, Alt.=73.508850m. Speed=0.324000m/h.</desc>
<speed>0.090000</speed>
</trkpt>
<trkpt lat="44.430943" lon="34.105682">
<ele>73.510803</ele>
<time>2011-10-13T13:55:51Z</time>
<desc>lat.=44.430943, lon.=34.105682, Alt.=73.510803m. Speed=0.180000m/h.</desc>
<speed>0.050000</speed>
</trkpt>
<trkpt lat="44.430943" lon="34.105682">
<ele>73.495178</ele>
<time>2011-10-13T13:55:56Z</time>
<desc>lat.=44.430943, lon.=34.105682, Alt.=73.495178m. Speed=0.144000m/h.</desc>
<speed>0.040000</speed>
</trkpt>
<trkpt lat="44.430946" lon="34.105682">
<ele>73.479553</ele>
<time>2011-10-13T13:56:01Z</time>
<desc>lat.=44.430946, lon.=34.105682, Alt.=73.479553m. Speed=0.432000m/h.</desc>
<speed>0.120000</speed>
</trkpt>
<trkpt lat="44.430950" lon="34.105675">
<ele>73.448303</ele>
<time>2011-10-13T13:56:06Z</time>
<desc>lat.=44.430950, lon.=34.105675, Alt.=73.448303m. Speed=0.360000m/h.</desc>
<speed>0.100000</speed>
</trkpt>
<trkpt lat="44.430943" lon="34.105671">
<ele>73.333069</ele>
<time>2011-10-13T13:56:11Z</time>
<desc>lat.=44.430943, lon.=34.105671, Alt.=73.333069m. Speed=4.320000m/h.</desc>
<speed>1.200000</speed>
</trkpt>
<trkpt lat="44.430878" lon="34.105721">
<ele>70.612366</ele>
<time>2011-10-13T13:56:16Z</time>
<desc>lat.=44.430878, lon.=34.105721, Alt.=70.612366m. Speed=4.932000m/h.</desc>
<speed>1.370000</speed>
</trkpt>
<trkpt lat="44.430862" lon="34.105717">
<ele>69.596741</ele>
<time>2011-10-13T13:56:21Z</time>
<desc>lat.=44.430862, lon.=34.105717, Alt.=69.596741m. Speed=0.144000m/h.</desc>
<speed>0.040000</speed>
</trkpt>
<trkpt lat="44.430862" lon="34.105713">
<ele>69.565491</ele>
<time>2011-10-13T13:56:26Z</time>
<desc>lat.=44.430862, lon.=34.105713, Alt.=69.565491m. Speed=0.000000m/h.</desc>
<speed>0.000000</speed>
</trkpt>
<trkpt lat="44.430862" lon="34.105713">
<ele>69.458069</ele>
<time>2011-10-13T13:56:31Z</time>
<desc>lat.=44.430862, lon.=34.105713, Alt.=69.458069m. Speed=0.072000m/h.</desc>
<speed>0.020000</speed>
</trkpt>
<trkpt lat="44.430862" lon="34.105713">
<ele>69.417053</ele>
<time>2011-10-13T13:56:36Z</time>
<desc>lat.=44.430862, lon.=34.105713, Alt.=69.417053m. Speed=0.144000m/h.</desc>
<speed>0.040000</speed>
</trkpt>
<trkpt lat="44.430862" lon="34.105713">
<ele>68.876038</ele>
<time>2011-10-13T13:56:41Z</time>
<desc>lat.=44.430862, lon.=34.105713, Alt.=68.876038m. Speed=0.180000m/h.</desc>
<speed>0.050000</speed>
</trkpt>
<trkpt lat="44.430859" lon="34.105690">
<ele>68.294006</ele>
<time>2011-10-13T13:56:46Z</time>
<desc>lat.=44.430859, lon.=34.105690, Alt.=68.294006m. Speed=0.396000m/h.</desc>
<speed>0.110000</speed>
</trkpt>
<trkpt lat="44.430843" lon="34.105663">
<ele>67.721741</ele>
<time>2011-10-13T13:56:51Z</time>
<desc>lat.=44.430843, lon.=34.105663, Alt.=67.721741m. Speed=0.288000m/h.</desc>
<speed>0.080000</speed>
</trkpt>
<trkpt lat="44.430851" lon="34.105644">
<ele>67.252991</ele>
<time>2011-10-13T13:56:56Z</time>
<desc>lat.=44.430851, lon.=34.105644, Alt.=67.252991m. Speed=0.468000m/h.</desc>
<speed>0.130000</speed>
</trkpt>
<trkpt lat="44.430828" lon="34.105606">
<ele>66.557678</ele>
<time>2011-10-13T13:57:01Z</time>
<desc>lat.=44.430828, lon.=34.105606, Alt.=66.557678m. Speed=6.732000m/h.</desc>
<speed>1.870000</speed>
</trkpt>
<trkpt lat="44.430809" lon="34.105507">
<ele>65.545959</ele>
<time>2011-10-13T13:57:06Z</time>
<desc>lat.=44.430809, lon.=34.105507, Alt.=65.545959m. Speed=5.076000m/h.</desc>
<speed>1.410000</speed>
</trkpt>
<trkpt lat="44.430786" lon="34.105442">
<ele>64.129944</ele>
<time>2011-10-13T13:57:11Z</time>
<desc>lat.=44.430786, lon.=34.105442, Alt.=64.129944m. Speed=3.708000m/h.</desc>
<speed>1.030000</speed>
</trkpt>
<trkpt lat="44.430779" lon="34.105404">
<ele>64.438538</ele>
<time>2011-10-13T13:57:16Z</time>
<desc>lat.=44.430779, lon.=34.105404, Alt.=64.438538m. Speed=2.736000m/h.</desc>
<speed>0.760000</speed>
</trkpt>
<trkpt lat="44.430809" lon="34.105335">
<ele>63.602081</ele>
<time>2011-10-13T13:57:21Z</time>
<desc>lat.=44.430809, lon.=34.105335, Alt.=63.602081m. Speed=3.132000m/h.</desc>
<speed>0.870000</speed>
</trkpt>
<trkpt lat="44.430744" lon="34.105274">
<ele>61.626495</ele>
<time>2011-10-13T13:57:26Z</time>
<desc>lat.=44.430744, lon.=34.105274, Alt.=61.626495m. Speed=8.208000m/h.</desc>
<speed>2.280000</speed>
</trkpt>
<trkpt lat="44.430714" lon="34.105125">
<ele>61.195831</ele>
<time>2011-10-13T13:57:31Z</time>
<desc>lat.=44.430714, lon.=34.105125, Alt.=61.195831m. Speed=12.060000m/h.</desc>
<speed>3.350000</speed>
</trkpt>
<trkpt lat="44.430656" lon="34.104927">
<ele>59.735870</ele>
<time>2011-10-13T13:57:36Z</time>
<desc>lat.=44.430656, lon.=34.104927, Alt.=59.735870m. Speed=12.924000m/h.</desc>
<speed>3.590000</speed>
</trkpt>
<trkpt lat="44.430611" lon="34.104832">
<ele>58.228058</ele>
<time>2011-10-13T13:57:41Z</time>
<desc>lat.=44.430611, lon.=34.104832, Alt.=58.228058m. Speed=0.720000m/h.</desc>
<speed>0.200000</speed>
</trkpt>
<trkpt lat="44.430618" lon="34.104828">
<ele>57.177277</ele>
<time>2011-10-13T13:57:46Z</time>
<desc>lat.=44.430618, lon.=34.104828, Alt.=57.177277m. Speed=0.432000m/h.</desc>
<speed>0.120000</speed>
</trkpt>
<trkpt lat="44.430618" lon="34.104824">
<ele>56.937042</ele>
<time>2011-10-13T13:57:51Z</time>
<desc>lat.=44.430618, lon.=34.104824, Alt.=56.937042m. Speed=0.036000m/h.</desc>
<speed>0.010000</speed>
</trkpt>
<trkpt lat="44.430618" lon="34.104824">
<ele>56.962433</ele>
<time>2011-10-13T13:57:56Z</time>
<desc>lat.=44.430618, lon.=34.104824, Alt.=56.962433m. Speed=0.216000m/h.</desc>
<speed>0.060000</speed>
</trkpt>
<trkpt lat="44.430618" lon="34.104824">
<ele>57.006378</ele>
<time>2011-10-13T13:58:01Z</time>
<desc>lat.=44.430618, lon.=34.104824, Alt.=57.006378m. Speed=0.036000m/h.</desc>
<speed>0.010000</speed>
</trkpt>
<trkpt lat="44.430618" lon="34.104824">
<ele>56.997589</ele>
<time>2011-10-13T13:58:06Z</time>
<desc>lat.=44.430618, lon.=34.104824, Alt.=56.997589m. Speed=0.000000m/h.</desc>
<speed>0.000000</speed>
</trkpt>
<trkpt lat="44.430618" lon="34.104824">
<ele>56.989777</ele>
<time>2011-10-13T13:58:11Z</time>
<desc>lat.=44.430618, lon.=34.104824, Alt.=56.989777m. Speed=0.000000m/h.</desc>
<speed>0.000000</speed>
</trkpt>
<trkpt lat="44.430618" lon="34.104824">
<ele>56.985870</ele>
<time>2011-10-13T13:58:16Z</time>
<desc>lat.=44.430618, lon.=34.104824, Alt.=56.985870m. Speed=0.000000m/h.</desc>
<speed>0.000000</speed>
</trkpt>
<trkpt lat="44.430618" lon="34.104824">
<ele>56.987823</ele>
<time>2011-10-13T13:58:21Z</time>
<desc>lat.=44.430618, lon.=34.104824, Alt.=56.987823m. Speed=0.108000m/h.</desc>
<speed>0.030000</speed>
</trkpt>
<trkpt lat="44.430618" lon="34.104824">
<ele>56.985870</ele>
<time>2011-10-13T13:58:26Z</time>
<desc>lat.=44.430618, lon.=34.104824, Alt.=56.985870m. Speed=0.000000m/h.</desc>
<speed>0.000000</speed>
</trkpt>
<trkpt lat="44.430618" lon="34.104824">
<ele>56.981964</ele>
<time>2011-10-13T13:58:31Z</time>
<desc>lat.=44.430618, lon.=34.104824, Alt.=56.981964m. Speed=0.036000m/h.</desc>
<speed>0.010000</speed>
</trkpt>
<trkpt lat="44.430618" lon="34.104824">
<ele>56.980988</ele>
<time>2011-10-13T13:58:36Z</time>
<desc>lat.=44.430618, lon.=34.104824, Alt.=56.980988m. Speed=0.000000m/h.</desc>
<speed>0.000000</speed>
</trkpt>
<trkpt lat="44.430618" lon="34.104824">
<ele>56.977081</ele>
<time>2011-10-13T13:58:41Z</time>
<desc>lat.=44.430618, lon.=34.104824, Alt.=56.977081m. Speed=0.000000m/h.</desc>
<speed>0.000000</speed>
</trkpt>
<trkpt lat="44.430618" lon="34.104824">
<ele>56.967316</ele>
<time>2011-10-13T13:58:46Z</time>
<desc>lat.=44.430618, lon.=34.104824, Alt.=56.967316m. Speed=0.000000m/h.</desc>
<speed>0.000000</speed>
</trkpt>
<trkpt lat="44.430618" lon="34.104824">
<ele>56.950714</ele>
<time>2011-10-13T13:58:51Z</time>
<desc>lat.=44.430618, lon.=34.104824, Alt.=56.950714m. Speed=0.000000m/h.</desc>
<speed>0.000000</speed>
</trkpt>
<trkpt lat="44.430618" lon="34.104824">
<ele>56.931183</ele>
<time>2011-10-13T13:58:56Z</time>
<desc>lat.=44.430618, lon.=34.104824, Alt.=56.931183m. Speed=0.180000m/h.</desc>
<speed>0.050000</speed>
</trkpt>
<trkpt lat="44.430622" lon="34.104820">
<ele>56.946808</ele>
<time>2011-10-13T13:59:01Z</time>
<desc>lat.=44.430622, lon.=34.104820, Alt.=56.946808m. Speed=0.612000m/h.</desc>
<speed>0.170000</speed>
</trkpt>
<trkpt lat="44.430626" lon="34.104820">
<ele>56.856964</ele>
<time>2011-10-13T13:59:06Z</time>
<desc>lat.=44.430626, lon.=34.104820, Alt.=56.856964m. Speed=0.108000m/h.</desc>
<speed>0.030000</speed>
</trkpt>
<trkpt lat="44.430630" lon="34.104820">
<ele>56.719269</ele>
<time>2011-10-13T13:59:11Z</time>
<desc>lat.=44.430630, lon.=34.104820, Alt.=56.719269m. Speed=0.072000m/h.</desc>
<speed>0.020000</speed>
</trkpt>
<trkpt lat="44.430630" lon="34.104820">
<ele>56.677277</ele>
<time>2011-10-13T13:59:16Z</time>
<desc>lat.=44.430630, lon.=34.104820, Alt.=56.677277m. Speed=0.108000m/h.</desc>
<speed>0.030000</speed>
</trkpt>
<trkpt lat="44.430634" lon="34.104820">
<ele>56.749542</ele>
<time>2011-10-13T13:59:21Z</time>
<desc>lat.=44.430634, lon.=34.104820, Alt.=56.749542m. Speed=0.180000m/h.</desc>
<speed>0.050000</speed>
</trkpt>
<trkpt lat="44.430634" lon="34.104816">
<ele>56.770050</ele>
<time>2011-10-13T13:59:26Z</time>
<desc>lat.=44.430634, lon.=34.104816, Alt.=56.770050m. Speed=1.188000m/h.</desc>
<speed>0.330000</speed>
</trkpt>
<trkpt lat="44.430614" lon="34.104809">
<ele>56.703644</ele>
<time>2011-10-13T13:59:31Z</time>
<desc>lat.=44.430614, lon.=34.104809, Alt.=56.703644m. Speed=0.144000m/h.</desc>
<speed>0.040000</speed>
</trkpt>
<trkpt lat="44.430611" lon="34.104809">
<ele>56.551300</ele>
<time>2011-10-13T13:59:36Z</time>
<desc>lat.=44.430611, lon.=34.104809, Alt.=56.551300m. Speed=0.144000m/h.</desc>
<speed>0.040000</speed>
</trkpt>
<trkpt lat="44.430611" lon="34.104809">
<ele>56.516144</ele>
<time>2011-10-13T13:59:41Z</time>
<desc>lat.=44.430611, lon.=34.104809, Alt.=56.516144m. Speed=0.180000m/h.</desc>
<speed>0.050000</speed>
</trkpt>
<trkpt lat="44.430611" lon="34.104809">
<ele>56.512238</ele>
<time>2011-10-13T13:59:46Z</time>
<desc>lat.=44.430611, lon.=34.104809, Alt.=56.512238m. Speed=0.108000m/h.</desc>
<speed>0.030000</speed>
</trkpt>
<trkpt lat="44.430607" lon="34.104809">
<ele>56.550323</ele>
<time>2011-10-13T13:59:51Z</time>
<desc>lat.=44.430607, lon.=34.104809, Alt.=56.550323m. Speed=0.504000m/h.</desc>
<speed>0.140000</speed>
</trkpt>
<trkpt lat="44.430603" lon="34.104809">
<ele>56.690948</ele>
<time>2011-10-13T13:59:56Z</time>
<desc>lat.=44.430603, lon.=34.104809, Alt.=56.690948m. Speed=0.360000m/h.</desc>
<speed>0.100000</speed>
</trkpt>
<trkpt lat="44.430599" lon="34.104816">
<ele>56.934113</ele>
<time>2011-10-13T14:00:01Z</time>
<desc>lat.=44.430599, lon.=34.104816, Alt.=56.934113m. Speed=0.720000m/h.</desc>
<speed>0.200000</speed>
</trkpt>
<trkpt lat="44.430595" lon="34.104828">
<ele>57.226105</ele>
<time>2011-10-13T14:00:06Z</time>
<desc>lat.=44.430595, lon.=34.104828, Alt.=57.226105m. Speed=0.900000m/h.</desc>
<speed>0.250000</speed>
</trkpt>
<trkpt lat="44.430588" lon="34.104836">
<ele>57.520050</ele>
<time>2011-10-13T14:00:11Z</time>
<desc>lat.=44.430588, lon.=34.104836, Alt.=57.520050m. Speed=0.648000m/h.</desc>
<speed>0.180000</speed>
</trkpt>
<trkpt lat="44.430588" lon="34.104839">
<ele>57.745636</ele>
<time>2011-10-13T14:00:16Z</time>
<desc>lat.=44.430588, lon.=34.104839, Alt.=57.745636m. Speed=0.288000m/h.</desc>
<speed>0.080000</speed>
</trkpt>
<trkpt lat="44.430557" lon="34.104824">
<ele>57.064972</ele>
<time>2011-10-13T14:00:21Z</time>
<desc>lat.=44.430557, lon.=34.104824, Alt.=57.064972m. Speed=7.596000m/h.</desc>
<speed>2.110000</speed>
</trkpt>
<trkpt lat="44.430603" lon="34.104965">
<ele>57.216339</ele>
<time>2011-10-13T14:00:26Z</time>
<desc>lat.=44.430603, lon.=34.104965, Alt.=57.216339m. Speed=16.164000m/h.</desc>
<speed>4.490000</speed>
</trkpt>
<trkpt lat="44.430733" lon="34.105190">
<ele>60.524933</ele>
<time>2011-10-13T14:00:31Z</time>
<desc>lat.=44.430733, lon.=34.105190, Alt.=60.524933m. Speed=15.840000m/h.</desc>
<speed>4.400000</speed>
</trkpt>
<trkpt lat="44.430824" lon="34.105427">
<ele>64.995178</ele>
<time>2011-10-13T14:00:36Z</time>
<desc>lat.=44.430824, lon.=34.105427, Alt.=64.995178m. Speed=16.559999m/h.</desc>
<speed>4.600000</speed>
</trkpt>
<trkpt lat="44.430912" lon="34.105671">
<ele>66.192444</ele>
<time>2011-10-13T14:00:41Z</time>
<desc>lat.=44.430912, lon.=34.105671, Alt.=66.192444m. Speed=14.868000m/h.</desc>
<speed>4.130000</speed>
</trkpt>
<trkpt lat="44.430977" lon="34.105911">
<ele>67.415100</ele>
<time>2011-10-13T14:00:46Z</time>
<desc>lat.=44.430977, lon.=34.105911, Alt.=67.415100m. Speed=12.492000m/h.</desc>
<speed>3.470000</speed>
</trkpt>
<trkpt lat="44.430988" lon="34.106079">
<ele>69.971741</ele>
<time>2011-10-13T14:00:51Z</time>
<desc>lat.=44.430988, lon.=34.106079, Alt.=69.971741m. Speed=8.748000m/h.</desc>
<speed>2.430000</speed>
</trkpt>
<trkpt lat="44.430984" lon="34.106190">
<ele>69.305725</ele>
<time>2011-10-13T14:00:56Z</time>
<desc>lat.=44.430984, lon.=34.106190, Alt.=69.305725m. Speed=3.960000m/h.</desc>
<speed>1.100000</speed>
</trkpt>
<trkpt lat="44.430920" lon="34.106258">
<ele>68.821350</ele>
<time>2011-10-13T14:01:01Z</time>
<desc>lat.=44.430920, lon.=34.106258, Alt.=68.821350m. Speed=11.088000m/h.</desc>
<speed>3.080000</speed>
</trkpt>
<trkpt lat="44.430790" lon="34.106331">
<ele>68.639709</ele>
<time>2011-10-13T14:01:06Z</time>
<desc>lat.=44.430790, lon.=34.106331, Alt.=68.639709m. Speed=11.844000m/h.</desc>
<speed>3.290000</speed>
</trkpt>
<trkpt lat="44.430630" lon="34.106400">
<ele>66.405334</ele>
<time>2011-10-13T14:01:11Z</time>
<desc>lat.=44.430630, lon.=34.106400, Alt.=66.405334m. Speed=12.708000m/h.</desc>
<speed>3.530000</speed>
</trkpt>
<trkpt lat="44.430534" lon="34.106445">
<ele>64.758850</ele>
<time>2011-10-13T14:01:16Z</time>
<desc>lat.=44.430534, lon.=34.106445, Alt.=64.758850m. Speed=5.832000m/h.</desc>
<speed>1.620000</speed>
</trkpt>
<trkpt lat="44.430447" lon="34.106571">
<ele>62.765167</ele>
<time>2011-10-13T14:01:21Z</time>
<desc>lat.=44.430447, lon.=34.106571, Alt.=62.765167m. Speed=16.920000m/h.</desc>
<speed>4.700000</speed>
</trkpt>
<trkpt lat="44.430462" lon="34.106846">
<ele>60.692902</ele>
<time>2011-10-13T14:01:26Z</time>
<desc>lat.=44.430462, lon.=34.106846, Alt.=60.692902m. Speed=15.768000m/h.</desc>
<speed>4.380000</speed>
</trkpt>
<trkpt lat="44.430546" lon="34.107052">
<ele>59.826691</ele>
<time>2011-10-13T14:01:31Z</time>
<desc>lat.=44.430546, lon.=34.107052, Alt.=59.826691m. Speed=15.048000m/h.</desc>
<speed>4.180000</speed>
</trkpt>
<trkpt lat="44.430649" lon="34.107315">
<ele>58.730011</ele>
<time>2011-10-13T14:01:36Z</time>
<desc>lat.=44.430649, lon.=34.107315, Alt.=58.730011m. Speed=19.584000m/h.</desc>
<speed>5.440000</speed>
</trkpt>
<trkpt lat="44.430672" lon="34.107639">
<ele>57.181183</ele>
<time>2011-10-13T14:01:41Z</time>
<desc>lat.=44.430672, lon.=34.107639, Alt.=57.181183m. Speed=16.884001m/h.</desc>
<speed>4.690000</speed>
</trkpt>
<trkpt lat="44.430687" lon="34.107906">
<ele>56.272980</ele>
<time>2011-10-13T14:01:46Z</time>
<desc>lat.=44.430687, lon.=34.107906, Alt.=56.272980m. Speed=15.768000m/h.</desc>
<speed>4.380000</speed>
</trkpt>
<trkpt lat="44.430756" lon="34.108212">
<ele>55.458527</ele>
<time>2011-10-13T14:01:51Z</time>
<desc>lat.=44.430756, lon.=34.108212, Alt.=55.458527m. Speed=21.455999m/h.</desc>
<speed>5.960000</speed>
</trkpt>
<trkpt lat="44.430851" lon="34.108555">
<ele>54.077667</ele>
<time>2011-10-13T14:01:56Z</time>
<desc>lat.=44.430851, lon.=34.108555, Alt.=54.077667m. Speed=18.864000m/h.</desc>
<speed>5.240000</speed>
</trkpt>
<trkpt lat="44.431049" lon="34.108742">
<ele>53.025909</ele>
<time>2011-10-13T14:02:01Z</time>
<desc>lat.=44.431049, lon.=34.108742, Alt.=53.025909m. Speed=20.844000m/h.</desc>
<speed>5.790000</speed>
</trkpt>
<trkpt lat="44.431274" lon="34.108742">
<ele>51.583527</ele>
<time>2011-10-13T14:02:06Z</time>
<desc>lat.=44.431274, lon.=34.108742, Alt.=51.583527m. Speed=11.916000m/h.</desc>
<speed>3.310000</speed>
</trkpt>
<trkpt lat="44.431347" lon="34.108768">
<ele>48.907745</ele>
<time>2011-10-13T14:02:11Z</time>
<desc>lat.=44.431347, lon.=34.108768, Alt.=48.907745m. Speed=5.616000m/h.</desc>
<speed>1.560000</speed>
</trkpt>
<trkpt lat="44.431435" lon="34.108799">
<ele>49.769073</ele>
<time>2011-10-13T14:02:16Z</time>
<desc>lat.=44.431435, lon.=34.108799, Alt.=49.769073m. Speed=9.612000m/h.</desc>
<speed>2.670000</speed>
</trkpt>
<trkpt lat="44.431515" lon="34.108784">
<ele>51.304230</ele>
<time>2011-10-13T14:02:21Z</time>
<desc>lat.=44.431515, lon.=34.108784, Alt.=51.304230m. Speed=3.852000m/h.</desc>
<speed>1.070000</speed>
</trkpt>
<trkpt lat="44.431576" lon="34.108692">
<ele>53.861847</ele>
<time>2011-10-13T14:02:26Z</time>
<desc>lat.=44.431576, lon.=34.108692, Alt.=53.861847m. Speed=10.152000m/h.</desc>
<speed>2.820000</speed>
</trkpt>
<trkpt lat="44.431671" lon="34.108723">
<ele>57.239777</ele>
<time>2011-10-13T14:02:31Z</time>
<desc>lat.=44.431671, lon.=34.108723, Alt.=57.239777m. Speed=6.372000m/h.</desc>
<speed>1.770000</speed>
</trkpt>
<trkpt lat="44.431702" lon="34.108711">
<ele>58.575714</ele>
<time>2011-10-13T14:02:36Z</time>
<desc>lat.=44.431702, lon.=34.108711, Alt.=58.575714m. Speed=0.576000m/h.</desc>
<speed>0.160000</speed>
</trkpt>
<trkpt lat="44.431717" lon="34.108704">
<ele>59.525909</ele>
<time>2011-10-13T14:02:41Z</time>
<desc>lat.=44.431717, lon.=34.108704, Alt.=59.525909m. Speed=0.612000m/h.</desc>
<speed>0.170000</speed>
</trkpt>
<trkpt lat="44.431690" lon="34.108662">
<ele>61.040558</ele>
<time>2011-10-13T14:02:46Z</time>
<desc>lat.=44.431690, lon.=34.108662, Alt.=61.040558m. Speed=3.528000m/h.</desc>
<speed>0.980000</speed>
</trkpt>
<trkpt lat="44.431652" lon="34.108658">
<ele>62.924347</ele>
<time>2011-10-13T14:02:51Z</time>
<desc>lat.=44.431652, lon.=34.108658, Alt.=62.924347m. Speed=8.532000m/h.</desc>
<speed>2.370000</speed>
</trkpt>
<trkpt lat="44.431591" lon="34.108696">
<ele>63.025909</ele>
<time>2011-10-13T14:02:56Z</time>
<desc>lat.=44.431591, lon.=34.108696, Alt.=63.025909m. Speed=3.312000m/h.</desc>
<speed>0.920000</speed>
</trkpt>
<trkpt lat="44.431538" lon="34.108742">
<ele>63.680206</ele>
<time>2011-10-13T14:03:01Z</time>
<desc>lat.=44.431538, lon.=34.108742, Alt.=63.680206m. Speed=9.180000m/h.</desc>
<speed>2.550000</speed>
</trkpt>
<trkpt lat="44.431355" lon="34.108711">
<ele>64.444397</ele>
<time>2011-10-13T14:03:06Z</time>
<desc>lat.=44.431355, lon.=34.108711, Alt.=64.444397m. Speed=19.548000m/h.</desc>
<speed>5.430000</speed>
</trkpt>
<trkpt lat="44.431137" lon="34.108715">
<ele>68.190491</ele>
<time>2011-10-13T14:03:11Z</time>
<desc>lat.=44.431137, lon.=34.108715, Alt.=68.190491m. Speed=14.328000m/h.</desc>
<speed>3.980000</speed>
</trkpt>
<trkpt lat="44.430908" lon="34.108555">
<ele>63.137238</ele>
<time>2011-10-13T14:03:16Z</time>
<desc>lat.=44.430908, lon.=34.108555, Alt.=63.137238m. Speed=18.972000m/h.</desc>
<speed>5.270000</speed>
</trkpt>
<trkpt lat="44.430798" lon="34.108246">
<ele>61.195831</ele>
<time>2011-10-13T14:03:21Z</time>
<desc>lat.=44.430798, lon.=34.108246, Alt.=61.195831m. Speed=18.684000m/h.</desc>
<speed>5.190000</speed>
</trkpt>
<trkpt lat="44.430733" lon="34.107964">
<ele>60.725128</ele>
<time>2011-10-13T14:03:26Z</time>
<desc>lat.=44.430733, lon.=34.107964, Alt.=60.725128m. Speed=18.108000m/h.</desc>
<speed>5.030000</speed>
</trkpt>
<trkpt lat="44.430702" lon="34.107655">
<ele>60.685089</ele>
<time>2011-10-13T14:03:31Z</time>
<desc>lat.=44.430702, lon.=34.107655, Alt.=60.685089m. Speed=18.468000m/h.</desc>
<speed>5.130000</speed>
</trkpt>
<trkpt lat="44.430668" lon="34.107368">
<ele>60.534698</ele>
<time>2011-10-13T14:03:36Z</time>
<desc>lat.=44.430668, lon.=34.107368, Alt.=60.534698m. Speed=18.360001m/h.</desc>
<speed>5.100000</speed>
</trkpt>
<trkpt lat="44.430553" lon="34.107121">
<ele>61.996613</ele>
<time>2011-10-13T14:03:41Z</time>
<desc>lat.=44.430553, lon.=34.107121, Alt.=61.996613m. Speed=17.964001m/h.</desc>
<speed>4.990000</speed>
</trkpt>
<trkpt lat="44.430450" lon="34.106865">
<ele>63.217316</ele>
<time>2011-10-13T14:03:46Z</time>
<desc>lat.=44.430450, lon.=34.106865, Alt.=63.217316m. Speed=15.048000m/h.</desc>
<speed>4.180000</speed>
</trkpt>
<trkpt lat="44.430466" lon="34.106632">
<ele>65.192444</ele>
<time>2011-10-13T14:03:51Z</time>
<desc>lat.=44.430466, lon.=34.106632, Alt.=65.192444m. Speed=10.260000m/h.</desc>
<speed>2.850000</speed>
</trkpt>
<trkpt lat="44.430573" lon="34.106480">
<ele>63.368683</ele>
<time>2011-10-13T14:03:56Z</time>
<desc>lat.=44.430573, lon.=34.106480, Alt.=63.368683m. Speed=7.884000m/h.</desc>
<speed>2.190000</speed>
</trkpt>
<trkpt lat="44.430595" lon="34.106480">
<ele>63.766144</ele>
<time>2011-10-13T14:04:01Z</time>
<desc>lat.=44.430595, lon.=34.106480, Alt.=63.766144m. Speed=0.288000m/h.</desc>
<speed>0.080000</speed>
</trkpt>
<trkpt lat="44.430595" lon="34.106476">
<ele>63.779816</ele>
<time>2011-10-13T14:04:06Z</time>
<desc>lat.=44.430595, lon.=34.106476, Alt.=63.779816m. Speed=0.216000m/h.</desc>
<speed>0.060000</speed>
</trkpt>
<trkpt lat="44.430599" lon="34.106476">
<ele>63.861847</ele>
<time>2011-10-13T14:04:11Z</time>
<desc>lat.=44.430599, lon.=34.106476, Alt.=63.861847m. Speed=0.144000m/h.</desc>
<speed>0.040000</speed>
</trkpt>
<trkpt lat="44.430614" lon="34.106476">
<ele>64.040100</ele>
<time>2011-10-13T14:04:16Z</time>
<desc>lat.=44.430614, lon.=34.106476, Alt.=64.040100m. Speed=0.180000m/h.</desc>
<speed>0.050000</speed>
</trkpt>
<trkpt lat="44.430660" lon="34.106453">
<ele>65.124084</ele>
<time>2011-10-13T14:04:21Z</time>
<desc>lat.=44.430660, lon.=34.106453, Alt.=65.124084m. Speed=0.756000m/h.</desc>
<speed>0.210000</speed>
</trkpt>
<trkpt lat="44.430679" lon="34.106434">
<ele>65.061584</ele>
<time>2011-10-13T14:04:26Z</time>
<desc>lat.=44.430679, lon.=34.106434, Alt.=65.061584m. Speed=0.864000m/h.</desc>
<speed>0.240000</speed>
</trkpt>
<trkpt lat="44.430695" lon="34.106403">
<ele>66.194397</ele>
<time>2011-10-13T14:04:31Z</time>
<desc>lat.=44.430695, lon.=34.106403, Alt.=66.194397m. Speed=0.864000m/h.</desc>
<speed>0.240000</speed>
</trkpt>
<trkpt lat="44.430740" lon="34.106388">
<ele>70.612366</ele>
<time>2011-10-13T14:04:36Z</time>
<desc>lat.=44.430740, lon.=34.106388, Alt.=70.612366m. Speed=13.680000m/h.</desc>
<speed>3.800000</speed>
</trkpt>
<trkpt lat="44.430912" lon="34.106319">
<ele>75.139709</ele>
<time>2011-10-13T14:04:41Z</time>
<desc>lat.=44.430912, lon.=34.106319, Alt.=75.139709m. Speed=13.716000m/h.</desc>
<speed>3.810000</speed>
</trkpt>
<trkpt lat="44.431011" lon="34.106117">
<ele>76.846741</ele>
<time>2011-10-13T14:04:46Z</time>
<desc>lat.=44.431011, lon.=34.106117, Alt.=76.846741m. Speed=13.752000m/h.</desc>
<speed>3.820000</speed>
</trkpt>
<trkpt lat="44.430988" lon="34.105911">
<ele>75.295959</ele>
<time>2011-10-13T14:04:51Z</time>
<desc>lat.=44.430988, lon.=34.105911, Alt.=75.295959m. Speed=14.256000m/h.</desc>
<speed>3.960000</speed>
</trkpt>
<trkpt lat="44.430893" lon="34.105705">
<ele>72.704163</ele>
<time>2011-10-13T14:04:56Z</time>
<desc>lat.=44.430893, lon.=34.105705, Alt.=72.704163m. Speed=16.812000m/h.</desc>
<speed>4.670000</speed>
</trkpt>
<trkpt lat="44.430798" lon="34.105480">
<ele>69.124084</ele>
<time>2011-10-13T14:05:01Z</time>
<desc>lat.=44.430798, lon.=34.105480, Alt.=69.124084m. Speed=5.796000m/h.</desc>
<speed>1.610000</speed>
</trkpt>
<trkpt lat="44.430809" lon="34.105461">
<ele>67.176819</ele>
<time>2011-10-13T14:05:06Z</time>
<desc>lat.=44.430809, lon.=34.105461, Alt.=67.176819m. Speed=3.168000m/h.</desc>
<speed>0.880000</speed>
</trkpt>
<trkpt lat="44.430847" lon="34.105537">
<ele>67.530334</ele>
<time>2011-10-13T14:05:11Z</time>
<desc>lat.=44.430847, lon.=34.105537, Alt.=67.530334m. Speed=10.908000m/h.</desc>
<speed>3.030000</speed>
</trkpt>
<trkpt lat="44.430923" lon="34.105709">
<ele>69.696350</ele>
<time>2011-10-13T14:05:16Z</time>
<desc>lat.=44.430923, lon.=34.105709, Alt.=69.696350m. Speed=11.016000m/h.</desc>
<speed>3.060000</speed>
</trkpt>
<trkpt lat="44.430977" lon="34.105778">
<ele>70.127991</ele>
<time>2011-10-13T14:05:21Z</time>
<desc>lat.=44.430977, lon.=34.105778, Alt.=70.127991m. Speed=3.888000m/h.</desc>
<speed>1.080000</speed>
</trkpt>
<trkpt lat="44.431026" lon="34.105709">
<ele>72.629944</ele>
<time>2011-10-13T14:05:26Z</time>
<desc>lat.=44.431026, lon.=34.105709, Alt.=72.629944m. Speed=9.684000m/h.</desc>
<speed>2.690000</speed>
</trkpt>
<trkpt lat="44.431049" lon="34.105556">
<ele>72.420959</ele>
<time>2011-10-13T14:05:31Z</time>
<desc>lat.=44.431049, lon.=34.105556, Alt.=72.420959m. Speed=10.044000m/h.</desc>
<speed>2.790000</speed>
</trkpt>
<trkpt lat="44.431076" lon="34.105465">
<ele>71.967834</ele>
<time>2011-10-13T14:05:36Z</time>
<desc>lat.=44.431076, lon.=34.105465, Alt.=71.967834m. Speed=5.976000m/h.</desc>
<speed>1.660000</speed>
</trkpt>
<trkpt lat="44.431164" lon="34.105354">
<ele>72.696350</ele>
<time>2011-10-13T14:05:41Z</time>
<desc>lat.=44.431164, lon.=34.105354, Alt.=72.696350m. Speed=8.244000m/h.</desc>
<speed>2.290000</speed>
</trkpt>
<trkpt lat="44.431286" lon="34.105263">
<ele>73.391663</ele>
<time>2011-10-13T14:05:46Z</time>
<desc>lat.=44.431286, lon.=34.105263, Alt.=73.391663m. Speed=7.272000m/h.</desc>
<speed>2.020000</speed>
</trkpt>
<trkpt lat="44.431374" lon="34.105198">
<ele>73.641663</ele>
<time>2011-10-13T14:05:51Z</time>
<desc>lat.=44.431374, lon.=34.105198, Alt.=73.641663m. Speed=3.816000m/h.</desc>
<speed>1.060000</speed>
</trkpt>
<trkpt lat="44.431446" lon="34.105152">
<ele>73.016663</ele>
<time>2011-10-13T14:05:56Z</time>
<desc>lat.=44.431446, lon.=34.105152, Alt.=73.016663m. Speed=1.872000m/h.</desc>
<speed>0.520000</speed>
</trkpt>
<trkpt lat="44.431370" lon="34.105194">
<ele>71.245178</ele>
<time>2011-10-13T14:06:01Z</time>
<desc>lat.=44.431370, lon.=34.105194, Alt.=71.245178m. Speed=16.271999m/h.</desc>
<speed>4.520000</speed>
</trkpt>
<trkpt lat="44.431240" lon="34.105267">
<ele>69.922913</ele>
<time>2011-10-13T14:06:06Z</time>
<desc>lat.=44.431240, lon.=34.105267, Alt.=69.922913m. Speed=11.340000m/h.</desc>
<speed>3.150000</speed>
</trkpt>
<trkpt lat="44.431145" lon="34.105469">
<ele>67.633850</ele>
<time>2011-10-13T14:06:11Z</time>
<desc>lat.=44.431145, lon.=34.105469, Alt.=67.633850m. Speed=15.048000m/h.</desc>
<speed>4.180000</speed>
</trkpt>
<trkpt lat="44.431076" lon="34.105698">
<ele>66.946350</ele>
<time>2011-10-13T14:06:16Z</time>
<desc>lat.=44.431076, lon.=34.105698, Alt.=66.946350m. Speed=14.580000m/h.</desc>
<speed>4.050000</speed>
</trkpt>
<trkpt lat="44.431011" lon="34.105862">
<ele>65.075256</ele>
<time>2011-10-13T14:06:21Z</time>
<desc>lat.=44.431011, lon.=34.105862, Alt.=65.075256m. Speed=3.132000m/h.</desc>
<speed>0.870000</speed>
</trkpt>
<trkpt lat="44.431000" lon="34.105938">
<ele>65.196350</ele>
<time>2011-10-13T14:06:26Z</time>
<desc>lat.=44.431000, lon.=34.105938, Alt.=65.196350m. Speed=6.840000m/h.</desc>
<speed>1.900000</speed>
</trkpt>
<trkpt lat="44.430973" lon="34.105862">
<ele>65.135803</ele>
<time>2011-10-13T14:06:31Z</time>
<desc>lat.=44.430973, lon.=34.105862, Alt.=65.135803m. Speed=3.600000m/h.</desc>
<speed>1.000000</speed>
</trkpt>
<trkpt lat="44.430969" lon="34.105839">
<ele>65.850647</ele>
<time>2011-10-13T14:06:36Z</time>
<desc>lat.=44.430969, lon.=34.105839, Alt.=65.850647m. Speed=0.684000m/h.</desc>
<speed>0.190000</speed>
</trkpt>
<trkpt lat="44.430962" lon="34.105827">
<ele>66.374084</ele>
<time>2011-10-13T14:06:41Z</time>
<desc>lat.=44.430962, lon.=34.105827, Alt.=66.374084m. Speed=0.972000m/h.</desc>
<speed>0.270000</speed>
</trkpt>
<trkpt lat="44.430965" lon="34.105816">
<ele>66.676819</ele>
<time>2011-10-13T14:06:46Z</time>
<desc>lat.=44.430965, lon.=34.105816, Alt.=66.676819m. Speed=0.972000m/h.</desc>
<speed>0.270000</speed>
</trkpt>
<trkpt lat="44.430962" lon="34.105808">
<ele>66.864319</ele>
<time>2011-10-13T14:06:51Z</time>
<desc>lat.=44.430962, lon.=34.105808, Alt.=66.864319m. Speed=1.224000m/h.</desc>
<speed>0.340000</speed>
</trkpt>
<trkpt lat="44.430965" lon="34.105816">
<ele>66.829163</ele>
<time>2011-10-13T14:06:56Z</time>
<desc>lat.=44.430965, lon.=34.105816, Alt.=66.829163m. Speed=0.324000m/h.</desc>
<speed>0.090000</speed>
</trkpt>
<trkpt lat="44.430977" lon="34.105831">
<ele>66.442444</ele>
<time>2011-10-13T14:07:01Z</time>
<desc>lat.=44.430977, lon.=34.105831, Alt.=66.442444m. Speed=0.036000m/h.</desc>
<speed>0.010000</speed>
</trkpt>
<trkpt lat="44.430984" lon="34.105808">
<ele>65.206116</ele>
<time>2011-10-13T14:07:06Z</time>
<desc>lat.=44.430984, lon.=34.105808, Alt.=65.206116m. Speed=3.780000m/h.</desc>
<speed>1.050000</speed>
</trkpt>
<trkpt lat="44.430889" lon="34.105862">
<ele>65.243225</ele>
<time>2011-10-13T14:07:11Z</time>
<desc>lat.=44.430889, lon.=34.105862, Alt.=65.243225m. Speed=12.240000m/h.</desc>
<speed>3.400000</speed>
</trkpt>
<trkpt lat="44.430759" lon="34.105942">
<ele>65.360413</ele>
<time>2011-10-13T14:07:16Z</time>
<desc>lat.=44.430759, lon.=34.105942, Alt.=65.360413m. Speed=5.904000m/h.</desc>
<speed>1.640000</speed>
</trkpt>
<trkpt lat="44.430698" lon="34.105957">
<ele>65.295959</ele>
<time>2011-10-13T14:07:21Z</time>
<desc>lat.=44.430698, lon.=34.105957, Alt.=65.295959m. Speed=6.516000m/h.</desc>
<speed>1.810000</speed>
</trkpt>
<trkpt lat="44.430576" lon="34.105988">
<ele>64.797913</ele>
<time>2011-10-13T14:07:26Z</time>
<desc>lat.=44.430576, lon.=34.105988, Alt.=64.797913m. Speed=8.244000m/h.</desc>
<speed>2.290000</speed>
</trkpt>
<trkpt lat="44.430508" lon="34.106014">
<ele>63.947784</ele>
<time>2011-10-13T14:07:31Z</time>
<desc>lat.=44.430508, lon.=34.106014, Alt.=63.947784m. Speed=4.068000m/h.</desc>
<speed>1.130000</speed>
</trkpt>
<trkpt lat="44.430500" lon="34.105991">
<ele>64.676819</ele>
<time>2011-10-13T14:07:36Z</time>
<desc>lat.=44.430500, lon.=34.105991, Alt.=64.676819m. Speed=2.232000m/h.</desc>
<speed>0.620000</speed>
</trkpt>
<trkpt lat="44.430496" lon="34.106003">
<ele>65.991272</ele>
<time>2011-10-13T14:07:41Z</time>
<desc>lat.=44.430496, lon.=34.106003, Alt.=65.991272m. Speed=0.540000m/h.</desc>
<speed>0.150000</speed>
</trkpt>
<trkpt lat="44.430454" lon="34.105995">
<ele>64.710022</ele>
<time>2011-10-13T14:07:46Z</time>
<desc>lat.=44.430454, lon.=34.105995, Alt.=64.710022m. Speed=2.700000m/h.</desc>
<speed>0.750000</speed>
</trkpt>
<trkpt lat="44.430408" lon="34.105988">
<ele>63.294464</ele>
<time>2011-10-13T14:07:51Z</time>
<desc>lat.=44.430408, lon.=34.105988, Alt.=63.294464m. Speed=2.736000m/h.</desc>
<speed>0.760000</speed>
</trkpt>
<trkpt lat="44.430405" lon="34.105965">
<ele>63.444855</ele>
<time>2011-10-13T14:07:56Z</time>
<desc>lat.=44.430405, lon.=34.105965, Alt.=63.444855m. Speed=0.324000m/h.</desc>
<speed>0.090000</speed>
</trkpt>
<trkpt lat="44.430393" lon="34.105961">
<ele>63.617706</ele>
<time>2011-10-13T14:08:01Z</time>
<desc>lat.=44.430393, lon.=34.105961, Alt.=63.617706m. Speed=2.196000m/h.</desc>
<speed>0.610000</speed>
</trkpt>
<trkpt lat="44.430374" lon="34.105942">
<ele>63.728058</ele>
<time>2011-10-13T14:08:06Z</time>
<desc>lat.=44.430374, lon.=34.105942, Alt.=63.728058m. Speed=1.908000m/h.</desc>
<speed>0.530000</speed>
</trkpt>
<trkpt lat="44.430305" lon="34.105927">
<ele>63.743683</ele>
<time>2011-10-13T14:08:11Z</time>
<desc>lat.=44.430305, lon.=34.105927, Alt.=63.743683m. Speed=1.620000m/h.</desc>
<speed>0.450000</speed>
</trkpt>
<trkpt lat="44.430283" lon="34.105915">
<ele>63.805206</ele>
<time>2011-10-13T14:08:16Z</time>
<desc>lat.=44.430283, lon.=34.105915, Alt.=63.805206m. Speed=0.432000m/h.</desc>
<speed>0.120000</speed>
</trkpt>
<trkpt lat="44.430283" lon="34.105911">
<ele>63.798370</ele>
<time>2011-10-13T14:08:21Z</time>
<desc>lat.=44.430283, lon.=34.105911, Alt.=63.798370m. Speed=0.144000m/h.</desc>
<speed>0.040000</speed>
</trkpt>
<trkpt lat="44.430286" lon="34.105915">
<ele>63.769073</ele>
<time>2011-10-13T14:08:26Z</time>
<desc>lat.=44.430286, lon.=34.105915, Alt.=63.769073m. Speed=0.324000m/h.</desc>
<speed>0.090000</speed>
</trkpt>
<trkpt lat="44.430290" lon="34.105911">
<ele>63.729034</ele>
<time>2011-10-13T14:08:31Z</time>
<desc>lat.=44.430290, lon.=34.105911, Alt.=63.729034m. Speed=0.576000m/h.</desc>
<speed>0.160000</speed>
</trkpt>
<trkpt lat="44.430279" lon="34.105873">
<ele>63.780792</ele>
<time>2011-10-13T14:08:36Z</time>
<desc>lat.=44.430279, lon.=34.105873, Alt.=63.780792m. Speed=0.036000m/h.</desc>
<speed>0.010000</speed>
</trkpt>
<trkpt lat="44.430275" lon="34.105873">
<ele>63.813019</ele>
<time>2011-10-13T14:08:41Z</time>
<desc>lat.=44.430275, lon.=34.105873, Alt.=63.813019m. Speed=0.108000m/h.</desc>
<speed>0.030000</speed>
</trkpt>
<trkpt lat="44.430279" lon="34.105873">
<ele>63.806183</ele>
<time>2011-10-13T14:08:46Z</time>
<desc>lat.=44.430279, lon.=34.105873, Alt.=63.806183m. Speed=0.216000m/h.</desc>
<speed>0.060000</speed>
</trkpt>
<trkpt lat="44.430279" lon="34.105877">
<ele>63.774933</ele>
<time>2011-10-13T14:08:51Z</time>
<desc>lat.=44.430279, lon.=34.105877, Alt.=63.774933m. Speed=1.116000m/h.</desc>
<speed>0.310000</speed>
</trkpt>
<trkpt lat="44.430260" lon="34.105865">
<ele>63.668488</ele>
<time>2011-10-13T14:08:56Z</time>
<desc>lat.=44.430260, lon.=34.105865, Alt.=63.668488m. Speed=1.368000m/h.</desc>
<speed>0.380000</speed>
</trkpt>
<trkpt lat="44.430252" lon="34.105850">
<ele>63.620636</ele>
<time>2011-10-13T14:09:01Z</time>
<desc>lat.=44.430252, lon.=34.105850, Alt.=63.620636m. Speed=0.972000m/h.</desc>
<speed>0.270000</speed>
</trkpt>
<trkpt lat="44.430248" lon="34.105831">
<ele>63.431183</ele>
<time>2011-10-13T14:09:06Z</time>
<desc>lat.=44.430248, lon.=34.105831, Alt.=63.431183m. Speed=0.864000m/h.</desc>
<speed>0.240000</speed>
</trkpt>
<trkpt lat="44.430256" lon="34.105816">
<ele>63.447784</ele>
<time>2011-10-13T14:09:11Z</time>
<desc>lat.=44.430256, lon.=34.105816, Alt.=63.447784m. Speed=0.612000m/h.</desc>
<speed>0.170000</speed>
</trkpt>
<trkpt lat="44.430260" lon="34.105827">
<ele>63.806183</ele>
<time>2011-10-13T14:09:16Z</time>
<desc>lat.=44.430260, lon.=34.105827, Alt.=63.806183m. Speed=0.504000m/h.</desc>
<speed>0.140000</speed>
</trkpt>
<trkpt lat="44.430260" lon="34.105816">
<ele>63.808136</ele>
<time>2011-10-13T14:09:21Z</time>
<desc>lat.=44.430260, lon.=34.105816, Alt.=63.808136m. Speed=0.576000m/h.</desc>
<speed>0.160000</speed>
</trkpt>
<trkpt lat="44.430256" lon="34.105793">
<ele>63.805206</ele>
<time>2011-10-13T14:09:26Z</time>
<desc>lat.=44.430256, lon.=34.105793, Alt.=63.805206m. Speed=0.648000m/h.</desc>
<speed>0.180000</speed>
</trkpt>
<trkpt lat="44.430256" lon="34.105789">
<ele>63.718292</ele>
<time>2011-10-13T14:09:31Z</time>
<desc>lat.=44.430256, lon.=34.105789, Alt.=63.718292m. Speed=0.504000m/h.</desc>
<speed>0.140000</speed>
</trkpt>
<trkpt lat="44.430260" lon="34.105747">
<ele>63.563019</ele>
<time>2011-10-13T14:09:36Z</time>
<desc>lat.=44.430260, lon.=34.105747, Alt.=63.563019m. Speed=0.900000m/h.</desc>
<speed>0.250000</speed>
</trkpt>
<trkpt lat="44.430271" lon="34.105740">
<ele>63.320831</ele>
<time>2011-10-13T14:09:41Z</time>
<desc>lat.=44.430271, lon.=34.105740, Alt.=63.320831m. Speed=0.684000m/h.</desc>
<speed>0.190000</speed>
</trkpt>
<trkpt lat="44.430294" lon="34.105740">
<ele>63.223175</ele>
<time>2011-10-13T14:09:46Z</time>
<desc>lat.=44.430294, lon.=34.105740, Alt.=63.223175m. Speed=0.648000m/h.</desc>
<speed>0.180000</speed>
</trkpt>
<trkpt lat="44.430286" lon="34.105705">
<ele>63.661652</ele>
<time>2011-10-13T14:09:51Z</time>
<desc>lat.=44.430286, lon.=34.105705, Alt.=63.661652m. Speed=0.828000m/h.</desc>
<speed>0.230000</speed>
</trkpt>
</trkseg>
</trk>
</gpx>